<?xml version='1.0' encoding='UTF-8'?><gpx version="1.1" creator="JPX - https://github.com/jenetics/jpx" xmlns="http://www.topografix.com/GPX/1/1"><trk><trkseg><trkpt lat="42.521839" lon="14.1522538"><ele>-0.2</ele><time>2026-05-02T06:32:34.338Z</time></trkpt><trkpt lat="42.5218872" lon="14.1523851"><ele>-0.4</ele><time>2026-05-02T06:32:38.329Z</time></trkpt><trkpt lat="42.5219345" lon="14.15249"><ele>-0.6000000000000001</ele><time>2026-05-02T06:32:42.329Z</time></trkpt><trkpt lat="42.5219735" lon="14.1525617"><ele>-0.8</ele><time>2026-05-02T06:32:46.326Z</time></trkpt><trkpt lat="42.5220183" lon="14.1526574"><ele>-1.0</ele><time>2026-05-02T06:33:20.324Z</time></trkpt><trkpt lat="42.5220755" lon="14.1527939"><ele>-0.25</ele><time>2026-05-02T06:33:22.325Z</time></trkpt><trkpt lat="42.5221585" lon="14.1529805"><ele>0.5</ele><time>2026-05-02T06:33:24.313Z</time></trkpt><trkpt lat="42.5222305" lon="14.1531452"><ele>1.25</ele><time>2026-05-02T06:33:26.313Z</time></trkpt><trkpt lat="42.5222843" lon="14.1532477"><ele>2.0</ele><time>2026-05-02T06:33:28.316Z</time></trkpt><trkpt lat="42.5222281" lon="14.1534157"><ele>2.0</ele><time>2026-05-02T06:33:32.319Z</time></trkpt><trkpt lat="42.5221404" lon="14.1534723"><ele>2.0</ele><time>2026-05-02T06:33:34.321Z</time></trkpt><trkpt lat="42.5220505" lon="14.1535218"><ele>2.0</ele><time>2026-05-02T06:33:36.308Z</time></trkpt><trkpt lat="42.5219768" lon="14.1535831"><ele>2.0</ele><time>2026-05-02T06:33:40.32Z</time></trkpt><trkpt lat="42.5219003" lon="14.1535956"><ele>2.0</ele><time>2026-05-02T06:33:42.318Z</time></trkpt><trkpt lat="42.5218241" lon="14.1535169"><ele>1.3333333333333333</ele><time>2026-05-02T06:33:44.313Z</time></trkpt><trkpt lat="42.521775" lon="14.1533247"><ele>0.6666666666666666</ele><time>2026-05-02T06:33:46.308Z</time></trkpt><trkpt lat="42.5217123" lon="14.153096"><ele>0.0</ele><time>2026-05-02T06:33:48.309Z</time></trkpt><trkpt lat="42.5216329" lon="14.152863"><ele>0.0</ele><time>2026-05-02T06:33:50.312Z</time></trkpt><trkpt lat="42.5215498" lon="14.1526154"><ele>0.0</ele><time>2026-05-02T06:33:52.325Z</time></trkpt><trkpt lat="42.521473" lon="14.1523708"><ele>0.0</ele><time>2026-05-02T06:33:54.317Z</time></trkpt><trkpt lat="42.5213831" lon="14.1521195"><ele>0.0</ele><time>2026-05-02T06:33:56.316Z</time></trkpt><trkpt lat="42.5213011" lon="14.1518799"><ele>0.0</ele><time>2026-05-02T06:33:58.319Z</time></trkpt><trkpt lat="42.5212152" lon="14.151633"><ele>0.0</ele><time>2026-05-02T06:34:00.323Z</time></trkpt><trkpt lat="42.5211289" lon="14.1513802"><ele>0.6666666666666666</ele><time>2026-05-02T06:34:02.337Z</time></trkpt><trkpt lat="42.521029" lon="14.1511329"><ele>1.3333333333333333</ele><time>2026-05-02T06:34:04.321Z</time></trkpt><trkpt lat="42.5209485" lon="14.1508879"><ele>2.0</ele><time>2026-05-02T06:34:06.329Z</time></trkpt><trkpt lat="42.5208792" lon="14.1506575"><ele>2.333333333333333</ele><time>2026-05-02T06:34:08.317Z</time></trkpt><trkpt lat="42.5208026" lon="14.1504253"><ele>2.6666666666666665</ele><time>2026-05-02T06:34:10.319Z</time></trkpt><trkpt lat="42.5207326" lon="14.1501929"><ele>3.0</ele><time>2026-05-02T06:34:12.32Z</time></trkpt><trkpt lat="42.5206649" lon="14.1499476"><ele>2.75</ele><time>2026-05-02T06:34:14.325Z</time></trkpt><trkpt lat="42.5205835" lon="14.1497568"><ele>2.5</ele><time>2026-05-02T06:34:16.33Z</time></trkpt><trkpt lat="42.5205281" lon="14.1496129"><ele>2.25</ele><time>2026-05-02T06:34:18.323Z</time></trkpt><trkpt lat="42.5206144" lon="14.1495564"><ele>2.0</ele><time>2026-05-02T06:34:22.344Z</time></trkpt><trkpt lat="42.5207437" lon="14.1495136"><ele>2.0</ele><time>2026-05-02T06:34:24.339Z</time></trkpt><trkpt lat="42.5209018" lon="14.1494049"><ele>2.0</ele><time>2026-05-02T06:34:26.343Z</time></trkpt><trkpt lat="42.5210517" lon="14.1493051"><ele>2.0</ele><time>2026-05-02T06:34:28.326Z</time></trkpt><trkpt lat="42.5211933" lon="14.1492149"><ele>2.333333333333333</ele><time>2026-05-02T06:34:30.33Z</time></trkpt><trkpt lat="42.5212885" lon="14.1491261"><ele>2.6666666666666665</ele><time>2026-05-02T06:34:32.322Z</time></trkpt><trkpt lat="42.5213238" lon="14.1492261"><ele>3.0</ele><time>2026-05-02T06:36:10.345Z</time></trkpt><trkpt lat="42.5213906" lon="14.1492572"><ele>3.333333333333333</ele><time>2026-05-02T06:36:16.353Z</time></trkpt><trkpt lat="42.5213944" lon="14.1491496"><ele>3.6666666666666665</ele><time>2026-05-02T06:36:24.341Z</time></trkpt><trkpt lat="42.5213549" lon="14.1492767"><ele>4.0</ele><time>2026-05-02T06:43:04.323Z</time></trkpt><trkpt lat="42.5212654" lon="14.1491832"><ele>3.5</ele><time>2026-05-02T06:43:08.328Z</time></trkpt><trkpt lat="42.5211504" lon="14.1492241"><ele>3.0</ele><time>2026-05-02T06:43:10.319Z</time></trkpt><trkpt lat="42.5210448" lon="14.1492829"><ele>2.5</ele><time>2026-05-02T06:43:12.319Z</time></trkpt><trkpt lat="42.5209223" lon="14.1493296"><ele>2.0</ele><time>2026-05-02T06:43:14.319Z</time></trkpt><trkpt lat="42.5207981" lon="14.1493898"><ele>2.0</ele><time>2026-05-02T06:43:16.318Z</time></trkpt><trkpt lat="42.5207031" lon="14.1494784"><ele>2.0</ele><time>2026-05-02T06:43:18.33Z</time></trkpt><trkpt lat="42.5206251" lon="14.1495426"><ele>2.0</ele><time>2026-05-02T06:43:20.313Z</time></trkpt><trkpt lat="42.5205287" lon="14.1495618"><ele>2.0</ele><time>2026-05-02T06:43:22.317Z</time></trkpt><trkpt lat="42.5204581" lon="14.1495282"><ele>2.0</ele><time>2026-05-02T06:43:24.329Z</time></trkpt><trkpt lat="42.5203799" lon="14.1493441"><ele>2.0</ele><time>2026-05-02T06:43:26.314Z</time></trkpt><trkpt lat="42.5203257" lon="14.1491467"><ele>2.0</ele><time>2026-05-02T06:43:28.313Z</time></trkpt><trkpt lat="42.5202636" lon="14.1489291"><ele>2.0</ele><time>2026-05-02T06:43:30.31Z</time></trkpt><trkpt lat="42.5202019" lon="14.148711"><ele>2.0</ele><time>2026-05-02T06:43:32.309Z</time></trkpt><trkpt lat="42.520137" lon="14.1484813"><ele>2.0</ele><time>2026-05-02T06:43:34.311Z</time></trkpt><trkpt lat="42.5200533" lon="14.1482498"><ele>2.0</ele><time>2026-05-02T06:43:36.303Z</time></trkpt><trkpt lat="42.5199557" lon="14.1480356"><ele>1.3333333333333333</ele><time>2026-05-02T06:43:38.307Z</time></trkpt><trkpt lat="42.519838" lon="14.1478249"><ele>0.6666666666666666</ele><time>2026-05-02T06:43:40.308Z</time></trkpt><trkpt lat="42.5197183" lon="14.147643"><ele>0.0</ele><time>2026-05-02T06:43:42.315Z</time></trkpt><trkpt lat="42.5196064" lon="14.1474821"><ele>1.0</ele><time>2026-05-02T06:43:44.314Z</time></trkpt><trkpt lat="42.519519" lon="14.1473179"><ele>2.0</ele><time>2026-05-02T06:43:46.315Z</time></trkpt><trkpt lat="42.5194589" lon="14.147094"><ele>3.0</ele><time>2026-05-02T06:43:48.305Z</time></trkpt><trkpt lat="42.5194611" lon="14.1468045"><ele>3.0</ele><time>2026-05-02T06:43:50.301Z</time></trkpt><trkpt lat="42.5194981" lon="14.1465865"><ele>3.0</ele><time>2026-05-02T06:43:52.312Z</time></trkpt><trkpt lat="42.5195426" lon="14.1464056"><ele>3.0</ele><time>2026-05-02T06:43:54.31Z</time></trkpt><trkpt lat="42.5195866" lon="14.1462955"><ele>3.0</ele><time>2026-05-02T06:43:56.312Z</time></trkpt><trkpt lat="42.5196285" lon="14.1461884"><ele>3.0</ele><time>2026-05-02T06:43:58.309Z</time></trkpt><trkpt lat="42.519673" lon="14.1460865"><ele>3.0</ele><time>2026-05-02T06:44:02.315Z</time></trkpt><trkpt lat="42.5197157" lon="14.1460084"><ele>3.0</ele><time>2026-05-02T06:44:04.313Z</time></trkpt><trkpt lat="42.519699" lon="14.1458872"><ele>3.0</ele><time>2026-05-02T06:44:06.307Z</time></trkpt><trkpt lat="42.51955" lon="14.1458018"><ele>3.0</ele><time>2026-05-02T06:44:08.303Z</time></trkpt><trkpt lat="42.5193715" lon="14.1457045"><ele>3.0</ele><time>2026-05-02T06:44:10.305Z</time></trkpt><trkpt lat="42.5191631" lon="14.145571"><ele>3.0</ele><time>2026-05-02T06:44:12.302Z</time></trkpt><trkpt lat="42.5189128" lon="14.145404"><ele>3.0</ele><time>2026-05-02T06:44:14.299Z</time></trkpt><trkpt lat="42.518627" lon="14.1451917"><ele>3.0</ele><time>2026-05-02T06:44:16.299Z</time></trkpt><trkpt lat="42.5183991" lon="14.1450285"><ele>2.0</ele><time>2026-05-02T06:44:18.307Z</time></trkpt><trkpt lat="42.5182008" lon="14.1448774"><ele>1.0</ele><time>2026-05-02T06:44:20.328Z</time></trkpt><trkpt lat="42.518002" lon="14.1447316"><ele>1.6666666666666665</ele><time>2026-05-02T06:44:22.317Z</time></trkpt><trkpt lat="42.5178103" lon="14.1446133"><ele>2.3333333333333335</ele><time>2026-05-02T06:44:24.335Z</time></trkpt><trkpt lat="42.5176096" lon="14.1444784"><ele>3.0</ele><time>2026-05-02T06:44:26.395Z</time></trkpt><trkpt lat="42.5173953" lon="14.1443245"><ele>3.0</ele><time>2026-05-02T06:44:28.398Z</time></trkpt><trkpt lat="42.5171731" lon="14.1441673"><ele>3.0</ele><time>2026-05-02T06:44:30.394Z</time></trkpt><trkpt lat="42.5169606" lon="14.1440076"><ele>4.0</ele><time>2026-05-02T06:44:32.39Z</time></trkpt><trkpt lat="42.516751" lon="14.143857"><ele>5.0</ele><time>2026-05-02T06:44:34.386Z</time></trkpt><trkpt lat="42.516564" lon="14.1437257"><ele>6.0</ele><time>2026-05-02T06:44:36.386Z</time></trkpt><trkpt lat="42.5163544" lon="14.1435826"><ele>5.0</ele><time>2026-05-02T06:44:38.387Z</time></trkpt><trkpt lat="42.5161306" lon="14.1434244"><ele>4.0</ele><time>2026-05-02T06:44:40.384Z</time></trkpt><trkpt lat="42.5159039" lon="14.1432571"><ele>3.5</ele><time>2026-05-02T06:44:42.383Z</time></trkpt><trkpt lat="42.5156884" lon="14.1430987"><ele>3.0</ele><time>2026-05-02T06:44:44.386Z</time></trkpt><trkpt lat="42.515482" lon="14.142947"><ele>2.6666666666666665</ele><time>2026-05-02T06:44:46.382Z</time></trkpt><trkpt lat="42.5152789" lon="14.142796"><ele>2.333333333333333</ele><time>2026-05-02T06:44:48.39Z</time></trkpt><trkpt lat="42.5151013" lon="14.1426649"><ele>2.0</ele><time>2026-05-02T06:44:50.392Z</time></trkpt><trkpt lat="42.5149176" lon="14.1425265"><ele>2.0</ele><time>2026-05-02T06:44:52.396Z</time></trkpt><trkpt lat="42.5147382" lon="14.1423916"><ele>2.0</ele><time>2026-05-02T06:44:54.399Z</time></trkpt><trkpt lat="42.5145685" lon="14.1422706"><ele>2.0</ele><time>2026-05-02T06:44:56.403Z</time></trkpt><trkpt lat="42.5143696" lon="14.1421185"><ele>2.5</ele><time>2026-05-02T06:44:58.408Z</time></trkpt><trkpt lat="42.5141528" lon="14.1419496"><ele>3.0</ele><time>2026-05-02T06:45:00.411Z</time></trkpt><trkpt lat="42.5139474" lon="14.1418034"><ele>3.0</ele><time>2026-05-02T06:45:02.407Z</time></trkpt><trkpt lat="42.5137436" lon="14.1416532"><ele>3.0</ele><time>2026-05-02T06:45:04.41Z</time></trkpt><trkpt lat="42.5135451" lon="14.1415074"><ele>4.0</ele><time>2026-05-02T06:45:06.403Z</time></trkpt><trkpt lat="42.5133594" lon="14.1413784"><ele>5.0</ele><time>2026-05-02T06:45:08.407Z</time></trkpt><trkpt lat="42.5131838" lon="14.1412383"><ele>6.0</ele><time>2026-05-02T06:45:10.403Z</time></trkpt><trkpt lat="42.5130299" lon="14.14105"><ele>6.0</ele><time>2026-05-02T06:45:12.382Z</time></trkpt><trkpt lat="42.5129226" lon="14.140818"><ele>6.0</ele><time>2026-05-02T06:45:14.387Z</time></trkpt><trkpt lat="42.5128586" lon="14.1405304"><ele>6.0</ele><time>2026-05-02T06:45:16.399Z</time></trkpt><trkpt lat="42.5128611" lon="14.1402283"><ele>6.0</ele><time>2026-05-02T06:45:18.39Z</time></trkpt><trkpt lat="42.5129313" lon="14.1399738"><ele>6.0</ele><time>2026-05-02T06:45:20.389Z</time></trkpt><trkpt lat="42.5130249" lon="14.1397305"><ele>6.0</ele><time>2026-05-02T06:45:22.43Z</time></trkpt><trkpt lat="42.5131063" lon="14.1395167"><ele>6.25</ele><time>2026-05-02T06:45:24.416Z</time></trkpt><trkpt lat="42.5131737" lon="14.139361"><ele>6.5</ele><time>2026-05-02T06:45:26.4Z</time></trkpt><trkpt lat="42.513229" lon="14.1392205"><ele>6.75</ele><time>2026-05-02T06:45:28.409Z</time></trkpt><trkpt lat="42.5132776" lon="14.1390804"><ele>7.0</ele><time>2026-05-02T06:45:30.4Z</time></trkpt><trkpt lat="42.5133387" lon="14.1389054"><ele>6.666666666666667</ele><time>2026-05-02T06:45:32.408Z</time></trkpt><trkpt lat="42.5134248" lon="14.1386833"><ele>6.333333333333334</ele><time>2026-05-02T06:45:34.404Z</time></trkpt><trkpt lat="42.513524" lon="14.1384317"><ele>6.0</ele><time>2026-05-02T06:45:36.408Z</time></trkpt><trkpt lat="42.5136124" lon="14.1382054"><ele>6.0</ele><time>2026-05-02T06:45:38.399Z</time></trkpt><trkpt lat="42.5136891" lon="14.1380082"><ele>6.0</ele><time>2026-05-02T06:45:40.403Z</time></trkpt><trkpt lat="42.5137479" lon="14.1378593"><ele>6.0</ele><time>2026-05-02T06:45:42.404Z</time></trkpt><trkpt lat="42.5137947" lon="14.1377403"><ele>6.0</ele><time>2026-05-02T06:45:44.404Z</time></trkpt><trkpt lat="42.5138805" lon="14.1376248"><ele>6.0</ele><time>2026-05-02T06:45:46.402Z</time></trkpt><trkpt lat="42.5139116" lon="14.1374869"><ele>6.0</ele><time>2026-05-02T06:45:48.386Z</time></trkpt><trkpt lat="42.5138735" lon="14.1373851"><ele>6.0</ele><time>2026-05-02T06:45:50.383Z</time></trkpt><trkpt lat="42.5137588" lon="14.1372963"><ele>6.0</ele><time>2026-05-02T06:45:52.322Z</time></trkpt><trkpt lat="42.5136282" lon="14.1371056"><ele>5.333333333333333</ele><time>2026-05-02T06:45:54.322Z</time></trkpt><trkpt lat="42.513531" lon="14.1368348"><ele>4.666666666666666</ele><time>2026-05-02T06:45:56.318Z</time></trkpt><trkpt lat="42.51346" lon="14.1365757"><ele>4.0</ele><time>2026-05-02T06:45:58.317Z</time></trkpt><trkpt lat="42.5134078" lon="14.1363313"><ele>3.75</ele><time>2026-05-02T06:46:00.317Z</time></trkpt><trkpt lat="42.5133711" lon="14.1361366"><ele>3.5</ele><time>2026-05-02T06:46:02.304Z</time></trkpt><trkpt lat="42.5133365" lon="14.1359821"><ele>3.25</ele><time>2026-05-02T06:46:04.315Z</time></trkpt><trkpt lat="42.5132899" lon="14.1358228"><ele>3.0</ele><time>2026-05-02T06:46:06.315Z</time></trkpt><trkpt lat="42.5132137" lon="14.1356411"><ele>3.0</ele><time>2026-05-02T06:46:08.317Z</time></trkpt><trkpt lat="42.5131132" lon="14.1354572"><ele>3.0</ele><time>2026-05-02T06:46:10.319Z</time></trkpt><trkpt lat="42.5129804" lon="14.1352518"><ele>3.0</ele><time>2026-05-02T06:46:12.32Z</time></trkpt><trkpt lat="42.5128001" lon="14.1350714"><ele>3.0</ele><time>2026-05-02T06:46:14.317Z</time></trkpt><trkpt lat="42.5126048" lon="14.1349114"><ele>3.0</ele><time>2026-05-02T06:46:16.32Z</time></trkpt><trkpt lat="42.5123727" lon="14.1347587"><ele>2.0</ele><time>2026-05-02T06:46:18.319Z</time></trkpt><trkpt lat="42.5121255" lon="14.1346026"><ele>1.0</ele><time>2026-05-02T06:46:20.321Z</time></trkpt><trkpt lat="42.5119006" lon="14.1344434"><ele>3.0</ele><time>2026-05-02T06:46:22.33Z</time></trkpt><trkpt lat="42.5117053" lon="14.1342295"><ele>5.0</ele><time>2026-05-02T06:46:24.343Z</time></trkpt><trkpt lat="42.5115737" lon="14.1339779"><ele>5.0</ele><time>2026-05-02T06:46:26.308Z</time></trkpt><trkpt lat="42.5114619" lon="14.1337236"><ele>5.0</ele><time>2026-05-02T06:46:28.315Z</time></trkpt><trkpt lat="42.5113449" lon="14.1335179"><ele>5.0</ele><time>2026-05-02T06:46:30.32Z</time></trkpt><trkpt lat="42.5112273" lon="14.1333124"><ele>5.333333333333334</ele><time>2026-05-02T06:46:32.315Z</time></trkpt><trkpt lat="42.5111041" lon="14.1331273"><ele>5.666666666666667</ele><time>2026-05-02T06:46:34.316Z</time></trkpt><trkpt lat="42.5109833" lon="14.1329365"><ele>6.0</ele><time>2026-05-02T06:46:36.319Z</time></trkpt><trkpt lat="42.5108895" lon="14.1327604"><ele>6.0</ele><time>2026-05-02T06:46:38.315Z</time></trkpt><trkpt lat="42.5108" lon="14.1325653"><ele>6.0</ele><time>2026-05-02T06:46:40.313Z</time></trkpt><trkpt lat="42.5106728" lon="14.1323344"><ele>6.0</ele><time>2026-05-02T06:46:42.308Z</time></trkpt><trkpt lat="42.5105099" lon="14.1320392"><ele>6.0</ele><time>2026-05-02T06:46:44.311Z</time></trkpt><trkpt lat="42.510334" lon="14.1317257"><ele>6.0</ele><time>2026-05-02T06:46:46.314Z</time></trkpt><trkpt lat="42.5101586" lon="14.1314045"><ele>5.5</ele><time>2026-05-02T06:46:48.31Z</time></trkpt><trkpt lat="42.5099699" lon="14.1310886"><ele>5.0</ele><time>2026-05-02T06:46:50.312Z</time></trkpt><trkpt lat="42.5097622" lon="14.1307833"><ele>6.0</ele><time>2026-05-02T06:46:52.32Z</time></trkpt><trkpt lat="42.5095628" lon="14.1304875"><ele>7.0</ele><time>2026-05-02T06:46:54.334Z</time></trkpt><trkpt lat="42.5093935" lon="14.1302174"><ele>7.0</ele><time>2026-05-02T06:46:56.315Z</time></trkpt><trkpt lat="42.5092488" lon="14.1299884"><ele>7.0</ele><time>2026-05-02T06:46:58.313Z</time></trkpt><trkpt lat="42.509119" lon="14.1298074"><ele>7.0</ele><time>2026-05-02T06:47:00.317Z</time></trkpt><trkpt lat="42.5090802" lon="14.1296097"><ele>6.666666666666667</ele><time>2026-05-02T06:47:02.316Z</time></trkpt><trkpt lat="42.5090282" lon="14.1294229"><ele>6.333333333333334</ele><time>2026-05-02T06:47:04.315Z</time></trkpt><trkpt lat="42.5088674" lon="14.1292743"><ele>6.0</ele><time>2026-05-02T06:47:06.31Z</time></trkpt><trkpt lat="42.5086547" lon="14.1290634"><ele>6.0</ele><time>2026-05-02T06:47:08.321Z</time></trkpt><trkpt lat="42.5084761" lon="14.1287416"><ele>6.0</ele><time>2026-05-02T06:47:10.318Z</time></trkpt><trkpt lat="42.5083078" lon="14.1284127"><ele>5.5</ele><time>2026-05-02T06:47:12.318Z</time></trkpt><trkpt lat="42.5081365" lon="14.128104"><ele>5.0</ele><time>2026-05-02T06:47:14.32Z</time></trkpt><trkpt lat="42.507952" lon="14.1277724"><ele>6.0</ele><time>2026-05-02T06:47:16.318Z</time></trkpt><trkpt lat="42.5077714" lon="14.127447"><ele>7.0</ele><time>2026-05-02T06:47:18.322Z</time></trkpt><trkpt lat="42.5075843" lon="14.1271286"><ele>7.5</ele><time>2026-05-02T06:47:20.316Z</time></trkpt><trkpt lat="42.5074142" lon="14.1268286"><ele>8.0</ele><time>2026-05-02T06:47:22.324Z</time></trkpt><trkpt lat="42.50723" lon="14.1265035"><ele>7.5</ele><time>2026-05-02T06:47:24.323Z</time></trkpt><trkpt lat="42.5070728" lon="14.126211"><ele>7.0</ele><time>2026-05-02T06:47:26.314Z</time></trkpt><trkpt lat="42.5068952" lon="14.1259112"><ele>7.5</ele><time>2026-05-02T06:47:28.317Z</time></trkpt><trkpt lat="42.5067044" lon="14.1256354"><ele>8.0</ele><time>2026-05-02T06:47:30.32Z</time></trkpt><trkpt lat="42.5065149" lon="14.1253593"><ele>8.0</ele><time>2026-05-02T06:47:32.32Z</time></trkpt><trkpt lat="42.5063008" lon="14.125062"><ele>8.0</ele><time>2026-05-02T06:47:34.319Z</time></trkpt><trkpt lat="42.50606" lon="14.1247685"><ele>8.5</ele><time>2026-05-02T06:47:36.319Z</time></trkpt><trkpt lat="42.5058125" lon="14.1244852"><ele>9.0</ele><time>2026-05-02T06:47:38.319Z</time></trkpt><trkpt lat="42.5055822" lon="14.1242254"><ele>8.0</ele><time>2026-05-02T06:47:40.402Z</time></trkpt><trkpt lat="42.5053459" lon="14.1239773"><ele>7.0</ele><time>2026-05-02T06:47:42.399Z</time></trkpt><trkpt lat="42.5050967" lon="14.1237273"><ele>7.0</ele><time>2026-05-02T06:47:44.402Z</time></trkpt><trkpt lat="42.5048424" lon="14.123482"><ele>7.0</ele><time>2026-05-02T06:47:46.4Z</time></trkpt><trkpt lat="42.5045848" lon="14.1232416"><ele>8.5</ele><time>2026-05-02T06:47:48.406Z</time></trkpt><trkpt lat="42.5043376" lon="14.1230178"><ele>10.0</ele><time>2026-05-02T06:47:50.401Z</time></trkpt><trkpt lat="42.5040717" lon="14.1227916"><ele>10.0</ele><time>2026-05-02T06:47:52.408Z</time></trkpt><trkpt lat="42.5038215" lon="14.1225514"><ele>10.0</ele><time>2026-05-02T06:47:54.407Z</time></trkpt><trkpt lat="42.5035701" lon="14.1223178"><ele>9.5</ele><time>2026-05-02T06:47:56.416Z</time></trkpt><trkpt lat="42.5033368" lon="14.1221105"><ele>9.0</ele><time>2026-05-02T06:47:58.401Z</time></trkpt><trkpt lat="42.5031141" lon="14.121919"><ele>9.0</ele><time>2026-05-02T06:48:00.401Z</time></trkpt><trkpt lat="42.5029285" lon="14.1217333"><ele>9.0</ele><time>2026-05-02T06:48:02.399Z</time></trkpt><trkpt lat="42.502825" lon="14.1215117"><ele>9.0</ele><time>2026-05-02T06:48:04.396Z</time></trkpt><trkpt lat="42.5027278" lon="14.1213455"><ele>8.666666666666666</ele><time>2026-05-02T06:48:06.377Z</time></trkpt><trkpt lat="42.5026002" lon="14.1212838"><ele>8.333333333333332</ele><time>2026-05-02T06:48:08.378Z</time></trkpt><trkpt lat="42.5024288" lon="14.1212815"><ele>8.0</ele><time>2026-05-02T06:48:10.397Z</time></trkpt><trkpt lat="42.5022034" lon="14.1212129"><ele>9.0</ele><time>2026-05-02T06:48:12.295Z</time></trkpt><trkpt lat="42.5019602" lon="14.1210438"><ele>10.0</ele><time>2026-05-02T06:48:14.302Z</time></trkpt><trkpt lat="42.5016758" lon="14.120903"><ele>10.0</ele><time>2026-05-02T06:48:16.316Z</time></trkpt><trkpt lat="42.5014234" lon="14.1208102"><ele>10.0</ele><time>2026-05-02T06:48:18.317Z</time></trkpt><trkpt lat="42.501187" lon="14.1207387"><ele>10.5</ele><time>2026-05-02T06:48:20.321Z</time></trkpt><trkpt lat="42.5009255" lon="14.1206359"><ele>11.0</ele><time>2026-05-02T06:48:22.326Z</time></trkpt><trkpt lat="42.5007055" lon="14.1204832"><ele>11.0</ele><time>2026-05-02T06:48:24.323Z</time></trkpt><trkpt lat="42.5004823" lon="14.1203303"><ele>11.0</ele><time>2026-05-02T06:48:26.312Z</time></trkpt><trkpt lat="42.5002805" lon="14.1201993"><ele>10.666666666666666</ele><time>2026-05-02T06:48:28.312Z</time></trkpt><trkpt lat="42.5000867" lon="14.1200697"><ele>10.333333333333334</ele><time>2026-05-02T06:48:30.311Z</time></trkpt><trkpt lat="42.499922" lon="14.1199607"><ele>10.0</ele><time>2026-05-02T06:48:32.311Z</time></trkpt><trkpt lat="42.4997805" lon="14.1198552"><ele>10.0</ele><time>2026-05-02T06:48:34.308Z</time></trkpt><trkpt lat="42.4996576" lon="14.1198515"><ele>10.0</ele><time>2026-05-02T06:48:36.314Z</time></trkpt><trkpt lat="42.4995397" lon="14.1199965"><ele>10.0</ele><time>2026-05-02T06:48:38.31Z</time></trkpt><trkpt lat="42.4994165" lon="14.1202043"><ele>12.5</ele><time>2026-05-02T06:48:40.315Z</time></trkpt><trkpt lat="42.499261" lon="14.1204202"><ele>15.0</ele><time>2026-05-02T06:48:42.314Z</time></trkpt><trkpt lat="42.4990933" lon="14.120636"><ele>15.0</ele><time>2026-05-02T06:48:44.316Z</time></trkpt><trkpt lat="42.4989134" lon="14.120853"><ele>15.0</ele><time>2026-05-02T06:48:46.318Z</time></trkpt><trkpt lat="42.4987412" lon="14.1210615"><ele>15.0</ele><time>2026-05-02T06:48:48.315Z</time></trkpt><trkpt lat="42.498569" lon="14.1212694"><ele>15.0</ele><time>2026-05-02T06:48:50.318Z</time></trkpt><trkpt lat="42.4984074" lon="14.1214651"><ele>15.0</ele><time>2026-05-02T06:48:52.321Z</time></trkpt><trkpt lat="42.4982429" lon="14.121606"><ele>15.0</ele><time>2026-05-02T06:48:54.32Z</time></trkpt><trkpt lat="42.4980635" lon="14.1217435"><ele>15.0</ele><time>2026-05-02T06:48:56.316Z</time></trkpt><trkpt lat="42.497905" lon="14.1219674"><ele>15.0</ele><time>2026-05-02T06:48:58.325Z</time></trkpt><trkpt lat="42.497761" lon="14.122201"><ele>14.5</ele><time>2026-05-02T06:49:00.318Z</time></trkpt><trkpt lat="42.4975968" lon="14.1224445"><ele>14.0</ele><time>2026-05-02T06:49:02.316Z</time></trkpt><trkpt lat="42.4974302" lon="14.1227054"><ele>14.0</ele><time>2026-05-02T06:49:04.316Z</time></trkpt><trkpt lat="42.497293" lon="14.1229226"><ele>14.0</ele><time>2026-05-02T06:49:06.313Z</time></trkpt><trkpt lat="42.4971644" lon="14.1231275"><ele>14.0</ele><time>2026-05-02T06:49:08.313Z</time></trkpt><trkpt lat="42.49701" lon="14.1233797"><ele>14.666666666666668</ele><time>2026-05-02T06:49:10.318Z</time></trkpt><trkpt lat="42.4968398" lon="14.123612"><ele>15.333333333333332</ele><time>2026-05-02T06:49:12.312Z</time></trkpt><trkpt lat="42.4966862" lon="14.1237795"><ele>16.0</ele><time>2026-05-02T06:49:14.313Z</time></trkpt><trkpt lat="42.4964976" lon="14.1239301"><ele>16.333333333333332</ele><time>2026-05-02T06:49:16.308Z</time></trkpt><trkpt lat="42.4963163" lon="14.124082"><ele>16.666666666666668</ele><time>2026-05-02T06:49:18.307Z</time></trkpt><trkpt lat="42.4961845" lon="14.1242156"><ele>17.0</ele><time>2026-05-02T06:49:20.314Z</time></trkpt><trkpt lat="42.4960859" lon="14.1243228"><ele>16.5</ele><time>2026-05-02T06:49:22.319Z</time></trkpt><trkpt lat="42.4960095" lon="14.1243976"><ele>16.0</ele><time>2026-05-02T06:49:24.317Z</time></trkpt><trkpt lat="42.4959041" lon="14.1244422"><ele>15.5</ele><time>2026-05-02T06:49:26.311Z</time></trkpt><trkpt lat="42.4957874" lon="14.1245416"><ele>15.0</ele><time>2026-05-02T06:49:28.309Z</time></trkpt><trkpt lat="42.4956561" lon="14.1245569"><ele>15.0</ele><time>2026-05-02T06:49:30.308Z</time></trkpt><trkpt lat="42.4954869" lon="14.1245402"><ele>15.0</ele><time>2026-05-02T06:49:32.317Z</time></trkpt><trkpt lat="42.4953153" lon="14.1245436"><ele>15.0</ele><time>2026-05-02T06:49:34.318Z</time></trkpt><trkpt lat="42.4951393" lon="14.1245593"><ele>15.666666666666668</ele><time>2026-05-02T06:49:36.316Z</time></trkpt><trkpt lat="42.4949669" lon="14.1245614"><ele>16.333333333333336</ele><time>2026-05-02T06:49:38.316Z</time></trkpt><trkpt lat="42.4947982" lon="14.1245602"><ele>17.0</ele><time>2026-05-02T06:49:40.316Z</time></trkpt><trkpt lat="42.4946611" lon="14.1245657"><ele>17.25</ele><time>2026-05-02T06:49:42.31Z</time></trkpt><trkpt lat="42.4945197" lon="14.1245578"><ele>17.5</ele><time>2026-05-02T06:49:44.312Z</time></trkpt><trkpt lat="42.4943869" lon="14.1245778"><ele>17.75</ele><time>2026-05-02T06:49:46.303Z</time></trkpt><trkpt lat="42.4942924" lon="14.1247264"><ele>18.0</ele><time>2026-05-02T06:49:48.298Z</time></trkpt><trkpt lat="42.4941565" lon="14.1249235"><ele>18.0</ele><time>2026-05-02T06:49:50.304Z</time></trkpt><trkpt lat="42.4940555" lon="14.1250711"><ele>18.0</ele><time>2026-05-02T06:49:52.317Z</time></trkpt><trkpt lat="42.4939821" lon="14.1251844"><ele>18.0</ele><time>2026-05-02T06:49:54.312Z</time></trkpt><trkpt lat="42.4939503" lon="14.1252727"><ele>18.0</ele><time>2026-05-02T06:49:56.314Z</time></trkpt><trkpt lat="42.4938963" lon="14.125332"><ele>18.0</ele><time>2026-05-02T06:50:04.329Z</time></trkpt><trkpt lat="42.4938019" lon="14.1253211"><ele>18.5</ele><time>2026-05-02T06:50:06.338Z</time></trkpt><trkpt lat="42.4935973" lon="14.1251571"><ele>19.0</ele><time>2026-05-02T06:50:08.311Z</time></trkpt><trkpt lat="42.4933491" lon="14.1249055"><ele>19.0</ele><time>2026-05-02T06:50:10.321Z</time></trkpt><trkpt lat="42.4931192" lon="14.1246877"><ele>19.0</ele><time>2026-05-02T06:50:12.313Z</time></trkpt><trkpt lat="42.4929164" lon="14.1245519"><ele>20.0</ele><time>2026-05-02T06:50:14.321Z</time></trkpt><trkpt lat="42.4927637" lon="14.1244043"><ele>21.0</ele><time>2026-05-02T06:50:16.317Z</time></trkpt><trkpt lat="42.4926228" lon="14.1242761"><ele>22.0</ele><time>2026-05-02T06:50:18.396Z</time></trkpt><trkpt lat="42.4924226" lon="14.124119"><ele>21.5</ele><time>2026-05-02T06:50:20.401Z</time></trkpt><trkpt lat="42.4921879" lon="14.1239362"><ele>21.0</ele><time>2026-05-02T06:50:22.406Z</time></trkpt><trkpt lat="42.4919213" lon="14.1237399"><ele>21.0</ele><time>2026-05-02T06:50:24.4Z</time></trkpt><trkpt lat="42.4916184" lon="14.1235012"><ele>21.0</ele><time>2026-05-02T06:50:26.311Z</time></trkpt><trkpt lat="42.491363" lon="14.1232886"><ele>21.666666666666668</ele><time>2026-05-02T06:50:28.312Z</time></trkpt><trkpt lat="42.4911758" lon="14.1231543"><ele>22.333333333333336</ele><time>2026-05-02T06:50:30.314Z</time></trkpt><trkpt lat="42.4910179" lon="14.1230371"><ele>23.0</ele><time>2026-05-02T06:50:32.316Z</time></trkpt><trkpt lat="42.4908687" lon="14.1228913"><ele>23.0</ele><time>2026-05-02T06:50:34.315Z</time></trkpt><trkpt lat="42.4907132" lon="14.1227634"><ele>23.0</ele><time>2026-05-02T06:50:36.312Z</time></trkpt><trkpt lat="42.4905599" lon="14.1226446"><ele>23.0</ele><time>2026-05-02T06:50:38.311Z</time></trkpt><trkpt lat="42.4904209" lon="14.1225362"><ele>23.0</ele><time>2026-05-02T06:50:40.306Z</time></trkpt><trkpt lat="42.4903034" lon="14.1224506"><ele>23.0</ele><time>2026-05-02T06:50:42.306Z</time></trkpt><trkpt lat="42.4902562" lon="14.1223822"><ele>23.0</ele><time>2026-05-02T06:50:44.312Z</time></trkpt><trkpt lat="42.4903085" lon="14.1223152"><ele>23.0</ele><time>2026-05-02T06:50:46.314Z</time></trkpt><trkpt lat="42.4903804" lon="14.1222035"><ele>23.0</ele><time>2026-05-02T06:50:48.314Z</time></trkpt><trkpt lat="42.4904151" lon="14.1220127"><ele>22.333333333333336</ele><time>2026-05-02T06:50:50.3Z</time></trkpt><trkpt lat="42.4904538" lon="14.1218639"><ele>21.666666666666668</ele><time>2026-05-02T06:50:52.309Z</time></trkpt><trkpt lat="42.4905165" lon="14.121699"><ele>21.0</ele><time>2026-05-02T06:50:54.303Z</time></trkpt><trkpt lat="42.4906323" lon="14.1214668"><ele>20.333333333333332</ele><time>2026-05-02T06:50:56.31Z</time></trkpt><trkpt lat="42.4907553" lon="14.1212092"><ele>19.666666666666664</ele><time>2026-05-02T06:50:58.311Z</time></trkpt><trkpt lat="42.4908485" lon="14.120984"><ele>19.0</ele><time>2026-05-02T06:51:00.312Z</time></trkpt><trkpt lat="42.4909182" lon="14.1208304"><ele>19.666666666666664</ele><time>2026-05-02T06:51:02.342Z</time></trkpt><trkpt lat="42.4909781" lon="14.1206955"><ele>20.333333333333332</ele><time>2026-05-02T06:51:04.306Z</time></trkpt><trkpt lat="42.4910534" lon="14.1204766"><ele>21.0</ele><time>2026-05-02T06:51:06.312Z</time></trkpt><trkpt lat="42.4911575" lon="14.1202681"><ele>21.0</ele><time>2026-05-02T06:51:08.313Z</time></trkpt><trkpt lat="42.491248" lon="14.1200667"><ele>21.0</ele><time>2026-05-02T06:51:10.312Z</time></trkpt><trkpt lat="42.4913515" lon="14.1198362"><ele>21.0</ele><time>2026-05-02T06:51:12.312Z</time></trkpt><trkpt lat="42.4914602" lon="14.1195711"><ele>20.666666666666668</ele><time>2026-05-02T06:51:14.312Z</time></trkpt><trkpt lat="42.4915668" lon="14.1193374"><ele>20.333333333333336</ele><time>2026-05-02T06:51:16.305Z</time></trkpt><trkpt lat="42.4916651" lon="14.1191257"><ele>20.0</ele><time>2026-05-02T06:51:18.31Z</time></trkpt><trkpt lat="42.4917526" lon="14.1189361"><ele>19.666666666666668</ele><time>2026-05-02T06:51:20.308Z</time></trkpt><trkpt lat="42.491861" lon="14.1187518"><ele>19.333333333333332</ele><time>2026-05-02T06:51:22.311Z</time></trkpt><trkpt lat="42.4919812" lon="14.1184862"><ele>19.0</ele><time>2026-05-02T06:51:24.317Z</time></trkpt><trkpt lat="42.4921058" lon="14.1181695"><ele>18.0</ele><time>2026-05-02T06:51:26.31Z</time></trkpt><trkpt lat="42.4922424" lon="14.1178762"><ele>17.0</ele><time>2026-05-02T06:51:28.306Z</time></trkpt><trkpt lat="42.4923353" lon="14.1176643"><ele>16.0</ele><time>2026-05-02T06:51:30.313Z</time></trkpt><trkpt lat="42.4924303" lon="14.1174586"><ele>17.0</ele><time>2026-05-02T06:51:32.323Z</time></trkpt><trkpt lat="42.4925426" lon="14.117206"><ele>18.0</ele><time>2026-05-02T06:51:34.309Z</time></trkpt><trkpt lat="42.4926614" lon="14.1169143"><ele>18.0</ele><time>2026-05-02T06:51:36.311Z</time></trkpt><trkpt lat="42.4928243" lon="14.1166039"><ele>18.0</ele><time>2026-05-02T06:51:38.304Z</time></trkpt><trkpt lat="42.492969" lon="14.1162811"><ele>18.5</ele><time>2026-05-02T06:51:40.303Z</time></trkpt><trkpt lat="42.4931055" lon="14.115958"><ele>19.0</ele><time>2026-05-02T06:51:42.31Z</time></trkpt><trkpt lat="42.4932355" lon="14.1156432"><ele>19.0</ele><time>2026-05-02T06:51:44.315Z</time></trkpt><trkpt lat="42.4933533" lon="14.1153763"><ele>19.0</ele><time>2026-05-02T06:51:46.312Z</time></trkpt><trkpt lat="42.4934636" lon="14.1151275"><ele>19.0</ele><time>2026-05-02T06:51:48.312Z</time></trkpt><trkpt lat="42.4935768" lon="14.1148873"><ele>19.0</ele><time>2026-05-02T06:51:50.314Z</time></trkpt><trkpt lat="42.4936939" lon="14.114626"><ele>19.0</ele><time>2026-05-02T06:51:52.319Z</time></trkpt><trkpt lat="42.493777" lon="14.1144156"><ele>19.0</ele><time>2026-05-02T06:51:54.309Z</time></trkpt><trkpt lat="42.4938245" lon="14.1142817"><ele>19.0</ele><time>2026-05-02T06:51:56.315Z</time></trkpt><trkpt lat="42.4939157" lon="14.114176"><ele>19.0</ele><time>2026-05-02T06:52:00.323Z</time></trkpt><trkpt lat="42.4940237" lon="14.1142096"><ele>19.0</ele><time>2026-05-02T06:52:02.319Z</time></trkpt><trkpt lat="42.4941881" lon="14.1142921"><ele>19.0</ele><time>2026-05-02T06:52:04.322Z</time></trkpt><trkpt lat="42.4943831" lon="14.1143869"><ele>19.0</ele><time>2026-05-02T06:52:06.318Z</time></trkpt><trkpt lat="42.4945332" lon="14.1144549"><ele>19.0</ele><time>2026-05-02T06:52:08.311Z</time></trkpt><trkpt lat="42.4946157" lon="14.1144556"><ele>19.0</ele><time>2026-05-02T06:52:10.31Z</time></trkpt><trkpt lat="42.4946391" lon="14.1143441"><ele>19.0</ele><time>2026-05-02T06:52:12.319Z</time></trkpt><trkpt lat="42.4946605" lon="14.1141377"><ele>18.75</ele><time>2026-05-02T06:52:14.302Z</time></trkpt><trkpt lat="42.4947048" lon="14.1139042"><ele>18.5</ele><time>2026-05-02T06:52:16.308Z</time></trkpt><trkpt lat="42.4947059" lon="14.1137941"><ele>18.25</ele><time>2026-05-02T06:52:18.312Z</time></trkpt><trkpt lat="42.4946463" lon="14.1137617"><ele>18.0</ele><time>2026-05-02T06:54:56.333Z</time></trkpt><trkpt lat="42.494518" lon="14.1137109"><ele>18.666666666666668</ele><time>2026-05-02T06:54:58.333Z</time></trkpt><trkpt lat="42.4943057" lon="14.1136534"><ele>19.333333333333336</ele><time>2026-05-02T06:55:00.401Z</time></trkpt><trkpt lat="42.4940863" lon="14.1135863"><ele>20.0</ele><time>2026-05-02T06:55:02.408Z</time></trkpt><trkpt lat="42.4938752" lon="14.1135145"><ele>18.5</ele><time>2026-05-02T06:55:04.405Z</time></trkpt><trkpt lat="42.4936599" lon="14.1134369"><ele>17.0</ele><time>2026-05-02T06:55:06.404Z</time></trkpt><trkpt lat="42.4934424" lon="14.1133354"><ele>17.0</ele><time>2026-05-02T06:55:08.402Z</time></trkpt><trkpt lat="42.4932207" lon="14.113258"><ele>17.0</ele><time>2026-05-02T06:55:10.4Z</time></trkpt><trkpt lat="42.4930132" lon="14.1131962"><ele>17.0</ele><time>2026-05-02T06:55:12.412Z</time></trkpt><trkpt lat="42.4927964" lon="14.1131105"><ele>16.5</ele><time>2026-05-02T06:55:14.41Z</time></trkpt><trkpt lat="42.4925725" lon="14.1130222"><ele>16.0</ele><time>2026-05-02T06:55:16.406Z</time></trkpt><trkpt lat="42.4923561" lon="14.1129245"><ele>16.0</ele><time>2026-05-02T06:55:18.397Z</time></trkpt><trkpt lat="42.4921306" lon="14.1128052"><ele>16.0</ele><time>2026-05-02T06:55:20.394Z</time></trkpt><trkpt lat="42.4919038" lon="14.1127109"><ele>15.5</ele><time>2026-05-02T06:55:22.418Z</time></trkpt><trkpt lat="42.4916629" lon="14.1125967"><ele>15.0</ele><time>2026-05-02T06:55:24.419Z</time></trkpt><trkpt lat="42.4914346" lon="14.1124742"><ele>15.5</ele><time>2026-05-02T06:55:26.412Z</time></trkpt><trkpt lat="42.4912222" lon="14.112371"><ele>16.0</ele><time>2026-05-02T06:55:28.41Z</time></trkpt><trkpt lat="42.4910069" lon="14.1122851"><ele>16.0</ele><time>2026-05-02T06:55:30.414Z</time></trkpt><trkpt lat="42.490822" lon="14.1121982"><ele>16.0</ele><time>2026-05-02T06:55:32.409Z</time></trkpt><trkpt lat="42.4906486" lon="14.1121262"><ele>16.0</ele><time>2026-05-02T06:55:34.41Z</time></trkpt><trkpt lat="42.4904759" lon="14.112051"><ele>16.0</ele><time>2026-05-02T06:55:36.414Z</time></trkpt><trkpt lat="42.490289" lon="14.1119862"><ele>16.0</ele><time>2026-05-02T06:55:38.413Z</time></trkpt><trkpt lat="42.4900566" lon="14.1119123"><ele>16.0</ele><time>2026-05-02T06:55:40.445Z</time></trkpt><trkpt lat="42.4898514" lon="14.1118348"><ele>16.0</ele><time>2026-05-02T06:55:42.407Z</time></trkpt><trkpt lat="42.4896511" lon="14.1117458"><ele>16.0</ele><time>2026-05-02T06:55:44.415Z</time></trkpt><trkpt lat="42.4894358" lon="14.111669"><ele>16.0</ele><time>2026-05-02T06:55:46.399Z</time></trkpt><trkpt lat="42.4892284" lon="14.1116103"><ele>15.666666666666666</ele><time>2026-05-02T06:55:48.399Z</time></trkpt><trkpt lat="42.4890079" lon="14.1115351"><ele>15.333333333333332</ele><time>2026-05-02T06:55:50.41Z</time></trkpt><trkpt lat="42.4888109" lon="14.1114765"><ele>15.0</ele><time>2026-05-02T06:55:52.408Z</time></trkpt><trkpt lat="42.4886664" lon="14.1114264"><ele>16.5</ele><time>2026-05-02T06:55:54.408Z</time></trkpt><trkpt lat="42.488588" lon="14.1114408"><ele>18.0</ele><time>2026-05-02T06:55:56.389Z</time></trkpt><trkpt lat="42.4885369" lon="14.1114935"><ele>19.5</ele><time>2026-05-02T06:55:58.297Z</time></trkpt><trkpt lat="42.4885019" lon="14.1116696"><ele>21.0</ele><time>2026-05-02T06:56:00.286Z</time></trkpt><trkpt lat="42.4884726" lon="14.1119067"><ele>21.0</ele><time>2026-05-02T06:56:02.278Z</time></trkpt><trkpt lat="42.4884211" lon="14.1120149"><ele>21.0</ele><time>2026-05-02T06:56:04.306Z</time></trkpt><trkpt lat="42.4883064" lon="14.1120153"><ele>21.0</ele><time>2026-05-02T06:56:06.304Z</time></trkpt><trkpt lat="42.4881284" lon="14.1119583"><ele>21.0</ele><time>2026-05-02T06:56:08.308Z</time></trkpt><trkpt lat="42.4878794" lon="14.1118689"><ele>22.0</ele><time>2026-05-02T06:56:10.32Z</time></trkpt><trkpt lat="42.4875885" lon="14.1116795"><ele>23.0</ele><time>2026-05-02T06:56:12.308Z</time></trkpt><trkpt lat="42.4873167" lon="14.1115085"><ele>22.5</ele><time>2026-05-02T06:56:14.309Z</time></trkpt><trkpt lat="42.4870524" lon="14.1113992"><ele>22.0</ele><time>2026-05-02T06:56:16.31Z</time></trkpt><trkpt lat="42.4868203" lon="14.1113066"><ele>22.0</ele><time>2026-05-02T06:56:18.311Z</time></trkpt><trkpt lat="42.4866524" lon="14.1112502"><ele>22.0</ele><time>2026-05-02T06:56:20.309Z</time></trkpt><trkpt lat="42.4865523" lon="14.1112092"><ele>22.0</ele><time>2026-05-02T06:56:22.308Z</time></trkpt><trkpt lat="42.4864749" lon="14.1112865"><ele>22.0</ele><time>2026-05-02T06:56:24.315Z</time></trkpt><trkpt lat="42.4863371" lon="14.1114974"><ele>22.0</ele><time>2026-05-02T06:56:26.305Z</time></trkpt><trkpt lat="42.4861713" lon="14.1117701"><ele>22.0</ele><time>2026-05-02T06:56:28.315Z</time></trkpt><trkpt lat="42.4859962" lon="14.112113"><ele>23.0</ele><time>2026-05-02T06:56:30.322Z</time></trkpt><trkpt lat="42.4858227" lon="14.1124277"><ele>24.0</ele><time>2026-05-02T06:56:32.323Z</time></trkpt><trkpt lat="42.4856438" lon="14.1127669"><ele>24.0</ele><time>2026-05-02T06:56:34.322Z</time></trkpt><trkpt lat="42.4854569" lon="14.1131137"><ele>24.0</ele><time>2026-05-02T06:56:36.323Z</time></trkpt><trkpt lat="42.4852648" lon="14.1134308"><ele>24.0</ele><time>2026-05-02T06:56:38.321Z</time></trkpt><trkpt lat="42.4850713" lon="14.1137448"><ele>24.0</ele><time>2026-05-02T06:56:40.316Z</time></trkpt><trkpt lat="42.4848503" lon="14.1140389"><ele>23.5</ele><time>2026-05-02T06:56:42.322Z</time></trkpt><trkpt lat="42.4846311" lon="14.1143496"><ele>23.0</ele><time>2026-05-02T06:56:44.314Z</time></trkpt><trkpt lat="42.4844098" lon="14.114655"><ele>24.5</ele><time>2026-05-02T06:56:46.317Z</time></trkpt><trkpt lat="42.4842059" lon="14.1149684"><ele>26.0</ele><time>2026-05-02T06:56:48.315Z</time></trkpt><trkpt lat="42.4840016" lon="14.1152733"><ele>26.0</ele><time>2026-05-02T06:56:50.324Z</time></trkpt><trkpt lat="42.4838005" lon="14.1155437"><ele>26.0</ele><time>2026-05-02T06:56:52.327Z</time></trkpt><trkpt lat="42.4836114" lon="14.1157982"><ele>27.0</ele><time>2026-05-02T06:56:54.327Z</time></trkpt><trkpt lat="42.4834398" lon="14.1160391"><ele>28.0</ele><time>2026-05-02T06:56:56.325Z</time></trkpt><trkpt lat="42.4832978" lon="14.1162527"><ele>28.0</ele><time>2026-05-02T06:56:58.324Z</time></trkpt><trkpt lat="42.4831722" lon="14.116448"><ele>28.0</ele><time>2026-05-02T06:57:00.32Z</time></trkpt><trkpt lat="42.4830712" lon="14.1165255"><ele>28.0</ele><time>2026-05-02T06:57:02.327Z</time></trkpt><trkpt lat="42.4830082" lon="14.1165239"><ele>28.0</ele><time>2026-05-02T06:57:04.319Z</time></trkpt><trkpt lat="42.4829082" lon="14.1164365"><ele>28.5</ele><time>2026-05-02T06:57:06.323Z</time></trkpt><trkpt lat="42.4827443" lon="14.1162853"><ele>29.0</ele><time>2026-05-02T06:57:08.321Z</time></trkpt><trkpt lat="42.4825233" lon="14.1161119"><ele>29.0</ele><time>2026-05-02T06:57:10.321Z</time></trkpt><trkpt lat="42.4822863" lon="14.1159204"><ele>29.0</ele><time>2026-05-02T06:57:12.337Z</time></trkpt><trkpt lat="42.4820401" lon="14.1157168"><ele>31.0</ele><time>2026-05-02T06:57:14.323Z</time></trkpt><trkpt lat="42.4817909" lon="14.1155145"><ele>33.0</ele><time>2026-05-02T06:57:16.321Z</time></trkpt><trkpt lat="42.4815627" lon="14.1153429"><ele>33.0</ele><time>2026-05-02T06:57:18.321Z</time></trkpt><trkpt lat="42.4813087" lon="14.1151368"><ele>33.0</ele><time>2026-05-02T06:57:20.322Z</time></trkpt><trkpt lat="42.4810581" lon="14.1149361"><ele>31.5</ele><time>2026-05-02T06:57:22.33Z</time></trkpt><trkpt lat="42.4808155" lon="14.1147458"><ele>30.0</ele><time>2026-05-02T06:57:24.326Z</time></trkpt><trkpt lat="42.4805689" lon="14.1145284"><ele>30.0</ele><time>2026-05-02T06:57:26.318Z</time></trkpt><trkpt lat="42.4803115" lon="14.11433"><ele>30.0</ele><time>2026-05-02T06:57:28.323Z</time></trkpt><trkpt lat="42.480048" lon="14.1141088"><ele>29.5</ele><time>2026-05-02T06:57:30.329Z</time></trkpt><trkpt lat="42.4798042" lon="14.1139068"><ele>29.0</ele><time>2026-05-02T06:57:32.331Z</time></trkpt><trkpt lat="42.4795562" lon="14.1137188"><ele>30.5</ele><time>2026-05-02T06:57:34.329Z</time></trkpt><trkpt lat="42.4793239" lon="14.1135201"><ele>32.0</ele><time>2026-05-02T06:57:36.331Z</time></trkpt><trkpt lat="42.4790786" lon="14.1133102"><ele>32.5</ele><time>2026-05-02T06:57:38.33Z</time></trkpt><trkpt lat="42.478851" lon="14.113125"><ele>33.0</ele><time>2026-05-02T06:57:40.329Z</time></trkpt><trkpt lat="42.4786385" lon="14.1129389"><ele>33.0</ele><time>2026-05-02T06:57:42.327Z</time></trkpt><trkpt lat="42.4784271" lon="14.1127677"><ele>33.0</ele><time>2026-05-02T06:57:44.328Z</time></trkpt><trkpt lat="42.4782217" lon="14.1126126"><ele>33.0</ele><time>2026-05-02T06:57:46.327Z</time></trkpt><trkpt lat="42.4779952" lon="14.1124425"><ele>33.0</ele><time>2026-05-02T06:57:48.322Z</time></trkpt><trkpt lat="42.4778145" lon="14.1122904"><ele>33.5</ele><time>2026-05-02T06:57:50.313Z</time></trkpt><trkpt lat="42.4776744" lon="14.1122053"><ele>34.0</ele><time>2026-05-02T06:57:52.303Z</time></trkpt><trkpt lat="42.4775974" lon="14.1121098"><ele>34.5</ele><time>2026-05-02T06:57:54.312Z</time></trkpt><trkpt lat="42.4774942" lon="14.1120355"><ele>35.0</ele><time>2026-05-02T06:57:56.306Z</time></trkpt><trkpt lat="42.4773728" lon="14.1119478"><ele>35.0</ele><time>2026-05-02T06:57:58.31Z</time></trkpt><trkpt lat="42.4772214" lon="14.1117965"><ele>35.0</ele><time>2026-05-02T06:58:00.314Z</time></trkpt><trkpt lat="42.4770582" lon="14.1116793"><ele>35.0</ele><time>2026-05-02T06:58:02.314Z</time></trkpt><trkpt lat="42.4769197" lon="14.1115802"><ele>35.0</ele><time>2026-05-02T06:58:04.326Z</time></trkpt><trkpt lat="42.4767737" lon="14.1114581"><ele>35.0</ele><time>2026-05-02T06:58:06.326Z</time></trkpt><trkpt lat="42.4766519" lon="14.1113538"><ele>35.0</ele><time>2026-05-02T06:58:08.329Z</time></trkpt><trkpt lat="42.4765525" lon="14.1112601"><ele>35.0</ele><time>2026-05-02T06:58:10.325Z</time></trkpt><trkpt lat="42.4764153" lon="14.1111345"><ele>35.0</ele><time>2026-05-02T06:58:12.327Z</time></trkpt><trkpt lat="42.4763156" lon="14.1110069"><ele>35.0</ele><time>2026-05-02T06:58:14.337Z</time></trkpt><trkpt lat="42.4763054" lon="14.1108089"><ele>35.0</ele><time>2026-05-02T06:58:18.33Z</time></trkpt><trkpt lat="42.4762657" lon="14.1106512"><ele>35.0</ele><time>2026-05-02T06:58:20.32Z</time></trkpt><trkpt lat="42.476142" lon="14.1106083"><ele>35.666666666666664</ele><time>2026-05-02T06:58:22.33Z</time></trkpt><trkpt lat="42.4759844" lon="14.1106816"><ele>36.333333333333336</ele><time>2026-05-02T06:58:24.335Z</time></trkpt><trkpt lat="42.475788" lon="14.1106861"><ele>37.0</ele><time>2026-05-02T06:58:26.337Z</time></trkpt><trkpt lat="42.4755838" lon="14.1105516"><ele>40.5</ele><time>2026-05-02T06:58:28.359Z</time></trkpt><trkpt lat="42.4753506" lon="14.110466"><ele>44.0</ele><time>2026-05-02T06:58:30.431Z</time></trkpt><trkpt lat="42.4750887" lon="14.1104872"><ele>44.0</ele><time>2026-05-02T06:58:32.404Z</time></trkpt><trkpt lat="42.4748085" lon="14.1105377"><ele>44.0</ele><time>2026-05-02T06:58:34.309Z</time></trkpt><trkpt lat="42.4745325" lon="14.1104979"><ele>48.0</ele><time>2026-05-02T06:58:36.323Z</time></trkpt><trkpt lat="42.4742635" lon="14.1103772"><ele>52.0</ele><time>2026-05-02T06:58:38.327Z</time></trkpt><trkpt lat="42.4740252" lon="14.1102528"><ele>52.0</ele><time>2026-05-02T06:58:40.327Z</time></trkpt><trkpt lat="42.4737782" lon="14.1101202"><ele>52.0</ele><time>2026-05-02T06:58:42.327Z</time></trkpt><trkpt lat="42.4735235" lon="14.1100207"><ele>60.0</ele><time>2026-05-02T06:58:44.317Z</time></trkpt><trkpt lat="42.4732498" lon="14.109892"><ele>68.0</ele><time>2026-05-02T06:58:46.309Z</time></trkpt><trkpt lat="42.4729794" lon="14.1097645"><ele>67.5</ele><time>2026-05-02T06:58:48.311Z</time></trkpt><trkpt lat="42.4727137" lon="14.1096324"><ele>67.0</ele><time>2026-05-02T06:58:50.309Z</time></trkpt><trkpt lat="42.4724366" lon="14.1095199"><ele>67.0</ele><time>2026-05-02T06:58:52.316Z</time></trkpt><trkpt lat="42.4721784" lon="14.1094328"><ele>67.0</ele><time>2026-05-02T06:58:54.318Z</time></trkpt><trkpt lat="42.4719178" lon="14.1093267"><ele>65.0</ele><time>2026-05-02T06:58:56.31Z</time></trkpt><trkpt lat="42.4716642" lon="14.1091471"><ele>63.0</ele><time>2026-05-02T06:58:58.317Z</time></trkpt><trkpt lat="42.4714343" lon="14.1088997"><ele>64.5</ele><time>2026-05-02T06:59:00.319Z</time></trkpt><trkpt lat="42.4712328" lon="14.1086443"><ele>66.0</ele><time>2026-05-02T06:59:02.328Z</time></trkpt><trkpt lat="42.4710409" lon="14.1083636"><ele>72.0</ele><time>2026-05-02T06:59:04.325Z</time></trkpt><trkpt lat="42.4708454" lon="14.1080675"><ele>78.0</ele><time>2026-05-02T06:59:06.328Z</time></trkpt><trkpt lat="42.4706868" lon="14.1077434"><ele>83.0</ele><time>2026-05-02T06:59:08.321Z</time></trkpt><trkpt lat="42.4705511" lon="14.107385"><ele>88.0</ele><time>2026-05-02T06:59:10.328Z</time></trkpt><trkpt lat="42.4704754" lon="14.1070569"><ele>86.0</ele><time>2026-05-02T06:59:12.329Z</time></trkpt><trkpt lat="42.4703735" lon="14.1067171"><ele>84.0</ele><time>2026-05-02T06:59:14.322Z</time></trkpt><trkpt lat="42.4702099" lon="14.1063949"><ele>84.0</ele><time>2026-05-02T06:59:16.334Z</time></trkpt><trkpt lat="42.4700057" lon="14.1061399"><ele>84.0</ele><time>2026-05-02T06:59:18.322Z</time></trkpt><trkpt lat="42.4697586" lon="14.1059656"><ele>82.5</ele><time>2026-05-02T06:59:20.326Z</time></trkpt><trkpt lat="42.4694906" lon="14.105799"><ele>81.0</ele><time>2026-05-02T06:59:22.327Z</time></trkpt><trkpt lat="42.4692219" lon="14.1056212"><ele>87.5</ele><time>2026-05-02T06:59:24.319Z</time></trkpt><trkpt lat="42.4689703" lon="14.1054241"><ele>94.0</ele><time>2026-05-02T06:59:26.313Z</time></trkpt><trkpt lat="42.4687071" lon="14.1052624"><ele>95.0</ele><time>2026-05-02T06:59:28.317Z</time></trkpt><trkpt lat="42.4684403" lon="14.1051384"><ele>96.0</ele><time>2026-05-02T06:59:30.311Z</time></trkpt><trkpt lat="42.4681704" lon="14.1050837"><ele>93.0</ele><time>2026-05-02T06:59:32.315Z</time></trkpt><trkpt lat="42.467885" lon="14.1050158"><ele>90.0</ele><time>2026-05-02T06:59:34.309Z</time></trkpt><trkpt lat="42.4676564" lon="14.104865"><ele>97.0</ele><time>2026-05-02T06:59:36.309Z</time></trkpt><trkpt lat="42.4674203" lon="14.1046388"><ele>104.0</ele><time>2026-05-02T06:59:38.309Z</time></trkpt><trkpt lat="42.4671801" lon="14.1044007"><ele>102.0</ele><time>2026-05-02T06:59:40.318Z</time></trkpt><trkpt lat="42.4669545" lon="14.1042325"><ele>100.0</ele><time>2026-05-02T06:59:42.312Z</time></trkpt><trkpt lat="42.4666994" lon="14.1040533"><ele>99.5</ele><time>2026-05-02T06:59:44.322Z</time></trkpt><trkpt lat="42.4664586" lon="14.1038737"><ele>99.0</ele><time>2026-05-02T06:59:46.316Z</time></trkpt><trkpt lat="42.4661796" lon="14.1037719"><ele>106.0</ele><time>2026-05-02T06:59:48.331Z</time></trkpt><trkpt lat="42.465913" lon="14.1037961"><ele>113.0</ele><time>2026-05-02T06:59:50.325Z</time></trkpt><trkpt lat="42.4656427" lon="14.1037974"><ele>115.5</ele><time>2026-05-02T06:59:52.327Z</time></trkpt><trkpt lat="42.4654083" lon="14.1037701"><ele>118.0</ele><time>2026-05-02T06:59:54.315Z</time></trkpt><trkpt lat="42.4651936" lon="14.1036501"><ele>118.0</ele><time>2026-05-02T06:59:56.303Z</time></trkpt><trkpt lat="42.4649766" lon="14.1035173"><ele>118.0</ele><time>2026-05-02T06:59:58.306Z</time></trkpt><trkpt lat="42.4647634" lon="14.103368"><ele>114.66666666666667</ele><time>2026-05-02T07:00:00.285Z</time></trkpt><trkpt lat="42.4646023" lon="14.1031206"><ele>111.33333333333334</ele><time>2026-05-02T07:00:02.278Z</time></trkpt><trkpt lat="42.4644582" lon="14.1030165"><ele>108.0</ele><time>2026-05-02T07:00:04.307Z</time></trkpt><trkpt lat="42.4643487" lon="14.1030693"><ele>111.33333333333334</ele><time>2026-05-02T07:00:06.318Z</time></trkpt><trkpt lat="42.464336" lon="14.1032508"><ele>114.66666666666667</ele><time>2026-05-02T07:00:08.293Z</time></trkpt><trkpt lat="42.4644417" lon="14.1034145"><ele>118.0</ele><time>2026-05-02T07:00:10.311Z</time></trkpt><trkpt lat="42.4646497" lon="14.1035139"><ele>118.0</ele><time>2026-05-02T07:00:12.305Z</time></trkpt><trkpt lat="42.4647837" lon="14.1036436"><ele>118.0</ele><time>2026-05-02T07:00:14.307Z</time></trkpt><trkpt lat="42.4647629" lon="14.1037869"><ele>118.0</ele><time>2026-05-02T07:00:16.305Z</time></trkpt><trkpt lat="42.4646139" lon="14.1038666"><ele>118.0</ele><time>2026-05-02T07:00:18.327Z</time></trkpt><trkpt lat="42.4643843" lon="14.1039469"><ele>119.0</ele><time>2026-05-02T07:00:20.303Z</time></trkpt><trkpt lat="42.464104" lon="14.1039871"><ele>120.0</ele><time>2026-05-02T07:00:22.308Z</time></trkpt><trkpt lat="42.4638104" lon="14.1040186"><ele>122.0</ele><time>2026-05-02T07:00:24.307Z</time></trkpt><trkpt lat="42.4635593" lon="14.1040656"><ele>124.0</ele><time>2026-05-02T07:00:26.31Z</time></trkpt><trkpt lat="42.4633677" lon="14.104147"><ele>126.5</ele><time>2026-05-02T07:00:28.313Z</time></trkpt><trkpt lat="42.4631772" lon="14.1043047"><ele>129.0</ele><time>2026-05-02T07:00:30.326Z</time></trkpt><trkpt lat="42.4629921" lon="14.1045367"><ele>129.66666666666666</ele><time>2026-05-02T07:00:32.313Z</time></trkpt><trkpt lat="42.4628071" lon="14.1047363"><ele>130.33333333333331</ele><time>2026-05-02T07:00:34.315Z</time></trkpt><trkpt lat="42.4626762" lon="14.1047925"><ele>131.0</ele><time>2026-05-02T07:00:36.329Z</time></trkpt><trkpt lat="42.4625529" lon="14.1046909"><ele>131.0</ele><time>2026-05-02T07:00:38.324Z</time></trkpt><trkpt lat="42.4624606" lon="14.1046748"><ele>131.0</ele><time>2026-05-02T07:00:40.331Z</time></trkpt><trkpt lat="42.4624151" lon="14.104805"><ele>131.0</ele><time>2026-05-02T07:00:42.338Z</time></trkpt><trkpt lat="42.4624571" lon="14.104976"><ele>131.0</ele><time>2026-05-02T07:00:44.323Z</time></trkpt><trkpt lat="42.4624045" lon="14.1051633"><ele>132.0</ele><time>2026-05-02T07:00:46.324Z</time></trkpt><trkpt lat="42.4622426" lon="14.1053357"><ele>133.0</ele><time>2026-05-02T07:00:48.411Z</time></trkpt><trkpt lat="42.4620317" lon="14.1055387"><ele>136.0</ele><time>2026-05-02T07:00:50.408Z</time></trkpt><trkpt lat="42.4617981" lon="14.1057569"><ele>139.0</ele><time>2026-05-02T07:00:52.406Z</time></trkpt><trkpt lat="42.4615675" lon="14.1059877"><ele>139.0</ele><time>2026-05-02T07:00:54.419Z</time></trkpt><trkpt lat="42.4613452" lon="14.1062023"><ele>139.0</ele><time>2026-05-02T07:00:56.41Z</time></trkpt><trkpt lat="42.4610917" lon="14.106369"><ele>141.5</ele><time>2026-05-02T07:00:58.398Z</time></trkpt><trkpt lat="42.4608462" lon="14.1065025"><ele>144.0</ele><time>2026-05-02T07:01:00.377Z</time></trkpt><trkpt lat="42.460656" lon="14.10668"><ele>144.0</ele><time>2026-05-02T07:01:02.385Z</time></trkpt><trkpt lat="42.4605103" lon="14.1069584"><ele>144.0</ele><time>2026-05-02T07:01:04.398Z</time></trkpt><trkpt lat="42.4604049" lon="14.1073031"><ele>152.0</ele><time>2026-05-02T07:01:06.377Z</time></trkpt><trkpt lat="42.460337" lon="14.1076904"><ele>160.0</ele><time>2026-05-02T07:01:08.382Z</time></trkpt><trkpt lat="42.4602533" lon="14.1080429"><ele>158.5</ele><time>2026-05-02T07:01:10.308Z</time></trkpt><trkpt lat="42.4601081" lon="14.108369"><ele>157.0</ele><time>2026-05-02T07:01:12.31Z</time></trkpt><trkpt lat="42.459964" lon="14.1087312"><ele>157.0</ele><time>2026-05-02T07:01:14.312Z</time></trkpt><trkpt lat="42.4598354" lon="14.1090458"><ele>157.0</ele><time>2026-05-02T07:01:16.317Z</time></trkpt><trkpt lat="42.4596661" lon="14.1092945"><ele>160.5</ele><time>2026-05-02T07:01:18.314Z</time></trkpt><trkpt lat="42.4594217" lon="14.1094965"><ele>164.0</ele><time>2026-05-02T07:01:20.318Z</time></trkpt><trkpt lat="42.4591951" lon="14.1097525"><ele>161.0</ele><time>2026-05-02T07:01:22.319Z</time></trkpt><trkpt lat="42.458967" lon="14.1100642"><ele>158.0</ele><time>2026-05-02T07:01:24.326Z</time></trkpt><trkpt lat="42.458768" lon="14.1104118"><ele>158.0</ele><time>2026-05-02T07:01:26.326Z</time></trkpt><trkpt lat="42.4585656" lon="14.1107269"><ele>158.0</ele><time>2026-05-02T07:01:28.324Z</time></trkpt><trkpt lat="42.458382" lon="14.1110526"><ele>159.33333333333331</ele><time>2026-05-02T07:01:30.325Z</time></trkpt><trkpt lat="42.458182" lon="14.1112702"><ele>160.66666666666666</ele><time>2026-05-02T07:01:32.323Z</time></trkpt><trkpt lat="42.4580028" lon="14.1112597"><ele>162.0</ele><time>2026-05-02T07:01:34.308Z</time></trkpt><trkpt lat="42.4579149" lon="14.1110565"><ele>165.25</ele><time>2026-05-02T07:01:36.296Z</time></trkpt><trkpt lat="42.4578633" lon="14.1108209"><ele>168.5</ele><time>2026-05-02T07:01:38.305Z</time></trkpt><trkpt lat="42.45775" lon="14.1107455"><ele>171.75</ele><time>2026-05-02T07:01:40.313Z</time></trkpt><trkpt lat="42.4576597" lon="14.1108725"><ele>175.0</ele><time>2026-05-02T07:01:42.318Z</time></trkpt><trkpt lat="42.4576957" lon="14.1110959"><ele>175.0</ele><time>2026-05-02T07:01:44.315Z</time></trkpt><trkpt lat="42.4577977" lon="14.111394"><ele>175.0</ele><time>2026-05-02T07:01:46.327Z</time></trkpt><trkpt lat="42.4578932" lon="14.11177"><ele>175.0</ele><time>2026-05-02T07:01:48.318Z</time></trkpt><trkpt lat="42.4579882" lon="14.1121613"><ele>175.0</ele><time>2026-05-02T07:01:50.342Z</time></trkpt><trkpt lat="42.4580858" lon="14.1125285"><ele>175.0</ele><time>2026-05-02T07:01:52.319Z</time></trkpt><trkpt lat="42.4581261" lon="14.1128673"><ele>175.0</ele><time>2026-05-02T07:01:54.321Z</time></trkpt><trkpt lat="42.4581039" lon="14.1131767"><ele>176.5</ele><time>2026-05-02T07:01:56.315Z</time></trkpt><trkpt lat="42.4579655" lon="14.1134738"><ele>178.0</ele><time>2026-05-02T07:01:58.322Z</time></trkpt><trkpt lat="42.4578852" lon="14.1138347"><ele>173.0</ele><time>2026-05-02T07:02:00.32Z</time></trkpt><trkpt lat="42.4578923" lon="14.1142274"><ele>168.0</ele><time>2026-05-02T07:02:02.325Z</time></trkpt><trkpt lat="42.4579027" lon="14.1146245"><ele>167.5</ele><time>2026-05-02T07:02:04.329Z</time></trkpt><trkpt lat="42.4578357" lon="14.1149637"><ele>167.0</ele><time>2026-05-02T07:02:06.332Z</time></trkpt><trkpt lat="42.4577862" lon="14.1152431"><ele>167.0</ele><time>2026-05-02T07:02:08.325Z</time></trkpt><trkpt lat="42.4578519" lon="14.1154857"><ele>167.0</ele><time>2026-05-02T07:02:10.319Z</time></trkpt><trkpt lat="42.4580256" lon="14.1157119"><ele>167.0</ele><time>2026-05-02T07:02:12.312Z</time></trkpt><trkpt lat="42.4582257" lon="14.1159263"><ele>167.0</ele><time>2026-05-02T07:02:14.328Z</time></trkpt><trkpt lat="42.4584211" lon="14.1161434"><ele>167.0</ele><time>2026-05-02T07:02:16.337Z</time></trkpt><trkpt lat="42.4585898" lon="14.1163534"><ele>165.0</ele><time>2026-05-02T07:02:18.329Z</time></trkpt><trkpt lat="42.4588156" lon="14.1165765"><ele>163.0</ele><time>2026-05-02T07:02:20.329Z</time></trkpt><trkpt lat="42.4590592" lon="14.1167945"><ele>163.0</ele><time>2026-05-02T07:02:22.329Z</time></trkpt><trkpt lat="42.4592933" lon="14.1170136"><ele>163.0</ele><time>2026-05-02T07:02:24.339Z</time></trkpt><trkpt lat="42.4595397" lon="14.1172246"><ele>161.5</ele><time>2026-05-02T07:02:26.325Z</time></trkpt><trkpt lat="42.4597766" lon="14.117411"><ele>160.0</ele><time>2026-05-02T07:02:28.334Z</time></trkpt><trkpt lat="42.4600284" lon="14.1176162"><ele>160.0</ele><time>2026-05-02T07:02:30.332Z</time></trkpt><trkpt lat="42.4602518" lon="14.1177778"><ele>160.0</ele><time>2026-05-02T07:02:32.327Z</time></trkpt><trkpt lat="42.4604321" lon="14.1179881"><ele>160.5</ele><time>2026-05-02T07:02:34.319Z</time></trkpt><trkpt lat="42.4605227" lon="14.1182786"><ele>161.0</ele><time>2026-05-02T07:02:36.32Z</time></trkpt><trkpt lat="42.4605124" lon="14.1186214"><ele>160.5</ele><time>2026-05-02T07:02:38.315Z</time></trkpt><trkpt lat="42.4604404" lon="14.1189625"><ele>160.0</ele><time>2026-05-02T07:02:40.314Z</time></trkpt><trkpt lat="42.460324" lon="14.1192816"><ele>160.0</ele><time>2026-05-02T07:02:42.329Z</time></trkpt><trkpt lat="42.4602164" lon="14.1195261"><ele>160.0</ele><time>2026-05-02T07:02:44.394Z</time></trkpt><trkpt lat="42.4600823" lon="14.1196983"><ele>160.0</ele><time>2026-05-02T07:02:46.386Z</time></trkpt><trkpt lat="42.4599452" lon="14.1198942"><ele>160.0</ele><time>2026-05-02T07:02:48.394Z</time></trkpt><trkpt lat="42.4597723" lon="14.1201094"><ele>160.0</ele><time>2026-05-02T07:02:50.32Z</time></trkpt><trkpt lat="42.4596095" lon="14.1203531"><ele>160.0</ele><time>2026-05-02T07:02:52.323Z</time></trkpt><trkpt lat="42.4593783" lon="14.1205722"><ele>160.0</ele><time>2026-05-02T07:02:54.327Z</time></trkpt><trkpt lat="42.459107" lon="14.1208239"><ele>160.0</ele><time>2026-05-02T07:02:56.333Z</time></trkpt><trkpt lat="42.4588704" lon="14.1210678"><ele>160.0</ele><time>2026-05-02T07:02:58.336Z</time></trkpt><trkpt lat="42.458748" lon="14.1211897"><ele>160.0</ele><time>2026-05-02T07:03:00.312Z</time></trkpt><trkpt lat="42.4586658" lon="14.1212165"><ele>160.0</ele><time>2026-05-02T07:03:02.315Z</time></trkpt><trkpt lat="42.4587244" lon="14.1212522"><ele>160.0</ele><time>2026-05-02T07:03:24.335Z</time></trkpt><trkpt lat="42.4588292" lon="14.1211433"><ele>160.0</ele><time>2026-05-02T07:03:26.346Z</time></trkpt><trkpt lat="42.4588666" lon="14.1210247"><ele>160.0</ele><time>2026-05-02T07:03:28.338Z</time></trkpt><trkpt lat="42.4587866" lon="14.1209258"><ele>160.0</ele><time>2026-05-02T07:03:30.345Z</time></trkpt><trkpt lat="42.4586757" lon="14.1208074"><ele>158.0</ele><time>2026-05-02T07:03:32.334Z</time></trkpt><trkpt lat="42.4585712" lon="14.1207113"><ele>156.0</ele><time>2026-05-02T07:03:34.339Z</time></trkpt><trkpt lat="42.4584619" lon="14.120577"><ele>154.0</ele><time>2026-05-02T07:03:36.339Z</time></trkpt><trkpt lat="42.4583287" lon="14.1204278"><ele>152.0</ele><time>2026-05-02T07:03:38.336Z</time></trkpt><trkpt lat="42.4582248" lon="14.1203286"><ele>152.0</ele><time>2026-05-02T07:03:40.325Z</time></trkpt><trkpt lat="42.4581315" lon="14.1202264"><ele>152.0</ele><time>2026-05-02T07:03:42.321Z</time></trkpt><trkpt lat="42.4580221" lon="14.1200939"><ele>152.0</ele><time>2026-05-02T07:03:44.321Z</time></trkpt><trkpt lat="42.457905" lon="14.1199114"><ele>152.0</ele><time>2026-05-02T07:03:46.319Z</time></trkpt><trkpt lat="42.4577934" lon="14.1197222"><ele>148.0</ele><time>2026-05-02T07:03:48.31Z</time></trkpt><trkpt lat="42.4577057" lon="14.1195982"><ele>144.0</ele><time>2026-05-02T07:03:50.304Z</time></trkpt><trkpt lat="42.4576367" lon="14.1194931"><ele>140.0</ele><time>2026-05-02T07:03:52.312Z</time></trkpt><trkpt lat="42.457579" lon="14.1194303"><ele>136.0</ele><time>2026-05-02T07:03:54.33Z</time></trkpt><trkpt lat="42.4574979" lon="14.1193407"><ele>132.0</ele><time>2026-05-02T07:03:56.326Z</time></trkpt><trkpt lat="42.4574311" lon="14.119257"><ele>132.0</ele><time>2026-05-02T07:03:58.315Z</time></trkpt><trkpt lat="42.4572846" lon="14.1192329"><ele>132.0</ele><time>2026-05-02T07:04:02.328Z</time></trkpt><trkpt lat="42.4571707" lon="14.1192265"><ele>132.0</ele><time>2026-05-02T07:04:04.328Z</time></trkpt><trkpt lat="42.4570563" lon="14.1192114"><ele>132.0</ele><time>2026-05-02T07:04:06.316Z</time></trkpt><trkpt lat="42.4569642" lon="14.1192265"><ele>130.4</ele><time>2026-05-02T07:04:08.324Z</time></trkpt><trkpt lat="42.4568815" lon="14.1192396"><ele>128.79999999999998</ele><time>2026-05-02T07:04:10.325Z</time></trkpt><trkpt lat="42.4567951" lon="14.1192387"><ele>127.2</ele><time>2026-05-02T07:04:12.331Z</time></trkpt><trkpt lat="42.4567069" lon="14.1192748"><ele>125.6</ele><time>2026-05-02T07:04:14.337Z</time></trkpt><trkpt lat="42.4565935" lon="14.1193056"><ele>124.0</ele><time>2026-05-02T07:04:16.327Z</time></trkpt><trkpt lat="42.4564762" lon="14.1193179"><ele>124.0</ele><time>2026-05-02T07:04:18.317Z</time></trkpt><trkpt lat="42.4563399" lon="14.11931"><ele>124.0</ele><time>2026-05-02T07:04:20.322Z</time></trkpt><trkpt lat="42.4561923" lon="14.1193324"><ele>124.0</ele><time>2026-05-02T07:04:22.321Z</time></trkpt><trkpt lat="42.4560912" lon="14.1193441"><ele>124.0</ele><time>2026-05-02T07:04:24.33Z</time></trkpt><trkpt lat="42.4560236" lon="14.119314"><ele>123.0</ele><time>2026-05-02T07:04:26.327Z</time></trkpt><trkpt lat="42.4559039" lon="14.1192799"><ele>122.0</ele><time>2026-05-02T07:04:30.334Z</time></trkpt><trkpt lat="42.4557931" lon="14.1192308"><ele>121.0</ele><time>2026-05-02T07:04:34.335Z</time></trkpt><trkpt lat="42.4557088" lon="14.1192"><ele>120.0</ele><time>2026-05-02T07:04:36.334Z</time></trkpt><trkpt lat="42.455626" lon="14.1191797"><ele>119.0</ele><time>2026-05-02T07:04:38.332Z</time></trkpt><trkpt lat="42.4555033" lon="14.1192024"><ele>118.0</ele><time>2026-05-02T07:04:42.318Z</time></trkpt><trkpt lat="42.4554268" lon="14.1192077"><ele>117.0</ele><time>2026-05-02T07:04:44.323Z</time></trkpt><trkpt lat="42.4553078" lon="14.1192053"><ele>116.0</ele><time>2026-05-02T07:04:48.331Z</time></trkpt><trkpt lat="42.4552418" lon="14.1192205"><ele>115.0</ele><time>2026-05-02T07:04:50.331Z</time></trkpt><trkpt lat="42.4551519" lon="14.1192166"><ele>114.0</ele><time>2026-05-02T07:04:54.323Z</time></trkpt><trkpt lat="42.4550336" lon="14.1191965"><ele>114.0</ele><time>2026-05-02T07:04:58.32Z</time></trkpt><trkpt lat="42.4549377" lon="14.119176"><ele>114.0</ele><time>2026-05-02T07:05:02.318Z</time></trkpt><trkpt lat="42.4548415" lon="14.1191198"><ele>114.0</ele><time>2026-05-02T07:05:06.321Z</time></trkpt><trkpt lat="42.4548064" lon="14.1190395"><ele>114.0</ele><time>2026-05-02T07:05:10.315Z</time></trkpt><trkpt lat="42.4548225" lon="14.1188885"><ele>114.0</ele><time>2026-05-02T07:05:14.291Z</time></trkpt><trkpt lat="42.4548767" lon="14.1187698"><ele>114.66666666666666</ele><time>2026-05-02T07:05:16.285Z</time></trkpt><trkpt lat="42.4548699" lon="14.1185003"><ele>115.33333333333333</ele><time>2026-05-02T07:05:18.281Z</time></trkpt><trkpt lat="42.45488" lon="14.1182444"><ele>116.0</ele><time>2026-05-02T07:05:20.305Z</time></trkpt><trkpt lat="42.4549169" lon="14.1180452"><ele>116.0</ele><time>2026-05-02T07:05:22.306Z</time></trkpt><trkpt lat="42.4549633" lon="14.1178607"><ele>116.0</ele><time>2026-05-02T07:05:24.308Z</time></trkpt><trkpt lat="42.4549913" lon="14.1177102"><ele>116.0</ele><time>2026-05-02T07:05:26.305Z</time></trkpt><trkpt lat="42.455019" lon="14.1175329"><ele>116.0</ele><time>2026-05-02T07:05:28.307Z</time></trkpt><trkpt lat="42.4550202" lon="14.1173617"><ele>117.4</ele><time>2026-05-02T07:05:30.309Z</time></trkpt><trkpt lat="42.4550122" lon="14.1172359"><ele>118.8</ele><time>2026-05-02T07:05:32.308Z</time></trkpt><trkpt lat="42.4549639" lon="14.1171733"><ele>120.20000000000002</ele><time>2026-05-02T07:05:34.303Z</time></trkpt><trkpt lat="42.4548857" lon="14.1171693"><ele>121.60000000000001</ele><time>2026-05-02T07:05:36.307Z</time></trkpt><trkpt lat="42.4547493" lon="14.1171604"><ele>123.0</ele><time>2026-05-02T07:05:38.329Z</time></trkpt><trkpt lat="42.4545954" lon="14.1171252"><ele>123.66666666666666</ele><time>2026-05-02T07:05:40.307Z</time></trkpt><trkpt lat="42.4544266" lon="14.1170756"><ele>124.33333333333333</ele><time>2026-05-02T07:05:42.319Z</time></trkpt><trkpt lat="42.4542759" lon="14.1170378"><ele>125.0</ele><time>2026-05-02T07:05:44.325Z</time></trkpt><trkpt lat="42.4541139" lon="14.1170115"><ele>125.0</ele><time>2026-05-02T07:05:46.328Z</time></trkpt><trkpt lat="42.4539483" lon="14.116975"><ele>125.0</ele><time>2026-05-02T07:05:48.319Z</time></trkpt><trkpt lat="42.4538126" lon="14.1169555"><ele>125.0</ele><time>2026-05-02T07:05:50.324Z</time></trkpt><trkpt lat="42.4537119" lon="14.1169431"><ele>125.0</ele><time>2026-05-02T07:05:52.326Z</time></trkpt><trkpt lat="42.4535854" lon="14.1169769"><ele>125.66666666666666</ele><time>2026-05-02T07:05:54.327Z</time></trkpt><trkpt lat="42.4534674" lon="14.1170649"><ele>126.33333333333334</ele><time>2026-05-02T07:05:56.319Z</time></trkpt><trkpt lat="42.4533365" lon="14.1172319"><ele>127.0</ele><time>2026-05-02T07:05:58.332Z</time></trkpt><trkpt lat="42.4532085" lon="14.1173415"><ele>124.66666666666667</ele><time>2026-05-02T07:06:00.315Z</time></trkpt><trkpt lat="42.4530615" lon="14.1174059"><ele>122.33333333333334</ele><time>2026-05-02T07:06:02.313Z</time></trkpt><trkpt lat="42.4528881" lon="14.1174178"><ele>120.0</ele><time>2026-05-02T07:06:04.317Z</time></trkpt><trkpt lat="42.4527329" lon="14.1174147"><ele>122.5</ele><time>2026-05-02T07:06:06.321Z</time></trkpt><trkpt lat="42.452625" lon="14.1173769"><ele>125.0</ele><time>2026-05-02T07:06:08.315Z</time></trkpt><trkpt lat="42.4525508" lon="14.1172799"><ele>127.5</ele><time>2026-05-02T07:06:10.314Z</time></trkpt><trkpt lat="42.4525032" lon="14.117108"><ele>130.0</ele><time>2026-05-02T07:06:12.33Z</time></trkpt><trkpt lat="42.4524058" lon="14.1168581"><ele>130.0</ele><time>2026-05-02T07:06:14.409Z</time></trkpt><trkpt lat="42.4522721" lon="14.1166063"><ele>130.0</ele><time>2026-05-02T07:06:16.405Z</time></trkpt><trkpt lat="42.452122" lon="14.1164325"><ele>130.0</ele><time>2026-05-02T07:06:18.389Z</time></trkpt><trkpt lat="42.4519561" lon="14.1163636"><ele>131.75</ele><time>2026-05-02T07:06:20.392Z</time></trkpt><trkpt lat="42.4517869" lon="14.1163396"><ele>133.5</ele><time>2026-05-02T07:06:22.414Z</time></trkpt><trkpt lat="42.4516651" lon="14.1163439"><ele>135.25</ele><time>2026-05-02T07:06:24.419Z</time></trkpt><trkpt lat="42.4515575" lon="14.1163537"><ele>137.0</ele><time>2026-05-02T07:06:26.417Z</time></trkpt><trkpt lat="42.4514421" lon="14.1163457"><ele>137.0</ele><time>2026-05-02T07:06:28.417Z</time></trkpt><trkpt lat="42.4513273" lon="14.1163065"><ele>137.0</ele><time>2026-05-02T07:06:30.41Z</time></trkpt><trkpt lat="42.4512502" lon="14.1162527"><ele>137.0</ele><time>2026-05-02T07:06:32.393Z</time></trkpt><trkpt lat="42.4511696" lon="14.1162225"><ele>137.0</ele><time>2026-05-02T07:06:34.307Z</time></trkpt><trkpt lat="42.4510228" lon="14.1161607"><ele>137.0</ele><time>2026-05-02T07:06:38.324Z</time></trkpt><trkpt lat="42.4509011" lon="14.116217"><ele>132.25</ele><time>2026-05-02T07:06:40.326Z</time></trkpt><trkpt lat="42.4508015" lon="14.1162783"><ele>127.5</ele><time>2026-05-02T07:06:42.325Z</time></trkpt><trkpt lat="42.450697" lon="14.1163456"><ele>122.75</ele><time>2026-05-02T07:06:44.324Z</time></trkpt><trkpt lat="42.4505894" lon="14.1164295"><ele>118.0</ele><time>2026-05-02T07:06:46.33Z</time></trkpt><trkpt lat="42.4504767" lon="14.1165304"><ele>115.25</ele><time>2026-05-02T07:06:48.329Z</time></trkpt><trkpt lat="42.450377" lon="14.1166463"><ele>112.5</ele><time>2026-05-02T07:06:50.326Z</time></trkpt><trkpt lat="42.4502796" lon="14.116739"><ele>109.75</ele><time>2026-05-02T07:06:52.334Z</time></trkpt><trkpt lat="42.450195" lon="14.1168216"><ele>107.0</ele><time>2026-05-02T07:06:54.333Z</time></trkpt><trkpt lat="42.4500999" lon="14.116915"><ele>107.0</ele><time>2026-05-02T07:06:56.332Z</time></trkpt><trkpt lat="42.4500234" lon="14.1169735"><ele>107.0</ele><time>2026-05-02T07:06:58.327Z</time></trkpt><trkpt lat="42.4499278" lon="14.1170404"><ele>107.0</ele><time>2026-05-02T07:07:00.341Z</time></trkpt><trkpt lat="42.449801" lon="14.1171115"><ele>107.0</ele><time>2026-05-02T07:07:02.326Z</time></trkpt><trkpt lat="42.4496561" lon="14.1171856"><ele>103.66666666666666</ele><time>2026-05-02T07:07:04.325Z</time></trkpt><trkpt lat="42.4494875" lon="14.117229"><ele>100.33333333333334</ele><time>2026-05-02T07:07:06.327Z</time></trkpt><trkpt lat="42.4493189" lon="14.1172049"><ele>97.0</ele><time>2026-05-02T07:07:08.325Z</time></trkpt><trkpt lat="42.4491637" lon="14.1171564"><ele>97.0</ele><time>2026-05-02T07:07:10.324Z</time></trkpt><trkpt lat="42.4490158" lon="14.1170914"><ele>97.0</ele><time>2026-05-02T07:07:12.327Z</time></trkpt><trkpt lat="42.4488714" lon="14.1170598"><ele>97.0</ele><time>2026-05-02T07:07:14.324Z</time></trkpt><trkpt lat="42.4487484" lon="14.1170545"><ele>97.0</ele><time>2026-05-02T07:07:16.324Z</time></trkpt><trkpt lat="42.4486397" lon="14.1170553"><ele>96.5</ele><time>2026-05-02T07:07:18.324Z</time></trkpt><trkpt lat="42.4485575" lon="14.1171265"><ele>96.0</ele><time>2026-05-02T07:07:22.329Z</time></trkpt><trkpt lat="42.4485155" lon="14.1172415"><ele>95.5</ele><time>2026-05-02T07:07:26.317Z</time></trkpt><trkpt lat="42.4484833" lon="14.1174875"><ele>95.0</ele><time>2026-05-02T07:07:30.317Z</time></trkpt><trkpt lat="42.4485097" lon="14.1177049"><ele>93.5</ele><time>2026-05-02T07:07:32.325Z</time></trkpt><trkpt lat="42.4485491" lon="14.1178838"><ele>92.0</ele><time>2026-05-02T07:07:34.318Z</time></trkpt><trkpt lat="42.448562" lon="14.1180249"><ele>90.5</ele><time>2026-05-02T07:07:36.317Z</time></trkpt><trkpt lat="42.4485234" lon="14.1182009"><ele>89.0</ele><time>2026-05-02T07:07:40.332Z</time></trkpt><trkpt lat="42.4485299" lon="14.1183084"><ele>89.0</ele><time>2026-05-02T07:07:42.331Z</time></trkpt><trkpt lat="42.4485633" lon="14.1184613"><ele>89.0</ele><time>2026-05-02T07:07:44.329Z</time></trkpt><trkpt lat="42.4485853" lon="14.1185907"><ele>89.0</ele><time>2026-05-02T07:07:46.317Z</time></trkpt><trkpt lat="42.4485942" lon="14.11871"><ele>89.0</ele><time>2026-05-02T07:08:20.331Z</time></trkpt><trkpt lat="42.4486213" lon="14.1188677"><ele>89.0</ele><time>2026-05-02T07:08:24.331Z</time></trkpt><trkpt lat="42.4486252" lon="14.1189625"><ele>90.75</ele><time>2026-05-02T07:08:26.326Z</time></trkpt><trkpt lat="42.4486356" lon="14.119069"><ele>92.5</ele><time>2026-05-02T07:10:24.335Z</time></trkpt><trkpt lat="42.4486451" lon="14.1192332"><ele>94.25</ele><time>2026-05-02T07:10:34.332Z</time></trkpt><trkpt lat="42.4486533" lon="14.1194199"><ele>96.0</ele><time>2026-05-02T07:10:36.34Z</time></trkpt><trkpt lat="42.4486575" lon="14.1195977"><ele>96.0</ele><time>2026-05-02T07:10:38.311Z</time></trkpt><trkpt lat="42.4486578" lon="14.1197342"><ele>96.0</ele><time>2026-05-02T07:10:40.32Z</time></trkpt><trkpt lat="42.4486671" lon="14.1198562"><ele>96.0</ele><time>2026-05-02T07:10:42.319Z</time></trkpt><trkpt lat="42.4486716" lon="14.1199474"><ele>96.0</ele><time>2026-05-02T07:10:44.328Z</time></trkpt><trkpt lat="42.4486803" lon="14.1200953"><ele>96.0</ele><time>2026-05-02T07:10:48.323Z</time></trkpt><trkpt lat="42.4486877" lon="14.1201869"><ele>96.0</ele><time>2026-05-02T07:10:50.323Z</time></trkpt><trkpt lat="42.4486669" lon="14.120345"><ele>97.66666666666667</ele><time>2026-05-02T07:10:54.32Z</time></trkpt><trkpt lat="42.4486632" lon="14.120436"><ele>99.33333333333334</ele><time>2026-05-02T07:10:58.325Z</time></trkpt><trkpt lat="42.4486693" lon="14.1205619"><ele>101.0</ele><time>2026-05-02T07:11:02.324Z</time></trkpt><trkpt lat="42.4486728" lon="14.1206693"><ele>102.66666666666667</ele><time>2026-05-02T07:11:04.33Z</time></trkpt><trkpt lat="42.4486751" lon="14.120774"><ele>104.33333333333334</ele><time>2026-05-02T07:11:06.334Z</time></trkpt><trkpt lat="42.4486765" lon="14.1209186"><ele>106.0</ele><time>2026-05-02T07:11:08.33Z</time></trkpt><trkpt lat="42.4486706" lon="14.1210266"><ele>108.4</ele><time>2026-05-02T07:11:10.328Z</time></trkpt><trkpt lat="42.4486709" lon="14.1211912"><ele>110.8</ele><time>2026-05-02T07:11:12.334Z</time></trkpt><trkpt lat="42.4486812" lon="14.1213505"><ele>113.20000000000002</ele><time>2026-05-02T07:11:14.324Z</time></trkpt><trkpt lat="42.4486876" lon="14.1214955"><ele>115.60000000000001</ele><time>2026-05-02T07:11:16.317Z</time></trkpt><trkpt lat="42.4486964" lon="14.1216166"><ele>118.0</ele><time>2026-05-02T07:11:18.322Z</time></trkpt><trkpt lat="42.4487117" lon="14.1217699"><ele>121.0</ele><time>2026-05-02T07:11:20.324Z</time></trkpt><trkpt lat="42.4487388" lon="14.1219786"><ele>124.0</ele><time>2026-05-02T07:11:22.32Z</time></trkpt><trkpt lat="42.4487799" lon="14.1221895"><ele>127.0</ele><time>2026-05-02T07:11:24.328Z</time></trkpt><trkpt lat="42.448838" lon="14.1224098"><ele>127.6</ele><time>2026-05-02T07:11:26.325Z</time></trkpt><trkpt lat="42.4488912" lon="14.1225651"><ele>128.2</ele><time>2026-05-02T07:11:28.329Z</time></trkpt><trkpt lat="42.4489148" lon="14.1226502"><ele>128.8</ele><time>2026-05-02T07:11:30.32Z</time></trkpt><trkpt lat="42.4487923" lon="14.1226537"><ele>129.4</ele><time>2026-05-02T07:11:34.337Z</time></trkpt><trkpt lat="42.4487164" lon="14.1226127"><ele>130.0</ele><time>2026-05-02T07:11:36.334Z</time></trkpt><trkpt lat="42.4486541" lon="14.122592"><ele>130.0</ele><time>2026-05-02T07:16:02.328Z</time></trkpt><trkpt lat="42.4485347" lon="14.1225051"><ele>130.0</ele><time>2026-05-02T07:16:04.323Z</time></trkpt><trkpt lat="42.4482675" lon="14.1223538"><ele>130.0</ele><time>2026-05-02T07:16:06.326Z</time></trkpt><trkpt lat="42.4479998" lon="14.122168"><ele>132.5</ele><time>2026-05-02T07:16:08.408Z</time></trkpt><trkpt lat="42.4477294" lon="14.1219689"><ele>135.0</ele><time>2026-05-02T07:16:10.404Z</time></trkpt><trkpt lat="42.4474983" lon="14.1217981"><ele>135.0</ele><time>2026-05-02T07:16:12.406Z</time></trkpt><trkpt lat="42.4472639" lon="14.1217494"><ele>135.0</ele><time>2026-05-02T07:16:14.396Z</time></trkpt><trkpt lat="42.4469435" lon="14.1216802"><ele>133.5</ele><time>2026-05-02T07:16:16.391Z</time></trkpt><trkpt lat="42.4467093" lon="14.1216714"><ele>132.0</ele><time>2026-05-02T07:16:18.383Z</time></trkpt><trkpt lat="42.446444" lon="14.1217358"><ele>130.0</ele><time>2026-05-02T07:16:20.411Z</time></trkpt><trkpt lat="42.4461857" lon="14.1218108"><ele>128.0</ele><time>2026-05-02T07:16:22.382Z</time></trkpt><trkpt lat="42.4459511" lon="14.1218523"><ele>128.0</ele><time>2026-05-02T07:16:24.39Z</time></trkpt><trkpt lat="42.4457254" lon="14.1219507"><ele>128.0</ele><time>2026-05-02T07:16:26.396Z</time></trkpt><trkpt lat="42.445524" lon="14.1221719"><ele>127.0</ele><time>2026-05-02T07:16:28.384Z</time></trkpt><trkpt lat="42.4453192" lon="14.1224251"><ele>126.0</ele><time>2026-05-02T07:16:30.377Z</time></trkpt><trkpt lat="42.4451066" lon="14.1225939"><ele>126.0</ele><time>2026-05-02T07:16:32.391Z</time></trkpt><trkpt lat="42.4448825" lon="14.1227468"><ele>126.0</ele><time>2026-05-02T07:16:34.38Z</time></trkpt><trkpt lat="42.4446884" lon="14.1229404"><ele>122.5</ele><time>2026-05-02T07:16:36.376Z</time></trkpt><trkpt lat="42.4444932" lon="14.1232079"><ele>119.0</ele><time>2026-05-02T07:16:38.315Z</time></trkpt><trkpt lat="42.4442847" lon="14.1234217"><ele>119.0</ele><time>2026-05-02T07:16:40.323Z</time></trkpt><trkpt lat="42.4440748" lon="14.1234726"><ele>119.0</ele><time>2026-05-02T07:16:42.306Z</time></trkpt><trkpt lat="42.4438267" lon="14.1234353"><ele>115.0</ele><time>2026-05-02T07:16:44.315Z</time></trkpt><trkpt lat="42.4435382" lon="14.1234893"><ele>111.0</ele><time>2026-05-02T07:16:46.31Z</time></trkpt><trkpt lat="42.4432126" lon="14.1236065"><ele>108.0</ele><time>2026-05-02T07:16:48.306Z</time></trkpt><trkpt lat="42.442888" lon="14.1237012"><ele>105.0</ele><time>2026-05-02T07:16:50.319Z</time></trkpt><trkpt lat="42.4426046" lon="14.1238028"><ele>105.0</ele><time>2026-05-02T07:16:52.315Z</time></trkpt><trkpt lat="42.4422987" lon="14.1238813"><ele>105.0</ele><time>2026-05-02T07:16:54.315Z</time></trkpt><trkpt lat="42.4420209" lon="14.1239221"><ele>109.0</ele><time>2026-05-02T07:16:56.311Z</time></trkpt><trkpt lat="42.441732" lon="14.1239078"><ele>113.0</ele><time>2026-05-02T07:16:58.313Z</time></trkpt><trkpt lat="42.4414642" lon="14.123847"><ele>109.5</ele><time>2026-05-02T07:17:00.3Z</time></trkpt><trkpt lat="42.4412638" lon="14.1237572"><ele>106.0</ele><time>2026-05-02T07:17:02.3Z</time></trkpt><trkpt lat="42.4410069" lon="14.1236299"><ele>106.0</ele><time>2026-05-02T07:17:04.307Z</time></trkpt><trkpt lat="42.4407425" lon="14.1234569"><ele>106.0</ele><time>2026-05-02T07:17:06.307Z</time></trkpt><trkpt lat="42.4404777" lon="14.123328"><ele>102.5</ele><time>2026-05-02T07:17:08.313Z</time></trkpt><trkpt lat="42.4401622" lon="14.1232596"><ele>99.0</ele><time>2026-05-02T07:17:10.319Z</time></trkpt><trkpt lat="42.4398795" lon="14.1232527"><ele>89.5</ele><time>2026-05-02T07:17:12.307Z</time></trkpt><trkpt lat="42.4396298" lon="14.1232558"><ele>80.0</ele><time>2026-05-02T07:17:14.304Z</time></trkpt><trkpt lat="42.4393773" lon="14.1233444"><ele>80.0</ele><time>2026-05-02T07:17:16.311Z</time></trkpt><trkpt lat="42.4391171" lon="14.123469"><ele>80.0</ele><time>2026-05-02T07:17:18.325Z</time></trkpt><trkpt lat="42.4388205" lon="14.1235163"><ele>74.5</ele><time>2026-05-02T07:17:20.315Z</time></trkpt><trkpt lat="42.4385148" lon="14.1235389"><ele>69.0</ele><time>2026-05-02T07:17:22.317Z</time></trkpt><trkpt lat="42.4382353" lon="14.1236297"><ele>68.5</ele><time>2026-05-02T07:17:24.318Z</time></trkpt><trkpt lat="42.4379408" lon="14.1237073"><ele>68.0</ele><time>2026-05-02T07:17:26.31Z</time></trkpt><trkpt lat="42.4377227" lon="14.1237722"><ele>68.0</ele><time>2026-05-02T07:17:28.306Z</time></trkpt><trkpt lat="42.4375516" lon="14.1237552"><ele>68.0</ele><time>2026-05-02T07:17:30.306Z</time></trkpt><trkpt lat="42.4373711" lon="14.1236442"><ele>68.0</ele><time>2026-05-02T07:17:32.309Z</time></trkpt><trkpt lat="42.4371656" lon="14.1236037"><ele>63.0</ele><time>2026-05-02T07:17:34.294Z</time></trkpt><trkpt lat="42.4369152" lon="14.1234377"><ele>58.0</ele><time>2026-05-02T07:17:36.3Z</time></trkpt><trkpt lat="42.4366065" lon="14.1232939"><ele>61.0</ele><time>2026-05-02T07:17:38.292Z</time></trkpt><trkpt lat="42.4362774" lon="14.1232152"><ele>64.0</ele><time>2026-05-02T07:17:40.301Z</time></trkpt><trkpt lat="42.4360088" lon="14.1231158"><ele>64.0</ele><time>2026-05-02T07:17:42.309Z</time></trkpt><trkpt lat="42.4357743" lon="14.1230409"><ele>64.0</ele><time>2026-05-02T07:17:44.308Z</time></trkpt><trkpt lat="42.4355664" lon="14.1230654"><ele>65.0</ele><time>2026-05-02T07:17:46.308Z</time></trkpt><trkpt lat="42.4353899" lon="14.1232303"><ele>66.0</ele><time>2026-05-02T07:17:48.31Z</time></trkpt><trkpt lat="42.4351796" lon="14.1234993"><ele>66.0</ele><time>2026-05-02T07:17:50.303Z</time></trkpt><trkpt lat="42.4349243" lon="14.1238269"><ele>66.0</ele><time>2026-05-02T07:17:52.303Z</time></trkpt><trkpt lat="42.4346618" lon="14.1241561"><ele>65.0</ele><time>2026-05-02T07:17:54.303Z</time></trkpt><trkpt lat="42.4344195" lon="14.1244987"><ele>64.0</ele><time>2026-05-02T07:17:56.291Z</time></trkpt><trkpt lat="42.4342168" lon="14.1247733"><ele>58.5</ele><time>2026-05-02T07:17:58.3Z</time></trkpt><trkpt lat="42.4340602" lon="14.1250091"><ele>53.0</ele><time>2026-05-02T07:18:00.306Z</time></trkpt><trkpt lat="42.4339107" lon="14.1252227"><ele>55.0</ele><time>2026-05-02T07:18:02.305Z</time></trkpt><trkpt lat="42.4337959" lon="14.1253747"><ele>57.0</ele><time>2026-05-02T07:18:04.307Z</time></trkpt><trkpt lat="42.4336782" lon="14.12545"><ele>59.0</ele><time>2026-05-02T07:18:06.311Z</time></trkpt><trkpt lat="42.4336059" lon="14.1253831"><ele>61.0</ele><time>2026-05-02T07:18:08.3Z</time></trkpt><trkpt lat="42.4335329" lon="14.1252809"><ele>61.0</ele><time>2026-05-02T07:18:10.299Z</time></trkpt><trkpt lat="42.4334434" lon="14.1251242"><ele>61.0</ele><time>2026-05-02T07:18:12.28Z</time></trkpt><trkpt lat="42.4333377" lon="14.1249862"><ele>61.0</ele><time>2026-05-02T07:18:14.288Z</time></trkpt><trkpt lat="42.4332589" lon="14.1250418"><ele>61.0</ele><time>2026-05-02T07:18:16.289Z</time></trkpt><trkpt lat="42.4331383" lon="14.1252252"><ele>69.0</ele><time>2026-05-02T07:18:18.292Z</time></trkpt><trkpt lat="42.4329165" lon="14.1254462"><ele>77.0</ele><time>2026-05-02T07:18:20.301Z</time></trkpt><trkpt lat="42.4326986" lon="14.1256356"><ele>72.33333333333334</ele><time>2026-05-02T07:18:22.302Z</time></trkpt><trkpt lat="42.4325497" lon="14.125838"><ele>67.66666666666667</ele><time>2026-05-02T07:18:24.3Z</time></trkpt><trkpt lat="42.4324057" lon="14.1259701"><ele>63.0</ele><time>2026-05-02T07:18:26.299Z</time></trkpt><trkpt lat="42.4322299" lon="14.1260737"><ele>66.0</ele><time>2026-05-02T07:18:28.309Z</time></trkpt><trkpt lat="42.4320364" lon="14.1261903"><ele>69.0</ele><time>2026-05-02T07:18:30.386Z</time></trkpt><trkpt lat="42.4318304" lon="14.1262872"><ele>72.0</ele><time>2026-05-02T07:18:32.38Z</time></trkpt><trkpt lat="42.4315657" lon="14.1262981"><ele>77.33333333333333</ele><time>2026-05-02T07:18:34.364Z</time></trkpt><trkpt lat="42.431246" lon="14.126293"><ele>82.66666666666666</ele><time>2026-05-02T07:18:36.371Z</time></trkpt><trkpt lat="42.4312901" lon="14.1263768"><ele>88.0</ele><time>2026-05-02T07:18:38.303Z</time></trkpt><trkpt lat="42.4310885" lon="14.1264328"><ele>88.0</ele><time>2026-05-02T07:18:40.299Z</time></trkpt><trkpt lat="42.4308776" lon="14.1265424"><ele>88.0</ele><time>2026-05-02T07:18:42.295Z</time></trkpt><trkpt lat="42.4307115" lon="14.1267089"><ele>88.0</ele><time>2026-05-02T07:18:44.288Z</time></trkpt><trkpt lat="42.430559" lon="14.1268839"><ele>86.25</ele><time>2026-05-02T07:18:46.299Z</time></trkpt><trkpt lat="42.4304073" lon="14.1269461"><ele>84.5</ele><time>2026-05-02T07:18:48.293Z</time></trkpt><trkpt lat="42.4302885" lon="14.1269036"><ele>82.75</ele><time>2026-05-02T07:18:50.307Z</time></trkpt><trkpt lat="42.4302453" lon="14.1267827"><ele>81.0</ele><time>2026-05-02T07:18:54.343Z</time></trkpt><trkpt lat="42.4301001" lon="14.1267298"><ele>81.0</ele><time>2026-05-02T07:18:58.333Z</time></trkpt><trkpt lat="42.429967" lon="14.126775"><ele>81.0</ele><time>2026-05-02T07:19:00.316Z</time></trkpt><trkpt lat="42.4298469" lon="14.126832"><ele>81.0</ele><time>2026-05-02T07:19:02.302Z</time></trkpt><trkpt lat="42.4297305" lon="14.1268673"><ele>81.0</ele><time>2026-05-02T07:19:04.291Z</time></trkpt><trkpt lat="42.4296096" lon="14.1268978"><ele>77.5</ele><time>2026-05-02T07:19:06.292Z</time></trkpt><trkpt lat="42.4294885" lon="14.1269242"><ele>74.0</ele><time>2026-05-02T07:19:08.291Z</time></trkpt><trkpt lat="42.4293596" lon="14.1269155"><ele>70.5</ele><time>2026-05-02T07:19:10.291Z</time></trkpt><trkpt lat="42.4292252" lon="14.1269055"><ele>67.0</ele><time>2026-05-02T07:19:12.293Z</time></trkpt><trkpt lat="42.4290868" lon="14.1268768"><ele>67.0</ele><time>2026-05-02T07:19:14.286Z</time></trkpt><trkpt lat="42.428973" lon="14.1268299"><ele>67.0</ele><time>2026-05-02T07:19:16.286Z</time></trkpt><trkpt lat="42.4288534" lon="14.1267544"><ele>67.0</ele><time>2026-05-02T07:19:18.284Z</time></trkpt><trkpt lat="42.4287414" lon="14.1265974"><ele>67.0</ele><time>2026-05-02T07:19:20.292Z</time></trkpt><trkpt lat="42.4286687" lon="14.1264315"><ele>63.25</ele><time>2026-05-02T07:19:22.293Z</time></trkpt><trkpt lat="42.4286209" lon="14.126271"><ele>59.5</ele><time>2026-05-02T07:19:24.304Z</time></trkpt><trkpt lat="42.4285261" lon="14.126148"><ele>55.75</ele><time>2026-05-02T07:19:26.292Z</time></trkpt><trkpt lat="42.4283999" lon="14.1260285"><ele>52.0</ele><time>2026-05-02T07:19:28.294Z</time></trkpt><trkpt lat="42.4282543" lon="14.1259543"><ele>52.0</ele><time>2026-05-02T07:19:30.295Z</time></trkpt><trkpt lat="42.4281188" lon="14.1259726"><ele>52.0</ele><time>2026-05-02T07:19:32.29Z</time></trkpt><trkpt lat="42.4279547" lon="14.1259953"><ele>52.0</ele><time>2026-05-02T07:19:34.294Z</time></trkpt><trkpt lat="42.4277685" lon="14.1259918"><ele>49.666666666666664</ele><time>2026-05-02T07:19:36.297Z</time></trkpt><trkpt lat="42.4275843" lon="14.1259016"><ele>47.33333333333333</ele><time>2026-05-02T07:19:38.298Z</time></trkpt><trkpt lat="42.4274035" lon="14.1257702"><ele>45.0</ele><time>2026-05-02T07:19:40.297Z</time></trkpt><trkpt lat="42.4272228" lon="14.1257119"><ele>43.2</ele><time>2026-05-02T07:19:42.297Z</time></trkpt><trkpt lat="42.4270647" lon="14.1256895"><ele>41.4</ele><time>2026-05-02T07:19:44.295Z</time></trkpt><trkpt lat="42.4269414" lon="14.1257005"><ele>39.6</ele><time>2026-05-02T07:19:46.302Z</time></trkpt><trkpt lat="42.4268645" lon="14.1256892"><ele>37.8</ele><time>2026-05-02T07:19:48.307Z</time></trkpt><trkpt lat="42.4268029" lon="14.1256233"><ele>36.0</ele><time>2026-05-02T07:19:50.31Z</time></trkpt><trkpt lat="42.4267682" lon="14.1254996"><ele>36.0</ele><time>2026-05-02T07:19:52.318Z</time></trkpt><trkpt lat="42.4267319" lon="14.1252699"><ele>36.0</ele><time>2026-05-02T07:19:54.304Z</time></trkpt><trkpt lat="42.4266888" lon="14.1249519"><ele>36.0</ele><time>2026-05-02T07:19:56.304Z</time></trkpt><trkpt lat="42.4266078" lon="14.1246194"><ele>37.0</ele><time>2026-05-02T07:19:58.319Z</time></trkpt><trkpt lat="42.4265482" lon="14.1243193"><ele>38.0</ele><time>2026-05-02T07:20:00.315Z</time></trkpt><trkpt lat="42.4264887" lon="14.1240622"><ele>39.0</ele><time>2026-05-02T07:20:02.311Z</time></trkpt><trkpt lat="42.4264236" lon="14.1238239"><ele>38.5</ele><time>2026-05-02T07:20:04.394Z</time></trkpt><trkpt lat="42.4263531" lon="14.1235081"><ele>38.0</ele><time>2026-05-02T07:20:06.396Z</time></trkpt><trkpt lat="42.4262882" lon="14.1231245"><ele>38.0</ele><time>2026-05-02T07:20:08.389Z</time></trkpt><trkpt lat="42.4262353" lon="14.1227049"><ele>38.0</ele><time>2026-05-02T07:20:10.391Z</time></trkpt><trkpt lat="42.426191" lon="14.1223528"><ele>38.5</ele><time>2026-05-02T07:20:12.39Z</time></trkpt><trkpt lat="42.4261489" lon="14.121991"><ele>39.0</ele><time>2026-05-02T07:20:14.395Z</time></trkpt><trkpt lat="42.4260952" lon="14.1215998"><ele>40.0</ele><time>2026-05-02T07:20:16.396Z</time></trkpt><trkpt lat="42.4260332" lon="14.1211749"><ele>41.0</ele><time>2026-05-02T07:20:18.394Z</time></trkpt><trkpt lat="42.4259274" lon="14.1207784"><ele>43.0</ele><time>2026-05-02T07:20:20.394Z</time></trkpt><trkpt lat="42.4257885" lon="14.1204054"><ele>45.0</ele><time>2026-05-02T07:20:22.374Z</time></trkpt><trkpt lat="42.4256646" lon="14.1200374"><ele>48.0</ele><time>2026-05-02T07:20:24.374Z</time></trkpt><trkpt lat="42.4255559" lon="14.1196677"><ele>51.0</ele><time>2026-05-02T07:20:26.377Z</time></trkpt><trkpt lat="42.4254698" lon="14.1192548"><ele>45.0</ele><time>2026-05-02T07:20:28.392Z</time></trkpt><trkpt lat="42.4254006" lon="14.1188369"><ele>39.0</ele><time>2026-05-02T07:20:30.392Z</time></trkpt><trkpt lat="42.4253336" lon="14.1184291"><ele>39.5</ele><time>2026-05-02T07:20:32.393Z</time></trkpt><trkpt lat="42.4252645" lon="14.1180321"><ele>40.0</ele><time>2026-05-02T07:20:34.394Z</time></trkpt><trkpt lat="42.4251971" lon="14.1176417"><ele>42.0</ele><time>2026-05-02T07:20:36.389Z</time></trkpt><trkpt lat="42.4251451" lon="14.1172471"><ele>44.0</ele><time>2026-05-02T07:20:38.387Z</time></trkpt><trkpt lat="42.4251151" lon="14.1168432"><ele>44.0</ele><time>2026-05-02T07:20:40.393Z</time></trkpt><trkpt lat="42.4250843" lon="14.1164188"><ele>44.0</ele><time>2026-05-02T07:20:42.392Z</time></trkpt><trkpt lat="42.4250519" lon="14.1159853"><ele>44.5</ele><time>2026-05-02T07:20:44.399Z</time></trkpt><trkpt lat="42.4250252" lon="14.1155628"><ele>45.0</ele><time>2026-05-02T07:20:46.399Z</time></trkpt><trkpt lat="42.424995" lon="14.1151408"><ele>46.5</ele><time>2026-05-02T07:20:48.4Z</time></trkpt><trkpt lat="42.4249668" lon="14.1147003"><ele>48.0</ele><time>2026-05-02T07:20:50.402Z</time></trkpt><trkpt lat="42.4249359" lon="14.1142579"><ele>49.0</ele><time>2026-05-02T07:20:52.397Z</time></trkpt><trkpt lat="42.4249026" lon="14.1138289"><ele>50.0</ele><time>2026-05-02T07:20:54.412Z</time></trkpt><trkpt lat="42.4248677" lon="14.1134234"><ele>51.0</ele><time>2026-05-02T07:20:56.398Z</time></trkpt><trkpt lat="42.4248459" lon="14.1130452"><ele>52.0</ele><time>2026-05-02T07:20:58.395Z</time></trkpt><trkpt lat="42.4248756" lon="14.1126847"><ele>50.0</ele><time>2026-05-02T07:21:00.378Z</time></trkpt><trkpt lat="42.4249414" lon="14.1123017"><ele>48.0</ele><time>2026-05-02T07:21:02.365Z</time></trkpt><trkpt lat="42.4250148" lon="14.1119464"><ele>48.0</ele><time>2026-05-02T07:21:04.369Z</time></trkpt><trkpt lat="42.4250803" lon="14.1116818"><ele>48.0</ele><time>2026-05-02T07:21:06.384Z</time></trkpt><trkpt lat="42.4251527" lon="14.111508"><ele>48.0</ele><time>2026-05-02T07:21:08.382Z</time></trkpt><trkpt lat="42.4251633" lon="14.1114124"><ele>48.0</ele><time>2026-05-02T07:21:10.37Z</time></trkpt><trkpt lat="42.4250207" lon="14.1114925"><ele>48.0</ele><time>2026-05-02T07:21:14.311Z</time></trkpt><trkpt lat="42.4247926" lon="14.1116774"><ele>48.0</ele><time>2026-05-02T07:21:16.299Z</time></trkpt><trkpt lat="42.4245398" lon="14.1118106"><ele>45.0</ele><time>2026-05-02T07:21:18.299Z</time></trkpt><trkpt lat="42.4242631" lon="14.111878"><ele>42.0</ele><time>2026-05-02T07:21:20.297Z</time></trkpt><trkpt lat="42.4240332" lon="14.1119099"><ele>42.0</ele><time>2026-05-02T07:21:22.298Z</time></trkpt><trkpt lat="42.4238394" lon="14.1120082"><ele>42.0</ele><time>2026-05-02T07:21:24.3Z</time></trkpt><trkpt lat="42.4236211" lon="14.1120046"><ele>42.0</ele><time>2026-05-02T07:21:26.298Z</time></trkpt><trkpt lat="42.4234086" lon="14.1119646"><ele>39.5</ele><time>2026-05-02T07:21:28.291Z</time></trkpt><trkpt lat="42.4232056" lon="14.1120255"><ele>37.0</ele><time>2026-05-02T07:21:30.283Z</time></trkpt><trkpt lat="42.4230171" lon="14.1122344"><ele>40.5</ele><time>2026-05-02T07:21:32.285Z</time></trkpt><trkpt lat="42.4228138" lon="14.1125093"><ele>44.0</ele><time>2026-05-02T07:21:34.29Z</time></trkpt><trkpt lat="42.422581" lon="14.1128062"><ele>44.0</ele><time>2026-05-02T07:21:36.287Z</time></trkpt><trkpt lat="42.4223401" lon="14.1130568"><ele>44.0</ele><time>2026-05-02T07:21:38.293Z</time></trkpt><trkpt lat="42.4221063" lon="14.1132576"><ele>46.5</ele><time>2026-05-02T07:21:40.293Z</time></trkpt><trkpt lat="42.4218991" lon="14.1134352"><ele>49.0</ele><time>2026-05-02T07:21:42.29Z</time></trkpt><trkpt lat="42.4216773" lon="14.1135555"><ele>49.0</ele><time>2026-05-02T07:21:44.287Z</time></trkpt><trkpt lat="42.4214133" lon="14.1136488"><ele>49.0</ele><time>2026-05-02T07:21:46.294Z</time></trkpt><trkpt lat="42.4211523" lon="14.1137847"><ele>51.0</ele><time>2026-05-02T07:21:48.294Z</time></trkpt><trkpt lat="42.420902" lon="14.1139858"><ele>53.0</ele><time>2026-05-02T07:21:50.294Z</time></trkpt><trkpt lat="42.4206732" lon="14.1141414"><ele>58.0</ele><time>2026-05-02T07:21:52.285Z</time></trkpt><trkpt lat="42.4204512" lon="14.1143929"><ele>63.0</ele><time>2026-05-02T07:21:54.287Z</time></trkpt><trkpt lat="42.4202454" lon="14.1147331"><ele>63.0</ele><time>2026-05-02T07:21:56.295Z</time></trkpt><trkpt lat="42.419997" lon="14.1148668"><ele>63.0</ele><time>2026-05-02T07:21:58.288Z</time></trkpt><trkpt lat="42.4197318" lon="14.115012"><ele>71.5</ele><time>2026-05-02T07:22:00.286Z</time></trkpt><trkpt lat="42.4195191" lon="14.1152399"><ele>80.0</ele><time>2026-05-02T07:22:02.293Z</time></trkpt><trkpt lat="42.4193099" lon="14.115484"><ele>80.0</ele><time>2026-05-02T07:22:04.284Z</time></trkpt><trkpt lat="42.4190972" lon="14.1156531"><ele>80.0</ele><time>2026-05-02T07:22:06.286Z</time></trkpt><trkpt lat="42.4190014" lon="14.1157671"><ele>80.0</ele><time>2026-05-02T07:22:08.296Z</time></trkpt><trkpt lat="42.4189342" lon="14.1158738"><ele>81.5</ele><time>2026-05-02T07:22:10.298Z</time></trkpt><trkpt lat="42.4188882" lon="14.1159344"><ele>83.0</ele><time>2026-05-02T07:22:12.301Z</time></trkpt><trkpt lat="42.418809" lon="14.1159485"><ele>84.5</ele><time>2026-05-02T07:22:14.312Z</time></trkpt><trkpt lat="42.418691" lon="14.1158361"><ele>86.0</ele><time>2026-05-02T07:22:16.305Z</time></trkpt><trkpt lat="42.4185174" lon="14.1156584"><ele>92.0</ele><time>2026-05-02T07:22:18.301Z</time></trkpt><trkpt lat="42.4182754" lon="14.115504"><ele>98.0</ele><time>2026-05-02T07:22:20.297Z</time></trkpt><trkpt lat="42.4180338" lon="14.1153612"><ele>100.66666666666666</ele><time>2026-05-02T07:22:22.301Z</time></trkpt><trkpt lat="42.4178821" lon="14.1153028"><ele>103.33333333333334</ele><time>2026-05-02T07:22:24.302Z</time></trkpt><trkpt lat="42.4177157" lon="14.1152625"><ele>106.0</ele><time>2026-05-02T07:22:26.293Z</time></trkpt><trkpt lat="42.417592" lon="14.1152207"><ele>106.0</ele><time>2026-05-02T07:22:28.301Z</time></trkpt><trkpt lat="42.4175068" lon="14.1151816"><ele>106.0</ele><time>2026-05-02T07:22:30.294Z</time></trkpt><trkpt lat="42.4173932" lon="14.1151584"><ele>106.0</ele><time>2026-05-02T07:22:32.307Z</time></trkpt><trkpt lat="42.417188" lon="14.1151576"><ele>106.0</ele><time>2026-05-02T07:22:34.293Z</time></trkpt><trkpt lat="42.4169284" lon="14.1151418"><ele>108.5</ele><time>2026-05-02T07:22:36.298Z</time></trkpt><trkpt lat="42.4166884" lon="14.1151691"><ele>111.0</ele><time>2026-05-02T07:22:38.304Z</time></trkpt><trkpt lat="42.4164486" lon="14.1152269"><ele>113.5</ele><time>2026-05-02T07:22:40.305Z</time></trkpt><trkpt lat="42.4162114" lon="14.1152615"><ele>116.0</ele><time>2026-05-02T07:22:42.303Z</time></trkpt><trkpt lat="42.415949" lon="14.1152629"><ele>116.0</ele><time>2026-05-02T07:22:44.301Z</time></trkpt><trkpt lat="42.4157203" lon="14.1152628"><ele>116.0</ele><time>2026-05-02T07:22:46.293Z</time></trkpt><trkpt lat="42.415558" lon="14.1152985"><ele>116.0</ele><time>2026-05-02T07:22:48.298Z</time></trkpt><trkpt lat="42.4154486" lon="14.1153341"><ele>116.25</ele><time>2026-05-02T07:22:50.3Z</time></trkpt><trkpt lat="42.4153874" lon="14.1153581"><ele>116.5</ele><time>2026-05-02T07:22:52.3Z</time></trkpt><trkpt lat="42.4153012" lon="14.1154207"><ele>116.75</ele><time>2026-05-02T07:22:56.316Z</time></trkpt><trkpt lat="42.4152157" lon="14.1155006"><ele>117.0</ele><time>2026-05-02T07:22:58.336Z</time></trkpt><trkpt lat="42.4150716" lon="14.1157025"><ele>116.5</ele><time>2026-05-02T07:23:00.306Z</time></trkpt><trkpt lat="42.4148981" lon="14.1159327"><ele>116.0</ele><time>2026-05-02T07:23:02.326Z</time></trkpt><trkpt lat="42.4146977" lon="14.1161447"><ele>113.5</ele><time>2026-05-02T07:23:04.388Z</time></trkpt><trkpt lat="42.4144565" lon="14.1163673"><ele>111.0</ele><time>2026-05-02T07:23:06.396Z</time></trkpt><trkpt lat="42.4142066" lon="14.116559"><ele>110.5</ele><time>2026-05-02T07:23:08.395Z</time></trkpt><trkpt lat="42.4139607" lon="14.116703"><ele>110.0</ele><time>2026-05-02T07:23:10.397Z</time></trkpt><trkpt lat="42.4137564" lon="14.1168503"><ele>109.5</ele><time>2026-05-02T07:23:12.395Z</time></trkpt><trkpt lat="42.4135722" lon="14.1171032"><ele>109.0</ele><time>2026-05-02T07:23:14.382Z</time></trkpt><trkpt lat="42.4133933" lon="14.1174234"><ele>109.0</ele><time>2026-05-02T07:23:16.377Z</time></trkpt><trkpt lat="42.4132308" lon="14.117706"><ele>109.0</ele><time>2026-05-02T07:23:18.382Z</time></trkpt><trkpt lat="42.4130847" lon="14.1179833"><ele>108.0</ele><time>2026-05-02T07:23:20.399Z</time></trkpt><trkpt lat="42.4129204" lon="14.1182474"><ele>107.0</ele><time>2026-05-02T07:23:22.407Z</time></trkpt><trkpt lat="42.4127108" lon="14.1185143"><ele>107.0</ele><time>2026-05-02T07:23:24.403Z</time></trkpt><trkpt lat="42.412453" lon="14.1187376"><ele>107.0</ele><time>2026-05-02T07:23:26.383Z</time></trkpt><trkpt lat="42.4122036" lon="14.1189087"><ele>104.5</ele><time>2026-05-02T07:23:28.386Z</time></trkpt><trkpt lat="42.4119513" lon="14.1190809"><ele>102.0</ele><time>2026-05-02T07:23:30.406Z</time></trkpt><trkpt lat="42.4117068" lon="14.1192414"><ele>102.0</ele><time>2026-05-02T07:23:32.389Z</time></trkpt><trkpt lat="42.4115251" lon="14.1193444"><ele>102.0</ele><time>2026-05-02T07:23:34.398Z</time></trkpt><trkpt lat="42.4113765" lon="14.1194318"><ele>102.0</ele><time>2026-05-02T07:23:36.394Z</time></trkpt><trkpt lat="42.411239" lon="14.1195143"><ele>102.33333333333334</ele><time>2026-05-02T07:23:38.395Z</time></trkpt><trkpt lat="42.4110758" lon="14.1196409"><ele>102.66666666666667</ele><time>2026-05-02T07:23:40.395Z</time></trkpt><trkpt lat="42.4109298" lon="14.1197793"><ele>103.0</ele><time>2026-05-02T07:23:42.388Z</time></trkpt><trkpt lat="42.4108323" lon="14.1198702"><ele>102.0</ele><time>2026-05-02T07:23:44.39Z</time></trkpt><trkpt lat="42.41073" lon="14.1199572"><ele>101.0</ele><time>2026-05-02T07:23:48.406Z</time></trkpt><trkpt lat="42.4106715" lon="14.1199936"><ele>100.0</ele><time>2026-05-02T07:23:50.406Z</time></trkpt><trkpt lat="42.4105526" lon="14.1199764"><ele>99.0</ele><time>2026-05-02T07:23:54.405Z</time></trkpt><trkpt lat="42.4104761" lon="14.1199201"><ele>98.0</ele><time>2026-05-02T07:23:56.412Z</time></trkpt><trkpt lat="42.4103935" lon="14.1198386"><ele>97.2</ele><time>2026-05-02T07:23:58.384Z</time></trkpt><trkpt lat="42.4103215" lon="14.1197236"><ele>96.4</ele><time>2026-05-02T07:24:00.378Z</time></trkpt><trkpt lat="42.4102807" lon="14.1195981"><ele>95.60000000000001</ele><time>2026-05-02T07:24:02.391Z</time></trkpt><trkpt lat="42.4102488" lon="14.11952"><ele>94.80000000000001</ele><time>2026-05-02T07:24:04.376Z</time></trkpt><trkpt lat="42.4101858" lon="14.1194069"><ele>94.0</ele><time>2026-05-02T07:24:06.382Z</time></trkpt><trkpt lat="42.4100918" lon="14.1192794"><ele>94.0</ele><time>2026-05-02T07:24:08.393Z</time></trkpt><trkpt lat="42.4100182" lon="14.1192029"><ele>94.0</ele><time>2026-05-02T07:24:10.388Z</time></trkpt><trkpt lat="42.4099277" lon="14.1191052"><ele>94.0</ele><time>2026-05-02T07:24:12.378Z</time></trkpt><trkpt lat="42.4097955" lon="14.1190007"><ele>94.0</ele><time>2026-05-02T07:24:14.378Z</time></trkpt><trkpt lat="42.4096981" lon="14.1189384"><ele>91.5</ele><time>2026-05-02T07:24:16.39Z</time></trkpt><trkpt lat="42.4095913" lon="14.1188413"><ele>89.0</ele><time>2026-05-02T07:24:18.386Z</time></trkpt><trkpt lat="42.4094912" lon="14.1187805"><ele>86.5</ele><time>2026-05-02T07:24:20.372Z</time></trkpt><trkpt lat="42.4093819" lon="14.1187194"><ele>84.0</ele><time>2026-05-02T07:24:22.375Z</time></trkpt><trkpt lat="42.4092606" lon="14.1186226"><ele>84.0</ele><time>2026-05-02T07:24:24.393Z</time></trkpt><trkpt lat="42.4091537" lon="14.1185231"><ele>84.0</ele><time>2026-05-02T07:24:26.389Z</time></trkpt><trkpt lat="42.4090643" lon="14.118433"><ele>84.0</ele><time>2026-05-02T07:24:28.372Z</time></trkpt><trkpt lat="42.4089837" lon="14.1183163"><ele>84.0</ele><time>2026-05-02T07:24:30.382Z</time></trkpt><trkpt lat="42.4089187" lon="14.118153"><ele>81.66666666666667</ele><time>2026-05-02T07:24:32.384Z</time></trkpt><trkpt lat="42.408851" lon="14.1179864"><ele>79.33333333333334</ele><time>2026-05-02T07:24:34.38Z</time></trkpt><trkpt lat="42.4087818" lon="14.1177944"><ele>77.0</ele><time>2026-05-02T07:24:36.369Z</time></trkpt><trkpt lat="42.4087091" lon="14.1176138"><ele>76.66666666666667</ele><time>2026-05-02T07:24:38.37Z</time></trkpt><trkpt lat="42.4086607" lon="14.1174962"><ele>76.33333333333333</ele><time>2026-05-02T07:24:40.39Z</time></trkpt><trkpt lat="42.4085849" lon="14.1173497"><ele>76.0</ele><time>2026-05-02T07:24:44.4Z</time></trkpt><trkpt lat="42.4084085" lon="14.1171526"><ele>77.66666666666666</ele><time>2026-05-02T07:24:48.375Z</time></trkpt><trkpt lat="42.408258" lon="14.1169432"><ele>79.33333333333333</ele><time>2026-05-02T07:24:50.386Z</time></trkpt><trkpt lat="42.4080981" lon="14.1167638"><ele>81.0</ele><time>2026-05-02T07:24:52.299Z</time></trkpt><trkpt lat="42.4079289" lon="14.1166614"><ele>84.66666666666667</ele><time>2026-05-02T07:24:54.298Z</time></trkpt><trkpt lat="42.407761" lon="14.1165852"><ele>88.33333333333334</ele><time>2026-05-02T07:24:56.295Z</time></trkpt><trkpt lat="42.4075847" lon="14.1165042"><ele>92.0</ele><time>2026-05-02T07:24:58.302Z</time></trkpt><trkpt lat="42.4074131" lon="14.1164567"><ele>93.0</ele><time>2026-05-02T07:25:00.301Z</time></trkpt><trkpt lat="42.4072361" lon="14.1164007"><ele>94.0</ele><time>2026-05-02T07:25:02.296Z</time></trkpt><trkpt lat="42.4070741" lon="14.1163597"><ele>95.0</ele><time>2026-05-02T07:25:04.302Z</time></trkpt><trkpt lat="42.4069246" lon="14.1162876"><ele>99.0</ele><time>2026-05-02T07:25:06.303Z</time></trkpt><trkpt lat="42.4067534" lon="14.1161321"><ele>103.0</ele><time>2026-05-02T07:25:08.311Z</time></trkpt><trkpt lat="42.4065421" lon="14.1159563"><ele>103.0</ele><time>2026-05-02T07:25:10.309Z</time></trkpt><trkpt lat="42.4063435" lon="14.115809"><ele>103.0</ele><time>2026-05-02T07:25:12.308Z</time></trkpt><trkpt lat="42.406164" lon="14.1156897"><ele>103.0</ele><time>2026-05-02T07:25:14.311Z</time></trkpt><trkpt lat="42.4059874" lon="14.1155743"><ele>102.75</ele><time>2026-05-02T07:25:16.312Z</time></trkpt><trkpt lat="42.4058457" lon="14.1154657"><ele>102.5</ele><time>2026-05-02T07:25:18.301Z</time></trkpt><trkpt lat="42.4057443" lon="14.1154249"><ele>102.25</ele><time>2026-05-02T07:25:20.302Z</time></trkpt><trkpt lat="42.4055938" lon="14.1154617"><ele>102.0</ele><time>2026-05-02T07:25:22.308Z</time></trkpt><trkpt lat="42.4054718" lon="14.1155529"><ele>102.0</ele><time>2026-05-02T07:25:24.302Z</time></trkpt><trkpt lat="42.4053971" lon="14.1157376"><ele>102.0</ele><time>2026-05-02T07:25:26.307Z</time></trkpt><trkpt lat="42.4053254" lon="14.1159412"><ele>102.0</ele><time>2026-05-02T07:25:28.31Z</time></trkpt><trkpt lat="42.4051974" lon="14.1161587"><ele>102.0</ele><time>2026-05-02T07:25:30.289Z</time></trkpt><trkpt lat="42.4049978" lon="14.1164083"><ele>102.0</ele><time>2026-05-02T07:25:32.298Z</time></trkpt><trkpt lat="42.4048084" lon="14.116643"><ele>96.0</ele><time>2026-05-02T07:25:34.305Z</time></trkpt><trkpt lat="42.404614" lon="14.1168636"><ele>90.0</ele><time>2026-05-02T07:25:36.295Z</time></trkpt><trkpt lat="42.4044108" lon="14.1170908"><ele>90.0</ele><time>2026-05-02T07:25:38.302Z</time></trkpt><trkpt lat="42.4042304" lon="14.1173111"><ele>90.0</ele><time>2026-05-02T07:25:40.306Z</time></trkpt><trkpt lat="42.4040386" lon="14.1175505"><ele>87.5</ele><time>2026-05-02T07:25:42.307Z</time></trkpt><trkpt lat="42.4038551" lon="14.1177847"><ele>85.0</ele><time>2026-05-02T07:25:44.305Z</time></trkpt><trkpt lat="42.4036552" lon="14.1180284"><ele>82.5</ele><time>2026-05-02T07:25:46.304Z</time></trkpt><trkpt lat="42.4034541" lon="14.1182571"><ele>80.0</ele><time>2026-05-02T07:25:48.31Z</time></trkpt><trkpt lat="42.4032652" lon="14.1184898"><ele>80.0</ele><time>2026-05-02T07:25:50.309Z</time></trkpt><trkpt lat="42.4030745" lon="14.1187151"><ele>80.0</ele><time>2026-05-02T07:25:52.306Z</time></trkpt><trkpt lat="42.4029103" lon="14.1189417"><ele>77.5</ele><time>2026-05-02T07:25:54.307Z</time></trkpt><trkpt lat="42.4027339" lon="14.1191768"><ele>75.0</ele><time>2026-05-02T07:25:56.309Z</time></trkpt><trkpt lat="42.4025279" lon="14.1194212"><ele>75.0</ele><time>2026-05-02T07:25:58.308Z</time></trkpt><trkpt lat="42.4023314" lon="14.1196289"><ele>75.0</ele><time>2026-05-02T07:26:00.3Z</time></trkpt><trkpt lat="42.4021057" lon="14.1198137"><ele>71.0</ele><time>2026-05-02T07:26:02.3Z</time></trkpt><trkpt lat="42.4018845" lon="14.1199935"><ele>67.0</ele><time>2026-05-02T07:26:04.289Z</time></trkpt><trkpt lat="42.401647" lon="14.1202228"><ele>67.0</ele><time>2026-05-02T07:26:06.296Z</time></trkpt><trkpt lat="42.4014123" lon="14.1204384"><ele>67.0</ele><time>2026-05-02T07:26:08.298Z</time></trkpt><trkpt lat="42.4012379" lon="14.1205705"><ele>66.33333333333333</ele><time>2026-05-02T07:26:10.3Z</time></trkpt><trkpt lat="42.4011146" lon="14.1206859"><ele>65.66666666666667</ele><time>2026-05-02T07:26:12.302Z</time></trkpt><trkpt lat="42.4009655" lon="14.1208118"><ele>65.0</ele><time>2026-05-02T07:26:14.296Z</time></trkpt><trkpt lat="42.4007946" lon="14.1209868"><ele>64.5</ele><time>2026-05-02T07:26:16.296Z</time></trkpt><trkpt lat="42.4005953" lon="14.1211995"><ele>64.0</ele><time>2026-05-02T07:26:18.298Z</time></trkpt><trkpt lat="42.4004007" lon="14.1213774"><ele>62.5</ele><time>2026-05-02T07:26:20.302Z</time></trkpt><trkpt lat="42.4001823" lon="14.1215633"><ele>61.0</ele><time>2026-05-02T07:26:22.301Z</time></trkpt><trkpt lat="42.4000131" lon="14.121806"><ele>61.0</ele><time>2026-05-02T07:26:24.295Z</time></trkpt><trkpt lat="42.3998794" lon="14.1221713"><ele>61.0</ele><time>2026-05-02T07:26:26.297Z</time></trkpt><trkpt lat="42.3997527" lon="14.1225214"><ele>61.0</ele><time>2026-05-02T07:26:28.291Z</time></trkpt><trkpt lat="42.3997099" lon="14.1227809"><ele>61.0</ele><time>2026-05-02T07:26:30.296Z</time></trkpt><trkpt lat="42.3997331" lon="14.1230884"><ele>61.0</ele><time>2026-05-02T07:26:32.294Z</time></trkpt><trkpt lat="42.3997642" lon="14.1233727"><ele>61.0</ele><time>2026-05-02T07:26:34.312Z</time></trkpt><trkpt lat="42.3996917" lon="14.1237134"><ele>61.0</ele><time>2026-05-02T07:26:36.299Z</time></trkpt><trkpt lat="42.3995046" lon="14.1240629"><ele>56.5</ele><time>2026-05-02T07:26:38.289Z</time></trkpt><trkpt lat="42.3993688" lon="14.1243941"><ele>52.0</ele><time>2026-05-02T07:26:40.289Z</time></trkpt><trkpt lat="42.3991768" lon="14.12473"><ele>51.5</ele><time>2026-05-02T07:26:42.287Z</time></trkpt><trkpt lat="42.3989904" lon="14.1250309"><ele>51.0</ele><time>2026-05-02T07:26:44.286Z</time></trkpt><trkpt lat="42.3988209" lon="14.1252763"><ele>48.0</ele><time>2026-05-02T07:26:46.296Z</time></trkpt><trkpt lat="42.3985912" lon="14.1253641"><ele>45.0</ele><time>2026-05-02T07:26:48.292Z</time></trkpt><trkpt lat="42.398325" lon="14.1253363"><ele>45.0</ele><time>2026-05-02T07:26:50.29Z</time></trkpt><trkpt lat="42.398048" lon="14.1252532"><ele>45.0</ele><time>2026-05-02T07:26:52.292Z</time></trkpt><trkpt lat="42.3978324" lon="14.1253181"><ele>45.5</ele><time>2026-05-02T07:26:54.291Z</time></trkpt><trkpt lat="42.3976936" lon="14.1255354"><ele>46.0</ele><time>2026-05-02T07:26:56.292Z</time></trkpt><trkpt lat="42.397598" lon="14.1258324"><ele>48.0</ele><time>2026-05-02T07:26:58.294Z</time></trkpt><trkpt lat="42.3974451" lon="14.1260505"><ele>50.0</ele><time>2026-05-02T07:27:00.292Z</time></trkpt><trkpt lat="42.3972378" lon="14.1261946"><ele>52.0</ele><time>2026-05-02T07:27:02.305Z</time></trkpt><trkpt lat="42.3969525" lon="14.1262957"><ele>54.0</ele><time>2026-05-02T07:27:04.302Z</time></trkpt><trkpt lat="42.3966503" lon="14.1264031"><ele>54.0</ele><time>2026-05-02T07:27:06.301Z</time></trkpt><trkpt lat="42.3963693" lon="14.1265259"><ele>54.0</ele><time>2026-05-02T07:27:08.298Z</time></trkpt><trkpt lat="42.3960666" lon="14.1265801"><ele>54.0</ele><time>2026-05-02T07:27:10.295Z</time></trkpt><trkpt lat="42.3957496" lon="14.1266432"><ele>54.0</ele><time>2026-05-02T07:27:12.306Z</time></trkpt><trkpt lat="42.3954468" lon="14.1267129"><ele>54.0</ele><time>2026-05-02T07:27:14.306Z</time></trkpt><trkpt lat="42.3951461" lon="14.1267724"><ele>54.0</ele><time>2026-05-02T07:27:16.302Z</time></trkpt><trkpt lat="42.3948618" lon="14.1268301"><ele>55.5</ele><time>2026-05-02T07:27:18.299Z</time></trkpt><trkpt lat="42.3945505" lon="14.1268907"><ele>57.0</ele><time>2026-05-02T07:27:20.309Z</time></trkpt><trkpt lat="42.3942461" lon="14.1269502"><ele>57.0</ele><time>2026-05-02T07:27:22.311Z</time></trkpt><trkpt lat="42.3939492" lon="14.1270196"><ele>57.0</ele><time>2026-05-02T07:27:24.31Z</time></trkpt><trkpt lat="42.3936422" lon="14.1271379"><ele>56.0</ele><time>2026-05-02T07:27:26.308Z</time></trkpt><trkpt lat="42.3933638" lon="14.1273633"><ele>55.0</ele><time>2026-05-02T07:27:28.311Z</time></trkpt><trkpt lat="42.3931146" lon="14.1276555"><ele>54.5</ele><time>2026-05-02T07:27:30.313Z</time></trkpt><trkpt lat="42.3928671" lon="14.127937"><ele>54.0</ele><time>2026-05-02T07:27:32.312Z</time></trkpt><trkpt lat="42.392624" lon="14.128241"><ele>54.0</ele><time>2026-05-02T07:27:34.307Z</time></trkpt><trkpt lat="42.392416" lon="14.1285424"><ele>54.0</ele><time>2026-05-02T07:27:36.329Z</time></trkpt><trkpt lat="42.3922126" lon="14.1288575"><ele>54.5</ele><time>2026-05-02T07:27:38.309Z</time></trkpt><trkpt lat="42.3920243" lon="14.1291576"><ele>55.0</ele><time>2026-05-02T07:27:40.303Z</time></trkpt><trkpt lat="42.3918572" lon="14.1294157"><ele>55.0</ele><time>2026-05-02T07:27:42.298Z</time></trkpt><trkpt lat="42.3916609" lon="14.1295494"><ele>55.0</ele><time>2026-05-02T07:27:44.304Z</time></trkpt><trkpt lat="42.3914279" lon="14.1295234"><ele>48.5</ele><time>2026-05-02T07:27:46.293Z</time></trkpt><trkpt lat="42.3912076" lon="14.129405"><ele>42.0</ele><time>2026-05-02T07:27:48.295Z</time></trkpt><trkpt lat="42.3909642" lon="14.1293429"><ele>42.0</ele><time>2026-05-02T07:27:50.298Z</time></trkpt><trkpt lat="42.390639" lon="14.1294409"><ele>42.0</ele><time>2026-05-02T07:27:52.289Z</time></trkpt><trkpt lat="42.3903489" lon="14.1295964"><ele>36.0</ele><time>2026-05-02T07:27:54.291Z</time></trkpt><trkpt lat="42.3900905" lon="14.1297081"><ele>30.0</ele><time>2026-05-02T07:27:56.307Z</time></trkpt><trkpt lat="42.3898786" lon="14.1297903"><ele>30.0</ele><time>2026-05-02T07:27:58.306Z</time></trkpt><trkpt lat="42.3897316" lon="14.129857"><ele>30.0</ele><time>2026-05-02T07:28:00.311Z</time></trkpt><trkpt lat="42.3896155" lon="14.1298803"><ele>30.0</ele><time>2026-05-02T07:28:02.303Z</time></trkpt><trkpt lat="42.3895488" lon="14.1299026"><ele>30.0</ele><time>2026-05-02T07:28:04.306Z</time></trkpt><trkpt lat="42.3894694" lon="14.1299569"><ele>30.0</ele><time>2026-05-02T07:28:06.31Z</time></trkpt><trkpt lat="42.3893083" lon="14.1300805"><ele>30.0</ele><time>2026-05-02T07:28:08.297Z</time></trkpt><trkpt lat="42.389105" lon="14.1302754"><ele>30.0</ele><time>2026-05-02T07:28:10.302Z</time></trkpt><trkpt lat="42.388924" lon="14.1303953"><ele>30.0</ele><time>2026-05-02T07:28:12.296Z</time></trkpt><trkpt lat="42.3887596" lon="14.1305189"><ele>30.0</ele><time>2026-05-02T07:28:14.296Z</time></trkpt><trkpt lat="42.3886566" lon="14.1306093"><ele>30.0</ele><time>2026-05-02T07:28:16.305Z</time></trkpt><trkpt lat="42.3885717" lon="14.1306589"><ele>30.0</ele><time>2026-05-02T07:28:20.317Z</time></trkpt><trkpt lat="42.3884719" lon="14.1306616"><ele>30.0</ele><time>2026-05-02T07:28:22.313Z</time></trkpt><trkpt lat="42.3883499" lon="14.1305687"><ele>30.0</ele><time>2026-05-02T07:28:24.309Z</time></trkpt><trkpt lat="42.3882107" lon="14.1304817"><ele>30.0</ele><time>2026-05-02T07:28:26.305Z</time></trkpt><trkpt lat="42.3880873" lon="14.1303466"><ele>30.666666666666664</ele><time>2026-05-02T07:28:28.309Z</time></trkpt><trkpt lat="42.3880082" lon="14.1301548"><ele>31.333333333333332</ele><time>2026-05-02T07:28:30.308Z</time></trkpt><trkpt lat="42.3879741" lon="14.1298902"><ele>32.0</ele><time>2026-05-02T07:28:32.383Z</time></trkpt><trkpt lat="42.3879476" lon="14.1296543"><ele>32.800000000000004</ele><time>2026-05-02T07:28:34.375Z</time></trkpt><trkpt lat="42.3879443" lon="14.1294643"><ele>33.6</ele><time>2026-05-02T07:28:36.38Z</time></trkpt><trkpt lat="42.3879465" lon="14.1293617"><ele>34.400000000000006</ele><time>2026-05-02T07:28:38.377Z</time></trkpt><trkpt lat="42.3879359" lon="14.1292026"><ele>35.2</ele><time>2026-05-02T07:28:42.395Z</time></trkpt><trkpt lat="42.3878718" lon="14.1291811"><ele>36.0</ele><time>2026-05-02T07:28:46.309Z</time></trkpt><trkpt lat="42.3877688" lon="14.1292143"><ele>36.0</ele><time>2026-05-02T07:28:54.302Z</time></trkpt><trkpt lat="42.3876414" lon="14.1292721"><ele>36.0</ele><time>2026-05-02T07:28:56.302Z</time></trkpt><trkpt lat="42.3874655" lon="14.1293269"><ele>36.0</ele><time>2026-05-02T07:28:58.297Z</time></trkpt><trkpt lat="42.3873169" lon="14.1293589"><ele>35.4</ele><time>2026-05-02T07:29:00.297Z</time></trkpt><trkpt lat="42.3871592" lon="14.1294014"><ele>34.8</ele><time>2026-05-02T07:29:02.301Z</time></trkpt><trkpt lat="42.3870398" lon="14.1294344"><ele>34.199999999999996</ele><time>2026-05-02T07:29:04.291Z</time></trkpt><trkpt lat="42.3869543" lon="14.1294413"><ele>33.6</ele><time>2026-05-02T07:29:24.306Z</time></trkpt><trkpt lat="42.3868914" lon="14.1293982"><ele>33.0</ele><time>2026-05-02T07:29:26.294Z</time></trkpt><trkpt lat="42.3867879" lon="14.1292691"><ele>34.333333333333336</ele><time>2026-05-02T07:29:28.293Z</time></trkpt><trkpt lat="42.386655" lon="14.1290465"><ele>35.66666666666667</ele><time>2026-05-02T07:29:30.291Z</time></trkpt><trkpt lat="42.3865327" lon="14.1288207"><ele>37.0</ele><time>2026-05-02T07:29:32.286Z</time></trkpt><trkpt lat="42.3863927" lon="14.1285777"><ele>36.5</ele><time>2026-05-02T07:29:34.289Z</time></trkpt><trkpt lat="42.3862141" lon="14.1283619"><ele>36.0</ele><time>2026-05-02T07:29:36.293Z</time></trkpt><trkpt lat="42.3860095" lon="14.1281731"><ele>36.0</ele><time>2026-05-02T07:29:38.292Z</time></trkpt><trkpt lat="42.3857921" lon="14.1279843"><ele>36.0</ele><time>2026-05-02T07:29:40.291Z</time></trkpt><trkpt lat="42.3855513" lon="14.1277406"><ele>36.0</ele><time>2026-05-02T07:29:42.283Z</time></trkpt><trkpt lat="42.3853051" lon="14.1274149"><ele>36.0</ele><time>2026-05-02T07:29:44.286Z</time></trkpt><trkpt lat="42.3850463" lon="14.1271861"><ele>39.0</ele><time>2026-05-02T07:29:46.281Z</time></trkpt><trkpt lat="42.3847584" lon="14.1270421"><ele>42.0</ele><time>2026-05-02T07:29:48.278Z</time></trkpt><trkpt lat="42.3844465" lon="14.12694"><ele>42.0</ele><time>2026-05-02T07:29:50.289Z</time></trkpt><trkpt lat="42.384133" lon="14.1267919"><ele>42.0</ele><time>2026-05-02T07:29:52.291Z</time></trkpt><trkpt lat="42.3838306" lon="14.126649"><ele>47.5</ele><time>2026-05-02T07:29:54.298Z</time></trkpt><trkpt lat="42.3835809" lon="14.1264777"><ele>53.0</ele><time>2026-05-02T07:29:56.29Z</time></trkpt><trkpt lat="42.3833535" lon="14.1263832"><ele>53.0</ele><time>2026-05-02T07:29:58.292Z</time></trkpt><trkpt lat="42.383139" lon="14.1263734"><ele>53.0</ele><time>2026-05-02T07:30:00.287Z</time></trkpt><trkpt lat="42.3829383" lon="14.1263875"><ele>53.0</ele><time>2026-05-02T07:30:02.289Z</time></trkpt><trkpt lat="42.3827774" lon="14.1263576"><ele>53.0</ele><time>2026-05-02T07:30:04.289Z</time></trkpt><trkpt lat="42.3826372" lon="14.1263"><ele>53.0</ele><time>2026-05-02T07:30:06.297Z</time></trkpt><trkpt lat="42.3824787" lon="14.126233"><ele>53.0</ele><time>2026-05-02T07:30:08.296Z</time></trkpt><trkpt lat="42.3822878" lon="14.1260632"><ele>53.0</ele><time>2026-05-02T07:30:10.302Z</time></trkpt><trkpt lat="42.3820362" lon="14.1258416"><ele>53.0</ele><time>2026-05-02T07:30:12.292Z</time></trkpt><trkpt lat="42.3817185" lon="14.1255721"><ele>53.0</ele><time>2026-05-02T07:30:14.285Z</time></trkpt><trkpt lat="42.3813773" lon="14.1253279"><ele>53.0</ele><time>2026-05-02T07:30:16.291Z</time></trkpt><trkpt lat="42.3810865" lon="14.1251273"><ele>50.5</ele><time>2026-05-02T07:30:18.293Z</time></trkpt><trkpt lat="42.3808487" lon="14.1249368"><ele>48.0</ele><time>2026-05-02T07:30:20.298Z</time></trkpt><trkpt lat="42.3805861" lon="14.1247323"><ele>50.0</ele><time>2026-05-02T07:30:22.298Z</time></trkpt><trkpt lat="42.3803457" lon="14.1245411"><ele>52.0</ele><time>2026-05-02T07:30:24.299Z</time></trkpt><trkpt lat="42.3801258" lon="14.1243819"><ele>52.0</ele><time>2026-05-02T07:30:26.321Z</time></trkpt><trkpt lat="42.3799204" lon="14.1242342"><ele>52.0</ele><time>2026-05-02T07:30:28.385Z</time></trkpt><trkpt lat="42.3798073" lon="14.1240253"><ele>52.0</ele><time>2026-05-02T07:30:30.287Z</time></trkpt><trkpt lat="42.3797708" lon="14.1238154"><ele>54.33333333333333</ele><time>2026-05-02T07:30:32.29Z</time></trkpt><trkpt lat="42.3796256" lon="14.1237109"><ele>56.66666666666667</ele><time>2026-05-02T07:30:34.297Z</time></trkpt><trkpt lat="42.3794103" lon="14.1237209"><ele>59.0</ele><time>2026-05-02T07:30:36.284Z</time></trkpt><trkpt lat="42.3791392" lon="14.1236558"><ele>57.0</ele><time>2026-05-02T07:30:38.299Z</time></trkpt><trkpt lat="42.3788371" lon="14.1236064"><ele>55.0</ele><time>2026-05-02T07:30:40.287Z</time></trkpt><trkpt lat="42.3785112" lon="14.1235446"><ele>55.0</ele><time>2026-05-02T07:30:42.293Z</time></trkpt><trkpt lat="42.3781717" lon="14.1234993"><ele>55.0</ele><time>2026-05-02T07:30:44.295Z</time></trkpt><trkpt lat="42.3778741" lon="14.1234372"><ele>50.5</ele><time>2026-05-02T07:30:46.293Z</time></trkpt><trkpt lat="42.377601" lon="14.1233911"><ele>46.0</ele><time>2026-05-02T07:30:48.289Z</time></trkpt><trkpt lat="42.3773772" lon="14.1233523"><ele>45.333333333333336</ele><time>2026-05-02T07:30:50.284Z</time></trkpt><trkpt lat="42.3771784" lon="14.1234382"><ele>44.666666666666664</ele><time>2026-05-02T07:30:52.295Z</time></trkpt><trkpt lat="42.3770401" lon="14.1236938"><ele>44.0</ele><time>2026-05-02T07:30:54.299Z</time></trkpt><trkpt lat="42.3769116" lon="14.1239352"><ele>42.0</ele><time>2026-05-02T07:30:56.292Z</time></trkpt><trkpt lat="42.3767497" lon="14.1241171"><ele>40.0</ele><time>2026-05-02T07:30:58.294Z</time></trkpt><trkpt lat="42.3765784" lon="14.1242075"><ele>38.0</ele><time>2026-05-02T07:31:00.302Z</time></trkpt><trkpt lat="42.3763458" lon="14.124184"><ele>40.5</ele><time>2026-05-02T07:31:02.287Z</time></trkpt><trkpt lat="42.3760754" lon="14.1240411"><ele>43.0</ele><time>2026-05-02T07:31:04.285Z</time></trkpt><trkpt lat="42.3757794" lon="14.1239181"><ele>41.0</ele><time>2026-05-02T07:31:06.29Z</time></trkpt><trkpt lat="42.3754835" lon="14.1237693"><ele>39.0</ele><time>2026-05-02T07:31:08.292Z</time></trkpt><trkpt lat="42.3752321" lon="14.1235622"><ele>39.0</ele><time>2026-05-02T07:31:10.295Z</time></trkpt><trkpt lat="42.3749921" lon="14.1233605"><ele>39.0</ele><time>2026-05-02T07:31:12.306Z</time></trkpt><trkpt lat="42.3747328" lon="14.1231617"><ele>40.0</ele><time>2026-05-02T07:31:14.295Z</time></trkpt><trkpt lat="42.3745102" lon="14.1229782"><ele>41.0</ele><time>2026-05-02T07:31:16.294Z</time></trkpt><trkpt lat="42.3743221" lon="14.1228017"><ele>41.0</ele><time>2026-05-02T07:31:18.293Z</time></trkpt><trkpt lat="42.3741581" lon="14.1226031"><ele>41.0</ele><time>2026-05-02T07:31:20.299Z</time></trkpt><trkpt lat="42.3739909" lon="14.1225086"><ele>41.0</ele><time>2026-05-02T07:31:22.291Z</time></trkpt><trkpt lat="42.3738685" lon="14.1224525"><ele>41.0</ele><time>2026-05-02T07:31:24.298Z</time></trkpt><trkpt lat="42.3737717" lon="14.122376"><ele>41.0</ele><time>2026-05-02T07:31:26.294Z</time></trkpt><trkpt lat="42.3736438" lon="14.1222829"><ele>41.0</ele><time>2026-05-02T07:31:28.296Z</time></trkpt><trkpt lat="42.3734877" lon="14.1221598"><ele>41.0</ele><time>2026-05-02T07:31:30.298Z</time></trkpt><trkpt lat="42.3733145" lon="14.1220425"><ele>41.0</ele><time>2026-05-02T07:31:32.298Z</time></trkpt><trkpt lat="42.3731368" lon="14.1219004"><ele>41.0</ele><time>2026-05-02T07:31:34.295Z</time></trkpt><trkpt lat="42.3729305" lon="14.1217351"><ele>41.0</ele><time>2026-05-02T07:31:36.295Z</time></trkpt><trkpt lat="42.3726939" lon="14.1215498"><ele>42.0</ele><time>2026-05-02T07:31:38.299Z</time></trkpt><trkpt lat="42.3724371" lon="14.1213474"><ele>43.0</ele><time>2026-05-02T07:31:40.3Z</time></trkpt><trkpt lat="42.3721741" lon="14.1211388"><ele>38.0</ele><time>2026-05-02T07:31:42.297Z</time></trkpt><trkpt lat="42.3718857" lon="14.1209688"><ele>33.0</ele><time>2026-05-02T07:31:44.291Z</time></trkpt><trkpt lat="42.3716012" lon="14.1208462"><ele>31.5</ele><time>2026-05-02T07:31:46.292Z</time></trkpt><trkpt lat="42.3713097" lon="14.1207456"><ele>30.0</ele><time>2026-05-02T07:31:48.293Z</time></trkpt><trkpt lat="42.371018" lon="14.1206083"><ele>33.5</ele><time>2026-05-02T07:31:50.297Z</time></trkpt><trkpt lat="42.3707124" lon="14.1205068"><ele>37.0</ele><time>2026-05-02T07:31:52.29Z</time></trkpt><trkpt lat="42.3704049" lon="14.1204577"><ele>37.0</ele><time>2026-05-02T07:31:54.291Z</time></trkpt><trkpt lat="42.3700905" lon="14.1204062"><ele>37.0</ele><time>2026-05-02T07:31:56.293Z</time></trkpt><trkpt lat="42.3698128" lon="14.1203725"><ele>37.0</ele><time>2026-05-02T07:31:58.296Z</time></trkpt><trkpt lat="42.3695115" lon="14.1203299"><ele>37.0</ele><time>2026-05-02T07:32:00.294Z</time></trkpt><trkpt lat="42.3692062" lon="14.1202925"><ele>37.0</ele><time>2026-05-02T07:32:02.29Z</time></trkpt><trkpt lat="42.3688799" lon="14.1202506"><ele>37.0</ele><time>2026-05-02T07:32:04.292Z</time></trkpt><trkpt lat="42.3685656" lon="14.1202025"><ele>33.0</ele><time>2026-05-02T07:32:06.292Z</time></trkpt><trkpt lat="42.3682703" lon="14.1201011"><ele>29.0</ele><time>2026-05-02T07:32:08.286Z</time></trkpt><trkpt lat="42.3679753" lon="14.1199167"><ele>28.5</ele><time>2026-05-02T07:32:10.295Z</time></trkpt><trkpt lat="42.3676704" lon="14.1197136"><ele>28.0</ele><time>2026-05-02T07:32:12.293Z</time></trkpt><trkpt lat="42.3673626" lon="14.1195185"><ele>27.5</ele><time>2026-05-02T07:32:14.31Z</time></trkpt><trkpt lat="42.3670684" lon="14.1192964"><ele>27.0</ele><time>2026-05-02T07:32:16.301Z</time></trkpt><trkpt lat="42.3668037" lon="14.1191095"><ele>27.5</ele><time>2026-05-02T07:32:18.298Z</time></trkpt><trkpt lat="42.3665258" lon="14.1189204"><ele>28.0</ele><time>2026-05-02T07:32:20.298Z</time></trkpt><trkpt lat="42.3662303" lon="14.1187094"><ele>28.0</ele><time>2026-05-02T07:32:22.294Z</time></trkpt><trkpt lat="42.3659214" lon="14.1184997"><ele>28.0</ele><time>2026-05-02T07:32:24.299Z</time></trkpt><trkpt lat="42.365626" lon="14.1182966"><ele>30.0</ele><time>2026-05-02T07:32:26.294Z</time></trkpt><trkpt lat="42.3653237" lon="14.1180957"><ele>32.0</ele><time>2026-05-02T07:32:28.344Z</time></trkpt><trkpt lat="42.3650235" lon="14.1178988"><ele>32.0</ele><time>2026-05-02T07:32:30.381Z</time></trkpt><trkpt lat="42.3647253" lon="14.1176957"><ele>32.0</ele><time>2026-05-02T07:32:32.377Z</time></trkpt><trkpt lat="42.3644109" lon="14.1175058"><ele>32.5</ele><time>2026-05-02T07:32:34.376Z</time></trkpt><trkpt lat="42.364078" lon="14.1174188"><ele>33.0</ele><time>2026-05-02T07:32:36.36Z</time></trkpt><trkpt lat="42.3637312" lon="14.1174195"><ele>32.0</ele><time>2026-05-02T07:32:38.357Z</time></trkpt><trkpt lat="42.3633925" lon="14.1174201"><ele>31.0</ele><time>2026-05-02T07:32:40.369Z</time></trkpt><trkpt lat="42.3630559" lon="14.117423"><ele>38.0</ele><time>2026-05-02T07:32:42.368Z</time></trkpt><trkpt lat="42.3627187" lon="14.1173839"><ele>45.0</ele><time>2026-05-02T07:32:44.361Z</time></trkpt><trkpt lat="42.362381" lon="14.1172602"><ele>40.5</ele><time>2026-05-02T07:32:46.366Z</time></trkpt><trkpt lat="42.3620494" lon="14.117112"><ele>36.0</ele><time>2026-05-02T07:32:48.356Z</time></trkpt><trkpt lat="42.3617229" lon="14.1169607"><ele>36.0</ele><time>2026-05-02T07:32:50.358Z</time></trkpt><trkpt lat="42.3614061" lon="14.116814"><ele>36.0</ele><time>2026-05-02T07:32:52.372Z</time></trkpt><trkpt lat="42.3611014" lon="14.1166705"><ele>36.5</ele><time>2026-05-02T07:32:54.371Z</time></trkpt><trkpt lat="42.3607986" lon="14.1165334"><ele>37.0</ele><time>2026-05-02T07:32:56.373Z</time></trkpt><trkpt lat="42.3604917" lon="14.1163863"><ele>37.0</ele><time>2026-05-02T07:32:58.374Z</time></trkpt><trkpt lat="42.360183" lon="14.1162386"><ele>37.0</ele><time>2026-05-02T07:33:00.377Z</time></trkpt><trkpt lat="42.3598734" lon="14.1161013"><ele>36.5</ele><time>2026-05-02T07:33:02.377Z</time></trkpt><trkpt lat="42.3595648" lon="14.1159569"><ele>36.0</ele><time>2026-05-02T07:33:04.376Z</time></trkpt><trkpt lat="42.3592536" lon="14.115826"><ele>38.5</ele><time>2026-05-02T07:33:06.374Z</time></trkpt><trkpt lat="42.3589399" lon="14.1157071"><ele>41.0</ele><time>2026-05-02T07:33:08.374Z</time></trkpt><trkpt lat="42.3586112" lon="14.1155811"><ele>41.0</ele><time>2026-05-02T07:33:10.374Z</time></trkpt><trkpt lat="42.3582776" lon="14.1154485"><ele>41.0</ele><time>2026-05-02T07:33:12.382Z</time></trkpt><trkpt lat="42.3579491" lon="14.1153118"><ele>41.0</ele><time>2026-05-02T07:33:14.376Z</time></trkpt><trkpt lat="42.3576162" lon="14.1151752"><ele>41.0</ele><time>2026-05-02T07:33:16.373Z</time></trkpt><trkpt lat="42.3572773" lon="14.1150359"><ele>45.0</ele><time>2026-05-02T07:33:18.379Z</time></trkpt><trkpt lat="42.3569306" lon="14.1148974"><ele>49.0</ele><time>2026-05-02T07:33:20.375Z</time></trkpt><trkpt lat="42.3565776" lon="14.1147564"><ele>48.0</ele><time>2026-05-02T07:33:22.382Z</time></trkpt><trkpt lat="42.3562305" lon="14.1146155"><ele>47.0</ele><time>2026-05-02T07:33:24.384Z</time></trkpt><trkpt lat="42.3558954" lon="14.1144765"><ele>47.0</ele><time>2026-05-02T07:33:26.381Z</time></trkpt><trkpt lat="42.3555624" lon="14.1143515"><ele>47.0</ele><time>2026-05-02T07:33:28.379Z</time></trkpt><trkpt lat="42.3552327" lon="14.1142273"><ele>42.0</ele><time>2026-05-02T07:33:30.375Z</time></trkpt><trkpt lat="42.3549013" lon="14.1140942"><ele>37.0</ele><time>2026-05-02T07:33:32.371Z</time></trkpt><trkpt lat="42.3545671" lon="14.1139615"><ele>36.5</ele><time>2026-05-02T07:33:34.372Z</time></trkpt><trkpt lat="42.3542374" lon="14.1138278"><ele>36.0</ele><time>2026-05-02T07:33:36.38Z</time></trkpt><trkpt lat="42.353914" lon="14.1136981"><ele>35.5</ele><time>2026-05-02T07:33:38.381Z</time></trkpt><trkpt lat="42.3535923" lon="14.1135675"><ele>35.0</ele><time>2026-05-02T07:33:40.38Z</time></trkpt><trkpt lat="42.3532672" lon="14.1134312"><ele>35.0</ele><time>2026-05-02T07:33:42.381Z</time></trkpt><trkpt lat="42.3529405" lon="14.1132985"><ele>35.0</ele><time>2026-05-02T07:33:44.378Z</time></trkpt><trkpt lat="42.3526105" lon="14.1131646"><ele>35.0</ele><time>2026-05-02T07:33:46.391Z</time></trkpt><trkpt lat="42.3522731" lon="14.1130401"><ele>35.0</ele><time>2026-05-02T07:33:48.378Z</time></trkpt><trkpt lat="42.3519442" lon="14.1129213"><ele>37.5</ele><time>2026-05-02T07:33:50.382Z</time></trkpt><trkpt lat="42.3516218" lon="14.1127796"><ele>40.0</ele><time>2026-05-02T07:33:52.386Z</time></trkpt><trkpt lat="42.3513025" lon="14.11264"><ele>42.0</ele><time>2026-05-02T07:33:54.386Z</time></trkpt><trkpt lat="42.3509888" lon="14.112534"><ele>44.0</ele><time>2026-05-02T07:33:56.38Z</time></trkpt><trkpt lat="42.3506859" lon="14.1124607"><ele>44.0</ele><time>2026-05-02T07:33:58.373Z</time></trkpt><trkpt lat="42.350434" lon="14.1124206"><ele>44.0</ele><time>2026-05-02T07:34:00.375Z</time></trkpt><trkpt lat="42.3502338" lon="14.1123771"><ele>44.0</ele><time>2026-05-02T07:34:02.376Z</time></trkpt><trkpt lat="42.3500604" lon="14.1123377"><ele>44.0</ele><time>2026-05-02T07:34:04.372Z</time></trkpt><trkpt lat="42.3499144" lon="14.1123752"><ele>44.0</ele><time>2026-05-02T07:34:06.378Z</time></trkpt><trkpt lat="42.3497923" lon="14.1125723"><ele>43.0</ele><time>2026-05-02T07:34:08.364Z</time></trkpt><trkpt lat="42.3496443" lon="14.1128394"><ele>42.0</ele><time>2026-05-02T07:34:10.281Z</time></trkpt><trkpt lat="42.3495033" lon="14.1129748"><ele>41.0</ele><time>2026-05-02T07:34:12.286Z</time></trkpt><trkpt lat="42.349429" lon="14.1129914"><ele>41.0</ele><time>2026-05-02T07:34:14.293Z</time></trkpt><trkpt lat="42.3493663" lon="14.113015"><ele>41.0</ele><time>2026-05-02T07:34:16.29Z</time></trkpt><trkpt lat="42.349305" lon="14.1130583"><ele>41.0</ele><time>2026-05-02T07:34:20.307Z</time></trkpt><trkpt lat="42.3494138" lon="14.1130222"><ele>41.0</ele><time>2026-05-02T07:34:28.292Z</time></trkpt><trkpt lat="42.3495765" lon="14.1129126"><ele>41.0</ele><time>2026-05-02T07:34:30.291Z</time></trkpt><trkpt lat="42.3497275" lon="14.1128352"><ele>41.75</ele><time>2026-05-02T07:34:32.291Z</time></trkpt><trkpt lat="42.3498431" lon="14.1127548"><ele>42.5</ele><time>2026-05-02T07:34:34.293Z</time></trkpt><trkpt lat="42.3499787" lon="14.1126681"><ele>43.25</ele><time>2026-05-02T07:34:36.291Z</time></trkpt><trkpt lat="42.3500825" lon="14.112547"><ele>44.0</ele><time>2026-05-02T07:34:38.293Z</time></trkpt><trkpt lat="42.3500877" lon="14.112407"><ele>44.0</ele><time>2026-05-02T07:34:40.289Z</time></trkpt><trkpt lat="42.3499861" lon="14.1123348"><ele>44.0</ele><time>2026-05-02T07:34:42.296Z</time></trkpt><trkpt lat="42.349864" lon="14.1123852"><ele>44.0</ele><time>2026-05-02T07:34:44.309Z</time></trkpt><trkpt lat="42.3497882" lon="14.112509"><ele>44.0</ele><time>2026-05-02T07:34:46.297Z</time></trkpt><trkpt lat="42.3497196" lon="14.112604"><ele>43.800000000000004</ele><time>2026-05-02T07:34:48.299Z</time></trkpt><trkpt lat="42.3496585" lon="14.1126378"><ele>43.6</ele><time>2026-05-02T07:34:50.3Z</time></trkpt><trkpt lat="42.3495783" lon="14.1127498"><ele>43.4</ele><time>2026-05-02T07:35:16.312Z</time></trkpt><trkpt lat="42.3494903" lon="14.112714"><ele>43.2</ele><time>2026-05-02T07:35:18.299Z</time></trkpt><trkpt lat="42.3494457" lon="14.1125158"><ele>43.0</ele><time>2026-05-02T07:35:20.288Z</time></trkpt><trkpt lat="42.3493516" lon="14.1123559"><ele>43.0</ele><time>2026-05-02T07:35:22.298Z</time></trkpt><trkpt lat="42.3492172" lon="14.1122805"><ele>43.0</ele><time>2026-05-02T07:35:24.295Z</time></trkpt><trkpt lat="42.3491177" lon="14.1122142"><ele>43.0</ele><time>2026-05-02T07:35:26.295Z</time></trkpt><trkpt lat="42.3490381" lon="14.112155"><ele>43.0</ele><time>2026-05-02T07:35:28.297Z</time></trkpt><trkpt lat="42.348994" lon="14.1120665"><ele>43.0</ele><time>2026-05-02T07:35:30.307Z</time></trkpt><trkpt lat="42.3489878" lon="14.1119539"><ele>43.0</ele><time>2026-05-02T07:35:32.309Z</time></trkpt><trkpt lat="42.348989" lon="14.1118285"><ele>43.0</ele><time>2026-05-02T07:35:34.304Z</time></trkpt><trkpt lat="42.3489867" lon="14.1117157"><ele>43.0</ele><time>2026-05-02T07:35:36.307Z</time></trkpt><trkpt lat="42.3489735" lon="14.1115663"><ele>43.0</ele><time>2026-05-02T07:35:38.294Z</time></trkpt><trkpt lat="42.3489478" lon="14.1114164"><ele>43.0</ele><time>2026-05-02T07:35:40.298Z</time></trkpt><trkpt lat="42.3489366" lon="14.111262"><ele>43.0</ele><time>2026-05-02T07:35:42.302Z</time></trkpt><trkpt lat="42.3489155" lon="14.1110686"><ele>43.0</ele><time>2026-05-02T07:35:44.295Z</time></trkpt><trkpt lat="42.3489022" lon="14.1109055"><ele>43.0</ele><time>2026-05-02T07:35:46.298Z</time></trkpt><trkpt lat="42.3489206" lon="14.1107778"><ele>43.0</ele><time>2026-05-02T07:35:48.302Z</time></trkpt><trkpt lat="42.348948" lon="14.1106518"><ele>43.4</ele><time>2026-05-02T07:35:50.311Z</time></trkpt><trkpt lat="42.3489368" lon="14.1105479"><ele>43.8</ele><time>2026-05-02T07:35:52.311Z</time></trkpt><trkpt lat="42.3489169" lon="14.1104469"><ele>44.2</ele><time>2026-05-02T07:35:54.31Z</time></trkpt><trkpt lat="42.3488915" lon="14.1102995"><ele>44.6</ele><time>2026-05-02T07:35:56.302Z</time></trkpt><trkpt lat="42.3488757" lon="14.1101221"><ele>45.0</ele><time>2026-05-02T07:35:58.301Z</time></trkpt><trkpt lat="42.3488302" lon="14.1099885"><ele>45.333333333333336</ele><time>2026-05-02T07:36:00.289Z</time></trkpt><trkpt lat="42.3487515" lon="14.1099111"><ele>45.666666666666664</ele><time>2026-05-02T07:36:02.296Z</time></trkpt><trkpt lat="42.3486594" lon="14.1098305"><ele>46.0</ele><time>2026-05-02T07:36:04.292Z</time></trkpt><trkpt lat="42.3485812" lon="14.1097812"><ele>46.33333333333333</ele><time>2026-05-02T07:36:06.286Z</time></trkpt><trkpt lat="42.3485166" lon="14.109748"><ele>46.666666666666664</ele><time>2026-05-02T07:36:10.302Z</time></trkpt><trkpt lat="42.3484477" lon="14.1096873"><ele>47.0</ele><time>2026-05-02T07:36:14.303Z</time></trkpt><trkpt lat="42.3483525" lon="14.109611"><ele>47.0</ele><time>2026-05-02T07:36:18.303Z</time></trkpt><trkpt lat="42.348284" lon="14.1095498"><ele>47.0</ele><time>2026-05-02T07:36:20.302Z</time></trkpt><trkpt lat="42.3481829" lon="14.1094084"><ele>47.0</ele><time>2026-05-02T07:36:22.294Z</time></trkpt><trkpt lat="42.3480694" lon="14.1092279"><ele>47.0</ele><time>2026-05-02T07:36:24.294Z</time></trkpt><trkpt lat="42.3479582" lon="14.1090649"><ele>46.0</ele><time>2026-05-02T07:36:26.299Z</time></trkpt><trkpt lat="42.3478908" lon="14.1089114"><ele>45.0</ele><time>2026-05-02T07:36:28.299Z</time></trkpt><trkpt lat="42.3478287" lon="14.1087224"><ele>44.0</ele><time>2026-05-02T07:36:30.295Z</time></trkpt><trkpt lat="42.3477322" lon="14.108522"><ele>44.0</ele><time>2026-05-02T07:36:32.303Z</time></trkpt><trkpt lat="42.347619" lon="14.1083064"><ele>44.0</ele><time>2026-05-02T07:36:34.372Z</time></trkpt><trkpt lat="42.3475167" lon="14.1081105"><ele>44.0</ele><time>2026-05-02T07:36:36.378Z</time></trkpt><trkpt lat="42.3474343" lon="14.1079481"><ele>44.400000000000006</ele><time>2026-05-02T07:36:38.373Z</time></trkpt><trkpt lat="42.3474017" lon="14.1078009"><ele>44.8</ele><time>2026-05-02T07:36:40.361Z</time></trkpt><trkpt lat="42.3473672" lon="14.1076863"><ele>45.2</ele><time>2026-05-02T07:36:42.36Z</time></trkpt><trkpt lat="42.3473316" lon="14.1075947"><ele>45.599999999999994</ele><time>2026-05-02T07:36:44.377Z</time></trkpt><trkpt lat="42.3473182" lon="14.1074682"><ele>46.0</ele><time>2026-05-02T07:36:46.375Z</time></trkpt><trkpt lat="42.3472745" lon="14.1073624"><ele>46.0</ele><time>2026-05-02T07:36:48.394Z</time></trkpt><trkpt lat="42.3472184" lon="14.1072304"><ele>46.0</ele><time>2026-05-02T07:36:50.393Z</time></trkpt><trkpt lat="42.3471571" lon="14.1070842"><ele>46.0</ele><time>2026-05-02T07:36:52.399Z</time></trkpt><trkpt lat="42.3471505" lon="14.106911"><ele>46.0</ele><time>2026-05-02T07:36:54.369Z</time></trkpt><trkpt lat="42.3471702" lon="14.1067197"><ele>46.0</ele><time>2026-05-02T07:36:56.362Z</time></trkpt><trkpt lat="42.3472286" lon="14.1065109"><ele>46.0</ele><time>2026-05-02T07:36:58.379Z</time></trkpt><trkpt lat="42.3472648" lon="14.1063265"><ele>46.0</ele><time>2026-05-02T07:37:00.365Z</time></trkpt><trkpt lat="42.3473629" lon="14.1061547"><ele>46.0</ele><time>2026-05-02T07:37:02.358Z</time></trkpt><trkpt lat="42.3474208" lon="14.1059583"><ele>46.0</ele><time>2026-05-02T07:37:04.381Z</time></trkpt><trkpt lat="42.3475163" lon="14.1057727"><ele>46.0</ele><time>2026-05-02T07:37:06.295Z</time></trkpt><trkpt lat="42.3476396" lon="14.1056122"><ele>45.66666666666667</ele><time>2026-05-02T07:37:08.295Z</time></trkpt><trkpt lat="42.3477464" lon="14.10539"><ele>45.333333333333336</ele><time>2026-05-02T07:37:10.294Z</time></trkpt><trkpt lat="42.3478403" lon="14.1052309"><ele>45.0</ele><time>2026-05-02T07:37:12.293Z</time></trkpt><trkpt lat="42.3479389" lon="14.1050446"><ele>46.0</ele><time>2026-05-02T07:37:14.295Z</time></trkpt><trkpt lat="42.3480384" lon="14.104867"><ele>47.0</ele><time>2026-05-02T07:37:16.298Z</time></trkpt><trkpt lat="42.3481827" lon="14.1047005"><ele>48.0</ele><time>2026-05-02T07:37:18.288Z</time></trkpt><trkpt lat="42.3482955" lon="14.1044962"><ele>47.666666666666664</ele><time>2026-05-02T07:37:20.294Z</time></trkpt><trkpt lat="42.3483555" lon="14.1042669"><ele>47.33333333333333</ele><time>2026-05-02T07:37:22.29Z</time></trkpt><trkpt lat="42.3484104" lon="14.1040383"><ele>47.0</ele><time>2026-05-02T07:37:24.297Z</time></trkpt><trkpt lat="42.348465" lon="14.1037935"><ele>47.0</ele><time>2026-05-02T07:37:26.291Z</time></trkpt><trkpt lat="42.3484998" lon="14.1035188"><ele>47.0</ele><time>2026-05-02T07:37:28.298Z</time></trkpt><trkpt lat="42.3485258" lon="14.1032272"><ele>47.0</ele><time>2026-05-02T07:37:30.295Z</time></trkpt><trkpt lat="42.3485379" lon="14.1029377"><ele>47.33333333333333</ele><time>2026-05-02T07:37:32.291Z</time></trkpt><trkpt lat="42.3485545" lon="14.1026394"><ele>47.666666666666664</ele><time>2026-05-02T07:37:34.292Z</time></trkpt><trkpt lat="42.3485988" lon="14.1023598"><ele>48.0</ele><time>2026-05-02T07:37:36.295Z</time></trkpt><trkpt lat="42.3486495" lon="14.1020965"><ele>48.0</ele><time>2026-05-02T07:37:38.296Z</time></trkpt><trkpt lat="42.3486994" lon="14.1018654"><ele>48.0</ele><time>2026-05-02T07:37:40.295Z</time></trkpt><trkpt lat="42.3487654" lon="14.1016035"><ele>48.0</ele><time>2026-05-02T07:37:42.296Z</time></trkpt><trkpt lat="42.3488296" lon="14.10135"><ele>49.0</ele><time>2026-05-02T07:37:44.297Z</time></trkpt><trkpt lat="42.3488923" lon="14.101156"><ele>50.0</ele><time>2026-05-02T07:37:46.302Z</time></trkpt><trkpt lat="42.3489583" lon="14.101035"><ele>51.0</ele><time>2026-05-02T07:37:48.295Z</time></trkpt><trkpt lat="42.3490711" lon="14.1009622"><ele>52.0</ele><time>2026-05-02T07:37:50.292Z</time></trkpt><trkpt lat="42.3491724" lon="14.1008043"><ele>52.0</ele><time>2026-05-02T07:37:52.287Z</time></trkpt><trkpt lat="42.3492113" lon="14.1006949"><ele>52.0</ele><time>2026-05-02T07:37:54.284Z</time></trkpt><trkpt lat="42.3492814" lon="14.1006124"><ele>52.0</ele><time>2026-05-02T07:37:56.3Z</time></trkpt><trkpt lat="42.3493779" lon="14.1004603"><ele>52.0</ele><time>2026-05-02T07:37:58.286Z</time></trkpt><trkpt lat="42.3494919" lon="14.1002297"><ele>52.0</ele><time>2026-05-02T07:38:00.296Z</time></trkpt><trkpt lat="42.3495244" lon="14.1000775"><ele>52.0</ele><time>2026-05-02T07:38:02.294Z</time></trkpt><trkpt lat="42.349535" lon="14.0999634"><ele>52.0</ele><time>2026-05-02T07:38:04.293Z</time></trkpt><trkpt lat="42.3495843" lon="14.0998089"><ele>52.0</ele><time>2026-05-02T07:38:08.304Z</time></trkpt><trkpt lat="42.3495913" lon="14.0996913"><ele>52.0</ele><time>2026-05-02T07:38:10.302Z</time></trkpt><trkpt lat="42.3495532" lon="14.0995625"><ele>51.6</ele><time>2026-05-02T07:38:12.307Z</time></trkpt><trkpt lat="42.3494962" lon="14.0994347"><ele>51.2</ele><time>2026-05-02T07:38:14.295Z</time></trkpt><trkpt lat="42.3494383" lon="14.0992838"><ele>50.8</ele><time>2026-05-02T07:38:16.295Z</time></trkpt><trkpt lat="42.3494305" lon="14.0991432"><ele>50.4</ele><time>2026-05-02T07:38:18.302Z</time></trkpt><trkpt lat="42.3494332" lon="14.0990069"><ele>50.0</ele><time>2026-05-02T07:38:20.299Z</time></trkpt><trkpt lat="42.3494756" lon="14.0988619"><ele>50.0</ele><time>2026-05-02T07:38:22.299Z</time></trkpt><trkpt lat="42.3495285" lon="14.0986636"><ele>50.0</ele><time>2026-05-02T07:38:24.316Z</time></trkpt><trkpt lat="42.3496013" lon="14.098405"><ele>50.0</ele><time>2026-05-02T07:38:26.301Z</time></trkpt><trkpt lat="42.3496464" lon="14.0981528"><ele>50.333333333333336</ele><time>2026-05-02T07:38:28.299Z</time></trkpt><trkpt lat="42.3496762" lon="14.0979389"><ele>50.66666666666667</ele><time>2026-05-02T07:38:30.298Z</time></trkpt><trkpt lat="42.3497408" lon="14.0977191"><ele>51.0</ele><time>2026-05-02T07:38:32.298Z</time></trkpt><trkpt lat="42.3498122" lon="14.0974762"><ele>51.0</ele><time>2026-05-02T07:38:34.293Z</time></trkpt><trkpt lat="42.3498754" lon="14.0972145"><ele>51.0</ele><time>2026-05-02T07:38:36.298Z</time></trkpt><trkpt lat="42.3499098" lon="14.0969467"><ele>51.0</ele><time>2026-05-02T07:38:38.297Z</time></trkpt><trkpt lat="42.3499389" lon="14.0966894"><ele>51.33333333333333</ele><time>2026-05-02T07:38:40.297Z</time></trkpt><trkpt lat="42.3499539" lon="14.0964422"><ele>51.666666666666664</ele><time>2026-05-02T07:38:42.295Z</time></trkpt><trkpt lat="42.3499671" lon="14.0962106"><ele>52.0</ele><time>2026-05-02T07:38:44.295Z</time></trkpt><trkpt lat="42.349979" lon="14.0959539"><ele>52.0</ele><time>2026-05-02T07:38:46.299Z</time></trkpt><trkpt lat="42.3499984" lon="14.09567"><ele>52.0</ele><time>2026-05-02T07:38:48.3Z</time></trkpt><trkpt lat="42.3500301" lon="14.0953581"><ele>52.0</ele><time>2026-05-02T07:38:50.297Z</time></trkpt><trkpt lat="42.3500343" lon="14.0950326"><ele>52.0</ele><time>2026-05-02T07:38:52.29Z</time></trkpt><trkpt lat="42.3499867" lon="14.0946663"><ele>52.0</ele><time>2026-05-02T07:38:54.295Z</time></trkpt><trkpt lat="42.3499165" lon="14.0943657"><ele>51.666666666666664</ele><time>2026-05-02T07:38:56.293Z</time></trkpt><trkpt lat="42.3498421" lon="14.0940677"><ele>51.33333333333333</ele><time>2026-05-02T07:38:58.303Z</time></trkpt><trkpt lat="42.3498081" lon="14.0938125"><ele>51.0</ele><time>2026-05-02T07:39:00.292Z</time></trkpt><trkpt lat="42.3497646" lon="14.0935845"><ele>52.66666666666667</ele><time>2026-05-02T07:39:02.291Z</time></trkpt><trkpt lat="42.3496855" lon="14.0934163"><ele>54.333333333333336</ele><time>2026-05-02T07:39:04.301Z</time></trkpt><trkpt lat="42.3496323" lon="14.09325"><ele>56.0</ele><time>2026-05-02T07:39:06.301Z</time></trkpt><trkpt lat="42.3496042" lon="14.0929462"><ele>56.0</ele><time>2026-05-02T07:39:08.319Z</time></trkpt><trkpt lat="42.3495444" lon="14.0927303"><ele>56.0</ele><time>2026-05-02T07:39:10.376Z</time></trkpt><trkpt lat="42.3494332" lon="14.0925517"><ele>56.0</ele><time>2026-05-02T07:39:12.365Z</time></trkpt><trkpt lat="42.3493413" lon="14.092394"><ele>56.333333333333336</ele><time>2026-05-02T07:39:14.287Z</time></trkpt><trkpt lat="42.3492877" lon="14.0921314"><ele>56.66666666666667</ele><time>2026-05-02T07:39:16.297Z</time></trkpt><trkpt lat="42.349214" lon="14.0918231"><ele>57.0</ele><time>2026-05-02T07:39:18.301Z</time></trkpt><trkpt lat="42.3491491" lon="14.0915231"><ele>57.0</ele><time>2026-05-02T07:39:20.301Z</time></trkpt><trkpt lat="42.3491054" lon="14.0912163"><ele>57.0</ele><time>2026-05-02T07:39:22.302Z</time></trkpt><trkpt lat="42.3490999" lon="14.0909737"><ele>57.0</ele><time>2026-05-02T07:39:24.304Z</time></trkpt><trkpt lat="42.3490731" lon="14.0907041"><ele>56.5</ele><time>2026-05-02T07:39:26.309Z</time></trkpt><trkpt lat="42.3489874" lon="14.0903559"><ele>56.0</ele><time>2026-05-02T07:39:28.308Z</time></trkpt><trkpt lat="42.3489271" lon="14.0899792"><ele>56.333333333333336</ele><time>2026-05-02T07:39:30.302Z</time></trkpt><trkpt lat="42.3488851" lon="14.0896574"><ele>56.66666666666667</ele><time>2026-05-02T07:39:32.302Z</time></trkpt><trkpt lat="42.3488503" lon="14.0893907"><ele>57.0</ele><time>2026-05-02T07:39:34.299Z</time></trkpt><trkpt lat="42.3488176" lon="14.0891055"><ele>61.0</ele><time>2026-05-02T07:39:36.303Z</time></trkpt><trkpt lat="42.3487776" lon="14.0887802"><ele>65.0</ele><time>2026-05-02T07:39:38.306Z</time></trkpt><trkpt lat="42.3487766" lon="14.088473"><ele>64.0</ele><time>2026-05-02T07:39:40.301Z</time></trkpt><trkpt lat="42.3487616" lon="14.0882379"><ele>63.0</ele><time>2026-05-02T07:39:42.302Z</time></trkpt><trkpt lat="42.3487498" lon="14.0880406"><ele>62.0</ele><time>2026-05-02T07:39:44.301Z</time></trkpt><trkpt lat="42.3487081" lon="14.087853"><ele>62.0</ele><time>2026-05-02T07:39:46.305Z</time></trkpt><trkpt lat="42.3486581" lon="14.0876427"><ele>62.0</ele><time>2026-05-02T07:39:48.303Z</time></trkpt><trkpt lat="42.3486612" lon="14.0874257"><ele>62.0</ele><time>2026-05-02T07:39:50.302Z</time></trkpt><trkpt lat="42.3486265" lon="14.0871978"><ele>62.25</ele><time>2026-05-02T07:39:52.295Z</time></trkpt><trkpt lat="42.3485043" lon="14.0870276"><ele>62.5</ele><time>2026-05-02T07:39:54.289Z</time></trkpt><trkpt lat="42.3483801" lon="14.0869147"><ele>62.75</ele><time>2026-05-02T07:39:56.301Z</time></trkpt><trkpt lat="42.3483138" lon="14.086829"><ele>63.0</ele><time>2026-05-02T07:39:58.306Z</time></trkpt><trkpt lat="42.3482584" lon="14.0867749"><ele>63.0</ele><time>2026-05-02T07:40:00.301Z</time></trkpt><trkpt lat="42.3481695" lon="14.0866946"><ele>63.0</ele><time>2026-05-02T07:40:04.306Z</time></trkpt><trkpt lat="42.3481484" lon="14.0865903"><ele>63.0</ele><time>2026-05-02T07:40:06.306Z</time></trkpt><trkpt lat="42.3481202" lon="14.0864558"><ele>63.0</ele><time>2026-05-02T07:40:08.303Z</time></trkpt><trkpt lat="42.3480879" lon="14.0863176"><ele>63.0</ele><time>2026-05-02T07:40:10.303Z</time></trkpt><trkpt lat="42.3480923" lon="14.0862133"><ele>63.0</ele><time>2026-05-02T07:40:12.302Z</time></trkpt><trkpt lat="42.3480702" lon="14.0860583"><ele>63.0</ele><time>2026-05-02T07:40:30.314Z</time></trkpt><trkpt lat="42.3480451" lon="14.0859495"><ele>63.0</ele><time>2026-05-02T07:40:32.307Z</time></trkpt><trkpt lat="42.3480069" lon="14.0858482"><ele>63.0</ele><time>2026-05-02T07:40:34.309Z</time></trkpt><trkpt lat="42.3479868" lon="14.0856595"><ele>63.0</ele><time>2026-05-02T07:40:38.307Z</time></trkpt><trkpt lat="42.3479757" lon="14.08548"><ele>64.25</ele><time>2026-05-02T07:40:40.311Z</time></trkpt><trkpt lat="42.3479626" lon="14.0852942"><ele>65.5</ele><time>2026-05-02T07:40:42.304Z</time></trkpt><trkpt lat="42.3478862" lon="14.0851693"><ele>66.75</ele><time>2026-05-02T07:40:44.301Z</time></trkpt><trkpt lat="42.3478081" lon="14.0849988"><ele>68.0</ele><time>2026-05-02T07:40:46.289Z</time></trkpt><trkpt lat="42.3477771" lon="14.0847424"><ele>68.0</ele><time>2026-05-02T07:40:48.289Z</time></trkpt><trkpt lat="42.3477554" lon="14.0845166"><ele>68.0</ele><time>2026-05-02T07:40:50.294Z</time></trkpt><trkpt lat="42.3476659" lon="14.084274"><ele>68.0</ele><time>2026-05-02T07:40:52.295Z</time></trkpt><trkpt lat="42.3475968" lon="14.0840211"><ele>68.0</ele><time>2026-05-02T07:40:54.293Z</time></trkpt><trkpt lat="42.3475663" lon="14.0837448"><ele>68.0</ele><time>2026-05-02T07:40:56.3Z</time></trkpt><trkpt lat="42.3475639" lon="14.0834628"><ele>68.0</ele><time>2026-05-02T07:40:58.3Z</time></trkpt><trkpt lat="42.3475907" lon="14.0831746"><ele>68.0</ele><time>2026-05-02T07:41:00.296Z</time></trkpt><trkpt lat="42.3476738" lon="14.0829482"><ele>68.0</ele><time>2026-05-02T07:41:02.295Z</time></trkpt><trkpt lat="42.3478022" lon="14.0828362"><ele>68.0</ele><time>2026-05-02T07:41:04.302Z</time></trkpt><trkpt lat="42.3479909" lon="14.0826277"><ele>66.5</ele><time>2026-05-02T07:41:06.307Z</time></trkpt><trkpt lat="42.348153" lon="14.0822922"><ele>65.0</ele><time>2026-05-02T07:41:08.299Z</time></trkpt><trkpt lat="42.3482728" lon="14.0820218"><ele>65.0</ele><time>2026-05-02T07:41:10.3Z</time></trkpt><trkpt lat="42.3483293" lon="14.0818741"><ele>65.0</ele><time>2026-05-02T07:41:12.301Z</time></trkpt><trkpt lat="42.3483697" lon="14.0819493"><ele>65.0</ele><time>2026-05-02T07:41:42.314Z</time></trkpt><trkpt lat="42.3484236" lon="14.0820103"><ele>65.0</ele><time>2026-05-02T07:41:44.309Z</time></trkpt><trkpt lat="42.3484937" lon="14.0820559"><ele>65.0</ele><time>2026-05-02T07:41:46.31Z</time></trkpt><trkpt lat="42.3485445" lon="14.081968"><ele>65.0</ele><time>2026-05-02T07:41:48.302Z</time></trkpt><trkpt lat="42.3486013" lon="14.081786"><ele>65.0</ele><time>2026-05-02T07:41:50.311Z</time></trkpt><trkpt lat="42.3486042" lon="14.0816599"><ele>65.0</ele><time>2026-05-02T07:41:52.307Z</time></trkpt><trkpt lat="42.3486582" lon="14.0815377"><ele>65.0</ele><time>2026-05-02T07:41:54.302Z</time></trkpt><trkpt lat="42.3487771" lon="14.0814521"><ele>65.0</ele><time>2026-05-02T07:41:56.302Z</time></trkpt><trkpt lat="42.3488991" lon="14.0813767"><ele>65.5</ele><time>2026-05-02T07:41:58.307Z</time></trkpt><trkpt lat="42.3490227" lon="14.0812802"><ele>66.0</ele><time>2026-05-02T07:42:00.301Z</time></trkpt><trkpt lat="42.349177" lon="14.0812343"><ele>66.5</ele><time>2026-05-02T07:42:02.298Z</time></trkpt><trkpt lat="42.3493212" lon="14.0812726"><ele>67.0</ele><time>2026-05-02T07:42:04.306Z</time></trkpt><trkpt lat="42.3494384" lon="14.0813169"><ele>67.0</ele><time>2026-05-02T07:42:06.301Z</time></trkpt><trkpt lat="42.3495437" lon="14.0813246"><ele>67.0</ele><time>2026-05-02T07:42:08.292Z</time></trkpt><trkpt lat="42.3496427" lon="14.0812427"><ele>67.0</ele><time>2026-05-02T07:42:10.299Z</time></trkpt><trkpt lat="42.3496922" lon="14.0811523"><ele>67.0</ele><time>2026-05-02T07:42:12.295Z</time></trkpt><trkpt lat="42.3496928" lon="14.0810424"><ele>67.0</ele><time>2026-05-02T07:42:14.301Z</time></trkpt><trkpt lat="42.3496659" lon="14.0809175"><ele>67.0</ele><time>2026-05-02T07:42:16.299Z</time></trkpt><trkpt lat="42.3496236" lon="14.0808166"><ele>67.0</ele><time>2026-05-02T07:42:18.305Z</time></trkpt><trkpt lat="42.3495642" lon="14.0807298"><ele>67.0</ele><time>2026-05-02T07:42:20.3Z</time></trkpt><trkpt lat="42.3495359" lon="14.0806297"><ele>67.0</ele><time>2026-05-02T07:42:22.301Z</time></trkpt><trkpt lat="42.3495662" lon="14.0805529"><ele>67.0</ele><time>2026-05-02T07:42:24.305Z</time></trkpt><trkpt lat="42.3496302" lon="14.0804784"><ele>67.0</ele><time>2026-05-02T07:42:26.303Z</time></trkpt><trkpt lat="42.3497325" lon="14.0803985"><ele>66.8</ele><time>2026-05-02T07:42:28.306Z</time></trkpt><trkpt lat="42.3498074" lon="14.0803062"><ele>66.6</ele><time>2026-05-02T07:42:30.298Z</time></trkpt><trkpt lat="42.3498572" lon="14.080247"><ele>66.39999999999999</ele><time>2026-05-02T07:42:32.311Z</time></trkpt><trkpt lat="42.3499367" lon="14.0801763"><ele>66.2</ele><time>2026-05-02T07:42:34.304Z</time></trkpt><trkpt lat="42.3500754" lon="14.0800573"><ele>66.0</ele><time>2026-05-02T07:42:36.297Z</time></trkpt><trkpt lat="42.350238" lon="14.079877"><ele>66.0</ele><time>2026-05-02T07:42:38.297Z</time></trkpt><trkpt lat="42.3503337" lon="14.0796502"><ele>66.0</ele><time>2026-05-02T07:42:40.298Z</time></trkpt><trkpt lat="42.3503926" lon="14.0793814"><ele>66.0</ele><time>2026-05-02T07:42:42.297Z</time></trkpt><trkpt lat="42.3504228" lon="14.0790954"><ele>66.0</ele><time>2026-05-02T07:42:44.294Z</time></trkpt><trkpt lat="42.3504979" lon="14.0788093"><ele>66.0</ele><time>2026-05-02T07:42:46.299Z</time></trkpt><trkpt lat="42.3505856" lon="14.0785522"><ele>66.0</ele><time>2026-05-02T07:42:48.297Z</time></trkpt><trkpt lat="42.3505729" lon="14.0783286"><ele>66.33333333333333</ele><time>2026-05-02T07:42:50.303Z</time></trkpt><trkpt lat="42.3505147" lon="14.0780792"><ele>66.66666666666666</ele><time>2026-05-02T07:42:52.29Z</time></trkpt><trkpt lat="42.3504591" lon="14.0778499"><ele>67.0</ele><time>2026-05-02T07:42:54.294Z</time></trkpt><trkpt lat="42.3504348" lon="14.0776246"><ele>67.33333333333333</ele><time>2026-05-02T07:42:56.293Z</time></trkpt><trkpt lat="42.3504066" lon="14.0773683"><ele>67.66666666666667</ele><time>2026-05-02T07:42:58.297Z</time></trkpt><trkpt lat="42.3504317" lon="14.0770884"><ele>68.0</ele><time>2026-05-02T07:43:00.303Z</time></trkpt><trkpt lat="42.350434" lon="14.0768365"><ele>68.66666666666667</ele><time>2026-05-02T07:43:02.374Z</time></trkpt><trkpt lat="42.3504538" lon="14.0765928"><ele>69.33333333333333</ele><time>2026-05-02T07:43:04.363Z</time></trkpt><trkpt lat="42.3504892" lon="14.0763741"><ele>70.0</ele><time>2026-05-02T07:43:06.364Z</time></trkpt><trkpt lat="42.3504656" lon="14.0761562"><ele>70.0</ele><time>2026-05-02T07:43:08.375Z</time></trkpt><trkpt lat="42.3504274" lon="14.0758467"><ele>70.0</ele><time>2026-05-02T07:43:10.365Z</time></trkpt><trkpt lat="42.3504164" lon="14.0756044"><ele>70.0</ele><time>2026-05-02T07:43:12.365Z</time></trkpt><trkpt lat="42.3504236" lon="14.0754893"><ele>70.33333333333333</ele><time>2026-05-02T07:43:14.376Z</time></trkpt><trkpt lat="42.3504939" lon="14.075427"><ele>70.66666666666667</ele><time>2026-05-02T07:43:16.377Z</time></trkpt><trkpt lat="42.3506642" lon="14.075344"><ele>71.0</ele><time>2026-05-02T07:43:18.375Z</time></trkpt><trkpt lat="42.3508859" lon="14.0752786"><ele>71.0</ele><time>2026-05-02T07:43:20.373Z</time></trkpt><trkpt lat="42.3511547" lon="14.0751746"><ele>71.0</ele><time>2026-05-02T07:43:22.382Z</time></trkpt><trkpt lat="42.3513453" lon="14.0751034"><ele>71.66666666666667</ele><time>2026-05-02T07:43:24.384Z</time></trkpt><trkpt lat="42.3515149" lon="14.0750654"><ele>72.33333333333333</ele><time>2026-05-02T07:43:26.374Z</time></trkpt><trkpt lat="42.3517316" lon="14.0750687"><ele>73.0</ele><time>2026-05-02T07:43:28.368Z</time></trkpt><trkpt lat="42.3519406" lon="14.0751204"><ele>73.0</ele><time>2026-05-02T07:43:30.366Z</time></trkpt><trkpt lat="42.352144" lon="14.0751634"><ele>73.0</ele><time>2026-05-02T07:43:32.378Z</time></trkpt><trkpt lat="42.3523576" lon="14.0751955"><ele>73.0</ele><time>2026-05-02T07:43:34.393Z</time></trkpt><trkpt lat="42.3525832" lon="14.0752341"><ele>74.33333333333333</ele><time>2026-05-02T07:43:36.382Z</time></trkpt><trkpt lat="42.3527896" lon="14.0752567"><ele>75.66666666666667</ele><time>2026-05-02T07:43:38.372Z</time></trkpt><trkpt lat="42.3529688" lon="14.0752969"><ele>77.0</ele><time>2026-05-02T07:43:40.36Z</time></trkpt><trkpt lat="42.3531666" lon="14.0753637"><ele>81.66666666666667</ele><time>2026-05-02T07:43:42.358Z</time></trkpt><trkpt lat="42.3533741" lon="14.0753688"><ele>86.33333333333333</ele><time>2026-05-02T07:43:44.366Z</time></trkpt><trkpt lat="42.3536062" lon="14.0753263"><ele>91.0</ele><time>2026-05-02T07:43:46.358Z</time></trkpt><trkpt lat="42.3538522" lon="14.0752633"><ele>94.0</ele><time>2026-05-02T07:43:48.356Z</time></trkpt><trkpt lat="42.354089" lon="14.0751968"><ele>97.0</ele><time>2026-05-02T07:43:50.381Z</time></trkpt><trkpt lat="42.3543032" lon="14.0751311"><ele>97.0</ele><time>2026-05-02T07:43:52.385Z</time></trkpt><trkpt lat="42.3545167" lon="14.0750755"><ele>97.0</ele><time>2026-05-02T07:43:54.387Z</time></trkpt><trkpt lat="42.354746" lon="14.0750133"><ele>103.5</ele><time>2026-05-02T07:43:56.386Z</time></trkpt><trkpt lat="42.3549971" lon="14.0749574"><ele>110.0</ele><time>2026-05-02T07:43:58.387Z</time></trkpt><trkpt lat="42.3552649" lon="14.0749286"><ele>111.5</ele><time>2026-05-02T07:44:00.388Z</time></trkpt><trkpt lat="42.3555279" lon="14.0748874"><ele>113.0</ele><time>2026-05-02T07:44:02.385Z</time></trkpt><trkpt lat="42.3557574" lon="14.0748612"><ele>116.5</ele><time>2026-05-02T07:44:04.382Z</time></trkpt><trkpt lat="42.3560051" lon="14.0748587"><ele>120.0</ele><time>2026-05-02T07:44:06.386Z</time></trkpt><trkpt lat="42.3562952" lon="14.0748858"><ele>121.5</ele><time>2026-05-02T07:44:08.382Z</time></trkpt><trkpt lat="42.3565771" lon="14.0749395"><ele>123.0</ele><time>2026-05-02T07:44:10.391Z</time></trkpt><trkpt lat="42.3568466" lon="14.0749868"><ele>123.0</ele><time>2026-05-02T07:44:12.389Z</time></trkpt><trkpt lat="42.3571062" lon="14.0750384"><ele>123.0</ele><time>2026-05-02T07:44:14.388Z</time></trkpt><trkpt lat="42.3573657" lon="14.0750968"><ele>122.5</ele><time>2026-05-02T07:44:16.39Z</time></trkpt><trkpt lat="42.3576108" lon="14.0751566"><ele>122.0</ele><time>2026-05-02T07:44:18.391Z</time></trkpt><trkpt lat="42.3578639" lon="14.0752259"><ele>121.5</ele><time>2026-05-02T07:44:20.385Z</time></trkpt><trkpt lat="42.3581029" lon="14.075301"><ele>121.0</ele><time>2026-05-02T07:44:22.389Z</time></trkpt><trkpt lat="42.3583146" lon="14.0753729"><ele>121.0</ele><time>2026-05-02T07:44:24.39Z</time></trkpt><trkpt lat="42.3585104" lon="14.0754656"><ele>121.0</ele><time>2026-05-02T07:44:26.383Z</time></trkpt><trkpt lat="42.3586862" lon="14.0755375"><ele>121.0</ele><time>2026-05-02T07:44:28.388Z</time></trkpt><trkpt lat="42.3588502" lon="14.0755092"><ele>122.33333333333334</ele><time>2026-05-02T07:44:30.366Z</time></trkpt><trkpt lat="42.3590003" lon="14.0754255"><ele>123.66666666666666</ele><time>2026-05-02T07:44:32.365Z</time></trkpt><trkpt lat="42.3591306" lon="14.0753424"><ele>125.0</ele><time>2026-05-02T07:44:34.378Z</time></trkpt><trkpt lat="42.3592769" lon="14.075244"><ele>125.0</ele><time>2026-05-02T07:44:36.388Z</time></trkpt><trkpt lat="42.3594626" lon="14.0751011"><ele>125.0</ele><time>2026-05-02T07:44:38.362Z</time></trkpt><trkpt lat="42.3596847" lon="14.0749366"><ele>126.5</ele><time>2026-05-02T07:44:40.359Z</time></trkpt><trkpt lat="42.3599208" lon="14.0747684"><ele>128.0</ele><time>2026-05-02T07:44:42.376Z</time></trkpt><trkpt lat="42.3601443" lon="14.0746288"><ele>128.0</ele><time>2026-05-02T07:44:44.367Z</time></trkpt><trkpt lat="42.3603034" lon="14.0745224"><ele>128.0</ele><time>2026-05-02T07:44:46.379Z</time></trkpt><trkpt lat="42.3604698" lon="14.0744124"><ele>128.0</ele><time>2026-05-02T07:44:48.359Z</time></trkpt><trkpt lat="42.3606706" lon="14.0742777"><ele>129.0</ele><time>2026-05-02T07:44:50.366Z</time></trkpt><trkpt lat="42.360881" lon="14.0741261"><ele>130.0</ele><time>2026-05-02T07:44:52.376Z</time></trkpt><trkpt lat="42.3610617" lon="14.074016"><ele>131.0</ele><time>2026-05-02T07:44:54.374Z</time></trkpt><trkpt lat="42.3612153" lon="14.0739196"><ele>132.5</ele><time>2026-05-02T07:44:56.381Z</time></trkpt><trkpt lat="42.3613781" lon="14.0737942"><ele>134.0</ele><time>2026-05-02T07:44:58.366Z</time></trkpt><trkpt lat="42.3615036" lon="14.0737005"><ele>135.5</ele><time>2026-05-02T07:45:00.368Z</time></trkpt><trkpt lat="42.3615972" lon="14.0736306"><ele>137.0</ele><time>2026-05-02T07:45:02.377Z</time></trkpt><trkpt lat="42.3616559" lon="14.0735831"><ele>137.0</ele><time>2026-05-02T07:45:04.382Z</time></trkpt><trkpt lat="42.3617211" lon="14.0735722"><ele>137.0</ele><time>2026-05-02T07:45:10.389Z</time></trkpt><trkpt lat="42.3618132" lon="14.0735287"><ele>137.0</ele><time>2026-05-02T07:45:16.389Z</time></trkpt><trkpt lat="42.3617637" lon="14.0733615"><ele>137.0</ele><time>2026-05-02T07:45:18.311Z</time></trkpt><trkpt lat="42.3616344" lon="14.0731983"><ele>137.0</ele><time>2026-05-02T07:45:20.296Z</time></trkpt><trkpt lat="42.3615288" lon="14.0730196"><ele>137.0</ele><time>2026-05-02T07:45:22.293Z</time></trkpt><trkpt lat="42.3614071" lon="14.0728333"><ele>137.0</ele><time>2026-05-02T07:45:24.293Z</time></trkpt><trkpt lat="42.3612686" lon="14.0726449"><ele>135.0</ele><time>2026-05-02T07:45:26.298Z</time></trkpt><trkpt lat="42.361113" lon="14.0723979"><ele>133.0</ele><time>2026-05-02T07:45:28.295Z</time></trkpt><trkpt lat="42.3609524" lon="14.0721433"><ele>133.0</ele><time>2026-05-02T07:45:30.296Z</time></trkpt><trkpt lat="42.3607815" lon="14.0718924"><ele>133.0</ele><time>2026-05-02T07:45:32.296Z</time></trkpt><trkpt lat="42.3606442" lon="14.0715969"><ele>133.0</ele><time>2026-05-02T07:45:34.294Z</time></trkpt><trkpt lat="42.3605628" lon="14.0712681"><ele>133.0</ele><time>2026-05-02T07:45:36.299Z</time></trkpt><trkpt lat="42.3604971" lon="14.0709103"><ele>134.0</ele><time>2026-05-02T07:45:38.31Z</time></trkpt><trkpt lat="42.3604192" lon="14.0705398"><ele>135.0</ele><time>2026-05-02T07:45:40.303Z</time></trkpt><trkpt lat="42.3603478" lon="14.0701513"><ele>136.5</ele><time>2026-05-02T07:45:42.305Z</time></trkpt><trkpt lat="42.3602601" lon="14.0697371"><ele>138.0</ele><time>2026-05-02T07:45:44.307Z</time></trkpt><trkpt lat="42.3602183" lon="14.0693296"><ele>139.0</ele><time>2026-05-02T07:45:46.293Z</time></trkpt><trkpt lat="42.3602645" lon="14.0689329"><ele>140.0</ele><time>2026-05-02T07:45:48.298Z</time></trkpt><trkpt lat="42.360391" lon="14.068568"><ele>140.0</ele><time>2026-05-02T07:45:50.294Z</time></trkpt><trkpt lat="42.3605506" lon="14.0683088"><ele>140.0</ele><time>2026-05-02T07:45:52.303Z</time></trkpt><trkpt lat="42.3606796" lon="14.0680691"><ele>140.0</ele><time>2026-05-02T07:45:54.303Z</time></trkpt><trkpt lat="42.360744" lon="14.0677857"><ele>140.0</ele><time>2026-05-02T07:45:56.293Z</time></trkpt><trkpt lat="42.3606992" lon="14.0674876"><ele>140.0</ele><time>2026-05-02T07:45:58.289Z</time></trkpt><trkpt lat="42.3605536" lon="14.0672603"><ele>137.0</ele><time>2026-05-02T07:46:00.299Z</time></trkpt><trkpt lat="42.3604219" lon="14.0670217"><ele>134.0</ele><time>2026-05-02T07:46:02.3Z</time></trkpt><trkpt lat="42.3603378" lon="14.0667885"><ele>131.0</ele><time>2026-05-02T07:46:04.294Z</time></trkpt><trkpt lat="42.3603275" lon="14.0666259"><ele>131.0</ele><time>2026-05-02T07:46:06.287Z</time></trkpt><trkpt lat="42.3602185" lon="14.0665508"><ele>131.0</ele><time>2026-05-02T07:46:08.286Z</time></trkpt><trkpt lat="42.3600064" lon="14.0664868"><ele>131.0</ele><time>2026-05-02T07:46:10.299Z</time></trkpt><trkpt lat="42.3598245" lon="14.0662348"><ele>132.0</ele><time>2026-05-02T07:46:12.286Z</time></trkpt><trkpt lat="42.3596643" lon="14.0659052"><ele>133.0</ele><time>2026-05-02T07:46:14.288Z</time></trkpt><trkpt lat="42.3595005" lon="14.0655613"><ele>128.5</ele><time>2026-05-02T07:46:16.286Z</time></trkpt><trkpt lat="42.3593188" lon="14.0652791"><ele>124.0</ele><time>2026-05-02T07:46:18.287Z</time></trkpt><trkpt lat="42.3590925" lon="14.0650389"><ele>123.0</ele><time>2026-05-02T07:46:20.285Z</time></trkpt><trkpt lat="42.3589038" lon="14.0648056"><ele>122.0</ele><time>2026-05-02T07:46:22.287Z</time></trkpt><trkpt lat="42.3587376" lon="14.0644956"><ele>121.0</ele><time>2026-05-02T07:46:24.29Z</time></trkpt><trkpt lat="42.3585722" lon="14.0641789"><ele>120.0</ele><time>2026-05-02T07:46:26.285Z</time></trkpt><trkpt lat="42.3583582" lon="14.0639932"><ele>114.5</ele><time>2026-05-02T07:46:28.278Z</time></trkpt><trkpt lat="42.3581222" lon="14.0639195"><ele>109.0</ele><time>2026-05-02T07:46:30.281Z</time></trkpt><trkpt lat="42.3578384" lon="14.0639744"><ele>107.0</ele><time>2026-05-02T07:46:32.284Z</time></trkpt><trkpt lat="42.3576004" lon="14.0639255"><ele>105.0</ele><time>2026-05-02T07:46:34.286Z</time></trkpt><trkpt lat="42.3573519" lon="14.0637075"><ele>102.5</ele><time>2026-05-02T07:46:36.279Z</time></trkpt><trkpt lat="42.3570565" lon="14.0635728"><ele>100.0</ele><time>2026-05-02T07:46:38.281Z</time></trkpt><trkpt lat="42.3567795" lon="14.0635079"><ele>100.0</ele><time>2026-05-02T07:46:40.311Z</time></trkpt><trkpt lat="42.3564723" lon="14.0636129"><ele>100.0</ele><time>2026-05-02T07:46:42.294Z</time></trkpt><trkpt lat="42.3561857" lon="14.0638081"><ele>96.0</ele><time>2026-05-02T07:46:44.294Z</time></trkpt><trkpt lat="42.3559251" lon="14.0638877"><ele>92.0</ele><time>2026-05-02T07:46:46.303Z</time></trkpt><trkpt lat="42.3557086" lon="14.0637439"><ele>92.0</ele><time>2026-05-02T07:46:48.299Z</time></trkpt><trkpt lat="42.3555765" lon="14.0634479"><ele>92.0</ele><time>2026-05-02T07:46:50.293Z</time></trkpt><trkpt lat="42.3555025" lon="14.0630802"><ele>88.5</ele><time>2026-05-02T07:46:52.302Z</time></trkpt><trkpt lat="42.3553645" lon="14.0627472"><ele>85.0</ele><time>2026-05-02T07:46:54.298Z</time></trkpt><trkpt lat="42.3552011" lon="14.0624696"><ele>87.5</ele><time>2026-05-02T07:46:56.3Z</time></trkpt><trkpt lat="42.3550034" lon="14.0621802"><ele>90.0</ele><time>2026-05-02T07:46:58.298Z</time></trkpt><trkpt lat="42.3547913" lon="14.0618616"><ele>92.0</ele><time>2026-05-02T07:47:00.299Z</time></trkpt><trkpt lat="42.3545803" lon="14.0615235"><ele>94.0</ele><time>2026-05-02T07:47:02.296Z</time></trkpt><trkpt lat="42.3543771" lon="14.0611766"><ele>94.0</ele><time>2026-05-02T07:47:04.302Z</time></trkpt><trkpt lat="42.3541579" lon="14.060828"><ele>94.0</ele><time>2026-05-02T07:47:06.299Z</time></trkpt><trkpt lat="42.3539489" lon="14.0604554"><ele>94.0</ele><time>2026-05-02T07:47:08.294Z</time></trkpt><trkpt lat="42.3537523" lon="14.0600891"><ele>94.0</ele><time>2026-05-02T07:47:10.304Z</time></trkpt><trkpt lat="42.353576" lon="14.0597486"><ele>94.0</ele><time>2026-05-02T07:47:12.294Z</time></trkpt><trkpt lat="42.3534644" lon="14.0593433"><ele>94.0</ele><time>2026-05-02T07:47:14.29Z</time></trkpt><trkpt lat="42.353421" lon="14.0589098"><ele>93.5</ele><time>2026-05-02T07:47:16.291Z</time></trkpt><trkpt lat="42.3533839" lon="14.0584405"><ele>93.0</ele><time>2026-05-02T07:47:18.301Z</time></trkpt><trkpt lat="42.3533328" lon="14.057984"><ele>92.5</ele><time>2026-05-02T07:47:20.303Z</time></trkpt><trkpt lat="42.3532797" lon="14.0575274"><ele>92.0</ele><time>2026-05-02T07:47:22.302Z</time></trkpt><trkpt lat="42.3532195" lon="14.0570505"><ele>90.5</ele><time>2026-05-02T07:47:24.305Z</time></trkpt><trkpt lat="42.3531942" lon="14.0565881"><ele>89.0</ele><time>2026-05-02T07:47:26.306Z</time></trkpt><trkpt lat="42.3531451" lon="14.0561164"><ele>90.0</ele><time>2026-05-02T07:47:28.307Z</time></trkpt><trkpt lat="42.3530841" lon="14.0556335"><ele>91.0</ele><time>2026-05-02T07:47:30.302Z</time></trkpt><trkpt lat="42.3530357" lon="14.0551342"><ele>91.5</ele><time>2026-05-02T07:47:32.306Z</time></trkpt><trkpt lat="42.3530271" lon="14.0546673"><ele>92.0</ele><time>2026-05-02T07:47:34.314Z</time></trkpt><trkpt lat="42.353095" lon="14.054218"><ele>97.0</ele><time>2026-05-02T07:47:36.311Z</time></trkpt><trkpt lat="42.3531667" lon="14.053789"><ele>102.0</ele><time>2026-05-02T07:47:38.385Z</time></trkpt><trkpt lat="42.3531817" lon="14.053423"><ele>102.0</ele><time>2026-05-02T07:47:40.299Z</time></trkpt><trkpt lat="42.3530265" lon="14.053091"><ele>102.0</ele><time>2026-05-02T07:47:42.286Z</time></trkpt><trkpt lat="42.3528842" lon="14.0527653"><ele>104.5</ele><time>2026-05-02T07:47:44.285Z</time></trkpt><trkpt lat="42.3528467" lon="14.0523797"><ele>107.0</ele><time>2026-05-02T07:47:46.288Z</time></trkpt><trkpt lat="42.352928" lon="14.0520109"><ele>109.0</ele><time>2026-05-02T07:47:48.289Z</time></trkpt><trkpt lat="42.3530541" lon="14.051633"><ele>111.0</ele><time>2026-05-02T07:47:50.289Z</time></trkpt><trkpt lat="42.3531062" lon="14.0512635"><ele>111.0</ele><time>2026-05-02T07:47:52.291Z</time></trkpt><trkpt lat="42.3531201" lon="14.0509066"><ele>111.0</ele><time>2026-05-02T07:47:54.295Z</time></trkpt><trkpt lat="42.3531685" lon="14.0505289"><ele>112.0</ele><time>2026-05-02T07:47:56.293Z</time></trkpt><trkpt lat="42.3532409" lon="14.0501366"><ele>113.0</ele><time>2026-05-02T07:47:58.288Z</time></trkpt><trkpt lat="42.3531736" lon="14.0497151"><ele>115.5</ele><time>2026-05-02T07:48:00.29Z</time></trkpt><trkpt lat="42.3530742" lon="14.0493077"><ele>118.0</ele><time>2026-05-02T07:48:02.293Z</time></trkpt><trkpt lat="42.3530689" lon="14.0488585"><ele>118.5</ele><time>2026-05-02T07:48:04.283Z</time></trkpt><trkpt lat="42.353063" lon="14.0484324"><ele>119.0</ele><time>2026-05-02T07:48:06.288Z</time></trkpt><trkpt lat="42.352962" lon="14.0480933"><ele>119.0</ele><time>2026-05-02T07:48:08.293Z</time></trkpt><trkpt lat="42.352992" lon="14.047751"><ele>119.0</ele><time>2026-05-02T07:48:10.283Z</time></trkpt><trkpt lat="42.3531217" lon="14.047476"><ele>119.0</ele><time>2026-05-02T07:48:12.304Z</time></trkpt><trkpt lat="42.3532895" lon="14.0471786"><ele>119.0</ele><time>2026-05-02T07:48:14.286Z</time></trkpt><trkpt lat="42.3534062" lon="14.0468234"><ele>117.5</ele><time>2026-05-02T07:48:16.287Z</time></trkpt><trkpt lat="42.3535242" lon="14.0464433"><ele>116.0</ele><time>2026-05-02T07:48:18.29Z</time></trkpt><trkpt lat="42.3535992" lon="14.0460138"><ele>118.0</ele><time>2026-05-02T07:48:20.29Z</time></trkpt><trkpt lat="42.3536431" lon="14.045542"><ele>120.0</ele><time>2026-05-02T07:48:22.294Z</time></trkpt><trkpt lat="42.3536383" lon="14.0450885"><ele>122.5</ele><time>2026-05-02T07:48:24.295Z</time></trkpt><trkpt lat="42.3536044" lon="14.0446252"><ele>125.0</ele><time>2026-05-02T07:48:26.307Z</time></trkpt><trkpt lat="42.3536255" lon="14.0441745"><ele>127.0</ele><time>2026-05-02T07:48:28.303Z</time></trkpt><trkpt lat="42.3537278" lon="14.0437562"><ele>129.0</ele><time>2026-05-02T07:48:30.306Z</time></trkpt><trkpt lat="42.3538467" lon="14.0433622"><ele>130.5</ele><time>2026-05-02T07:48:32.302Z</time></trkpt><trkpt lat="42.3539395" lon="14.0429456"><ele>132.0</ele><time>2026-05-02T07:48:34.311Z</time></trkpt><trkpt lat="42.3540228" lon="14.0425261"><ele>132.0</ele><time>2026-05-02T07:48:36.316Z</time></trkpt><trkpt lat="42.3540873" lon="14.0420936"><ele>132.0</ele><time>2026-05-02T07:48:38.311Z</time></trkpt><trkpt lat="42.3541654" lon="14.041644"><ele>133.5</ele><time>2026-05-02T07:48:40.31Z</time></trkpt><trkpt lat="42.3542331" lon="14.0412461"><ele>135.0</ele><time>2026-05-02T07:48:42.308Z</time></trkpt><trkpt lat="42.3542928" lon="14.0408413"><ele>137.5</ele><time>2026-05-02T07:48:44.313Z</time></trkpt><trkpt lat="42.3543538" lon="14.0404262"><ele>140.0</ele><time>2026-05-02T07:48:46.307Z</time></trkpt><trkpt lat="42.3544404" lon="14.0400091"><ele>140.5</ele><time>2026-05-02T07:48:48.299Z</time></trkpt><trkpt lat="42.3545071" lon="14.039591"><ele>141.0</ele><time>2026-05-02T07:48:50.307Z</time></trkpt><trkpt lat="42.3545815" lon="14.0391402"><ele>139.5</ele><time>2026-05-02T07:48:52.311Z</time></trkpt><trkpt lat="42.3546493" lon="14.038706"><ele>138.0</ele><time>2026-05-02T07:48:54.314Z</time></trkpt><trkpt lat="42.3547106" lon="14.0382646"><ele>135.5</ele><time>2026-05-02T07:48:56.306Z</time></trkpt><trkpt lat="42.3547915" lon="14.0378249"><ele>133.0</ele><time>2026-05-02T07:48:58.309Z</time></trkpt><trkpt lat="42.3548433" lon="14.0373919"><ele>133.0</ele><time>2026-05-02T07:49:00.316Z</time></trkpt><trkpt lat="42.3548964" lon="14.0369427"><ele>133.0</ele><time>2026-05-02T07:49:02.314Z</time></trkpt><trkpt lat="42.3548921" lon="14.0364931"><ele>133.5</ele><time>2026-05-02T07:49:04.317Z</time></trkpt><trkpt lat="42.354895" lon="14.0360356"><ele>134.0</ele><time>2026-05-02T07:49:06.319Z</time></trkpt><trkpt lat="42.354897" lon="14.0355796"><ele>135.5</ele><time>2026-05-02T07:49:08.318Z</time></trkpt><trkpt lat="42.354889" lon="14.0351145"><ele>137.0</ele><time>2026-05-02T07:49:10.323Z</time></trkpt><trkpt lat="42.3548926" lon="14.0346634"><ele>137.5</ele><time>2026-05-02T07:49:12.317Z</time></trkpt><trkpt lat="42.3548789" lon="14.0342014"><ele>138.0</ele><time>2026-05-02T07:49:14.33Z</time></trkpt><trkpt lat="42.354877" lon="14.0337516"><ele>138.5</ele><time>2026-05-02T07:49:16.32Z</time></trkpt><trkpt lat="42.354869" lon="14.0332996"><ele>139.0</ele><time>2026-05-02T07:49:18.32Z</time></trkpt><trkpt lat="42.3548524" lon="14.0328464"><ele>139.0</ele><time>2026-05-02T07:49:20.323Z</time></trkpt><trkpt lat="42.3548587" lon="14.0324095"><ele>139.0</ele><time>2026-05-02T07:49:22.322Z</time></trkpt><trkpt lat="42.3548508" lon="14.0319499"><ele>139.0</ele><time>2026-05-02T07:49:24.32Z</time></trkpt><trkpt lat="42.354846" lon="14.0314993"><ele>139.0</ele><time>2026-05-02T07:49:26.322Z</time></trkpt><trkpt lat="42.3548407" lon="14.0310428"><ele>140.0</ele><time>2026-05-02T07:49:28.318Z</time></trkpt><trkpt lat="42.3548441" lon="14.0306126"><ele>141.0</ele><time>2026-05-02T07:49:30.313Z</time></trkpt><trkpt lat="42.3548334" lon="14.0301516"><ele>143.0</ele><time>2026-05-02T07:49:32.315Z</time></trkpt><trkpt lat="42.3548354" lon="14.0296968"><ele>145.0</ele><time>2026-05-02T07:49:34.315Z</time></trkpt><trkpt lat="42.3548315" lon="14.0292384"><ele>145.0</ele><time>2026-05-02T07:49:36.313Z</time></trkpt><trkpt lat="42.3548299" lon="14.0287598"><ele>145.0</ele><time>2026-05-02T07:49:38.314Z</time></trkpt><trkpt lat="42.3548207" lon="14.0282994"><ele>145.0</ele><time>2026-05-02T07:49:40.315Z</time></trkpt><trkpt lat="42.3548183" lon="14.0278363"><ele>145.0</ele><time>2026-05-02T07:49:42.315Z</time></trkpt><trkpt lat="42.3548105" lon="14.027377"><ele>146.0</ele><time>2026-05-02T07:49:44.316Z</time></trkpt><trkpt lat="42.3547978" lon="14.0269158"><ele>147.0</ele><time>2026-05-02T07:49:46.318Z</time></trkpt><trkpt lat="42.3548002" lon="14.0264507"><ele>147.0</ele><time>2026-05-02T07:49:48.316Z</time></trkpt><trkpt lat="42.3547885" lon="14.0259898"><ele>147.0</ele><time>2026-05-02T07:49:50.319Z</time></trkpt><trkpt lat="42.354792" lon="14.0255246"><ele>148.0</ele><time>2026-05-02T07:49:52.318Z</time></trkpt><trkpt lat="42.3548042" lon="14.02506"><ele>149.0</ele><time>2026-05-02T07:49:54.31Z</time></trkpt><trkpt lat="42.3548197" lon="14.0246686"><ele>149.5</ele><time>2026-05-02T07:49:56.308Z</time></trkpt><trkpt lat="42.3548507" lon="14.024296"><ele>150.0</ele><time>2026-05-02T07:49:58.312Z</time></trkpt><trkpt lat="42.3548646" lon="14.0239753"><ele>150.4</ele><time>2026-05-02T07:50:00.307Z</time></trkpt><trkpt lat="42.3548743" lon="14.0237351"><ele>150.8</ele><time>2026-05-02T07:50:02.39Z</time></trkpt><trkpt lat="42.3548148" lon="14.0236594"><ele>151.2</ele><time>2026-05-02T07:50:04.39Z</time></trkpt><trkpt lat="42.3547521" lon="14.0236763"><ele>151.6</ele><time>2026-05-02T07:50:06.301Z</time></trkpt><trkpt lat="42.3546628" lon="14.0237582"><ele>152.0</ele><time>2026-05-02T07:50:08.306Z</time></trkpt><trkpt lat="42.3545446" lon="14.0239002"><ele>152.5</ele><time>2026-05-02T07:50:10.301Z</time></trkpt><trkpt lat="42.3544194" lon="14.0240497"><ele>153.0</ele><time>2026-05-02T07:50:12.309Z</time></trkpt><trkpt lat="42.3543144" lon="14.0241562"><ele>153.5</ele><time>2026-05-02T07:50:14.305Z</time></trkpt><trkpt lat="42.3542492" lon="14.02425"><ele>154.0</ele><time>2026-05-02T07:50:16.324Z</time></trkpt><trkpt lat="42.3541476" lon="14.0243445"><ele>154.0</ele><time>2026-05-02T07:50:20.316Z</time></trkpt><trkpt lat="42.3540597" lon="14.0243295"><ele>154.0</ele><time>2026-05-02T07:50:22.315Z</time></trkpt><trkpt lat="42.3539406" lon="14.0242455"><ele>154.0</ele><time>2026-05-02T07:50:24.313Z</time></trkpt><trkpt lat="42.3537842" lon="14.0241336"><ele>154.0</ele><time>2026-05-02T07:50:26.309Z</time></trkpt><trkpt lat="42.3536248" lon="14.0240714"><ele>155.33333333333334</ele><time>2026-05-02T07:50:28.313Z</time></trkpt><trkpt lat="42.3534419" lon="14.0240685"><ele>156.66666666666666</ele><time>2026-05-02T07:50:30.309Z</time></trkpt><trkpt lat="42.3532508" lon="14.0240644"><ele>158.0</ele><time>2026-05-02T07:50:32.311Z</time></trkpt><trkpt lat="42.3530497" lon="14.0240271"><ele>160.66666666666666</ele><time>2026-05-02T07:50:34.302Z</time></trkpt><trkpt lat="42.352857" lon="14.0239874"><ele>163.33333333333334</ele><time>2026-05-02T07:50:36.309Z</time></trkpt><trkpt lat="42.3526649" lon="14.0239473"><ele>166.0</ele><time>2026-05-02T07:50:38.311Z</time></trkpt><trkpt lat="42.3524775" lon="14.0239011"><ele>166.0</ele><time>2026-05-02T07:50:40.307Z</time></trkpt><trkpt lat="42.3523196" lon="14.0238837"><ele>166.0</ele><time>2026-05-02T07:50:42.31Z</time></trkpt><trkpt lat="42.3521331" lon="14.0238634"><ele>166.0</ele><time>2026-05-02T07:50:44.321Z</time></trkpt><trkpt lat="42.3519695" lon="14.0238926"><ele>168.33333333333334</ele><time>2026-05-02T07:50:46.315Z</time></trkpt><trkpt lat="42.3517856" lon="14.0239692"><ele>170.66666666666666</ele><time>2026-05-02T07:50:48.315Z</time></trkpt><trkpt lat="42.3516034" lon="14.0240434"><ele>173.0</ele><time>2026-05-02T07:50:50.316Z</time></trkpt><trkpt lat="42.3514328" lon="14.0240773"><ele>175.66666666666666</ele><time>2026-05-02T07:50:52.308Z</time></trkpt><trkpt lat="42.3512734" lon="14.0240269"><ele>178.33333333333334</ele><time>2026-05-02T07:50:54.311Z</time></trkpt><trkpt lat="42.3511895" lon="14.0238965"><ele>181.0</ele><time>2026-05-02T07:50:56.303Z</time></trkpt><trkpt lat="42.3511523" lon="14.0236684"><ele>181.0</ele><time>2026-05-02T07:50:58.308Z</time></trkpt><trkpt lat="42.3510898" lon="14.0234193"><ele>181.0</ele><time>2026-05-02T07:51:00.307Z</time></trkpt><trkpt lat="42.3509911" lon="14.0231913"><ele>181.0</ele><time>2026-05-02T07:51:02.301Z</time></trkpt><trkpt lat="42.3508417" lon="14.0230443"><ele>182.66666666666669</ele><time>2026-05-02T07:51:04.303Z</time></trkpt><trkpt lat="42.3507101" lon="14.0228854"><ele>184.33333333333334</ele><time>2026-05-02T07:51:06.311Z</time></trkpt><trkpt lat="42.350591" lon="14.0226829"><ele>186.0</ele><time>2026-05-02T07:51:08.308Z</time></trkpt><trkpt lat="42.3504709" lon="14.0224896"><ele>187.33333333333334</ele><time>2026-05-02T07:51:10.309Z</time></trkpt><trkpt lat="42.3503573" lon="14.0223251"><ele>188.66666666666669</ele><time>2026-05-02T07:51:12.307Z</time></trkpt><trkpt lat="42.3502218" lon="14.0222208"><ele>190.0</ele><time>2026-05-02T07:51:14.31Z</time></trkpt><trkpt lat="42.3500788" lon="14.0222677"><ele>190.0</ele><time>2026-05-02T07:51:16.314Z</time></trkpt><trkpt lat="42.3499341" lon="14.0224299"><ele>190.0</ele><time>2026-05-02T07:51:18.339Z</time></trkpt><trkpt lat="42.3497631" lon="14.0225886"><ele>190.0</ele><time>2026-05-02T07:51:20.313Z</time></trkpt><trkpt lat="42.3495468" lon="14.0227926"><ele>190.0</ele><time>2026-05-02T07:51:22.305Z</time></trkpt><trkpt lat="42.3493345" lon="14.0229929"><ele>190.0</ele><time>2026-05-02T07:51:24.309Z</time></trkpt><trkpt lat="42.3491426" lon="14.0231625"><ele>190.0</ele><time>2026-05-02T07:51:26.31Z</time></trkpt><trkpt lat="42.3490174" lon="14.0232986"><ele>190.0</ele><time>2026-05-02T07:51:28.31Z</time></trkpt><trkpt lat="42.3489063" lon="14.0233581"><ele>190.0</ele><time>2026-05-02T07:51:30.3Z</time></trkpt><trkpt lat="42.3487943" lon="14.0232966"><ele>190.0</ele><time>2026-05-02T07:51:32.3Z</time></trkpt><trkpt lat="42.3486851" lon="14.0230941"><ele>192.5</ele><time>2026-05-02T07:51:34.3Z</time></trkpt><trkpt lat="42.3485886" lon="14.0228064"><ele>195.0</ele><time>2026-05-02T07:51:36.304Z</time></trkpt><trkpt lat="42.3484622" lon="14.022519"><ele>195.0</ele><time>2026-05-02T07:51:38.302Z</time></trkpt><trkpt lat="42.3483117" lon="14.0222517"><ele>195.0</ele><time>2026-05-02T07:51:40.309Z</time></trkpt><trkpt lat="42.3481158" lon="14.0219846"><ele>195.5</ele><time>2026-05-02T07:51:42.309Z</time></trkpt><trkpt lat="42.3479148" lon="14.0217267"><ele>196.0</ele><time>2026-05-02T07:51:44.313Z</time></trkpt><trkpt lat="42.3477269" lon="14.0214737"><ele>196.0</ele><time>2026-05-02T07:51:46.312Z</time></trkpt><trkpt lat="42.3475457" lon="14.0212069"><ele>196.0</ele><time>2026-05-02T07:51:48.324Z</time></trkpt><trkpt lat="42.3473547" lon="14.0209402"><ele>197.0</ele><time>2026-05-02T07:51:50.314Z</time></trkpt><trkpt lat="42.3471641" lon="14.020642"><ele>198.0</ele><time>2026-05-02T07:51:52.315Z</time></trkpt><trkpt lat="42.3470356" lon="14.020354"><ele>198.0</ele><time>2026-05-02T07:51:54.322Z</time></trkpt><trkpt lat="42.3468584" lon="14.0200363"><ele>198.0</ele><time>2026-05-02T07:51:56.317Z</time></trkpt><trkpt lat="42.3466841" lon="14.0196897"><ele>197.5</ele><time>2026-05-02T07:51:58.316Z</time></trkpt><trkpt lat="42.3465397" lon="14.0193285"><ele>197.0</ele><time>2026-05-02T07:52:00.314Z</time></trkpt><trkpt lat="42.346393" lon="14.0189639"><ele>199.0</ele><time>2026-05-02T07:52:02.313Z</time></trkpt><trkpt lat="42.3462438" lon="14.0186081"><ele>201.0</ele><time>2026-05-02T07:52:04.311Z</time></trkpt><trkpt lat="42.3460742" lon="14.0183008"><ele>202.0</ele><time>2026-05-02T07:52:06.312Z</time></trkpt><trkpt lat="42.3458703" lon="14.017955"><ele>203.0</ele><time>2026-05-02T07:52:08.314Z</time></trkpt><trkpt lat="42.3456785" lon="14.0175977"><ele>204.0</ele><time>2026-05-02T07:52:10.317Z</time></trkpt><trkpt lat="42.3454936" lon="14.0172494"><ele>205.0</ele><time>2026-05-02T07:52:12.321Z</time></trkpt><trkpt lat="42.3453303" lon="14.0168948"><ele>206.0</ele><time>2026-05-02T07:52:14.305Z</time></trkpt><trkpt lat="42.3451852" lon="14.0166111"><ele>207.0</ele><time>2026-05-02T07:52:16.312Z</time></trkpt><trkpt lat="42.3451067" lon="14.016361"><ele>207.0</ele><time>2026-05-02T07:52:18.315Z</time></trkpt><trkpt lat="42.3450366" lon="14.0161504"><ele>207.0</ele><time>2026-05-02T07:52:20.312Z</time></trkpt><trkpt lat="42.3449107" lon="14.0161126"><ele>207.0</ele><time>2026-05-02T07:52:22.313Z</time></trkpt><trkpt lat="42.3447516" lon="14.0161728"><ele>207.0</ele><time>2026-05-02T07:52:24.32Z</time></trkpt><trkpt lat="42.3445281" lon="14.0162244"><ele>207.0</ele><time>2026-05-02T07:52:26.306Z</time></trkpt><trkpt lat="42.3442923" lon="14.0162945"><ele>207.0</ele><time>2026-05-02T07:52:28.318Z</time></trkpt><trkpt lat="42.3440816" lon="14.0163373"><ele>207.0</ele><time>2026-05-02T07:52:30.309Z</time></trkpt><trkpt lat="42.3438822" lon="14.0163731"><ele>207.0</ele><time>2026-05-02T07:52:32.307Z</time></trkpt><trkpt lat="42.3437031" lon="14.0163429"><ele>206.0</ele><time>2026-05-02T07:52:34.302Z</time></trkpt><trkpt lat="42.3435311" lon="14.0163089"><ele>205.0</ele><time>2026-05-02T07:52:36.308Z</time></trkpt><trkpt lat="42.3433614" lon="14.0162649"><ele>204.0</ele><time>2026-05-02T07:52:38.306Z</time></trkpt><trkpt lat="42.3431856" lon="14.0161948"><ele>200.33333333333331</ele><time>2026-05-02T07:52:40.305Z</time></trkpt><trkpt lat="42.3429972" lon="14.016137"><ele>196.66666666666666</ele><time>2026-05-02T07:52:42.305Z</time></trkpt><trkpt lat="42.3428378" lon="14.0160782"><ele>193.0</ele><time>2026-05-02T07:52:44.293Z</time></trkpt><trkpt lat="42.3427062" lon="14.0161342"><ele>193.0</ele><time>2026-05-02T07:52:46.307Z</time></trkpt><trkpt lat="42.3426291" lon="14.0163301"><ele>193.0</ele><time>2026-05-02T07:52:48.299Z</time></trkpt><trkpt lat="42.3425778" lon="14.0165474"><ele>193.0</ele><time>2026-05-02T07:52:50.315Z</time></trkpt><trkpt lat="42.3425083" lon="14.0167536"><ele>192.60000000000002</ele><time>2026-05-02T07:52:52.302Z</time></trkpt><trkpt lat="42.342477" lon="14.0169224"><ele>192.20000000000002</ele><time>2026-05-02T07:52:54.304Z</time></trkpt><trkpt lat="42.3424463" lon="14.0170381"><ele>191.8</ele><time>2026-05-02T07:52:56.296Z</time></trkpt><trkpt lat="42.3423337" lon="14.0170883"><ele>191.4</ele><time>2026-05-02T07:52:58.305Z</time></trkpt><trkpt lat="42.3422328" lon="14.0171219"><ele>191.0</ele><time>2026-05-02T07:53:00.302Z</time></trkpt><trkpt lat="42.3421539" lon="14.0171737"><ele>188.8</ele><time>2026-05-02T07:53:02.302Z</time></trkpt><trkpt lat="42.3420702" lon="14.017226"><ele>186.60000000000002</ele><time>2026-05-02T07:53:04.306Z</time></trkpt><trkpt lat="42.3419943" lon="14.0173051"><ele>184.4</ele><time>2026-05-02T07:53:06.312Z</time></trkpt><trkpt lat="42.341917" lon="14.0173634"><ele>182.2</ele><time>2026-05-02T07:53:08.302Z</time></trkpt><trkpt lat="42.3418595" lon="14.0174356"><ele>180.0</ele><time>2026-05-02T07:53:14.306Z</time></trkpt><trkpt lat="42.3417817" lon="14.0175276"><ele>180.0</ele><time>2026-05-02T07:53:18.314Z</time></trkpt><trkpt lat="42.3416951" lon="14.0175049"><ele>180.0</ele><time>2026-05-02T07:53:22.314Z</time></trkpt><trkpt lat="42.3418031" lon="14.0174846"><ele>180.0</ele><time>2026-05-02T07:53:38.325Z</time></trkpt><trkpt lat="42.3418785" lon="14.0174371"><ele>180.0</ele><time>2026-05-02T07:53:40.323Z</time></trkpt><trkpt lat="42.3419737" lon="14.0173253"><ele>180.0</ele><time>2026-05-02T07:53:42.323Z</time></trkpt><trkpt lat="42.3420012" lon="14.0172309"><ele>180.0</ele><time>2026-05-02T07:53:44.317Z</time></trkpt><trkpt lat="42.3419858" lon="14.0170251"><ele>180.0</ele><time>2026-05-02T07:53:48.323Z</time></trkpt><trkpt lat="42.3419966" lon="14.0169142"><ele>180.0</ele><time>2026-05-02T07:53:50.327Z</time></trkpt><trkpt lat="42.3419271" lon="14.0168107"><ele>180.0</ele><time>2026-05-02T07:53:52.342Z</time></trkpt><trkpt lat="42.3417844" lon="14.0167001"><ele>179.33333333333334</ele><time>2026-05-02T07:53:54.315Z</time></trkpt><trkpt lat="42.3416425" lon="14.0165856"><ele>178.66666666666669</ele><time>2026-05-02T07:53:56.315Z</time></trkpt><trkpt lat="42.341506" lon="14.0164949"><ele>178.0</ele><time>2026-05-02T07:53:58.314Z</time></trkpt><trkpt lat="42.3413823" lon="14.0163976"><ele>177.0</ele><time>2026-05-02T07:54:00.314Z</time></trkpt><trkpt lat="42.3412496" lon="14.0162963"><ele>176.0</ele><time>2026-05-02T07:54:02.313Z</time></trkpt><trkpt lat="42.3410941" lon="14.0161815"><ele>175.0</ele><time>2026-05-02T07:54:04.312Z</time></trkpt><trkpt lat="42.3409599" lon="14.0160353"><ele>175.0</ele><time>2026-05-02T07:54:06.309Z</time></trkpt><trkpt lat="42.3408492" lon="14.015866"><ele>175.0</ele><time>2026-05-02T07:54:08.315Z</time></trkpt><trkpt lat="42.3407486" lon="14.0156817"><ele>175.0</ele><time>2026-05-02T07:54:10.318Z</time></trkpt><trkpt lat="42.3406641" lon="14.015475"><ele>176.25</ele><time>2026-05-02T07:54:12.319Z</time></trkpt><trkpt lat="42.3406119" lon="14.0152965"><ele>177.5</ele><time>2026-05-02T07:54:14.321Z</time></trkpt><trkpt lat="42.3405362" lon="14.015197"><ele>178.75</ele><time>2026-05-02T07:54:16.315Z</time></trkpt><trkpt lat="42.3403832" lon="14.0151875"><ele>180.0</ele><time>2026-05-02T07:54:18.322Z</time></trkpt><trkpt lat="42.3402014" lon="14.0153045"><ele>181.0</ele><time>2026-05-02T07:54:20.322Z</time></trkpt><trkpt lat="42.3400525" lon="14.015422"><ele>182.0</ele><time>2026-05-02T07:54:22.322Z</time></trkpt><trkpt lat="42.3399386" lon="14.0155146"><ele>183.0</ele><time>2026-05-02T07:54:24.33Z</time></trkpt><trkpt lat="42.3398423" lon="14.0155988"><ele>184.0</ele><time>2026-05-02T07:54:26.325Z</time></trkpt><trkpt lat="42.3397558" lon="14.015663"><ele>182.75</ele><time>2026-05-02T07:54:28.321Z</time></trkpt><trkpt lat="42.339622" lon="14.0156445"><ele>181.5</ele><time>2026-05-02T07:54:30.324Z</time></trkpt><trkpt lat="42.3394789" lon="14.0155517"><ele>180.25</ele><time>2026-05-02T07:54:32.318Z</time></trkpt><trkpt lat="42.3393529" lon="14.0154658"><ele>179.0</ele><time>2026-05-02T07:54:34.317Z</time></trkpt><trkpt lat="42.3392605" lon="14.015336"><ele>179.0</ele><time>2026-05-02T07:54:36.303Z</time></trkpt><trkpt lat="42.3392207" lon="14.0151136"><ele>179.0</ele><time>2026-05-02T07:54:38.307Z</time></trkpt><trkpt lat="42.3391254" lon="14.0148394"><ele>179.0</ele><time>2026-05-02T07:54:40.387Z</time></trkpt><trkpt lat="42.3390295" lon="14.0146223"><ele>178.0</ele><time>2026-05-02T07:54:42.393Z</time></trkpt><trkpt lat="42.3389286" lon="14.014385"><ele>177.0</ele><time>2026-05-02T07:54:44.402Z</time></trkpt><trkpt lat="42.3388383" lon="14.0141748"><ele>176.0</ele><time>2026-05-02T07:54:46.408Z</time></trkpt><trkpt lat="42.3387449" lon="14.0139473"><ele>180.0</ele><time>2026-05-02T07:54:48.406Z</time></trkpt><trkpt lat="42.33863" lon="14.0136706"><ele>184.0</ele><time>2026-05-02T07:54:50.408Z</time></trkpt><trkpt lat="42.338542" lon="14.013389"><ele>186.33333333333334</ele><time>2026-05-02T07:54:52.417Z</time></trkpt><trkpt lat="42.3384685" lon="14.013166"><ele>188.66666666666666</ele><time>2026-05-02T07:54:54.415Z</time></trkpt><trkpt lat="42.3383988" lon="14.0129681"><ele>191.0</ele><time>2026-05-02T07:54:56.403Z</time></trkpt><trkpt lat="42.3383438" lon="14.0128103"><ele>191.0</ele><time>2026-05-02T07:54:58.392Z</time></trkpt><trkpt lat="42.3383757" lon="14.0127366"><ele>191.0</ele><time>2026-05-02T07:55:00.394Z</time></trkpt><trkpt lat="42.3384359" lon="14.0126633"><ele>191.0</ele><time>2026-05-02T07:55:02.335Z</time></trkpt><trkpt lat="42.338581" lon="14.0126077"><ele>191.0</ele><time>2026-05-02T07:55:04.32Z</time></trkpt><trkpt lat="42.338768" lon="14.0124934"><ele>192.75</ele><time>2026-05-02T07:55:06.323Z</time></trkpt><trkpt lat="42.3388652" lon="14.0124268"><ele>194.5</ele><time>2026-05-02T07:55:08.334Z</time></trkpt><trkpt lat="42.3387953" lon="14.0123171"><ele>196.25</ele><time>2026-05-02T07:55:12.345Z</time></trkpt><trkpt lat="42.3386447" lon="14.0122876"><ele>198.0</ele><time>2026-05-02T07:55:14.341Z</time></trkpt><trkpt lat="42.3384577" lon="14.012167"><ele>198.0</ele><time>2026-05-02T07:55:16.321Z</time></trkpt><trkpt lat="42.338214" lon="14.0120741"><ele>198.0</ele><time>2026-05-02T07:55:18.325Z</time></trkpt><trkpt lat="42.3379641" lon="14.011983"><ele>196.5</ele><time>2026-05-02T07:55:20.33Z</time></trkpt><trkpt lat="42.3377122" lon="14.0118209"><ele>195.0</ele><time>2026-05-02T07:55:22.319Z</time></trkpt><trkpt lat="42.3375039" lon="14.01161"><ele>195.0</ele><time>2026-05-02T07:55:24.332Z</time></trkpt><trkpt lat="42.3373156" lon="14.0113402"><ele>195.0</ele><time>2026-05-02T07:55:26.325Z</time></trkpt><trkpt lat="42.3371609" lon="14.011066"><ele>190.33333333333334</ele><time>2026-05-02T07:55:28.327Z</time></trkpt><trkpt lat="42.3369893" lon="14.0109155"><ele>185.66666666666669</ele><time>2026-05-02T07:55:30.317Z</time></trkpt><trkpt lat="42.3368069" lon="14.0109322"><ele>181.0</ele><time>2026-05-02T07:55:32.325Z</time></trkpt><trkpt lat="42.3365861" lon="14.0110503"><ele>186.5</ele><time>2026-05-02T07:55:34.33Z</time></trkpt><trkpt lat="42.3363719" lon="14.0112365"><ele>192.0</ele><time>2026-05-02T07:55:36.331Z</time></trkpt><trkpt lat="42.3362481" lon="14.0115234"><ele>193.0</ele><time>2026-05-02T07:55:38.331Z</time></trkpt><trkpt lat="42.3361487" lon="14.0118476"><ele>194.0</ele><time>2026-05-02T07:55:40.33Z</time></trkpt><trkpt lat="42.3360419" lon="14.0121486"><ele>194.0</ele><time>2026-05-02T07:55:42.321Z</time></trkpt><trkpt lat="42.3360093" lon="14.0124662"><ele>194.0</ele><time>2026-05-02T07:55:44.329Z</time></trkpt><trkpt lat="42.3360283" lon="14.0128413"><ele>196.5</ele><time>2026-05-02T07:55:46.332Z</time></trkpt><trkpt lat="42.3360389" lon="14.0132283"><ele>199.0</ele><time>2026-05-02T07:55:48.326Z</time></trkpt><trkpt lat="42.3360541" lon="14.0136628"><ele>198.0</ele><time>2026-05-02T07:55:50.326Z</time></trkpt><trkpt lat="42.338214" lon="14.0120741"><ele>193.0</ele><time>2026-05-02T07:55:18.325Z</time></trkpt><trkpt lat="42.3379641" lon="14.011983"><ele>188.0</ele><time>2026-05-02T07:55:20.33Z</time></trkpt><trkpt lat="42.3377122" lon="14.0118209"><ele>191.5</ele><time>2026-05-02T07:55:22.319Z</time></trkpt><trkpt lat="42.3375039" lon="14.01161"><ele>195.0</ele><time>2026-05-02T07:55:24.332Z</time></trkpt><trkpt lat="42.3373156" lon="14.0113402"><ele>188.0</ele><time>2026-05-02T07:55:26.325Z</time></trkpt><trkpt lat="42.3371609" lon="14.011066"><ele>181.0</ele><time>2026-05-02T07:55:28.327Z</time></trkpt><trkpt lat="42.3369893" lon="14.0109155"><ele>181.0</ele><time>2026-05-02T07:55:30.317Z</time></trkpt><trkpt lat="42.3368069" lon="14.0109322"><ele>181.0</ele><time>2026-05-02T07:55:32.325Z</time></trkpt><trkpt lat="42.3365861" lon="14.0110503"><ele>181.0</ele><time>2026-05-02T07:55:34.33Z</time></trkpt><trkpt lat="42.3363719" lon="14.0112365"><ele>186.5</ele><time>2026-05-02T07:55:36.331Z</time></trkpt><trkpt lat="42.3362481" lon="14.0115234"><ele>192.0</ele><time>2026-05-02T07:55:38.331Z</time></trkpt><trkpt lat="42.3361487" lon="14.0118476"><ele>193.0</ele><time>2026-05-02T07:55:40.33Z</time></trkpt><trkpt lat="42.3360419" lon="14.0121486"><ele>194.0</ele><time>2026-05-02T07:55:42.321Z</time></trkpt><trkpt lat="42.3360093" lon="14.0124662"><ele>196.5</ele><time>2026-05-02T07:55:44.329Z</time></trkpt><trkpt lat="42.3360283" lon="14.0128413"><ele>199.0</ele><time>2026-05-02T07:55:46.332Z</time></trkpt><trkpt lat="42.3360389" lon="14.0132283"><ele>201.0</ele><time>2026-05-02T07:55:48.326Z</time></trkpt><trkpt lat="42.3360541" lon="14.0136628"><ele>203.0</ele><time>2026-05-02T07:55:50.326Z</time></trkpt><trkpt lat="42.3360569" lon="14.0140913"><ele>203.5</ele><time>2026-05-02T07:55:52.329Z</time></trkpt><trkpt lat="42.336052" lon="14.0144561"><ele>204.0</ele><time>2026-05-02T07:55:54.327Z</time></trkpt><trkpt lat="42.3360878" lon="14.0147236"><ele>204.0</ele><time>2026-05-02T07:55:56.356Z</time></trkpt><trkpt lat="42.3361722" lon="14.0149461"><ele>204.0</ele><time>2026-05-02T07:55:58.334Z</time></trkpt><trkpt lat="42.3361831" lon="14.0151193"><ele>204.0</ele><time>2026-05-02T07:56:00.338Z</time></trkpt><trkpt lat="42.3360637" lon="14.0151753"><ele>204.0</ele><time>2026-05-02T07:56:02.333Z</time></trkpt><trkpt lat="42.335909" lon="14.0150494"><ele>204.0</ele><time>2026-05-02T07:56:04.325Z</time></trkpt><trkpt lat="42.3357672" lon="14.0148967"><ele>204.0</ele><time>2026-05-02T07:56:06.322Z</time></trkpt><trkpt lat="42.3356552" lon="14.0146929"><ele>204.0</ele><time>2026-05-02T07:56:08.33Z</time></trkpt><trkpt lat="42.3355338" lon="14.0145593"><ele>205.5</ele><time>2026-05-02T07:56:10.325Z</time></trkpt><trkpt lat="42.3353275" lon="14.0145614"><ele>207.0</ele><time>2026-05-02T07:56:12.328Z</time></trkpt><trkpt lat="42.3350523" lon="14.0145531"><ele>207.0</ele><time>2026-05-02T07:56:14.335Z</time></trkpt><trkpt lat="42.3347421" lon="14.0144934"><ele>207.0</ele><time>2026-05-02T07:56:16.331Z</time></trkpt><trkpt lat="42.3344434" lon="14.0144628"><ele>203.5</ele><time>2026-05-02T07:56:18.333Z</time></trkpt><trkpt lat="42.3341676" lon="14.0144236"><ele>200.0</ele><time>2026-05-02T07:56:20.336Z</time></trkpt><trkpt lat="42.3338731" lon="14.0143877"><ele>198.0</ele><time>2026-05-02T07:56:22.334Z</time></trkpt><trkpt lat="42.333602" lon="14.0143336"><ele>196.0</ele><time>2026-05-02T07:56:24.33Z</time></trkpt><trkpt lat="42.3333391" lon="14.0142891"><ele>196.0</ele><time>2026-05-02T07:56:26.342Z</time></trkpt><trkpt lat="42.3330639" lon="14.0142633"><ele>196.0</ele><time>2026-05-02T07:56:28.341Z</time></trkpt><trkpt lat="42.3327823" lon="14.0142398"><ele>194.5</ele><time>2026-05-02T07:56:30.335Z</time></trkpt><trkpt lat="42.3325054" lon="14.0142108"><ele>193.0</ele><time>2026-05-02T07:56:32.414Z</time></trkpt><trkpt lat="42.332246" lon="14.0141873"><ele>188.5</ele><time>2026-05-02T07:56:34.414Z</time></trkpt><trkpt lat="42.3319797" lon="14.0142414"><ele>184.0</ele><time>2026-05-02T07:56:36.394Z</time></trkpt><trkpt lat="42.3317088" lon="14.0143895"><ele>184.0</ele><time>2026-05-02T07:56:38.394Z</time></trkpt><trkpt lat="42.3314301" lon="14.0145788"><ele>184.0</ele><time>2026-05-02T07:56:40.418Z</time></trkpt><trkpt lat="42.3311682" lon="14.0147749"><ele>180.5</ele><time>2026-05-02T07:56:42.414Z</time></trkpt><trkpt lat="42.3309129" lon="14.0149656"><ele>177.0</ele><time>2026-05-02T07:56:44.411Z</time></trkpt><trkpt lat="42.3306482" lon="14.015025"><ele>173.5</ele><time>2026-05-02T07:56:46.41Z</time></trkpt><trkpt lat="42.3303916" lon="14.0149333"><ele>170.0</ele><time>2026-05-02T07:56:48.393Z</time></trkpt><trkpt lat="42.3301802" lon="14.0147093"><ele>170.0</ele><time>2026-05-02T07:56:50.395Z</time></trkpt><trkpt lat="42.3299757" lon="14.0144199"><ele>170.0</ele><time>2026-05-02T07:56:52.414Z</time></trkpt><trkpt lat="42.3297672" lon="14.0141208"><ele>166.5</ele><time>2026-05-02T07:56:54.412Z</time></trkpt><trkpt lat="42.3295717" lon="14.0138151"><ele>163.0</ele><time>2026-05-02T07:56:56.411Z</time></trkpt><trkpt lat="42.3293824" lon="14.0135171"><ele>160.5</ele><time>2026-05-02T07:56:58.415Z</time></trkpt><trkpt lat="42.329199" lon="14.0132099"><ele>158.0</ele><time>2026-05-02T07:57:00.411Z</time></trkpt><trkpt lat="42.3290177" lon="14.0128838"><ele>158.0</ele><time>2026-05-02T07:57:02.415Z</time></trkpt><trkpt lat="42.3288285" lon="14.0125758"><ele>158.0</ele><time>2026-05-02T07:57:04.405Z</time></trkpt><trkpt lat="42.3285864" lon="14.0123571"><ele>158.0</ele><time>2026-05-02T07:57:06.391Z</time></trkpt><trkpt lat="42.3282902" lon="14.0122042"><ele>158.0</ele><time>2026-05-02T07:57:08.315Z</time></trkpt><trkpt lat="42.3279657" lon="14.0120916"><ele>156.0</ele><time>2026-05-02T07:57:10.33Z</time></trkpt><trkpt lat="42.3276554" lon="14.0119644"><ele>154.0</ele><time>2026-05-02T07:57:12.329Z</time></trkpt><trkpt lat="42.3273438" lon="14.011846"><ele>152.0</ele><time>2026-05-02T07:57:14.328Z</time></trkpt><trkpt lat="42.3270664" lon="14.0117526"><ele>150.0</ele><time>2026-05-02T07:57:16.328Z</time></trkpt><trkpt lat="42.3268505" lon="14.0116329"><ele>150.0</ele><time>2026-05-02T07:57:18.332Z</time></trkpt><trkpt lat="42.3266997" lon="14.0113951"><ele>150.0</ele><time>2026-05-02T07:57:20.32Z</time></trkpt><trkpt lat="42.3265806" lon="14.0110492"><ele>149.5</ele><time>2026-05-02T07:57:22.336Z</time></trkpt><trkpt lat="42.326462" lon="14.0106763"><ele>149.0</ele><time>2026-05-02T07:57:24.331Z</time></trkpt><trkpt lat="42.326325" lon="14.0102748"><ele>147.0</ele><time>2026-05-02T07:57:26.325Z</time></trkpt><trkpt lat="42.3261956" lon="14.0098614"><ele>145.0</ele><time>2026-05-02T07:57:28.345Z</time></trkpt><trkpt lat="42.326068" lon="14.0094839"><ele>144.0</ele><time>2026-05-02T07:57:30.335Z</time></trkpt><trkpt lat="42.325937" lon="14.0091061"><ele>143.0</ele><time>2026-05-02T07:57:32.327Z</time></trkpt><trkpt lat="42.3258144" lon="14.0087102"><ele>141.0</ele><time>2026-05-02T07:57:34.333Z</time></trkpt><trkpt lat="42.325674" lon="14.0083013"><ele>139.0</ele><time>2026-05-02T07:57:36.33Z</time></trkpt><trkpt lat="42.3255132" lon="14.0079042"><ele>139.0</ele><time>2026-05-02T07:57:38.338Z</time></trkpt><trkpt lat="42.3253203" lon="14.0075266"><ele>139.0</ele><time>2026-05-02T07:57:40.327Z</time></trkpt><trkpt lat="42.3251528" lon="14.0071579"><ele>137.5</ele><time>2026-05-02T07:57:42.327Z</time></trkpt><trkpt lat="42.3250397" lon="14.0067592"><ele>136.0</ele><time>2026-05-02T07:57:44.33Z</time></trkpt><trkpt lat="42.3249435" lon="14.0063419"><ele>135.5</ele><time>2026-05-02T07:57:46.33Z</time></trkpt><trkpt lat="42.3248413" lon="14.0059182"><ele>135.0</ele><time>2026-05-02T07:57:48.329Z</time></trkpt><trkpt lat="42.3247434" lon="14.0054846"><ele>135.0</ele><time>2026-05-02T07:57:50.333Z</time></trkpt><trkpt lat="42.3246239" lon="14.0050768"><ele>135.0</ele><time>2026-05-02T07:57:52.341Z</time></trkpt><trkpt lat="42.32451" lon="14.0046795"><ele>135.0</ele><time>2026-05-02T07:57:54.338Z</time></trkpt><trkpt lat="42.3243615" lon="14.0042759"><ele>135.0</ele><time>2026-05-02T07:57:56.335Z</time></trkpt><trkpt lat="42.3241955" lon="14.0038707"><ele>135.5</ele><time>2026-05-02T07:57:58.338Z</time></trkpt><trkpt lat="42.324042" lon="14.0034636"><ele>136.0</ele><time>2026-05-02T07:58:00.338Z</time></trkpt><trkpt lat="42.3238907" lon="14.0030608"><ele>136.0</ele><time>2026-05-02T07:58:02.332Z</time></trkpt><trkpt lat="42.3237524" lon="14.0026698"><ele>136.0</ele><time>2026-05-02T07:58:04.339Z</time></trkpt><trkpt lat="42.3236202" lon="14.0023135"><ele>137.0</ele><time>2026-05-02T07:58:06.336Z</time></trkpt><trkpt lat="42.323496" lon="14.0019041"><ele>138.0</ele><time>2026-05-02T07:58:08.341Z</time></trkpt><trkpt lat="42.3233693" lon="14.0015078"><ele>139.0</ele><time>2026-05-02T07:58:10.333Z</time></trkpt><trkpt lat="42.3232371" lon="14.0011337"><ele>140.0</ele><time>2026-05-02T07:58:12.333Z</time></trkpt><trkpt lat="42.3231128" lon="14.0007594"><ele>137.5</ele><time>2026-05-02T07:58:14.336Z</time></trkpt><trkpt lat="42.3229869" lon="14.0003723"><ele>135.0</ele><time>2026-05-02T07:58:16.329Z</time></trkpt><trkpt lat="42.322853" lon="13.9999762"><ele>135.0</ele><time>2026-05-02T07:58:18.334Z</time></trkpt><trkpt lat="42.3227204" lon="13.9996008"><ele>135.0</ele><time>2026-05-02T07:58:20.332Z</time></trkpt><trkpt lat="42.3225965" lon="13.9992132"><ele>137.0</ele><time>2026-05-02T07:58:22.339Z</time></trkpt><trkpt lat="42.3224572" lon="13.9988303"><ele>139.0</ele><time>2026-05-02T07:58:24.341Z</time></trkpt><trkpt lat="42.3223307" lon="13.9984159"><ele>134.5</ele><time>2026-05-02T07:58:26.34Z</time></trkpt><trkpt lat="42.3222093" lon="13.9980023"><ele>130.0</ele><time>2026-05-02T07:58:28.343Z</time></trkpt><trkpt lat="42.3220897" lon="13.9975987"><ele>132.0</ele><time>2026-05-02T07:58:30.348Z</time></trkpt><trkpt lat="42.3219588" lon="13.9971679"><ele>134.0</ele><time>2026-05-02T07:58:32.339Z</time></trkpt><trkpt lat="42.3218219" lon="13.9967362"><ele>133.5</ele><time>2026-05-02T07:58:34.342Z</time></trkpt><trkpt lat="42.3216779" lon="13.9963021"><ele>133.0</ele><time>2026-05-02T07:58:36.329Z</time></trkpt><trkpt lat="42.3215356" lon="13.9958701"><ele>133.5</ele><time>2026-05-02T07:58:38.329Z</time></trkpt><trkpt lat="42.3214109" lon="13.995479"><ele>134.0</ele><time>2026-05-02T07:58:40.333Z</time></trkpt><trkpt lat="42.3212744" lon="13.9950746"><ele>133.5</ele><time>2026-05-02T07:58:42.328Z</time></trkpt><trkpt lat="42.3211448" lon="13.9946906"><ele>133.0</ele><time>2026-05-02T07:58:44.336Z</time></trkpt><trkpt lat="42.3210011" lon="13.9943451"><ele>133.5</ele><time>2026-05-02T07:58:46.335Z</time></trkpt><trkpt lat="42.3208729" lon="13.9940337"><ele>134.0</ele><time>2026-05-02T07:58:48.337Z</time></trkpt><trkpt lat="42.3207441" lon="13.9937926"><ele>134.0</ele><time>2026-05-02T07:58:50.327Z</time></trkpt><trkpt lat="42.3206412" lon="13.9936456"><ele>134.0</ele><time>2026-05-02T07:58:52.324Z</time></trkpt><trkpt lat="42.3205326" lon="13.9936261"><ele>134.0</ele><time>2026-05-02T07:58:54.321Z</time></trkpt><trkpt lat="42.3204155" lon="13.9937058"><ele>134.0</ele><time>2026-05-02T07:58:56.327Z</time></trkpt><trkpt lat="42.3202439" lon="13.993859"><ele>136.0</ele><time>2026-05-02T07:58:58.33Z</time></trkpt><trkpt lat="42.3200639" lon="13.9940779"><ele>138.0</ele><time>2026-05-02T07:59:00.337Z</time></trkpt><trkpt lat="42.319913" lon="13.9944013"><ele>137.0</ele><time>2026-05-02T07:59:02.34Z</time></trkpt><trkpt lat="42.3197099" lon="13.9946948"><ele>136.0</ele><time>2026-05-02T07:59:04.334Z</time></trkpt><trkpt lat="42.3195127" lon="13.9950252"><ele>138.5</ele><time>2026-05-02T07:59:06.333Z</time></trkpt><trkpt lat="42.319334" lon="13.9954088"><ele>141.0</ele><time>2026-05-02T07:59:08.342Z</time></trkpt><trkpt lat="42.3191705" lon="13.9957548"><ele>140.5</ele><time>2026-05-02T07:59:10.334Z</time></trkpt><trkpt lat="42.3189911" lon="13.9961509"><ele>140.0</ele><time>2026-05-02T07:59:12.339Z</time></trkpt><trkpt lat="42.3188102" lon="13.9965474"><ele>144.0</ele><time>2026-05-02T07:59:14.322Z</time></trkpt><trkpt lat="42.3186728" lon="13.9968732"><ele>148.0</ele><time>2026-05-02T07:59:16.338Z</time></trkpt><trkpt lat="42.3186032" lon="13.9972137"><ele>147.5</ele><time>2026-05-02T07:59:18.341Z</time></trkpt><trkpt lat="42.3185577" lon="13.9976499"><ele>147.0</ele><time>2026-05-02T07:59:20.341Z</time></trkpt><trkpt lat="42.3185077" lon="13.9980562"><ele>146.0</ele><time>2026-05-02T07:59:22.345Z</time></trkpt><trkpt lat="42.3184752" lon="13.9984162"><ele>145.0</ele><time>2026-05-02T07:59:24.348Z</time></trkpt><trkpt lat="42.3184374" lon="13.9987733"><ele>145.0</ele><time>2026-05-02T07:59:26.343Z</time></trkpt><trkpt lat="42.3184098" lon="13.999131"><ele>145.0</ele><time>2026-05-02T07:59:28.353Z</time></trkpt><trkpt lat="42.3183894" lon="13.9995117"><ele>142.0</ele><time>2026-05-02T07:59:30.345Z</time></trkpt><trkpt lat="42.3183765" lon="13.9998546"><ele>139.0</ele><time>2026-05-02T07:59:32.358Z</time></trkpt><trkpt lat="42.3183605" lon="14.0002006"><ele>139.0</ele><time>2026-05-02T07:59:34.343Z</time></trkpt><trkpt lat="42.3183354" lon="14.000536"><ele>139.0</ele><time>2026-05-02T07:59:36.34Z</time></trkpt><trkpt lat="42.318317" lon="14.0008296"><ele>137.66666666666669</ele><time>2026-05-02T07:59:38.342Z</time></trkpt><trkpt lat="42.3182986" lon="14.0011306"><ele>136.33333333333334</ele><time>2026-05-02T07:59:40.344Z</time></trkpt><trkpt lat="42.3182526" lon="14.0013929"><ele>135.0</ele><time>2026-05-02T07:59:42.345Z</time></trkpt><trkpt lat="42.318186" lon="14.0016345"><ele>133.66666666666666</ele><time>2026-05-02T07:59:44.346Z</time></trkpt><trkpt lat="42.3181898" lon="14.0018956"><ele>132.33333333333331</ele><time>2026-05-02T07:59:46.346Z</time></trkpt><trkpt lat="42.3182726" lon="14.0022081"><ele>131.0</ele><time>2026-05-02T07:59:48.347Z</time></trkpt><trkpt lat="42.3183527" lon="14.002501"><ele>127.5</ele><time>2026-05-02T07:59:50.341Z</time></trkpt><trkpt lat="42.3183966" lon="14.0028682"><ele>124.0</ele><time>2026-05-02T07:59:52.341Z</time></trkpt><trkpt lat="42.3184058" lon="14.0032175"><ele>122.66666666666667</ele><time>2026-05-02T07:59:54.338Z</time></trkpt><trkpt lat="42.3184239" lon="14.0035254"><ele>121.33333333333334</ele><time>2026-05-02T07:59:56.342Z</time></trkpt><trkpt lat="42.3183725" lon="14.003792"><ele>120.0</ele><time>2026-05-02T07:59:58.346Z</time></trkpt><trkpt lat="42.3182689" lon="14.0040608"><ele>118.5</ele><time>2026-05-02T08:00:00.332Z</time></trkpt><trkpt lat="42.3181684" lon="14.0043282"><ele>117.0</ele><time>2026-05-02T08:00:02.34Z</time></trkpt><trkpt lat="42.3180618" lon="14.0046251"><ele>117.0</ele><time>2026-05-02T08:00:04.336Z</time></trkpt><trkpt lat="42.3179254" lon="14.0049808"><ele>117.0</ele><time>2026-05-02T08:00:06.334Z</time></trkpt><trkpt lat="42.3178115" lon="14.0053481"><ele>117.0</ele><time>2026-05-02T08:00:08.334Z</time></trkpt><trkpt lat="42.3176967" lon="14.0056737"><ele>117.0</ele><time>2026-05-02T08:00:10.341Z</time></trkpt><trkpt lat="42.3175947" lon="14.0059598"><ele>118.5</ele><time>2026-05-02T08:00:12.341Z</time></trkpt><trkpt lat="42.3174862" lon="14.0062752"><ele>120.0</ele><time>2026-05-02T08:00:14.333Z</time></trkpt><trkpt lat="42.317402" lon="14.0066226"><ele>120.0</ele><time>2026-05-02T08:00:16.33Z</time></trkpt><trkpt lat="42.3173014" lon="14.0069495"><ele>120.0</ele><time>2026-05-02T08:00:18.331Z</time></trkpt><trkpt lat="42.3172013" lon="14.0072462"><ele>120.0</ele><time>2026-05-02T08:00:20.323Z</time></trkpt><trkpt lat="42.3171316" lon="14.0074767"><ele>120.0</ele><time>2026-05-02T08:00:22.335Z</time></trkpt><trkpt lat="42.3170739" lon="14.0077001"><ele>120.0</ele><time>2026-05-02T08:00:24.339Z</time></trkpt><trkpt lat="42.3169355" lon="14.0079608"><ele>120.0</ele><time>2026-05-02T08:00:26.336Z</time></trkpt><trkpt lat="42.3167248" lon="14.0081904"><ele>120.0</ele><time>2026-05-02T08:00:28.344Z</time></trkpt><trkpt lat="42.3165363" lon="14.0083728"><ele>117.0</ele><time>2026-05-02T08:00:30.346Z</time></trkpt><trkpt lat="42.3163692" lon="14.0085338"><ele>114.0</ele><time>2026-05-02T08:00:32.344Z</time></trkpt><trkpt lat="42.3162315" lon="14.0086992"><ele>111.0</ele><time>2026-05-02T08:00:34.351Z</time></trkpt><trkpt lat="42.3161206" lon="14.0088496"><ele>111.0</ele><time>2026-05-02T08:00:36.327Z</time></trkpt><trkpt lat="42.3159038" lon="14.0089751"><ele>111.0</ele><time>2026-05-02T08:00:38.346Z</time></trkpt><trkpt lat="42.3156596" lon="14.0091227"><ele>109.0</ele><time>2026-05-02T08:00:40.342Z</time></trkpt><trkpt lat="42.3154083" lon="14.009308"><ele>107.0</ele><time>2026-05-02T08:00:42.342Z</time></trkpt><trkpt lat="42.3151498" lon="14.009535"><ele>107.0</ele><time>2026-05-02T08:00:44.338Z</time></trkpt><trkpt lat="42.3148748" lon="14.0097622"><ele>107.0</ele><time>2026-05-02T08:00:46.342Z</time></trkpt><trkpt lat="42.3146" lon="14.0099936"><ele>105.5</ele><time>2026-05-02T08:00:48.338Z</time></trkpt><trkpt lat="42.314333" lon="14.0102208"><ele>104.0</ele><time>2026-05-02T08:00:50.344Z</time></trkpt><trkpt lat="42.3140517" lon="14.0104535"><ele>104.0</ele><time>2026-05-02T08:00:52.337Z</time></trkpt><trkpt lat="42.3137807" lon="14.0106615"><ele>104.0</ele><time>2026-05-02T08:00:54.338Z</time></trkpt><trkpt lat="42.3135073" lon="14.010884"><ele>103.0</ele><time>2026-05-02T08:00:56.334Z</time></trkpt><trkpt lat="42.3132168" lon="14.0110296"><ele>102.0</ele><time>2026-05-02T08:00:58.341Z</time></trkpt><trkpt lat="42.312878" lon="14.0110853"><ele>102.0</ele><time>2026-05-02T08:01:00.344Z</time></trkpt><trkpt lat="42.3125537" lon="14.0111381"><ele>102.0</ele><time>2026-05-02T08:01:02.326Z</time></trkpt><trkpt lat="42.3122255" lon="14.0111615"><ele>102.5</ele><time>2026-05-02T08:01:04.351Z</time></trkpt><trkpt lat="42.3119038" lon="14.0111196"><ele>103.0</ele><time>2026-05-02T08:01:06.346Z</time></trkpt><trkpt lat="42.3115852" lon="14.0110531"><ele>102.0</ele><time>2026-05-02T08:01:08.354Z</time></trkpt><trkpt lat="42.3112965" lon="14.0109951"><ele>101.0</ele><time>2026-05-02T08:01:10.43Z</time></trkpt><trkpt lat="42.3110243" lon="14.0109489"><ele>101.0</ele><time>2026-05-02T08:01:12.43Z</time></trkpt><trkpt lat="42.3107458" lon="14.010904"><ele>101.0</ele><time>2026-05-02T08:01:14.424Z</time></trkpt><trkpt lat="42.310451" lon="14.0108522"><ele>101.5</ele><time>2026-05-02T08:01:16.43Z</time></trkpt><trkpt lat="42.3101652" lon="14.0108006"><ele>102.0</ele><time>2026-05-02T08:01:18.427Z</time></trkpt><trkpt lat="42.3098691" lon="14.0107549"><ele>102.5</ele><time>2026-05-02T08:01:20.422Z</time></trkpt><trkpt lat="42.3095697" lon="14.0106955"><ele>103.0</ele><time>2026-05-02T08:01:22.424Z</time></trkpt><trkpt lat="42.3092461" lon="14.0106215"><ele>103.0</ele><time>2026-05-02T08:01:24.432Z</time></trkpt><trkpt lat="42.3089096" lon="14.0105559"><ele>103.0</ele><time>2026-05-02T08:01:26.427Z</time></trkpt><trkpt lat="42.3085948" lon="14.0104962"><ele>106.5</ele><time>2026-05-02T08:01:28.433Z</time></trkpt><trkpt lat="42.3083128" lon="14.010521"><ele>110.0</ele><time>2026-05-02T08:01:30.423Z</time></trkpt><trkpt lat="42.3080755" lon="14.0107048"><ele>112.0</ele><time>2026-05-02T08:01:32.398Z</time></trkpt><trkpt lat="42.3078277" lon="14.0109237"><ele>114.0</ele><time>2026-05-02T08:01:34.31Z</time></trkpt><trkpt lat="42.3076112" lon="14.0109827"><ele>114.0</ele><time>2026-05-02T08:01:36.328Z</time></trkpt><trkpt lat="42.3073525" lon="14.0108352"><ele>114.0</ele><time>2026-05-02T08:01:38.302Z</time></trkpt><trkpt lat="42.3071237" lon="14.0107007"><ele>119.5</ele><time>2026-05-02T08:01:40.319Z</time></trkpt><trkpt lat="42.3069128" lon="14.0105414"><ele>125.0</ele><time>2026-05-02T08:01:42.313Z</time></trkpt><trkpt lat="42.3067945" lon="14.0102573"><ele>126.0</ele><time>2026-05-02T08:01:44.329Z</time></trkpt><trkpt lat="42.3067069" lon="14.0099887"><ele>127.0</ele><time>2026-05-02T08:01:46.332Z</time></trkpt><trkpt lat="42.3066579" lon="14.0096889"><ele>128.0</ele><time>2026-05-02T08:01:48.337Z</time></trkpt><trkpt lat="42.3065787" lon="14.0093443"><ele>130.5</ele><time>2026-05-02T08:01:50.322Z</time></trkpt><trkpt lat="42.3064957" lon="14.0089665"><ele>133.0</ele><time>2026-05-02T08:01:52.338Z</time></trkpt><trkpt lat="42.3063813" lon="14.0085575"><ele>139.5</ele><time>2026-05-02T08:01:54.342Z</time></trkpt><trkpt lat="42.3062712" lon="14.0081341"><ele>146.0</ele><time>2026-05-02T08:01:56.329Z</time></trkpt><trkpt lat="42.3061618" lon="14.0077065"><ele>147.5</ele><time>2026-05-02T08:01:58.348Z</time></trkpt><trkpt lat="42.3060361" lon="14.00728"><ele>149.0</ele><time>2026-05-02T08:02:00.338Z</time></trkpt><trkpt lat="42.3058867" lon="14.0068639"><ele>148.5</ele><time>2026-05-02T08:02:02.333Z</time></trkpt><trkpt lat="42.3057245" lon="14.0064582"><ele>148.0</ele><time>2026-05-02T08:02:04.326Z</time></trkpt><trkpt lat="42.3055064" lon="14.0061172"><ele>155.5</ele><time>2026-05-02T08:02:06.342Z</time></trkpt><trkpt lat="42.3052858" lon="14.0057493"><ele>163.0</ele><time>2026-05-02T08:02:08.333Z</time></trkpt><trkpt lat="42.3050917" lon="14.0053635"><ele>162.5</ele><time>2026-05-02T08:02:10.334Z</time></trkpt><trkpt lat="42.3049219" lon="14.0049558"><ele>162.0</ele><time>2026-05-02T08:02:12.332Z</time></trkpt><trkpt lat="42.304757" lon="14.0045368"><ele>166.0</ele><time>2026-05-02T08:02:14.329Z</time></trkpt><trkpt lat="42.3045753" lon="14.004161"><ele>170.0</ele><time>2026-05-02T08:02:16.334Z</time></trkpt><trkpt lat="42.3043963" lon="14.0039096"><ele>170.0</ele><time>2026-05-02T08:02:18.347Z</time></trkpt><trkpt lat="42.3041709" lon="14.003814"><ele>170.0</ele><time>2026-05-02T08:02:20.319Z</time></trkpt><trkpt lat="42.303882" lon="14.0037129"><ele>168.0</ele><time>2026-05-02T08:02:22.327Z</time></trkpt><trkpt lat="42.3035462" lon="14.0035221"><ele>166.0</ele><time>2026-05-02T08:02:24.322Z</time></trkpt><trkpt lat="42.3032337" lon="14.0033024"><ele>167.5</ele><time>2026-05-02T08:02:26.316Z</time></trkpt><trkpt lat="42.3029201" lon="14.0031574"><ele>169.0</ele><time>2026-05-02T08:02:28.328Z</time></trkpt><trkpt lat="42.3025806" lon="14.0030863"><ele>164.0</ele><time>2026-05-02T08:02:30.317Z</time></trkpt><trkpt lat="42.3022112" lon="14.0030652"><ele>159.0</ele><time>2026-05-02T08:02:32.323Z</time></trkpt><trkpt lat="42.3018908" lon="14.003037"><ele>159.0</ele><time>2026-05-02T08:02:34.312Z</time></trkpt><trkpt lat="42.3016352" lon="14.0028749"><ele>159.0</ele><time>2026-05-02T08:02:36.319Z</time></trkpt><trkpt lat="42.3015023" lon="14.0027138"><ele>159.0</ele><time>2026-05-02T08:02:38.318Z</time></trkpt><trkpt lat="42.3014572" lon="14.0025924"><ele>159.0</ele><time>2026-05-02T08:02:40.321Z</time></trkpt><trkpt lat="42.3014244" lon="14.0024037"><ele>159.0</ele><time>2026-05-02T08:02:42.316Z</time></trkpt><trkpt lat="42.3013806" lon="14.002137"><ele>159.0</ele><time>2026-05-02T08:02:44.317Z</time></trkpt><trkpt lat="42.3013246" lon="14.0018308"><ele>160.0</ele><time>2026-05-02T08:02:46.315Z</time></trkpt><trkpt lat="42.3012121" lon="14.0014798"><ele>161.0</ele><time>2026-05-02T08:02:48.326Z</time></trkpt><trkpt lat="42.3010759" lon="14.0011082"><ele>166.5</ele><time>2026-05-02T08:02:50.318Z</time></trkpt><trkpt lat="42.3009158" lon="14.0007742"><ele>172.0</ele><time>2026-05-02T08:02:52.322Z</time></trkpt><trkpt lat="42.3007409" lon="14.0004733"><ele>165.0</ele><time>2026-05-02T08:02:54.327Z</time></trkpt><trkpt lat="42.3005426" lon="14.0002046"><ele>158.0</ele><time>2026-05-02T08:02:56.323Z</time></trkpt><trkpt lat="42.30035" lon="13.9999587"><ele>158.0</ele><time>2026-05-02T08:02:58.32Z</time></trkpt><trkpt lat="42.3001896" lon="13.9996341"><ele>158.0</ele><time>2026-05-02T08:03:00.334Z</time></trkpt><trkpt lat="42.3000513" lon="13.9993024"><ele>159.0</ele><time>2026-05-02T08:03:02.326Z</time></trkpt><trkpt lat="42.2998912" lon="13.9990158"><ele>160.0</ele><time>2026-05-02T08:03:04.324Z</time></trkpt><trkpt lat="42.2997438" lon="13.9987341"><ele>160.0</ele><time>2026-05-02T08:03:06.322Z</time></trkpt><trkpt lat="42.2996132" lon="13.9984609"><ele>160.0</ele><time>2026-05-02T08:03:08.338Z</time></trkpt><trkpt lat="42.2994635" lon="13.9981856"><ele>159.0</ele><time>2026-05-02T08:03:10.321Z</time></trkpt><trkpt lat="42.299323" lon="13.9979272"><ele>158.0</ele><time>2026-05-02T08:03:12.318Z</time></trkpt><trkpt lat="42.2992113" lon="13.9976436"><ele>158.0</ele><time>2026-05-02T08:03:14.313Z</time></trkpt><trkpt lat="42.2991603" lon="13.997335"><ele>158.0</ele><time>2026-05-02T08:03:16.313Z</time></trkpt><trkpt lat="42.2991572" lon="13.9970484"><ele>158.0</ele><time>2026-05-02T08:03:18.319Z</time></trkpt><trkpt lat="42.299149" lon="13.9967317"><ele>157.0</ele><time>2026-05-02T08:03:20.319Z</time></trkpt><trkpt lat="42.2990598" lon="13.9964363"><ele>156.0</ele><time>2026-05-02T08:03:22.316Z</time></trkpt><trkpt lat="42.2988787" lon="13.9962148"><ele>153.0</ele><time>2026-05-02T08:03:24.316Z</time></trkpt><trkpt lat="42.2986917" lon="13.9960036"><ele>150.0</ele><time>2026-05-02T08:03:26.308Z</time></trkpt><trkpt lat="42.2985715" lon="13.9957432"><ele>150.0</ele><time>2026-05-02T08:03:28.314Z</time></trkpt><trkpt lat="42.298467" lon="13.995458"><ele>150.0</ele><time>2026-05-02T08:03:30.328Z</time></trkpt><trkpt lat="42.2983218" lon="13.9951825"><ele>152.5</ele><time>2026-05-02T08:03:32.328Z</time></trkpt><trkpt lat="42.2981595" lon="13.9948725"><ele>155.0</ele><time>2026-05-02T08:03:34.321Z</time></trkpt><trkpt lat="42.2979783" lon="13.9945919"><ele>148.0</ele><time>2026-05-02T08:03:36.329Z</time></trkpt><trkpt lat="42.2978424" lon="13.9943151"><ele>141.0</ele><time>2026-05-02T08:03:38.327Z</time></trkpt><trkpt lat="42.2977154" lon="13.9939873"><ele>141.0</ele><time>2026-05-02T08:03:40.335Z</time></trkpt><trkpt lat="42.2975733" lon="13.9936447"><ele>141.0</ele><time>2026-05-02T08:03:42.331Z</time></trkpt><trkpt lat="42.2974096" lon="13.9933518"><ele>144.5</ele><time>2026-05-02T08:03:44.333Z</time></trkpt><trkpt lat="42.2972674" lon="13.9930629"><ele>148.0</ele><time>2026-05-02T08:03:46.343Z</time></trkpt><trkpt lat="42.2971366" lon="13.9928026"><ele>142.5</ele><time>2026-05-02T08:03:48.326Z</time></trkpt><trkpt lat="42.2969945" lon="13.9925298"><ele>137.0</ele><time>2026-05-02T08:03:50.327Z</time></trkpt><trkpt lat="42.2968624" lon="13.9922122"><ele>137.0</ele><time>2026-05-02T08:03:52.33Z</time></trkpt><trkpt lat="42.2967666" lon="13.9918301"><ele>137.0</ele><time>2026-05-02T08:03:54.419Z</time></trkpt><trkpt lat="42.296692" lon="13.9914757"><ele>137.5</ele><time>2026-05-02T08:03:56.406Z</time></trkpt><trkpt lat="42.2966611" lon="13.9910997"><ele>138.0</ele><time>2026-05-02T08:03:58.42Z</time></trkpt><trkpt lat="42.2966393" lon="13.9907198"><ele>138.0</ele><time>2026-05-02T08:04:00.413Z</time></trkpt><trkpt lat="42.296601" lon="13.9903967"><ele>138.0</ele><time>2026-05-02T08:04:02.403Z</time></trkpt><trkpt lat="42.2964782" lon="13.9901149"><ele>134.66666666666666</ele><time>2026-05-02T08:04:04.395Z</time></trkpt><trkpt lat="42.2962965" lon="13.9899344"><ele>131.33333333333331</ele><time>2026-05-02T08:04:06.398Z</time></trkpt><trkpt lat="42.2961003" lon="13.9898758"><ele>128.0</ele><time>2026-05-02T08:04:08.412Z</time></trkpt><trkpt lat="42.2959045" lon="13.9898015"><ele>128.0</ele><time>2026-05-02T08:04:10.421Z</time></trkpt><trkpt lat="42.2957228" lon="13.9896678"><ele>128.0</ele><time>2026-05-02T08:04:12.394Z</time></trkpt><trkpt lat="42.2955365" lon="13.9895288"><ele>128.0</ele><time>2026-05-02T08:04:14.404Z</time></trkpt><trkpt lat="42.2953641" lon="13.9894062"><ele>127.60000000000001</ele><time>2026-05-02T08:04:16.411Z</time></trkpt><trkpt lat="42.295251" lon="13.9893536"><ele>127.20000000000002</ele><time>2026-05-02T08:04:18.41Z</time></trkpt><trkpt lat="42.2951868" lon="13.9892963"><ele>126.8</ele><time>2026-05-02T08:04:22.416Z</time></trkpt><trkpt lat="42.2951093" lon="13.9893369"><ele>126.4</ele><time>2026-05-02T08:04:26.42Z</time></trkpt><trkpt lat="42.2949934" lon="13.9893178"><ele>126.0</ele><time>2026-05-02T08:04:28.311Z</time></trkpt><trkpt lat="42.294963" lon="13.9891833"><ele>127.33333333333334</ele><time>2026-05-02T08:04:30.305Z</time></trkpt><trkpt lat="42.2949368" lon="13.9889654"><ele>128.66666666666669</ele><time>2026-05-02T08:04:32.327Z</time></trkpt><trkpt lat="42.2948798" lon="13.9886766"><ele>130.0</ele><time>2026-05-02T08:04:34.324Z</time></trkpt><trkpt lat="42.2947859" lon="13.9883563"><ele>131.5</ele><time>2026-05-02T08:04:36.327Z</time></trkpt><trkpt lat="42.2946976" lon="13.9880171"><ele>133.0</ele><time>2026-05-02T08:04:38.324Z</time></trkpt><trkpt lat="42.2945992" lon="13.9876824"><ele>134.0</ele><time>2026-05-02T08:04:40.321Z</time></trkpt><trkpt lat="42.2944903" lon="13.9873299"><ele>135.0</ele><time>2026-05-02T08:04:42.318Z</time></trkpt><trkpt lat="42.2944058" lon="13.9870339"><ele>135.0</ele><time>2026-05-02T08:04:44.303Z</time></trkpt><trkpt lat="42.2943695" lon="13.9868486"><ele>135.0</ele><time>2026-05-02T08:04:46.312Z</time></trkpt><trkpt lat="42.2944045" lon="13.9867094"><ele>135.0</ele><time>2026-05-02T08:04:48.318Z</time></trkpt><trkpt lat="42.2943799" lon="13.9866136"><ele>135.0</ele><time>2026-05-02T08:04:50.314Z</time></trkpt><trkpt lat="42.2943171" lon="13.9864765"><ele>135.0</ele><time>2026-05-02T08:04:52.315Z</time></trkpt><trkpt lat="42.294239" lon="13.9862239"><ele>136.5</ele><time>2026-05-02T08:04:54.311Z</time></trkpt><trkpt lat="42.294151" lon="13.9859229"><ele>138.0</ele><time>2026-05-02T08:04:56.311Z</time></trkpt><trkpt lat="42.2940713" lon="13.9855829"><ele>139.5</ele><time>2026-05-02T08:04:58.313Z</time></trkpt><trkpt lat="42.2939749" lon="13.9852383"><ele>141.0</ele><time>2026-05-02T08:05:00.308Z</time></trkpt><trkpt lat="42.2938781" lon="13.9849263"><ele>143.33333333333334</ele><time>2026-05-02T08:05:02.305Z</time></trkpt><trkpt lat="42.2937731" lon="13.9846681"><ele>145.66666666666669</ele><time>2026-05-02T08:05:04.304Z</time></trkpt><trkpt lat="42.293638" lon="13.9844399"><ele>148.0</ele><time>2026-05-02T08:05:06.306Z</time></trkpt><trkpt lat="42.2934944" lon="13.984209"><ele>148.66666666666669</ele><time>2026-05-02T08:05:08.304Z</time></trkpt><trkpt lat="42.29335" lon="13.9840071"><ele>149.33333333333334</ele><time>2026-05-02T08:05:10.308Z</time></trkpt><trkpt lat="42.2931812" lon="13.9838363"><ele>150.0</ele><time>2026-05-02T08:05:12.339Z</time></trkpt><trkpt lat="42.293005" lon="13.9836813"><ele>155.0</ele><time>2026-05-02T08:05:14.312Z</time></trkpt><trkpt lat="42.2928537" lon="13.9834438"><ele>160.0</ele><time>2026-05-02T08:05:16.31Z</time></trkpt><trkpt lat="42.2927271" lon="13.9831579"><ele>160.0</ele><time>2026-05-02T08:05:18.313Z</time></trkpt><trkpt lat="42.2925819" lon="13.9828887"><ele>160.0</ele><time>2026-05-02T08:05:20.31Z</time></trkpt><trkpt lat="42.2924485" lon="13.9826351"><ele>158.66666666666669</ele><time>2026-05-02T08:05:22.312Z</time></trkpt><trkpt lat="42.2923206" lon="13.9824013"><ele>157.33333333333334</ele><time>2026-05-02T08:05:24.307Z</time></trkpt><trkpt lat="42.2921952" lon="13.9822035"><ele>156.0</ele><time>2026-05-02T08:05:26.309Z</time></trkpt><trkpt lat="42.2920761" lon="13.9820242"><ele>159.66666666666666</ele><time>2026-05-02T08:05:28.321Z</time></trkpt><trkpt lat="42.2919614" lon="13.9818656"><ele>163.33333333333331</ele><time>2026-05-02T08:05:30.32Z</time></trkpt><trkpt lat="42.2918382" lon="13.981671"><ele>167.0</ele><time>2026-05-02T08:05:32.318Z</time></trkpt><trkpt lat="42.291703" lon="13.9814812"><ele>167.0</ele><time>2026-05-02T08:05:34.32Z</time></trkpt><trkpt lat="42.2915776" lon="13.9813089"><ele>167.0</ele><time>2026-05-02T08:05:36.319Z</time></trkpt><trkpt lat="42.2914653" lon="13.9811585"><ele>167.0</ele><time>2026-05-02T08:05:38.315Z</time></trkpt><trkpt lat="42.2913508" lon="13.9810846"><ele>170.0</ele><time>2026-05-02T08:05:40.317Z</time></trkpt><trkpt lat="42.2912155" lon="13.9810824"><ele>173.0</ele><time>2026-05-02T08:05:42.323Z</time></trkpt><trkpt lat="42.2910441" lon="13.9810454"><ele>176.0</ele><time>2026-05-02T08:05:44.31Z</time></trkpt><trkpt lat="42.2909175" lon="13.9809415"><ele>173.66666666666666</ele><time>2026-05-02T08:05:46.31Z</time></trkpt><trkpt lat="42.2908419" lon="13.9807267"><ele>171.33333333333334</ele><time>2026-05-02T08:05:48.312Z</time></trkpt><trkpt lat="42.2908528" lon="13.980428"><ele>169.0</ele><time>2026-05-02T08:05:50.315Z</time></trkpt><trkpt lat="42.2908086" lon="13.9801396"><ele>170.0</ele><time>2026-05-02T08:05:52.311Z</time></trkpt><trkpt lat="42.2907038" lon="13.9798705"><ele>171.0</ele><time>2026-05-02T08:05:54.31Z</time></trkpt><trkpt lat="42.2905492" lon="13.9796503"><ele>175.66666666666666</ele><time>2026-05-02T08:05:56.312Z</time></trkpt><trkpt lat="42.2903963" lon="13.9795379"><ele>180.33333333333331</ele><time>2026-05-02T08:05:58.315Z</time></trkpt><trkpt lat="42.2902712" lon="13.9794121"><ele>185.0</ele><time>2026-05-02T08:06:00.315Z</time></trkpt><trkpt lat="42.2902738" lon="13.9792211"><ele>185.0</ele><time>2026-05-02T08:06:02.315Z</time></trkpt><trkpt lat="42.2903598" lon="13.9789792"><ele>185.0</ele><time>2026-05-02T08:06:04.319Z</time></trkpt><trkpt lat="42.2904317" lon="13.9787657"><ele>185.0</ele><time>2026-05-02T08:06:06.313Z</time></trkpt><trkpt lat="42.2903962" lon="13.9786063"><ele>185.0</ele><time>2026-05-02T08:06:08.322Z</time></trkpt><trkpt lat="42.290241" lon="13.9785928"><ele>185.0</ele><time>2026-05-02T08:06:10.318Z</time></trkpt><trkpt lat="42.2900836" lon="13.9787335"><ele>185.0</ele><time>2026-05-02T08:06:12.315Z</time></trkpt><trkpt lat="42.289912" lon="13.9788428"><ele>185.0</ele><time>2026-05-02T08:06:14.325Z</time></trkpt><trkpt lat="42.2897724" lon="13.9789113"><ele>185.0</ele><time>2026-05-02T08:06:16.327Z</time></trkpt><trkpt lat="42.2896503" lon="13.9789081"><ele>185.0</ele><time>2026-05-02T08:06:18.31Z</time></trkpt><trkpt lat="42.2895526" lon="13.9787745"><ele>185.0</ele><time>2026-05-02T08:06:20.32Z</time></trkpt><trkpt lat="42.2894949" lon="13.9785495"><ele>188.2</ele><time>2026-05-02T08:06:22.32Z</time></trkpt><trkpt lat="42.2894717" lon="13.9783369"><ele>191.4</ele><time>2026-05-02T08:06:24.313Z</time></trkpt><trkpt lat="42.2894674" lon="13.9782053"><ele>194.60000000000002</ele><time>2026-05-02T08:06:26.317Z</time></trkpt><trkpt lat="42.2894442" lon="13.9780789"><ele>197.8</ele><time>2026-05-02T08:06:28.319Z</time></trkpt><trkpt lat="42.2894044" lon="13.9779645"><ele>201.0</ele><time>2026-05-02T08:06:30.32Z</time></trkpt><trkpt lat="42.289326" lon="13.9778968"><ele>201.0</ele><time>2026-05-02T08:06:32.316Z</time></trkpt><trkpt lat="42.2892257" lon="13.9778674"><ele>201.0</ele><time>2026-05-02T08:06:34.314Z</time></trkpt><trkpt lat="42.2891277" lon="13.9779206"><ele>201.0</ele><time>2026-05-02T08:06:36.316Z</time></trkpt><trkpt lat="42.2889989" lon="13.9780104"><ele>201.0</ele><time>2026-05-02T08:06:38.307Z</time></trkpt><trkpt lat="42.288845" lon="13.9781403"><ele>205.33333333333331</ele><time>2026-05-02T08:06:40.303Z</time></trkpt><trkpt lat="42.2887326" lon="13.9783282"><ele>209.66666666666666</ele><time>2026-05-02T08:06:42.314Z</time></trkpt><trkpt lat="42.2886708" lon="13.9785417"><ele>214.0</ele><time>2026-05-02T08:06:44.332Z</time></trkpt><trkpt lat="42.2885652" lon="13.9787585"><ele>214.0</ele><time>2026-05-02T08:06:46.317Z</time></trkpt><trkpt lat="42.2884384" lon="13.9789629"><ele>214.0</ele><time>2026-05-02T08:06:48.315Z</time></trkpt><trkpt lat="42.2883783" lon="13.9791303"><ele>214.0</ele><time>2026-05-02T08:06:50.307Z</time></trkpt><trkpt lat="42.2883742" lon="13.9793471"><ele>215.33333333333331</ele><time>2026-05-02T08:06:52.317Z</time></trkpt><trkpt lat="42.2883614" lon="13.9796185"><ele>216.66666666666669</ele><time>2026-05-02T08:06:54.313Z</time></trkpt><trkpt lat="42.2883325" lon="13.9798864"><ele>218.0</ele><time>2026-05-02T08:06:56.316Z</time></trkpt><trkpt lat="42.2883098" lon="13.9800969"><ele>218.75</ele><time>2026-05-02T08:06:58.318Z</time></trkpt><trkpt lat="42.2883469" lon="13.9802795"><ele>219.5</ele><time>2026-05-02T08:07:00.314Z</time></trkpt><trkpt lat="42.2884463" lon="13.9804406"><ele>220.25</ele><time>2026-05-02T08:07:02.323Z</time></trkpt><trkpt lat="42.2884983" lon="13.9806194"><ele>221.0</ele><time>2026-05-02T08:07:04.31Z</time></trkpt><trkpt lat="42.2884626" lon="13.9807714"><ele>221.0</ele><time>2026-05-02T08:07:06.306Z</time></trkpt><trkpt lat="42.2883726" lon="13.9808605"><ele>221.0</ele><time>2026-05-02T08:07:08.322Z</time></trkpt><trkpt lat="42.2882648" lon="13.9808614"><ele>221.0</ele><time>2026-05-02T08:07:10.314Z</time></trkpt><trkpt lat="42.2881739" lon="13.9807711"><ele>221.0</ele><time>2026-05-02T08:07:12.316Z</time></trkpt><trkpt lat="42.2881289" lon="13.9806072"><ele>227.0</ele><time>2026-05-02T08:07:14.312Z</time></trkpt><trkpt lat="42.2880546" lon="13.9804919"><ele>233.0</ele><time>2026-05-02T08:07:16.318Z</time></trkpt><trkpt lat="42.2879567" lon="13.9805232"><ele>239.0</ele><time>2026-05-02T08:07:18.31Z</time></trkpt><trkpt lat="42.2879015" lon="13.980668"><ele>245.0</ele><time>2026-05-02T08:07:20.309Z</time></trkpt><trkpt lat="42.2879299" lon="13.9808456"><ele>247.0</ele><time>2026-05-02T08:07:22.309Z</time></trkpt><trkpt lat="42.2879632" lon="13.9810384"><ele>249.0</ele><time>2026-05-02T08:07:24.307Z</time></trkpt><trkpt lat="42.2879967" lon="13.9812522"><ele>251.0</ele><time>2026-05-02T08:07:26.308Z</time></trkpt><trkpt lat="42.288015" lon="13.9814079"><ele>253.0</ele><time>2026-05-02T08:07:28.312Z</time></trkpt><trkpt lat="42.2879612" lon="13.9814681"><ele>253.0</ele><time>2026-05-02T08:07:30.317Z</time></trkpt><trkpt lat="42.2878848" lon="13.9814813"><ele>253.0</ele><time>2026-05-02T08:07:32.318Z</time></trkpt><trkpt lat="42.2878219" lon="13.9814079"><ele>253.0</ele><time>2026-05-02T08:07:34.32Z</time></trkpt><trkpt lat="42.2877916" lon="13.981268"><ele>253.0</ele><time>2026-05-02T08:07:36.323Z</time></trkpt><trkpt lat="42.2877156" lon="13.9811116"><ele>253.0</ele><time>2026-05-02T08:07:38.302Z</time></trkpt><trkpt lat="42.2875921" lon="13.9810648"><ele>253.0</ele><time>2026-05-02T08:07:40.313Z</time></trkpt><trkpt lat="42.2874501" lon="13.9810384"><ele>253.0</ele><time>2026-05-02T08:07:42.311Z</time></trkpt><trkpt lat="42.2872821" lon="13.9809991"><ele>253.0</ele><time>2026-05-02T08:07:44.309Z</time></trkpt><trkpt lat="42.2871096" lon="13.9809455"><ele>254.0</ele><time>2026-05-02T08:07:46.322Z</time></trkpt><trkpt lat="42.2869851" lon="13.9808791"><ele>255.0</ele><time>2026-05-02T08:07:48.306Z</time></trkpt><trkpt lat="42.2869379" lon="13.9807491"><ele>256.0</ele><time>2026-05-02T08:07:50.307Z</time></trkpt><trkpt lat="42.2869364" lon="13.9805827"><ele>257.0</ele><time>2026-05-02T08:07:52.308Z</time></trkpt><trkpt lat="42.2869653" lon="13.9803967"><ele>257.0</ele><time>2026-05-02T08:07:54.311Z</time></trkpt><trkpt lat="42.2869793" lon="13.9801783"><ele>257.0</ele><time>2026-05-02T08:07:56.318Z</time></trkpt><trkpt lat="42.2869682" lon="13.9799429"><ele>257.0</ele><time>2026-05-02T08:07:58.318Z</time></trkpt><trkpt lat="42.286896" lon="13.9797165"><ele>257.33333333333337</ele><time>2026-05-02T08:08:00.314Z</time></trkpt><trkpt lat="42.2868358" lon="13.9794897"><ele>257.6666666666667</ele><time>2026-05-02T08:08:02.306Z</time></trkpt><trkpt lat="42.2868358" lon="13.9792413"><ele>258.0</ele><time>2026-05-02T08:08:04.314Z</time></trkpt><trkpt lat="42.2868282" lon="13.9789702"><ele>257.6666666666667</ele><time>2026-05-02T08:08:06.313Z</time></trkpt><trkpt lat="42.2867761" lon="13.9787001"><ele>257.33333333333337</ele><time>2026-05-02T08:08:08.315Z</time></trkpt><trkpt lat="42.2866942" lon="13.978452"><ele>257.0</ele><time>2026-05-02T08:08:10.315Z</time></trkpt><trkpt lat="42.2865592" lon="13.9782076"><ele>261.0</ele><time>2026-05-02T08:08:12.311Z</time></trkpt><trkpt lat="42.2863867" lon="13.9780159"><ele>265.0</ele><time>2026-05-02T08:08:14.318Z</time></trkpt><trkpt lat="42.2862062" lon="13.9778228"><ele>265.0</ele><time>2026-05-02T08:08:16.32Z</time></trkpt><trkpt lat="42.2860751" lon="13.9776153"><ele>265.0</ele><time>2026-05-02T08:08:18.318Z</time></trkpt><trkpt lat="42.2859767" lon="13.9773865"><ele>265.0</ele><time>2026-05-02T08:08:20.313Z</time></trkpt><trkpt lat="42.2858218" lon="13.9771894"><ele>264.66666666666663</ele><time>2026-05-02T08:08:22.321Z</time></trkpt><trkpt lat="42.2856379" lon="13.9770382"><ele>264.3333333333333</ele><time>2026-05-02T08:08:24.317Z</time></trkpt><trkpt lat="42.2854734" lon="13.9769129"><ele>264.0</ele><time>2026-05-02T08:08:26.317Z</time></trkpt><trkpt lat="42.285348" lon="13.976761"><ele>265.6666666666667</ele><time>2026-05-02T08:08:28.316Z</time></trkpt><trkpt lat="42.2853035" lon="13.9765798"><ele>267.33333333333337</ele><time>2026-05-02T08:08:30.303Z</time></trkpt><trkpt lat="42.2853603" lon="13.976354"><ele>269.0</ele><time>2026-05-02T08:08:32.313Z</time></trkpt><trkpt lat="42.2854043" lon="13.9760439"><ele>271.5</ele><time>2026-05-02T08:08:34.313Z</time></trkpt><trkpt lat="42.2854072" lon="13.9757118"><ele>274.0</ele><time>2026-05-02T08:08:36.315Z</time></trkpt><trkpt lat="42.2853644" lon="13.9753843"><ele>274.0</ele><time>2026-05-02T08:08:38.307Z</time></trkpt><trkpt lat="42.2853019" lon="13.9750575"><ele>274.0</ele><time>2026-05-02T08:08:40.318Z</time></trkpt><trkpt lat="42.2851946" lon="13.9747615"><ele>275.0</ele><time>2026-05-02T08:08:42.316Z</time></trkpt><trkpt lat="42.285058" lon="13.9744783"><ele>276.0</ele><time>2026-05-02T08:08:44.304Z</time></trkpt><trkpt lat="42.284935" lon="13.9741954"><ele>276.5</ele><time>2026-05-02T08:08:46.314Z</time></trkpt><trkpt lat="42.28482" lon="13.9739332"><ele>277.0</ele><time>2026-05-02T08:08:48.328Z</time></trkpt><trkpt lat="42.2847194" lon="13.9736615"><ele>280.66666666666663</ele><time>2026-05-02T08:08:50.321Z</time></trkpt><trkpt lat="42.284608" lon="13.9733988"><ele>284.3333333333333</ele><time>2026-05-02T08:08:52.313Z</time></trkpt><trkpt lat="42.2844785" lon="13.973163"><ele>288.0</ele><time>2026-05-02T08:08:54.309Z</time></trkpt><trkpt lat="42.2843105" lon="13.9729952"><ele>289.5</ele><time>2026-05-02T08:08:56.311Z</time></trkpt><trkpt lat="42.284069" lon="13.9728429"><ele>291.0</ele><time>2026-05-02T08:08:58.32Z</time></trkpt><trkpt lat="42.2838258" lon="13.9726947"><ele>292.0</ele><time>2026-05-02T08:09:00.315Z</time></trkpt><trkpt lat="42.2835998" lon="13.9725766"><ele>293.0</ele><time>2026-05-02T08:09:02.307Z</time></trkpt><trkpt lat="42.2833929" lon="13.9724982"><ele>293.0</ele><time>2026-05-02T08:09:04.306Z</time></trkpt><trkpt lat="42.2831915" lon="13.9724865"><ele>293.0</ele><time>2026-05-02T08:09:06.307Z</time></trkpt><trkpt lat="42.2830655" lon="13.972375"><ele>293.0</ele><time>2026-05-02T08:09:08.311Z</time></trkpt><trkpt lat="42.2830009" lon="13.9722101"><ele>295.0</ele><time>2026-05-02T08:09:10.316Z</time></trkpt><trkpt lat="42.2829587" lon="13.9721385"><ele>297.0</ele><time>2026-05-02T08:09:12.314Z</time></trkpt><trkpt lat="42.2828889" lon="13.9720376"><ele>299.0</ele><time>2026-05-02T08:09:16.317Z</time></trkpt><trkpt lat="42.2829253" lon="13.9718913"><ele>301.0</ele><time>2026-05-02T08:09:18.309Z</time></trkpt><trkpt lat="42.283039" lon="13.9716899"><ele>297.66666666666663</ele><time>2026-05-02T08:09:20.305Z</time></trkpt><trkpt lat="42.2831412" lon="13.9714178"><ele>294.3333333333333</ele><time>2026-05-02T08:09:22.314Z</time></trkpt><trkpt lat="42.2832191" lon="13.9711655"><ele>291.0</ele><time>2026-05-02T08:09:24.311Z</time></trkpt><trkpt lat="42.2833827" lon="13.9709349"><ele>290.6666666666667</ele><time>2026-05-02T08:09:26.303Z</time></trkpt><trkpt lat="42.2835565" lon="13.9707668"><ele>290.33333333333337</ele><time>2026-05-02T08:09:28.316Z</time></trkpt><trkpt lat="42.2836957" lon="13.9706138"><ele>290.0</ele><time>2026-05-02T08:09:30.305Z</time></trkpt><trkpt lat="42.283862" lon="13.970505"><ele>289.0</ele><time>2026-05-02T08:09:32.301Z</time></trkpt><trkpt lat="42.2840488" lon="13.9704944"><ele>288.0</ele><time>2026-05-02T08:09:34.311Z</time></trkpt><trkpt lat="42.2842787" lon="13.9705257"><ele>287.0</ele><time>2026-05-02T08:09:36.306Z</time></trkpt><trkpt lat="42.2845279" lon="13.9704778"><ele>287.5</ele><time>2026-05-02T08:09:38.316Z</time></trkpt><trkpt lat="42.284794" lon="13.9703876"><ele>288.0</ele><time>2026-05-02T08:09:40.321Z</time></trkpt><trkpt lat="42.2850464" lon="13.9702901"><ele>288.0</ele><time>2026-05-02T08:09:42.318Z</time></trkpt><trkpt lat="42.2852354" lon="13.9702249"><ele>288.0</ele><time>2026-05-02T08:09:44.306Z</time></trkpt><trkpt lat="42.285358" lon="13.9700949"><ele>288.0</ele><time>2026-05-02T08:09:46.338Z</time></trkpt><trkpt lat="42.285461" lon="13.9698903"><ele>288.0</ele><time>2026-05-02T08:09:48.312Z</time></trkpt><trkpt lat="42.2855476" lon="13.9696228"><ele>288.0</ele><time>2026-05-02T08:09:50.358Z</time></trkpt><trkpt lat="42.2856488" lon="13.969339"><ele>288.0</ele><time>2026-05-02T08:09:52.405Z</time></trkpt><trkpt lat="42.2857441" lon="13.9690852"><ele>290.0</ele><time>2026-05-02T08:09:54.399Z</time></trkpt><trkpt lat="42.285807" lon="13.9689036"><ele>292.0</ele><time>2026-05-02T08:09:56.403Z</time></trkpt><trkpt lat="42.2858568" lon="13.9687675"><ele>294.0</ele><time>2026-05-02T08:09:58.405Z</time></trkpt><trkpt lat="42.2859202" lon="13.968652"><ele>296.0</ele><time>2026-05-02T08:10:00.401Z</time></trkpt><trkpt lat="42.286035" lon="13.9685494"><ele>298.0</ele><time>2026-05-02T08:10:02.383Z</time></trkpt><trkpt lat="42.2861785" lon="13.9683587"><ele>300.0</ele><time>2026-05-02T08:10:04.385Z</time></trkpt><trkpt lat="42.2863233" lon="13.9681162"><ele>302.0</ele><time>2026-05-02T08:10:06.406Z</time></trkpt><trkpt lat="42.2864656" lon="13.9678488"><ele>299.0</ele><time>2026-05-02T08:10:08.401Z</time></trkpt><trkpt lat="42.2865994" lon="13.9675836"><ele>296.0</ele><time>2026-05-02T08:10:10.41Z</time></trkpt><trkpt lat="42.2867484" lon="13.9673434"><ele>296.0</ele><time>2026-05-02T08:10:12.405Z</time></trkpt><trkpt lat="42.2868884" lon="13.9671341"><ele>296.0</ele><time>2026-05-02T08:10:14.394Z</time></trkpt><trkpt lat="42.2869905" lon="13.9669124"><ele>296.0</ele><time>2026-05-02T08:10:16.394Z</time></trkpt><trkpt lat="42.2870002" lon="13.966652"><ele>299.6666666666667</ele><time>2026-05-02T08:10:18.41Z</time></trkpt><trkpt lat="42.286931" lon="13.9663944"><ele>303.3333333333333</ele><time>2026-05-02T08:10:20.409Z</time></trkpt><trkpt lat="42.286838" lon="13.9660986"><ele>307.0</ele><time>2026-05-02T08:10:22.401Z</time></trkpt><trkpt lat="42.2867396" lon="13.9657666"><ele>309.5</ele><time>2026-05-02T08:10:24.416Z</time></trkpt><trkpt lat="42.2866354" lon="13.9654139"><ele>312.0</ele><time>2026-05-02T08:10:26.414Z</time></trkpt><trkpt lat="42.2865635" lon="13.9651129"><ele>312.3333333333333</ele><time>2026-05-02T08:10:28.415Z</time></trkpt><trkpt lat="42.2865508" lon="13.9647859"><ele>312.66666666666663</ele><time>2026-05-02T08:10:30.419Z</time></trkpt><trkpt lat="42.2865636" lon="13.9645145"><ele>313.0</ele><time>2026-05-02T08:10:32.394Z</time></trkpt><trkpt lat="42.2866207" lon="13.9642896"><ele>313.66666666666663</ele><time>2026-05-02T08:10:34.392Z</time></trkpt><trkpt lat="42.2867266" lon="13.9640486"><ele>314.3333333333333</ele><time>2026-05-02T08:10:36.406Z</time></trkpt><trkpt lat="42.2868482" lon="13.963874"><ele>315.0</ele><time>2026-05-02T08:10:38.398Z</time></trkpt><trkpt lat="42.2869145" lon="13.9636941"><ele>315.0</ele><time>2026-05-02T08:10:40.393Z</time></trkpt><trkpt lat="42.286904" lon="13.9634789"><ele>315.0</ele><time>2026-05-02T08:10:42.405Z</time></trkpt><trkpt lat="42.2868146" lon="13.9632677"><ele>315.0</ele><time>2026-05-02T08:10:44.392Z</time></trkpt><trkpt lat="42.2866951" lon="13.9630134"><ele>312.5</ele><time>2026-05-02T08:10:46.313Z</time></trkpt><trkpt lat="42.2865912" lon="13.9626913"><ele>310.0</ele><time>2026-05-02T08:10:48.333Z</time></trkpt><trkpt lat="42.2864947" lon="13.9623988"><ele>310.0</ele><time>2026-05-02T08:10:50.341Z</time></trkpt><trkpt lat="42.2864019" lon="13.9621081"><ele>310.0</ele><time>2026-05-02T08:10:52.334Z</time></trkpt><trkpt lat="42.2863004" lon="13.9618026"><ele>308.66666666666663</ele><time>2026-05-02T08:10:54.333Z</time></trkpt><trkpt lat="42.2862164" lon="13.9615267"><ele>307.3333333333333</ele><time>2026-05-02T08:10:56.333Z</time></trkpt><trkpt lat="42.2861542" lon="13.9612768"><ele>306.0</ele><time>2026-05-02T08:10:58.335Z</time></trkpt><trkpt lat="42.286131" lon="13.961011"><ele>305.3333333333333</ele><time>2026-05-02T08:11:00.335Z</time></trkpt><trkpt lat="42.2861314" lon="13.9607391"><ele>304.66666666666663</ele><time>2026-05-02T08:11:02.326Z</time></trkpt><trkpt lat="42.2861654" lon="13.9604348"><ele>304.0</ele><time>2026-05-02T08:11:04.331Z</time></trkpt><trkpt lat="42.2862069" lon="13.9602208"><ele>304.0</ele><time>2026-05-02T08:11:06.326Z</time></trkpt><trkpt lat="42.2862317" lon="13.96006"><ele>304.0</ele><time>2026-05-02T08:11:08.328Z</time></trkpt><trkpt lat="42.2862465" lon="13.959925"><ele>304.0</ele><time>2026-05-02T08:11:10.33Z</time></trkpt><trkpt lat="42.2862615" lon="13.9597905"><ele>304.0</ele><time>2026-05-02T08:11:12.331Z</time></trkpt><trkpt lat="42.2862625" lon="13.9596228"><ele>304.0</ele><time>2026-05-02T08:11:14.328Z</time></trkpt><trkpt lat="42.2862573" lon="13.9594132"><ele>301.3333333333333</ele><time>2026-05-02T08:11:16.324Z</time></trkpt><trkpt lat="42.2861954" lon="13.9591944"><ele>298.6666666666667</ele><time>2026-05-02T08:11:18.329Z</time></trkpt><trkpt lat="42.2860902" lon="13.9590152"><ele>296.0</ele><time>2026-05-02T08:11:20.331Z</time></trkpt><trkpt lat="42.2859698" lon="13.9588646"><ele>296.0</ele><time>2026-05-02T08:11:22.342Z</time></trkpt><trkpt lat="42.2858518" lon="13.9587355"><ele>296.0</ele><time>2026-05-02T08:11:24.333Z</time></trkpt><trkpt lat="42.2857402" lon="13.9586187"><ele>296.0</ele><time>2026-05-02T08:11:26.33Z</time></trkpt><trkpt lat="42.2856619" lon="13.9584844"><ele>296.0</ele><time>2026-05-02T08:11:28.328Z</time></trkpt><trkpt lat="42.2856399" lon="13.9583794"><ele>295.0</ele><time>2026-05-02T08:11:30.326Z</time></trkpt><trkpt lat="42.2855303" lon="13.9582166"><ele>294.0</ele><time>2026-05-02T08:11:34.324Z</time></trkpt><trkpt lat="42.2853677" lon="13.9581212"><ele>293.0</ele><time>2026-05-02T08:11:36.319Z</time></trkpt><trkpt lat="42.2851906" lon="13.9580349"><ele>293.0</ele><time>2026-05-02T08:11:38.319Z</time></trkpt><trkpt lat="42.2850364" lon="13.9579345"><ele>293.0</ele><time>2026-05-02T08:11:40.319Z</time></trkpt><trkpt lat="42.2848498" lon="13.9578189"><ele>293.0</ele><time>2026-05-02T08:11:42.322Z</time></trkpt><trkpt lat="42.2846392" lon="13.9577011"><ele>290.5</ele><time>2026-05-02T08:11:44.311Z</time></trkpt><trkpt lat="42.2844233" lon="13.9575415"><ele>288.0</ele><time>2026-05-02T08:11:46.316Z</time></trkpt><trkpt lat="42.2842029" lon="13.9573664"><ele>286.5</ele><time>2026-05-02T08:11:48.318Z</time></trkpt><trkpt lat="42.2840255" lon="13.9571422"><ele>285.0</ele><time>2026-05-02T08:11:50.317Z</time></trkpt><trkpt lat="42.2838576" lon="13.9569081"><ele>281.0</ele><time>2026-05-02T08:11:52.325Z</time></trkpt><trkpt lat="42.2836795" lon="13.9566752"><ele>277.0</ele><time>2026-05-02T08:11:54.323Z</time></trkpt><trkpt lat="42.2834929" lon="13.9564089"><ele>277.0</ele><time>2026-05-02T08:11:56.316Z</time></trkpt><trkpt lat="42.2833073" lon="13.9561124"><ele>277.0</ele><time>2026-05-02T08:11:58.325Z</time></trkpt><trkpt lat="42.283089" lon="13.9558572"><ele>273.0</ele><time>2026-05-02T08:12:00.317Z</time></trkpt><trkpt lat="42.2828628" lon="13.9556052"><ele>269.0</ele><time>2026-05-02T08:12:02.315Z</time></trkpt><trkpt lat="42.2826555" lon="13.9553449"><ele>269.0</ele><time>2026-05-02T08:12:04.317Z</time></trkpt><trkpt lat="42.2824533" lon="13.9551072"><ele>269.0</ele><time>2026-05-02T08:12:06.311Z</time></trkpt><trkpt lat="42.2822557" lon="13.9549561"><ele>265.0</ele><time>2026-05-02T08:12:08.312Z</time></trkpt><trkpt lat="42.282017" lon="13.9549037"><ele>261.0</ele><time>2026-05-02T08:12:10.318Z</time></trkpt><trkpt lat="42.2817514" lon="13.9549408"><ele>261.0</ele><time>2026-05-02T08:12:12.314Z</time></trkpt><trkpt lat="42.2815177" lon="13.9549097"><ele>261.0</ele><time>2026-05-02T08:12:14.311Z</time></trkpt><trkpt lat="42.281324" lon="13.9547691"><ele>259.5</ele><time>2026-05-02T08:12:16.32Z</time></trkpt><trkpt lat="42.281116" lon="13.9545495"><ele>258.0</ele><time>2026-05-02T08:12:18.313Z</time></trkpt><trkpt lat="42.2808844" lon="13.9543607"><ele>258.0</ele><time>2026-05-02T08:12:20.311Z</time></trkpt><trkpt lat="42.2806203" lon="13.9542278"><ele>258.0</ele><time>2026-05-02T08:12:22.316Z</time></trkpt><trkpt lat="42.2803657" lon="13.9540546"><ele>251.0</ele><time>2026-05-02T08:12:24.328Z</time></trkpt><trkpt lat="42.2801196" lon="13.953937"><ele>244.0</ele><time>2026-05-02T08:12:26.311Z</time></trkpt><trkpt lat="42.2798693" lon="13.9539117"><ele>243.5</ele><time>2026-05-02T08:12:28.318Z</time></trkpt><trkpt lat="42.279634" lon="13.9538486"><ele>243.0</ele><time>2026-05-02T08:12:30.313Z</time></trkpt><trkpt lat="42.2793917" lon="13.9537394"><ele>243.0</ele><time>2026-05-02T08:12:32.313Z</time></trkpt><trkpt lat="42.2791418" lon="13.9536532"><ele>243.0</ele><time>2026-05-02T08:12:34.309Z</time></trkpt><trkpt lat="42.2788991" lon="13.9535716"><ele>245.5</ele><time>2026-05-02T08:12:36.31Z</time></trkpt><trkpt lat="42.2786551" lon="13.9535073"><ele>248.0</ele><time>2026-05-02T08:12:38.307Z</time></trkpt><trkpt lat="42.278422" lon="13.9534217"><ele>242.5</ele><time>2026-05-02T08:12:40.294Z</time></trkpt><trkpt lat="42.2781843" lon="13.9533503"><ele>237.0</ele><time>2026-05-02T08:12:42.308Z</time></trkpt><trkpt lat="42.2779454" lon="13.9532824"><ele>237.0</ele><time>2026-05-02T08:12:44.309Z</time></trkpt><trkpt lat="42.2777126" lon="13.9532295"><ele>237.0</ele><time>2026-05-02T08:12:46.306Z</time></trkpt><trkpt lat="42.2775053" lon="13.9531886"><ele>237.0</ele><time>2026-05-02T08:12:48.319Z</time></trkpt><trkpt lat="42.2773612" lon="13.9531229"><ele>237.0</ele><time>2026-05-02T08:12:50.309Z</time></trkpt><trkpt lat="42.2772454" lon="13.9530863"><ele>237.0</ele><time>2026-05-02T08:12:52.307Z</time></trkpt><trkpt lat="42.2771721" lon="13.9530504"><ele>237.0</ele><time>2026-05-02T08:12:56.319Z</time></trkpt><trkpt lat="42.2772124" lon="13.9529211"><ele>237.0</ele><time>2026-05-02T08:13:00.325Z</time></trkpt><trkpt lat="42.2773353" lon="13.9529447"><ele>237.0</ele><time>2026-05-02T08:13:04.319Z</time></trkpt><trkpt lat="42.2774853" lon="13.9530162"><ele>237.0</ele><time>2026-05-02T08:13:06.324Z</time></trkpt><trkpt lat="42.2776308" lon="13.9530225"><ele>237.0</ele><time>2026-05-02T08:13:08.313Z</time></trkpt><trkpt lat="42.2777609" lon="13.952961"><ele>237.0</ele><time>2026-05-02T08:13:10.314Z</time></trkpt><trkpt lat="42.277845" lon="13.9528271"><ele>237.0</ele><time>2026-05-02T08:13:12.322Z</time></trkpt><trkpt lat="42.2778367" lon="13.9526545"><ele>234.6</ele><time>2026-05-02T08:13:14.313Z</time></trkpt><trkpt lat="42.2777977" lon="13.9524997"><ele>232.2</ele><time>2026-05-02T08:13:16.327Z</time></trkpt><trkpt lat="42.2777396" lon="13.9523754"><ele>229.8</ele><time>2026-05-02T08:13:18.308Z</time></trkpt><trkpt lat="42.2776431" lon="13.9523204"><ele>227.4</ele><time>2026-05-02T08:13:20.313Z</time></trkpt><trkpt lat="42.2775565" lon="13.9522718"><ele>225.0</ele><time>2026-05-02T08:13:22.33Z</time></trkpt><trkpt lat="42.2774702" lon="13.9522349"><ele>225.0</ele><time>2026-05-02T08:13:24.326Z</time></trkpt><trkpt lat="42.2773923" lon="13.9521729"><ele>225.0</ele><time>2026-05-02T08:13:26.338Z</time></trkpt><trkpt lat="42.27734" lon="13.9520588"><ele>225.0</ele><time>2026-05-02T08:13:28.325Z</time></trkpt><trkpt lat="42.277335" lon="13.9519145"><ele>225.0</ele><time>2026-05-02T08:13:30.318Z</time></trkpt><trkpt lat="42.2773561" lon="13.9517797"><ele>225.0</ele><time>2026-05-02T08:13:32.318Z</time></trkpt><trkpt lat="42.2773833" lon="13.9516743"><ele>222.6</ele><time>2026-05-02T08:13:34.323Z</time></trkpt><trkpt lat="42.2774063" lon="13.9515526"><ele>220.2</ele><time>2026-05-02T08:13:36.326Z</time></trkpt><trkpt lat="42.2774506" lon="13.9514593"><ele>217.8</ele><time>2026-05-02T08:13:38.319Z</time></trkpt><trkpt lat="42.2775331" lon="13.9514485"><ele>215.4</ele><time>2026-05-02T08:13:40.317Z</time></trkpt><trkpt lat="42.2776312" lon="13.9515028"><ele>213.0</ele><time>2026-05-02T08:13:42.32Z</time></trkpt><trkpt lat="42.27773" lon="13.951536"><ele>213.0</ele><time>2026-05-02T08:13:44.314Z</time></trkpt><trkpt lat="42.2777883" lon="13.9514835"><ele>213.0</ele><time>2026-05-02T08:13:46.318Z</time></trkpt><trkpt lat="42.2777588" lon="13.9513624"><ele>213.0</ele><time>2026-05-02T08:13:48.32Z</time></trkpt><trkpt lat="42.2776928" lon="13.9512265"><ele>213.0</ele><time>2026-05-02T08:13:50.311Z</time></trkpt><trkpt lat="42.2775879" lon="13.951041"><ele>208.66666666666669</ele><time>2026-05-02T08:13:52.313Z</time></trkpt><trkpt lat="42.2774816" lon="13.9508323"><ele>204.33333333333334</ele><time>2026-05-02T08:13:54.314Z</time></trkpt><trkpt lat="42.2773778" lon="13.9506441"><ele>200.0</ele><time>2026-05-02T08:13:56.312Z</time></trkpt><trkpt lat="42.2772882" lon="13.9504437"><ele>200.25</ele><time>2026-05-02T08:13:58.314Z</time></trkpt><trkpt lat="42.2772083" lon="13.9502835"><ele>200.5</ele><time>2026-05-02T08:14:00.312Z</time></trkpt><trkpt lat="42.2771189" lon="13.9501496"><ele>200.75</ele><time>2026-05-02T08:14:02.315Z</time></trkpt><trkpt lat="42.2770186" lon="13.9500839"><ele>201.0</ele><time>2026-05-02T08:14:04.315Z</time></trkpt><trkpt lat="42.2769342" lon="13.9500274"><ele>199.4</ele><time>2026-05-02T08:14:06.311Z</time></trkpt><trkpt lat="42.2768902" lon="13.9499557"><ele>197.8</ele><time>2026-05-02T08:14:08.318Z</time></trkpt><trkpt lat="42.2769208" lon="13.9498638"><ele>196.20000000000002</ele><time>2026-05-02T08:14:10.315Z</time></trkpt><trkpt lat="42.276984" lon="13.9498303"><ele>194.60000000000002</ele><time>2026-05-02T08:14:12.325Z</time></trkpt><trkpt lat="42.2771272" lon="13.9498536"><ele>193.0</ele><time>2026-05-02T08:14:14.314Z</time></trkpt><trkpt lat="42.277276" lon="13.9498474"><ele>191.66666666666666</ele><time>2026-05-02T08:14:16.304Z</time></trkpt><trkpt lat="42.2774036" lon="13.9497379"><ele>190.33333333333331</ele><time>2026-05-02T08:14:18.309Z</time></trkpt><trkpt lat="42.2774111" lon="13.9495123"><ele>189.0</ele><time>2026-05-02T08:14:20.307Z</time></trkpt><trkpt lat="42.2773148" lon="13.9493568"><ele>188.0</ele><time>2026-05-02T08:14:22.314Z</time></trkpt><trkpt lat="42.2771695" lon="13.9493166"><ele>187.0</ele><time>2026-05-02T08:14:24.317Z</time></trkpt><trkpt lat="42.277004" lon="13.9492619"><ele>186.0</ele><time>2026-05-02T08:14:26.315Z</time></trkpt><trkpt lat="42.2768525" lon="13.9490918"><ele>186.0</ele><time>2026-05-02T08:14:28.419Z</time></trkpt><trkpt lat="42.276715" lon="13.9489191"><ele>186.0</ele><time>2026-05-02T08:14:30.315Z</time></trkpt><trkpt lat="42.2766149" lon="13.9486865"><ele>186.0</ele><time>2026-05-02T08:14:32.309Z</time></trkpt><trkpt lat="42.2765441" lon="13.9483835"><ele>188.5</ele><time>2026-05-02T08:14:34.313Z</time></trkpt><trkpt lat="42.2764999" lon="13.9480461"><ele>191.0</ele><time>2026-05-02T08:14:36.314Z</time></trkpt><trkpt lat="42.2764496" lon="13.9477193"><ele>187.33333333333331</ele><time>2026-05-02T08:14:38.314Z</time></trkpt><trkpt lat="42.2764083" lon="13.9474561"><ele>183.66666666666666</ele><time>2026-05-02T08:14:40.312Z</time></trkpt><trkpt lat="42.2763735" lon="13.9471431"><ele>180.0</ele><time>2026-05-02T08:14:42.317Z</time></trkpt><trkpt lat="42.276323" lon="13.9468028"><ele>184.66666666666669</ele><time>2026-05-02T08:14:44.32Z</time></trkpt><trkpt lat="42.2762574" lon="13.9464954"><ele>189.33333333333334</ele><time>2026-05-02T08:14:46.313Z</time></trkpt><trkpt lat="42.2762038" lon="13.9462729"><ele>194.0</ele><time>2026-05-02T08:14:48.318Z</time></trkpt><trkpt lat="42.2760867" lon="13.9461353"><ele>194.0</ele><time>2026-05-02T08:14:50.306Z</time></trkpt><trkpt lat="42.2759072" lon="13.9460261"><ele>194.0</ele><time>2026-05-02T08:14:52.31Z</time></trkpt><trkpt lat="42.2757395" lon="13.9459016"><ele>194.0</ele><time>2026-05-02T08:14:54.309Z</time></trkpt><trkpt lat="42.2755964" lon="13.9458046"><ele>193.75</ele><time>2026-05-02T08:14:56.313Z</time></trkpt><trkpt lat="42.2754827" lon="13.945684"><ele>193.5</ele><time>2026-05-02T08:14:58.323Z</time></trkpt><trkpt lat="42.2754475" lon="13.9455384"><ele>193.25</ele><time>2026-05-02T08:15:00.313Z</time></trkpt><trkpt lat="42.2754876" lon="13.945379"><ele>193.0</ele><time>2026-05-02T08:15:02.317Z</time></trkpt><trkpt lat="42.2756124" lon="13.9453299"><ele>198.33333333333331</ele><time>2026-05-02T08:15:04.316Z</time></trkpt><trkpt lat="42.2757766" lon="13.9453187"><ele>203.66666666666669</ele><time>2026-05-02T08:15:06.315Z</time></trkpt><trkpt lat="42.2759863" lon="13.9452822"><ele>209.0</ele><time>2026-05-02T08:15:08.314Z</time></trkpt><trkpt lat="42.2762001" lon="13.9452399"><ele>209.0</ele><time>2026-05-02T08:15:10.319Z</time></trkpt><trkpt lat="42.2764244" lon="13.9451923"><ele>209.0</ele><time>2026-05-02T08:15:12.317Z</time></trkpt><trkpt lat="42.2766343" lon="13.945159"><ele>209.0</ele><time>2026-05-02T08:15:14.321Z</time></trkpt><trkpt lat="42.2768496" lon="13.9451146"><ele>213.33333333333334</ele><time>2026-05-02T08:15:16.314Z</time></trkpt><trkpt lat="42.2769867" lon="13.9450085"><ele>217.66666666666669</ele><time>2026-05-02T08:15:18.324Z</time></trkpt><trkpt lat="42.2770397" lon="13.9448179"><ele>222.0</ele><time>2026-05-02T08:15:20.306Z</time></trkpt><trkpt lat="42.2770775" lon="13.9445467"><ele>222.0</ele><time>2026-05-02T08:15:22.307Z</time></trkpt><trkpt lat="42.2771101" lon="13.944337"><ele>222.0</ele><time>2026-05-02T08:15:24.305Z</time></trkpt><trkpt lat="42.2771503" lon="13.9441447"><ele>222.0</ele><time>2026-05-02T08:15:26.306Z</time></trkpt><trkpt lat="42.2771829" lon="13.9438875"><ele>222.33333333333331</ele><time>2026-05-02T08:15:28.299Z</time></trkpt><trkpt lat="42.2771742" lon="13.943598"><ele>222.66666666666666</ele><time>2026-05-02T08:15:30.307Z</time></trkpt><trkpt lat="42.2771133" lon="13.9433385"><ele>223.0</ele><time>2026-05-02T08:15:32.296Z</time></trkpt><trkpt lat="42.2770237" lon="13.9431729"><ele>224.5</ele><time>2026-05-02T08:15:34.302Z</time></trkpt><trkpt lat="42.2769192" lon="13.9430709"><ele>226.0</ele><time>2026-05-02T08:15:36.305Z</time></trkpt><trkpt lat="42.276813" lon="13.9430278"><ele>227.5</ele><time>2026-05-02T08:15:38.301Z</time></trkpt><trkpt lat="42.2767141" lon="13.9429902"><ele>229.0</ele><time>2026-05-02T08:15:40.3Z</time></trkpt><trkpt lat="42.2765887" lon="13.9429563"><ele>226.0</ele><time>2026-05-02T08:15:42.302Z</time></trkpt><trkpt lat="42.2764293" lon="13.9429313"><ele>223.0</ele><time>2026-05-02T08:15:44.301Z</time></trkpt><trkpt lat="42.27627" lon="13.9428931"><ele>220.0</ele><time>2026-05-02T08:15:46.311Z</time></trkpt><trkpt lat="42.2761585" lon="13.9428271"><ele>217.0</ele><time>2026-05-02T08:15:48.304Z</time></trkpt><trkpt lat="42.2760764" lon="13.9426802"><ele>222.0</ele><time>2026-05-02T08:15:50.31Z</time></trkpt><trkpt lat="42.2760136" lon="13.9424629"><ele>227.0</ele><time>2026-05-02T08:15:52.316Z</time></trkpt><trkpt lat="42.275946" lon="13.9422348"><ele>232.0</ele><time>2026-05-02T08:15:54.311Z</time></trkpt><trkpt lat="42.2758684" lon="13.9420031"><ele>232.0</ele><time>2026-05-02T08:15:56.309Z</time></trkpt><trkpt lat="42.2757872" lon="13.9417827"><ele>232.0</ele><time>2026-05-02T08:15:58.312Z</time></trkpt><trkpt lat="42.2757121" lon="13.9416284"><ele>232.0</ele><time>2026-05-02T08:16:00.32Z</time></trkpt><trkpt lat="42.2756848" lon="13.9414784"><ele>232.0</ele><time>2026-05-02T08:16:02.313Z</time></trkpt><trkpt lat="42.27566" lon="13.9412558"><ele>232.0</ele><time>2026-05-02T08:16:04.308Z</time></trkpt><trkpt lat="42.2756122" lon="13.941027"><ele>232.0</ele><time>2026-05-02T08:16:06.313Z</time></trkpt><trkpt lat="42.2755867" lon="13.9408243"><ele>232.0</ele><time>2026-05-02T08:16:08.308Z</time></trkpt><trkpt lat="42.2755827" lon="13.9406282"><ele>232.0</ele><time>2026-05-02T08:16:10.308Z</time></trkpt><trkpt lat="42.2755953" lon="13.9404402"><ele>232.0</ele><time>2026-05-02T08:16:12.306Z</time></trkpt><trkpt lat="42.2756184" lon="13.9402948"><ele>232.0</ele><time>2026-05-02T08:16:14.3Z</time></trkpt><trkpt lat="42.2756387" lon="13.9401757"><ele>232.0</ele><time>2026-05-02T08:16:16.305Z</time></trkpt><trkpt lat="42.2755853" lon="13.9400794"><ele>232.0</ele><time>2026-05-02T08:16:20.31Z</time></trkpt><trkpt lat="42.2754687" lon="13.9401231"><ele>232.0</ele><time>2026-05-02T08:16:22.303Z</time></trkpt><trkpt lat="42.2753046" lon="13.9402115"><ele>232.0</ele><time>2026-05-02T08:16:24.318Z</time></trkpt><trkpt lat="42.2751387" lon="13.9403184"><ele>232.0</ele><time>2026-05-02T08:16:26.309Z</time></trkpt><trkpt lat="42.2749651" lon="13.9404383"><ele>232.0</ele><time>2026-05-02T08:16:28.386Z</time></trkpt><trkpt lat="42.2748086" lon="13.9405444"><ele>232.0</ele><time>2026-05-02T08:16:30.389Z</time></trkpt><trkpt lat="42.2746441" lon="13.9406515"><ele>232.0</ele><time>2026-05-02T08:16:32.299Z</time></trkpt><trkpt lat="42.2744902" lon="13.9407245"><ele>228.66666666666666</ele><time>2026-05-02T08:16:34.298Z</time></trkpt><trkpt lat="42.2743436" lon="13.9407843"><ele>225.33333333333331</ele><time>2026-05-02T08:16:36.308Z</time></trkpt><trkpt lat="42.2741958" lon="13.94082"><ele>222.0</ele><time>2026-05-02T08:16:38.313Z</time></trkpt><trkpt lat="42.2740458" lon="13.9408259"><ele>217.33333333333331</ele><time>2026-05-02T08:16:40.311Z</time></trkpt><trkpt lat="42.2738781" lon="13.9407938"><ele>212.66666666666666</ele><time>2026-05-02T08:16:42.313Z</time></trkpt><trkpt lat="42.2736831" lon="13.9407253"><ele>208.0</ele><time>2026-05-02T08:16:44.307Z</time></trkpt><trkpt lat="42.2734583" lon="13.9406673"><ele>208.0</ele><time>2026-05-02T08:16:46.316Z</time></trkpt><trkpt lat="42.273222" lon="13.9406177"><ele>208.0</ele><time>2026-05-02T08:16:48.311Z</time></trkpt><trkpt lat="42.272957" lon="13.9405612"><ele>204.33333333333331</ele><time>2026-05-02T08:16:50.315Z</time></trkpt><trkpt lat="42.2727095" lon="13.9405078"><ele>200.66666666666669</ele><time>2026-05-02T08:16:52.313Z</time></trkpt><trkpt lat="42.2725376" lon="13.9404931"><ele>197.0</ele><time>2026-05-02T08:16:54.314Z</time></trkpt><trkpt lat="42.2724267" lon="13.9404757"><ele>197.0</ele><time>2026-05-02T08:16:56.316Z</time></trkpt><trkpt lat="42.2723612" lon="13.9404032"><ele>197.0</ele><time>2026-05-02T08:16:58.313Z</time></trkpt><trkpt lat="42.2723851" lon="13.9402843"><ele>197.0</ele><time>2026-05-02T08:17:00.32Z</time></trkpt><trkpt lat="42.2725143" lon="13.9401237"><ele>197.0</ele><time>2026-05-02T08:17:02.317Z</time></trkpt><trkpt lat="42.2726739" lon="13.9399361"><ele>196.66666666666669</ele><time>2026-05-02T08:17:04.31Z</time></trkpt><trkpt lat="42.2728089" lon="13.9397732"><ele>196.33333333333331</ele><time>2026-05-02T08:17:06.305Z</time></trkpt><trkpt lat="42.2729144" lon="13.9396394"><ele>196.0</ele><time>2026-05-02T08:17:08.303Z</time></trkpt><trkpt lat="42.2729767" lon="13.939482"><ele>196.0</ele><time>2026-05-02T08:17:10.299Z</time></trkpt><trkpt lat="42.2729644" lon="13.9393038"><ele>196.0</ele><time>2026-05-02T08:17:12.304Z</time></trkpt><trkpt lat="42.2728953" lon="13.9391397"><ele>196.0</ele><time>2026-05-02T08:17:14.299Z</time></trkpt><trkpt lat="42.2727912" lon="13.938977"><ele>196.0</ele><time>2026-05-02T08:17:16.298Z</time></trkpt><trkpt lat="42.2726393" lon="13.9387826"><ele>193.66666666666666</ele><time>2026-05-02T08:17:18.303Z</time></trkpt><trkpt lat="42.2724947" lon="13.9386147"><ele>191.33333333333331</ele><time>2026-05-02T08:17:20.302Z</time></trkpt><trkpt lat="42.2723512" lon="13.9385316"><ele>189.0</ele><time>2026-05-02T08:17:22.31Z</time></trkpt><trkpt lat="42.2721892" lon="13.9384614"><ele>187.5</ele><time>2026-05-02T08:17:24.303Z</time></trkpt><trkpt lat="42.2720247" lon="13.9384018"><ele>186.0</ele><time>2026-05-02T08:17:26.305Z</time></trkpt><trkpt lat="42.2718945" lon="13.9383902"><ele>184.5</ele><time>2026-05-02T08:17:28.297Z</time></trkpt><trkpt lat="42.2717995" lon="13.9383485"><ele>183.0</ele><time>2026-05-02T08:17:30.3Z</time></trkpt><trkpt lat="42.2717262" lon="13.9381784"><ele>180.0</ele><time>2026-05-02T08:17:32.287Z</time></trkpt><trkpt lat="42.2716772" lon="13.9379527"><ele>177.0</ele><time>2026-05-02T08:17:34.29Z</time></trkpt><trkpt lat="42.2715511" lon="13.9378367"><ele>174.0</ele><time>2026-05-02T08:17:36.289Z</time></trkpt><trkpt lat="42.2713831" lon="13.9378372"><ele>172.33333333333334</ele><time>2026-05-02T08:17:38.294Z</time></trkpt><trkpt lat="42.2711926" lon="13.9378895"><ele>170.66666666666669</ele><time>2026-05-02T08:17:40.295Z</time></trkpt><trkpt lat="42.271042" lon="13.9380002"><ele>169.0</ele><time>2026-05-02T08:17:42.292Z</time></trkpt><trkpt lat="42.2709167" lon="13.938222"><ele>170.0</ele><time>2026-05-02T08:17:44.295Z</time></trkpt><trkpt lat="42.2708431" lon="13.9384926"><ele>171.0</ele><time>2026-05-02T08:17:46.293Z</time></trkpt><trkpt lat="42.270768" lon="13.9388106"><ele>171.0</ele><time>2026-05-02T08:17:48.29Z</time></trkpt><trkpt lat="42.2707007" lon="13.9391057"><ele>171.0</ele><time>2026-05-02T08:17:50.284Z</time></trkpt><trkpt lat="42.2706445" lon="13.9394325"><ele>164.0</ele><time>2026-05-02T08:17:52.292Z</time></trkpt><trkpt lat="42.2705844" lon="13.9397993"><ele>157.0</ele><time>2026-05-02T08:17:54.288Z</time></trkpt><trkpt lat="42.2704708" lon="13.9400901"><ele>157.0</ele><time>2026-05-02T08:17:56.287Z</time></trkpt><trkpt lat="42.2703641" lon="13.9403515"><ele>157.0</ele><time>2026-05-02T08:17:58.293Z</time></trkpt><trkpt lat="42.2702814" lon="13.9406163"><ele>157.0</ele><time>2026-05-02T08:18:00.298Z</time></trkpt><trkpt lat="42.2701903" lon="13.9408909"><ele>157.0</ele><time>2026-05-02T08:18:02.291Z</time></trkpt><trkpt lat="42.2701183" lon="13.941111"><ele>157.0</ele><time>2026-05-02T08:18:04.303Z</time></trkpt><trkpt lat="42.2700265" lon="13.9413044"><ele>157.0</ele><time>2026-05-02T08:18:06.292Z</time></trkpt><trkpt lat="42.2699134" lon="13.9414695"><ele>157.0</ele><time>2026-05-02T08:18:08.286Z</time></trkpt><trkpt lat="42.2698679" lon="13.9416729"><ele>157.0</ele><time>2026-05-02T08:18:10.289Z</time></trkpt><trkpt lat="42.2698932" lon="13.9418974"><ele>157.0</ele><time>2026-05-02T08:18:12.303Z</time></trkpt><trkpt lat="42.2699121" lon="13.9421125"><ele>156.0</ele><time>2026-05-02T08:18:14.3Z</time></trkpt><trkpt lat="42.2698412" lon="13.9422798"><ele>155.0</ele><time>2026-05-02T08:18:16.294Z</time></trkpt><trkpt lat="42.2697279" lon="13.9423702"><ele>154.0</ele><time>2026-05-02T08:18:18.301Z</time></trkpt><trkpt lat="42.2695612" lon="13.9424346"><ele>153.0</ele><time>2026-05-02T08:18:20.309Z</time></trkpt><trkpt lat="42.2693614" lon="13.9424965"><ele>151.0</ele><time>2026-05-02T08:18:22.31Z</time></trkpt><trkpt lat="42.26913" lon="13.9425591"><ele>149.0</ele><time>2026-05-02T08:18:24.316Z</time></trkpt><trkpt lat="42.2689117" lon="13.9426292"><ele>148.0</ele><time>2026-05-02T08:18:26.31Z</time></trkpt><trkpt lat="42.2687471" lon="13.9426744"><ele>147.0</ele><time>2026-05-02T08:18:28.308Z</time></trkpt><trkpt lat="42.2685797" lon="13.9426882"><ele>146.0</ele><time>2026-05-02T08:18:30.313Z</time></trkpt><trkpt lat="42.2683715" lon="13.9426176"><ele>146.66666666666666</ele><time>2026-05-02T08:18:32.311Z</time></trkpt><trkpt lat="42.2682112" lon="13.9424964"><ele>147.33333333333334</ele><time>2026-05-02T08:18:34.306Z</time></trkpt><trkpt lat="42.2681047" lon="13.9423532"><ele>148.0</ele><time>2026-05-02T08:18:36.308Z</time></trkpt><trkpt lat="42.2679856" lon="13.9422952"><ele>150.75</ele><time>2026-05-02T08:18:38.309Z</time></trkpt><trkpt lat="42.267822" lon="13.9423226"><ele>153.5</ele><time>2026-05-02T08:18:40.306Z</time></trkpt><trkpt lat="42.2677108" lon="13.9422736"><ele>156.25</ele><time>2026-05-02T08:18:42.308Z</time></trkpt><trkpt lat="42.2676772" lon="13.9421384"><ele>159.0</ele><time>2026-05-02T08:18:44.316Z</time></trkpt><trkpt lat="42.2676785" lon="13.9419423"><ele>159.0</ele><time>2026-05-02T08:18:46.31Z</time></trkpt><trkpt lat="42.2676322" lon="13.9417169"><ele>159.0</ele><time>2026-05-02T08:18:48.304Z</time></trkpt><trkpt lat="42.2675464" lon="13.9414949"><ele>159.0</ele><time>2026-05-02T08:18:50.318Z</time></trkpt><trkpt lat="42.2674334" lon="13.9413"><ele>158.66666666666666</ele><time>2026-05-02T08:18:52.316Z</time></trkpt><trkpt lat="42.2673035" lon="13.941128"><ele>158.33333333333331</ele><time>2026-05-02T08:18:54.32Z</time></trkpt><trkpt lat="42.2671965" lon="13.9409087"><ele>158.0</ele><time>2026-05-02T08:18:56.309Z</time></trkpt><trkpt lat="42.2671092" lon="13.9407203"><ele>162.0</ele><time>2026-05-02T08:18:58.311Z</time></trkpt><trkpt lat="42.2670376" lon="13.9405353"><ele>166.0</ele><time>2026-05-02T08:19:00.311Z</time></trkpt><trkpt lat="42.2669497" lon="13.9403616"><ele>170.0</ele><time>2026-05-02T08:19:02.313Z</time></trkpt><trkpt lat="42.2668927" lon="13.9401915"><ele>174.0</ele><time>2026-05-02T08:19:04.308Z</time></trkpt><trkpt lat="42.2668234" lon="13.9401273"><ele>174.0</ele><time>2026-05-02T08:19:06.33Z</time></trkpt><trkpt lat="42.2667236" lon="13.9401923"><ele>174.0</ele><time>2026-05-02T08:19:08.303Z</time></trkpt><trkpt lat="42.2666773" lon="13.940346"><ele>174.0</ele><time>2026-05-02T08:19:10.309Z</time></trkpt><trkpt lat="42.2666204" lon="13.9405505"><ele>174.0</ele><time>2026-05-02T08:19:12.311Z</time></trkpt><trkpt lat="42.2665363" lon="13.9407956"><ele>173.66666666666666</ele><time>2026-05-02T08:19:14.312Z</time></trkpt><trkpt lat="42.2664703" lon="13.940972"><ele>173.33333333333331</ele><time>2026-05-02T08:19:16.325Z</time></trkpt><trkpt lat="42.2664047" lon="13.9411961"><ele>173.0</ele><time>2026-05-02T08:19:18.32Z</time></trkpt><trkpt lat="42.2663333" lon="13.9414306"><ele>179.66666666666666</ele><time>2026-05-02T08:19:20.314Z</time></trkpt><trkpt lat="42.2663016" lon="13.9416223"><ele>186.33333333333331</ele><time>2026-05-02T08:19:22.323Z</time></trkpt><trkpt lat="42.2663375" lon="13.9418241"><ele>193.0</ele><time>2026-05-02T08:19:24.315Z</time></trkpt><trkpt lat="42.2663825" lon="13.9420926"><ele>194.33333333333331</ele><time>2026-05-02T08:19:26.322Z</time></trkpt><trkpt lat="42.2664035" lon="13.9423084"><ele>195.66666666666669</ele><time>2026-05-02T08:19:28.316Z</time></trkpt><trkpt lat="42.2664267" lon="13.9424775"><ele>197.0</ele><time>2026-05-02T08:19:30.317Z</time></trkpt><trkpt lat="42.2664498" lon="13.9426975"><ele>196.8</ele><time>2026-05-02T08:19:32.334Z</time></trkpt><trkpt lat="42.2664742" lon="13.9428968"><ele>196.6</ele><time>2026-05-02T08:19:34.329Z</time></trkpt><trkpt lat="42.2664925" lon="13.9430397"><ele>196.4</ele><time>2026-05-02T08:19:36.341Z</time></trkpt><trkpt lat="42.2665109" lon="13.943138"><ele>196.20000000000002</ele><time>2026-05-02T08:19:38.329Z</time></trkpt><trkpt lat="42.2665103" lon="13.9432595"><ele>196.0</ele><time>2026-05-02T08:19:42.337Z</time></trkpt><trkpt lat="42.2663719" lon="13.9433119"><ele>196.0</ele><time>2026-05-02T08:19:46.339Z</time></trkpt><trkpt lat="42.2662032" lon="13.943311"><ele>196.0</ele><time>2026-05-02T08:19:48.327Z</time></trkpt><trkpt lat="42.2660213" lon="13.9433302"><ele>196.0</ele><time>2026-05-02T08:19:50.33Z</time></trkpt><trkpt lat="42.2658511" lon="13.9433527"><ele>196.0</ele><time>2026-05-02T08:19:52.33Z</time></trkpt><trkpt lat="42.2656758" lon="13.9433146"><ele>196.0</ele><time>2026-05-02T08:19:54.328Z</time></trkpt><trkpt lat="42.2655285" lon="13.9431717"><ele>196.0</ele><time>2026-05-02T08:19:56.334Z</time></trkpt><trkpt lat="42.2653789" lon="13.9429966"><ele>194.0</ele><time>2026-05-02T08:19:58.406Z</time></trkpt><trkpt lat="42.2652569" lon="13.9427414"><ele>192.0</ele><time>2026-05-02T08:20:00.405Z</time></trkpt><trkpt lat="42.2651444" lon="13.9424497"><ele>197.0</ele><time>2026-05-02T08:20:02.397Z</time></trkpt><trkpt lat="42.2650052" lon="13.9421193"><ele>202.0</ele><time>2026-05-02T08:20:04.401Z</time></trkpt><trkpt lat="42.2649339" lon="13.9420174"><ele>207.0</ele><time>2026-05-02T08:20:08.392Z</time></trkpt><trkpt lat="42.2649596" lon="13.9419348"><ele>207.0</ele><time>2026-05-02T08:20:10.417Z</time></trkpt><trkpt lat="42.264895" lon="13.9417913"><ele>207.0</ele><time>2026-05-02T08:20:12.335Z</time></trkpt><trkpt lat="42.2648058" lon="13.9416017"><ele>207.0</ele><time>2026-05-02T08:20:14.333Z</time></trkpt><trkpt lat="42.2647432" lon="13.9413664"><ele>208.0</ele><time>2026-05-02T08:20:16.337Z</time></trkpt><trkpt lat="42.2647196" lon="13.9411665"><ele>209.0</ele><time>2026-05-02T08:20:18.336Z</time></trkpt><trkpt lat="42.2647142" lon="13.9409368"><ele>210.0</ele><time>2026-05-02T08:20:20.334Z</time></trkpt><trkpt lat="42.2646773" lon="13.9406654"><ele>214.0</ele><time>2026-05-02T08:20:22.337Z</time></trkpt><trkpt lat="42.2646194" lon="13.9403946"><ele>218.0</ele><time>2026-05-02T08:20:24.335Z</time></trkpt><trkpt lat="42.2645624" lon="13.9401249"><ele>222.0</ele><time>2026-05-02T08:20:26.33Z</time></trkpt><trkpt lat="42.2645247" lon="13.9398178"><ele>223.66666666666669</ele><time>2026-05-02T08:20:28.345Z</time></trkpt><trkpt lat="42.2644926" lon="13.9395203"><ele>225.33333333333334</ele><time>2026-05-02T08:20:30.328Z</time></trkpt><trkpt lat="42.2644222" lon="13.9393073"><ele>227.0</ele><time>2026-05-02T08:20:32.334Z</time></trkpt><trkpt lat="42.2643481" lon="13.939095"><ele>224.33333333333334</ele><time>2026-05-02T08:20:34.333Z</time></trkpt><trkpt lat="42.2642329" lon="13.9388992"><ele>221.66666666666669</ele><time>2026-05-02T08:20:36.322Z</time></trkpt><trkpt lat="42.2640888" lon="13.9387135"><ele>219.0</ele><time>2026-05-02T08:20:38.344Z</time></trkpt><trkpt lat="42.263936" lon="13.9385084"><ele>229.0</ele><time>2026-05-02T08:20:40.335Z</time></trkpt><trkpt lat="42.2637713" lon="13.9382874"><ele>239.0</ele><time>2026-05-02T08:20:42.336Z</time></trkpt><trkpt lat="42.2636136" lon="13.938044"><ele>239.0</ele><time>2026-05-02T08:20:44.326Z</time></trkpt><trkpt lat="42.2634648" lon="13.9377414"><ele>239.0</ele><time>2026-05-02T08:20:46.332Z</time></trkpt><trkpt lat="42.2633583" lon="13.9374129"><ele>248.5</ele><time>2026-05-02T08:20:48.329Z</time></trkpt><trkpt lat="42.263308" lon="13.9370715"><ele>258.0</ele><time>2026-05-02T08:20:50.322Z</time></trkpt><trkpt lat="42.2632591" lon="13.9367827"><ele>259.75</ele><time>2026-05-02T08:20:52.333Z</time></trkpt><trkpt lat="42.2631826" lon="13.9365858"><ele>261.5</ele><time>2026-05-02T08:20:54.326Z</time></trkpt><trkpt lat="42.2630743" lon="13.9364705"><ele>263.25</ele><time>2026-05-02T08:20:56.323Z</time></trkpt><trkpt lat="42.2629279" lon="13.9364518"><ele>265.0</ele><time>2026-05-02T08:20:58.333Z</time></trkpt><trkpt lat="42.2627459" lon="13.9364164"><ele>265.0</ele><time>2026-05-02T08:21:00.332Z</time></trkpt><trkpt lat="42.2626255" lon="13.9363178"><ele>265.0</ele><time>2026-05-02T08:21:02.329Z</time></trkpt><trkpt lat="42.2625026" lon="13.9361647"><ele>265.0</ele><time>2026-05-02T08:21:04.335Z</time></trkpt><trkpt lat="42.2623749" lon="13.9359596"><ele>268.3333333333333</ele><time>2026-05-02T08:21:06.335Z</time></trkpt><trkpt lat="42.2622237" lon="13.9357588"><ele>271.6666666666667</ele><time>2026-05-02T08:21:08.328Z</time></trkpt><trkpt lat="42.2621087" lon="13.9356157"><ele>275.0</ele><time>2026-05-02T08:21:10.329Z</time></trkpt><trkpt lat="42.26207" lon="13.93549"><ele>275.0</ele><time>2026-05-02T08:21:12.325Z</time></trkpt><trkpt lat="42.2620916" lon="13.9353199"><ele>275.0</ele><time>2026-05-02T08:21:14.331Z</time></trkpt><trkpt lat="42.2621008" lon="13.9350396"><ele>275.0</ele><time>2026-05-02T08:21:16.333Z</time></trkpt><trkpt lat="42.2620978" lon="13.9346885"><ele>276.75</ele><time>2026-05-02T08:21:18.33Z</time></trkpt><trkpt lat="42.2620952" lon="13.9344209"><ele>278.5</ele><time>2026-05-02T08:21:20.33Z</time></trkpt><trkpt lat="42.2620958" lon="13.9342298"><ele>280.25</ele><time>2026-05-02T08:21:22.332Z</time></trkpt><trkpt lat="42.262068" lon="13.9341216"><ele>282.0</ele><time>2026-05-02T08:21:24.328Z</time></trkpt><trkpt lat="42.2620016" lon="13.9340788"><ele>283.75</ele><time>2026-05-02T08:21:28.348Z</time></trkpt><trkpt lat="42.2619132" lon="13.9340862"><ele>285.5</ele><time>2026-05-02T08:21:34.341Z</time></trkpt><trkpt lat="42.2618432" lon="13.9341089"><ele>287.25</ele><time>2026-05-02T08:21:38.334Z</time></trkpt><trkpt lat="42.2616876" lon="13.9340799"><ele>289.0</ele><time>2026-05-02T08:31:22.342Z</time></trkpt><trkpt lat="42.2614653" lon="13.9339879"><ele>285.5</ele><time>2026-05-02T08:31:24.335Z</time></trkpt><trkpt lat="42.261177" lon="13.9338646"><ele>282.0</ele><time>2026-05-02T08:31:26.343Z</time></trkpt><trkpt lat="42.2609058" lon="13.9337287"><ele>282.0</ele><time>2026-05-02T08:31:28.337Z</time></trkpt><trkpt lat="42.260711" lon="13.9336288"><ele>282.0</ele><time>2026-05-02T08:31:30.333Z</time></trkpt><trkpt lat="42.2605081" lon="13.9335339"><ele>282.0</ele><time>2026-05-02T08:31:32.333Z</time></trkpt><trkpt lat="42.2602867" lon="13.9335062"><ele>283.0</ele><time>2026-05-02T08:31:34.325Z</time></trkpt><trkpt lat="42.2600597" lon="13.9335315"><ele>284.0</ele><time>2026-05-02T08:31:36.335Z</time></trkpt><trkpt lat="42.2598284" lon="13.9335575"><ele>282.33333333333337</ele><time>2026-05-02T08:31:38.337Z</time></trkpt><trkpt lat="42.2596319" lon="13.9335599"><ele>280.6666666666667</ele><time>2026-05-02T08:31:40.345Z</time></trkpt><trkpt lat="42.2594559" lon="13.9335158"><ele>279.0</ele><time>2026-05-02T08:31:42.342Z</time></trkpt><trkpt lat="42.2593041" lon="13.9334048"><ele>284.0</ele><time>2026-05-02T08:31:44.343Z</time></trkpt><trkpt lat="42.2591349" lon="13.933283"><ele>289.0</ele><time>2026-05-02T08:31:46.345Z</time></trkpt><trkpt lat="42.2589577" lon="13.9331586"><ele>294.0</ele><time>2026-05-02T08:31:48.342Z</time></trkpt><trkpt lat="42.2587879" lon="13.9330937"><ele>294.0</ele><time>2026-05-02T08:31:50.346Z</time></trkpt><trkpt lat="42.2586274" lon="13.9330784"><ele>294.0</ele><time>2026-05-02T08:31:52.341Z</time></trkpt><trkpt lat="42.2584328" lon="13.9330909"><ele>294.0</ele><time>2026-05-02T08:31:54.345Z</time></trkpt><trkpt lat="42.258264" lon="13.9331223"><ele>295.6666666666667</ele><time>2026-05-02T08:31:56.339Z</time></trkpt><trkpt lat="42.2581047" lon="13.9331319"><ele>297.33333333333337</ele><time>2026-05-02T08:31:58.345Z</time></trkpt><trkpt lat="42.2578974" lon="13.9331209"><ele>299.0</ele><time>2026-05-02T08:32:00.334Z</time></trkpt><trkpt lat="42.2576789" lon="13.9330893"><ele>299.0</ele><time>2026-05-02T08:32:02.336Z</time></trkpt><trkpt lat="42.2574663" lon="13.9331373"><ele>299.0</ele><time>2026-05-02T08:32:04.343Z</time></trkpt><trkpt lat="42.2572337" lon="13.9331953"><ele>300.6666666666667</ele><time>2026-05-02T08:32:06.342Z</time></trkpt><trkpt lat="42.2570053" lon="13.9332678"><ele>302.3333333333333</ele><time>2026-05-02T08:32:08.344Z</time></trkpt><trkpt lat="42.2568059" lon="13.9333362"><ele>304.0</ele><time>2026-05-02T08:32:10.346Z</time></trkpt><trkpt lat="42.256605" lon="13.9333388"><ele>303.66666666666663</ele><time>2026-05-02T08:32:12.342Z</time></trkpt><trkpt lat="42.2563896" lon="13.9332866"><ele>303.3333333333333</ele><time>2026-05-02T08:32:14.344Z</time></trkpt><trkpt lat="42.2561868" lon="13.9331892"><ele>303.0</ele><time>2026-05-02T08:32:16.35Z</time></trkpt><trkpt lat="42.2560107" lon="13.9331181"><ele>303.0</ele><time>2026-05-02T08:32:18.35Z</time></trkpt><trkpt lat="42.2558276" lon="13.9330493"><ele>303.0</ele><time>2026-05-02T08:32:20.348Z</time></trkpt><trkpt lat="42.2556845" lon="13.9329528"><ele>303.0</ele><time>2026-05-02T08:32:22.334Z</time></trkpt><trkpt lat="42.2556063" lon="13.9327409"><ele>298.0</ele><time>2026-05-02T08:32:24.347Z</time></trkpt><trkpt lat="42.2555893" lon="13.9324318"><ele>293.0</ele><time>2026-05-02T08:32:26.33Z</time></trkpt><trkpt lat="42.2555337" lon="13.9321581"><ele>288.0</ele><time>2026-05-02T08:32:28.315Z</time></trkpt><trkpt lat="42.2554071" lon="13.9319218"><ele>288.0</ele><time>2026-05-02T08:32:30.314Z</time></trkpt><trkpt lat="42.2552581" lon="13.9317897"><ele>288.0</ele><time>2026-05-02T08:32:32.314Z</time></trkpt><trkpt lat="42.2550729" lon="13.9317146"><ele>288.0</ele><time>2026-05-02T08:32:34.334Z</time></trkpt><trkpt lat="42.254887" lon="13.931669"><ele>289.0</ele><time>2026-05-02T08:32:36.321Z</time></trkpt><trkpt lat="42.2547347" lon="13.9315054"><ele>290.0</ele><time>2026-05-02T08:32:38.321Z</time></trkpt><trkpt lat="42.2545938" lon="13.9314328"><ele>291.0</ele><time>2026-05-02T08:32:40.329Z</time></trkpt><trkpt lat="42.2544241" lon="13.9315007"><ele>291.0</ele><time>2026-05-02T08:32:42.326Z</time></trkpt><trkpt lat="42.2542175" lon="13.9315858"><ele>291.0</ele><time>2026-05-02T08:32:44.344Z</time></trkpt><trkpt lat="42.254041" lon="13.9316195"><ele>291.0</ele><time>2026-05-02T08:32:46.337Z</time></trkpt><trkpt lat="42.2538958" lon="13.9316342"><ele>290.0</ele><time>2026-05-02T08:32:48.332Z</time></trkpt><trkpt lat="42.2537507" lon="13.9316142"><ele>289.0</ele><time>2026-05-02T08:32:50.326Z</time></trkpt><trkpt lat="42.2535608" lon="13.9315585"><ele>288.0</ele><time>2026-05-02T08:32:52.331Z</time></trkpt><trkpt lat="42.2533779" lon="13.9314121"><ele>288.0</ele><time>2026-05-02T08:32:54.342Z</time></trkpt><trkpt lat="42.2531672" lon="13.9312782"><ele>288.0</ele><time>2026-05-02T08:32:56.333Z</time></trkpt><trkpt lat="42.2529918" lon="13.931209"><ele>288.0</ele><time>2026-05-02T08:32:58.33Z</time></trkpt><trkpt lat="42.252838" lon="13.9311762"><ele>286.0</ele><time>2026-05-02T08:33:00.36Z</time></trkpt><trkpt lat="42.2526699" lon="13.9311362"><ele>284.0</ele><time>2026-05-02T08:33:02.344Z</time></trkpt><trkpt lat="42.2525165" lon="13.9310898"><ele>282.0</ele><time>2026-05-02T08:33:04.355Z</time></trkpt><trkpt lat="42.2523742" lon="13.931018"><ele>279.6666666666667</ele><time>2026-05-02T08:33:06.334Z</time></trkpt><trkpt lat="42.2522856" lon="13.9308468"><ele>277.33333333333337</ele><time>2026-05-02T08:33:08.332Z</time></trkpt><trkpt lat="42.252266" lon="13.9306123"><ele>275.0</ele><time>2026-05-02T08:33:10.339Z</time></trkpt><trkpt lat="42.2522352" lon="13.9304303"><ele>275.0</ele><time>2026-05-02T08:33:12.338Z</time></trkpt><trkpt lat="42.252157" lon="13.9302608"><ele>275.0</ele><time>2026-05-02T08:33:14.339Z</time></trkpt><trkpt lat="42.2520375" lon="13.9300874"><ele>275.0</ele><time>2026-05-02T08:33:16.333Z</time></trkpt><trkpt lat="42.2519014" lon="13.9299673"><ele>275.0</ele><time>2026-05-02T08:33:18.323Z</time></trkpt><trkpt lat="42.2517214" lon="13.9299141"><ele>275.0</ele><time>2026-05-02T08:33:20.341Z</time></trkpt><trkpt lat="42.2515378" lon="13.9298636"><ele>275.0</ele><time>2026-05-02T08:33:22.338Z</time></trkpt><trkpt lat="42.2513687" lon="13.9297661"><ele>270.25</ele><time>2026-05-02T08:33:24.332Z</time></trkpt><trkpt lat="42.2512468" lon="13.9296659"><ele>265.5</ele><time>2026-05-02T08:33:26.329Z</time></trkpt><trkpt lat="42.2511246" lon="13.9296909"><ele>260.75</ele><time>2026-05-02T08:33:28.322Z</time></trkpt><trkpt lat="42.2510232" lon="13.9298203"><ele>256.0</ele><time>2026-05-02T08:33:30.338Z</time></trkpt><trkpt lat="42.2509278" lon="13.929869"><ele>256.0</ele><time>2026-05-02T08:33:32.33Z</time></trkpt><trkpt lat="42.2508593" lon="13.9297516"><ele>256.0</ele><time>2026-05-02T08:33:34.334Z</time></trkpt><trkpt lat="42.2509199" lon="13.9295969"><ele>256.0</ele><time>2026-05-02T08:33:36.329Z</time></trkpt><trkpt lat="42.2510189" lon="13.929478"><ele>256.0</ele><time>2026-05-02T08:33:38.337Z</time></trkpt><trkpt lat="42.2510707" lon="13.9293362"><ele>255.99999999999997</ele><time>2026-05-02T08:33:40.329Z</time></trkpt><trkpt lat="42.2511055" lon="13.9292217"><ele>256.0</ele><time>2026-05-02T08:33:42.334Z</time></trkpt><trkpt lat="42.251133" lon="13.9291303"><ele>256.0</ele><time>2026-05-02T08:33:44.339Z</time></trkpt><trkpt lat="42.2511608" lon="13.9290441"><ele>256.0</ele><time>2026-05-02T08:33:46.353Z</time></trkpt><trkpt lat="42.251179" lon="13.9289472"><ele>255.99999999999997</ele><time>2026-05-02T08:33:48.353Z</time></trkpt><trkpt lat="42.251087" lon="13.9288855"><ele>256.0</ele><time>2026-05-02T08:33:52.348Z</time></trkpt><trkpt lat="42.2510133" lon="13.9290512"><ele>256.0</ele><time>2026-05-02T08:33:54.351Z</time></trkpt><trkpt lat="42.2508928" lon="13.9293006"><ele>256.0</ele><time>2026-05-02T08:33:56.406Z</time></trkpt><trkpt lat="42.2507594" lon="13.9294406"><ele>256.0</ele><time>2026-05-02T08:33:58.416Z</time></trkpt><trkpt lat="42.2506055" lon="13.9297418"><ele>243.0</ele><time>2026-05-02T08:34:00.406Z</time></trkpt><trkpt lat="42.2505317" lon="13.9301241"><ele>230.0</ele><time>2026-05-02T08:34:02.396Z</time></trkpt><trkpt lat="42.2506163" lon="13.9304079"><ele>236.33333333333334</ele><time>2026-05-02T08:34:04.404Z</time></trkpt><trkpt lat="42.250671" lon="13.9305265"><ele>242.66666666666669</ele><time>2026-05-02T08:34:06.424Z</time></trkpt><trkpt lat="42.250765" lon="13.9307675"><ele>249.0</ele><time>2026-05-02T08:34:08.385Z</time></trkpt><trkpt lat="42.2507894" lon="13.931043"><ele>249.5</ele><time>2026-05-02T08:34:10.391Z</time></trkpt><trkpt lat="42.2507496" lon="13.9313824"><ele>250.0</ele><time>2026-05-02T08:34:12.414Z</time></trkpt><trkpt lat="42.2506599" lon="13.9316504"><ele>241.66666666666666</ele><time>2026-05-02T08:34:14.411Z</time></trkpt><trkpt lat="42.250546" lon="13.9319043"><ele>233.33333333333331</ele><time>2026-05-02T08:34:16.399Z</time></trkpt><trkpt lat="42.2504524" lon="13.9321368"><ele>225.0</ele><time>2026-05-02T08:34:18.399Z</time></trkpt><trkpt lat="42.2503981" lon="13.9323062"><ele>225.0</ele><time>2026-05-02T08:34:20.419Z</time></trkpt><trkpt lat="42.2503637" lon="13.9324016"><ele>225.0</ele><time>2026-05-02T08:34:22.43Z</time></trkpt><trkpt lat="42.2503391" lon="13.9325808"><ele>225.0</ele><time>2026-05-02T08:34:26.433Z</time></trkpt><trkpt lat="42.2503112" lon="13.932714"><ele>225.0</ele><time>2026-05-02T08:34:28.431Z</time></trkpt><trkpt lat="42.2502894" lon="13.9328227"><ele>225.0</ele><time>2026-05-02T08:34:30.434Z</time></trkpt><trkpt lat="42.2503708" lon="13.9329975"><ele>223.5</ele><time>2026-05-02T08:34:34.354Z</time></trkpt><trkpt lat="42.2504652" lon="13.9330822"><ele>222.0</ele><time>2026-05-02T08:34:36.341Z</time></trkpt><trkpt lat="42.2505942" lon="13.9331819"><ele>220.5</ele><time>2026-05-02T08:34:38.339Z</time></trkpt><trkpt lat="42.250752" lon="13.9333096"><ele>219.0</ele><time>2026-05-02T08:34:40.335Z</time></trkpt><trkpt lat="42.2509333" lon="13.9334152"><ele>217.33333333333331</ele><time>2026-05-02T08:34:42.33Z</time></trkpt><trkpt lat="42.2511248" lon="13.9334878"><ele>215.66666666666666</ele><time>2026-05-02T08:34:44.33Z</time></trkpt><trkpt lat="42.2513394" lon="13.9336021"><ele>214.0</ele><time>2026-05-02T08:34:46.333Z</time></trkpt><trkpt lat="42.2515488" lon="13.9337394"><ele>218.66666666666666</ele><time>2026-05-02T08:34:48.322Z</time></trkpt><trkpt lat="42.2517245" lon="13.9338533"><ele>223.33333333333331</ele><time>2026-05-02T08:34:50.319Z</time></trkpt><trkpt lat="42.2519045" lon="13.9339492"><ele>228.0</ele><time>2026-05-02T08:34:52.329Z</time></trkpt><trkpt lat="42.2521007" lon="13.9340384"><ele>228.0</ele><time>2026-05-02T08:34:54.327Z</time></trkpt><trkpt lat="42.252281" lon="13.9341286"><ele>228.0</ele><time>2026-05-02T08:34:56.327Z</time></trkpt><trkpt lat="42.2524267" lon="13.9342393"><ele>228.0</ele><time>2026-05-02T08:34:58.325Z</time></trkpt><trkpt lat="42.2525223" lon="13.9344015"><ele>227.66666666666666</ele><time>2026-05-02T08:35:00.314Z</time></trkpt><trkpt lat="42.2525083" lon="13.9345077"><ele>227.33333333333331</ele><time>2026-05-02T08:35:02.313Z</time></trkpt><trkpt lat="42.2525012" lon="13.9346158"><ele>227.0</ele><time>2026-05-02T08:35:10.324Z</time></trkpt><trkpt lat="42.2524697" lon="13.9346895"><ele>226.66666666666666</ele><time>2026-05-02T08:35:12.33Z</time></trkpt><trkpt lat="42.2524136" lon="13.934748"><ele>226.33333333333331</ele><time>2026-05-02T08:35:20.333Z</time></trkpt><trkpt lat="42.2523065" lon="13.9347518"><ele>226.0</ele><time>2026-05-02T08:35:24.33Z</time></trkpt><trkpt lat="42.2522356" lon="13.9347534"><ele>225.99999999999997</ele><time>2026-05-02T08:35:26.331Z</time></trkpt><trkpt lat="42.2521653" lon="13.9347524"><ele>226.0</ele><time>2026-05-02T08:35:28.334Z</time></trkpt><trkpt lat="42.2520877" lon="13.934762"><ele>226.0</ele><time>2026-05-02T08:35:30.335Z</time></trkpt><trkpt lat="42.25201" lon="13.9347817"><ele>226.0</ele><time>2026-05-02T08:35:32.331Z</time></trkpt><trkpt lat="42.2519307" lon="13.9347944"><ele>225.99999999999997</ele><time>2026-05-02T08:35:34.342Z</time></trkpt><trkpt lat="42.251848" lon="13.9348011"><ele>226.0</ele><time>2026-05-02T08:35:36.334Z</time></trkpt><trkpt lat="42.2517697" lon="13.9348046"><ele>225.99999999999997</ele><time>2026-05-02T08:35:38.334Z</time></trkpt><trkpt lat="42.2516826" lon="13.9347967"><ele>226.0</ele><time>2026-05-02T08:35:40.331Z</time></trkpt><trkpt lat="42.2515775" lon="13.9347955"><ele>226.0</ele><time>2026-05-02T08:35:42.333Z</time></trkpt><trkpt lat="42.2514811" lon="13.9348077"><ele>226.0</ele><time>2026-05-02T08:35:44.323Z</time></trkpt><trkpt lat="42.2514077" lon="13.9348226"><ele>225.99999999999997</ele><time>2026-05-02T08:35:46.326Z</time></trkpt><trkpt lat="42.2513238" lon="13.9348267"><ele>226.0</ele><time>2026-05-02T08:35:48.33Z</time></trkpt><trkpt lat="42.2512113" lon="13.934839"><ele>221.25</ele><time>2026-05-02T08:35:50.333Z</time></trkpt><trkpt lat="42.2510822" lon="13.934891"><ele>216.5</ele><time>2026-05-02T08:35:52.321Z</time></trkpt><trkpt lat="42.2509734" lon="13.9349379"><ele>211.75</ele><time>2026-05-02T08:35:54.322Z</time></trkpt><trkpt lat="42.250866" lon="13.9349461"><ele>207.0</ele><time>2026-05-02T08:35:56.313Z</time></trkpt><trkpt lat="42.2507555" lon="13.9349398"><ele>207.0</ele><time>2026-05-02T08:35:58.312Z</time></trkpt><trkpt lat="42.2506358" lon="13.9349296"><ele>207.0</ele><time>2026-05-02T08:36:00.315Z</time></trkpt><trkpt lat="42.2504988" lon="13.9349085"><ele>207.0</ele><time>2026-05-02T08:36:02.311Z</time></trkpt><trkpt lat="42.250372" lon="13.9349005"><ele>207.0</ele><time>2026-05-02T08:36:04.312Z</time></trkpt><trkpt lat="42.2502438" lon="13.9349281"><ele>204.2</ele><time>2026-05-02T08:36:06.312Z</time></trkpt><trkpt lat="42.250131" lon="13.9349626"><ele>201.39999999999998</ele><time>2026-05-02T08:36:08.317Z</time></trkpt><trkpt lat="42.2500412" lon="13.934971"><ele>198.60000000000002</ele><time>2026-05-02T08:36:10.314Z</time></trkpt><trkpt lat="42.2499559" lon="13.9349431"><ele>195.8</ele><time>2026-05-02T08:36:12.311Z</time></trkpt><trkpt lat="42.249866" lon="13.9349096"><ele>193.0</ele><time>2026-05-02T08:36:14.32Z</time></trkpt><trkpt lat="42.2497861" lon="13.9348699"><ele>189.75</ele><time>2026-05-02T08:36:16.331Z</time></trkpt><trkpt lat="42.2496783" lon="13.9348661"><ele>186.5</ele><time>2026-05-02T08:36:18.318Z</time></trkpt><trkpt lat="42.2495435" lon="13.9349121"><ele>183.25</ele><time>2026-05-02T08:36:20.319Z</time></trkpt><trkpt lat="42.2494397" lon="13.9349658"><ele>180.0</ele><time>2026-05-02T08:36:22.321Z</time></trkpt><trkpt lat="42.2493306" lon="13.9350098"><ele>180.0</ele><time>2026-05-02T08:36:24.32Z</time></trkpt><trkpt lat="42.2492136" lon="13.9350151"><ele>180.0</ele><time>2026-05-02T08:36:26.32Z</time></trkpt><trkpt lat="42.2491044" lon="13.935021"><ele>180.0</ele><time>2026-05-02T08:36:28.321Z</time></trkpt><trkpt lat="42.2490233" lon="13.9349973"><ele>180.0</ele><time>2026-05-02T08:36:30.319Z</time></trkpt><trkpt lat="42.2489518" lon="13.9349344"><ele>180.0</ele><time>2026-05-02T08:36:32.325Z</time></trkpt><trkpt lat="42.2488678" lon="13.9349426"><ele>178.2</ele><time>2026-05-02T08:36:34.327Z</time></trkpt><trkpt lat="42.2487477" lon="13.9350105"><ele>176.4</ele><time>2026-05-02T08:36:36.331Z</time></trkpt><trkpt lat="42.2486384" lon="13.9350756"><ele>174.60000000000002</ele><time>2026-05-02T08:36:38.325Z</time></trkpt><trkpt lat="42.2485862" lon="13.9351639"><ele>172.8</ele><time>2026-05-02T08:36:40.323Z</time></trkpt><trkpt lat="42.2485444" lon="13.9352799"><ele>171.0</ele><time>2026-05-02T08:36:42.324Z</time></trkpt><trkpt lat="42.2484788" lon="13.935359"><ele>168.25</ele><time>2026-05-02T08:36:44.33Z</time></trkpt><trkpt lat="42.248381" lon="13.9354225"><ele>165.5</ele><time>2026-05-02T08:36:46.334Z</time></trkpt><trkpt lat="42.2482648" lon="13.9354648"><ele>162.75</ele><time>2026-05-02T08:36:48.322Z</time></trkpt><trkpt lat="42.2481583" lon="13.9355327"><ele>160.0</ele><time>2026-05-02T08:36:50.318Z</time></trkpt><trkpt lat="42.2481252" lon="13.9356828"><ele>159.0</ele><time>2026-05-02T08:36:52.332Z</time></trkpt><trkpt lat="42.2481826" lon="13.9358918"><ele>158.0</ele><time>2026-05-02T08:36:54.334Z</time></trkpt><trkpt lat="42.2482171" lon="13.9361314"><ele>157.0</ele><time>2026-05-02T08:36:56.337Z</time></trkpt><trkpt lat="42.2482204" lon="13.9363478"><ele>157.0</ele><time>2026-05-02T08:36:58.327Z</time></trkpt><trkpt lat="42.2481743" lon="13.9365254"><ele>157.0</ele><time>2026-05-02T08:37:00.33Z</time></trkpt><trkpt lat="42.2481009" lon="13.9367159"><ele>157.0</ele><time>2026-05-02T08:37:02.325Z</time></trkpt><trkpt lat="42.2480242" lon="13.9368843"><ele>157.0</ele><time>2026-05-02T08:37:04.318Z</time></trkpt><trkpt lat="42.2479067" lon="13.9370073"><ele>153.0</ele><time>2026-05-02T08:37:06.322Z</time></trkpt><trkpt lat="42.2477869" lon="13.9370809"><ele>149.0</ele><time>2026-05-02T08:37:08.324Z</time></trkpt><trkpt lat="42.2476561" lon="13.9371807"><ele>145.0</ele><time>2026-05-02T08:37:10.325Z</time></trkpt><trkpt lat="42.247522" lon="13.9372947"><ele>141.0</ele><time>2026-05-02T08:37:12.325Z</time></trkpt><trkpt lat="42.2473946" lon="13.9373307"><ele>141.4</ele><time>2026-05-02T08:37:14.32Z</time></trkpt><trkpt lat="42.2472698" lon="13.9372816"><ele>141.8</ele><time>2026-05-02T08:37:16.335Z</time></trkpt><trkpt lat="42.2472033" lon="13.937216"><ele>142.20000000000002</ele><time>2026-05-02T08:37:18.327Z</time></trkpt><trkpt lat="42.247118" lon="13.937126"><ele>142.6</ele><time>2026-05-02T08:38:00.351Z</time></trkpt><trkpt lat="42.247055" lon="13.9370641"><ele>143.0</ele><time>2026-05-02T08:38:52.371Z</time></trkpt><trkpt lat="42.2469679" lon="13.9370192"><ele>143.0</ele><time>2026-05-02T08:38:58.359Z</time></trkpt><trkpt lat="42.2468922" lon="13.9369843"><ele>143.0</ele><time>2026-05-02T08:39:02.362Z</time></trkpt><trkpt lat="42.2468338" lon="13.9369339"><ele>143.0</ele><time>2026-05-02T08:39:04.361Z</time></trkpt><trkpt lat="42.2468024" lon="13.9368265"><ele>143.0</ele><time>2026-05-02T08:39:10.366Z</time></trkpt><trkpt lat="42.246789" lon="13.9367253"><ele>143.0</ele><time>2026-05-02T08:39:12.355Z</time></trkpt><trkpt lat="42.2467614" lon="13.9366405"><ele>143.0</ele><time>2026-05-02T08:40:46.355Z</time></trkpt><trkpt lat="42.2467192" lon="13.9365195"><ele>142.75</ele><time>2026-05-02T08:40:48.341Z</time></trkpt><trkpt lat="42.246616" lon="13.9363442"><ele>142.5</ele><time>2026-05-02T08:40:50.34Z</time></trkpt><trkpt lat="42.2465199" lon="13.9362281"><ele>142.25</ele><time>2026-05-02T08:40:52.337Z</time></trkpt><trkpt lat="42.2464287" lon="13.9362196"><ele>142.0</ele><time>2026-05-02T08:40:54.339Z</time></trkpt><trkpt lat="42.2463701" lon="13.9363635"><ele>144.5</ele><time>2026-05-02T08:40:56.356Z</time></trkpt><trkpt lat="42.2462856" lon="13.9365616"><ele>147.0</ele><time>2026-05-02T08:40:58.349Z</time></trkpt><trkpt lat="42.246228" lon="13.9366612"><ele>149.5</ele><time>2026-05-02T08:41:00.353Z</time></trkpt><trkpt lat="42.2461964" lon="13.9367659"><ele>152.0</ele><time>2026-05-02T08:41:02.344Z</time></trkpt><trkpt lat="42.2462111" lon="13.9370011"><ele>152.5</ele><time>2026-05-02T08:41:04.348Z</time></trkpt><trkpt lat="42.2462261" lon="13.9372243"><ele>153.0</ele><time>2026-05-02T08:41:06.346Z</time></trkpt><trkpt lat="42.2461844" lon="13.9374065"><ele>153.5</ele><time>2026-05-02T08:41:08.344Z</time></trkpt><trkpt lat="42.2460967" lon="13.9375369"><ele>154.0</ele><time>2026-05-02T08:41:10.344Z</time></trkpt><trkpt lat="42.2460074" lon="13.9376784"><ele>154.0</ele><time>2026-05-02T08:41:12.335Z</time></trkpt><trkpt lat="42.2459329" lon="13.9377648"><ele>154.0</ele><time>2026-05-02T08:41:14.342Z</time></trkpt><trkpt lat="42.2458758" lon="13.9378202"><ele>154.0</ele><time>2026-05-02T08:41:30.366Z</time></trkpt><trkpt lat="42.245806" lon="13.9377709"><ele>154.0</ele><time>2026-05-02T08:41:34.371Z</time></trkpt><trkpt lat="42.2457713" lon="13.9376668"><ele>154.0</ele><time>2026-05-02T08:41:36.356Z</time></trkpt><trkpt lat="42.2457292" lon="13.937541"><ele>154.0</ele><time>2026-05-02T08:41:38.36Z</time></trkpt><trkpt lat="42.2456858" lon="13.9374319"><ele>154.0</ele><time>2026-05-02T08:41:42.367Z</time></trkpt><trkpt lat="42.2456436" lon="13.9372863"><ele>154.0</ele><time>2026-05-02T08:41:52.354Z</time></trkpt><trkpt lat="42.2456019" lon="13.937111"><ele>154.0</ele><time>2026-05-02T08:41:54.355Z</time></trkpt><trkpt lat="42.2455375" lon="13.9369104"><ele>154.0</ele><time>2026-05-02T08:41:56.339Z</time></trkpt><trkpt lat="42.2454567" lon="13.9366965"><ele>155.0</ele><time>2026-05-02T08:41:58.348Z</time></trkpt><trkpt lat="42.24537" lon="13.9364781"><ele>156.0</ele><time>2026-05-02T08:42:00.422Z</time></trkpt><trkpt lat="42.2452802" lon="13.9362367"><ele>157.0</ele><time>2026-05-02T08:42:02.423Z</time></trkpt><trkpt lat="42.2451945" lon="13.9359986"><ele>157.75</ele><time>2026-05-02T08:42:04.42Z</time></trkpt><trkpt lat="42.2451306" lon="13.9358029"><ele>158.5</ele><time>2026-05-02T08:42:06.42Z</time></trkpt><trkpt lat="42.2450726" lon="13.9356389"><ele>159.25</ele><time>2026-05-02T08:42:08.402Z</time></trkpt><trkpt lat="42.2450102" lon="13.9354663"><ele>160.0</ele><time>2026-05-02T08:42:10.4Z</time></trkpt><trkpt lat="42.2449369" lon="13.9352898"><ele>160.0</ele><time>2026-05-02T08:42:12.421Z</time></trkpt><trkpt lat="42.2448453" lon="13.9351691"><ele>160.0</ele><time>2026-05-02T08:42:14.414Z</time></trkpt><trkpt lat="42.2447931" lon="13.9350893"><ele>160.0</ele><time>2026-05-02T08:42:16.325Z</time></trkpt><trkpt lat="42.2446265" lon="13.9353722"><ele>161.0</ele><time>2026-05-02T08:42:20.286Z</time></trkpt><trkpt lat="42.2444922" lon="13.9356682"><ele>162.0</ele><time>2026-05-02T08:42:22.304Z</time></trkpt><trkpt lat="42.2444329" lon="13.9360943"><ele>162.0</ele><time>2026-05-02T08:42:24.332Z</time></trkpt><trkpt lat="42.2443514" lon="13.9363597"><ele>162.0</ele><time>2026-05-02T08:42:26.336Z</time></trkpt><trkpt lat="42.2442641" lon="13.9366245"><ele>162.0</ele><time>2026-05-02T08:42:28.328Z</time></trkpt><trkpt lat="42.2441429" lon="13.9368591"><ele>161.33333333333334</ele><time>2026-05-02T08:42:30.331Z</time></trkpt><trkpt lat="42.244016" lon="13.9370304"><ele>160.66666666666669</ele><time>2026-05-02T08:42:32.335Z</time></trkpt><trkpt lat="42.2438984" lon="13.9369883"><ele>160.0</ele><time>2026-05-02T08:42:34.337Z</time></trkpt><trkpt lat="42.2438328" lon="13.9367849"><ele>161.66666666666669</ele><time>2026-05-02T08:42:36.327Z</time></trkpt><trkpt lat="42.2437574" lon="13.9365374"><ele>163.33333333333334</ele><time>2026-05-02T08:42:38.324Z</time></trkpt><trkpt lat="42.2436881" lon="13.9362601"><ele>165.0</ele><time>2026-05-02T08:42:40.32Z</time></trkpt><trkpt lat="42.2436274" lon="13.9359828"><ele>165.66666666666666</ele><time>2026-05-02T08:42:42.333Z</time></trkpt><trkpt lat="42.2435546" lon="13.9357099"><ele>166.33333333333331</ele><time>2026-05-02T08:42:44.332Z</time></trkpt><trkpt lat="42.2434739" lon="13.9354305"><ele>167.0</ele><time>2026-05-02T08:42:46.346Z</time></trkpt><trkpt lat="42.2434004" lon="13.9351519"><ele>168.0</ele><time>2026-05-02T08:42:48.329Z</time></trkpt><trkpt lat="42.2433233" lon="13.9348508"><ele>169.0</ele><time>2026-05-02T08:42:50.338Z</time></trkpt><trkpt lat="42.2432457" lon="13.9345084"><ele>169.5</ele><time>2026-05-02T08:42:52.338Z</time></trkpt><trkpt lat="42.2431543" lon="13.9341008"><ele>170.0</ele><time>2026-05-02T08:42:54.339Z</time></trkpt><trkpt lat="42.2430742" lon="13.9336999"><ele>173.5</ele><time>2026-05-02T08:42:56.334Z</time></trkpt><trkpt lat="42.2429585" lon="13.9332966"><ele>177.0</ele><time>2026-05-02T08:42:58.335Z</time></trkpt><trkpt lat="42.2428544" lon="13.9329091"><ele>178.0</ele><time>2026-05-02T08:43:00.327Z</time></trkpt><trkpt lat="42.2427449" lon="13.932517"><ele>179.0</ele><time>2026-05-02T08:43:02.33Z</time></trkpt><trkpt lat="42.2426594" lon="13.932153"><ele>179.0</ele><time>2026-05-02T08:43:04.327Z</time></trkpt><trkpt lat="42.2425658" lon="13.9317977"><ele>179.0</ele><time>2026-05-02T08:43:06.335Z</time></trkpt><trkpt lat="42.2424788" lon="13.9314508"><ele>180.0</ele><time>2026-05-02T08:43:08.331Z</time></trkpt><trkpt lat="42.242369" lon="13.9310997"><ele>181.0</ele><time>2026-05-02T08:43:10.339Z</time></trkpt><trkpt lat="42.2422874" lon="13.9307548"><ele>181.5</ele><time>2026-05-02T08:43:12.333Z</time></trkpt><trkpt lat="42.2422216" lon="13.9303799"><ele>182.0</ele><time>2026-05-02T08:43:14.34Z</time></trkpt><trkpt lat="42.2421278" lon="13.930051"><ele>182.0</ele><time>2026-05-02T08:43:16.343Z</time></trkpt><trkpt lat="42.2420653" lon="13.9296672"><ele>182.0</ele><time>2026-05-02T08:43:18.341Z</time></trkpt><trkpt lat="42.2419619" lon="13.9292911"><ele>182.0</ele><time>2026-05-02T08:43:20.342Z</time></trkpt><trkpt lat="42.2418663" lon="13.9289065"><ele>182.0</ele><time>2026-05-02T08:43:22.344Z</time></trkpt><trkpt lat="42.2417552" lon="13.9285315"><ele>184.0</ele><time>2026-05-02T08:43:24.348Z</time></trkpt><trkpt lat="42.2416533" lon="13.9281578"><ele>186.0</ele><time>2026-05-02T08:43:26.341Z</time></trkpt><trkpt lat="42.2415584" lon="13.9277847"><ele>186.0</ele><time>2026-05-02T08:43:28.342Z</time></trkpt><trkpt lat="42.2414831" lon="13.9274198"><ele>186.0</ele><time>2026-05-02T08:43:30.343Z</time></trkpt><trkpt lat="42.2414062" lon="13.9271165"><ele>186.0</ele><time>2026-05-02T08:43:32.34Z</time></trkpt><trkpt lat="42.2413678" lon="13.9269124"><ele>186.0</ele><time>2026-05-02T08:43:34.342Z</time></trkpt><trkpt lat="42.2413392" lon="13.926793"><ele>186.0</ele><time>2026-05-02T08:43:36.338Z</time></trkpt><trkpt lat="42.2413081" lon="13.9266768"><ele>186.0</ele><time>2026-05-02T08:43:40.358Z</time></trkpt><trkpt lat="42.2412636" lon="13.9264761"><ele>186.25</ele><time>2026-05-02T08:44:18.351Z</time></trkpt><trkpt lat="42.2413178" lon="13.9263457"><ele>186.5</ele><time>2026-05-02T08:44:20.347Z</time></trkpt><trkpt lat="42.2414773" lon="13.9263578"><ele>186.75</ele><time>2026-05-02T08:44:22.329Z</time></trkpt><trkpt lat="42.2416476" lon="13.9263728"><ele>187.0</ele><time>2026-05-02T08:44:24.327Z</time></trkpt><trkpt lat="42.2418453" lon="13.9264332"><ele>187.0</ele><time>2026-05-02T08:44:26.322Z</time></trkpt><trkpt lat="42.2420348" lon="13.9264913"><ele>187.0</ele><time>2026-05-02T08:44:28.407Z</time></trkpt><trkpt lat="42.2421981" lon="13.9265868"><ele>187.0</ele><time>2026-05-02T08:44:30.399Z</time></trkpt><trkpt lat="42.2423717" lon="13.9267433"><ele>186.33333333333334</ele><time>2026-05-02T08:44:32.392Z</time></trkpt><trkpt lat="42.2425084" lon="13.9268951"><ele>185.66666666666666</ele><time>2026-05-02T08:44:34.399Z</time></trkpt><trkpt lat="42.2426337" lon="13.9270716"><ele>185.0</ele><time>2026-05-02T08:44:36.421Z</time></trkpt><trkpt lat="42.2427882" lon="13.9272818"><ele>185.0</ele><time>2026-05-02T08:44:38.425Z</time></trkpt><trkpt lat="42.2429423" lon="13.9275307"><ele>185.0</ele><time>2026-05-02T08:44:40.411Z</time></trkpt><trkpt lat="42.2430627" lon="13.9276862"><ele>185.0</ele><time>2026-05-02T08:44:42.419Z</time></trkpt><trkpt lat="42.2431792" lon="13.9278349"><ele>184.0</ele><time>2026-05-02T08:44:44.425Z</time></trkpt><trkpt lat="42.2432756" lon="13.9279599"><ele>183.0</ele><time>2026-05-02T08:44:46.424Z</time></trkpt><trkpt lat="42.243364" lon="13.9280767"><ele>182.0</ele><time>2026-05-02T08:44:48.418Z</time></trkpt><trkpt lat="42.2434526" lon="13.9282152"><ele>181.0</ele><time>2026-05-02T08:44:50.417Z</time></trkpt><trkpt lat="42.2435674" lon="13.9283521"><ele>180.66666666666669</ele><time>2026-05-02T08:44:52.41Z</time></trkpt><trkpt lat="42.2437135" lon="13.9284359"><ele>180.33333333333334</ele><time>2026-05-02T08:44:54.392Z</time></trkpt><trkpt lat="42.243883" lon="13.9284428"><ele>180.0</ele><time>2026-05-02T08:44:56.387Z</time></trkpt><trkpt lat="42.2440536" lon="13.9283913"><ele>179.5</ele><time>2026-05-02T08:44:58.57Z</time></trkpt><trkpt lat="42.2441922" lon="13.9283277"><ele>179.0</ele><time>2026-05-02T08:45:00.373Z</time></trkpt><trkpt lat="42.2443048" lon="13.928208"><ele>178.5</ele><time>2026-05-02T08:45:02.368Z</time></trkpt><trkpt lat="42.2443892" lon="13.928045"><ele>178.0</ele><time>2026-05-02T08:45:04.363Z</time></trkpt><trkpt lat="42.2444482" lon="13.9278946"><ele>178.0</ele><time>2026-05-02T08:45:06.365Z</time></trkpt><trkpt lat="42.2444742" lon="13.9277489"><ele>178.0</ele><time>2026-05-02T08:45:08.384Z</time></trkpt><trkpt lat="42.2444983" lon="13.9276039"><ele>178.0</ele><time>2026-05-02T08:45:10.389Z</time></trkpt><trkpt lat="42.2445112" lon="13.9274735"><ele>178.0</ele><time>2026-05-02T08:45:12.383Z</time></trkpt><trkpt lat="42.2445276" lon="13.9273431"><ele>178.0</ele><time>2026-05-02T08:45:14.385Z</time></trkpt><trkpt lat="42.2445404" lon="13.9272343"><ele>179.16666666666669</ele><time>2026-05-02T08:45:18.396Z</time></trkpt><trkpt lat="42.2445638" lon="13.9270762"><ele>180.33333333333334</ele><time>2026-05-02T08:45:22.396Z</time></trkpt><trkpt lat="42.2445807" lon="13.9269851"><ele>181.5</ele><time>2026-05-02T08:45:24.391Z</time></trkpt><trkpt lat="42.2446251" lon="13.9268556"><ele>182.66666666666666</ele><time>2026-05-02T08:45:28.394Z</time></trkpt><trkpt lat="42.2446802" lon="13.9267595"><ele>183.83333333333331</ele><time>2026-05-02T08:45:32.405Z</time></trkpt><trkpt lat="42.2447315" lon="13.9267099"><ele>185.0</ele><time>2026-05-02T08:45:34.403Z</time></trkpt><trkpt lat="42.2447882" lon="13.9266643"><ele>186.6</ele><time>2026-05-02T08:45:36.4Z</time></trkpt><trkpt lat="42.2447438" lon="13.9265167"><ele>188.2</ele><time>2026-05-02T08:45:42.31Z</time></trkpt><trkpt lat="42.244689" lon="13.9265969"><ele>189.8</ele><time>2026-05-02T08:46:00.312Z</time></trkpt><trkpt lat="42.2447732" lon="13.9264702"><ele>191.4</ele><time>2026-05-02T08:46:08.317Z</time></trkpt><trkpt lat="42.244818" lon="13.9263937"><ele>193.0</ele><time>2026-05-02T08:46:14.308Z</time></trkpt><trkpt lat="42.2448221" lon="13.9262808"><ele>192.99999999999997</ele><time>2026-05-02T08:46:22.314Z</time></trkpt><trkpt lat="42.2448532" lon="13.9261974"><ele>193.0</ele><time>2026-05-02T09:05:24.322Z</time></trkpt><trkpt lat="42.2447951" lon="13.9261451"><ele>193.0</ele><time>2026-05-02T09:05:28.313Z</time></trkpt><trkpt lat="42.2447845" lon="13.9262599"><ele>193.0</ele><time>2026-05-02T09:05:36.31Z</time></trkpt><trkpt lat="42.2447586" lon="13.9263393"><ele>192.99999999999997</ele><time>2026-05-02T09:05:40.304Z</time></trkpt><trkpt lat="42.2447293" lon="13.9264709"><ele>193.0</ele><time>2026-05-02T09:05:44.305Z</time></trkpt><trkpt lat="42.2446815" lon="13.926595"><ele>193.0</ele><time>2026-05-02T09:05:48.306Z</time></trkpt><trkpt lat="42.244633" lon="13.9267113"><ele>193.0</ele><time>2026-05-02T09:05:52.301Z</time></trkpt><trkpt lat="42.2445958" lon="13.9268078"><ele>193.0</ele><time>2026-05-02T09:05:56.307Z</time></trkpt><trkpt lat="42.2445414" lon="13.926894"><ele>193.0</ele><time>2026-05-02T09:06:00.318Z</time></trkpt><trkpt lat="42.244589" lon="13.9269858"><ele>193.0</ele><time>2026-05-02T09:06:04.299Z</time></trkpt><trkpt lat="42.2447068" lon="13.9269575"><ele>184.33333333333331</ele><time>2026-05-02T09:06:06.31Z</time></trkpt><trkpt lat="42.2448754" lon="13.926918"><ele>175.66666666666666</ele><time>2026-05-02T09:06:08.292Z</time></trkpt><trkpt lat="42.2450491" lon="13.926888"><ele>167.0</ele><time>2026-05-02T09:06:10.285Z</time></trkpt><trkpt lat="42.2452177" lon="13.9268726"><ele>167.0</ele><time>2026-05-02T09:06:12.291Z</time></trkpt><trkpt lat="42.2453916" lon="13.9268854"><ele>167.0</ele><time>2026-05-02T09:06:14.31Z</time></trkpt><trkpt lat="42.2455439" lon="13.9268945"><ele>167.0</ele><time>2026-05-02T09:06:16.309Z</time></trkpt><trkpt lat="42.2456482" lon="13.9269004"><ele>167.0</ele><time>2026-05-02T09:06:18.325Z</time></trkpt><trkpt lat="42.2457388" lon="13.9268832"><ele>165.8</ele><time>2026-05-02T09:06:20.327Z</time></trkpt><trkpt lat="42.2458484" lon="13.9268546"><ele>164.6</ele><time>2026-05-02T09:06:22.327Z</time></trkpt><trkpt lat="42.2459628" lon="13.9268479"><ele>163.4</ele><time>2026-05-02T09:06:24.319Z</time></trkpt><trkpt lat="42.2460432" lon="13.9268562"><ele>162.20000000000002</ele><time>2026-05-02T09:06:26.319Z</time></trkpt><trkpt lat="42.2461306" lon="13.9268477"><ele>161.0</ele><time>2026-05-02T09:06:30.325Z</time></trkpt><trkpt lat="42.2461912" lon="13.9267623"><ele>160.8</ele><time>2026-05-02T09:06:34.326Z</time></trkpt><trkpt lat="42.2461913" lon="13.9266732"><ele>160.60000000000002</ele><time>2026-05-02T09:06:36.326Z</time></trkpt><trkpt lat="42.2460846" lon="13.9265781"><ele>160.4</ele><time>2026-05-02T09:06:40.314Z</time></trkpt><trkpt lat="42.2459558" lon="13.9265905"><ele>160.2</ele><time>2026-05-02T09:06:42.319Z</time></trkpt><trkpt lat="42.2458521" lon="13.9265836"><ele>160.0</ele><time>2026-05-02T09:06:44.306Z</time></trkpt><trkpt lat="42.2457875" lon="13.9265757"><ele>160.0</ele><time>2026-05-02T09:06:46.319Z</time></trkpt><trkpt lat="42.245716" lon="13.9265447"><ele>160.0</ele><time>2026-05-02T09:06:48.318Z</time></trkpt><trkpt lat="42.2456491" lon="13.9264612"><ele>160.0</ele><time>2026-05-02T09:06:50.318Z</time></trkpt><trkpt lat="42.2456142" lon="13.9262991"><ele>160.0</ele><time>2026-05-02T09:06:52.323Z</time></trkpt><trkpt lat="42.2456175" lon="13.926081"><ele>164.0</ele><time>2026-05-02T09:06:54.315Z</time></trkpt><trkpt lat="42.2456089" lon="13.9258435"><ele>168.0</ele><time>2026-05-02T09:06:56.315Z</time></trkpt><trkpt lat="42.245596" lon="13.9255892"><ele>172.0</ele><time>2026-05-02T09:06:58.393Z</time></trkpt><trkpt lat="42.2455778" lon="13.9253225"><ele>172.0</ele><time>2026-05-02T09:07:00.385Z</time></trkpt><trkpt lat="42.245586" lon="13.9250684"><ele>172.0</ele><time>2026-05-02T09:07:02.397Z</time></trkpt><trkpt lat="42.2456308" lon="13.9248289"><ele>172.0</ele><time>2026-05-02T09:07:04.386Z</time></trkpt><trkpt lat="42.2456815" lon="13.9246198"><ele>169.33333333333334</ele><time>2026-05-02T09:07:06.382Z</time></trkpt><trkpt lat="42.2457364" lon="13.924433"><ele>166.66666666666666</ele><time>2026-05-02T09:07:08.39Z</time></trkpt><trkpt lat="42.2458517" lon="13.9242755"><ele>164.0</ele><time>2026-05-02T09:07:10.386Z</time></trkpt><trkpt lat="42.2459832" lon="13.9241015"><ele>164.0</ele><time>2026-05-02T09:07:12.369Z</time></trkpt><trkpt lat="42.2460996" lon="13.923878"><ele>164.0</ele><time>2026-05-02T09:07:14.365Z</time></trkpt><trkpt lat="42.2461372" lon="13.9236574"><ele>164.0</ele><time>2026-05-02T09:07:16.376Z</time></trkpt><trkpt lat="42.2461441" lon="13.9233947"><ele>164.66666666666666</ele><time>2026-05-02T09:07:18.366Z</time></trkpt><trkpt lat="42.2461574" lon="13.9231266"><ele>165.33333333333334</ele><time>2026-05-02T09:07:20.388Z</time></trkpt><trkpt lat="42.2461477" lon="13.9228511"><ele>166.0</ele><time>2026-05-02T09:07:22.395Z</time></trkpt><trkpt lat="42.2461246" lon="13.9225414"><ele>166.5</ele><time>2026-05-02T09:07:24.381Z</time></trkpt><trkpt lat="42.2461163" lon="13.922213"><ele>167.0</ele><time>2026-05-02T09:07:26.389Z</time></trkpt><trkpt lat="42.2461043" lon="13.9219272"><ele>167.66666666666666</ele><time>2026-05-02T09:07:28.39Z</time></trkpt><trkpt lat="42.246041" lon="13.9216468"><ele>168.33333333333334</ele><time>2026-05-02T09:07:30.397Z</time></trkpt><trkpt lat="42.2459754" lon="13.9213974"><ele>169.0</ele><time>2026-05-02T09:07:32.373Z</time></trkpt><trkpt lat="42.2459214" lon="13.9211415"><ele>169.33333333333334</ele><time>2026-05-02T09:07:34.373Z</time></trkpt><trkpt lat="42.2458478" lon="13.9208839"><ele>169.66666666666666</ele><time>2026-05-02T09:07:36.403Z</time></trkpt><trkpt lat="42.2457198" lon="13.9206274"><ele>170.0</ele><time>2026-05-02T09:07:38.373Z</time></trkpt><trkpt lat="42.2455853" lon="13.9203794"><ele>172.33333333333331</ele><time>2026-05-02T09:07:40.376Z</time></trkpt><trkpt lat="42.2454991" lon="13.9201701"><ele>174.66666666666666</ele><time>2026-05-02T09:07:42.387Z</time></trkpt><trkpt lat="42.2454609" lon="13.9199597"><ele>177.0</ele><time>2026-05-02T09:07:44.379Z</time></trkpt><trkpt lat="42.2453788" lon="13.9197404"><ele>177.0</ele><time>2026-05-02T09:07:46.382Z</time></trkpt><trkpt lat="42.2452785" lon="13.9194825"><ele>177.0</ele><time>2026-05-02T09:07:48.311Z</time></trkpt><trkpt lat="42.2452253" lon="13.9192542"><ele>177.0</ele><time>2026-05-02T09:07:50.316Z</time></trkpt><trkpt lat="42.2452342" lon="13.9190077"><ele>176.33333333333334</ele><time>2026-05-02T09:07:52.307Z</time></trkpt><trkpt lat="42.2452802" lon="13.9187289"><ele>175.66666666666669</ele><time>2026-05-02T09:07:54.309Z</time></trkpt><trkpt lat="42.2453378" lon="13.91845"><ele>175.0</ele><time>2026-05-02T09:07:56.309Z</time></trkpt><trkpt lat="42.2453991" lon="13.91815"><ele>174.66666666666669</ele><time>2026-05-02T09:07:58.304Z</time></trkpt><trkpt lat="42.2454404" lon="13.9178871"><ele>174.33333333333334</ele><time>2026-05-02T09:08:00.303Z</time></trkpt><trkpt lat="42.2454313" lon="13.9176581"><ele>174.0</ele><time>2026-05-02T09:08:02.299Z</time></trkpt><trkpt lat="42.2453439" lon="13.9174269"><ele>174.0</ele><time>2026-05-02T09:08:04.301Z</time></trkpt><trkpt lat="42.2452329" lon="13.9172284"><ele>174.0</ele><time>2026-05-02T09:08:06.293Z</time></trkpt><trkpt lat="42.2450872" lon="13.9170466"><ele>174.0</ele><time>2026-05-02T09:08:08.299Z</time></trkpt><trkpt lat="42.24495" lon="13.9168452"><ele>175.66666666666666</ele><time>2026-05-02T09:08:10.299Z</time></trkpt><trkpt lat="42.2448483" lon="13.9166287"><ele>177.33333333333331</ele><time>2026-05-02T09:08:12.304Z</time></trkpt><trkpt lat="42.2447609" lon="13.9164064"><ele>179.0</ele><time>2026-05-02T09:08:14.297Z</time></trkpt><trkpt lat="42.2446329" lon="13.9163182"><ele>179.0</ele><time>2026-05-02T09:08:16.297Z</time></trkpt><trkpt lat="42.244452" lon="13.9162929"><ele>179.0</ele><time>2026-05-02T09:08:18.305Z</time></trkpt><trkpt lat="42.2443289" lon="13.916246"><ele>179.0</ele><time>2026-05-02T09:08:20.304Z</time></trkpt><trkpt lat="42.244252" lon="13.916094"><ele>179.0</ele><time>2026-05-02T09:08:22.309Z</time></trkpt><trkpt lat="42.2442027" lon="13.9158595"><ele>179.33333333333331</ele><time>2026-05-02T09:08:24.303Z</time></trkpt><trkpt lat="42.2441544" lon="13.9155713"><ele>179.66666666666666</ele><time>2026-05-02T09:08:26.305Z</time></trkpt><trkpt lat="42.2440331" lon="13.9153248"><ele>180.0</ele><time>2026-05-02T09:08:28.304Z</time></trkpt><trkpt lat="42.2439063" lon="13.9151749"><ele>181.0</ele><time>2026-05-02T09:08:30.301Z</time></trkpt><trkpt lat="42.243737" lon="13.915073"><ele>182.0</ele><time>2026-05-02T09:08:32.322Z</time></trkpt><trkpt lat="42.2435774" lon="13.914919"><ele>183.0</ele><time>2026-05-02T09:08:34.308Z</time></trkpt><trkpt lat="42.2434445" lon="13.9147255"><ele>184.0</ele><time>2026-05-02T09:08:36.302Z</time></trkpt><trkpt lat="42.2433221" lon="13.9145455"><ele>185.0</ele><time>2026-05-02T09:08:38.309Z</time></trkpt><trkpt lat="42.2432484" lon="13.9144339"><ele>186.0</ele><time>2026-05-02T09:08:40.3Z</time></trkpt><trkpt lat="42.2432218" lon="13.9142112"><ele>188.5</ele><time>2026-05-02T09:08:42.304Z</time></trkpt><trkpt lat="42.2431987" lon="13.9139039"><ele>191.0</ele><time>2026-05-02T09:08:44.308Z</time></trkpt><trkpt lat="42.2431657" lon="13.9136084"><ele>191.0</ele><time>2026-05-02T09:08:46.303Z</time></trkpt><trkpt lat="42.2431207" lon="13.9133261"><ele>191.0</ele><time>2026-05-02T09:08:48.307Z</time></trkpt><trkpt lat="42.2430535" lon="13.9130963"><ele>191.0</ele><time>2026-05-02T09:08:50.306Z</time></trkpt><trkpt lat="42.2429228" lon="13.9128575"><ele>191.0</ele><time>2026-05-02T09:08:52.311Z</time></trkpt><trkpt lat="42.2427826" lon="13.9126286"><ele>191.0</ele><time>2026-05-02T09:08:54.309Z</time></trkpt><trkpt lat="42.2427208" lon="13.9124077"><ele>191.0</ele><time>2026-05-02T09:08:56.315Z</time></trkpt><trkpt lat="42.2426347" lon="13.9122042"><ele>191.25</ele><time>2026-05-02T09:08:58.31Z</time></trkpt><trkpt lat="42.2425644" lon="13.9120801"><ele>191.5</ele><time>2026-05-02T09:09:00.304Z</time></trkpt><trkpt lat="42.2424588" lon="13.9121063"><ele>191.75</ele><time>2026-05-02T09:09:04.319Z</time></trkpt><trkpt lat="42.2423126" lon="13.9122959"><ele>192.0</ele><time>2026-05-02T09:09:06.299Z</time></trkpt><trkpt lat="42.2421455" lon="13.9125107"><ele>196.66666666666669</ele><time>2026-05-02T09:09:08.302Z</time></trkpt><trkpt lat="42.2420472" lon="13.9127038"><ele>201.33333333333334</ele><time>2026-05-02T09:09:10.3Z</time></trkpt><trkpt lat="42.2420158" lon="13.9129746"><ele>206.0</ele><time>2026-05-02T09:09:12.313Z</time></trkpt><trkpt lat="42.2419716" lon="13.9132497"><ele>205.0</ele><time>2026-05-02T09:09:14.311Z</time></trkpt><trkpt lat="42.2419219" lon="13.9135376"><ele>204.0</ele><time>2026-05-02T09:09:16.309Z</time></trkpt><trkpt lat="42.2418861" lon="13.9138714"><ele>204.0</ele><time>2026-05-02T09:09:18.304Z</time></trkpt><trkpt lat="42.24187" lon="13.9141705"><ele>204.0</ele><time>2026-05-02T09:09:20.302Z</time></trkpt><trkpt lat="42.2418916" lon="13.9144448"><ele>204.0</ele><time>2026-05-02T09:09:22.299Z</time></trkpt><trkpt lat="42.2418785" lon="13.9146216"><ele>203.33333333333331</ele><time>2026-05-02T09:09:24.299Z</time></trkpt><trkpt lat="42.2417809" lon="13.9148047"><ele>202.66666666666666</ele><time>2026-05-02T09:09:26.299Z</time></trkpt><trkpt lat="42.2416378" lon="13.9149317"><ele>202.0</ele><time>2026-05-02T09:09:28.303Z</time></trkpt><trkpt lat="42.2415153" lon="13.9149288"><ele>206.0</ele><time>2026-05-02T09:09:30.308Z</time></trkpt><trkpt lat="42.2414299" lon="13.9147382"><ele>210.0</ele><time>2026-05-02T09:09:32.298Z</time></trkpt><trkpt lat="42.2413283" lon="13.9145086"><ele>214.0</ele><time>2026-05-02T09:09:34.309Z</time></trkpt><trkpt lat="42.2411953" lon="13.9143169"><ele>215.33333333333331</ele><time>2026-05-02T09:09:36.301Z</time></trkpt><trkpt lat="42.2410887" lon="13.9140939"><ele>216.66666666666669</ele><time>2026-05-02T09:09:38.304Z</time></trkpt><trkpt lat="42.2410289" lon="13.9138133"><ele>218.0</ele><time>2026-05-02T09:09:40.307Z</time></trkpt><trkpt lat="42.2409803" lon="13.9135494"><ele>220.66666666666669</ele><time>2026-05-02T09:09:42.306Z</time></trkpt><trkpt lat="42.2408942" lon="13.9133081"><ele>223.33333333333331</ele><time>2026-05-02T09:09:44.311Z</time></trkpt><trkpt lat="42.2407736" lon="13.9130667"><ele>226.0</ele><time>2026-05-02T09:09:46.3Z</time></trkpt><trkpt lat="42.2406081" lon="13.9127883"><ele>232.0</ele><time>2026-05-02T09:09:48.307Z</time></trkpt><trkpt lat="42.2404148" lon="13.9125293"><ele>238.0</ele><time>2026-05-02T09:09:50.309Z</time></trkpt><trkpt lat="42.2402164" lon="13.9123084"><ele>238.0</ele><time>2026-05-02T09:09:52.312Z</time></trkpt><trkpt lat="42.2400595" lon="13.9121016"><ele>238.0</ele><time>2026-05-02T09:09:54.324Z</time></trkpt><trkpt lat="42.2399199" lon="13.9119346"><ele>238.0</ele><time>2026-05-02T09:09:56.307Z</time></trkpt><trkpt lat="42.2398279" lon="13.9118012"><ele>238.75</ele><time>2026-05-02T09:09:58.304Z</time></trkpt><trkpt lat="42.2398015" lon="13.9117206"><ele>239.5</ele><time>2026-05-02T09:10:00.317Z</time></trkpt><trkpt lat="42.2397738" lon="13.9116041"><ele>240.25</ele><time>2026-05-02T09:10:02.325Z</time></trkpt><trkpt lat="42.2397251" lon="13.9114051"><ele>241.0</ele><time>2026-05-02T09:10:04.303Z</time></trkpt><trkpt lat="42.2396465" lon="13.9111473"><ele>243.66666666666666</ele><time>2026-05-02T09:10:06.384Z</time></trkpt><trkpt lat="42.2395567" lon="13.910912"><ele>246.33333333333331</ele><time>2026-05-02T09:10:08.388Z</time></trkpt><trkpt lat="42.2394663" lon="13.9107093"><ele>249.0</ele><time>2026-05-02T09:10:10.378Z</time></trkpt><trkpt lat="42.2393424" lon="13.9105629"><ele>249.33333333333331</ele><time>2026-05-02T09:10:12.298Z</time></trkpt><trkpt lat="42.2392111" lon="13.9104222"><ele>249.66666666666666</ele><time>2026-05-02T09:10:14.305Z</time></trkpt><trkpt lat="42.2390941" lon="13.9102391"><ele>250.0</ele><time>2026-05-02T09:10:16.308Z</time></trkpt><trkpt lat="42.2389918" lon="13.9100725"><ele>253.75</ele><time>2026-05-02T09:10:18.306Z</time></trkpt><trkpt lat="42.2388963" lon="13.9099568"><ele>257.5</ele><time>2026-05-02T09:10:20.312Z</time></trkpt><trkpt lat="42.2388069" lon="13.909836"><ele>261.25</ele><time>2026-05-02T09:10:22.312Z</time></trkpt><trkpt lat="42.2386926" lon="13.9097404"><ele>265.0</ele><time>2026-05-02T09:10:24.307Z</time></trkpt><trkpt lat="42.2385606" lon="13.9096602"><ele>265.0</ele><time>2026-05-02T09:10:26.308Z</time></trkpt><trkpt lat="42.238452" lon="13.9095661"><ele>265.0</ele><time>2026-05-02T09:10:28.309Z</time></trkpt><trkpt lat="42.2383321" lon="13.9094287"><ele>265.0</ele><time>2026-05-02T09:10:30.307Z</time></trkpt><trkpt lat="42.2382233" lon="13.9092795"><ele>265.0</ele><time>2026-05-02T09:10:32.312Z</time></trkpt><trkpt lat="42.2381113" lon="13.9091477"><ele>267.75</ele><time>2026-05-02T09:10:34.305Z</time></trkpt><trkpt lat="42.2379744" lon="13.9090949"><ele>270.5</ele><time>2026-05-02T09:10:36.325Z</time></trkpt><trkpt lat="42.2378302" lon="13.9091205"><ele>273.25</ele><time>2026-05-02T09:10:38.305Z</time></trkpt><trkpt lat="42.2377434" lon="13.9091566"><ele>276.0</ele><time>2026-05-02T09:10:40.304Z</time></trkpt><trkpt lat="42.2376585" lon="13.9090973"><ele>276.0</ele><time>2026-05-02T09:10:44.308Z</time></trkpt><trkpt lat="42.2376201" lon="13.9089483"><ele>276.0</ele><time>2026-05-02T09:10:46.307Z</time></trkpt><trkpt lat="42.2375404" lon="13.9087256"><ele>276.0</ele><time>2026-05-02T09:10:48.296Z</time></trkpt><trkpt lat="42.2374457" lon="13.908463"><ele>277.0</ele><time>2026-05-02T09:10:50.305Z</time></trkpt><trkpt lat="42.2373627" lon="13.9082492"><ele>278.0</ele><time>2026-05-02T09:10:52.308Z</time></trkpt><trkpt lat="42.2372497" lon="13.9080125"><ele>279.0</ele><time>2026-05-02T09:10:54.315Z</time></trkpt><trkpt lat="42.2371266" lon="13.9077616"><ele>279.0</ele><time>2026-05-02T09:10:56.318Z</time></trkpt><trkpt lat="42.2370078" lon="13.9075164"><ele>279.0</ele><time>2026-05-02T09:10:58.309Z</time></trkpt><trkpt lat="42.2368903" lon="13.9072832"><ele>279.0</ele><time>2026-05-02T09:11:00.31Z</time></trkpt><trkpt lat="42.2367981" lon="13.9070796"><ele>279.0</ele><time>2026-05-02T09:11:02.308Z</time></trkpt><trkpt lat="42.2367042" lon="13.9068366"><ele>279.0</ele><time>2026-05-02T09:11:04.311Z</time></trkpt><trkpt lat="42.2365827" lon="13.9066303"><ele>279.0</ele><time>2026-05-02T09:11:06.314Z</time></trkpt><trkpt lat="42.2364519" lon="13.9064433"><ele>278.25</ele><time>2026-05-02T09:11:08.309Z</time></trkpt><trkpt lat="42.2363384" lon="13.9063139"><ele>277.5</ele><time>2026-05-02T09:11:10.306Z</time></trkpt><trkpt lat="42.2362665" lon="13.906207"><ele>276.75</ele><time>2026-05-02T09:11:12.299Z</time></trkpt><trkpt lat="42.2362033" lon="13.9059737"><ele>276.0</ele><time>2026-05-02T09:11:14.305Z</time></trkpt><trkpt lat="42.2361323" lon="13.9056422"><ele>282.0</ele><time>2026-05-02T09:11:16.306Z</time></trkpt><trkpt lat="42.2359949" lon="13.9052473"><ele>288.0</ele><time>2026-05-02T09:11:18.304Z</time></trkpt><trkpt lat="42.2357994" lon="13.904815"><ele>287.0</ele><time>2026-05-02T09:11:20.303Z</time></trkpt><trkpt lat="42.2355988" lon="13.9043671"><ele>286.0</ele><time>2026-05-02T09:11:22.302Z</time></trkpt><trkpt lat="42.2354551" lon="13.9040257"><ele>289.5</ele><time>2026-05-02T09:11:24.299Z</time></trkpt><trkpt lat="42.2353718" lon="13.9037116"><ele>293.0</ele><time>2026-05-02T09:11:26.291Z</time></trkpt><trkpt lat="42.2353035" lon="13.9033077"><ele>294.0</ele><time>2026-05-02T09:11:28.301Z</time></trkpt><trkpt lat="42.2352318" lon="13.9028909"><ele>295.0</ele><time>2026-05-02T09:11:30.293Z</time></trkpt><trkpt lat="42.2352281" lon="13.9027096"><ele>295.0</ele><time>2026-05-02T09:11:32.295Z</time></trkpt><trkpt lat="42.2353257" lon="13.9027218"><ele>295.0</ele><time>2026-05-02T09:11:34.301Z</time></trkpt><trkpt lat="42.2354175" lon="13.9029517"><ele>295.0</ele><time>2026-05-02T09:11:36.299Z</time></trkpt><trkpt lat="42.2354618" lon="13.9032745"><ele>294.0</ele><time>2026-05-02T09:11:38.287Z</time></trkpt><trkpt lat="42.2355479" lon="13.9036162"><ele>293.0</ele><time>2026-05-02T09:11:40.286Z</time></trkpt><trkpt lat="42.235664" lon="13.9038579"><ele>296.0</ele><time>2026-05-02T09:11:42.302Z</time></trkpt><trkpt lat="42.2357873" lon="13.9039248"><ele>299.0</ele><time>2026-05-02T09:11:44.306Z</time></trkpt><trkpt lat="42.2358904" lon="13.903794"><ele>302.0</ele><time>2026-05-02T09:11:46.293Z</time></trkpt><trkpt lat="42.2358845" lon="13.9035553"><ele>304.0</ele><time>2026-05-02T09:11:48.297Z</time></trkpt><trkpt lat="42.2358643" lon="13.9032686"><ele>306.0</ele><time>2026-05-02T09:11:50.299Z</time></trkpt><trkpt lat="42.2358553" lon="13.9030334"><ele>308.0</ele><time>2026-05-02T09:11:52.298Z</time></trkpt><trkpt lat="42.2358385" lon="13.9029026"><ele>308.0</ele><time>2026-05-02T09:11:54.304Z</time></trkpt><trkpt lat="42.2358407" lon="13.9027414"><ele>308.0</ele><time>2026-05-02T09:11:58.332Z</time></trkpt><trkpt lat="42.2358151" lon="13.9025574"><ele>308.0</ele><time>2026-05-02T09:12:02.308Z</time></trkpt><trkpt lat="42.2357996" lon="13.9024117"><ele>308.0</ele><time>2026-05-02T09:12:06.306Z</time></trkpt><trkpt lat="42.2357971" lon="13.9023184"><ele>308.0</ele><time>2026-05-02T09:12:18.333Z</time></trkpt><trkpt lat="42.2357926" lon="13.9022272"><ele>309.33333333333337</ele><time>2026-05-02T09:12:20.326Z</time></trkpt><trkpt lat="42.2357847" lon="13.9021352"><ele>310.6666666666667</ele><time>2026-05-02T09:12:22.318Z</time></trkpt><trkpt lat="42.2357792" lon="13.901961"><ele>312.0</ele><time>2026-05-02T09:12:26.318Z</time></trkpt><trkpt lat="42.2357698" lon="13.901859"><ele>313.3333333333333</ele><time>2026-05-02T09:12:28.321Z</time></trkpt><trkpt lat="42.2357534" lon="13.9017494"><ele>314.66666666666663</ele><time>2026-05-02T09:12:30.314Z</time></trkpt><trkpt lat="42.2357407" lon="13.9016562"><ele>316.0</ele><time>2026-05-02T09:12:32.327Z</time></trkpt><trkpt lat="42.2357308" lon="13.9015069"><ele>317.0</ele><time>2026-05-02T09:12:36.328Z</time></trkpt><trkpt lat="42.2357259" lon="13.9013988"><ele>318.0</ele><time>2026-05-02T09:12:38.328Z</time></trkpt><trkpt lat="42.2357221" lon="13.9012957"><ele>319.0</ele><time>2026-05-02T09:12:40.33Z</time></trkpt><trkpt lat="42.2357151" lon="13.901195"><ele>320.0</ele><time>2026-05-02T09:12:42.323Z</time></trkpt><trkpt lat="42.2357147" lon="13.9010964"><ele>321.0</ele><time>2026-05-02T09:12:44.324Z</time></trkpt><trkpt lat="42.235712" lon="13.9009751"><ele>322.0</ele><time>2026-05-02T09:12:46.325Z</time></trkpt><trkpt lat="42.2357051" lon="13.9008403"><ele>323.16666666666663</ele><time>2026-05-02T09:12:48.327Z</time></trkpt><trkpt lat="42.2356982" lon="13.9007163"><ele>324.3333333333333</ele><time>2026-05-02T09:12:50.318Z</time></trkpt><trkpt lat="42.2356916" lon="13.9006197"><ele>325.5</ele><time>2026-05-02T09:12:52.313Z</time></trkpt><trkpt lat="42.2356753" lon="13.9005211"><ele>326.6666666666667</ele><time>2026-05-02T09:12:54.309Z</time></trkpt><trkpt lat="42.2356823" lon="13.9003947"><ele>327.83333333333337</ele><time>2026-05-02T09:12:56.313Z</time></trkpt><trkpt lat="42.2356793" lon="13.9002509"><ele>329.0</ele><time>2026-05-02T09:12:58.31Z</time></trkpt><trkpt lat="42.2356574" lon="13.9001109"><ele>329.5</ele><time>2026-05-02T09:13:00.305Z</time></trkpt><trkpt lat="42.2356536" lon="13.9000099"><ele>330.0</ele><time>2026-05-02T09:13:02.303Z</time></trkpt><trkpt lat="42.2356688" lon="13.8998388"><ele>330.5</ele><time>2026-05-02T09:13:06.312Z</time></trkpt><trkpt lat="42.2356895" lon="13.8997224"><ele>331.0</ele><time>2026-05-02T09:13:08.309Z</time></trkpt><trkpt lat="42.2357124" lon="13.8996267"><ele>331.5</ele><time>2026-05-02T09:13:10.316Z</time></trkpt><trkpt lat="42.2357323" lon="13.8995188"><ele>332.0</ele><time>2026-05-02T09:13:12.309Z</time></trkpt><trkpt lat="42.235747" lon="13.8994063"><ele>332.0</ele><time>2026-05-02T09:13:14.308Z</time></trkpt><trkpt lat="42.235747" lon="13.8993123"><ele>332.0</ele><time>2026-05-02T09:13:16.314Z</time></trkpt><trkpt lat="42.2357387" lon="13.8991701"><ele>332.0</ele><time>2026-05-02T09:13:20.311Z</time></trkpt><trkpt lat="42.2357294" lon="13.8990539"><ele>332.0</ele><time>2026-05-02T09:13:24.312Z</time></trkpt><trkpt lat="42.2357318" lon="13.898952"><ele>332.0</ele><time>2026-05-02T09:13:28.312Z</time></trkpt><trkpt lat="42.2357307" lon="13.898808"><ele>332.0</ele><time>2026-05-02T09:13:32.31Z</time></trkpt><trkpt lat="42.2357137" lon="13.8986564"><ele>333.6</ele><time>2026-05-02T09:13:36.31Z</time></trkpt><trkpt lat="42.235705" lon="13.8985049"><ele>335.20000000000005</ele><time>2026-05-02T09:13:40.303Z</time></trkpt><trkpt lat="42.2356977" lon="13.8983653"><ele>336.8</ele><time>2026-05-02T09:13:44.301Z</time></trkpt><trkpt lat="42.2356784" lon="13.8982285"><ele>338.4</ele><time>2026-05-02T09:13:48.298Z</time></trkpt><trkpt lat="42.2356546" lon="13.8980612"><ele>340.0</ele><time>2026-05-02T09:13:52.298Z</time></trkpt><trkpt lat="42.2356373" lon="13.8979678"><ele>341.6</ele><time>2026-05-02T09:13:54.306Z</time></trkpt><trkpt lat="42.2356296" lon="13.897773"><ele>343.2</ele><time>2026-05-02T09:13:58.299Z</time></trkpt><trkpt lat="42.2356385" lon="13.8976494"><ele>344.79999999999995</ele><time>2026-05-02T09:14:00.315Z</time></trkpt><trkpt lat="42.2356561" lon="13.8975485"><ele>346.4</ele><time>2026-05-02T09:14:02.309Z</time></trkpt><trkpt lat="42.2356903" lon="13.8973902"><ele>348.0</ele><time>2026-05-02T09:14:06.308Z</time></trkpt><trkpt lat="42.2357223" lon="13.8972885"><ele>349.25</ele><time>2026-05-02T09:14:08.304Z</time></trkpt><trkpt lat="42.2357654" lon="13.8971642"><ele>350.5</ele><time>2026-05-02T09:14:10.304Z</time></trkpt><trkpt lat="42.2357861" lon="13.8970107"><ele>351.75</ele><time>2026-05-02T09:14:12.301Z</time></trkpt><trkpt lat="42.2358207" lon="13.8968063"><ele>353.0</ele><time>2026-05-02T09:14:14.296Z</time></trkpt><trkpt lat="42.2358815" lon="13.8965777"><ele>353.0</ele><time>2026-05-02T09:14:16.299Z</time></trkpt><trkpt lat="42.2359402" lon="13.8963046"><ele>353.0</ele><time>2026-05-02T09:14:18.372Z</time></trkpt><trkpt lat="42.2359756" lon="13.8959847"><ele>351.6666666666667</ele><time>2026-05-02T09:14:20.373Z</time></trkpt><trkpt lat="42.2360077" lon="13.8956984"><ele>350.3333333333333</ele><time>2026-05-02T09:14:22.36Z</time></trkpt><trkpt lat="42.2360436" lon="13.8954648"><ele>349.0</ele><time>2026-05-02T09:14:24.356Z</time></trkpt><trkpt lat="42.2360665" lon="13.8952286"><ele>348.3333333333333</ele><time>2026-05-02T09:14:26.37Z</time></trkpt><trkpt lat="42.2360852" lon="13.8949628"><ele>347.6666666666667</ele><time>2026-05-02T09:14:28.37Z</time></trkpt><trkpt lat="42.2361023" lon="13.8946983"><ele>347.0</ele><time>2026-05-02T09:14:30.372Z</time></trkpt><trkpt lat="42.2361184" lon="13.8944724"><ele>347.0</ele><time>2026-05-02T09:14:32.373Z</time></trkpt><trkpt lat="42.2361831" lon="13.8942731"><ele>347.0</ele><time>2026-05-02T09:14:34.375Z</time></trkpt><trkpt lat="42.2362481" lon="13.8940577"><ele>347.0</ele><time>2026-05-02T09:14:36.362Z</time></trkpt><trkpt lat="42.2362528" lon="13.893833"><ele>346.6666666666667</ele><time>2026-05-02T09:14:38.378Z</time></trkpt><trkpt lat="42.236254" lon="13.8936234"><ele>346.3333333333333</ele><time>2026-05-02T09:14:40.582Z</time></trkpt><trkpt lat="42.2362472" lon="13.8934263"><ele>346.0</ele><time>2026-05-02T09:14:42.407Z</time></trkpt><trkpt lat="42.2362447" lon="13.8932014"><ele>346.0</ele><time>2026-05-02T09:14:44.405Z</time></trkpt><trkpt lat="42.2362415" lon="13.8929558"><ele>346.0</ele><time>2026-05-02T09:14:46.413Z</time></trkpt><trkpt lat="42.2362397" lon="13.8927061"><ele>346.0</ele><time>2026-05-02T09:14:48.416Z</time></trkpt><trkpt lat="42.2362361" lon="13.8924464"><ele>349.0</ele><time>2026-05-02T09:14:50.414Z</time></trkpt><trkpt lat="42.2362029" lon="13.8921675"><ele>352.0</ele><time>2026-05-02T09:14:52.407Z</time></trkpt><trkpt lat="42.2361322" lon="13.8918507"><ele>356.0</ele><time>2026-05-02T09:14:54.39Z</time></trkpt><trkpt lat="42.2360086" lon="13.8915102"><ele>360.0</ele><time>2026-05-02T09:14:56.386Z</time></trkpt><trkpt lat="42.2358706" lon="13.8912384"><ele>360.0</ele><time>2026-05-02T09:14:58.413Z</time></trkpt><trkpt lat="42.2357743" lon="13.8909395"><ele>360.0</ele><time>2026-05-02T09:15:00.391Z</time></trkpt><trkpt lat="42.2357337" lon="13.8905971"><ele>363.0</ele><time>2026-05-02T09:15:02.385Z</time></trkpt><trkpt lat="42.2357089" lon="13.8902782"><ele>366.0</ele><time>2026-05-02T09:15:04.41Z</time></trkpt><trkpt lat="42.2356349" lon="13.8899584"><ele>366.0</ele><time>2026-05-02T09:15:06.409Z</time></trkpt><trkpt lat="42.2354894" lon="13.8896166"><ele>366.0</ele><time>2026-05-02T09:15:08.402Z</time></trkpt><trkpt lat="42.2353304" lon="13.8892702"><ele>371.0</ele><time>2026-05-02T09:15:10.399Z</time></trkpt><trkpt lat="42.2351739" lon="13.8889372"><ele>376.0</ele><time>2026-05-02T09:15:12.424Z</time></trkpt><trkpt lat="42.2350129" lon="13.8886337"><ele>379.0</ele><time>2026-05-02T09:15:14.431Z</time></trkpt><trkpt lat="42.2348332" lon="13.8883399"><ele>382.0</ele><time>2026-05-02T09:15:16.43Z</time></trkpt><trkpt lat="42.2346512" lon="13.8880602"><ele>382.0</ele><time>2026-05-02T09:15:18.423Z</time></trkpt><trkpt lat="42.2344802" lon="13.8878066"><ele>382.0</ele><time>2026-05-02T09:15:20.423Z</time></trkpt><trkpt lat="42.2343067" lon="13.8875408"><ele>382.5</ele><time>2026-05-02T09:15:22.416Z</time></trkpt><trkpt lat="42.2341347" lon="13.8872724"><ele>383.0</ele><time>2026-05-02T09:15:24.418Z</time></trkpt><trkpt lat="42.2339586" lon="13.8869945"><ele>392.5</ele><time>2026-05-02T09:15:26.413Z</time></trkpt><trkpt lat="42.2337699" lon="13.8867504"><ele>402.0</ele><time>2026-05-02T09:15:28.4Z</time></trkpt><trkpt lat="42.2335884" lon="13.8866146"><ele>402.0</ele><time>2026-05-02T09:15:30.394Z</time></trkpt><trkpt lat="42.233471" lon="13.8864628"><ele>402.0</ele><time>2026-05-02T09:15:32.316Z</time></trkpt><trkpt lat="42.2335251" lon="13.8862649"><ele>402.0</ele><time>2026-05-02T09:15:34.34Z</time></trkpt><trkpt lat="42.2336865" lon="13.8861994"><ele>402.0</ele><time>2026-05-02T09:15:36.343Z</time></trkpt><trkpt lat="42.2338758" lon="13.8863165"><ele>402.0</ele><time>2026-05-02T09:15:38.327Z</time></trkpt><trkpt lat="42.2341057" lon="13.8865491"><ele>401.5</ele><time>2026-05-02T09:15:40.323Z</time></trkpt><trkpt lat="42.2343198" lon="13.88685"><ele>401.0</ele><time>2026-05-02T09:15:42.334Z</time></trkpt><trkpt lat="42.2344871" lon="13.887029"><ele>401.0</ele><time>2026-05-02T09:15:44.334Z</time></trkpt><trkpt lat="42.2346379" lon="13.8870351"><ele>401.0</ele><time>2026-05-02T09:15:46.335Z</time></trkpt><trkpt lat="42.2347166" lon="13.8868737"><ele>401.0</ele><time>2026-05-02T09:15:48.338Z</time></trkpt><trkpt lat="42.2346755" lon="13.8866434"><ele>409.0</ele><time>2026-05-02T09:15:50.339Z</time></trkpt><trkpt lat="42.2344889" lon="13.8864404"><ele>417.0</ele><time>2026-05-02T09:15:52.33Z</time></trkpt><trkpt lat="42.2342834" lon="13.8861622"><ele>423.5</ele><time>2026-05-02T09:15:54.326Z</time></trkpt><trkpt lat="42.2341138" lon="13.8858034"><ele>430.0</ele><time>2026-05-02T09:15:56.33Z</time></trkpt><trkpt lat="42.234005" lon="13.8854043"><ele>429.0</ele><time>2026-05-02T09:15:58.325Z</time></trkpt><trkpt lat="42.233946" lon="13.8849726"><ele>428.0</ele><time>2026-05-02T09:16:00.335Z</time></trkpt><trkpt lat="42.2338785" lon="13.8845445"><ele>436.5</ele><time>2026-05-02T09:16:02.333Z</time></trkpt><trkpt lat="42.2337991" lon="13.8841172"><ele>445.0</ele><time>2026-05-02T09:16:04.33Z</time></trkpt><trkpt lat="42.2337101" lon="13.8837138"><ele>453.0</ele><time>2026-05-02T09:16:06.336Z</time></trkpt><trkpt lat="42.2336242" lon="13.8833203"><ele>461.0</ele><time>2026-05-02T09:16:08.332Z</time></trkpt><trkpt lat="42.2335648" lon="13.8829548"><ele>468.0</ele><time>2026-05-02T09:16:10.328Z</time></trkpt><trkpt lat="42.233559" lon="13.8825675"><ele>475.0</ele><time>2026-05-02T09:16:12.324Z</time></trkpt><trkpt lat="42.2336108" lon="13.882138"><ele>477.0</ele><time>2026-05-02T09:16:14.323Z</time></trkpt><trkpt lat="42.2336805" lon="13.8816849"><ele>479.0</ele><time>2026-05-02T09:16:16.324Z</time></trkpt><trkpt lat="42.2337598" lon="13.881262"><ele>478.5</ele><time>2026-05-02T09:16:18.317Z</time></trkpt><trkpt lat="42.2338129" lon="13.88084"><ele>478.0</ele><time>2026-05-02T09:16:20.321Z</time></trkpt><trkpt lat="42.2338267" lon="13.8804392"><ele>477.0</ele><time>2026-05-02T09:16:22.311Z</time></trkpt><trkpt lat="42.233756" lon="13.8800091"><ele>476.0</ele><time>2026-05-02T09:16:24.314Z</time></trkpt><trkpt lat="42.2336901" lon="13.8796137"><ele>475.5</ele><time>2026-05-02T09:16:26.314Z</time></trkpt><trkpt lat="42.2337433" lon="13.8791845"><ele>475.0</ele><time>2026-05-02T09:16:28.327Z</time></trkpt><trkpt lat="42.2338496" lon="13.8787145"><ele>474.5</ele><time>2026-05-02T09:16:30.321Z</time></trkpt><trkpt lat="42.2339637" lon="13.8782176"><ele>474.0</ele><time>2026-05-02T09:16:32.322Z</time></trkpt><trkpt lat="42.2340493" lon="13.87769"><ele>470.0</ele><time>2026-05-02T09:16:34.327Z</time></trkpt><trkpt lat="42.234107" lon="13.8771437"><ele>466.0</ele><time>2026-05-02T09:16:36.331Z</time></trkpt><trkpt lat="42.2341518" lon="13.8766649"><ele>466.0</ele><time>2026-05-02T09:16:38.319Z</time></trkpt><trkpt lat="42.2342561" lon="13.8762636"><ele>466.0</ele><time>2026-05-02T09:16:40.315Z</time></trkpt><trkpt lat="42.2344392" lon="13.8759035"><ele>462.0</ele><time>2026-05-02T09:16:42.319Z</time></trkpt><trkpt lat="42.2346641" lon="13.8755534"><ele>458.0</ele><time>2026-05-02T09:16:44.326Z</time></trkpt><trkpt lat="42.2349448" lon="13.8752202"><ele>462.5</ele><time>2026-05-02T09:16:46.32Z</time></trkpt><trkpt lat="42.2352339" lon="13.8749653"><ele>467.0</ele><time>2026-05-02T09:16:48.325Z</time></trkpt><trkpt lat="42.2354824" lon="13.8747341"><ele>472.0</ele><time>2026-05-02T09:16:50.32Z</time></trkpt><trkpt lat="42.2356681" lon="13.8745033"><ele>477.0</ele><time>2026-05-02T09:16:52.311Z</time></trkpt><trkpt lat="42.2357278" lon="13.8742785"><ele>482.0</ele><time>2026-05-02T09:16:54.31Z</time></trkpt><trkpt lat="42.2356088" lon="13.8740379"><ele>482.0</ele><time>2026-05-02T09:16:56.313Z</time></trkpt><trkpt lat="42.2354282" lon="13.8738751"><ele>482.0</ele><time>2026-05-02T09:16:58.313Z</time></trkpt><trkpt lat="42.2353142" lon="13.8736516"><ele>482.0</ele><time>2026-05-02T09:17:00.304Z</time></trkpt><trkpt lat="42.2353624" lon="13.873422"><ele>479.5</ele><time>2026-05-02T09:17:02.303Z</time></trkpt><trkpt lat="42.2355292" lon="13.8732154"><ele>477.0</ele><time>2026-05-02T09:17:04.304Z</time></trkpt><trkpt lat="42.235756" lon="13.8731318"><ele>469.0</ele><time>2026-05-02T09:17:06.312Z</time></trkpt><trkpt lat="42.2360635" lon="13.8732077"><ele>461.0</ele><time>2026-05-02T09:17:08.309Z</time></trkpt><trkpt lat="42.236394" lon="13.8733703"><ele>461.5</ele><time>2026-05-02T09:17:10.314Z</time></trkpt><trkpt lat="42.2367322" lon="13.8733941"><ele>462.0</ele><time>2026-05-02T09:17:12.304Z</time></trkpt><trkpt lat="42.2370618" lon="13.8732973"><ele>459.5</ele><time>2026-05-02T09:17:14.306Z</time></trkpt><trkpt lat="42.2373524" lon="13.8731257"><ele>457.0</ele><time>2026-05-02T09:17:16.313Z</time></trkpt><trkpt lat="42.2376101" lon="13.8729062"><ele>457.0</ele><time>2026-05-02T09:17:18.308Z</time></trkpt><trkpt lat="42.2378198" lon="13.8726095"><ele>457.0</ele><time>2026-05-02T09:17:20.321Z</time></trkpt><trkpt lat="42.2379271" lon="13.8721974"><ele>465.0</ele><time>2026-05-02T09:17:22.316Z</time></trkpt><trkpt lat="42.2380525" lon="13.8717925"><ele>473.0</ele><time>2026-05-02T09:17:24.311Z</time></trkpt><trkpt lat="42.2382422" lon="13.871412"><ele>473.5</ele><time>2026-05-02T09:17:26.31Z</time></trkpt><trkpt lat="42.2384313" lon="13.8711255"><ele>474.0</ele><time>2026-05-02T09:17:28.31Z</time></trkpt><trkpt lat="42.2385781" lon="13.8709094"><ele>478.0</ele><time>2026-05-02T09:17:30.307Z</time></trkpt><trkpt lat="42.2386759" lon="13.8707554"><ele>482.0</ele><time>2026-05-02T09:17:32.307Z</time></trkpt><trkpt lat="42.2387143" lon="13.8706495"><ele>486.0</ele><time>2026-05-02T09:17:34.325Z</time></trkpt><trkpt lat="42.2386456" lon="13.8705861"><ele>490.0</ele><time>2026-05-02T09:17:36.323Z</time></trkpt><trkpt lat="42.2384713" lon="13.8706316"><ele>490.0</ele><time>2026-05-02T09:17:38.328Z</time></trkpt><trkpt lat="42.2382403" lon="13.8706817"><ele>490.0</ele><time>2026-05-02T09:17:40.398Z</time></trkpt><trkpt lat="42.2379928" lon="13.8707409"><ele>488.6666666666667</ele><time>2026-05-02T09:17:42.39Z</time></trkpt><trkpt lat="42.2378206" lon="13.8708785"><ele>487.33333333333337</ele><time>2026-05-02T09:17:44.404Z</time></trkpt><trkpt lat="42.2376698" lon="13.8709852"><ele>486.0</ele><time>2026-05-02T09:17:46.304Z</time></trkpt><trkpt lat="42.237528" lon="13.8710031"><ele>489.5</ele><time>2026-05-02T09:17:48.3Z</time></trkpt><trkpt lat="42.2374895" lon="13.870878"><ele>493.0</ele><time>2026-05-02T09:17:50.32Z</time></trkpt><trkpt lat="42.2375649" lon="13.8707179"><ele>496.5</ele><time>2026-05-02T09:17:52.316Z</time></trkpt><trkpt lat="42.2376965" lon="13.8705263"><ele>500.0</ele><time>2026-05-02T09:17:54.32Z</time></trkpt><trkpt lat="42.2378546" lon="13.8703143"><ele>505.0</ele><time>2026-05-02T09:17:56.323Z</time></trkpt><trkpt lat="42.2379961" lon="13.8700858"><ele>510.0</ele><time>2026-05-02T09:17:58.315Z</time></trkpt><trkpt lat="42.2380434" lon="13.8699216"><ele>515.0</ele><time>2026-05-02T09:18:00.312Z</time></trkpt><trkpt lat="42.2379352" lon="13.8697755"><ele>515.0</ele><time>2026-05-02T09:18:02.305Z</time></trkpt><trkpt lat="42.2377357" lon="13.8696913"><ele>515.0</ele><time>2026-05-02T09:18:04.309Z</time></trkpt><trkpt lat="42.2374899" lon="13.8696165"><ele>514.6666666666666</ele><time>2026-05-02T09:18:06.319Z</time></trkpt><trkpt lat="42.2372813" lon="13.8694732"><ele>514.3333333333334</ele><time>2026-05-02T09:18:08.317Z</time></trkpt><trkpt lat="42.2371411" lon="13.8693824"><ele>514.0</ele><time>2026-05-02T09:18:10.322Z</time></trkpt><trkpt lat="42.2370196" lon="13.8693076"><ele>519.0</ele><time>2026-05-02T09:18:12.319Z</time></trkpt><trkpt lat="42.2369047" lon="13.8692419"><ele>524.0</ele><time>2026-05-02T09:18:14.321Z</time></trkpt><trkpt lat="42.2367859" lon="13.869176"><ele>529.0</ele><time>2026-05-02T09:18:16.327Z</time></trkpt><trkpt lat="42.2366964" lon="13.8690998"><ele>534.0</ele><time>2026-05-02T09:18:18.324Z</time></trkpt><trkpt lat="42.236574" lon="13.8689808"><ele>532.0</ele><time>2026-05-02T09:18:20.327Z</time></trkpt><trkpt lat="42.2363828" lon="13.8688363"><ele>530.0</ele><time>2026-05-02T09:18:22.321Z</time></trkpt><trkpt lat="42.2362295" lon="13.8686918"><ele>528.0</ele><time>2026-05-02T09:18:24.315Z</time></trkpt><trkpt lat="42.2361963" lon="13.868524"><ele>531.3333333333334</ele><time>2026-05-02T09:18:26.319Z</time></trkpt><trkpt lat="42.2363065" lon="13.8683815"><ele>534.6666666666667</ele><time>2026-05-02T09:18:28.321Z</time></trkpt><trkpt lat="42.2365035" lon="13.8683182"><ele>538.0</ele><time>2026-05-02T09:18:30.328Z</time></trkpt><trkpt lat="42.2367313" lon="13.8682308"><ele>542.0</ele><time>2026-05-02T09:18:32.32Z</time></trkpt><trkpt lat="42.2369467" lon="13.8681229"><ele>546.0</ele><time>2026-05-02T09:18:34.319Z</time></trkpt><trkpt lat="42.2370822" lon="13.8680302"><ele>550.0</ele><time>2026-05-02T09:18:36.325Z</time></trkpt><trkpt lat="42.2370781" lon="13.8679019"><ele>550.0</ele><time>2026-05-02T09:18:38.306Z</time></trkpt><trkpt lat="42.2369218" lon="13.8677934"><ele>550.0</ele><time>2026-05-02T09:18:40.323Z</time></trkpt><trkpt lat="42.2366654" lon="13.8676718"><ele>550.0</ele><time>2026-05-02T09:18:42.313Z</time></trkpt><trkpt lat="42.2364487" lon="13.8674491"><ele>552.3333333333334</ele><time>2026-05-02T09:18:44.31Z</time></trkpt><trkpt lat="42.2363279" lon="13.8672013"><ele>554.6666666666666</ele><time>2026-05-02T09:18:46.315Z</time></trkpt><trkpt lat="42.236264" lon="13.8669937"><ele>557.0</ele><time>2026-05-02T09:18:48.317Z</time></trkpt><trkpt lat="42.2361657" lon="13.8668149"><ele>557.0</ele><time>2026-05-02T09:18:50.309Z</time></trkpt><trkpt lat="42.2359929" lon="13.8667264"><ele>557.0</ele><time>2026-05-02T09:18:52.306Z</time></trkpt><trkpt lat="42.2357855" lon="13.8667891"><ele>557.0</ele><time>2026-05-02T09:18:54.312Z</time></trkpt><trkpt lat="42.2356465" lon="13.8668611"><ele>556.0</ele><time>2026-05-02T09:18:56.318Z</time></trkpt><trkpt lat="42.2355636" lon="13.8668926"><ele>555.0</ele><time>2026-05-02T09:18:58.319Z</time></trkpt><trkpt lat="42.2354266" lon="13.8668691"><ele>554.0</ele><time>2026-05-02T09:19:02.33Z</time></trkpt><trkpt lat="42.2353667" lon="13.8667724"><ele>553.0</ele><time>2026-05-02T09:19:04.332Z</time></trkpt><trkpt lat="42.2354554" lon="13.8666728"><ele>552.0</ele><time>2026-05-02T09:19:06.325Z</time></trkpt><trkpt lat="42.2355636" lon="13.8666479"><ele>556.8000000000001</ele><time>2026-05-02T09:19:08.318Z</time></trkpt><trkpt lat="42.2356279" lon="13.8665858"><ele>561.6</ele><time>2026-05-02T09:19:10.329Z</time></trkpt><trkpt lat="42.2356354" lon="13.8664933"><ele>566.4000000000001</ele><time>2026-05-02T09:19:12.321Z</time></trkpt><trkpt lat="42.2355262" lon="13.8664294"><ele>571.2</ele><time>2026-05-02T09:19:14.32Z</time></trkpt><trkpt lat="42.2353559" lon="13.8663959"><ele>576.0</ele><time>2026-05-02T09:19:16.315Z</time></trkpt><trkpt lat="42.2352347" lon="13.866283"><ele>576.0</ele><time>2026-05-02T09:19:18.317Z</time></trkpt><trkpt lat="42.2351661" lon="13.8661568"><ele>576.0</ele><time>2026-05-02T09:19:20.322Z</time></trkpt><trkpt lat="42.2351315" lon="13.8660615"><ele>576.0</ele><time>2026-05-02T09:19:22.327Z</time></trkpt><trkpt lat="42.2350759" lon="13.8659679"><ele>576.0</ele><time>2026-05-02T09:19:34.327Z</time></trkpt><trkpt lat="42.2349859" lon="13.8658099"><ele>576.0</ele><time>2026-05-02T09:19:36.331Z</time></trkpt><trkpt lat="42.2348756" lon="13.8655986"><ele>574.3333333333334</ele><time>2026-05-02T09:19:38.317Z</time></trkpt><trkpt lat="42.2347163" lon="13.8654061"><ele>572.6666666666667</ele><time>2026-05-02T09:19:40.321Z</time></trkpt><trkpt lat="42.2345504" lon="13.8652412"><ele>571.0</ele><time>2026-05-02T09:19:42.328Z</time></trkpt><trkpt lat="42.2344255" lon="13.8650677"><ele>577.0</ele><time>2026-05-02T09:19:44.318Z</time></trkpt><trkpt lat="42.2343303" lon="13.8648282"><ele>583.0</ele><time>2026-05-02T09:19:46.323Z</time></trkpt><trkpt lat="42.2342163" lon="13.8645659"><ele>589.0</ele><time>2026-05-02T09:19:48.306Z</time></trkpt><trkpt lat="42.2340765" lon="13.864347"><ele>588.6666666666667</ele><time>2026-05-02T09:19:50.318Z</time></trkpt><trkpt lat="42.2339873" lon="13.8640849"><ele>588.3333333333334</ele><time>2026-05-02T09:19:52.319Z</time></trkpt><trkpt lat="42.2339368" lon="13.8638595"><ele>588.0</ele><time>2026-05-02T09:19:54.324Z</time></trkpt><trkpt lat="42.2338823" lon="13.8636872"><ele>588.0</ele><time>2026-05-02T09:19:56.329Z</time></trkpt><trkpt lat="42.2337943" lon="13.8634752"><ele>588.0</ele><time>2026-05-02T09:19:58.326Z</time></trkpt><trkpt lat="42.2336562" lon="13.8632722"><ele>588.0</ele><time>2026-05-02T09:20:00.329Z</time></trkpt><trkpt lat="42.2335209" lon="13.8630529"><ele>595.0</ele><time>2026-05-02T09:20:02.329Z</time></trkpt><trkpt lat="42.2333356" lon="13.8628279"><ele>602.0</ele><time>2026-05-02T09:20:04.33Z</time></trkpt><trkpt lat="42.2331668" lon="13.8626415"><ele>602.0</ele><time>2026-05-02T09:20:06.33Z</time></trkpt><trkpt lat="42.2330009" lon="13.8624636"><ele>602.0</ele><time>2026-05-02T09:20:08.322Z</time></trkpt><trkpt lat="42.2328821" lon="13.8622464"><ele>602.0</ele><time>2026-05-02T09:20:10.311Z</time></trkpt><trkpt lat="42.2327921" lon="13.8619618"><ele>609.5</ele><time>2026-05-02T09:20:12.315Z</time></trkpt><trkpt lat="42.2327228" lon="13.8616498"><ele>617.0</ele><time>2026-05-02T09:20:14.311Z</time></trkpt><trkpt lat="42.2326104" lon="13.8613481"><ele>617.0</ele><time>2026-05-02T09:20:16.314Z</time></trkpt><trkpt lat="42.2324911" lon="13.8610965"><ele>617.0</ele><time>2026-05-02T09:20:18.305Z</time></trkpt><trkpt lat="42.2323939" lon="13.8608331"><ele>617.0</ele><time>2026-05-02T09:20:20.317Z</time></trkpt><trkpt lat="42.2323644" lon="13.8605504"><ele>619.6666666666666</ele><time>2026-05-02T09:20:22.311Z</time></trkpt><trkpt lat="42.2323673" lon="13.8602851"><ele>622.3333333333334</ele><time>2026-05-02T09:20:24.311Z</time></trkpt><trkpt lat="42.2323902" lon="13.8600741"><ele>625.0</ele><time>2026-05-02T09:20:26.304Z</time></trkpt><trkpt lat="42.2323417" lon="13.8599058"><ele>628.0</ele><time>2026-05-02T09:20:28.301Z</time></trkpt><trkpt lat="42.2321923" lon="13.8598162"><ele>631.0</ele><time>2026-05-02T09:20:30.304Z</time></trkpt><trkpt lat="42.2319866" lon="13.8598403"><ele>634.0</ele><time>2026-05-02T09:20:32.31Z</time></trkpt><trkpt lat="42.2317959" lon="13.8597884"><ele>634.0</ele><time>2026-05-02T09:20:34.316Z</time></trkpt><trkpt lat="42.2315914" lon="13.8597896"><ele>634.0</ele><time>2026-05-02T09:20:36.306Z</time></trkpt><trkpt lat="42.2314014" lon="13.8598665"><ele>634.0</ele><time>2026-05-02T09:20:38.314Z</time></trkpt><trkpt lat="42.2312348" lon="13.8599639"><ele>636.5</ele><time>2026-05-02T09:20:40.309Z</time></trkpt><trkpt lat="42.2311049" lon="13.8599915"><ele>639.0</ele><time>2026-05-02T09:20:42.322Z</time></trkpt><trkpt lat="42.2309781" lon="13.8599389"><ele>641.5</ele><time>2026-05-02T09:20:44.326Z</time></trkpt><trkpt lat="42.2309165" lon="13.8598137"><ele>644.0</ele><time>2026-05-02T09:20:46.321Z</time></trkpt><trkpt lat="42.2308838" lon="13.859675"><ele>644.0</ele><time>2026-05-02T09:20:50.334Z</time></trkpt><trkpt lat="42.2307999" lon="13.8596189"><ele>644.0</ele><time>2026-05-02T09:20:54.34Z</time></trkpt><trkpt lat="42.2307029" lon="13.8595224"><ele>644.0</ele><time>2026-05-02T09:20:58.326Z</time></trkpt><trkpt lat="42.2306059" lon="13.8594782"><ele>644.0</ele><time>2026-05-02T09:21:00.326Z</time></trkpt><trkpt lat="42.2304786" lon="13.8594197"><ele>644.6</ele><time>2026-05-02T09:21:02.314Z</time></trkpt><trkpt lat="42.2303807" lon="13.8593502"><ele>645.2</ele><time>2026-05-02T09:21:04.318Z</time></trkpt><trkpt lat="42.2302833" lon="13.8592438"><ele>645.8000000000001</ele><time>2026-05-02T09:21:06.329Z</time></trkpt><trkpt lat="42.230208" lon="13.8591887"><ele>646.4000000000001</ele><time>2026-05-02T09:21:08.325Z</time></trkpt><trkpt lat="42.2301254" lon="13.8591083"><ele>647.0</ele><time>2026-05-02T09:21:18.326Z</time></trkpt><trkpt lat="42.2300367" lon="13.859032"><ele>650.75</ele><time>2026-05-02T09:21:20.331Z</time></trkpt><trkpt lat="42.2299547" lon="13.8590291"><ele>654.5</ele><time>2026-05-02T09:21:22.329Z</time></trkpt><trkpt lat="42.229878" lon="13.8590756"><ele>658.25</ele><time>2026-05-02T09:21:24.332Z</time></trkpt><trkpt lat="42.2298058" lon="13.8589406"><ele>662.0</ele><time>2026-05-02T09:21:28.345Z</time></trkpt><trkpt lat="42.2296437" lon="13.8588811"><ele>665.6666666666666</ele><time>2026-05-02T09:21:32.334Z</time></trkpt><trkpt lat="42.2294914" lon="13.8588314"><ele>669.3333333333334</ele><time>2026-05-02T09:21:34.327Z</time></trkpt><trkpt lat="42.2293323" lon="13.8587479"><ele>673.0</ele><time>2026-05-02T09:21:36.321Z</time></trkpt><trkpt lat="42.2292403" lon="13.8586107"><ele>673.0</ele><time>2026-05-02T09:21:38.324Z</time></trkpt><trkpt lat="42.2291927" lon="13.8584704"><ele>673.0</ele><time>2026-05-02T09:21:40.345Z</time></trkpt><trkpt lat="42.2291286" lon="13.8583118"><ele>673.0</ele><time>2026-05-02T09:21:42.334Z</time></trkpt><trkpt lat="42.229017" lon="13.8581322"><ele>673.0</ele><time>2026-05-02T09:21:44.33Z</time></trkpt><trkpt lat="42.2289049" lon="13.8579682"><ele>680.0</ele><time>2026-05-02T09:21:46.331Z</time></trkpt><trkpt lat="42.2287748" lon="13.8578341"><ele>687.0</ele><time>2026-05-02T09:21:48.329Z</time></trkpt><trkpt lat="42.228622" lon="13.8577135"><ele>694.0</ele><time>2026-05-02T09:21:50.324Z</time></trkpt><trkpt lat="42.2285035" lon="13.857634"><ele>694.0</ele><time>2026-05-02T09:21:52.326Z</time></trkpt><trkpt lat="42.2283716" lon="13.8576513"><ele>694.0</ele><time>2026-05-02T09:21:54.317Z</time></trkpt><trkpt lat="42.2282244" lon="13.8577255"><ele>694.0</ele><time>2026-05-02T09:21:56.334Z</time></trkpt><trkpt lat="42.2281118" lon="13.8576853"><ele>694.0</ele><time>2026-05-02T09:21:58.326Z</time></trkpt><trkpt lat="42.2280596" lon="13.8576019"><ele>700.6</ele><time>2026-05-02T09:22:00.342Z</time></trkpt><trkpt lat="42.2279917" lon="13.857523"><ele>707.2</ele><time>2026-05-02T09:22:02.343Z</time></trkpt><trkpt lat="42.2278937" lon="13.8574708"><ele>713.8000000000001</ele><time>2026-05-02T09:22:04.341Z</time></trkpt><trkpt lat="42.2278442" lon="13.8573908"><ele>720.4000000000001</ele><time>2026-05-02T09:22:06.329Z</time></trkpt><trkpt lat="42.2277785" lon="13.8572774"><ele>727.0</ele><time>2026-05-02T09:22:08.336Z</time></trkpt><trkpt lat="42.2277012" lon="13.8571534"><ele>727.0</ele><time>2026-05-02T09:22:10.329Z</time></trkpt><trkpt lat="42.2276113" lon="13.856975"><ele>727.0</ele><time>2026-05-02T09:22:12.327Z</time></trkpt><trkpt lat="42.2275341" lon="13.8567794"><ele>727.0</ele><time>2026-05-02T09:22:14.318Z</time></trkpt><trkpt lat="42.2274496" lon="13.8566905"><ele>727.0</ele><time>2026-05-02T09:22:16.319Z</time></trkpt><trkpt lat="42.2273015" lon="13.8566761"><ele>733.5</ele><time>2026-05-02T09:22:18.32Z</time></trkpt><trkpt lat="42.2271351" lon="13.8566944"><ele>740.0</ele><time>2026-05-02T09:22:20.329Z</time></trkpt><trkpt lat="42.22702" lon="13.8566746"><ele>746.5</ele><time>2026-05-02T09:22:22.334Z</time></trkpt><trkpt lat="42.2269108" lon="13.856594"><ele>753.0</ele><time>2026-05-02T09:22:24.339Z</time></trkpt><trkpt lat="42.2268072" lon="13.8564877"><ele>753.0</ele><time>2026-05-02T09:22:26.333Z</time></trkpt><trkpt lat="42.2266698" lon="13.8563824"><ele>753.0</ele><time>2026-05-02T09:22:28.331Z</time></trkpt><trkpt lat="42.2265678" lon="13.8562336"><ele>753.0</ele><time>2026-05-02T09:22:30.319Z</time></trkpt><trkpt lat="42.2264949" lon="13.8560359"><ele>757.0</ele><time>2026-05-02T09:22:32.329Z</time></trkpt><trkpt lat="42.2263903" lon="13.8558527"><ele>761.0</ele><time>2026-05-02T09:22:34.333Z</time></trkpt><trkpt lat="42.226292" lon="13.8557236"><ele>765.0</ele><time>2026-05-02T09:22:36.333Z</time></trkpt><trkpt lat="42.2262306" lon="13.8556246"><ele>769.0</ele><time>2026-05-02T09:22:38.33Z</time></trkpt><trkpt lat="42.2261845" lon="13.8555625"><ele>769.0</ele><time>2026-05-02T09:22:42.346Z</time></trkpt><trkpt lat="42.2261409" lon="13.8554947"><ele>769.0</ele><time>2026-05-02T09:22:46.346Z</time></trkpt><trkpt lat="42.2260074" lon="13.8553718"><ele>769.0</ele><time>2026-05-02T09:22:48.348Z</time></trkpt><trkpt lat="42.2258564" lon="13.8552716"><ele>769.0</ele><time>2026-05-02T09:22:50.334Z</time></trkpt><trkpt lat="42.2257595" lon="13.8552358"><ele>769.0</ele><time>2026-05-02T09:22:52.335Z</time></trkpt><trkpt lat="42.2256524" lon="13.8552261"><ele>769.0</ele><time>2026-05-02T09:22:58.354Z</time></trkpt><trkpt lat="42.2255426" lon="13.8552392"><ele>769.0</ele><time>2026-05-02T09:23:32.337Z</time></trkpt><trkpt lat="42.2254824" lon="13.855205"><ele>769.0</ele><time>2026-05-02T09:23:40.334Z</time></trkpt><trkpt lat="42.2253982" lon="13.855063"><ele>769.0</ele><time>2026-05-02T09:24:34.334Z</time></trkpt><trkpt lat="42.2253627" lon="13.8549604"><ele>771.8000000000001</ele><time>2026-05-02T09:24:36.334Z</time></trkpt><trkpt lat="42.2253019" lon="13.8548278"><ele>774.6</ele><time>2026-05-02T09:24:52.334Z</time></trkpt><trkpt lat="42.2252691" lon="13.8546904"><ele>777.4</ele><time>2026-05-02T09:24:54.327Z</time></trkpt><trkpt lat="42.2252259" lon="13.8545637"><ele>780.2</ele><time>2026-05-02T09:24:56.339Z</time></trkpt><trkpt lat="42.2251738" lon="13.8544246"><ele>783.0</ele><time>2026-05-02T09:24:58.329Z</time></trkpt><trkpt lat="42.2251474" lon="13.8543443"><ele>784.5</ele><time>2026-05-02T09:25:00.334Z</time></trkpt><trkpt lat="42.2250987" lon="13.8541823"><ele>786.0</ele><time>2026-05-02T09:25:02.344Z</time></trkpt><trkpt lat="42.2250252" lon="13.8539826"><ele>787.5</ele><time>2026-05-02T09:25:04.338Z</time></trkpt><trkpt lat="42.2250076" lon="13.8537948"><ele>789.0</ele><time>2026-05-02T09:25:06.335Z</time></trkpt><trkpt lat="42.2249908" lon="13.8535379"><ele>789.3333333333333</ele><time>2026-05-02T09:25:08.416Z</time></trkpt><trkpt lat="42.2250024" lon="13.8533084"><ele>789.6666666666666</ele><time>2026-05-02T09:25:10.415Z</time></trkpt><trkpt lat="42.2250737" lon="13.8530837"><ele>790.0</ele><time>2026-05-02T09:25:12.395Z</time></trkpt><trkpt lat="42.2251599" lon="13.8528841"><ele>790.0</ele><time>2026-05-02T09:25:14.396Z</time></trkpt><trkpt lat="42.22527" lon="13.8526937"><ele>790.0</ele><time>2026-05-02T09:25:16.418Z</time></trkpt><trkpt lat="42.2253725" lon="13.8525415"><ele>790.0</ele><time>2026-05-02T09:25:18.422Z</time></trkpt><trkpt lat="42.22548" lon="13.8524029"><ele>790.6666666666666</ele><time>2026-05-02T09:25:20.42Z</time></trkpt><trkpt lat="42.2255614" lon="13.8522605"><ele>791.3333333333333</ele><time>2026-05-02T09:25:22.422Z</time></trkpt><trkpt lat="42.2256082" lon="13.8520403"><ele>792.0</ele><time>2026-05-02T09:25:24.394Z</time></trkpt><trkpt lat="42.2256381" lon="13.8518017"><ele>799.3333333333333</ele><time>2026-05-02T09:25:26.399Z</time></trkpt><trkpt lat="42.225657" lon="13.8515635"><ele>806.6666666666666</ele><time>2026-05-02T09:25:28.42Z</time></trkpt><trkpt lat="42.2256712" lon="13.8513357"><ele>814.0</ele><time>2026-05-02T09:25:30.42Z</time></trkpt><trkpt lat="42.2256756" lon="13.8511188"><ele>816.3333333333333</ele><time>2026-05-02T09:25:32.421Z</time></trkpt><trkpt lat="42.2256658" lon="13.8509009"><ele>818.6666666666667</ele><time>2026-05-02T09:25:34.407Z</time></trkpt><trkpt lat="42.2256519" lon="13.8506989"><ele>821.0</ele><time>2026-05-02T09:25:36.404Z</time></trkpt><trkpt lat="42.2256278" lon="13.8505028"><ele>821.0</ele><time>2026-05-02T09:25:38.423Z</time></trkpt><trkpt lat="42.2255999" lon="13.8502943"><ele>821.0</ele><time>2026-05-02T09:25:40.419Z</time></trkpt><trkpt lat="42.2255739" lon="13.8500549"><ele>821.0</ele><time>2026-05-02T09:25:42.425Z</time></trkpt><trkpt lat="42.2255369" lon="13.849787"><ele>825.25</ele><time>2026-05-02T09:25:44.332Z</time></trkpt><trkpt lat="42.2254793" lon="13.8495627"><ele>829.5</ele><time>2026-05-02T09:25:46.329Z</time></trkpt><trkpt lat="42.225481" lon="13.8494248"><ele>833.75</ele><time>2026-05-02T09:25:48.328Z</time></trkpt><trkpt lat="42.2255815" lon="13.8493446"><ele>838.0</ele><time>2026-05-02T09:25:50.328Z</time></trkpt><trkpt lat="42.2257152" lon="13.8493079"><ele>850.3333333333333</ele><time>2026-05-02T09:25:52.327Z</time></trkpt><trkpt lat="42.2259022" lon="13.8492623"><ele>862.6666666666667</ele><time>2026-05-02T09:25:54.313Z</time></trkpt><trkpt lat="42.2260799" lon="13.8491749"><ele>875.0</ele><time>2026-05-02T09:25:56.331Z</time></trkpt><trkpt lat="42.226282" lon="13.8491098"><ele>872.5</ele><time>2026-05-02T09:25:58.321Z</time></trkpt><trkpt lat="42.226519" lon="13.8490758"><ele>870.0</ele><time>2026-05-02T09:26:00.33Z</time></trkpt><trkpt lat="42.2267358" lon="13.8490303"><ele>870.0</ele><time>2026-05-02T09:26:02.33Z</time></trkpt><trkpt lat="42.2269154" lon="13.8489878"><ele>870.0</ele><time>2026-05-02T09:26:04.333Z</time></trkpt><trkpt lat="42.2271051" lon="13.8489392"><ele>870.0</ele><time>2026-05-02T09:26:06.316Z</time></trkpt><trkpt lat="42.2272952" lon="13.8488836"><ele>867.0</ele><time>2026-05-02T09:26:08.314Z</time></trkpt><trkpt lat="42.2274907" lon="13.8488087"><ele>864.0</ele><time>2026-05-02T09:26:10.306Z</time></trkpt><trkpt lat="42.2276627" lon="13.8488133"><ele>861.0</ele><time>2026-05-02T09:26:12.31Z</time></trkpt><trkpt lat="42.2278704" lon="13.8488882"><ele>861.0</ele><time>2026-05-02T09:26:14.309Z</time></trkpt><trkpt lat="42.2280682" lon="13.8489864"><ele>861.0</ele><time>2026-05-02T09:26:16.315Z</time></trkpt><trkpt lat="42.2282653" lon="13.8490175"><ele>861.0</ele><time>2026-05-02T09:26:18.319Z</time></trkpt><trkpt lat="42.2284375" lon="13.8490422"><ele>864.3333333333333</ele><time>2026-05-02T09:26:20.319Z</time></trkpt><trkpt lat="42.2286008" lon="13.8489959"><ele>867.6666666666666</ele><time>2026-05-02T09:26:22.321Z</time></trkpt><trkpt lat="42.2287836" lon="13.8489288"><ele>871.0</ele><time>2026-05-02T09:26:24.313Z</time></trkpt><trkpt lat="42.2289629" lon="13.8489615"><ele>874.6666666666666</ele><time>2026-05-02T09:26:26.319Z</time></trkpt><trkpt lat="42.2291491" lon="13.8491133"><ele>878.3333333333333</ele><time>2026-05-02T09:26:28.316Z</time></trkpt><trkpt lat="42.2293479" lon="13.8492713"><ele>882.0</ele><time>2026-05-02T09:26:30.317Z</time></trkpt><trkpt lat="42.2294889" lon="13.8493964"><ele>882.0</ele><time>2026-05-02T09:26:32.316Z</time></trkpt><trkpt lat="42.22961" lon="13.8493778"><ele>882.0</ele><time>2026-05-02T09:26:34.314Z</time></trkpt><trkpt lat="42.2297723" lon="13.8492699"><ele>882.0</ele><time>2026-05-02T09:26:36.318Z</time></trkpt><trkpt lat="42.2299727" lon="13.8491408"><ele>884.0</ele><time>2026-05-02T09:26:38.315Z</time></trkpt><trkpt lat="42.2301772" lon="13.8490284"><ele>886.0</ele><time>2026-05-02T09:26:40.314Z</time></trkpt><trkpt lat="42.2304312" lon="13.8489311"><ele>886.0</ele><time>2026-05-02T09:26:42.314Z</time></trkpt><trkpt lat="42.2306762" lon="13.8488182"><ele>886.0</ele><time>2026-05-02T09:26:44.309Z</time></trkpt><trkpt lat="42.2309335" lon="13.8487086"><ele>886.0</ele><time>2026-05-02T09:26:46.31Z</time></trkpt><trkpt lat="42.2311829" lon="13.8485832"><ele>886.0</ele><time>2026-05-02T09:26:48.313Z</time></trkpt><trkpt lat="42.2314161" lon="13.8484497"><ele>892.6666666666666</ele><time>2026-05-02T09:26:50.312Z</time></trkpt><trkpt lat="42.2316325" lon="13.8483882"><ele>899.3333333333333</ele><time>2026-05-02T09:26:52.316Z</time></trkpt><trkpt lat="42.2318556" lon="13.8483602"><ele>906.0</ele><time>2026-05-02T09:26:54.326Z</time></trkpt><trkpt lat="42.2320541" lon="13.8483229"><ele>906.0</ele><time>2026-05-02T09:26:56.312Z</time></trkpt><trkpt lat="42.2321871" lon="13.8482259"><ele>906.0</ele><time>2026-05-02T09:26:58.311Z</time></trkpt><trkpt lat="42.2322608" lon="13.8480851"><ele>906.0</ele><time>2026-05-02T09:27:00.325Z</time></trkpt><trkpt lat="42.2323854" lon="13.8480118"><ele>906.0</ele><time>2026-05-02T09:27:02.328Z</time></trkpt><trkpt lat="42.2325403" lon="13.8480199"><ele>906.0</ele><time>2026-05-02T09:27:04.321Z</time></trkpt><trkpt lat="42.2325015" lon="13.8478954"><ele>906.0</ele><time>2026-05-02T09:27:18.327Z</time></trkpt><trkpt lat="42.232406" lon="13.847804"><ele>906.0</ele><time>2026-05-02T09:28:26.336Z</time></trkpt><trkpt lat="42.2322779" lon="13.8477155"><ele>906.0</ele><time>2026-05-02T09:28:28.332Z</time></trkpt><trkpt lat="42.232143" lon="13.8476172"><ele>912.25</ele><time>2026-05-02T09:28:30.327Z</time></trkpt><trkpt lat="42.2320048" lon="13.8475014"><ele>918.5</ele><time>2026-05-02T09:28:32.322Z</time></trkpt><trkpt lat="42.23188" lon="13.8473976"><ele>924.75</ele><time>2026-05-02T09:28:34.318Z</time></trkpt><trkpt lat="42.2317743" lon="13.8473205"><ele>931.0</ele><time>2026-05-02T09:28:36.308Z</time></trkpt><trkpt lat="42.2316306" lon="13.847265"><ele>931.0</ele><time>2026-05-02T09:28:38.325Z</time></trkpt><trkpt lat="42.2314827" lon="13.8472709"><ele>931.0</ele><time>2026-05-02T09:28:40.312Z</time></trkpt><trkpt lat="42.231328" lon="13.8472148"><ele>931.0</ele><time>2026-05-02T09:28:42.316Z</time></trkpt><trkpt lat="42.2311881" lon="13.8470977"><ele>931.0</ele><time>2026-05-02T09:28:44.316Z</time></trkpt><trkpt lat="42.231055" lon="13.8469726"><ele>931.0</ele><time>2026-05-02T09:28:46.318Z</time></trkpt><trkpt lat="42.2309112" lon="13.8469027"><ele>931.0</ele><time>2026-05-02T09:28:48.311Z</time></trkpt><trkpt lat="42.2307621" lon="13.8469597"><ele>931.5999999999999</ele><time>2026-05-02T09:28:50.304Z</time></trkpt><trkpt lat="42.2306271" lon="13.8470301"><ele>932.1999999999999</ele><time>2026-05-02T09:28:52.31Z</time></trkpt><trkpt lat="42.2305402" lon="13.8470754"><ele>932.8000000000001</ele><time>2026-05-02T09:28:54.306Z</time></trkpt><trkpt lat="42.2304752" lon="13.8470941"><ele>933.4000000000001</ele><time>2026-05-02T09:28:56.315Z</time></trkpt><trkpt lat="42.2303763" lon="13.847103"><ele>934.0</ele><time>2026-05-02T09:29:26.326Z</time></trkpt><trkpt lat="42.2302695" lon="13.8471399"><ele>934.0</ele><time>2026-05-02T09:29:28.323Z</time></trkpt><trkpt lat="42.2300924" lon="13.8472219"><ele>934.0</ele><time>2026-05-02T09:29:30.325Z</time></trkpt><trkpt lat="42.2299368" lon="13.8472857"><ele>934.0</ele><time>2026-05-02T09:29:32.318Z</time></trkpt><trkpt lat="42.229773" lon="13.8473535"><ele>936.0</ele><time>2026-05-02T09:29:34.318Z</time></trkpt><trkpt lat="42.2296107" lon="13.8474246"><ele>938.0</ele><time>2026-05-02T09:29:36.328Z</time></trkpt><trkpt lat="42.2294284" lon="13.8475004"><ele>940.0</ele><time>2026-05-02T09:29:38.323Z</time></trkpt><trkpt lat="42.2292125" lon="13.8475766"><ele>940.0</ele><time>2026-05-02T09:29:40.348Z</time></trkpt><trkpt lat="42.2289776" lon="13.8476257"><ele>940.0</ele><time>2026-05-02T09:29:42.405Z</time></trkpt><trkpt lat="42.2287438" lon="13.8476843"><ele>928.6666666666666</ele><time>2026-05-02T09:29:44.41Z</time></trkpt><trkpt lat="42.2285377" lon="13.8477453"><ele>917.3333333333333</ele><time>2026-05-02T09:29:46.409Z</time></trkpt><trkpt lat="42.2283287" lon="13.8477803"><ele>906.0</ele><time>2026-05-02T09:29:48.41Z</time></trkpt><trkpt lat="42.228095" lon="13.8478128"><ele>904.0</ele><time>2026-05-02T09:29:50.407Z</time></trkpt><trkpt lat="42.227874" lon="13.8478112"><ele>902.0</ele><time>2026-05-02T09:29:52.398Z</time></trkpt><trkpt lat="42.2276625" lon="13.8477969"><ele>900.0</ele><time>2026-05-02T09:29:54.405Z</time></trkpt><trkpt lat="42.2274265" lon="13.8477987"><ele>901.5</ele><time>2026-05-02T09:29:56.399Z</time></trkpt><trkpt lat="42.2271786" lon="13.8477823"><ele>903.0</ele><time>2026-05-02T09:29:58.392Z</time></trkpt><trkpt lat="42.2268843" lon="13.847788"><ele>903.0</ele><time>2026-05-02T09:30:00.416Z</time></trkpt><trkpt lat="42.2265941" lon="13.8477911"><ele>903.0</ele><time>2026-05-02T09:30:02.405Z</time></trkpt><trkpt lat="42.2263143" lon="13.8478001"><ele>904.0</ele><time>2026-05-02T09:30:04.405Z</time></trkpt><trkpt lat="42.2260424" lon="13.8478126"><ele>905.0</ele><time>2026-05-02T09:30:06.408Z</time></trkpt><trkpt lat="42.2257868" lon="13.8478239"><ele>898.5</ele><time>2026-05-02T09:30:08.42Z</time></trkpt><trkpt lat="42.2255648" lon="13.8477823"><ele>892.0</ele><time>2026-05-02T09:30:10.409Z</time></trkpt><trkpt lat="42.2253535" lon="13.847667"><ele>906.0</ele><time>2026-05-02T09:30:12.394Z</time></trkpt><trkpt lat="42.2251289" lon="13.8475466"><ele>920.0</ele><time>2026-05-02T09:30:14.396Z</time></trkpt><trkpt lat="42.2248985" lon="13.8474457"><ele>913.6666666666667</ele><time>2026-05-02T09:30:16.42Z</time></trkpt><trkpt lat="42.2247167" lon="13.8473444"><ele>907.3333333333333</ele><time>2026-05-02T09:30:18.421Z</time></trkpt><trkpt lat="42.2246268" lon="13.8472258"><ele>901.0</ele><time>2026-05-02T09:30:20.398Z</time></trkpt><trkpt lat="42.2246135" lon="13.8470383"><ele>907.3333333333333</ele><time>2026-05-02T09:30:22.391Z</time></trkpt><trkpt lat="42.2246383" lon="13.8467799"><ele>913.6666666666667</ele><time>2026-05-02T09:30:24.404Z</time></trkpt><trkpt lat="42.2247482" lon="13.8465572"><ele>920.0</ele><time>2026-05-02T09:30:26.382Z</time></trkpt><trkpt lat="42.2249106" lon="13.8463299"><ele>928.5</ele><time>2026-05-02T09:30:28.384Z</time></trkpt><trkpt lat="42.2250959" lon="13.846109"><ele>937.0</ele><time>2026-05-02T09:30:30.4Z</time></trkpt><trkpt lat="42.2253078" lon="13.8459357"><ele>942.5</ele><time>2026-05-02T09:30:32.394Z</time></trkpt><trkpt lat="42.2255687" lon="13.8457726"><ele>948.0</ele><time>2026-05-02T09:30:34.293Z</time></trkpt><trkpt lat="42.2258192" lon="13.8456179"><ele>949.0</ele><time>2026-05-02T09:30:36.289Z</time></trkpt><trkpt lat="42.2260704" lon="13.8454267"><ele>950.0</ele><time>2026-05-02T09:30:38.313Z</time></trkpt><trkpt lat="42.2263043" lon="13.8451742"><ele>957.0</ele><time>2026-05-02T09:30:40.308Z</time></trkpt><trkpt lat="42.226541" lon="13.8449217"><ele>964.0</ele><time>2026-05-02T09:30:42.321Z</time></trkpt><trkpt lat="42.2267969" lon="13.8446827"><ele>964.0</ele><time>2026-05-02T09:30:44.313Z</time></trkpt><trkpt lat="42.2270647" lon="13.844479"><ele>964.0</ele><time>2026-05-02T09:30:46.313Z</time></trkpt><trkpt lat="42.2272948" lon="13.8442968"><ele>969.0</ele><time>2026-05-02T09:30:48.317Z</time></trkpt><trkpt lat="42.2274721" lon="13.8441441"><ele>974.0</ele><time>2026-05-02T09:30:50.311Z</time></trkpt><trkpt lat="42.2276023" lon="13.8440382"><ele>979.0</ele><time>2026-05-02T09:30:52.311Z</time></trkpt><trkpt lat="42.227646" lon="13.8439284"><ele>979.0</ele><time>2026-05-02T09:30:54.307Z</time></trkpt><trkpt lat="42.227638" lon="13.8438149"><ele>979.0</ele><time>2026-05-02T09:30:56.312Z</time></trkpt><trkpt lat="42.2275662" lon="13.8437575"><ele>979.0</ele><time>2026-05-02T09:30:58.322Z</time></trkpt><trkpt lat="42.2274334" lon="13.8437371"><ele>979.0</ele><time>2026-05-02T09:31:00.319Z</time></trkpt><trkpt lat="42.2272786" lon="13.8437935"><ele>981.0</ele><time>2026-05-02T09:31:02.32Z</time></trkpt><trkpt lat="42.2270836" lon="13.8438285"><ele>983.0</ele><time>2026-05-02T09:31:04.313Z</time></trkpt><trkpt lat="42.2268954" lon="13.84382"><ele>985.0</ele><time>2026-05-02T09:31:06.317Z</time></trkpt><trkpt lat="42.2267505" lon="13.8438125"><ele>985.0</ele><time>2026-05-02T09:31:08.311Z</time></trkpt><trkpt lat="42.226661" lon="13.8437872"><ele>985.0</ele><time>2026-05-02T09:31:10.312Z</time></trkpt><trkpt lat="42.226522" lon="13.8438599"><ele>985.0</ele><time>2026-05-02T09:31:14.323Z</time></trkpt><trkpt lat="42.2263804" lon="13.8439345"><ele>985.0</ele><time>2026-05-02T09:31:16.319Z</time></trkpt><trkpt lat="42.2261837" lon="13.8440338"><ele>987.5</ele><time>2026-05-02T09:31:18.316Z</time></trkpt><trkpt lat="42.2259672" lon="13.8441435"><ele>990.0</ele><time>2026-05-02T09:31:20.31Z</time></trkpt><trkpt lat="42.2257427" lon="13.8442299"><ele>984.0</ele><time>2026-05-02T09:31:22.315Z</time></trkpt><trkpt lat="42.2255513" lon="13.84431"><ele>978.0</ele><time>2026-05-02T09:31:24.311Z</time></trkpt><trkpt lat="42.225398" lon="13.8444175"><ele>972.0</ele><time>2026-05-02T09:31:26.32Z</time></trkpt><trkpt lat="42.2252424" lon="13.8445243"><ele>972.0</ele><time>2026-05-02T09:31:28.321Z</time></trkpt><trkpt lat="42.2250242" lon="13.8445711"><ele>972.0</ele><time>2026-05-02T09:31:30.319Z</time></trkpt><trkpt lat="42.2248193" lon="13.8445821"><ele>972.0</ele><time>2026-05-02T09:31:32.314Z</time></trkpt><trkpt lat="42.2246575" lon="13.8445667"><ele>968.3333333333333</ele><time>2026-05-02T09:31:34.324Z</time></trkpt><trkpt lat="42.224584" lon="13.844424"><ele>964.6666666666666</ele><time>2026-05-02T09:31:36.32Z</time></trkpt><trkpt lat="42.2246072" lon="13.8442436"><ele>961.0</ele><time>2026-05-02T09:31:38.324Z</time></trkpt><trkpt lat="42.2246859" lon="13.8439983"><ele>958.5</ele><time>2026-05-02T09:31:40.323Z</time></trkpt><trkpt lat="42.2248079" lon="13.8436826"><ele>956.0</ele><time>2026-05-02T09:31:42.31Z</time></trkpt><trkpt lat="42.2249025" lon="13.8433844"><ele>961.0</ele><time>2026-05-02T09:31:44.322Z</time></trkpt><trkpt lat="42.2250386" lon="13.8431354"><ele>966.0</ele><time>2026-05-02T09:31:46.314Z</time></trkpt><trkpt lat="42.2252007" lon="13.8429469"><ele>971.0</ele><time>2026-05-02T09:31:48.313Z</time></trkpt><trkpt lat="42.2253651" lon="13.8427613"><ele>970.0</ele><time>2026-05-02T09:31:50.312Z</time></trkpt><trkpt lat="42.2255132" lon="13.8425473"><ele>969.0</ele><time>2026-05-02T09:31:52.306Z</time></trkpt><trkpt lat="42.2256361" lon="13.8423478"><ele>968.0</ele><time>2026-05-02T09:31:54.297Z</time></trkpt><trkpt lat="42.2257851" lon="13.8421972"><ele>968.0</ele><time>2026-05-02T09:31:56.299Z</time></trkpt><trkpt lat="42.2259529" lon="13.8420848"><ele>968.0</ele><time>2026-05-02T09:31:58.295Z</time></trkpt><trkpt lat="42.2261065" lon="13.8420196"><ele>968.0</ele><time>2026-05-02T09:32:00.293Z</time></trkpt><trkpt lat="42.2262454" lon="13.842013"><ele>968.0</ele><time>2026-05-02T09:32:02.295Z</time></trkpt><trkpt lat="42.226389" lon="13.8420503"><ele>968.0</ele><time>2026-05-02T09:32:04.305Z</time></trkpt><trkpt lat="42.2265471" lon="13.8420528"><ele>968.0</ele><time>2026-05-02T09:32:06.299Z</time></trkpt><trkpt lat="42.2267296" lon="13.8420004"><ele>969.3333333333334</ele><time>2026-05-02T09:32:08.296Z</time></trkpt><trkpt lat="42.2269154" lon="13.8419869"><ele>970.6666666666667</ele><time>2026-05-02T09:32:10.292Z</time></trkpt><trkpt lat="42.2271262" lon="13.8419932"><ele>972.0</ele><time>2026-05-02T09:32:12.302Z</time></trkpt><trkpt lat="42.2273358" lon="13.8419823"><ele>968.0</ele><time>2026-05-02T09:32:14.298Z</time></trkpt><trkpt lat="42.2275548" lon="13.8419469"><ele>964.0</ele><time>2026-05-02T09:32:16.299Z</time></trkpt><trkpt lat="42.2277858" lon="13.8419255"><ele>964.0</ele><time>2026-05-02T09:32:18.299Z</time></trkpt><trkpt lat="42.2280018" lon="13.8418803"><ele>964.0</ele><time>2026-05-02T09:32:20.299Z</time></trkpt><trkpt lat="42.2282225" lon="13.8417985"><ele>964.0</ele><time>2026-05-02T09:32:22.284Z</time></trkpt><trkpt lat="42.228411" lon="13.8417196"><ele>953.3333333333333</ele><time>2026-05-02T09:32:24.293Z</time></trkpt><trkpt lat="42.2285677" lon="13.8416046"><ele>942.6666666666667</ele><time>2026-05-02T09:32:26.294Z</time></trkpt><trkpt lat="42.2286878" lon="13.8414227"><ele>932.0</ele><time>2026-05-02T09:32:28.292Z</time></trkpt><trkpt lat="42.2287923" lon="13.8411794"><ele>934.5</ele><time>2026-05-02T09:32:30.297Z</time></trkpt><trkpt lat="42.2289052" lon="13.8408806"><ele>937.0</ele><time>2026-05-02T09:32:32.295Z</time></trkpt><trkpt lat="42.2290057" lon="13.8405328"><ele>937.0</ele><time>2026-05-02T09:32:34.294Z</time></trkpt><trkpt lat="42.2291016" lon="13.8401995"><ele>937.0</ele><time>2026-05-02T09:32:36.293Z</time></trkpt><trkpt lat="42.2292193" lon="13.8399134"><ele>925.5</ele><time>2026-05-02T09:32:38.292Z</time></trkpt><trkpt lat="42.2293455" lon="13.839596"><ele>914.0</ele><time>2026-05-02T09:32:40.293Z</time></trkpt><trkpt lat="42.2294965" lon="13.8393371"><ele>922.0</ele><time>2026-05-02T09:32:42.3Z</time></trkpt><trkpt lat="42.2296902" lon="13.839087"><ele>930.0</ele><time>2026-05-02T09:32:44.294Z</time></trkpt><trkpt lat="42.229879" lon="13.8387694"><ele>913.0</ele><time>2026-05-02T09:32:46.304Z</time></trkpt><trkpt lat="42.2300517" lon="13.838466"><ele>896.0</ele><time>2026-05-02T09:32:48.297Z</time></trkpt><trkpt lat="42.2301971" lon="13.8381539"><ele>896.0</ele><time>2026-05-02T09:32:50.292Z</time></trkpt><trkpt lat="42.2303348" lon="13.8378962"><ele>896.0</ele><time>2026-05-02T09:32:52.298Z</time></trkpt><trkpt lat="42.2305134" lon="13.8377307"><ele>894.0</ele><time>2026-05-02T09:32:54.321Z</time></trkpt><trkpt lat="42.230697" lon="13.8375814"><ele>892.0</ele><time>2026-05-02T09:32:56.385Z</time></trkpt><trkpt lat="42.2308694" lon="13.8374642"><ele>890.0</ele><time>2026-05-02T09:32:58.39Z</time></trkpt><trkpt lat="42.2310432" lon="13.8373613"><ele>890.0</ele><time>2026-05-02T09:33:00.389Z</time></trkpt><trkpt lat="42.2312827" lon="13.8372819"><ele>890.0</ele><time>2026-05-02T09:33:02.364Z</time></trkpt><trkpt lat="42.2315756" lon="13.8372066"><ele>895.0</ele><time>2026-05-02T09:33:04.367Z</time></trkpt><trkpt lat="42.2318881" lon="13.8371361"><ele>900.0</ele><time>2026-05-02T09:33:06.393Z</time></trkpt><trkpt lat="42.2321547" lon="13.8371197"><ele>896.0</ele><time>2026-05-02T09:33:08.383Z</time></trkpt><trkpt lat="42.2323894" lon="13.8371518"><ele>892.0</ele><time>2026-05-02T09:33:10.378Z</time></trkpt><trkpt lat="42.2325291" lon="13.8371658"><ele>888.0</ele><time>2026-05-02T09:33:12.373Z</time></trkpt><trkpt lat="42.2325297" lon="13.8370508"><ele>888.0</ele><time>2026-05-02T09:33:14.277Z</time></trkpt><trkpt lat="42.2324169" lon="13.8370004"><ele>888.0</ele><time>2026-05-02T09:33:16.298Z</time></trkpt><trkpt lat="42.2322039" lon="13.8369398"><ele>888.0</ele><time>2026-05-02T09:33:18.301Z</time></trkpt><trkpt lat="42.2319323" lon="13.8368354"><ele>875.0</ele><time>2026-05-02T09:33:20.298Z</time></trkpt><trkpt lat="42.2316057" lon="13.8367132"><ele>862.0</ele><time>2026-05-02T09:33:22.306Z</time></trkpt><trkpt lat="42.2313042" lon="13.8366398"><ele>857.5</ele><time>2026-05-02T09:33:24.295Z</time></trkpt><trkpt lat="42.2310221" lon="13.8365889"><ele>853.0</ele><time>2026-05-02T09:33:26.293Z</time></trkpt><trkpt lat="42.230758" lon="13.8366157"><ele>858.0</ele><time>2026-05-02T09:33:28.296Z</time></trkpt><trkpt lat="42.2304727" lon="13.8367451"><ele>863.0</ele><time>2026-05-02T09:33:30.301Z</time></trkpt><trkpt lat="42.2301666" lon="13.8369279"><ele>863.0</ele><time>2026-05-02T09:33:32.305Z</time></trkpt><trkpt lat="42.2298763" lon="13.8371189"><ele>863.0</ele><time>2026-05-02T09:33:34.298Z</time></trkpt><trkpt lat="42.229591" lon="13.8372853"><ele>850.5</ele><time>2026-05-02T09:33:36.304Z</time></trkpt><trkpt lat="42.2293391" lon="13.8374152"><ele>838.0</ele><time>2026-05-02T09:33:38.301Z</time></trkpt><trkpt lat="42.2290971" lon="13.8375248"><ele>843.3333333333333</ele><time>2026-05-02T09:33:40.293Z</time></trkpt><trkpt lat="42.2288694" lon="13.8376524"><ele>848.6666666666667</ele><time>2026-05-02T09:33:42.288Z</time></trkpt><trkpt lat="42.2286922" lon="13.8377638"><ele>854.0</ele><time>2026-05-02T09:33:44.295Z</time></trkpt><trkpt lat="42.2285663" lon="13.8378379"><ele>854.0</ele><time>2026-05-02T09:33:46.289Z</time></trkpt><trkpt lat="42.2284812" lon="13.8378613"><ele>854.0</ele><time>2026-05-02T09:33:48.321Z</time></trkpt><trkpt lat="42.2285113" lon="13.8377513"><ele>854.0</ele><time>2026-05-02T09:33:50.302Z</time></trkpt><trkpt lat="42.2286507" lon="13.8376378"><ele>854.0</ele><time>2026-05-02T09:33:52.301Z</time></trkpt><trkpt lat="42.2288556" lon="13.8374529"><ele>846.0</ele><time>2026-05-02T09:33:54.291Z</time></trkpt><trkpt lat="42.2290708" lon="13.837227"><ele>838.0</ele><time>2026-05-02T09:33:56.296Z</time></trkpt><trkpt lat="42.2292492" lon="13.8370456"><ele>838.0</ele><time>2026-05-02T09:33:58.299Z</time></trkpt><trkpt lat="42.2294487" lon="13.8368899"><ele>838.0</ele><time>2026-05-02T09:34:00.299Z</time></trkpt><trkpt lat="42.2296654" lon="13.8366875"><ele>834.0</ele><time>2026-05-02T09:34:02.293Z</time></trkpt><trkpt lat="42.229889" lon="13.8364208"><ele>830.0</ele><time>2026-05-02T09:34:04.294Z</time></trkpt><trkpt lat="42.2301286" lon="13.8361366"><ele>815.0</ele><time>2026-05-02T09:34:06.294Z</time></trkpt><trkpt lat="42.2303528" lon="13.8359062"><ele>800.0</ele><time>2026-05-02T09:34:08.303Z</time></trkpt><trkpt lat="42.2305692" lon="13.8356667"><ele>810.5</ele><time>2026-05-02T09:34:10.298Z</time></trkpt><trkpt lat="42.2307879" lon="13.8354611"><ele>821.0</ele><time>2026-05-02T09:34:12.294Z</time></trkpt><trkpt lat="42.2310326" lon="13.8353283"><ele>821.0</ele><time>2026-05-02T09:34:14.297Z</time></trkpt><trkpt lat="42.2312783" lon="13.8352484"><ele>821.0</ele><time>2026-05-02T09:34:16.3Z</time></trkpt><trkpt lat="42.2315625" lon="13.835202"><ele>824.3333333333334</ele><time>2026-05-02T09:34:18.305Z</time></trkpt><trkpt lat="42.2318003" lon="13.8351604"><ele>827.6666666666667</ele><time>2026-05-02T09:34:20.295Z</time></trkpt><trkpt lat="42.2319389" lon="13.8351282"><ele>831.0</ele><time>2026-05-02T09:34:22.291Z</time></trkpt><trkpt lat="42.2319679" lon="13.8350374"><ele>821.6666666666667</ele><time>2026-05-02T09:34:24.303Z</time></trkpt><trkpt lat="42.2318483" lon="13.8349556"><ele>812.3333333333334</ele><time>2026-05-02T09:34:26.301Z</time></trkpt><trkpt lat="42.2316434" lon="13.8349799"><ele>803.0</ele><time>2026-05-02T09:34:28.301Z</time></trkpt><trkpt lat="42.2314295" lon="13.8349598"><ele>799.3333333333334</ele><time>2026-05-02T09:34:30.303Z</time></trkpt><trkpt lat="42.231229" lon="13.8349101"><ele>795.6666666666667</ele><time>2026-05-02T09:34:32.299Z</time></trkpt><trkpt lat="42.2309919" lon="13.834846"><ele>792.0</ele><time>2026-05-02T09:34:34.295Z</time></trkpt><trkpt lat="42.230729" lon="13.8348871"><ele>785.5</ele><time>2026-05-02T09:34:36.298Z</time></trkpt><trkpt lat="42.2304291" lon="13.8349895"><ele>779.0</ele><time>2026-05-02T09:34:38.302Z</time></trkpt><trkpt lat="42.2301236" lon="13.8350684"><ele>779.5</ele><time>2026-05-02T09:34:40.301Z</time></trkpt><trkpt lat="42.2298513" lon="13.8352042"><ele>780.0</ele><time>2026-05-02T09:34:42.307Z</time></trkpt><trkpt lat="42.2295991" lon="13.8353184"><ele>780.0</ele><time>2026-05-02T09:34:44.305Z</time></trkpt><trkpt lat="42.2293717" lon="13.8354316"><ele>780.0</ele><time>2026-05-02T09:34:46.308Z</time></trkpt><trkpt lat="42.2291375" lon="13.835554"><ele>774.5</ele><time>2026-05-02T09:34:48.302Z</time></trkpt><trkpt lat="42.2289139" lon="13.8357377"><ele>769.0</ele><time>2026-05-02T09:34:50.304Z</time></trkpt><trkpt lat="42.2286742" lon="13.8358893"><ele>779.6666666666666</ele><time>2026-05-02T09:34:52.301Z</time></trkpt><trkpt lat="42.2284728" lon="13.8359937"><ele>790.3333333333333</ele><time>2026-05-02T09:34:54.292Z</time></trkpt><trkpt lat="42.2283286" lon="13.8360528"><ele>801.0</ele><time>2026-05-02T09:34:56.295Z</time></trkpt><trkpt lat="42.2281903" lon="13.83605"><ele>787.0</ele><time>2026-05-02T09:34:58.298Z</time></trkpt><trkpt lat="42.227997" lon="13.835915"><ele>773.0</ele><time>2026-05-02T09:35:00.295Z</time></trkpt><trkpt lat="42.2277544" lon="13.8357254"><ele>773.0</ele><time>2026-05-02T09:35:02.304Z</time></trkpt><trkpt lat="42.2275179" lon="13.8355637"><ele>773.0</ele><time>2026-05-02T09:35:04.382Z</time></trkpt><trkpt lat="42.2272872" lon="13.8354206"><ele>771.3333333333334</ele><time>2026-05-02T09:35:06.38Z</time></trkpt><trkpt lat="42.2270949" lon="13.835335"><ele>769.6666666666667</ele><time>2026-05-02T09:35:08.388Z</time></trkpt><trkpt lat="42.2269398" lon="13.83531"><ele>768.0</ele><time>2026-05-02T09:35:10.403Z</time></trkpt><trkpt lat="42.2267745" lon="13.8353365"><ele>768.0</ele><time>2026-05-02T09:35:12.369Z</time></trkpt><trkpt lat="42.2265751" lon="13.835391"><ele>768.0</ele><time>2026-05-02T09:35:14.371Z</time></trkpt><trkpt lat="42.2263846" lon="13.8354782"><ele>768.0</ele><time>2026-05-02T09:35:16.387Z</time></trkpt><trkpt lat="42.2262042" lon="13.8355551"><ele>762.0</ele><time>2026-05-02T09:35:18.386Z</time></trkpt><trkpt lat="42.2259959" lon="13.8356325"><ele>756.0</ele><time>2026-05-02T09:35:20.397Z</time></trkpt><trkpt lat="42.2257801" lon="13.8357466"><ele>750.0</ele><time>2026-05-02T09:35:22.377Z</time></trkpt><trkpt lat="42.2255377" lon="13.8358901"><ele>746.0</ele><time>2026-05-02T09:35:24.374Z</time></trkpt><trkpt lat="42.2253168" lon="13.8360641"><ele>742.0</ele><time>2026-05-02T09:35:26.391Z</time></trkpt><trkpt lat="42.2250988" lon="13.8362692"><ele>742.0</ele><time>2026-05-02T09:35:28.377Z</time></trkpt><trkpt lat="42.2248603" lon="13.8364625"><ele>742.0</ele><time>2026-05-02T09:35:30.379Z</time></trkpt><trkpt lat="42.2246681" lon="13.8366491"><ele>733.0</ele><time>2026-05-02T09:35:32.388Z</time></trkpt><trkpt lat="42.2245257" lon="13.8368819"><ele>724.0</ele><time>2026-05-02T09:35:34.391Z</time></trkpt><trkpt lat="42.2243861" lon="13.837133"><ele>724.0</ele><time>2026-05-02T09:35:36.368Z</time></trkpt><trkpt lat="42.2242338" lon="13.8373703"><ele>724.0</ele><time>2026-05-02T09:35:38.371Z</time></trkpt><trkpt lat="42.2240856" lon="13.8376289"><ele>715.5</ele><time>2026-05-02T09:35:40.39Z</time></trkpt><trkpt lat="42.2239446" lon="13.8379182"><ele>707.0</ele><time>2026-05-02T09:35:42.371Z</time></trkpt><trkpt lat="42.2238029" lon="13.8381408"><ele>707.0</ele><time>2026-05-02T09:35:44.371Z</time></trkpt><trkpt lat="42.2236402" lon="13.8383149"><ele>707.0</ele><time>2026-05-02T09:35:46.387Z</time></trkpt><trkpt lat="42.2234383" lon="13.8384619"><ele>707.0</ele><time>2026-05-02T09:35:48.392Z</time></trkpt><trkpt lat="42.223213" lon="13.8385784"><ele>708.5</ele><time>2026-05-02T09:35:50.39Z</time></trkpt><trkpt lat="42.222944" lon="13.8386883"><ele>710.0</ele><time>2026-05-02T09:35:52.392Z</time></trkpt><trkpt lat="42.2226692" lon="13.838792"><ele>710.0</ele><time>2026-05-02T09:35:54.387Z</time></trkpt><trkpt lat="42.2224342" lon="13.8389151"><ele>710.0</ele><time>2026-05-02T09:35:56.389Z</time></trkpt><trkpt lat="42.2222393" lon="13.8390854"><ele>708.0</ele><time>2026-05-02T09:35:58.371Z</time></trkpt><trkpt lat="42.222117" lon="13.8392459"><ele>706.0</ele><time>2026-05-02T09:36:00.374Z</time></trkpt><trkpt lat="42.2220213" lon="13.8393357"><ele>704.0</ele><time>2026-05-02T09:36:02.296Z</time></trkpt><trkpt lat="42.2219391" lon="13.8392427"><ele>702.0</ele><time>2026-05-02T09:36:04.305Z</time></trkpt><trkpt lat="42.2219845" lon="13.8390177"><ele>693.5</ele><time>2026-05-02T09:36:06.301Z</time></trkpt><trkpt lat="42.2221004" lon="13.8387811"><ele>685.0</ele><time>2026-05-02T09:36:08.301Z</time></trkpt><trkpt lat="42.2222196" lon="13.8384853"><ele>689.5</ele><time>2026-05-02T09:36:10.303Z</time></trkpt><trkpt lat="42.2223559" lon="13.8382535"><ele>694.0</ele><time>2026-05-02T09:36:12.3Z</time></trkpt><trkpt lat="42.2225402" lon="13.8380142"><ele>694.0</ele><time>2026-05-02T09:36:14.298Z</time></trkpt><trkpt lat="42.2227343" lon="13.8377755"><ele>694.0</ele><time>2026-05-02T09:36:16.306Z</time></trkpt><trkpt lat="42.2228986" lon="13.837551"><ele>682.0</ele><time>2026-05-02T09:36:18.298Z</time></trkpt><trkpt lat="42.2229933" lon="13.8373033"><ele>670.0</ele><time>2026-05-02T09:36:20.297Z</time></trkpt><trkpt lat="42.2230577" lon="13.8369786"><ele>664.0</ele><time>2026-05-02T09:36:22.313Z</time></trkpt><trkpt lat="42.2230784" lon="13.8366654"><ele>658.0</ele><time>2026-05-02T09:36:24.301Z</time></trkpt><trkpt lat="42.2230772" lon="13.836367"><ele>658.0</ele><time>2026-05-02T09:36:26.297Z</time></trkpt><trkpt lat="42.2230665" lon="13.836113"><ele>658.0</ele><time>2026-05-02T09:36:28.295Z</time></trkpt><trkpt lat="42.2230523" lon="13.8359673"><ele>658.0</ele><time>2026-05-02T09:36:30.303Z</time></trkpt><trkpt lat="42.2229386" lon="13.8359756"><ele>658.0</ele><time>2026-05-02T09:36:32.305Z</time></trkpt><trkpt lat="42.2228078" lon="13.8362033"><ele>658.0</ele><time>2026-05-02T09:36:34.292Z</time></trkpt><trkpt lat="42.2226821" lon="13.836509"><ele>658.0</ele><time>2026-05-02T09:36:36.299Z</time></trkpt><trkpt lat="42.2225536" lon="13.8367351"><ele>657.6666666666667</ele><time>2026-05-02T09:36:38.302Z</time></trkpt><trkpt lat="42.2223914" lon="13.8368824"><ele>657.3333333333334</ele><time>2026-05-02T09:36:40.302Z</time></trkpt><trkpt lat="42.2221789" lon="13.8369923"><ele>657.0</ele><time>2026-05-02T09:36:42.313Z</time></trkpt><trkpt lat="42.2219337" lon="13.8371161"><ele>657.0</ele><time>2026-05-02T09:36:44.306Z</time></trkpt><trkpt lat="42.2217109" lon="13.8372467"><ele>657.0</ele><time>2026-05-02T09:36:46.309Z</time></trkpt><trkpt lat="42.2215217" lon="13.8373749"><ele>650.0</ele><time>2026-05-02T09:36:48.301Z</time></trkpt><trkpt lat="42.2213584" lon="13.8374734"><ele>643.0</ele><time>2026-05-02T09:36:50.308Z</time></trkpt><trkpt lat="42.2212462" lon="13.8375369"><ele>636.0</ele><time>2026-05-02T09:36:52.298Z</time></trkpt><trkpt lat="42.221178" lon="13.8374902"><ele>629.0</ele><time>2026-05-02T09:36:54.296Z</time></trkpt><trkpt lat="42.2212252" lon="13.8373231"><ele>629.0</ele><time>2026-05-02T09:36:56.309Z</time></trkpt><trkpt lat="42.2213942" lon="13.8371561"><ele>629.0</ele><time>2026-05-02T09:36:58.301Z</time></trkpt><trkpt lat="42.2215967" lon="13.8369321"><ele>635.0</ele><time>2026-05-02T09:37:00.308Z</time></trkpt><trkpt lat="42.2217901" lon="13.8366672"><ele>641.0</ele><time>2026-05-02T09:37:02.304Z</time></trkpt><trkpt lat="42.2219496" lon="13.8364152"><ele>641.0</ele><time>2026-05-02T09:37:04.302Z</time></trkpt><trkpt lat="42.2220445" lon="13.8361819"><ele>641.0</ele><time>2026-05-02T09:37:06.305Z</time></trkpt><trkpt lat="42.2221153" lon="13.8360616"><ele>641.0</ele><time>2026-05-02T09:37:08.303Z</time></trkpt><trkpt lat="42.2220949" lon="13.8359558"><ele>641.0</ele><time>2026-05-02T09:37:10.302Z</time></trkpt><trkpt lat="42.2219535" lon="13.8359992"><ele>641.0</ele><time>2026-05-02T09:37:12.303Z</time></trkpt><trkpt lat="42.2217786" lon="13.8362126"><ele>641.0</ele><time>2026-05-02T09:37:14.3Z</time></trkpt><trkpt lat="42.2215728" lon="13.8364357"><ele>626.5</ele><time>2026-05-02T09:37:16.305Z</time></trkpt><trkpt lat="42.2213423" lon="13.8366113"><ele>612.0</ele><time>2026-05-02T09:37:18.303Z</time></trkpt><trkpt lat="42.2211142" lon="13.8367907"><ele>620.5</ele><time>2026-05-02T09:37:20.306Z</time></trkpt><trkpt lat="42.220911" lon="13.8369431"><ele>629.0</ele><time>2026-05-02T09:37:22.302Z</time></trkpt><trkpt lat="42.2207313" lon="13.8372089"><ele>607.5</ele><time>2026-05-02T09:37:24.305Z</time></trkpt><trkpt lat="42.2205892" lon="13.8375036"><ele>586.0</ele><time>2026-05-02T09:37:26.296Z</time></trkpt><trkpt lat="42.220456" lon="13.8378041"><ele>586.0</ele><time>2026-05-02T09:37:28.297Z</time></trkpt><trkpt lat="42.2203524" lon="13.8381459"><ele>586.0</ele><time>2026-05-02T09:37:30.309Z</time></trkpt><trkpt lat="42.2202664" lon="13.8384401"><ele>590.3333333333334</ele><time>2026-05-02T09:37:32.306Z</time></trkpt><trkpt lat="42.2202724" lon="13.8386966"><ele>594.6666666666666</ele><time>2026-05-02T09:37:34.3Z</time></trkpt><trkpt lat="42.2202472" lon="13.8389291"><ele>599.0</ele><time>2026-05-02T09:37:36.305Z</time></trkpt><trkpt lat="42.2201515" lon="13.8391048"><ele>610.5</ele><time>2026-05-02T09:37:38.3Z</time></trkpt><trkpt lat="42.2200296" lon="13.8393275"><ele>622.0</ele><time>2026-05-02T09:37:40.298Z</time></trkpt><trkpt lat="42.2198581" lon="13.8395877"><ele>597.5</ele><time>2026-05-02T09:37:42.297Z</time></trkpt><trkpt lat="42.2196783" lon="13.8398133"><ele>573.0</ele><time>2026-05-02T09:37:44.304Z</time></trkpt><trkpt lat="42.219514" lon="13.8400254"><ele>582.6666666666666</ele><time>2026-05-02T09:37:46.297Z</time></trkpt><trkpt lat="42.2193452" lon="13.8402587"><ele>592.3333333333333</ele><time>2026-05-02T09:37:48.297Z</time></trkpt><trkpt lat="42.2192151" lon="13.8404696"><ele>602.0</ele><time>2026-05-02T09:37:50.292Z</time></trkpt><trkpt lat="42.2191279" lon="13.8406078"><ele>602.0</ele><time>2026-05-02T09:37:52.295Z</time></trkpt><trkpt lat="42.2190409" lon="13.8406679"><ele>602.0</ele><time>2026-05-02T09:37:54.292Z</time></trkpt><trkpt lat="42.2189967" lon="13.8405907"><ele>602.0</ele><time>2026-05-02T09:37:56.298Z</time></trkpt><trkpt lat="42.2190646" lon="13.8403928"><ele>602.0</ele><time>2026-05-02T09:37:58.297Z</time></trkpt><trkpt lat="42.2192069" lon="13.8401509"><ele>587.5</ele><time>2026-05-02T09:38:00.297Z</time></trkpt><trkpt lat="42.2193377" lon="13.8398002"><ele>573.0</ele><time>2026-05-02T09:38:02.294Z</time></trkpt><trkpt lat="42.219479" lon="13.83944"><ele>563.0</ele><time>2026-05-02T09:38:04.321Z</time></trkpt><trkpt lat="42.2196087" lon="13.8391123"><ele>553.0</ele><time>2026-05-02T09:38:06.381Z</time></trkpt><trkpt lat="42.2197084" lon="13.8388512"><ele>553.0</ele><time>2026-05-02T09:38:08.376Z</time></trkpt><trkpt lat="42.21974" lon="13.8386405"><ele>553.0</ele><time>2026-05-02T09:38:10.373Z</time></trkpt><trkpt lat="42.219713" lon="13.8384313"><ele>553.0</ele><time>2026-05-02T09:38:12.361Z</time></trkpt><trkpt lat="42.2196595" lon="13.8381394"><ele>543.5</ele><time>2026-05-02T09:38:14.283Z</time></trkpt><trkpt lat="42.2196447" lon="13.8378093"><ele>534.0</ele><time>2026-05-02T09:38:16.3Z</time></trkpt><trkpt lat="42.2196432" lon="13.8374571"><ele>529.5</ele><time>2026-05-02T09:38:18.306Z</time></trkpt><trkpt lat="42.2196669" lon="13.8371474"><ele>525.0</ele><time>2026-05-02T09:38:20.305Z</time></trkpt><trkpt lat="42.2197236" lon="13.8368313"><ele>520.3333333333334</ele><time>2026-05-02T09:38:22.31Z</time></trkpt><trkpt lat="42.2197972" lon="13.8365586"><ele>515.6666666666667</ele><time>2026-05-02T09:38:24.311Z</time></trkpt><trkpt lat="42.2199064" lon="13.836292"><ele>511.0</ele><time>2026-05-02T09:38:26.31Z</time></trkpt><trkpt lat="42.2200115" lon="13.8360495"><ele>517.25</ele><time>2026-05-02T09:38:28.299Z</time></trkpt><trkpt lat="42.2201194" lon="13.8358714"><ele>523.5</ele><time>2026-05-02T09:38:30.295Z</time></trkpt><trkpt lat="42.2201476" lon="13.8357839"><ele>529.75</ele><time>2026-05-02T09:38:32.295Z</time></trkpt><trkpt lat="42.2200496" lon="13.8357658"><ele>536.0</ele><time>2026-05-02T09:38:34.302Z</time></trkpt><trkpt lat="42.2199076" lon="13.8359193"><ele>523.5</ele><time>2026-05-02T09:38:36.295Z</time></trkpt><trkpt lat="42.2197379" lon="13.8361648"><ele>511.0</ele><time>2026-05-02T09:38:38.298Z</time></trkpt><trkpt lat="42.2195598" lon="13.8364562"><ele>518.0</ele><time>2026-05-02T09:38:40.303Z</time></trkpt><trkpt lat="42.2193884" lon="13.8368071"><ele>525.0</ele><time>2026-05-02T09:38:42.304Z</time></trkpt><trkpt lat="42.2192261" lon="13.8371656"><ele>525.0</ele><time>2026-05-02T09:38:44.3Z</time></trkpt><trkpt lat="42.219102" lon="13.8374982"><ele>525.0</ele><time>2026-05-02T09:38:46.307Z</time></trkpt><trkpt lat="42.2190166" lon="13.8378262"><ele>528.0</ele><time>2026-05-02T09:38:48.306Z</time></trkpt><trkpt lat="42.218998" lon="13.8381238"><ele>531.0</ele><time>2026-05-02T09:38:50.306Z</time></trkpt><trkpt lat="42.2189625" lon="13.8383812"><ele>534.0</ele><time>2026-05-02T09:38:52.296Z</time></trkpt><trkpt lat="42.2188506" lon="13.8385785"><ele>519.5</ele><time>2026-05-02T09:38:54.296Z</time></trkpt><trkpt lat="42.2186772" lon="13.8387418"><ele>505.0</ele><time>2026-05-02T09:38:56.299Z</time></trkpt><trkpt lat="42.2184779" lon="13.8389492"><ele>505.0</ele><time>2026-05-02T09:38:58.296Z</time></trkpt><trkpt lat="42.2182773" lon="13.8392001"><ele>505.0</ele><time>2026-05-02T09:39:00.302Z</time></trkpt><trkpt lat="42.2180809" lon="13.8394568"><ele>498.0</ele><time>2026-05-02T09:39:02.297Z</time></trkpt><trkpt lat="42.217887" lon="13.8396902"><ele>491.0</ele><time>2026-05-02T09:39:04.295Z</time></trkpt><trkpt lat="42.2177048" lon="13.8398957"><ele>491.0</ele><time>2026-05-02T09:39:06.297Z</time></trkpt><trkpt lat="42.2174979" lon="13.8400921"><ele>491.0</ele><time>2026-05-02T09:39:08.296Z</time></trkpt><trkpt lat="42.21727" lon="13.840317"><ele>485.5</ele><time>2026-05-02T09:39:10.296Z</time></trkpt><trkpt lat="42.2170425" lon="13.8405041"><ele>480.0</ele><time>2026-05-02T09:39:12.297Z</time></trkpt><trkpt lat="42.2168024" lon="13.8406574"><ele>480.0</ele><time>2026-05-02T09:39:14.298Z</time></trkpt><trkpt lat="42.2165992" lon="13.8408018"><ele>480.0</ele><time>2026-05-02T09:39:16.302Z</time></trkpt><trkpt lat="42.2163991" lon="13.8409202"><ele>480.0</ele><time>2026-05-02T09:39:18.302Z</time></trkpt><trkpt lat="42.2162" lon="13.8410521"><ele>475.0</ele><time>2026-05-02T09:39:20.306Z</time></trkpt><trkpt lat="42.2159794" lon="13.8411604"><ele>470.0</ele><time>2026-05-02T09:39:22.31Z</time></trkpt><trkpt lat="42.2157692" lon="13.8412495"><ele>462.66666666666663</ele><time>2026-05-02T09:39:24.312Z</time></trkpt><trkpt lat="42.2155836" lon="13.8412715"><ele>455.33333333333337</ele><time>2026-05-02T09:39:26.303Z</time></trkpt><trkpt lat="42.2154505" lon="13.8412473"><ele>448.0</ele><time>2026-05-02T09:39:28.316Z</time></trkpt><trkpt lat="42.2153324" lon="13.8411047"><ele>445.6666666666667</ele><time>2026-05-02T09:39:30.306Z</time></trkpt><trkpt lat="42.2152407" lon="13.8408313"><ele>443.33333333333337</ele><time>2026-05-02T09:39:32.308Z</time></trkpt><trkpt lat="42.2151508" lon="13.8405645"><ele>441.0</ele><time>2026-05-02T09:39:34.305Z</time></trkpt><trkpt lat="42.2151221" lon="13.8403562"><ele>441.0</ele><time>2026-05-02T09:39:36.307Z</time></trkpt><trkpt lat="42.2152257" lon="13.8401598"><ele>441.0</ele><time>2026-05-02T09:39:38.32Z</time></trkpt><trkpt lat="42.2154405" lon="13.8399889"><ele>441.0</ele><time>2026-05-02T09:39:40.311Z</time></trkpt><trkpt lat="42.2156453" lon="13.8398366"><ele>442.66666666666663</ele><time>2026-05-02T09:39:42.307Z</time></trkpt><trkpt lat="42.2158131" lon="13.8396633"><ele>444.3333333333333</ele><time>2026-05-02T09:39:44.307Z</time></trkpt><trkpt lat="42.2159156" lon="13.8394771"><ele>446.0</ele><time>2026-05-02T09:39:46.306Z</time></trkpt><trkpt lat="42.2160134" lon="13.8392488"><ele>440.0</ele><time>2026-05-02T09:39:48.312Z</time></trkpt><trkpt lat="42.216129" lon="13.8389545"><ele>434.0</ele><time>2026-05-02T09:39:50.311Z</time></trkpt><trkpt lat="42.2162372" lon="13.8386245"><ele>428.5</ele><time>2026-05-02T09:39:52.307Z</time></trkpt><trkpt lat="42.2163367" lon="13.8382954"><ele>423.0</ele><time>2026-05-02T09:39:54.304Z</time></trkpt><trkpt lat="42.2164143" lon="13.8379991"><ele>423.0</ele><time>2026-05-02T09:39:56.307Z</time></trkpt><trkpt lat="42.2164947" lon="13.8376761"><ele>423.0</ele><time>2026-05-02T09:39:58.309Z</time></trkpt><trkpt lat="42.2165737" lon="13.8373207"><ele>423.0</ele><time>2026-05-02T09:40:00.31Z</time></trkpt><trkpt lat="42.2166536" lon="13.8369581"><ele>423.0</ele><time>2026-05-02T09:40:02.309Z</time></trkpt><trkpt lat="42.2167256" lon="13.8366331"><ele>417.0</ele><time>2026-05-02T09:40:04.306Z</time></trkpt><trkpt lat="42.2168624" lon="13.8363114"><ele>411.0</ele><time>2026-05-02T09:40:06.309Z</time></trkpt><trkpt lat="42.2170302" lon="13.835987"><ele>411.0</ele><time>2026-05-02T09:40:08.396Z</time></trkpt><trkpt lat="42.2171814" lon="13.8356859"><ele>411.0</ele><time>2026-05-02T09:40:10.398Z</time></trkpt><trkpt lat="42.2173317" lon="13.8353988"><ele>411.0</ele><time>2026-05-02T09:40:12.393Z</time></trkpt><trkpt lat="42.2174919" lon="13.8351502"><ele>411.0</ele><time>2026-05-02T09:40:14.391Z</time></trkpt><trkpt lat="42.2175584" lon="13.8348917"><ele>411.0</ele><time>2026-05-02T09:40:16.383Z</time></trkpt><trkpt lat="42.2175254" lon="13.8345846"><ele>401.0</ele><time>2026-05-02T09:40:18.374Z</time></trkpt><trkpt lat="42.2174953" lon="13.8342206"><ele>391.0</ele><time>2026-05-02T09:40:20.385Z</time></trkpt><trkpt lat="42.2174506" lon="13.83379"><ele>387.0</ele><time>2026-05-02T09:40:22.41Z</time></trkpt><trkpt lat="42.2174083" lon="13.8333877"><ele>383.0</ele><time>2026-05-02T09:40:24.406Z</time></trkpt><trkpt lat="42.2173961" lon="13.8329942"><ele>379.5</ele><time>2026-05-02T09:40:26.405Z</time></trkpt><trkpt lat="42.2174178" lon="13.8325926"><ele>376.0</ele><time>2026-05-02T09:40:28.389Z</time></trkpt><trkpt lat="42.2174604" lon="13.8321407"><ele>374.0</ele><time>2026-05-02T09:40:30.4Z</time></trkpt><trkpt lat="42.2175081" lon="13.8317012"><ele>372.0</ele><time>2026-05-02T09:40:32.403Z</time></trkpt><trkpt lat="42.2175576" lon="13.8313307"><ele>372.0</ele><time>2026-05-02T09:40:34.39Z</time></trkpt><trkpt lat="42.2176334" lon="13.831009"><ele>372.0</ele><time>2026-05-02T09:40:36.394Z</time></trkpt><trkpt lat="42.2177035" lon="13.830766"><ele>372.0</ele><time>2026-05-02T09:40:38.377Z</time></trkpt><trkpt lat="42.2177682" lon="13.8305777"><ele>371.0</ele><time>2026-05-02T09:40:40.38Z</time></trkpt><trkpt lat="42.2178244" lon="13.8304122"><ele>370.0</ele><time>2026-05-02T09:40:42.397Z</time></trkpt><trkpt lat="42.2178916" lon="13.8302295"><ele>369.0</ele><time>2026-05-02T09:40:44.398Z</time></trkpt><trkpt lat="42.2179811" lon="13.8299608"><ele>366.5</ele><time>2026-05-02T09:40:46.395Z</time></trkpt><trkpt lat="42.2180247" lon="13.8296073"><ele>364.0</ele><time>2026-05-02T09:40:48.379Z</time></trkpt><trkpt lat="42.2180117" lon="13.8291947"><ele>362.5</ele><time>2026-05-02T09:40:50.39Z</time></trkpt><trkpt lat="42.2179771" lon="13.8288001"><ele>361.0</ele><time>2026-05-02T09:40:52.407Z</time></trkpt><trkpt lat="42.2179413" lon="13.8284559"><ele>358.5</ele><time>2026-05-02T09:40:54.408Z</time></trkpt><trkpt lat="42.2179115" lon="13.8281308"><ele>356.0</ele><time>2026-05-02T09:40:56.402Z</time></trkpt><trkpt lat="42.217888" lon="13.8277843"><ele>352.5</ele><time>2026-05-02T09:40:58.404Z</time></trkpt><trkpt lat="42.217871" lon="13.8274676"><ele>349.0</ele><time>2026-05-02T09:41:00.408Z</time></trkpt><trkpt lat="42.2178645" lon="13.8271675"><ele>349.0</ele><time>2026-05-02T09:41:02.404Z</time></trkpt><trkpt lat="42.217853" lon="13.8269189"><ele>349.0</ele><time>2026-05-02T09:41:04.394Z</time></trkpt><trkpt lat="42.2177594" lon="13.8267447"><ele>349.0</ele><time>2026-05-02T09:41:06.376Z</time></trkpt><trkpt lat="42.2176043" lon="13.8266183"><ele>347.25</ele><time>2026-05-02T09:41:08.384Z</time></trkpt><trkpt lat="42.2174707" lon="13.8265351"><ele>345.5</ele><time>2026-05-02T09:41:10.395Z</time></trkpt><trkpt lat="42.2173844" lon="13.8264583"><ele>343.75</ele><time>2026-05-02T09:41:12.392Z</time></trkpt><trkpt lat="42.2173594" lon="13.8263612"><ele>342.0</ele><time>2026-05-02T09:41:14.381Z</time></trkpt><trkpt lat="42.2174141" lon="13.8262111"><ele>342.0</ele><time>2026-05-02T09:41:16.402Z</time></trkpt><trkpt lat="42.217547" lon="13.8260128"><ele>342.0</ele><time>2026-05-02T09:41:18.384Z</time></trkpt><trkpt lat="42.2176759" lon="13.8258135"><ele>342.0</ele><time>2026-05-02T09:41:20.385Z</time></trkpt><trkpt lat="42.2177637" lon="13.8256073"><ele>338.3333333333333</ele><time>2026-05-02T09:41:22.401Z</time></trkpt><trkpt lat="42.2177418" lon="13.825379"><ele>334.66666666666663</ele><time>2026-05-02T09:41:24.379Z</time></trkpt><trkpt lat="42.2176271" lon="13.8252066"><ele>331.0</ele><time>2026-05-02T09:41:26.386Z</time></trkpt><trkpt lat="42.2174678" lon="13.8251482"><ele>328.0</ele><time>2026-05-02T09:41:28.405Z</time></trkpt><trkpt lat="42.2173092" lon="13.8251079"><ele>325.0</ele><time>2026-05-02T09:41:30.384Z</time></trkpt><trkpt lat="42.2171707" lon="13.8250472"><ele>322.0</ele><time>2026-05-02T09:41:32.388Z</time></trkpt><trkpt lat="42.2170603" lon="13.8248906"><ele>322.0</ele><time>2026-05-02T09:41:34.394Z</time></trkpt><trkpt lat="42.2169401" lon="13.8246883"><ele>322.0</ele><time>2026-05-02T09:41:36.301Z</time></trkpt><trkpt lat="42.2168276" lon="13.8244454"><ele>322.0</ele><time>2026-05-02T09:41:38.3Z</time></trkpt><trkpt lat="42.2167098" lon="13.8241747"><ele>320.5</ele><time>2026-05-02T09:41:40.314Z</time></trkpt><trkpt lat="42.2166036" lon="13.8238942"><ele>319.0</ele><time>2026-05-02T09:41:42.318Z</time></trkpt><trkpt lat="42.2164979" lon="13.8236319"><ele>317.0</ele><time>2026-05-02T09:41:44.32Z</time></trkpt><trkpt lat="42.2163947" lon="13.8234077"><ele>315.0</ele><time>2026-05-02T09:41:46.321Z</time></trkpt><trkpt lat="42.2163118" lon="13.8231946"><ele>313.0</ele><time>2026-05-02T09:41:48.323Z</time></trkpt><trkpt lat="42.216219" lon="13.8229761"><ele>313.0</ele><time>2026-05-02T09:41:50.325Z</time></trkpt><trkpt lat="42.2161272" lon="13.8227657"><ele>313.0</ele><time>2026-05-02T09:41:52.333Z</time></trkpt><trkpt lat="42.2160379" lon="13.8225561"><ele>313.0</ele><time>2026-05-02T09:41:54.325Z</time></trkpt><trkpt lat="42.2159107" lon="13.822366"><ele>313.66666666666663</ele><time>2026-05-02T09:41:56.317Z</time></trkpt><trkpt lat="42.2157314" lon="13.822277"><ele>314.3333333333333</ele><time>2026-05-02T09:41:58.315Z</time></trkpt><trkpt lat="42.215561" lon="13.8222657"><ele>315.0</ele><time>2026-05-02T09:42:00.319Z</time></trkpt><trkpt lat="42.2154222" lon="13.8222909"><ele>315.5</ele><time>2026-05-02T09:42:02.317Z</time></trkpt><trkpt lat="42.2153197" lon="13.8223546"><ele>316.0</ele><time>2026-05-02T09:42:04.318Z</time></trkpt><trkpt lat="42.2152093" lon="13.8224333"><ele>316.5</ele><time>2026-05-02T09:42:06.318Z</time></trkpt><trkpt lat="42.2150824" lon="13.8225191"><ele>317.0</ele><time>2026-05-02T09:42:08.317Z</time></trkpt><trkpt lat="42.2149182" lon="13.8226337"><ele>317.0</ele><time>2026-05-02T09:42:10.308Z</time></trkpt><trkpt lat="42.2147265" lon="13.822736"><ele>317.0</ele><time>2026-05-02T09:42:12.31Z</time></trkpt><trkpt lat="42.2145879" lon="13.822782"><ele>317.0</ele><time>2026-05-02T09:42:14.312Z</time></trkpt><trkpt lat="42.2144666" lon="13.8227829"><ele>317.0</ele><time>2026-05-02T09:42:16.316Z</time></trkpt><trkpt lat="42.2143614" lon="13.8227028"><ele>317.0</ele><time>2026-05-02T09:42:18.316Z</time></trkpt><trkpt lat="42.2142469" lon="13.8226024"><ele>317.0</ele><time>2026-05-02T09:42:20.331Z</time></trkpt><trkpt lat="42.2141597" lon="13.8224758"><ele>317.0</ele><time>2026-05-02T09:42:22.314Z</time></trkpt><trkpt lat="42.2141004" lon="13.8223424"><ele>317.0</ele><time>2026-05-02T09:42:24.315Z</time></trkpt><trkpt lat="42.214059" lon="13.8222123"><ele>317.0</ele><time>2026-05-02T09:42:28.333Z</time></trkpt><trkpt lat="42.2140493" lon="13.8221119"><ele>317.0</ele><time>2026-05-02T09:42:30.334Z</time></trkpt><trkpt lat="42.214046" lon="13.8220049"><ele>317.0</ele><time>2026-05-02T09:42:32.33Z</time></trkpt><trkpt lat="42.2140993" lon="13.8219182"><ele>317.0</ele><time>2026-05-02T09:42:34.342Z</time></trkpt><trkpt lat="42.2142449" lon="13.8218284"><ele>317.5</ele><time>2026-05-02T09:42:36.317Z</time></trkpt><trkpt lat="42.2143574" lon="13.8216974"><ele>318.0</ele><time>2026-05-02T09:42:38.312Z</time></trkpt><trkpt lat="42.2144543" lon="13.8215756"><ele>318.5</ele><time>2026-05-02T09:42:40.317Z</time></trkpt><trkpt lat="42.2145407" lon="13.8214598"><ele>319.0</ele><time>2026-05-02T09:42:42.314Z</time></trkpt><trkpt lat="42.2146256" lon="13.821326"><ele>319.0</ele><time>2026-05-02T09:42:44.319Z</time></trkpt><trkpt lat="42.2146939" lon="13.8212192"><ele>319.0</ele><time>2026-05-02T09:42:46.322Z</time></trkpt><trkpt lat="42.2147515" lon="13.8211263"><ele>319.0</ele><time>2026-05-02T09:42:48.322Z</time></trkpt><trkpt lat="42.2148127" lon="13.8210429"><ele>319.0</ele><time>2026-05-02T09:42:50.322Z</time></trkpt><trkpt lat="42.2148807" lon="13.8209431"><ele>319.0</ele><time>2026-05-02T09:42:52.319Z</time></trkpt><trkpt lat="42.214944" lon="13.8208246"><ele>319.0</ele><time>2026-05-02T09:42:54.32Z</time></trkpt><trkpt lat="42.2149694" lon="13.8207346"><ele>319.0</ele><time>2026-05-02T09:42:56.313Z</time></trkpt><trkpt lat="42.2149356" lon="13.8206628"><ele>319.0</ele><time>2026-05-02T09:42:58.325Z</time></trkpt><trkpt lat="42.2148978" lon="13.8205616"><ele>319.0</ele><time>2026-05-02T09:43:02.321Z</time></trkpt><trkpt lat="42.2148974" lon="13.8204631"><ele>319.0</ele><time>2026-05-02T09:43:12.332Z</time></trkpt><trkpt lat="42.2149259" lon="13.8203641"><ele>319.0</ele><time>2026-05-02T09:59:14.353Z</time></trkpt><trkpt lat="42.2149671" lon="13.8202988"><ele>319.0</ele><time>2026-05-02T09:59:16.349Z</time></trkpt><trkpt lat="42.2150739" lon="13.8203365"><ele>319.0</ele><time>2026-05-02T09:59:20.349Z</time></trkpt><trkpt lat="42.2151375" lon="13.8203464"><ele>319.0</ele><time>2026-05-02T10:00:18.356Z</time></trkpt><trkpt lat="42.2152133" lon="13.8203342"><ele>319.0</ele><time>2026-05-02T10:00:21.345Z</time></trkpt><trkpt lat="42.2152921" lon="13.8203008"><ele>319.0</ele><time>2026-05-02T10:00:24.344Z</time></trkpt><trkpt lat="42.2154158" lon="13.8201591"><ele>319.0</ele><time>2026-05-02T10:00:26.326Z</time></trkpt><trkpt lat="42.2154917" lon="13.820057"><ele>319.0</ele><time>2026-05-02T10:00:27.324Z</time></trkpt><trkpt lat="42.2155641" lon="13.8199528"><ele>319.0</ele><time>2026-05-02T10:00:28.333Z</time></trkpt><trkpt lat="42.2156291" lon="13.8198503"><ele>319.0</ele><time>2026-05-02T10:00:29.331Z</time></trkpt><trkpt lat="42.2156958" lon="13.8197484"><ele>319.0</ele><time>2026-05-02T10:00:30.331Z</time></trkpt><trkpt lat="42.215761" lon="13.819649"><ele>319.0</ele><time>2026-05-02T10:00:31.335Z</time></trkpt><trkpt lat="42.2158212" lon="13.8195701"><ele>319.0</ele><time>2026-05-02T10:00:32.349Z</time></trkpt><trkpt lat="42.2158685" lon="13.8194959"><ele>319.0</ele><time>2026-05-02T10:00:33.328Z</time></trkpt><trkpt lat="42.2159148" lon="13.8194265"><ele>319.0</ele><time>2026-05-02T10:00:34.342Z</time></trkpt><trkpt lat="42.2159618" lon="13.8193516"><ele>319.0</ele><time>2026-05-02T10:00:35.343Z</time></trkpt><trkpt lat="42.2160099" lon="13.8192879"><ele>319.0</ele><time>2026-05-02T10:00:36.33Z</time></trkpt><trkpt lat="42.2160616" lon="13.8192223"><ele>319.0</ele><time>2026-05-02T10:00:37.333Z</time></trkpt><trkpt lat="42.216103" lon="13.8191545"><ele>319.0</ele><time>2026-05-02T10:00:38.33Z</time></trkpt><trkpt lat="42.216175" lon="13.8190256"><ele>319.16666666666663</ele><time>2026-05-02T10:00:40.332Z</time></trkpt><trkpt lat="42.2162154" lon="13.818931"><ele>319.3333333333333</ele><time>2026-05-02T10:00:41.33Z</time></trkpt><trkpt lat="42.2162429" lon="13.8188213"><ele>319.5</ele><time>2026-05-02T10:00:42.321Z</time></trkpt><trkpt lat="42.2162507" lon="13.8187014"><ele>319.6666666666667</ele><time>2026-05-02T10:00:43.321Z</time></trkpt><trkpt lat="42.2162404" lon="13.8185964"><ele>319.83333333333337</ele><time>2026-05-02T10:00:44.324Z</time></trkpt><trkpt lat="42.2162204" lon="13.8185087"><ele>320.0</ele><time>2026-05-02T10:00:45.328Z</time></trkpt><trkpt lat="42.2162251" lon="13.8183435"><ele>319.6</ele><time>2026-05-02T10:00:47.322Z</time></trkpt><trkpt lat="42.2162579" lon="13.8182629"><ele>319.2</ele><time>2026-05-02T10:00:48.333Z</time></trkpt><trkpt lat="42.2163214" lon="13.8181872"><ele>318.8</ele><time>2026-05-02T10:00:49.322Z</time></trkpt><trkpt lat="42.2164056" lon="13.8181017"><ele>318.4</ele><time>2026-05-02T10:00:50.335Z</time></trkpt><trkpt lat="42.2165077" lon="13.8180169"><ele>318.0</ele><time>2026-05-02T10:00:51.321Z</time></trkpt><trkpt lat="42.2166183" lon="13.8179188"><ele>318.0</ele><time>2026-05-02T10:00:52.323Z</time></trkpt><trkpt lat="42.2167401" lon="13.8178161"><ele>318.0</ele><time>2026-05-02T10:00:53.324Z</time></trkpt><trkpt lat="42.2168671" lon="13.8177177"><ele>318.0</ele><time>2026-05-02T10:00:54.33Z</time></trkpt><trkpt lat="42.2170015" lon="13.8176237"><ele>318.0</ele><time>2026-05-02T10:00:55.342Z</time></trkpt><trkpt lat="42.2171548" lon="13.8175478"><ele>318.3333333333333</ele><time>2026-05-02T10:00:56.339Z</time></trkpt><trkpt lat="42.217302" lon="13.8174791"><ele>318.66666666666663</ele><time>2026-05-02T10:00:57.337Z</time></trkpt><trkpt lat="42.2174639" lon="13.8174276"><ele>319.0</ele><time>2026-05-02T10:00:58.345Z</time></trkpt><trkpt lat="42.2176286" lon="13.8173813"><ele>319.0</ele><time>2026-05-02T10:00:59.345Z</time></trkpt><trkpt lat="42.2177864" lon="13.8173446"><ele>319.0</ele><time>2026-05-02T10:01:00.335Z</time></trkpt><trkpt lat="42.2179447" lon="13.8173112"><ele>319.0</ele><time>2026-05-02T10:01:01.331Z</time></trkpt><trkpt lat="42.2180924" lon="13.8172798"><ele>318.66666666666663</ele><time>2026-05-02T10:01:02.339Z</time></trkpt><trkpt lat="42.218252" lon="13.8172632"><ele>318.3333333333333</ele><time>2026-05-02T10:01:03.323Z</time></trkpt><trkpt lat="42.218397" lon="13.8172321"><ele>318.0</ele><time>2026-05-02T10:01:04.328Z</time></trkpt><trkpt lat="42.2185434" lon="13.8172036"><ele>318.0</ele><time>2026-05-02T10:01:05.333Z</time></trkpt><trkpt lat="42.2186815" lon="13.8171759"><ele>318.0</ele><time>2026-05-02T10:01:06.333Z</time></trkpt><trkpt lat="42.2188169" lon="13.8171532"><ele>318.0</ele><time>2026-05-02T10:01:07.332Z</time></trkpt><trkpt lat="42.2189485" lon="13.8171184"><ele>318.0</ele><time>2026-05-02T10:01:08.328Z</time></trkpt><trkpt lat="42.2190885" lon="13.8170933"><ele>318.25</ele><time>2026-05-02T10:01:09.323Z</time></trkpt><trkpt lat="42.2192212" lon="13.8170805"><ele>318.5</ele><time>2026-05-02T10:01:10.323Z</time></trkpt><trkpt lat="42.2193458" lon="13.817063"><ele>318.75</ele><time>2026-05-02T10:01:11.33Z</time></trkpt><trkpt lat="42.2194748" lon="13.817048"><ele>319.0</ele><time>2026-05-02T10:01:12.328Z</time></trkpt><trkpt lat="42.2196138" lon="13.8170362"><ele>319.0</ele><time>2026-05-02T10:01:13.33Z</time></trkpt><trkpt lat="42.2197498" lon="13.8170327"><ele>319.0</ele><time>2026-05-02T10:01:14.327Z</time></trkpt><trkpt lat="42.2198947" lon="13.817042"><ele>319.0</ele><time>2026-05-02T10:01:15.328Z</time></trkpt><trkpt lat="42.220041" lon="13.8170494"><ele>319.0</ele><time>2026-05-02T10:01:16.321Z</time></trkpt><trkpt lat="42.2201878" lon="13.817074"><ele>318.66666666666663</ele><time>2026-05-02T10:01:17.324Z</time></trkpt><trkpt lat="42.2203295" lon="13.8171197"><ele>318.3333333333333</ele><time>2026-05-02T10:01:18.329Z</time></trkpt><trkpt lat="42.2204854" lon="13.8171858"><ele>318.0</ele><time>2026-05-02T10:01:19.327Z</time></trkpt><trkpt lat="42.2206408" lon="13.8172318"><ele>317.6666666666667</ele><time>2026-05-02T10:01:20.329Z</time></trkpt><trkpt lat="42.2207991" lon="13.8172745"><ele>317.33333333333337</ele><time>2026-05-02T10:01:21.331Z</time></trkpt><trkpt lat="42.2209599" lon="13.8173234"><ele>317.0</ele><time>2026-05-02T10:01:22.343Z</time></trkpt><trkpt lat="42.2211143" lon="13.8173763"><ele>317.0</ele><time>2026-05-02T10:01:23.325Z</time></trkpt><trkpt lat="42.2212704" lon="13.8174083"><ele>317.0</ele><time>2026-05-02T10:01:24.339Z</time></trkpt><trkpt lat="42.2214278" lon="13.8174539"><ele>317.0</ele><time>2026-05-02T10:01:25.338Z</time></trkpt><trkpt lat="42.2215909" lon="13.8174907"><ele>317.0</ele><time>2026-05-02T10:01:26.343Z</time></trkpt><trkpt lat="42.2217602" lon="13.8175085"><ele>317.0</ele><time>2026-05-02T10:01:27.333Z</time></trkpt><trkpt lat="42.221928" lon="13.8174975"><ele>317.0</ele><time>2026-05-02T10:01:28.331Z</time></trkpt><trkpt lat="42.2220786" lon="13.8174889"><ele>317.0</ele><time>2026-05-02T10:01:29.338Z</time></trkpt><trkpt lat="42.2222312" lon="13.8174685"><ele>317.0</ele><time>2026-05-02T10:01:30.334Z</time></trkpt><trkpt lat="42.2223948" lon="13.8174304"><ele>317.0</ele><time>2026-05-02T10:01:31.333Z</time></trkpt><trkpt lat="42.2225489" lon="13.8173773"><ele>318.0</ele><time>2026-05-02T10:01:32.333Z</time></trkpt><trkpt lat="42.2227059" lon="13.8173195"><ele>319.0</ele><time>2026-05-02T10:01:33.331Z</time></trkpt><trkpt lat="42.2228501" lon="13.8172459"><ele>320.0</ele><time>2026-05-02T10:01:34.338Z</time></trkpt><trkpt lat="42.2229882" lon="13.8171595"><ele>320.0</ele><time>2026-05-02T10:01:35.326Z</time></trkpt><trkpt lat="42.2231178" lon="13.8170765"><ele>320.0</ele><time>2026-05-02T10:01:36.334Z</time></trkpt><trkpt lat="42.2232447" lon="13.816983"><ele>320.0</ele><time>2026-05-02T10:01:37.353Z</time></trkpt><trkpt lat="42.2233694" lon="13.8168775"><ele>320.0</ele><time>2026-05-02T10:01:38.333Z</time></trkpt><trkpt lat="42.2235007" lon="13.8167713"><ele>320.33333333333337</ele><time>2026-05-02T10:01:39.334Z</time></trkpt><trkpt lat="42.2236345" lon="13.8166684"><ele>320.6666666666667</ele><time>2026-05-02T10:01:40.326Z</time></trkpt><trkpt lat="42.2237693" lon="13.816554"><ele>321.0</ele><time>2026-05-02T10:01:41.331Z</time></trkpt><trkpt lat="42.2238922" lon="13.816433"><ele>319.3333333333333</ele><time>2026-05-02T10:01:42.324Z</time></trkpt><trkpt lat="42.2240155" lon="13.8163165"><ele>317.66666666666663</ele><time>2026-05-02T10:01:43.331Z</time></trkpt><trkpt lat="42.224146" lon="13.8162103"><ele>316.0</ele><time>2026-05-02T10:01:44.338Z</time></trkpt><trkpt lat="42.224277" lon="13.8161066"><ele>316.0</ele><time>2026-05-02T10:01:45.324Z</time></trkpt><trkpt lat="42.2244089" lon="13.8159967"><ele>316.0</ele><time>2026-05-02T10:01:46.326Z</time></trkpt><trkpt lat="42.2245475" lon="13.8158716"><ele>316.0</ele><time>2026-05-02T10:01:47.335Z</time></trkpt><trkpt lat="42.2247008" lon="13.8157593"><ele>316.3333333333333</ele><time>2026-05-02T10:01:48.347Z</time></trkpt><trkpt lat="42.2248647" lon="13.8156583"><ele>316.6666666666667</ele><time>2026-05-02T10:01:49.412Z</time></trkpt><trkpt lat="42.2250262" lon="13.8155623"><ele>317.0</ele><time>2026-05-02T10:01:50.411Z</time></trkpt><trkpt lat="42.2252071" lon="13.8154843"><ele>317.0</ele><time>2026-05-02T10:01:51.42Z</time></trkpt><trkpt lat="42.2253897" lon="13.8154092"><ele>317.0</ele><time>2026-05-02T10:01:52.413Z</time></trkpt><trkpt lat="42.2255774" lon="13.8153463"><ele>317.0</ele><time>2026-05-02T10:01:53.422Z</time></trkpt><trkpt lat="42.2257628" lon="13.8152892"><ele>317.0</ele><time>2026-05-02T10:01:54.422Z</time></trkpt><trkpt lat="42.2259493" lon="13.8152326"><ele>317.0</ele><time>2026-05-02T10:01:55.414Z</time></trkpt><trkpt lat="42.2261354" lon="13.8151749"><ele>317.0</ele><time>2026-05-02T10:01:56.425Z</time></trkpt><trkpt lat="42.2263116" lon="13.8151155"><ele>319.0</ele><time>2026-05-02T10:01:57.413Z</time></trkpt><trkpt lat="42.2264923" lon="13.8150603"><ele>321.0</ele><time>2026-05-02T10:01:58.415Z</time></trkpt><trkpt lat="42.2266765" lon="13.8150105"><ele>323.0</ele><time>2026-05-02T10:01:59.422Z</time></trkpt><trkpt lat="42.2268689" lon="13.8149844"><ele>323.0</ele><time>2026-05-02T10:02:00.413Z</time></trkpt><trkpt lat="42.2270567" lon="13.8149442"><ele>323.0</ele><time>2026-05-02T10:02:01.421Z</time></trkpt><trkpt lat="42.2272448" lon="13.8149062"><ele>323.0</ele><time>2026-05-02T10:02:02.415Z</time></trkpt><trkpt lat="42.2274227" lon="13.8148768"><ele>321.6666666666667</ele><time>2026-05-02T10:02:03.408Z</time></trkpt><trkpt lat="42.2275983" lon="13.8148537"><ele>320.3333333333333</ele><time>2026-05-02T10:02:04.423Z</time></trkpt><trkpt lat="42.2277743" lon="13.8148332"><ele>319.0</ele><time>2026-05-02T10:02:05.417Z</time></trkpt><trkpt lat="42.2279461" lon="13.8148148"><ele>319.0</ele><time>2026-05-02T10:02:06.428Z</time></trkpt><trkpt lat="42.2281129" lon="13.8147946"><ele>319.0</ele><time>2026-05-02T10:02:07.426Z</time></trkpt><trkpt lat="42.228267" lon="13.8147771"><ele>319.0</ele><time>2026-05-02T10:02:08.424Z</time></trkpt><trkpt lat="42.2283938" lon="13.8147662"><ele>319.0</ele><time>2026-05-02T10:02:09.424Z</time></trkpt><trkpt lat="42.2284842" lon="13.8147621"><ele>319.0</ele><time>2026-05-02T10:02:10.435Z</time></trkpt><trkpt lat="42.2285914" lon="13.8147685"><ele>319.0</ele><time>2026-05-02T10:02:12.42Z</time></trkpt><trkpt lat="42.2286746" lon="13.8147794"><ele>319.0</ele><time>2026-05-02T10:02:14.423Z</time></trkpt><trkpt lat="42.2287384" lon="13.8148158"><ele>319.0</ele><time>2026-05-02T10:02:16.423Z</time></trkpt><trkpt lat="42.22881" lon="13.8148618"><ele>319.0</ele><time>2026-05-02T10:02:18.437Z</time></trkpt><trkpt lat="42.2289177" lon="13.8149103"><ele>319.4</ele><time>2026-05-02T10:02:20.419Z</time></trkpt><trkpt lat="42.2290179" lon="13.8149813"><ele>319.79999999999995</ele><time>2026-05-02T10:02:22.4Z</time></trkpt><trkpt lat="42.2291037" lon="13.8150352"><ele>320.20000000000005</ele><time>2026-05-02T10:02:24.4Z</time></trkpt><trkpt lat="42.2291795" lon="13.815072"><ele>320.6</ele><time>2026-05-02T10:02:26.424Z</time></trkpt><trkpt lat="42.2292644" lon="13.8150934"><ele>321.0</ele><time>2026-05-02T10:02:28.45Z</time></trkpt><trkpt lat="42.2293589" lon="13.8151204"><ele>320.40000000000003</ele><time>2026-05-02T10:02:30.419Z</time></trkpt><trkpt lat="42.2294262" lon="13.8151878"><ele>319.8</ele><time>2026-05-02T10:02:32.404Z</time></trkpt><trkpt lat="42.2294969" lon="13.8152844"><ele>319.20000000000005</ele><time>2026-05-02T10:02:34.411Z</time></trkpt><trkpt lat="42.2295941" lon="13.8153786"><ele>318.6</ele><time>2026-05-02T10:02:36.424Z</time></trkpt><trkpt lat="42.22967" lon="13.8155056"><ele>318.0</ele><time>2026-05-02T10:02:38.411Z</time></trkpt><trkpt lat="42.2297187" lon="13.8155974"><ele>318.0</ele><time>2026-05-02T10:02:40.405Z</time></trkpt><trkpt lat="42.2297706" lon="13.8156969"><ele>318.0</ele><time>2026-05-02T10:02:42.42Z</time></trkpt><trkpt lat="42.2298439" lon="13.8158425"><ele>318.0</ele><time>2026-05-02T10:02:44.41Z</time></trkpt><trkpt lat="42.2298813" lon="13.8159122"><ele>318.0</ele><time>2026-05-02T10:02:45.411Z</time></trkpt><trkpt lat="42.229916" lon="13.8160455"><ele>318.0</ele><time>2026-05-02T10:02:47.4Z</time></trkpt><trkpt lat="42.2299156" lon="13.8161722"><ele>317.6666666666667</ele><time>2026-05-02T10:02:49.404Z</time></trkpt><trkpt lat="42.2299045" lon="13.8162913"><ele>317.3333333333333</ele><time>2026-05-02T10:02:51.433Z</time></trkpt><trkpt lat="42.2299077" lon="13.8163976"><ele>317.0</ele><time>2026-05-02T10:02:53.433Z</time></trkpt><trkpt lat="42.2298942" lon="13.8165267"><ele>316.66666666666663</ele><time>2026-05-02T10:02:56.433Z</time></trkpt><trkpt lat="42.2299045" lon="13.8166426"><ele>316.3333333333333</ele><time>2026-05-02T10:02:59.449Z</time></trkpt><trkpt lat="42.229918" lon="13.8167334"><ele>316.0</ele><time>2026-05-02T10:03:01.438Z</time></trkpt><trkpt lat="42.2299259" lon="13.8168194"><ele>315.66666666666663</ele><time>2026-05-02T10:03:05.436Z</time></trkpt><trkpt lat="42.2299376" lon="13.8169204"><ele>315.3333333333333</ele><time>2026-05-02T10:03:07.435Z</time></trkpt><trkpt lat="42.2299593" lon="13.8170577"><ele>315.0</ele><time>2026-05-02T10:03:09.426Z</time></trkpt><trkpt lat="42.2299716" lon="13.8171554"><ele>314.6666666666667</ele><time>2026-05-02T10:03:10.423Z</time></trkpt><trkpt lat="42.22999" lon="13.817271"><ele>314.33333333333337</ele><time>2026-05-02T10:03:11.422Z</time></trkpt><trkpt lat="42.230006" lon="13.8173967"><ele>314.0</ele><time>2026-05-02T10:03:12.425Z</time></trkpt><trkpt lat="42.2300184" lon="13.8175369"><ele>314.25</ele><time>2026-05-02T10:03:13.411Z</time></trkpt><trkpt lat="42.2300263" lon="13.8176864"><ele>314.5</ele><time>2026-05-02T10:03:14.419Z</time></trkpt><trkpt lat="42.230035" lon="13.8178502"><ele>314.75</ele><time>2026-05-02T10:03:15.42Z</time></trkpt><trkpt lat="42.2300485" lon="13.8180247"><ele>315.0</ele><time>2026-05-02T10:03:16.431Z</time></trkpt><trkpt lat="42.2300614" lon="13.8182065"><ele>315.0</ele><time>2026-05-02T10:03:17.424Z</time></trkpt><trkpt lat="42.2300739" lon="13.8184017"><ele>315.0</ele><time>2026-05-02T10:03:18.434Z</time></trkpt><trkpt lat="42.2300784" lon="13.818603"><ele>315.0</ele><time>2026-05-02T10:03:19.425Z</time></trkpt><trkpt lat="42.2300797" lon="13.8187904"><ele>315.0</ele><time>2026-05-02T10:03:20.424Z</time></trkpt><trkpt lat="42.2300784" lon="13.8189601"><ele>315.0</ele><time>2026-05-02T10:03:21.425Z</time></trkpt><trkpt lat="42.23008" lon="13.8191195"><ele>315.0</ele><time>2026-05-02T10:03:22.429Z</time></trkpt><trkpt lat="42.2300852" lon="13.8192657"><ele>315.0</ele><time>2026-05-02T10:03:23.429Z</time></trkpt><trkpt lat="42.2300858" lon="13.819374"><ele>315.0</ele><time>2026-05-02T10:03:24.434Z</time></trkpt><trkpt lat="42.2300883" lon="13.8194939"><ele>315.0</ele><time>2026-05-02T10:03:26.428Z</time></trkpt><trkpt lat="42.2301053" lon="13.8195899"><ele>315.6</ele><time>2026-05-02T10:03:29.443Z</time></trkpt><trkpt lat="42.2301568" lon="13.8196665"><ele>316.2</ele><time>2026-05-02T10:03:33.428Z</time></trkpt><trkpt lat="42.2302557" lon="13.8196791"><ele>316.8</ele><time>2026-05-02T10:03:35.408Z</time></trkpt><trkpt lat="42.2303334" lon="13.8196629"><ele>317.4</ele><time>2026-05-02T10:03:36.401Z</time></trkpt><trkpt lat="42.2304346" lon="13.8196419"><ele>318.0</ele><time>2026-05-02T10:03:37.402Z</time></trkpt><trkpt lat="42.2305785" lon="13.8196188"><ele>320.3333333333333</ele><time>2026-05-02T10:03:38.318Z</time></trkpt><trkpt lat="42.2307289" lon="13.8195897"><ele>322.66666666666663</ele><time>2026-05-02T10:03:39.317Z</time></trkpt><trkpt lat="42.230887" lon="13.8195765"><ele>325.0</ele><time>2026-05-02T10:03:40.349Z</time></trkpt><trkpt lat="42.2310564" lon="13.819535"><ele>325.0</ele><time>2026-05-02T10:03:41.333Z</time></trkpt><trkpt lat="42.2312084" lon="13.8194573"><ele>325.0</ele><time>2026-05-02T10:03:42.334Z</time></trkpt><trkpt lat="42.2313416" lon="13.8193736"><ele>325.0</ele><time>2026-05-02T10:03:43.34Z</time></trkpt><trkpt lat="42.2314748" lon="13.8192806"><ele>323.75</ele><time>2026-05-02T10:03:44.337Z</time></trkpt><trkpt lat="42.2316086" lon="13.8191974"><ele>322.5</ele><time>2026-05-02T10:03:45.342Z</time></trkpt><trkpt lat="42.2317452" lon="13.8191417"><ele>321.25</ele><time>2026-05-02T10:03:46.345Z</time></trkpt><trkpt lat="42.2318797" lon="13.819101"><ele>320.0</ele><time>2026-05-02T10:03:47.343Z</time></trkpt><trkpt lat="42.2320238" lon="13.8190845"><ele>320.0</ele><time>2026-05-02T10:03:48.344Z</time></trkpt><trkpt lat="42.2321801" lon="13.8190706"><ele>320.0</ele><time>2026-05-02T10:03:49.34Z</time></trkpt><trkpt lat="42.2323392" lon="13.8190642"><ele>320.0</ele><time>2026-05-02T10:03:50.341Z</time></trkpt><trkpt lat="42.2325112" lon="13.8190666"><ele>320.33333333333337</ele><time>2026-05-02T10:03:51.343Z</time></trkpt><trkpt lat="42.2326725" lon="13.8190706"><ele>320.6666666666667</ele><time>2026-05-02T10:03:52.342Z</time></trkpt><trkpt lat="42.2328267" lon="13.8190547"><ele>321.0</ele><time>2026-05-02T10:03:53.342Z</time></trkpt><trkpt lat="42.2329799" lon="13.8190118"><ele>321.0</ele><time>2026-05-02T10:03:54.337Z</time></trkpt><trkpt lat="42.2331318" lon="13.818942"><ele>321.0</ele><time>2026-05-02T10:03:55.337Z</time></trkpt><trkpt lat="42.2332934" lon="13.8188739"><ele>321.0</ele><time>2026-05-02T10:03:56.346Z</time></trkpt><trkpt lat="42.2334519" lon="13.818807"><ele>324.3333333333333</ele><time>2026-05-02T10:03:57.331Z</time></trkpt><trkpt lat="42.2336074" lon="13.8187245"><ele>327.66666666666663</ele><time>2026-05-02T10:03:58.337Z</time></trkpt><trkpt lat="42.2337599" lon="13.8186304"><ele>331.0</ele><time>2026-05-02T10:03:59.337Z</time></trkpt><trkpt lat="42.2339" lon="13.8185311"><ele>329.75</ele><time>2026-05-02T10:04:00.33Z</time></trkpt><trkpt lat="42.2340333" lon="13.8184451"><ele>328.5</ele><time>2026-05-02T10:04:01.33Z</time></trkpt><trkpt lat="42.2341618" lon="13.8183568"><ele>327.25</ele><time>2026-05-02T10:04:02.325Z</time></trkpt><trkpt lat="42.2342974" lon="13.8182561"><ele>326.0</ele><time>2026-05-02T10:04:03.324Z</time></trkpt><trkpt lat="42.2344208" lon="13.8181262"><ele>326.0</ele><time>2026-05-02T10:04:04.323Z</time></trkpt><trkpt lat="42.2345426" lon="13.8180011"><ele>326.0</ele><time>2026-05-02T10:04:05.324Z</time></trkpt><trkpt lat="42.2346671" lon="13.8178542"><ele>326.0</ele><time>2026-05-02T10:04:06.321Z</time></trkpt><trkpt lat="42.2347828" lon="13.8177072"><ele>324.75</ele><time>2026-05-02T10:04:07.321Z</time></trkpt><trkpt lat="42.2348919" lon="13.8175694"><ele>323.5</ele><time>2026-05-02T10:04:08.322Z</time></trkpt><trkpt lat="42.2349655" lon="13.8174468"><ele>322.25</ele><time>2026-05-02T10:04:09.337Z</time></trkpt><trkpt lat="42.2350315" lon="13.817342"><ele>321.0</ele><time>2026-05-02T10:04:10.341Z</time></trkpt><trkpt lat="42.2350757" lon="13.8172262"><ele>321.0</ele><time>2026-05-02T10:04:11.348Z</time></trkpt><trkpt lat="42.235123" lon="13.817113"><ele>321.0</ele><time>2026-05-02T10:04:12.341Z</time></trkpt><trkpt lat="42.2351662" lon="13.8169967"><ele>321.0</ele><time>2026-05-02T10:04:13.346Z</time></trkpt><trkpt lat="42.2352031" lon="13.8168917"><ele>321.0</ele><time>2026-05-02T10:04:14.342Z</time></trkpt><trkpt lat="42.2352388" lon="13.8167976"><ele>321.0</ele><time>2026-05-02T10:04:15.348Z</time></trkpt><trkpt lat="42.2352927" lon="13.8167048"><ele>321.0</ele><time>2026-05-02T10:04:16.344Z</time></trkpt><trkpt lat="42.2353297" lon="13.8166199"><ele>321.20000000000005</ele><time>2026-05-02T10:04:17.34Z</time></trkpt><trkpt lat="42.2353755" lon="13.8165436"><ele>321.40000000000003</ele><time>2026-05-02T10:04:18.344Z</time></trkpt><trkpt lat="42.2354343" lon="13.8164634"><ele>321.6</ele><time>2026-05-02T10:04:19.334Z</time></trkpt><trkpt lat="42.2355089" lon="13.8163896"><ele>321.8</ele><time>2026-05-02T10:04:20.343Z</time></trkpt><trkpt lat="42.235601" lon="13.816319"><ele>322.0</ele><time>2026-05-02T10:04:21.333Z</time></trkpt><trkpt lat="42.2356949" lon="13.8162586"><ele>322.0</ele><time>2026-05-02T10:04:22.341Z</time></trkpt><trkpt lat="42.2357986" lon="13.8162235"><ele>322.0</ele><time>2026-05-02T10:04:23.336Z</time></trkpt><trkpt lat="42.2359005" lon="13.8162231"><ele>322.0</ele><time>2026-05-02T10:04:24.332Z</time></trkpt><trkpt lat="42.2360034" lon="13.8162447"><ele>322.0</ele><time>2026-05-02T10:04:25.328Z</time></trkpt><trkpt lat="42.2361046" lon="13.8162945"><ele>322.0</ele><time>2026-05-02T10:04:26.333Z</time></trkpt><trkpt lat="42.2362023" lon="13.8163696"><ele>322.0</ele><time>2026-05-02T10:04:27.332Z</time></trkpt><trkpt lat="42.2362933" lon="13.8164694"><ele>322.0</ele><time>2026-05-02T10:04:28.346Z</time></trkpt><trkpt lat="42.2363995" lon="13.8165709"><ele>322.0</ele><time>2026-05-02T10:04:29.345Z</time></trkpt><trkpt lat="42.2365189" lon="13.8166528"><ele>322.0</ele><time>2026-05-02T10:04:30.351Z</time></trkpt><trkpt lat="42.236632" lon="13.8167"><ele>321.5</ele><time>2026-05-02T10:04:31.353Z</time></trkpt><trkpt lat="42.2367414" lon="13.8167425"><ele>321.0</ele><time>2026-05-02T10:04:32.343Z</time></trkpt><trkpt lat="42.2368634" lon="13.8167633"><ele>320.5</ele><time>2026-05-02T10:04:33.348Z</time></trkpt><trkpt lat="42.2369892" lon="13.8167688"><ele>320.0</ele><time>2026-05-02T10:04:34.344Z</time></trkpt><trkpt lat="42.2371174" lon="13.8167571"><ele>320.0</ele><time>2026-05-02T10:04:35.343Z</time></trkpt><trkpt lat="42.2372521" lon="13.8167156"><ele>320.0</ele><time>2026-05-02T10:04:36.338Z</time></trkpt><trkpt lat="42.2373989" lon="13.8166475"><ele>320.0</ele><time>2026-05-02T10:04:37.348Z</time></trkpt><trkpt lat="42.2375633" lon="13.8165612"><ele>319.6666666666667</ele><time>2026-05-02T10:04:38.354Z</time></trkpt><trkpt lat="42.2377375" lon="13.8164858"><ele>319.3333333333333</ele><time>2026-05-02T10:04:39.351Z</time></trkpt><trkpt lat="42.2379102" lon="13.8164061"><ele>319.0</ele><time>2026-05-02T10:04:40.345Z</time></trkpt><trkpt lat="42.2380671" lon="13.8163214"><ele>319.0</ele><time>2026-05-02T10:04:41.348Z</time></trkpt><trkpt lat="42.2382163" lon="13.8162565"><ele>319.0</ele><time>2026-05-02T10:04:42.337Z</time></trkpt><trkpt lat="42.2383554" lon="13.8161797"><ele>319.0</ele><time>2026-05-02T10:04:43.324Z</time></trkpt><trkpt lat="42.238481" lon="13.8161075"><ele>319.0</ele><time>2026-05-02T10:04:44.318Z</time></trkpt><trkpt lat="42.2386206" lon="13.8160734"><ele>319.0</ele><time>2026-05-02T10:04:45.32Z</time></trkpt><trkpt lat="42.2387529" lon="13.8160883"><ele>319.0</ele><time>2026-05-02T10:04:46.329Z</time></trkpt><trkpt lat="42.2388629" lon="13.8161233"><ele>319.0</ele><time>2026-05-02T10:04:47.324Z</time></trkpt><trkpt lat="42.238936" lon="13.8161339"><ele>319.0</ele><time>2026-05-02T10:04:48.313Z</time></trkpt><trkpt lat="42.2390249" lon="13.8161505"><ele>319.0</ele><time>2026-05-02T10:04:50.325Z</time></trkpt><trkpt lat="42.2391225" lon="13.8161363"><ele>319.79999999999995</ele><time>2026-05-02T10:04:53.337Z</time></trkpt><trkpt lat="42.2392216" lon="13.8161696"><ele>320.59999999999997</ele><time>2026-05-02T10:04:55.333Z</time></trkpt><trkpt lat="42.2393363" lon="13.8162178"><ele>321.4</ele><time>2026-05-02T10:04:57.335Z</time></trkpt><trkpt lat="42.2394171" lon="13.8163189"><ele>322.2</ele><time>2026-05-02T10:04:59.324Z</time></trkpt><trkpt lat="42.2394599" lon="13.8164593"><ele>323.0</ele><time>2026-05-02T10:05:01.327Z</time></trkpt><trkpt lat="42.2395249" lon="13.8165215"><ele>323.0</ele><time>2026-05-02T10:05:03.324Z</time></trkpt><trkpt lat="42.2395899" lon="13.8165273"><ele>323.0</ele><time>2026-05-02T10:05:04.341Z</time></trkpt><trkpt lat="42.2396829" lon="13.8165082"><ele>323.0</ele><time>2026-05-02T10:05:05.324Z</time></trkpt><trkpt lat="42.2397827" lon="13.8164745"><ele>323.0</ele><time>2026-05-02T10:05:06.33Z</time></trkpt><trkpt lat="42.2398881" lon="13.8164269"><ele>323.0</ele><time>2026-05-02T10:05:07.325Z</time></trkpt><trkpt lat="42.2399797" lon="13.816384"><ele>323.79999999999995</ele><time>2026-05-02T10:05:08.325Z</time></trkpt><trkpt lat="42.2400645" lon="13.8163412"><ele>324.6</ele><time>2026-05-02T10:05:09.323Z</time></trkpt><trkpt lat="42.2401522" lon="13.8163116"><ele>325.4</ele><time>2026-05-02T10:05:10.324Z</time></trkpt><trkpt lat="42.2402578" lon="13.8163081"><ele>326.20000000000005</ele><time>2026-05-02T10:05:11.32Z</time></trkpt><trkpt lat="42.2403713" lon="13.8163136"><ele>327.0</ele><time>2026-05-02T10:05:12.314Z</time></trkpt><trkpt lat="42.2404905" lon="13.8163083"><ele>327.0</ele><time>2026-05-02T10:05:13.335Z</time></trkpt><trkpt lat="42.2406014" lon="13.8163121"><ele>327.0</ele><time>2026-05-02T10:05:14.323Z</time></trkpt><trkpt lat="42.2407114" lon="13.8163171"><ele>327.0</ele><time>2026-05-02T10:05:15.322Z</time></trkpt><trkpt lat="42.2408192" lon="13.8163183"><ele>327.0</ele><time>2026-05-02T10:05:16.324Z</time></trkpt><trkpt lat="42.2409149" lon="13.8163067"><ele>327.0</ele><time>2026-05-02T10:05:17.325Z</time></trkpt><trkpt lat="42.2410159" lon="13.8163026"><ele>327.40000000000003</ele><time>2026-05-02T10:05:18.322Z</time></trkpt><trkpt lat="42.2411048" lon="13.8162965"><ele>327.8</ele><time>2026-05-02T10:05:19.318Z</time></trkpt><trkpt lat="42.2411954" lon="13.8162706"><ele>328.2</ele><time>2026-05-02T10:05:20.315Z</time></trkpt><trkpt lat="42.2412906" lon="13.8162442"><ele>328.6</ele><time>2026-05-02T10:05:21.315Z</time></trkpt><trkpt lat="42.2413797" lon="13.8161993"><ele>329.0</ele><time>2026-05-02T10:05:22.307Z</time></trkpt><trkpt lat="42.241474" lon="13.816133"><ele>330.33333333333337</ele><time>2026-05-02T10:05:23.311Z</time></trkpt><trkpt lat="42.2415599" lon="13.81605"><ele>331.6666666666667</ele><time>2026-05-02T10:05:24.314Z</time></trkpt><trkpt lat="42.2416275" lon="13.8159608"><ele>333.0</ele><time>2026-05-02T10:05:25.303Z</time></trkpt><trkpt lat="42.241675" lon="13.8158609"><ele>334.3333333333333</ele><time>2026-05-02T10:05:26.312Z</time></trkpt><trkpt lat="42.2416955" lon="13.8157689"><ele>335.66666666666663</ele><time>2026-05-02T10:05:27.311Z</time></trkpt><trkpt lat="42.2417061" lon="13.8156684"><ele>337.0</ele><time>2026-05-02T10:05:28.313Z</time></trkpt><trkpt lat="42.2417075" lon="13.8155596"><ele>334.3333333333333</ele><time>2026-05-02T10:05:29.324Z</time></trkpt><trkpt lat="42.241707" lon="13.81544"><ele>331.66666666666663</ele><time>2026-05-02T10:05:30.323Z</time></trkpt><trkpt lat="42.2417286" lon="13.8153217"><ele>329.0</ele><time>2026-05-02T10:05:31.314Z</time></trkpt><trkpt lat="42.2417669" lon="13.8152156"><ele>326.3333333333333</ele><time>2026-05-02T10:05:32.317Z</time></trkpt><trkpt lat="42.2417978" lon="13.8151356"><ele>323.6666666666667</ele><time>2026-05-02T10:05:33.324Z</time></trkpt><trkpt lat="42.2418244" lon="13.8150067"><ele>321.0</ele><time>2026-05-02T10:05:35.322Z</time></trkpt><trkpt lat="42.2418615" lon="13.8148777"><ele>320.6</ele><time>2026-05-02T10:05:37.315Z</time></trkpt><trkpt lat="42.2418821" lon="13.8147553"><ele>320.20000000000005</ele><time>2026-05-02T10:05:39.311Z</time></trkpt><trkpt lat="42.2419266" lon="13.8146162"><ele>319.79999999999995</ele><time>2026-05-02T10:05:41.314Z</time></trkpt><trkpt lat="42.2419916" lon="13.8144821"><ele>319.4</ele><time>2026-05-02T10:05:43.322Z</time></trkpt><trkpt lat="42.2420476" lon="13.8144352"><ele>319.0</ele><time>2026-05-02T10:05:44.33Z</time></trkpt><trkpt lat="42.242113" lon="13.8144165"><ele>319.0</ele><time>2026-05-02T10:05:45.321Z</time></trkpt><trkpt lat="42.2421872" lon="13.8144137"><ele>319.0</ele><time>2026-05-02T10:05:46.32Z</time></trkpt><trkpt lat="42.2422769" lon="13.8144023"><ele>319.0</ele><time>2026-05-02T10:05:47.319Z</time></trkpt><trkpt lat="42.2423733" lon="13.8143655"><ele>319.0</ele><time>2026-05-02T10:05:48.319Z</time></trkpt><trkpt lat="42.2424689" lon="13.8143097"><ele>319.0</ele><time>2026-05-02T10:05:49.324Z</time></trkpt><trkpt lat="42.2425571" lon="13.8142395"><ele>319.2</ele><time>2026-05-02T10:05:50.32Z</time></trkpt><trkpt lat="42.2426438" lon="13.8141578"><ele>319.4</ele><time>2026-05-02T10:05:51.322Z</time></trkpt><trkpt lat="42.2427238" lon="13.8140674"><ele>319.6</ele><time>2026-05-02T10:05:52.321Z</time></trkpt><trkpt lat="42.2428151" lon="13.8139709"><ele>319.8</ele><time>2026-05-02T10:05:53.351Z</time></trkpt><trkpt lat="42.2428986" lon="13.8138917"><ele>320.0</ele><time>2026-05-02T10:05:54.407Z</time></trkpt><trkpt lat="42.2429858" lon="13.8138145"><ele>320.0</ele><time>2026-05-02T10:05:55.403Z</time></trkpt><trkpt lat="42.2430622" lon="13.8137076"><ele>320.0</ele><time>2026-05-02T10:05:56.404Z</time></trkpt><trkpt lat="42.2431367" lon="13.8135988"><ele>320.0</ele><time>2026-05-02T10:05:57.399Z</time></trkpt><trkpt lat="42.2432014" lon="13.8135019"><ele>320.0</ele><time>2026-05-02T10:05:58.388Z</time></trkpt><trkpt lat="42.2432565" lon="13.8134137"><ele>320.0</ele><time>2026-05-02T10:05:59.393Z</time></trkpt><trkpt lat="42.2433075" lon="13.8133262"><ele>320.83333333333337</ele><time>2026-05-02T10:06:00.392Z</time></trkpt><trkpt lat="42.2433749" lon="13.81324"><ele>321.6666666666667</ele><time>2026-05-02T10:06:01.39Z</time></trkpt><trkpt lat="42.2434421" lon="13.8131634"><ele>322.5</ele><time>2026-05-02T10:06:02.411Z</time></trkpt><trkpt lat="42.2435126" lon="13.8130882"><ele>323.3333333333333</ele><time>2026-05-02T10:06:03.425Z</time></trkpt><trkpt lat="42.2435943" lon="13.8130415"><ele>324.16666666666663</ele><time>2026-05-02T10:06:04.418Z</time></trkpt><trkpt lat="42.2436675" lon="13.812989"><ele>325.0</ele><time>2026-05-02T10:06:05.408Z</time></trkpt><trkpt lat="42.2437463" lon="13.8129448"><ele>325.0</ele><time>2026-05-02T10:06:06.407Z</time></trkpt><trkpt lat="42.2438324" lon="13.812914"><ele>325.0</ele><time>2026-05-02T10:06:07.391Z</time></trkpt><trkpt lat="42.2439269" lon="13.812889"><ele>325.0</ele><time>2026-05-02T10:06:08.397Z</time></trkpt><trkpt lat="42.2440252" lon="13.8128528"><ele>325.0</ele><time>2026-05-02T10:06:09.388Z</time></trkpt><trkpt lat="42.2441111" lon="13.8128026"><ele>325.0</ele><time>2026-05-02T10:06:10.384Z</time></trkpt><trkpt lat="42.2441924" lon="13.8127524"><ele>324.2</ele><time>2026-05-02T10:06:11.408Z</time></trkpt><trkpt lat="42.2442633" lon="13.8127174"><ele>323.4</ele><time>2026-05-02T10:06:12.407Z</time></trkpt><trkpt lat="42.2443384" lon="13.8126844"><ele>322.6</ele><time>2026-05-02T10:06:13.42Z</time></trkpt><trkpt lat="42.2444429" lon="13.8126661"><ele>321.8</ele><time>2026-05-02T10:06:14.388Z</time></trkpt><trkpt lat="42.2445528" lon="13.8126543"><ele>321.0</ele><time>2026-05-02T10:06:15.401Z</time></trkpt><trkpt lat="42.2446562" lon="13.8126194"><ele>321.0</ele><time>2026-05-02T10:06:16.395Z</time></trkpt><trkpt lat="42.2447488" lon="13.8125847"><ele>321.0</ele><time>2026-05-02T10:06:17.389Z</time></trkpt><trkpt lat="42.2448436" lon="13.8125165"><ele>321.0</ele><time>2026-05-02T10:06:18.408Z</time></trkpt><trkpt lat="42.2449275" lon="13.8124273"><ele>321.0</ele><time>2026-05-02T10:06:19.404Z</time></trkpt><trkpt lat="42.2449986" lon="13.8123224"><ele>321.0</ele><time>2026-05-02T10:06:20.393Z</time></trkpt><trkpt lat="42.2450504" lon="13.8121959"><ele>321.6</ele><time>2026-05-02T10:06:21.392Z</time></trkpt><trkpt lat="42.2450869" lon="13.8120602"><ele>322.20000000000005</ele><time>2026-05-02T10:06:22.391Z</time></trkpt><trkpt lat="42.2451139" lon="13.8119395"><ele>322.79999999999995</ele><time>2026-05-02T10:06:23.399Z</time></trkpt><trkpt lat="42.245145" lon="13.811825"><ele>323.4</ele><time>2026-05-02T10:06:24.402Z</time></trkpt><trkpt lat="42.2451732" lon="13.8117008"><ele>324.0</ele><time>2026-05-02T10:06:25.398Z</time></trkpt><trkpt lat="42.2452111" lon="13.8115951"><ele>324.0</ele><time>2026-05-02T10:06:26.403Z</time></trkpt><trkpt lat="42.2452548" lon="13.8115036"><ele>324.0</ele><time>2026-05-02T10:06:27.399Z</time></trkpt><trkpt lat="42.2453009" lon="13.8114311"><ele>324.0</ele><time>2026-05-02T10:06:28.388Z</time></trkpt><trkpt lat="42.2453597" lon="13.8113842"><ele>324.0</ele><time>2026-05-02T10:06:29.396Z</time></trkpt><trkpt lat="42.245454" lon="13.8112629"><ele>324.0</ele><time>2026-05-02T10:06:31.392Z</time></trkpt><trkpt lat="42.2455183" lon="13.8112012"><ele>324.0</ele><time>2026-05-02T10:06:32.415Z</time></trkpt><trkpt lat="42.2455871" lon="13.8111334"><ele>324.1666666666667</ele><time>2026-05-02T10:06:33.42Z</time></trkpt><trkpt lat="42.2456567" lon="13.8110504"><ele>324.3333333333333</ele><time>2026-05-02T10:06:34.393Z</time></trkpt><trkpt lat="42.2457212" lon="13.8109688"><ele>324.5</ele><time>2026-05-02T10:06:35.394Z</time></trkpt><trkpt lat="42.2457857" lon="13.8108807"><ele>324.66666666666663</ele><time>2026-05-02T10:06:36.395Z</time></trkpt><trkpt lat="42.2458388" lon="13.8108025"><ele>324.8333333333333</ele><time>2026-05-02T10:06:37.395Z</time></trkpt><trkpt lat="42.2458921" lon="13.810722"><ele>325.0</ele><time>2026-05-02T10:06:38.408Z</time></trkpt><trkpt lat="42.2459506" lon="13.8106387"><ele>325.0</ele><time>2026-05-02T10:06:39.404Z</time></trkpt><trkpt lat="42.2460186" lon="13.810556"><ele>325.0</ele><time>2026-05-02T10:06:40.412Z</time></trkpt><trkpt lat="42.2460849" lon="13.8104827"><ele>325.0</ele><time>2026-05-02T10:06:41.412Z</time></trkpt><trkpt lat="42.2461554" lon="13.8103945"><ele>325.0</ele><time>2026-05-02T10:06:42.415Z</time></trkpt><trkpt lat="42.2462191" lon="13.810306"><ele>325.0</ele><time>2026-05-02T10:06:43.423Z</time></trkpt><trkpt lat="42.2462863" lon="13.8102137"><ele>325.0</ele><time>2026-05-02T10:06:44.412Z</time></trkpt><trkpt lat="42.24635" lon="13.8101134"><ele>325.0</ele><time>2026-05-02T10:06:45.387Z</time></trkpt><trkpt lat="42.2464037" lon="13.8100017"><ele>325.0</ele><time>2026-05-02T10:06:46.4Z</time></trkpt><trkpt lat="42.2464478" lon="13.8098779"><ele>325.0</ele><time>2026-05-02T10:06:47.397Z</time></trkpt><trkpt lat="42.246481" lon="13.8097532"><ele>325.0</ele><time>2026-05-02T10:06:48.405Z</time></trkpt><trkpt lat="42.2465203" lon="13.8096285"><ele>325.0</ele><time>2026-05-02T10:06:49.42Z</time></trkpt><trkpt lat="42.2465585" lon="13.8094992"><ele>325.0</ele><time>2026-05-02T10:06:50.405Z</time></trkpt><trkpt lat="42.2465973" lon="13.8093651"><ele>325.0</ele><time>2026-05-02T10:06:51.393Z</time></trkpt><trkpt lat="42.2466353" lon="13.8092265"><ele>325.0</ele><time>2026-05-02T10:06:52.389Z</time></trkpt><trkpt lat="42.2466798" lon="13.8090816"><ele>325.0</ele><time>2026-05-02T10:06:53.405Z</time></trkpt><trkpt lat="42.246718" lon="13.8089445"><ele>325.0</ele><time>2026-05-02T10:06:54.396Z</time></trkpt><trkpt lat="42.2467601" lon="13.8087983"><ele>325.0</ele><time>2026-05-02T10:06:55.407Z</time></trkpt><trkpt lat="42.2467882" lon="13.8086733"><ele>325.0</ele><time>2026-05-02T10:06:56.409Z</time></trkpt><trkpt lat="42.2468156" lon="13.8085491"><ele>325.0</ele><time>2026-05-02T10:06:57.41Z</time></trkpt><trkpt lat="42.2468375" lon="13.8084241"><ele>325.0</ele><time>2026-05-02T10:06:58.404Z</time></trkpt><trkpt lat="42.2468585" lon="13.8082999"><ele>325.0</ele><time>2026-05-02T10:06:59.406Z</time></trkpt><trkpt lat="42.2468921" lon="13.8081827"><ele>325.0</ele><time>2026-05-02T10:07:00.402Z</time></trkpt><trkpt lat="42.2469375" lon="13.8080703"><ele>325.0</ele><time>2026-05-02T10:07:01.381Z</time></trkpt><trkpt lat="42.2469931" lon="13.8079794"><ele>325.0</ele><time>2026-05-02T10:07:02.387Z</time></trkpt><trkpt lat="42.2470659" lon="13.8078623"><ele>325.0</ele><time>2026-05-02T10:07:03.394Z</time></trkpt><trkpt lat="42.2471459" lon="13.8077586"><ele>325.0</ele><time>2026-05-02T10:07:04.392Z</time></trkpt><trkpt lat="42.2472286" lon="13.8076604"><ele>325.0</ele><time>2026-05-02T10:07:05.409Z</time></trkpt><trkpt lat="42.2473211" lon="13.8075695"><ele>325.0</ele><time>2026-05-02T10:07:06.415Z</time></trkpt><trkpt lat="42.2474116" lon="13.807495"><ele>325.0</ele><time>2026-05-02T10:07:07.405Z</time></trkpt><trkpt lat="42.2474992" lon="13.8074288"><ele>325.0</ele><time>2026-05-02T10:07:08.388Z</time></trkpt><trkpt lat="42.2475724" lon="13.8073569"><ele>325.16666666666663</ele><time>2026-05-02T10:07:09.392Z</time></trkpt><trkpt lat="42.2476255" lon="13.8072725"><ele>325.3333333333333</ele><time>2026-05-02T10:07:10.389Z</time></trkpt><trkpt lat="42.2476743" lon="13.8071809"><ele>325.5</ele><time>2026-05-02T10:07:11.39Z</time></trkpt><trkpt lat="42.2477049" lon="13.8070759"><ele>325.6666666666667</ele><time>2026-05-02T10:07:12.413Z</time></trkpt><trkpt lat="42.2477337" lon="13.8069701"><ele>325.83333333333337</ele><time>2026-05-02T10:07:13.42Z</time></trkpt><trkpt lat="42.247756" lon="13.8068462"><ele>326.0</ele><time>2026-05-02T10:07:14.396Z</time></trkpt><trkpt lat="42.2477682" lon="13.8067391"><ele>326.0</ele><time>2026-05-02T10:07:15.39Z</time></trkpt><trkpt lat="42.2477891" lon="13.8066321"><ele>326.0</ele><time>2026-05-02T10:07:16.395Z</time></trkpt><trkpt lat="42.2478158" lon="13.8065177"><ele>326.0</ele><time>2026-05-02T10:07:17.395Z</time></trkpt><trkpt lat="42.2478493" lon="13.8064149"><ele>326.0</ele><time>2026-05-02T10:07:18.409Z</time></trkpt><trkpt lat="42.247899" lon="13.8063231"><ele>326.0</ele><time>2026-05-02T10:07:19.411Z</time></trkpt><trkpt lat="42.2479506" lon="13.806224"><ele>326.0</ele><time>2026-05-02T10:07:20.398Z</time></trkpt><trkpt lat="42.2479999" lon="13.8061273"><ele>326.0</ele><time>2026-05-02T10:07:21.403Z</time></trkpt><trkpt lat="42.2480501" lon="13.8060248"><ele>326.0</ele><time>2026-05-02T10:07:22.406Z</time></trkpt><trkpt lat="42.2480965" lon="13.8059255"><ele>326.0</ele><time>2026-05-02T10:07:23.418Z</time></trkpt><trkpt lat="42.2481649" lon="13.8058268"><ele>326.0</ele><time>2026-05-02T10:07:24.324Z</time></trkpt><trkpt lat="42.2482178" lon="13.8057315"><ele>326.0</ele><time>2026-05-02T10:07:25.327Z</time></trkpt><trkpt lat="42.2482685" lon="13.8056469"><ele>326.0</ele><time>2026-05-02T10:07:26.327Z</time></trkpt><trkpt lat="42.2483201" lon="13.8055624"><ele>327.5</ele><time>2026-05-02T10:07:27.332Z</time></trkpt><trkpt lat="42.2483702" lon="13.8054821"><ele>329.0</ele><time>2026-05-02T10:07:28.334Z</time></trkpt><trkpt lat="42.2484243" lon="13.8054112"><ele>330.5</ele><time>2026-05-02T10:07:29.335Z</time></trkpt><trkpt lat="42.2484974" lon="13.8053481"><ele>332.0</ele><time>2026-05-02T10:07:30.331Z</time></trkpt><trkpt lat="42.2485813" lon="13.8052973"><ele>333.5</ele><time>2026-05-02T10:07:31.329Z</time></trkpt><trkpt lat="42.2486706" lon="13.8052582"><ele>335.0</ele><time>2026-05-02T10:07:32.329Z</time></trkpt><trkpt lat="42.2487646" lon="13.8052212"><ele>335.0</ele><time>2026-05-02T10:07:33.325Z</time></trkpt><trkpt lat="42.2488584" lon="13.8052022"><ele>335.0</ele><time>2026-05-02T10:07:34.325Z</time></trkpt><trkpt lat="42.2489407" lon="13.805203"><ele>335.0</ele><time>2026-05-02T10:07:35.328Z</time></trkpt><trkpt lat="42.2490151" lon="13.8051876"><ele>335.0</ele><time>2026-05-02T10:07:36.329Z</time></trkpt><trkpt lat="42.2490859" lon="13.8051484"><ele>335.0</ele><time>2026-05-02T10:07:37.327Z</time></trkpt><trkpt lat="42.2491593" lon="13.8050869"><ele>335.0</ele><time>2026-05-02T10:07:38.315Z</time></trkpt><trkpt lat="42.2492216" lon="13.8050079"><ele>335.4</ele><time>2026-05-02T10:07:39.315Z</time></trkpt><trkpt lat="42.2492766" lon="13.8049384"><ele>335.8</ele><time>2026-05-02T10:07:40.315Z</time></trkpt><trkpt lat="42.2493486" lon="13.8048225"><ele>336.20000000000005</ele><time>2026-05-02T10:07:42.321Z</time></trkpt><trkpt lat="42.2494185" lon="13.8047442"><ele>336.6</ele><time>2026-05-02T10:07:44.318Z</time></trkpt><trkpt lat="42.2495326" lon="13.8048011"><ele>337.0</ele><time>2026-05-02T10:07:46.319Z</time></trkpt><trkpt lat="42.2495944" lon="13.8048752"><ele>337.0</ele><time>2026-05-02T10:07:47.313Z</time></trkpt><trkpt lat="42.2496655" lon="13.8049564"><ele>337.0</ele><time>2026-05-02T10:07:48.338Z</time></trkpt><trkpt lat="42.2497482" lon="13.8050299"><ele>337.0</ele><time>2026-05-02T10:07:49.324Z</time></trkpt><trkpt lat="42.2498438" lon="13.8050551"><ele>337.0</ele><time>2026-05-02T10:07:50.326Z</time></trkpt><trkpt lat="42.2499592" lon="13.8050544"><ele>337.0</ele><time>2026-05-02T10:07:51.317Z</time></trkpt><trkpt lat="42.2500828" lon="13.8050402"><ele>337.5</ele><time>2026-05-02T10:07:52.319Z</time></trkpt><trkpt lat="42.2502162" lon="13.8050303"><ele>338.0</ele><time>2026-05-02T10:07:53.328Z</time></trkpt><trkpt lat="42.2503608" lon="13.8050107"><ele>338.5</ele><time>2026-05-02T10:07:54.331Z</time></trkpt><trkpt lat="42.250506" lon="13.8050058"><ele>339.0</ele><time>2026-05-02T10:07:55.329Z</time></trkpt><trkpt lat="42.2506397" lon="13.8049922"><ele>341.0</ele><time>2026-05-02T10:07:56.326Z</time></trkpt><trkpt lat="42.2507558" lon="13.8049898"><ele>343.0</ele><time>2026-05-02T10:07:57.33Z</time></trkpt><trkpt lat="42.2508607" lon="13.8049876"><ele>345.0</ele><time>2026-05-02T10:07:58.324Z</time></trkpt><trkpt lat="42.2509601" lon="13.8049875"><ele>347.0</ele><time>2026-05-02T10:07:59.325Z</time></trkpt><trkpt lat="42.2510543" lon="13.8050148"><ele>349.0</ele><time>2026-05-02T10:08:00.323Z</time></trkpt><trkpt lat="42.2511334" lon="13.8050884"><ele>349.2</ele><time>2026-05-02T10:08:01.319Z</time></trkpt><trkpt lat="42.2511993" lon="13.8051746"><ele>349.4</ele><time>2026-05-02T10:08:02.327Z</time></trkpt><trkpt lat="42.2512283" lon="13.8053022"><ele>349.6</ele><time>2026-05-02T10:08:03.315Z</time></trkpt><trkpt lat="42.2512449" lon="13.8054417"><ele>349.8</ele><time>2026-05-02T10:08:04.321Z</time></trkpt><trkpt lat="42.2512462" lon="13.8055889"><ele>350.0</ele><time>2026-05-02T10:08:05.32Z</time></trkpt><trkpt lat="42.2512488" lon="13.8057483"><ele>350.0</ele><time>2026-05-02T10:08:06.323Z</time></trkpt><trkpt lat="42.2512584" lon="13.8059097"><ele>350.0</ele><time>2026-05-02T10:08:07.32Z</time></trkpt><trkpt lat="42.2512851" lon="13.806066"><ele>350.0</ele><time>2026-05-02T10:08:08.33Z</time></trkpt><trkpt lat="42.2513271" lon="13.8061966"><ele>350.0</ele><time>2026-05-02T10:08:09.322Z</time></trkpt><trkpt lat="42.2513745" lon="13.8063128"><ele>350.0</ele><time>2026-05-02T10:08:10.329Z</time></trkpt><trkpt lat="42.2514302" lon="13.8064204"><ele>351.75</ele><time>2026-05-02T10:08:11.325Z</time></trkpt><trkpt lat="42.2514896" lon="13.8065437"><ele>353.5</ele><time>2026-05-02T10:08:12.325Z</time></trkpt><trkpt lat="42.2515546" lon="13.8066769"><ele>355.25</ele><time>2026-05-02T10:08:13.327Z</time></trkpt><trkpt lat="42.2516188" lon="13.8068227"><ele>357.0</ele><time>2026-05-02T10:08:14.326Z</time></trkpt><trkpt lat="42.2516813" lon="13.8069754"><ele>357.0</ele><time>2026-05-02T10:08:15.325Z</time></trkpt><trkpt lat="42.251747" lon="13.807125"><ele>357.0</ele><time>2026-05-02T10:08:16.328Z</time></trkpt><trkpt lat="42.251819" lon="13.8072847"><ele>357.0</ele><time>2026-05-02T10:08:17.325Z</time></trkpt><trkpt lat="42.2518927" lon="13.8074366"><ele>357.0</ele><time>2026-05-02T10:08:18.324Z</time></trkpt><trkpt lat="42.2519502" lon="13.8075927"><ele>357.0</ele><time>2026-05-02T10:08:19.334Z</time></trkpt><trkpt lat="42.2520222" lon="13.8077417"><ele>357.0</ele><time>2026-05-02T10:08:20.331Z</time></trkpt><trkpt lat="42.252093" lon="13.8078821"><ele>357.0</ele><time>2026-05-02T10:08:21.328Z</time></trkpt><trkpt lat="42.252171" lon="13.8080206"><ele>357.0</ele><time>2026-05-02T10:08:22.328Z</time></trkpt><trkpt lat="42.2522471" lon="13.8081486"><ele>358.8</ele><time>2026-05-02T10:08:23.326Z</time></trkpt><trkpt lat="42.2523274" lon="13.8082792"><ele>360.6</ele><time>2026-05-02T10:08:24.324Z</time></trkpt><trkpt lat="42.2523983" lon="13.8083904"><ele>362.40000000000003</ele><time>2026-05-02T10:08:25.324Z</time></trkpt><trkpt lat="42.2524619" lon="13.8084998"><ele>364.20000000000005</ele><time>2026-05-02T10:08:26.326Z</time></trkpt><trkpt lat="42.25252" lon="13.8086018"><ele>366.0</ele><time>2026-05-02T10:08:27.331Z</time></trkpt><trkpt lat="42.2525704" lon="13.8086978"><ele>366.0</ele><time>2026-05-02T10:08:28.329Z</time></trkpt><trkpt lat="42.252627" lon="13.8087952"><ele>366.0</ele><time>2026-05-02T10:08:29.332Z</time></trkpt><trkpt lat="42.2526804" lon="13.8088998"><ele>366.0</ele><time>2026-05-02T10:08:30.329Z</time></trkpt><trkpt lat="42.2527219" lon="13.809009"><ele>366.0</ele><time>2026-05-02T10:08:31.324Z</time></trkpt><trkpt lat="42.2527589" lon="13.8091267"><ele>366.0</ele><time>2026-05-02T10:08:32.321Z</time></trkpt><trkpt lat="42.2528188" lon="13.8092492"><ele>366.5</ele><time>2026-05-02T10:08:33.321Z</time></trkpt><trkpt lat="42.2528871" lon="13.8093667"><ele>367.0</ele><time>2026-05-02T10:08:34.328Z</time></trkpt><trkpt lat="42.2529678" lon="13.8094713"><ele>367.5</ele><time>2026-05-02T10:08:35.325Z</time></trkpt><trkpt lat="42.253069" lon="13.8095803"><ele>368.0</ele><time>2026-05-02T10:08:36.324Z</time></trkpt><trkpt lat="42.2531745" lon="13.8096861"><ele>369.75</ele><time>2026-05-02T10:08:37.324Z</time></trkpt><trkpt lat="42.2532682" lon="13.8098013"><ele>371.5</ele><time>2026-05-02T10:08:38.328Z</time></trkpt><trkpt lat="42.2533527" lon="13.8099182"><ele>373.25</ele><time>2026-05-02T10:08:39.329Z</time></trkpt><trkpt lat="42.2534444" lon="13.8100201"><ele>375.0</ele><time>2026-05-02T10:08:40.323Z</time></trkpt><trkpt lat="42.2535478" lon="13.8101052"><ele>374.8</ele><time>2026-05-02T10:08:41.325Z</time></trkpt><trkpt lat="42.2536474" lon="13.8101819"><ele>374.6</ele><time>2026-05-02T10:08:42.326Z</time></trkpt><trkpt lat="42.2537404" lon="13.8102721"><ele>374.4</ele><time>2026-05-02T10:08:43.327Z</time></trkpt><trkpt lat="42.2538188" lon="13.8103732"><ele>374.2</ele><time>2026-05-02T10:08:44.328Z</time></trkpt><trkpt lat="42.2538928" lon="13.8104789"><ele>374.0</ele><time>2026-05-02T10:08:45.326Z</time></trkpt><trkpt lat="42.2539751" lon="13.81059"><ele>375.5</ele><time>2026-05-02T10:08:46.34Z</time></trkpt><trkpt lat="42.2540677" lon="13.8107055"><ele>377.0</ele><time>2026-05-02T10:08:47.334Z</time></trkpt><trkpt lat="42.2541652" lon="13.8108212"><ele>378.5</ele><time>2026-05-02T10:08:48.333Z</time></trkpt><trkpt lat="42.2542724" lon="13.8109304"><ele>380.0</ele><time>2026-05-02T10:08:49.328Z</time></trkpt><trkpt lat="42.2543832" lon="13.8110413"><ele>380.2</ele><time>2026-05-02T10:08:50.331Z</time></trkpt><trkpt lat="42.2544703" lon="13.8111602"><ele>380.4</ele><time>2026-05-02T10:08:51.32Z</time></trkpt><trkpt lat="42.2545359" lon="13.8112819"><ele>380.6</ele><time>2026-05-02T10:08:52.327Z</time></trkpt><trkpt lat="42.2545892" lon="13.811393"><ele>380.8</ele><time>2026-05-02T10:08:53.321Z</time></trkpt><trkpt lat="42.2546257" lon="13.8114882"><ele>381.0</ele><time>2026-05-02T10:08:54.32Z</time></trkpt><trkpt lat="42.2546435" lon="13.8116378"><ele>381.0</ele><time>2026-05-02T10:08:56.325Z</time></trkpt><trkpt lat="42.2546549" lon="13.811745"><ele>381.0</ele><time>2026-05-02T10:08:58.321Z</time></trkpt><trkpt lat="42.2547042" lon="13.811829"><ele>381.0</ele><time>2026-05-02T10:09:00.334Z</time></trkpt><trkpt lat="42.2547849" lon="13.811777"><ele>381.0</ele><time>2026-05-02T10:09:02.329Z</time></trkpt><trkpt lat="42.254829" lon="13.8117125"><ele>381.0</ele><time>2026-05-02T10:09:03.333Z</time></trkpt><trkpt lat="42.2548826" lon="13.81163"><ele>381.0</ele><time>2026-05-02T10:09:04.322Z</time></trkpt><trkpt lat="42.2549413" lon="13.8115197"><ele>382.5</ele><time>2026-05-02T10:09:05.321Z</time></trkpt><trkpt lat="42.2550108" lon="13.8113988"><ele>384.0</ele><time>2026-05-02T10:09:06.329Z</time></trkpt><trkpt lat="42.2550991" lon="13.8112629"><ele>385.5</ele><time>2026-05-02T10:09:07.328Z</time></trkpt><trkpt lat="42.2551772" lon="13.8111211"><ele>387.0</ele><time>2026-05-02T10:09:08.331Z</time></trkpt><trkpt lat="42.2552457" lon="13.8109739"><ele>387.0</ele><time>2026-05-02T10:09:09.326Z</time></trkpt><trkpt lat="42.2553047" lon="13.8108167"><ele>387.0</ele><time>2026-05-02T10:09:10.332Z</time></trkpt><trkpt lat="42.2553496" lon="13.810665"><ele>387.0</ele><time>2026-05-02T10:09:11.324Z</time></trkpt><trkpt lat="42.2553884" lon="13.8105261"><ele>387.0</ele><time>2026-05-02T10:09:12.324Z</time></trkpt><trkpt lat="42.2554439" lon="13.8104014"><ele>387.0</ele><time>2026-05-02T10:09:13.326Z</time></trkpt><trkpt lat="42.2555195" lon="13.8102885"><ele>387.0</ele><time>2026-05-02T10:09:14.325Z</time></trkpt><trkpt lat="42.2556045" lon="13.8101731"><ele>387.0</ele><time>2026-05-02T10:09:15.328Z</time></trkpt><trkpt lat="42.2556838" lon="13.8100678"><ele>387.0</ele><time>2026-05-02T10:09:16.329Z</time></trkpt><trkpt lat="42.2557666" lon="13.8099621"><ele>387.25</ele><time>2026-05-02T10:09:17.336Z</time></trkpt><trkpt lat="42.2558456" lon="13.8098393"><ele>387.5</ele><time>2026-05-02T10:09:18.333Z</time></trkpt><trkpt lat="42.2559272" lon="13.8097025"><ele>387.75</ele><time>2026-05-02T10:09:19.33Z</time></trkpt><trkpt lat="42.2560068" lon="13.8095462"><ele>388.0</ele><time>2026-05-02T10:09:20.337Z</time></trkpt><trkpt lat="42.2560917" lon="13.8093919"><ele>387.5</ele><time>2026-05-02T10:09:21.331Z</time></trkpt><trkpt lat="42.2561617" lon="13.8092458"><ele>387.0</ele><time>2026-05-02T10:09:22.33Z</time></trkpt><trkpt lat="42.256231" lon="13.80911"><ele>386.5</ele><time>2026-05-02T10:09:23.338Z</time></trkpt><trkpt lat="42.2563178" lon="13.808991"><ele>386.0</ele><time>2026-05-02T10:09:24.331Z</time></trkpt><trkpt lat="42.2564216" lon="13.8088872"><ele>386.20000000000005</ele><time>2026-05-02T10:09:25.336Z</time></trkpt><trkpt lat="42.2565118" lon="13.8088057"><ele>386.40000000000003</ele><time>2026-05-02T10:09:26.349Z</time></trkpt><trkpt lat="42.2565753" lon="13.808733"><ele>386.6</ele><time>2026-05-02T10:09:27.42Z</time></trkpt><trkpt lat="42.2566493" lon="13.8086671"><ele>386.8</ele><time>2026-05-02T10:09:28.411Z</time></trkpt><trkpt lat="42.2567229" lon="13.8086129"><ele>387.0</ele><time>2026-05-02T10:09:29.414Z</time></trkpt><trkpt lat="42.2568069" lon="13.8085882"><ele>387.0</ele><time>2026-05-02T10:09:30.409Z</time></trkpt><trkpt lat="42.2568712" lon="13.8085753"><ele>387.0</ele><time>2026-05-02T10:09:31.406Z</time></trkpt><trkpt lat="42.2569428" lon="13.8085441"><ele>387.0</ele><time>2026-05-02T10:09:32.391Z</time></trkpt><trkpt lat="42.2570345" lon="13.808481"><ele>387.0</ele><time>2026-05-02T10:09:33.394Z</time></trkpt><trkpt lat="42.2571332" lon="13.8084049"><ele>387.0</ele><time>2026-05-02T10:09:34.392Z</time></trkpt><trkpt lat="42.2572415" lon="13.808321"><ele>386.25</ele><time>2026-05-02T10:09:35.397Z</time></trkpt><trkpt lat="42.2573682" lon="13.8081978"><ele>385.5</ele><time>2026-05-02T10:09:36.413Z</time></trkpt><trkpt lat="42.2574919" lon="13.8081163"><ele>384.75</ele><time>2026-05-02T10:09:37.415Z</time></trkpt><trkpt lat="42.2576119" lon="13.808022"><ele>384.0</ele><time>2026-05-02T10:09:38.418Z</time></trkpt><trkpt lat="42.2577264" lon="13.8079309"><ele>384.0</ele><time>2026-05-02T10:09:39.41Z</time></trkpt><trkpt lat="42.2578458" lon="13.8078299"><ele>384.0</ele><time>2026-05-02T10:09:40.41Z</time></trkpt><trkpt lat="42.2579648" lon="13.8077239"><ele>384.0</ele><time>2026-05-02T10:09:41.419Z</time></trkpt><trkpt lat="42.2580675" lon="13.8076341"><ele>384.0</ele><time>2026-05-02T10:09:42.409Z</time></trkpt><trkpt lat="42.258172" lon="13.8075414"><ele>382.5</ele><time>2026-05-02T10:09:43.413Z</time></trkpt><trkpt lat="42.2582863" lon="13.8074604"><ele>381.0</ele><time>2026-05-02T10:09:44.41Z</time></trkpt><trkpt lat="42.258413" lon="13.8074065"><ele>379.5</ele><time>2026-05-02T10:09:45.391Z</time></trkpt><trkpt lat="42.2585454" lon="13.8073602"><ele>378.0</ele><time>2026-05-02T10:09:46.392Z</time></trkpt><trkpt lat="42.258677" lon="13.8073347"><ele>378.0</ele><time>2026-05-02T10:09:47.398Z</time></trkpt><trkpt lat="42.2588229" lon="13.8072966"><ele>378.0</ele><time>2026-05-02T10:09:48.401Z</time></trkpt><trkpt lat="42.2589752" lon="13.8072161"><ele>378.0</ele><time>2026-05-02T10:09:49.414Z</time></trkpt><trkpt lat="42.2591207" lon="13.8071407"><ele>377.75</ele><time>2026-05-02T10:09:50.405Z</time></trkpt><trkpt lat="42.2592484" lon="13.8070585"><ele>377.5</ele><time>2026-05-02T10:09:51.407Z</time></trkpt><trkpt lat="42.2593596" lon="13.8069813"><ele>377.25</ele><time>2026-05-02T10:09:52.403Z</time></trkpt><trkpt lat="42.2594759" lon="13.8068944"><ele>377.0</ele><time>2026-05-02T10:09:53.393Z</time></trkpt><trkpt lat="42.2595881" lon="13.8067746"><ele>377.0</ele><time>2026-05-02T10:09:54.309Z</time></trkpt><trkpt lat="42.2597281" lon="13.8067015"><ele>377.0</ele><time>2026-05-02T10:09:55.305Z</time></trkpt><trkpt lat="42.2598485" lon="13.8066485"><ele>377.0</ele><time>2026-05-02T10:09:56.324Z</time></trkpt><trkpt lat="42.2599605" lon="13.8065941"><ele>377.0</ele><time>2026-05-02T10:09:57.32Z</time></trkpt><trkpt lat="42.2600805" lon="13.806528"><ele>377.0</ele><time>2026-05-02T10:09:58.323Z</time></trkpt><trkpt lat="42.260198" lon="13.806452"><ele>377.0</ele><time>2026-05-02T10:09:59.327Z</time></trkpt><trkpt lat="42.2603184" lon="13.8063566"><ele>377.0</ele><time>2026-05-02T10:10:00.328Z</time></trkpt><trkpt lat="42.2604313" lon="13.8062599"><ele>377.0</ele><time>2026-05-02T10:10:01.326Z</time></trkpt><trkpt lat="42.2605356" lon="13.8061716"><ele>377.0</ele><time>2026-05-02T10:10:02.327Z</time></trkpt><trkpt lat="42.2606373" lon="13.806095"><ele>377.0</ele><time>2026-05-02T10:10:03.328Z</time></trkpt><trkpt lat="42.260737" lon="13.8060276"><ele>377.0</ele><time>2026-05-02T10:10:04.329Z</time></trkpt><trkpt lat="42.2608291" lon="13.8059679"><ele>377.0</ele><time>2026-05-02T10:10:05.321Z</time></trkpt><trkpt lat="42.2609017" lon="13.8059229"><ele>377.0</ele><time>2026-05-02T10:10:06.326Z</time></trkpt><trkpt lat="42.2609588" lon="13.805886"><ele>376.5</ele><time>2026-05-02T10:10:07.328Z</time></trkpt><trkpt lat="42.2610169" lon="13.8058344"><ele>376.0</ele><time>2026-05-02T10:10:08.328Z</time></trkpt><trkpt lat="42.261067" lon="13.8057641"><ele>375.5</ele><time>2026-05-02T10:10:09.324Z</time></trkpt><trkpt lat="42.2611188" lon="13.8056921"><ele>375.0</ele><time>2026-05-02T10:10:10.324Z</time></trkpt><trkpt lat="42.2611713" lon="13.8056316"><ele>374.5</ele><time>2026-05-02T10:10:11.316Z</time></trkpt><trkpt lat="42.2612484" lon="13.8055939"><ele>374.0</ele><time>2026-05-02T10:10:12.321Z</time></trkpt><trkpt lat="42.2613663" lon="13.8055595"><ele>373.25</ele><time>2026-05-02T10:10:13.325Z</time></trkpt><trkpt lat="42.2614988" lon="13.8055215"><ele>372.5</ele><time>2026-05-02T10:10:14.325Z</time></trkpt><trkpt lat="42.2616263" lon="13.8054787"><ele>371.75</ele><time>2026-05-02T10:10:15.326Z</time></trkpt><trkpt lat="42.261757" lon="13.8054354"><ele>371.0</ele><time>2026-05-02T10:10:16.322Z</time></trkpt><trkpt lat="42.261892" lon="13.8053729"><ele>371.0</ele><time>2026-05-02T10:10:17.325Z</time></trkpt><trkpt lat="42.2620156" lon="13.8053113"><ele>371.0</ele><time>2026-05-02T10:10:18.326Z</time></trkpt><trkpt lat="42.262114" lon="13.8052697"><ele>371.0</ele><time>2026-05-02T10:10:19.333Z</time></trkpt><trkpt lat="42.2621822" lon="13.8052587"><ele>371.0</ele><time>2026-05-02T10:10:20.333Z</time></trkpt><trkpt lat="42.2622534" lon="13.80525"><ele>371.0</ele><time>2026-05-02T10:10:22.323Z</time></trkpt><trkpt lat="42.2623292" lon="13.8052539"><ele>370.8</ele><time>2026-05-02T10:10:30.337Z</time></trkpt><trkpt lat="42.2624284" lon="13.8053006"><ele>370.6</ele><time>2026-05-02T10:10:32.318Z</time></trkpt><trkpt lat="42.2625585" lon="13.8052986"><ele>370.4</ele><time>2026-05-02T10:10:34.317Z</time></trkpt><trkpt lat="42.2626424" lon="13.8052617"><ele>370.2</ele><time>2026-05-02T10:10:35.322Z</time></trkpt><trkpt lat="42.2627281" lon="13.8052299"><ele>370.0</ele><time>2026-05-02T10:10:36.325Z</time></trkpt><trkpt lat="42.2628129" lon="13.8052182"><ele>370.0</ele><time>2026-05-02T10:10:37.324Z</time></trkpt><trkpt lat="42.2629088" lon="13.8052095"><ele>370.0</ele><time>2026-05-02T10:10:38.32Z</time></trkpt><trkpt lat="42.2630134" lon="13.8051819"><ele>370.0</ele><time>2026-05-02T10:10:39.324Z</time></trkpt><trkpt lat="42.2631155" lon="13.8051526"><ele>370.0</ele><time>2026-05-02T10:10:40.321Z</time></trkpt><trkpt lat="42.2632206" lon="13.8051365"><ele>370.0</ele><time>2026-05-02T10:10:41.325Z</time></trkpt><trkpt lat="42.2633435" lon="13.8051146"><ele>368.75</ele><time>2026-05-02T10:10:42.326Z</time></trkpt><trkpt lat="42.2634647" lon="13.8050866"><ele>367.5</ele><time>2026-05-02T10:10:43.328Z</time></trkpt><trkpt lat="42.2635828" lon="13.8050698"><ele>366.25</ele><time>2026-05-02T10:10:44.323Z</time></trkpt><trkpt lat="42.2637027" lon="13.8050546"><ele>365.0</ele><time>2026-05-02T10:10:45.319Z</time></trkpt><trkpt lat="42.263809" lon="13.8050381"><ele>365.0</ele><time>2026-05-02T10:10:46.324Z</time></trkpt><trkpt lat="42.2639082" lon="13.8050232"><ele>365.0</ele><time>2026-05-02T10:10:47.326Z</time></trkpt><trkpt lat="42.2640123" lon="13.8050123"><ele>365.0</ele><time>2026-05-02T10:10:48.327Z</time></trkpt><trkpt lat="42.264129" lon="13.8050016"><ele>365.0</ele><time>2026-05-02T10:10:49.321Z</time></trkpt><trkpt lat="42.2642523" lon="13.8050066"><ele>365.0</ele><time>2026-05-02T10:10:50.334Z</time></trkpt><trkpt lat="42.2643821" lon="13.8050025"><ele>364.25</ele><time>2026-05-02T10:10:51.325Z</time></trkpt><trkpt lat="42.264517" lon="13.8049965"><ele>363.5</ele><time>2026-05-02T10:10:52.325Z</time></trkpt><trkpt lat="42.2646612" lon="13.8049727"><ele>362.75</ele><time>2026-05-02T10:10:53.317Z</time></trkpt><trkpt lat="42.2648166" lon="13.8049392"><ele>362.0</ele><time>2026-05-02T10:10:54.346Z</time></trkpt><trkpt lat="42.2649849" lon="13.8048875"><ele>360.6666666666667</ele><time>2026-05-02T10:10:55.33Z</time></trkpt><trkpt lat="42.2651492" lon="13.8048281"><ele>359.3333333333333</ele><time>2026-05-02T10:10:56.33Z</time></trkpt><trkpt lat="42.2653262" lon="13.8047828"><ele>358.0</ele><time>2026-05-02T10:10:57.337Z</time></trkpt><trkpt lat="42.2655019" lon="13.8047209"><ele>357.5</ele><time>2026-05-02T10:10:58.337Z</time></trkpt><trkpt lat="42.2656417" lon="13.8046646"><ele>357.0</ele><time>2026-05-02T10:10:59.321Z</time></trkpt><trkpt lat="42.2657744" lon="13.8046061"><ele>356.5</ele><time>2026-05-02T10:11:00.33Z</time></trkpt><trkpt lat="42.2659033" lon="13.8045461"><ele>356.0</ele><time>2026-05-02T10:11:01.325Z</time></trkpt><trkpt lat="42.2660229" lon="13.8044887"><ele>356.0</ele><time>2026-05-02T10:11:02.325Z</time></trkpt><trkpt lat="42.2661305" lon="13.8044506"><ele>356.0</ele><time>2026-05-02T10:11:03.325Z</time></trkpt><trkpt lat="42.2662389" lon="13.8044105"><ele>356.0</ele><time>2026-05-02T10:11:04.325Z</time></trkpt><trkpt lat="42.2663368" lon="13.8043657"><ele>356.0</ele><time>2026-05-02T10:11:05.321Z</time></trkpt><trkpt lat="42.2664515" lon="13.8042816"><ele>355.75</ele><time>2026-05-02T10:11:06.316Z</time></trkpt><trkpt lat="42.2665686" lon="13.8041864"><ele>355.5</ele><time>2026-05-02T10:11:07.329Z</time></trkpt><trkpt lat="42.2666758" lon="13.8040823"><ele>355.25</ele><time>2026-05-02T10:11:08.328Z</time></trkpt><trkpt lat="42.2667719" lon="13.803987"><ele>355.0</ele><time>2026-05-02T10:11:09.325Z</time></trkpt><trkpt lat="42.2668615" lon="13.8038811"><ele>355.0</ele><time>2026-05-02T10:11:10.329Z</time></trkpt><trkpt lat="42.2669321" lon="13.8037705"><ele>355.0</ele><time>2026-05-02T10:11:11.326Z</time></trkpt><trkpt lat="42.2669867" lon="13.8036483"><ele>355.0</ele><time>2026-05-02T10:11:12.325Z</time></trkpt><trkpt lat="42.2670311" lon="13.8035287"><ele>355.0</ele><time>2026-05-02T10:11:13.325Z</time></trkpt><trkpt lat="42.2670531" lon="13.8034092"><ele>355.0</ele><time>2026-05-02T10:11:14.333Z</time></trkpt><trkpt lat="42.2670751" lon="13.8033022"><ele>355.3333333333333</ele><time>2026-05-02T10:11:15.327Z</time></trkpt><trkpt lat="42.2671052" lon="13.8032076"><ele>355.66666666666663</ele><time>2026-05-02T10:11:16.331Z</time></trkpt><trkpt lat="42.2671466" lon="13.8031197"><ele>356.0</ele><time>2026-05-02T10:11:17.325Z</time></trkpt><trkpt lat="42.2672003" lon="13.8030303"><ele>356.3333333333333</ele><time>2026-05-02T10:11:18.33Z</time></trkpt><trkpt lat="42.2672569" lon="13.8029343"><ele>356.6666666666667</ele><time>2026-05-02T10:11:19.328Z</time></trkpt><trkpt lat="42.2673121" lon="13.8028637"><ele>357.0</ele><time>2026-05-02T10:11:20.331Z</time></trkpt><trkpt lat="42.2673631" lon="13.8028008"><ele>357.0</ele><time>2026-05-02T10:11:21.331Z</time></trkpt><trkpt lat="42.2674423" lon="13.8027044"><ele>357.0</ele><time>2026-05-02T10:11:23.323Z</time></trkpt><trkpt lat="42.2675006" lon="13.802641"><ele>357.0</ele><time>2026-05-02T10:11:26.331Z</time></trkpt><trkpt lat="42.2674947" lon="13.8025505"><ele>357.0</ele><time>2026-05-02T10:11:28.323Z</time></trkpt><trkpt lat="42.2675667" lon="13.802442"><ele>357.0</ele><time>2026-05-02T10:11:30.32Z</time></trkpt><trkpt lat="42.2676082" lon="13.8023667"><ele>357.0</ele><time>2026-05-02T10:11:31.317Z</time></trkpt><trkpt lat="42.2676525" lon="13.8022887"><ele>356.5</ele><time>2026-05-02T10:11:32.316Z</time></trkpt><trkpt lat="42.2677041" lon="13.8022245"><ele>356.0</ele><time>2026-05-02T10:11:33.316Z</time></trkpt><trkpt lat="42.2677637" lon="13.802155"><ele>355.5</ele><time>2026-05-02T10:11:34.316Z</time></trkpt><trkpt lat="42.267833" lon="13.8020886"><ele>355.0</ele><time>2026-05-02T10:11:35.321Z</time></trkpt><trkpt lat="42.2678862" lon="13.8020249"><ele>354.5</ele><time>2026-05-02T10:11:36.322Z</time></trkpt><trkpt lat="42.2679464" lon="13.801957"><ele>354.0</ele><time>2026-05-02T10:11:37.319Z</time></trkpt><trkpt lat="42.2680191" lon="13.8018792"><ele>353.79999999999995</ele><time>2026-05-02T10:11:38.322Z</time></trkpt><trkpt lat="42.2680943" lon="13.8017959"><ele>353.59999999999997</ele><time>2026-05-02T10:11:39.32Z</time></trkpt><trkpt lat="42.2681784" lon="13.8017023"><ele>353.4</ele><time>2026-05-02T10:11:40.321Z</time></trkpt><trkpt lat="42.2682673" lon="13.801603"><ele>353.2</ele><time>2026-05-02T10:11:41.32Z</time></trkpt><trkpt lat="42.2683638" lon="13.801507"><ele>353.0</ele><time>2026-05-02T10:11:42.323Z</time></trkpt><trkpt lat="42.2684593" lon="13.8014028"><ele>353.0</ele><time>2026-05-02T10:11:43.327Z</time></trkpt><trkpt lat="42.2685524" lon="13.8012943"><ele>353.0</ele><time>2026-05-02T10:11:44.337Z</time></trkpt><trkpt lat="42.2686393" lon="13.801189"><ele>353.0</ele><time>2026-05-02T10:11:45.341Z</time></trkpt><trkpt lat="42.2687335" lon="13.8010863"><ele>353.0</ele><time>2026-05-02T10:11:46.322Z</time></trkpt><trkpt lat="42.2688282" lon="13.8009889"><ele>352.75</ele><time>2026-05-02T10:11:47.325Z</time></trkpt><trkpt lat="42.268925" lon="13.8008999"><ele>352.5</ele><time>2026-05-02T10:11:48.325Z</time></trkpt><trkpt lat="42.2690154" lon="13.8008163"><ele>352.25</ele><time>2026-05-02T10:11:49.323Z</time></trkpt><trkpt lat="42.2691141" lon="13.8007318"><ele>352.0</ele><time>2026-05-02T10:11:50.323Z</time></trkpt><trkpt lat="42.2692323" lon="13.8006482"><ele>352.0</ele><time>2026-05-02T10:11:51.316Z</time></trkpt><trkpt lat="42.2693492" lon="13.8005952"><ele>352.0</ele><time>2026-05-02T10:11:52.321Z</time></trkpt><trkpt lat="42.269465" lon="13.8005592"><ele>352.0</ele><time>2026-05-02T10:11:53.32Z</time></trkpt><trkpt lat="42.2695814" lon="13.8005204"><ele>352.0</ele><time>2026-05-02T10:11:54.319Z</time></trkpt><trkpt lat="42.2696878" lon="13.800454"><ele>352.0</ele><time>2026-05-02T10:11:55.325Z</time></trkpt><trkpt lat="42.2697777" lon="13.8003669"><ele>352.0</ele><time>2026-05-02T10:11:56.311Z</time></trkpt><trkpt lat="42.2698692" lon="13.8002488"><ele>352.0</ele><time>2026-05-02T10:11:57.317Z</time></trkpt><trkpt lat="42.2699635" lon="13.8001277"><ele>352.0</ele><time>2026-05-02T10:11:58.325Z</time></trkpt><trkpt lat="42.2700537" lon="13.8000173"><ele>350.75</ele><time>2026-05-02T10:11:59.327Z</time></trkpt><trkpt lat="42.2701439" lon="13.7999156"><ele>349.5</ele><time>2026-05-02T10:12:00.328Z</time></trkpt><trkpt lat="42.2702414" lon="13.7998125"><ele>348.25</ele><time>2026-05-02T10:12:01.323Z</time></trkpt><trkpt lat="42.2703542" lon="13.7997137"><ele>347.0</ele><time>2026-05-02T10:12:02.317Z</time></trkpt><trkpt lat="42.2704831" lon="13.7996168"><ele>347.75</ele><time>2026-05-02T10:12:03.32Z</time></trkpt><trkpt lat="42.2706094" lon="13.7995466"><ele>348.5</ele><time>2026-05-02T10:12:04.319Z</time></trkpt><trkpt lat="42.2707197" lon="13.7994786"><ele>349.25</ele><time>2026-05-02T10:12:05.319Z</time></trkpt><trkpt lat="42.2708389" lon="13.7994371"><ele>350.0</ele><time>2026-05-02T10:12:06.314Z</time></trkpt><trkpt lat="42.2709954" lon="13.7993932"><ele>350.0</ele><time>2026-05-02T10:12:07.315Z</time></trkpt><trkpt lat="42.2711606" lon="13.7993434"><ele>350.0</ele><time>2026-05-02T10:12:08.321Z</time></trkpt><trkpt lat="42.2713003" lon="13.7992849"><ele>350.0</ele><time>2026-05-02T10:12:09.321Z</time></trkpt><trkpt lat="42.2714177" lon="13.799213"><ele>350.0</ele><time>2026-05-02T10:12:10.325Z</time></trkpt><trkpt lat="42.2715397" lon="13.799145"><ele>349.5</ele><time>2026-05-02T10:12:11.324Z</time></trkpt><trkpt lat="42.2716742" lon="13.7990764"><ele>349.0</ele><time>2026-05-02T10:12:12.322Z</time></trkpt><trkpt lat="42.2718188" lon="13.7990002"><ele>348.5</ele><time>2026-05-02T10:12:13.321Z</time></trkpt><trkpt lat="42.2719542" lon="13.7989272"><ele>348.0</ele><time>2026-05-02T10:12:14.315Z</time></trkpt><trkpt lat="42.2720614" lon="13.798859"><ele>348.0</ele><time>2026-05-02T10:12:15.323Z</time></trkpt><trkpt lat="42.2721847" lon="13.7987941"><ele>348.0</ele><time>2026-05-02T10:12:16.333Z</time></trkpt><trkpt lat="42.2722962" lon="13.7987275"><ele>348.0</ele><time>2026-05-02T10:12:17.325Z</time></trkpt><trkpt lat="42.2723924" lon="13.7986655"><ele>348.0</ele><time>2026-05-02T10:12:18.328Z</time></trkpt><trkpt lat="42.27248" lon="13.7985971"><ele>347.75</ele><time>2026-05-02T10:12:19.343Z</time></trkpt><trkpt lat="42.2725828" lon="13.7985166"><ele>347.5</ele><time>2026-05-02T10:12:20.409Z</time></trkpt><trkpt lat="42.272689" lon="13.7984457"><ele>347.25</ele><time>2026-05-02T10:12:21.407Z</time></trkpt><trkpt lat="42.272788" lon="13.7983733"><ele>347.0</ele><time>2026-05-02T10:12:22.419Z</time></trkpt><trkpt lat="42.2728761" lon="13.798302"><ele>347.0</ele><time>2026-05-02T10:12:23.415Z</time></trkpt><trkpt lat="42.2729667" lon="13.7982316"><ele>347.0</ele><time>2026-05-02T10:12:24.409Z</time></trkpt><trkpt lat="42.273054" lon="13.7981631"><ele>347.0</ele><time>2026-05-02T10:12:25.411Z</time></trkpt><trkpt lat="42.2731486" lon="13.7981064"><ele>347.0</ele><time>2026-05-02T10:12:26.416Z</time></trkpt><trkpt lat="42.273263" lon="13.7980558"><ele>347.0</ele><time>2026-05-02T10:12:27.399Z</time></trkpt><trkpt lat="42.273383" lon="13.7979939"><ele>348.6666666666667</ele><time>2026-05-02T10:12:28.397Z</time></trkpt><trkpt lat="42.2735151" lon="13.7979273"><ele>350.3333333333333</ele><time>2026-05-02T10:12:29.394Z</time></trkpt><trkpt lat="42.2736656" lon="13.7978581"><ele>352.0</ele><time>2026-05-02T10:12:30.391Z</time></trkpt><trkpt lat="42.2737777" lon="13.7976783"><ele>350.75</ele><time>2026-05-02T10:12:31.391Z</time></trkpt><trkpt lat="42.2738858" lon="13.7976071"><ele>349.5</ele><time>2026-05-02T10:12:32.411Z</time></trkpt><trkpt lat="42.2739928" lon="13.797538"><ele>348.25</ele><time>2026-05-02T10:12:33.417Z</time></trkpt><trkpt lat="42.2740904" lon="13.7974731"><ele>347.0</ele><time>2026-05-02T10:12:34.419Z</time></trkpt><trkpt lat="42.2741882" lon="13.7974052"><ele>347.0</ele><time>2026-05-02T10:12:35.411Z</time></trkpt><trkpt lat="42.2742861" lon="13.7973238"><ele>347.0</ele><time>2026-05-02T10:12:36.41Z</time></trkpt><trkpt lat="42.274378" lon="13.7972415"><ele>347.0</ele><time>2026-05-02T10:12:37.408Z</time></trkpt><trkpt lat="42.2744233" lon="13.7971106"><ele>347.0</ele><time>2026-05-02T10:12:38.327Z</time></trkpt><trkpt lat="42.2744917" lon="13.7970377"><ele>347.0</ele><time>2026-05-02T10:12:39.333Z</time></trkpt><trkpt lat="42.274574" lon="13.796969"><ele>347.0</ele><time>2026-05-02T10:12:40.334Z</time></trkpt><trkpt lat="42.2746744" lon="13.796895"><ele>347.0</ele><time>2026-05-02T10:12:41.33Z</time></trkpt><trkpt lat="42.2747755" lon="13.796832"><ele>347.0</ele><time>2026-05-02T10:12:42.327Z</time></trkpt><trkpt lat="42.2748664" lon="13.7967618"><ele>347.0</ele><time>2026-05-02T10:12:43.33Z</time></trkpt><trkpt lat="42.2749487" lon="13.7967104"><ele>347.0</ele><time>2026-05-02T10:12:44.331Z</time></trkpt><trkpt lat="42.2750362" lon="13.7966498"><ele>347.0</ele><time>2026-05-02T10:12:45.331Z</time></trkpt><trkpt lat="42.2751292" lon="13.7965928"><ele>347.0</ele><time>2026-05-02T10:12:46.336Z</time></trkpt><trkpt lat="42.275206" lon="13.7965123"><ele>347.0</ele><time>2026-05-02T10:12:47.327Z</time></trkpt><trkpt lat="42.2752823" lon="13.7964175"><ele>347.0</ele><time>2026-05-02T10:12:48.335Z</time></trkpt><trkpt lat="42.2753522" lon="13.7963319"><ele>347.0</ele><time>2026-05-02T10:12:49.331Z</time></trkpt><trkpt lat="42.2754252" lon="13.7962761"><ele>347.0</ele><time>2026-05-02T10:12:50.326Z</time></trkpt><trkpt lat="42.2755081" lon="13.7962366"><ele>347.0</ele><time>2026-05-02T10:12:51.329Z</time></trkpt><trkpt lat="42.275608" lon="13.7962101"><ele>347.0</ele><time>2026-05-02T10:12:52.325Z</time></trkpt><trkpt lat="42.2757173" lon="13.7961632"><ele>347.0</ele><time>2026-05-02T10:12:53.326Z</time></trkpt><trkpt lat="42.2758128" lon="13.7961063"><ele>347.0</ele><time>2026-05-02T10:12:54.329Z</time></trkpt><trkpt lat="42.2759106" lon="13.7960243"><ele>347.0</ele><time>2026-05-02T10:12:55.319Z</time></trkpt><trkpt lat="42.2760223" lon="13.7959187"><ele>347.0</ele><time>2026-05-02T10:12:56.318Z</time></trkpt><trkpt lat="42.2761258" lon="13.7957904"><ele>347.0</ele><time>2026-05-02T10:12:57.335Z</time></trkpt><trkpt lat="42.2762139" lon="13.7956811"><ele>347.0</ele><time>2026-05-02T10:12:58.328Z</time></trkpt><trkpt lat="42.2762873" lon="13.7955968"><ele>347.0</ele><time>2026-05-02T10:12:59.327Z</time></trkpt><trkpt lat="42.276358" lon="13.7955057"><ele>347.0</ele><time>2026-05-02T10:13:00.33Z</time></trkpt><trkpt lat="42.2764414" lon="13.7954266"><ele>347.0</ele><time>2026-05-02T10:13:01.326Z</time></trkpt><trkpt lat="42.2765379" lon="13.7953533"><ele>347.0</ele><time>2026-05-02T10:13:02.323Z</time></trkpt><trkpt lat="42.2766289" lon="13.7953023"><ele>347.0</ele><time>2026-05-02T10:13:03.317Z</time></trkpt><trkpt lat="42.2767173" lon="13.795259"><ele>347.20000000000005</ele><time>2026-05-02T10:13:04.326Z</time></trkpt><trkpt lat="42.2768054" lon="13.7952207"><ele>347.4</ele><time>2026-05-02T10:13:05.329Z</time></trkpt><trkpt lat="42.2768844" lon="13.7951898"><ele>347.6</ele><time>2026-05-02T10:13:06.329Z</time></trkpt><trkpt lat="42.2769606" lon="13.7951682"><ele>347.79999999999995</ele><time>2026-05-02T10:13:07.327Z</time></trkpt><trkpt lat="42.2770579" lon="13.7951484"><ele>348.0</ele><time>2026-05-02T10:13:08.321Z</time></trkpt><trkpt lat="42.2771775" lon="13.7951338"><ele>348.2</ele><time>2026-05-02T10:13:09.325Z</time></trkpt><trkpt lat="42.2773059" lon="13.795123"><ele>348.4</ele><time>2026-05-02T10:13:10.328Z</time></trkpt><trkpt lat="42.2774214" lon="13.7951064"><ele>348.59999999999997</ele><time>2026-05-02T10:13:11.323Z</time></trkpt><trkpt lat="42.2775155" lon="13.7950829"><ele>348.79999999999995</ele><time>2026-05-02T10:13:12.324Z</time></trkpt><trkpt lat="42.2775906" lon="13.795071"><ele>349.0</ele><time>2026-05-02T10:13:13.33Z</time></trkpt><trkpt lat="42.2776565" lon="13.7950705"><ele>349.0</ele><time>2026-05-02T10:13:14.33Z</time></trkpt><trkpt lat="42.2777349" lon="13.795076"><ele>349.0</ele><time>2026-05-02T10:13:15.321Z</time></trkpt><trkpt lat="42.2778301" lon="13.7950901"><ele>349.0</ele><time>2026-05-02T10:13:16.325Z</time></trkpt><trkpt lat="42.2779245" lon="13.7951054"><ele>349.0</ele><time>2026-05-02T10:13:17.332Z</time></trkpt><trkpt lat="42.277999" lon="13.7951286"><ele>349.0</ele><time>2026-05-02T10:13:18.327Z</time></trkpt><trkpt lat="42.2780767" lon="13.79516"><ele>349.0</ele><time>2026-05-02T10:13:19.326Z</time></trkpt><trkpt lat="42.278164" lon="13.7951907"><ele>350.2</ele><time>2026-05-02T10:13:20.328Z</time></trkpt><trkpt lat="42.2782678" lon="13.7952117"><ele>351.4</ele><time>2026-05-02T10:13:21.329Z</time></trkpt><trkpt lat="42.2783686" lon="13.7952346"><ele>352.6</ele><time>2026-05-02T10:13:22.328Z</time></trkpt><trkpt lat="42.2784684" lon="13.795259"><ele>353.8</ele><time>2026-05-02T10:13:23.33Z</time></trkpt><trkpt lat="42.2785715" lon="13.7952865"><ele>355.0</ele><time>2026-05-02T10:13:24.327Z</time></trkpt><trkpt lat="42.2786791" lon="13.7953072"><ele>355.0</ele><time>2026-05-02T10:13:25.33Z</time></trkpt><trkpt lat="42.2787757" lon="13.7953227"><ele>355.0</ele><time>2026-05-02T10:13:26.324Z</time></trkpt><trkpt lat="42.2788643" lon="13.7953191"><ele>355.0</ele><time>2026-05-02T10:13:27.319Z</time></trkpt><trkpt lat="42.2789497" lon="13.7952896"><ele>355.0</ele><time>2026-05-02T10:13:28.334Z</time></trkpt><trkpt lat="42.2790371" lon="13.7952424"><ele>355.0</ele><time>2026-05-02T10:13:29.329Z</time></trkpt><trkpt lat="42.2791279" lon="13.7952045"><ele>354.4</ele><time>2026-05-02T10:13:30.331Z</time></trkpt><trkpt lat="42.2792117" lon="13.7951859"><ele>353.8</ele><time>2026-05-02T10:13:31.328Z</time></trkpt><trkpt lat="42.2792994" lon="13.7951708"><ele>353.20000000000005</ele><time>2026-05-02T10:13:32.329Z</time></trkpt><trkpt lat="42.2793802" lon="13.7951349"><ele>352.6</ele><time>2026-05-02T10:13:33.326Z</time></trkpt><trkpt lat="42.2794702" lon="13.7950781"><ele>352.0</ele><time>2026-05-02T10:13:34.326Z</time></trkpt><trkpt lat="42.2795621" lon="13.7950134"><ele>349.5</ele><time>2026-05-02T10:13:35.326Z</time></trkpt><trkpt lat="42.2796492" lon="13.7949396"><ele>347.0</ele><time>2026-05-02T10:13:36.33Z</time></trkpt><trkpt lat="42.2797511" lon="13.7948461"><ele>344.5</ele><time>2026-05-02T10:13:37.318Z</time></trkpt><trkpt lat="42.2798678" lon="13.7947421"><ele>342.0</ele><time>2026-05-02T10:13:38.327Z</time></trkpt><trkpt lat="42.2799883" lon="13.7946289"><ele>342.0</ele><time>2026-05-02T10:13:39.328Z</time></trkpt><trkpt lat="42.2801097" lon="13.7945125"><ele>342.0</ele><time>2026-05-02T10:13:40.33Z</time></trkpt><trkpt lat="42.2802381" lon="13.7943986"><ele>342.0</ele><time>2026-05-02T10:13:41.328Z</time></trkpt><trkpt lat="42.2803638" lon="13.7942817"><ele>342.0</ele><time>2026-05-02T10:13:42.329Z</time></trkpt><trkpt lat="42.280491" lon="13.7941659"><ele>342.0</ele><time>2026-05-02T10:13:43.325Z</time></trkpt><trkpt lat="42.280613" lon="13.7940552"><ele>342.0</ele><time>2026-05-02T10:13:44.333Z</time></trkpt><trkpt lat="42.2807486" lon="13.793942"><ele>342.0</ele><time>2026-05-02T10:13:45.324Z</time></trkpt><trkpt lat="42.2808773" lon="13.7938435"><ele>342.0</ele><time>2026-05-02T10:13:46.326Z</time></trkpt><trkpt lat="42.2810281" lon="13.7937735"><ele>342.0</ele><time>2026-05-02T10:13:47.321Z</time></trkpt><trkpt lat="42.2811765" lon="13.7937132"><ele>342.0</ele><time>2026-05-02T10:13:48.337Z</time></trkpt><trkpt lat="42.2813118" lon="13.7936395"><ele>342.0</ele><time>2026-05-02T10:13:49.326Z</time></trkpt><trkpt lat="42.2814321" lon="13.793573"><ele>342.0</ele><time>2026-05-02T10:13:50.329Z</time></trkpt><trkpt lat="42.2815493" lon="13.7935039"><ele>342.0</ele><time>2026-05-02T10:13:51.326Z</time></trkpt><trkpt lat="42.2816623" lon="13.7934358"><ele>342.0</ele><time>2026-05-02T10:13:52.331Z</time></trkpt><trkpt lat="42.2817631" lon="13.7933642"><ele>342.0</ele><time>2026-05-02T10:13:53.33Z</time></trkpt><trkpt lat="42.2818512" lon="13.7932897"><ele>342.0</ele><time>2026-05-02T10:13:54.328Z</time></trkpt><trkpt lat="42.2819443" lon="13.7932014"><ele>342.0</ele><time>2026-05-02T10:13:55.325Z</time></trkpt><trkpt lat="42.2820472" lon="13.7931252"><ele>342.0</ele><time>2026-05-02T10:13:56.337Z</time></trkpt><trkpt lat="42.2821578" lon="13.7930389"><ele>342.25</ele><time>2026-05-02T10:13:57.333Z</time></trkpt><trkpt lat="42.2822702" lon="13.7929217"><ele>342.5</ele><time>2026-05-02T10:13:58.333Z</time></trkpt><trkpt lat="42.2823837" lon="13.7928002"><ele>342.75</ele><time>2026-05-02T10:13:59.335Z</time></trkpt><trkpt lat="42.2824811" lon="13.7926638"><ele>343.0</ele><time>2026-05-02T10:14:00.322Z</time></trkpt><trkpt lat="42.2825489" lon="13.7925478"><ele>343.0</ele><time>2026-05-02T10:14:01.317Z</time></trkpt><trkpt lat="42.2825945" lon="13.7924565"><ele>343.0</ele><time>2026-05-02T10:14:02.316Z</time></trkpt><trkpt lat="42.2826216" lon="13.7923249"><ele>343.0</ele><time>2026-05-02T10:14:04.322Z</time></trkpt><trkpt lat="42.2826425" lon="13.7922374"><ele>343.0</ele><time>2026-05-02T10:14:06.33Z</time></trkpt><trkpt lat="42.2827171" lon="13.7921542"><ele>343.0</ele><time>2026-05-02T10:14:08.329Z</time></trkpt><trkpt lat="42.2827752" lon="13.7921025"><ele>343.0</ele><time>2026-05-02T10:14:09.317Z</time></trkpt><trkpt lat="42.2828391" lon="13.7920444"><ele>343.0</ele><time>2026-05-02T10:14:10.323Z</time></trkpt><trkpt lat="42.2829098" lon="13.7919893"><ele>343.0</ele><time>2026-05-02T10:14:11.323Z</time></trkpt><trkpt lat="42.2829726" lon="13.7919297"><ele>343.0</ele><time>2026-05-02T10:14:12.328Z</time></trkpt><trkpt lat="42.2830266" lon="13.7918789"><ele>343.0</ele><time>2026-05-02T10:14:13.325Z</time></trkpt><trkpt lat="42.2830843" lon="13.7918225"><ele>343.0</ele><time>2026-05-02T10:14:14.328Z</time></trkpt><trkpt lat="42.2831465" lon="13.7917686"><ele>343.0</ele><time>2026-05-02T10:14:15.328Z</time></trkpt><trkpt lat="42.2832121" lon="13.7917108"><ele>343.0</ele><time>2026-05-02T10:14:16.327Z</time></trkpt><trkpt lat="42.2832837" lon="13.791649"><ele>343.66666666666663</ele><time>2026-05-02T10:14:17.323Z</time></trkpt><trkpt lat="42.2833529" lon="13.7915867"><ele>344.3333333333333</ele><time>2026-05-02T10:14:18.326Z</time></trkpt><trkpt lat="42.2834303" lon="13.7915255"><ele>345.0</ele><time>2026-05-02T10:14:19.333Z</time></trkpt><trkpt lat="42.2835038" lon="13.7914744"><ele>345.6666666666667</ele><time>2026-05-02T10:14:20.326Z</time></trkpt><trkpt lat="42.2835713" lon="13.7914276"><ele>346.33333333333337</ele><time>2026-05-02T10:14:21.324Z</time></trkpt><trkpt lat="42.283657" lon="13.7913596"><ele>347.0</ele><time>2026-05-02T10:14:23.323Z</time></trkpt><trkpt lat="42.2837206" lon="13.7913112"><ele>347.0</ele><time>2026-05-02T10:14:25.334Z</time></trkpt><trkpt lat="42.2837691" lon="13.7912505"><ele>347.0</ele><time>2026-05-02T10:14:27.343Z</time></trkpt><trkpt lat="42.283734" lon="13.7911457"><ele>347.0</ele><time>2026-05-02T10:14:29.328Z</time></trkpt><trkpt lat="42.2836643" lon="13.7910742"><ele>347.0</ele><time>2026-05-02T10:14:30.331Z</time></trkpt><trkpt lat="42.2835712" lon="13.7909935"><ele>347.0</ele><time>2026-05-02T10:14:31.323Z</time></trkpt><trkpt lat="42.2834673" lon="13.7909063"><ele>347.25</ele><time>2026-05-02T10:14:32.329Z</time></trkpt><trkpt lat="42.2833674" lon="13.790802"><ele>347.5</ele><time>2026-05-02T10:14:33.326Z</time></trkpt><trkpt lat="42.2832695" lon="13.7906933"><ele>347.75</ele><time>2026-05-02T10:14:34.328Z</time></trkpt><trkpt lat="42.2831905" lon="13.7905827"><ele>348.0</ele><time>2026-05-02T10:14:35.328Z</time></trkpt><trkpt lat="42.2831256" lon="13.7904834"><ele>348.0</ele><time>2026-05-02T10:14:36.322Z</time></trkpt><trkpt lat="42.2830713" lon="13.790402"><ele>348.0</ele><time>2026-05-02T10:14:37.329Z</time></trkpt><trkpt lat="42.2830342" lon="13.7902495"><ele>348.0</ele><time>2026-05-02T10:14:39.318Z</time></trkpt><trkpt lat="42.2830501" lon="13.7901547"><ele>348.0</ele><time>2026-05-02T10:14:40.318Z</time></trkpt><trkpt lat="42.2830744" lon="13.7900605"><ele>348.0</ele><time>2026-05-02T10:14:41.312Z</time></trkpt><trkpt lat="42.2830948" lon="13.7899242"><ele>348.0</ele><time>2026-05-02T10:14:43.311Z</time></trkpt><trkpt lat="42.2831084" lon="13.7898163"><ele>348.0</ele><time>2026-05-02T10:14:45.321Z</time></trkpt><trkpt lat="42.2831361" lon="13.7897362"><ele>348.0</ele><time>2026-05-02T10:14:47.32Z</time></trkpt><trkpt lat="42.2831685" lon="13.7896526"><ele>348.0</ele><time>2026-05-02T10:14:49.319Z</time></trkpt><trkpt lat="42.2831967" lon="13.7895398"><ele>348.0</ele><time>2026-05-02T10:14:51.313Z</time></trkpt><trkpt lat="42.283226" lon="13.7894448"><ele>348.0</ele><time>2026-05-02T10:14:53.32Z</time></trkpt><trkpt lat="42.2832436" lon="13.7893575"><ele>348.0</ele><time>2026-05-02T10:14:55.318Z</time></trkpt><trkpt lat="42.2832577" lon="13.7892469"><ele>348.0</ele><time>2026-05-02T10:14:57.327Z</time></trkpt><trkpt lat="42.2832784" lon="13.7890985"><ele>347.4</ele><time>2026-05-02T10:14:59.308Z</time></trkpt><trkpt lat="42.2833085" lon="13.7889519"><ele>346.79999999999995</ele><time>2026-05-02T10:15:01.309Z</time></trkpt><trkpt lat="42.28334" lon="13.7888531"><ele>346.2</ele><time>2026-05-02T10:15:02.309Z</time></trkpt><trkpt lat="42.2833683" lon="13.7887451"><ele>345.6</ele><time>2026-05-02T10:15:03.325Z</time></trkpt><trkpt lat="42.2833918" lon="13.788633"><ele>345.0</ele><time>2026-05-02T10:15:04.313Z</time></trkpt><trkpt lat="42.2834126" lon="13.7885124"><ele>344.2</ele><time>2026-05-02T10:15:05.321Z</time></trkpt><trkpt lat="42.283426" lon="13.7883953"><ele>343.4</ele><time>2026-05-02T10:15:06.32Z</time></trkpt><trkpt lat="42.2834334" lon="13.7882737"><ele>342.6</ele><time>2026-05-02T10:15:07.314Z</time></trkpt><trkpt lat="42.2834178" lon="13.7881418"><ele>341.8</ele><time>2026-05-02T10:15:08.311Z</time></trkpt><trkpt lat="42.2833982" lon="13.7880006"><ele>341.0</ele><time>2026-05-02T10:15:09.378Z</time></trkpt><trkpt lat="42.2833622" lon="13.7878576"><ele>341.0</ele><time>2026-05-02T10:15:10.39Z</time></trkpt><trkpt lat="42.2833181" lon="13.7877234"><ele>341.0</ele><time>2026-05-02T10:15:11.39Z</time></trkpt><trkpt lat="42.2832789" lon="13.7876133"><ele>341.0</ele><time>2026-05-02T10:15:12.375Z</time></trkpt><trkpt lat="42.2832398" lon="13.7875101"><ele>341.0</ele><time>2026-05-02T10:15:13.374Z</time></trkpt><trkpt lat="42.2831994" lon="13.7874256"><ele>341.0</ele><time>2026-05-02T10:15:14.381Z</time></trkpt><trkpt lat="42.2831545" lon="13.7873413"><ele>341.0</ele><time>2026-05-02T10:15:15.376Z</time></trkpt><trkpt lat="42.283084" lon="13.7872655"><ele>341.0</ele><time>2026-05-02T10:15:16.395Z</time></trkpt><trkpt lat="42.2830467" lon="13.7871805"><ele>341.0</ele><time>2026-05-02T10:15:17.395Z</time></trkpt><trkpt lat="42.2830053" lon="13.7870952"><ele>341.0</ele><time>2026-05-02T10:15:18.402Z</time></trkpt><trkpt lat="42.2829578" lon="13.7870025"><ele>341.0</ele><time>2026-05-02T10:15:19.393Z</time></trkpt><trkpt lat="42.2828975" lon="13.7869033"><ele>341.0</ele><time>2026-05-02T10:15:20.394Z</time></trkpt><trkpt lat="42.2828375" lon="13.7867933"><ele>341.0</ele><time>2026-05-02T10:15:21.39Z</time></trkpt><trkpt lat="42.2827745" lon="13.7866548"><ele>341.0</ele><time>2026-05-02T10:15:22.393Z</time></trkpt><trkpt lat="42.2827078" lon="13.7865091"><ele>341.0</ele><time>2026-05-02T10:15:23.398Z</time></trkpt><trkpt lat="42.2826502" lon="13.7863688"><ele>341.0</ele><time>2026-05-02T10:15:24.398Z</time></trkpt><trkpt lat="42.2825912" lon="13.7862224"><ele>341.0</ele><time>2026-05-02T10:15:25.401Z</time></trkpt><trkpt lat="42.2825324" lon="13.7860644"><ele>340.75</ele><time>2026-05-02T10:15:26.393Z</time></trkpt><trkpt lat="42.2824759" lon="13.7858978"><ele>340.5</ele><time>2026-05-02T10:15:27.395Z</time></trkpt><trkpt lat="42.2824159" lon="13.7857356"><ele>340.25</ele><time>2026-05-02T10:15:28.404Z</time></trkpt><trkpt lat="42.2823651" lon="13.7855837"><ele>340.0</ele><time>2026-05-02T10:15:29.378Z</time></trkpt><trkpt lat="42.282322" lon="13.7854346"><ele>340.0</ele><time>2026-05-02T10:15:30.385Z</time></trkpt><trkpt lat="42.2822768" lon="13.785273"><ele>340.0</ele><time>2026-05-02T10:15:31.377Z</time></trkpt><trkpt lat="42.2822316" lon="13.7851052"><ele>340.0</ele><time>2026-05-02T10:15:32.388Z</time></trkpt><trkpt lat="42.2821818" lon="13.7849292"><ele>340.0</ele><time>2026-05-02T10:15:33.398Z</time></trkpt><trkpt lat="42.282131" lon="13.7847511"><ele>340.0</ele><time>2026-05-02T10:15:34.405Z</time></trkpt><trkpt lat="42.2820804" lon="13.7845677"><ele>340.0</ele><time>2026-05-02T10:15:35.403Z</time></trkpt><trkpt lat="42.2820289" lon="13.7843783"><ele>340.0</ele><time>2026-05-02T10:15:36.399Z</time></trkpt><trkpt lat="42.2819832" lon="13.7842006"><ele>340.0</ele><time>2026-05-02T10:15:37.399Z</time></trkpt><trkpt lat="42.2819383" lon="13.7840191"><ele>340.0</ele><time>2026-05-02T10:15:38.399Z</time></trkpt><trkpt lat="42.2818912" lon="13.7838323"><ele>340.0</ele><time>2026-05-02T10:15:39.398Z</time></trkpt><trkpt lat="42.2818433" lon="13.783639"><ele>340.0</ele><time>2026-05-02T10:15:40.399Z</time></trkpt><trkpt lat="42.2817959" lon="13.7834519"><ele>340.0</ele><time>2026-05-02T10:15:41.4Z</time></trkpt><trkpt lat="42.281738" lon="13.7832578"><ele>339.66666666666663</ele><time>2026-05-02T10:15:42.398Z</time></trkpt><trkpt lat="42.281679" lon="13.7830659"><ele>339.3333333333333</ele><time>2026-05-02T10:15:43.4Z</time></trkpt><trkpt lat="42.2816134" lon="13.7828748"><ele>339.0</ele><time>2026-05-02T10:15:44.395Z</time></trkpt><trkpt lat="42.2815494" lon="13.7827012"><ele>339.75</ele><time>2026-05-02T10:15:45.394Z</time></trkpt><trkpt lat="42.2814892" lon="13.7825349"><ele>340.5</ele><time>2026-05-02T10:15:46.401Z</time></trkpt><trkpt lat="42.2814239" lon="13.7823541"><ele>341.25</ele><time>2026-05-02T10:15:47.399Z</time></trkpt><trkpt lat="42.2813478" lon="13.7821615"><ele>342.0</ele><time>2026-05-02T10:15:48.401Z</time></trkpt><trkpt lat="42.2812785" lon="13.7819554"><ele>342.0</ele><time>2026-05-02T10:15:49.404Z</time></trkpt><trkpt lat="42.2812206" lon="13.781763"><ele>342.0</ele><time>2026-05-02T10:15:50.402Z</time></trkpt><trkpt lat="42.2811633" lon="13.7815749"><ele>342.0</ele><time>2026-05-02T10:15:51.401Z</time></trkpt><trkpt lat="42.2811012" lon="13.7813913"><ele>342.0</ele><time>2026-05-02T10:15:52.413Z</time></trkpt><trkpt lat="42.2810505" lon="13.7812114"><ele>342.0</ele><time>2026-05-02T10:15:53.398Z</time></trkpt><trkpt lat="42.2809968" lon="13.7810212"><ele>342.0</ele><time>2026-05-02T10:15:54.398Z</time></trkpt><trkpt lat="42.2809468" lon="13.7808293"><ele>342.0</ele><time>2026-05-02T10:15:55.397Z</time></trkpt><trkpt lat="42.2809044" lon="13.7806481"><ele>341.75</ele><time>2026-05-02T10:15:56.397Z</time></trkpt><trkpt lat="42.2808677" lon="13.7804856"><ele>341.5</ele><time>2026-05-02T10:15:57.401Z</time></trkpt><trkpt lat="42.2808283" lon="13.780319"><ele>341.25</ele><time>2026-05-02T10:15:58.404Z</time></trkpt><trkpt lat="42.2807922" lon="13.7801507"><ele>341.0</ele><time>2026-05-02T10:15:59.407Z</time></trkpt><trkpt lat="42.2807489" lon="13.7799805"><ele>341.75</ele><time>2026-05-02T10:16:00.4Z</time></trkpt><trkpt lat="42.2806974" lon="13.7798135"><ele>342.5</ele><time>2026-05-02T10:16:01.396Z</time></trkpt><trkpt lat="42.2806487" lon="13.7796653"><ele>343.25</ele><time>2026-05-02T10:16:02.387Z</time></trkpt><trkpt lat="42.2805901" lon="13.7795261"><ele>344.0</ele><time>2026-05-02T10:16:03.399Z</time></trkpt><trkpt lat="42.2805274" lon="13.7793955"><ele>344.5</ele><time>2026-05-02T10:16:04.314Z</time></trkpt><trkpt lat="42.28047" lon="13.7792387"><ele>345.0</ele><time>2026-05-02T10:16:05.312Z</time></trkpt><trkpt lat="42.2804157" lon="13.7790721"><ele>345.5</ele><time>2026-05-02T10:16:06.305Z</time></trkpt><trkpt lat="42.2803797" lon="13.7788931"><ele>346.0</ele><time>2026-05-02T10:16:07.312Z</time></trkpt><trkpt lat="42.2803539" lon="13.7787347"><ele>346.0</ele><time>2026-05-02T10:16:08.311Z</time></trkpt><trkpt lat="42.2803336" lon="13.7785673"><ele>346.0</ele><time>2026-05-02T10:16:09.309Z</time></trkpt><trkpt lat="42.280311" lon="13.7783728"><ele>346.0</ele><time>2026-05-02T10:16:10.312Z</time></trkpt><trkpt lat="42.2802947" lon="13.7781704"><ele>346.0</ele><time>2026-05-02T10:16:11.31Z</time></trkpt><trkpt lat="42.2802672" lon="13.7779586"><ele>346.0</ele><time>2026-05-02T10:16:12.312Z</time></trkpt><trkpt lat="42.2802462" lon="13.7777455"><ele>346.0</ele><time>2026-05-02T10:16:13.315Z</time></trkpt><trkpt lat="42.2802197" lon="13.7775384"><ele>346.0</ele><time>2026-05-02T10:16:14.312Z</time></trkpt><trkpt lat="42.2801938" lon="13.7773399"><ele>346.0</ele><time>2026-05-02T10:16:15.306Z</time></trkpt><trkpt lat="42.2801642" lon="13.7771606"><ele>346.0</ele><time>2026-05-02T10:16:16.312Z</time></trkpt><trkpt lat="42.2801347" lon="13.7769901"><ele>346.0</ele><time>2026-05-02T10:16:17.31Z</time></trkpt><trkpt lat="42.2800966" lon="13.776823"><ele>346.0</ele><time>2026-05-02T10:16:18.311Z</time></trkpt><trkpt lat="42.2800628" lon="13.7766554"><ele>346.0</ele><time>2026-05-02T10:16:19.311Z</time></trkpt><trkpt lat="42.280036" lon="13.7765049"><ele>346.0</ele><time>2026-05-02T10:16:20.313Z</time></trkpt><trkpt lat="42.2800045" lon="13.7763647"><ele>346.0</ele><time>2026-05-02T10:16:21.307Z</time></trkpt><trkpt lat="42.2799844" lon="13.776216"><ele>346.0</ele><time>2026-05-02T10:16:22.315Z</time></trkpt><trkpt lat="42.2799691" lon="13.7760642"><ele>346.0</ele><time>2026-05-02T10:16:23.321Z</time></trkpt><trkpt lat="42.2799497" lon="13.7759186"><ele>346.16666666666663</ele><time>2026-05-02T10:16:24.311Z</time></trkpt><trkpt lat="42.2799425" lon="13.7757723"><ele>346.3333333333333</ele><time>2026-05-02T10:16:25.311Z</time></trkpt><trkpt lat="42.2799441" lon="13.775625"><ele>346.5</ele><time>2026-05-02T10:16:26.309Z</time></trkpt><trkpt lat="42.279956" lon="13.775502"><ele>346.6666666666667</ele><time>2026-05-02T10:16:27.303Z</time></trkpt><trkpt lat="42.2799627" lon="13.7754164"><ele>346.83333333333337</ele><time>2026-05-02T10:16:28.304Z</time></trkpt><trkpt lat="42.280002" lon="13.7753366"><ele>347.0</ele><time>2026-05-02T10:16:30.311Z</time></trkpt><trkpt lat="42.2800665" lon="13.7752943"><ele>347.0</ele><time>2026-05-02T10:16:31.304Z</time></trkpt><trkpt lat="42.2801566" lon="13.7752526"><ele>347.0</ele><time>2026-05-02T10:16:32.3Z</time></trkpt><trkpt lat="42.2802675" lon="13.7752009"><ele>347.0</ele><time>2026-05-02T10:16:33.309Z</time></trkpt><trkpt lat="42.2803861" lon="13.7751469"><ele>347.0</ele><time>2026-05-02T10:16:34.317Z</time></trkpt><trkpt lat="42.2805009" lon="13.7750763"><ele>347.0</ele><time>2026-05-02T10:16:35.31Z</time></trkpt><trkpt lat="42.2806096" lon="13.7750002"><ele>347.0</ele><time>2026-05-02T10:16:36.311Z</time></trkpt><trkpt lat="42.280711" lon="13.7749439"><ele>347.0</ele><time>2026-05-02T10:16:37.311Z</time></trkpt><trkpt lat="42.2808045" lon="13.7748848"><ele>347.0</ele><time>2026-05-02T10:16:38.315Z</time></trkpt><trkpt lat="42.2809024" lon="13.7748135"><ele>347.0</ele><time>2026-05-02T10:16:39.315Z</time></trkpt><trkpt lat="42.281003" lon="13.7747382"><ele>347.0</ele><time>2026-05-02T10:16:40.313Z</time></trkpt><trkpt lat="42.2810922" lon="13.774681"><ele>347.0</ele><time>2026-05-02T10:16:41.315Z</time></trkpt><trkpt lat="42.281165" lon="13.7746339"><ele>347.0</ele><time>2026-05-02T10:16:42.315Z</time></trkpt><trkpt lat="42.2812376" lon="13.7745898"><ele>347.0</ele><time>2026-05-02T10:16:43.317Z</time></trkpt><trkpt lat="42.2813069" lon="13.7745545"><ele>347.0</ele><time>2026-05-02T10:16:44.316Z</time></trkpt><trkpt lat="42.2813687" lon="13.7745152"><ele>347.0</ele><time>2026-05-02T10:16:45.312Z</time></trkpt><trkpt lat="42.281461" lon="13.7744626"><ele>347.33333333333337</ele><time>2026-05-02T10:16:47.308Z</time></trkpt><trkpt lat="42.2815249" lon="13.7744268"><ele>347.6666666666667</ele><time>2026-05-02T10:16:50.326Z</time></trkpt><trkpt lat="42.2815793" lon="13.7743564"><ele>348.0</ele><time>2026-05-02T10:17:25.322Z</time></trkpt><trkpt lat="42.2816588" lon="13.7743534"><ele>348.3333333333333</ele><time>2026-05-02T10:17:28.322Z</time></trkpt><trkpt lat="42.2817192" lon="13.7744175"><ele>348.66666666666663</ele><time>2026-05-02T10:17:29.306Z</time></trkpt><trkpt lat="42.281806" lon="13.7745036"><ele>349.0</ele><time>2026-05-02T10:17:30.307Z</time></trkpt><trkpt lat="42.2819104" lon="13.7745743"><ele>349.0</ele><time>2026-05-02T10:17:31.296Z</time></trkpt><trkpt lat="42.2820392" lon="13.7746091"><ele>349.0</ele><time>2026-05-02T10:17:32.304Z</time></trkpt><trkpt lat="42.2821673" lon="13.7746301"><ele>349.0</ele><time>2026-05-02T10:17:33.302Z</time></trkpt><trkpt lat="42.2822807" lon="13.7746473"><ele>349.0</ele><time>2026-05-02T10:17:34.298Z</time></trkpt><trkpt lat="42.2823798" lon="13.7746703"><ele>348.79999999999995</ele><time>2026-05-02T10:17:35.301Z</time></trkpt><trkpt lat="42.2824615" lon="13.774693"><ele>348.59999999999997</ele><time>2026-05-02T10:17:36.307Z</time></trkpt><trkpt lat="42.2825389" lon="13.7747078"><ele>348.4</ele><time>2026-05-02T10:17:37.293Z</time></trkpt><trkpt lat="42.2826602" lon="13.7746618"><ele>348.2</ele><time>2026-05-02T10:17:39.308Z</time></trkpt><trkpt lat="42.2827416" lon="13.7745997"><ele>348.0</ele><time>2026-05-02T10:17:40.307Z</time></trkpt><trkpt lat="42.2828239" lon="13.7745321"><ele>348.0</ele><time>2026-05-02T10:17:41.306Z</time></trkpt><trkpt lat="42.2829077" lon="13.7744668"><ele>348.0</ele><time>2026-05-02T10:17:42.304Z</time></trkpt><trkpt lat="42.2829892" lon="13.7744157"><ele>348.0</ele><time>2026-05-02T10:17:43.307Z</time></trkpt><trkpt lat="42.2830587" lon="13.7743751"><ele>348.0</ele><time>2026-05-02T10:17:44.305Z</time></trkpt><trkpt lat="42.2831196" lon="13.7743337"><ele>348.0</ele><time>2026-05-02T10:17:45.303Z</time></trkpt><trkpt lat="42.2832169" lon="13.7742354"><ele>348.5</ele><time>2026-05-02T10:17:47.303Z</time></trkpt><trkpt lat="42.2832725" lon="13.7741737"><ele>349.0</ele><time>2026-05-02T10:17:48.305Z</time></trkpt><trkpt lat="42.2833322" lon="13.7741045"><ele>349.5</ele><time>2026-05-02T10:17:49.304Z</time></trkpt><trkpt lat="42.2833933" lon="13.7740456"><ele>350.0</ele><time>2026-05-02T10:17:50.305Z</time></trkpt><trkpt lat="42.2834497" lon="13.7740006"><ele>350.5</ele><time>2026-05-02T10:17:51.309Z</time></trkpt><trkpt lat="42.2835415" lon="13.7739311"><ele>351.0</ele><time>2026-05-02T10:17:53.301Z</time></trkpt><trkpt lat="42.2835949" lon="13.773872"><ele>351.0</ele><time>2026-05-02T10:18:01.315Z</time></trkpt><trkpt lat="42.2836499" lon="13.7738229"><ele>351.0</ele><time>2026-05-02T10:18:03.32Z</time></trkpt><trkpt lat="42.2835873" lon="13.773848"><ele>351.0</ele><time>2026-05-02T10:18:14.314Z</time></trkpt><trkpt lat="42.2835237" lon="13.7739009"><ele>351.0</ele><time>2026-05-02T10:18:15.307Z</time></trkpt><trkpt lat="42.2834248" lon="13.7739779"><ele>351.0</ele><time>2026-05-02T10:18:16.302Z</time></trkpt><trkpt lat="42.2833346" lon="13.7740628"><ele>351.0</ele><time>2026-05-02T10:18:17.302Z</time></trkpt><trkpt lat="42.2832634" lon="13.7741381"><ele>351.0</ele><time>2026-05-02T10:18:18.298Z</time></trkpt><trkpt lat="42.2832084" lon="13.7742037"><ele>351.0</ele><time>2026-05-02T10:18:19.308Z</time></trkpt><trkpt lat="42.2831573" lon="13.7742575"><ele>351.0</ele><time>2026-05-02T10:18:22.317Z</time></trkpt><trkpt lat="42.2831033" lon="13.7743201"><ele>351.0</ele><time>2026-05-02T10:18:26.325Z</time></trkpt><trkpt lat="42.2831084" lon="13.7742318"><ele>351.0</ele><time>2026-05-02T10:18:31.322Z</time></trkpt><trkpt lat="42.2832121" lon="13.7740907"><ele>351.0</ele><time>2026-05-02T10:18:33.309Z</time></trkpt><trkpt lat="42.2832863" lon="13.7739811"><ele>351.0</ele><time>2026-05-02T10:18:34.313Z</time></trkpt><trkpt lat="42.2833599" lon="13.7738793"><ele>351.0</ele><time>2026-05-02T10:18:35.313Z</time></trkpt><trkpt lat="42.2834302" lon="13.7737728"><ele>351.0</ele><time>2026-05-02T10:18:36.392Z</time></trkpt><trkpt lat="42.2835064" lon="13.7736522"><ele>351.0</ele><time>2026-05-02T10:18:37.392Z</time></trkpt><trkpt lat="42.2835801" lon="13.7735335"><ele>351.0</ele><time>2026-05-02T10:18:38.406Z</time></trkpt><trkpt lat="42.2836552" lon="13.7734147"><ele>351.5</ele><time>2026-05-02T10:18:39.399Z</time></trkpt><trkpt lat="42.2837421" lon="13.7732782"><ele>352.0</ele><time>2026-05-02T10:18:40.395Z</time></trkpt><trkpt lat="42.2838121" lon="13.7731568"><ele>352.5</ele><time>2026-05-02T10:18:41.393Z</time></trkpt><trkpt lat="42.2838803" lon="13.7730386"><ele>353.0</ele><time>2026-05-02T10:18:42.391Z</time></trkpt><trkpt lat="42.283951" lon="13.7729177"><ele>353.0</ele><time>2026-05-02T10:18:43.394Z</time></trkpt><trkpt lat="42.2840214" lon="13.7727949"><ele>353.0</ele><time>2026-05-02T10:18:44.396Z</time></trkpt><trkpt lat="42.2840914" lon="13.7726719"><ele>353.0</ele><time>2026-05-02T10:18:45.39Z</time></trkpt><trkpt lat="42.2841565" lon="13.7725454"><ele>353.0</ele><time>2026-05-02T10:18:46.398Z</time></trkpt><trkpt lat="42.2842131" lon="13.7724265"><ele>353.0</ele><time>2026-05-02T10:18:47.394Z</time></trkpt><trkpt lat="42.2842403" lon="13.7723431"><ele>354.83333333333337</ele><time>2026-05-02T10:18:48.396Z</time></trkpt><trkpt lat="42.2842656" lon="13.7722387"><ele>356.6666666666667</ele><time>2026-05-02T10:18:51.379Z</time></trkpt><trkpt lat="42.2842118" lon="13.7723064"><ele>358.5</ele><time>2026-05-02T10:19:25.318Z</time></trkpt><trkpt lat="42.2842053" lon="13.7724089"><ele>360.3333333333333</ele><time>2026-05-02T10:19:27.321Z</time></trkpt><trkpt lat="42.2841476" lon="13.7725077"><ele>362.16666666666663</ele><time>2026-05-02T10:20:13.313Z</time></trkpt><trkpt lat="42.284103" lon="13.7725797"><ele>364.0</ele><time>2026-05-02T10:20:14.312Z</time></trkpt><trkpt lat="42.284045" lon="13.772675"><ele>364.4</ele><time>2026-05-02T10:20:15.306Z</time></trkpt><trkpt lat="42.2839892" lon="13.7727623"><ele>364.79999999999995</ele><time>2026-05-02T10:20:16.309Z</time></trkpt><trkpt lat="42.2839483" lon="13.7728356"><ele>365.20000000000005</ele><time>2026-05-02T10:20:17.308Z</time></trkpt><trkpt lat="42.2838824" lon="13.7729514"><ele>365.6</ele><time>2026-05-02T10:20:19.313Z</time></trkpt><trkpt lat="42.2838136" lon="13.773069"><ele>366.0</ele><time>2026-05-02T10:20:21.307Z</time></trkpt><trkpt lat="42.2837588" lon="13.7731638"><ele>366.0</ele><time>2026-05-02T10:20:22.306Z</time></trkpt><trkpt lat="42.2836998" lon="13.7732715"><ele>366.0</ele><time>2026-05-02T10:20:23.305Z</time></trkpt><trkpt lat="42.2836296" lon="13.7734046"><ele>366.0</ele><time>2026-05-02T10:20:24.306Z</time></trkpt><trkpt lat="42.2835553" lon="13.7735406"><ele>366.0</ele><time>2026-05-02T10:20:25.311Z</time></trkpt><trkpt lat="42.2834785" lon="13.7736616"><ele>363.0</ele><time>2026-05-02T10:20:26.318Z</time></trkpt><trkpt lat="42.283403" lon="13.7737838"><ele>360.0</ele><time>2026-05-02T10:20:27.324Z</time></trkpt><trkpt lat="42.2833313" lon="13.7738972"><ele>357.0</ele><time>2026-05-02T10:20:28.315Z</time></trkpt><trkpt lat="42.2832624" lon="13.7739978"><ele>354.0</ele><time>2026-05-02T10:20:29.316Z</time></trkpt><trkpt lat="42.2832002" lon="13.774092"><ele>351.0</ele><time>2026-05-02T10:20:30.324Z</time></trkpt><trkpt lat="42.2831471" lon="13.7741735"><ele>351.0</ele><time>2026-05-02T10:20:31.312Z</time></trkpt><trkpt lat="42.2831062" lon="13.7742383"><ele>351.0</ele><time>2026-05-02T10:20:32.311Z</time></trkpt><trkpt lat="42.2830607" lon="13.7743132"><ele>351.0</ele><time>2026-05-02T10:20:34.309Z</time></trkpt><trkpt lat="42.2830263" lon="13.7743893"><ele>351.0</ele><time>2026-05-02T10:20:38.321Z</time></trkpt><trkpt lat="42.2829605" lon="13.7744345"><ele>351.0</ele><time>2026-05-02T10:20:43.32Z</time></trkpt><trkpt lat="42.2828152" lon="13.7745184"><ele>351.0</ele><time>2026-05-02T10:20:45.309Z</time></trkpt><trkpt lat="42.2827084" lon="13.7745866"><ele>350.6</ele><time>2026-05-02T10:20:46.311Z</time></trkpt><trkpt lat="42.2826022" lon="13.7746584"><ele>350.20000000000005</ele><time>2026-05-02T10:20:47.307Z</time></trkpt><trkpt lat="42.2825266" lon="13.7746959"><ele>349.79999999999995</ele><time>2026-05-02T10:20:48.32Z</time></trkpt><trkpt lat="42.2824579" lon="13.7746896"><ele>349.4</ele><time>2026-05-02T10:20:49.302Z</time></trkpt><trkpt lat="42.2823667" lon="13.7746661"><ele>349.0</ele><time>2026-05-02T10:20:50.305Z</time></trkpt><trkpt lat="42.2822566" lon="13.7746275"><ele>349.0</ele><time>2026-05-02T10:20:51.309Z</time></trkpt><trkpt lat="42.2821332" lon="13.7745937"><ele>349.0</ele><time>2026-05-02T10:20:52.308Z</time></trkpt><trkpt lat="42.2819966" lon="13.7745629"><ele>349.0</ele><time>2026-05-02T10:20:53.311Z</time></trkpt><trkpt lat="42.2818593" lon="13.7745318"><ele>349.0</ele><time>2026-05-02T10:20:54.309Z</time></trkpt><trkpt lat="42.2817342" lon="13.7744763"><ele>349.0</ele><time>2026-05-02T10:20:55.312Z</time></trkpt><trkpt lat="42.2816352" lon="13.7743974"><ele>349.0</ele><time>2026-05-02T10:20:56.303Z</time></trkpt><trkpt lat="42.2815417" lon="13.7742883"><ele>349.0</ele><time>2026-05-02T10:20:57.312Z</time></trkpt><trkpt lat="42.2814498" lon="13.7741671"><ele>349.0</ele><time>2026-05-02T10:20:58.315Z</time></trkpt><trkpt lat="42.2813564" lon="13.7740343"><ele>349.66666666666663</ele><time>2026-05-02T10:20:59.317Z</time></trkpt><trkpt lat="42.2812571" lon="13.773902"><ele>350.3333333333333</ele><time>2026-05-02T10:21:00.321Z</time></trkpt><trkpt lat="42.2811445" lon="13.7737757"><ele>351.0</ele><time>2026-05-02T10:21:01.322Z</time></trkpt><trkpt lat="42.2809407" lon="13.7734943"><ele>353.3333333333333</ele><time>2026-05-02T10:21:03.314Z</time></trkpt><trkpt lat="42.2808408" lon="13.7733334"><ele>355.66666666666663</ele><time>2026-05-02T10:21:04.313Z</time></trkpt><trkpt lat="42.2807493" lon="13.7731553"><ele>358.0</ele><time>2026-05-02T10:21:05.313Z</time></trkpt><trkpt lat="42.2806555" lon="13.7729777"><ele>357.0</ele><time>2026-05-02T10:21:06.315Z</time></trkpt><trkpt lat="42.2805675" lon="13.7727993"><ele>356.0</ele><time>2026-05-02T10:21:07.31Z</time></trkpt><trkpt lat="42.2804757" lon="13.7726133"><ele>355.0</ele><time>2026-05-02T10:21:08.317Z</time></trkpt><trkpt lat="42.2803805" lon="13.7724378"><ele>355.0</ele><time>2026-05-02T10:21:09.317Z</time></trkpt><trkpt lat="42.2802919" lon="13.7722895"><ele>355.0</ele><time>2026-05-02T10:21:10.314Z</time></trkpt><trkpt lat="42.2802035" lon="13.7721733"><ele>355.0</ele><time>2026-05-02T10:21:11.302Z</time></trkpt><trkpt lat="42.2800832" lon="13.7720788"><ele>355.0</ele><time>2026-05-02T10:21:12.32Z</time></trkpt><trkpt lat="42.2799464" lon="13.7720003"><ele>355.0</ele><time>2026-05-02T10:21:13.314Z</time></trkpt><trkpt lat="42.2798316" lon="13.7719009"><ele>355.0</ele><time>2026-05-02T10:21:14.311Z</time></trkpt><trkpt lat="42.2797286" lon="13.7717774"><ele>355.0</ele><time>2026-05-02T10:21:15.307Z</time></trkpt><trkpt lat="42.2796441" lon="13.7716247"><ele>355.0</ele><time>2026-05-02T10:21:16.305Z</time></trkpt><trkpt lat="42.2795822" lon="13.7714662"><ele>355.4</ele><time>2026-05-02T10:21:17.317Z</time></trkpt><trkpt lat="42.2795542" lon="13.77137"><ele>355.8</ele><time>2026-05-02T10:21:18.306Z</time></trkpt><trkpt lat="42.2795038" lon="13.7712443"><ele>356.20000000000005</ele><time>2026-05-02T10:21:20.317Z</time></trkpt><trkpt lat="42.2794791" lon="13.7711608"><ele>356.6</ele><time>2026-05-02T10:21:22.327Z</time></trkpt><trkpt lat="42.2794434" lon="13.7710642"><ele>357.0</ele><time>2026-05-02T10:21:24.33Z</time></trkpt><trkpt lat="42.2793783" lon="13.7709085"><ele>357.5</ele><time>2026-05-02T10:21:26.326Z</time></trkpt><trkpt lat="42.2793308" lon="13.7707899"><ele>358.0</ele><time>2026-05-02T10:21:27.314Z</time></trkpt><trkpt lat="42.2792826" lon="13.7706562"><ele>358.5</ele><time>2026-05-02T10:21:28.315Z</time></trkpt><trkpt lat="42.27924" lon="13.770504"><ele>359.0</ele><time>2026-05-02T10:21:29.318Z</time></trkpt><trkpt lat="42.279194" lon="13.7703518"><ele>359.0</ele><time>2026-05-02T10:21:30.321Z</time></trkpt><trkpt lat="42.2791395" lon="13.7701919"><ele>359.0</ele><time>2026-05-02T10:21:31.318Z</time></trkpt><trkpt lat="42.2790838" lon="13.7700319"><ele>359.0</ele><time>2026-05-02T10:21:32.325Z</time></trkpt><trkpt lat="42.2790216" lon="13.7698644"><ele>359.0</ele><time>2026-05-02T10:21:33.321Z</time></trkpt><trkpt lat="42.2789626" lon="13.7697039"><ele>359.2</ele><time>2026-05-02T10:21:34.323Z</time></trkpt><trkpt lat="42.2789198" lon="13.7695531"><ele>359.4</ele><time>2026-05-02T10:21:35.317Z</time></trkpt><trkpt lat="42.2788907" lon="13.769437"><ele>359.6</ele><time>2026-05-02T10:21:36.31Z</time></trkpt><trkpt lat="42.2788927" lon="13.7693458"><ele>359.8</ele><time>2026-05-02T10:21:37.312Z</time></trkpt><trkpt lat="42.278977" lon="13.7691986"><ele>360.0</ele><time>2026-05-02T10:21:39.316Z</time></trkpt><trkpt lat="42.2790663" lon="13.7691234"><ele>360.75</ele><time>2026-05-02T10:21:40.315Z</time></trkpt><trkpt lat="42.2791642" lon="13.7690638"><ele>361.5</ele><time>2026-05-02T10:21:41.312Z</time></trkpt><trkpt lat="42.2792695" lon="13.7690028"><ele>362.25</ele><time>2026-05-02T10:21:42.319Z</time></trkpt><trkpt lat="42.2793848" lon="13.7689178"><ele>363.0</ele><time>2026-05-02T10:21:43.322Z</time></trkpt><trkpt lat="42.2795037" lon="13.768823"><ele>363.0</ele><time>2026-05-02T10:21:44.311Z</time></trkpt><trkpt lat="42.27963" lon="13.7687185"><ele>363.0</ele><time>2026-05-02T10:21:45.315Z</time></trkpt><trkpt lat="42.2797652" lon="13.7686157"><ele>363.0</ele><time>2026-05-02T10:21:46.318Z</time></trkpt><trkpt lat="42.2798982" lon="13.7685215"><ele>364.3333333333333</ele><time>2026-05-02T10:21:47.318Z</time></trkpt><trkpt lat="42.2800288" lon="13.7684054"><ele>365.66666666666663</ele><time>2026-05-02T10:21:48.312Z</time></trkpt><trkpt lat="42.280146" lon="13.7682696"><ele>367.0</ele><time>2026-05-02T10:21:49.309Z</time></trkpt><trkpt lat="42.280258" lon="13.7681096"><ele>367.0</ele><time>2026-05-02T10:21:50.323Z</time></trkpt><trkpt lat="42.2803772" lon="13.7679535"><ele>367.0</ele><time>2026-05-02T10:21:51.321Z</time></trkpt><trkpt lat="42.2804964" lon="13.7677915"><ele>367.0</ele><time>2026-05-02T10:21:52.318Z</time></trkpt><trkpt lat="42.2806282" lon="13.7676424"><ele>368.3333333333333</ele><time>2026-05-02T10:21:53.318Z</time></trkpt><trkpt lat="42.2807697" lon="13.7674971"><ele>369.6666666666667</ele><time>2026-05-02T10:21:54.32Z</time></trkpt><trkpt lat="42.2809165" lon="13.7673587"><ele>371.0</ele><time>2026-05-02T10:21:55.319Z</time></trkpt><trkpt lat="42.2810865" lon="13.7672242"><ele>371.0</ele><time>2026-05-02T10:21:56.321Z</time></trkpt><trkpt lat="42.2812491" lon="13.7670899"><ele>371.0</ele><time>2026-05-02T10:21:57.323Z</time></trkpt><trkpt lat="42.2814132" lon="13.7669487"><ele>371.0</ele><time>2026-05-02T10:21:58.319Z</time></trkpt><trkpt lat="42.2815671" lon="13.7667975"><ele>372.6666666666667</ele><time>2026-05-02T10:21:59.323Z</time></trkpt><trkpt lat="42.2817105" lon="13.7666556"><ele>374.3333333333333</ele><time>2026-05-02T10:22:00.321Z</time></trkpt><trkpt lat="42.2818412" lon="13.7664981"><ele>376.0</ele><time>2026-05-02T10:22:01.313Z</time></trkpt><trkpt lat="42.2819444" lon="13.7663396"><ele>376.0</ele><time>2026-05-02T10:22:02.32Z</time></trkpt><trkpt lat="42.2820511" lon="13.7661729"><ele>376.0</ele><time>2026-05-02T10:22:03.323Z</time></trkpt><trkpt lat="42.2821711" lon="13.7659832"><ele>376.0</ele><time>2026-05-02T10:22:04.317Z</time></trkpt><trkpt lat="42.2822964" lon="13.7658049"><ele>377.3333333333333</ele><time>2026-05-02T10:22:05.321Z</time></trkpt><trkpt lat="42.2824174" lon="13.7656173"><ele>378.6666666666667</ele><time>2026-05-02T10:22:06.323Z</time></trkpt><trkpt lat="42.282536" lon="13.7654302"><ele>380.0</ele><time>2026-05-02T10:22:07.319Z</time></trkpt><trkpt lat="42.282648" lon="13.7652473"><ele>381.33333333333337</ele><time>2026-05-02T10:22:08.321Z</time></trkpt><trkpt lat="42.2827673" lon="13.7650689"><ele>382.6666666666667</ele><time>2026-05-02T10:22:09.321Z</time></trkpt><trkpt lat="42.2828849" lon="13.7649015"><ele>384.0</ele><time>2026-05-02T10:22:10.324Z</time></trkpt><trkpt lat="42.2829898" lon="13.7647405"><ele>384.33333333333337</ele><time>2026-05-02T10:22:11.318Z</time></trkpt><trkpt lat="42.2831029" lon="13.7645763"><ele>384.6666666666667</ele><time>2026-05-02T10:22:12.321Z</time></trkpt><trkpt lat="42.2832058" lon="13.7644266"><ele>385.0</ele><time>2026-05-02T10:22:13.318Z</time></trkpt><trkpt lat="42.2832987" lon="13.7642849"><ele>385.4</ele><time>2026-05-02T10:22:14.322Z</time></trkpt><trkpt lat="42.28338" lon="13.7641612"><ele>385.8</ele><time>2026-05-02T10:22:15.313Z</time></trkpt><trkpt lat="42.283456" lon="13.7640492"><ele>386.20000000000005</ele><time>2026-05-02T10:22:16.316Z</time></trkpt><trkpt lat="42.2835227" lon="13.7639464"><ele>386.6</ele><time>2026-05-02T10:22:17.32Z</time></trkpt><trkpt lat="42.2835733" lon="13.7638661"><ele>387.0</ele><time>2026-05-02T10:22:18.325Z</time></trkpt><trkpt lat="42.2835847" lon="13.7637738"><ele>387.0</ele><time>2026-05-02T10:22:22.339Z</time></trkpt><trkpt lat="42.2835282" lon="13.7637296"><ele>387.0</ele><time>2026-05-02T10:22:24.327Z</time></trkpt><trkpt lat="42.2834423" lon="13.7637272"><ele>387.0</ele><time>2026-05-02T10:22:26.334Z</time></trkpt><trkpt lat="42.2833153" lon="13.7637114"><ele>387.0</ele><time>2026-05-02T10:22:28.323Z</time></trkpt><trkpt lat="42.2832057" lon="13.7637002"><ele>387.0</ele><time>2026-05-02T10:22:30.328Z</time></trkpt><trkpt lat="42.283114" lon="13.7636918"><ele>387.0</ele><time>2026-05-02T10:22:32.323Z</time></trkpt><trkpt lat="42.283019" lon="13.7636833"><ele>387.0</ele><time>2026-05-02T10:22:34.333Z</time></trkpt><trkpt lat="42.282928" lon="13.7636884"><ele>387.0</ele><time>2026-05-02T10:22:36.324Z</time></trkpt><trkpt lat="42.2828589" lon="13.7636783"><ele>387.0</ele><time>2026-05-02T10:23:11.328Z</time></trkpt><trkpt lat="42.2829137" lon="13.7637356"><ele>387.0</ele><time>2026-05-02T10:23:20.325Z</time></trkpt><trkpt lat="42.2830314" lon="13.7637081"><ele>387.0</ele><time>2026-05-02T10:23:22.312Z</time></trkpt><trkpt lat="42.2831289" lon="13.7637236"><ele>387.0</ele><time>2026-05-02T10:23:23.319Z</time></trkpt><trkpt lat="42.2832176" lon="13.7637379"><ele>387.0</ele><time>2026-05-02T10:23:24.319Z</time></trkpt><trkpt lat="42.283292" lon="13.7637408"><ele>387.0</ele><time>2026-05-02T10:23:25.317Z</time></trkpt><trkpt lat="42.2833589" lon="13.7637516"><ele>387.0</ele><time>2026-05-02T10:23:26.319Z</time></trkpt><trkpt lat="42.2834585" lon="13.763755"><ele>387.0</ele><time>2026-05-02T10:23:28.321Z</time></trkpt><trkpt lat="42.2835276" lon="13.7637832"><ele>387.0</ele><time>2026-05-02T10:23:30.331Z</time></trkpt><trkpt lat="42.2835801" lon="13.7638424"><ele>387.0</ele><time>2026-05-02T10:23:33.32Z</time></trkpt><trkpt lat="42.2835657" lon="13.7637524"><ele>387.0</ele><time>2026-05-02T10:23:36.33Z</time></trkpt><trkpt lat="42.2834677" lon="13.763759"><ele>387.0</ele><time>2026-05-02T10:25:01.312Z</time></trkpt><trkpt lat="42.2834041" lon="13.7637501"><ele>387.0</ele><time>2026-05-02T10:25:02.335Z</time></trkpt><trkpt lat="42.2833028" lon="13.76372"><ele>387.0</ele><time>2026-05-02T10:25:03.318Z</time></trkpt><trkpt lat="42.2831956" lon="13.7636951"><ele>387.0</ele><time>2026-05-02T10:25:04.323Z</time></trkpt><trkpt lat="42.2831046" lon="13.7636814"><ele>387.6666666666667</ele><time>2026-05-02T10:25:05.318Z</time></trkpt><trkpt lat="42.2830356" lon="13.7636719"><ele>388.33333333333337</ele><time>2026-05-02T10:25:06.317Z</time></trkpt><trkpt lat="42.2829715" lon="13.7636739"><ele>389.0</ele><time>2026-05-02T10:25:07.311Z</time></trkpt><trkpt lat="42.2828717" lon="13.7636836"><ele>389.6666666666667</ele><time>2026-05-02T10:25:09.319Z</time></trkpt><trkpt lat="42.2827769" lon="13.763716"><ele>390.33333333333337</ele><time>2026-05-02T10:30:03.336Z</time></trkpt><trkpt lat="42.2826879" lon="13.7637113"><ele>391.0</ele><time>2026-05-02T10:30:05.339Z</time></trkpt><trkpt lat="42.2825835" lon="13.7636671"><ele>390.99999999999994</ele><time>2026-05-02T10:30:07.339Z</time></trkpt><trkpt lat="42.2825175" lon="13.7636327"><ele>391.0</ele><time>2026-05-02T10:30:08.331Z</time></trkpt><trkpt lat="42.2824534" lon="13.7636045"><ele>391.0</ele><time>2026-05-02T10:30:09.34Z</time></trkpt><trkpt lat="42.2823901" lon="13.7635726"><ele>391.0</ele><time>2026-05-02T10:30:10.333Z</time></trkpt><trkpt lat="42.2823285" lon="13.7635408"><ele>391.0</ele><time>2026-05-02T10:30:11.333Z</time></trkpt><trkpt lat="42.2822624" lon="13.7635071"><ele>390.99999999999994</ele><time>2026-05-02T10:30:12.326Z</time></trkpt><trkpt lat="42.2821577" lon="13.7634907"><ele>391.0</ele><time>2026-05-02T10:30:14.329Z</time></trkpt><trkpt lat="42.2820924" lon="13.7635221"><ele>392.99999999999994</ele><time>2026-05-02T10:30:15.326Z</time></trkpt><trkpt lat="42.2820273" lon="13.7635648"><ele>395.0</ele><time>2026-05-02T10:30:16.329Z</time></trkpt><trkpt lat="42.2819624" lon="13.7635752"><ele>397.0</ele><time>2026-05-02T10:30:17.33Z</time></trkpt><trkpt lat="42.2818905" lon="13.7635694"><ele>399.0</ele><time>2026-05-02T10:30:18.338Z</time></trkpt><trkpt lat="42.281822" lon="13.7635438"><ele>401.0</ele><time>2026-05-02T10:30:19.344Z</time></trkpt><trkpt lat="42.2817438" lon="13.7635362"><ele>402.99999999999994</ele><time>2026-05-02T10:30:20.328Z</time></trkpt><trkpt lat="42.2816624" lon="13.7635401"><ele>405.0</ele><time>2026-05-02T10:30:21.331Z</time></trkpt><trkpt lat="42.2815743" lon="13.7635609"><ele>405.0</ele><time>2026-05-02T10:30:22.334Z</time></trkpt><trkpt lat="42.2814833" lon="13.763586"><ele>405.0</ele><time>2026-05-02T10:30:23.337Z</time></trkpt><trkpt lat="42.2813932" lon="13.763608"><ele>405.0</ele><time>2026-05-02T10:30:24.332Z</time></trkpt><trkpt lat="42.2813015" lon="13.7636286"><ele>405.0</ele><time>2026-05-02T10:30:25.325Z</time></trkpt><trkpt lat="42.2812253" lon="13.7636505"><ele>405.0</ele><time>2026-05-02T10:30:26.318Z</time></trkpt><trkpt lat="42.2811475" lon="13.7636586"><ele>405.0</ele><time>2026-05-02T10:30:27.314Z</time></trkpt><trkpt lat="42.281062" lon="13.7636345"><ele>407.0</ele><time>2026-05-02T10:30:28.313Z</time></trkpt><trkpt lat="42.2809811" lon="13.7635932"><ele>409.0</ele><time>2026-05-02T10:30:29.331Z</time></trkpt><trkpt lat="42.2808975" lon="13.7635606"><ele>411.0</ele><time>2026-05-02T10:30:30.321Z</time></trkpt><trkpt lat="42.2808171" lon="13.7635335"><ele>413.0</ele><time>2026-05-02T10:30:31.317Z</time></trkpt><trkpt lat="42.2807415" lon="13.7635085"><ele>415.0</ele><time>2026-05-02T10:30:32.313Z</time></trkpt><trkpt lat="42.280656" lon="13.763471"><ele>417.0</ele><time>2026-05-02T10:30:33.319Z</time></trkpt><trkpt lat="42.2805833" lon="13.7634406"><ele>421.5</ele><time>2026-05-02T10:30:34.324Z</time></trkpt><trkpt lat="42.280515" lon="13.7634138"><ele>426.0</ele><time>2026-05-02T10:30:35.32Z</time></trkpt><trkpt lat="42.280433" lon="13.7633789"><ele>430.5</ele><time>2026-05-02T10:30:36.323Z</time></trkpt><trkpt lat="42.2803552" lon="13.7633439"><ele>435.0</ele><time>2026-05-02T10:30:37.318Z</time></trkpt><trkpt lat="42.2802856" lon="13.7633346"><ele>439.5</ele><time>2026-05-02T10:30:38.331Z</time></trkpt><trkpt lat="42.2801698" lon="13.7632852"><ele>444.0</ele><time>2026-05-02T10:30:40.319Z</time></trkpt><trkpt lat="42.2801133" lon="13.7632181"><ele>444.0</ele><time>2026-05-02T10:30:41.315Z</time></trkpt><trkpt lat="42.2800537" lon="13.7631422"><ele>444.0</ele><time>2026-05-02T10:30:42.321Z</time></trkpt><trkpt lat="42.2799866" lon="13.7630706"><ele>444.0</ele><time>2026-05-02T10:30:43.323Z</time></trkpt><trkpt lat="42.2799196" lon="13.7629934"><ele>444.0</ele><time>2026-05-02T10:30:44.323Z</time></trkpt><trkpt lat="42.2798483" lon="13.7629134"><ele>444.0</ele><time>2026-05-02T10:30:45.323Z</time></trkpt><trkpt lat="42.2797758" lon="13.7628384"><ele>444.0</ele><time>2026-05-02T10:30:46.32Z</time></trkpt><trkpt lat="42.2797056" lon="13.7627647"><ele>445.2857142857143</ele><time>2026-05-02T10:30:47.32Z</time></trkpt><trkpt lat="42.2796399" lon="13.7626988"><ele>446.57142857142856</ele><time>2026-05-02T10:30:48.321Z</time></trkpt><trkpt lat="42.2795783" lon="13.7626365"><ele>447.85714285714283</ele><time>2026-05-02T10:30:49.34Z</time></trkpt><trkpt lat="42.2795114" lon="13.7625951"><ele>449.1428571428571</ele><time>2026-05-02T10:30:50.322Z</time></trkpt><trkpt lat="42.2794537" lon="13.7625538"><ele>450.42857142857144</ele><time>2026-05-02T10:30:51.314Z</time></trkpt><trkpt lat="42.279395" lon="13.7624966"><ele>451.71428571428567</ele><time>2026-05-02T10:30:53.321Z</time></trkpt><trkpt lat="42.2793229" lon="13.7625012"><ele>452.99999999999994</ele><time>2026-05-02T10:31:31.335Z</time></trkpt><trkpt lat="42.2792047" lon="13.7624777"><ele>454.75</ele><time>2026-05-02T10:31:34.325Z</time></trkpt><trkpt lat="42.2790829" lon="13.7624341"><ele>456.5</ele><time>2026-05-02T10:31:36.321Z</time></trkpt><trkpt lat="42.278979" lon="13.762378"><ele>458.25</ele><time>2026-05-02T10:31:38.32Z</time></trkpt><trkpt lat="42.2788782" lon="13.7623373"><ele>460.0</ele><time>2026-05-02T10:31:40.323Z</time></trkpt><trkpt lat="42.2787752" lon="13.7622924"><ele>461.50000000000006</ele><time>2026-05-02T10:31:42.321Z</time></trkpt><trkpt lat="42.2787137" lon="13.7622706"><ele>463.0</ele><time>2026-05-02T10:31:43.32Z</time></trkpt><trkpt lat="42.2786455" lon="13.7622408"><ele>464.5</ele><time>2026-05-02T10:31:44.321Z</time></trkpt><trkpt lat="42.2785735" lon="13.7622065"><ele>466.0</ele><time>2026-05-02T10:31:45.315Z</time></trkpt><trkpt lat="42.278491" lon="13.7621735"><ele>467.50000000000006</ele><time>2026-05-02T10:31:46.32Z</time></trkpt><trkpt lat="42.2784177" lon="13.7621241"><ele>469.0</ele><time>2026-05-02T10:31:47.315Z</time></trkpt><trkpt lat="42.27836" lon="13.7620502"><ele>469.00000000000006</ele><time>2026-05-02T10:31:48.322Z</time></trkpt><trkpt lat="42.2783029" lon="13.7619685"><ele>469.0</ele><time>2026-05-02T10:31:49.317Z</time></trkpt><trkpt lat="42.2782492" lon="13.7618852"><ele>469.0</ele><time>2026-05-02T10:31:50.326Z</time></trkpt><trkpt lat="42.2781824" lon="13.7618183"><ele>469.0</ele><time>2026-05-02T10:31:51.311Z</time></trkpt><trkpt lat="42.2781235" lon="13.7617807"><ele>469.00000000000006</ele><time>2026-05-02T10:31:52.321Z</time></trkpt><trkpt lat="42.2780536" lon="13.7617534"><ele>469.0</ele><time>2026-05-02T10:31:53.316Z</time></trkpt><trkpt lat="42.2779726" lon="13.7617303"><ele>470.6</ele><time>2026-05-02T10:31:54.314Z</time></trkpt><trkpt lat="42.2778845" lon="13.7617186"><ele>472.2</ele><time>2026-05-02T10:31:55.315Z</time></trkpt><trkpt lat="42.2777881" lon="13.7616978"><ele>473.80000000000007</ele><time>2026-05-02T10:31:56.317Z</time></trkpt><trkpt lat="42.2776939" lon="13.7616835"><ele>475.40000000000003</ele><time>2026-05-02T10:31:57.323Z</time></trkpt><trkpt lat="42.2776031" lon="13.7616956"><ele>477.0</ele><time>2026-05-02T10:31:58.324Z</time></trkpt><trkpt lat="42.2775095" lon="13.7617286"><ele>477.0</ele><time>2026-05-02T10:31:59.323Z</time></trkpt><trkpt lat="42.2774146" lon="13.761765"><ele>477.00000000000006</ele><time>2026-05-02T10:32:00.322Z</time></trkpt><trkpt lat="42.2773152" lon="13.7617899"><ele>477.00000000000006</ele><time>2026-05-02T10:32:01.306Z</time></trkpt><trkpt lat="42.2772128" lon="13.7617834"><ele>477.0</ele><time>2026-05-02T10:32:02.322Z</time></trkpt><trkpt lat="42.2771128" lon="13.7617702"><ele>477.0</ele><time>2026-05-02T10:32:03.32Z</time></trkpt><trkpt lat="42.2770068" lon="13.7617548"><ele>478.8</ele><time>2026-05-02T10:32:04.321Z</time></trkpt><trkpt lat="42.2769025" lon="13.761753"><ele>480.6</ele><time>2026-05-02T10:32:05.321Z</time></trkpt><trkpt lat="42.2768079" lon="13.7617649"><ele>482.40000000000003</ele><time>2026-05-02T10:32:06.319Z</time></trkpt><trkpt lat="42.276711" lon="13.7617736"><ele>484.20000000000005</ele><time>2026-05-02T10:32:07.326Z</time></trkpt><trkpt lat="42.2766154" lon="13.7617595"><ele>486.0</ele><time>2026-05-02T10:32:08.316Z</time></trkpt><trkpt lat="42.2765373" lon="13.7617271"><ele>486.0</ele><time>2026-05-02T10:32:09.314Z</time></trkpt><trkpt lat="42.2764609" lon="13.761668"><ele>486.0</ele><time>2026-05-02T10:32:10.32Z</time></trkpt><trkpt lat="42.276372" lon="13.7616033"><ele>486.0</ele><time>2026-05-02T10:32:11.319Z</time></trkpt><trkpt lat="42.2762689" lon="13.7615448"><ele>486.0</ele><time>2026-05-02T10:32:12.319Z</time></trkpt><trkpt lat="42.2761597" lon="13.7614995"><ele>486.0</ele><time>2026-05-02T10:32:13.323Z</time></trkpt><trkpt lat="42.276051" lon="13.7614441"><ele>489.25</ele><time>2026-05-02T10:32:14.318Z</time></trkpt><trkpt lat="42.2759404" lon="13.7613707"><ele>492.5</ele><time>2026-05-02T10:32:15.311Z</time></trkpt><trkpt lat="42.2758421" lon="13.7612848"><ele>495.75</ele><time>2026-05-02T10:32:16.321Z</time></trkpt><trkpt lat="42.2757526" lon="13.7612013"><ele>499.0</ele><time>2026-05-02T10:32:17.329Z</time></trkpt><trkpt lat="42.2756602" lon="13.7611214"><ele>500.0</ele><time>2026-05-02T10:32:18.32Z</time></trkpt><trkpt lat="42.275566" lon="13.7610475"><ele>501.0</ele><time>2026-05-02T10:32:19.315Z</time></trkpt><trkpt lat="42.2754661" lon="13.7609862"><ele>502.0</ele><time>2026-05-02T10:32:20.317Z</time></trkpt><trkpt lat="42.2753621" lon="13.760922"><ele>503.0</ele><time>2026-05-02T10:32:21.321Z</time></trkpt><trkpt lat="42.2752502" lon="13.760844"><ele>503.0</ele><time>2026-05-02T10:32:22.319Z</time></trkpt><trkpt lat="42.2751316" lon="13.7607738"><ele>502.99999999999994</ele><time>2026-05-02T10:32:23.319Z</time></trkpt><trkpt lat="42.2750222" lon="13.760715"><ele>502.99999999999994</ele><time>2026-05-02T10:32:24.322Z</time></trkpt><trkpt lat="42.2749327" lon="13.7606545"><ele>503.0</ele><time>2026-05-02T10:32:25.31Z</time></trkpt><trkpt lat="42.2748585" lon="13.7606086"><ele>503.0</ele><time>2026-05-02T10:32:26.311Z</time></trkpt><trkpt lat="42.2747964" lon="13.7605723"><ele>503.0</ele><time>2026-05-02T10:32:27.321Z</time></trkpt><trkpt lat="42.2747139" lon="13.7605253"><ele>502.99999999999994</ele><time>2026-05-02T10:32:29.313Z</time></trkpt><trkpt lat="42.2747288" lon="13.7604316"><ele>502.99999999999994</ele><time>2026-05-02T10:32:50.338Z</time></trkpt><trkpt lat="42.2747763" lon="13.7603492"><ele>503.0</ele><time>2026-05-02T10:32:53.338Z</time></trkpt><trkpt lat="42.2748715" lon="13.7602662"><ele>503.0</ele><time>2026-05-02T10:32:55.324Z</time></trkpt><trkpt lat="42.2749401" lon="13.760167"><ele>503.0</ele><time>2026-05-02T10:32:56.313Z</time></trkpt><trkpt lat="42.2750107" lon="13.7600562"><ele>502.99999999999994</ele><time>2026-05-02T10:32:57.319Z</time></trkpt><trkpt lat="42.2750854" lon="13.7599509"><ele>502.99999999999994</ele><time>2026-05-02T10:32:58.317Z</time></trkpt><trkpt lat="42.27517" lon="13.7598471"><ele>503.0</ele><time>2026-05-02T10:32:59.326Z</time></trkpt><trkpt lat="42.2752507" lon="13.7597322"><ele>503.0</ele><time>2026-05-02T10:33:00.33Z</time></trkpt><trkpt lat="42.275319" lon="13.7596147"><ele>503.0</ele><time>2026-05-02T10:33:01.323Z</time></trkpt><trkpt lat="42.2753865" lon="13.7595038"><ele>502.99999999999994</ele><time>2026-05-02T10:33:02.326Z</time></trkpt><trkpt lat="42.2754517" lon="13.7593912"><ele>502.99999999999994</ele><time>2026-05-02T10:33:03.327Z</time></trkpt><trkpt lat="42.2755253" lon="13.7592751"><ele>503.0</ele><time>2026-05-02T10:33:04.334Z</time></trkpt><trkpt lat="42.2755982" lon="13.7591606"><ele>503.0</ele><time>2026-05-02T10:33:05.326Z</time></trkpt><trkpt lat="42.2756729" lon="13.7590615"><ele>500.99999999999994</ele><time>2026-05-02T10:33:06.319Z</time></trkpt><trkpt lat="42.2757323" lon="13.7589801"><ele>499.0</ele><time>2026-05-02T10:33:07.325Z</time></trkpt><trkpt lat="42.2757934" lon="13.7589141"><ele>497.0</ele><time>2026-05-02T10:33:08.33Z</time></trkpt><trkpt lat="42.2758413" lon="13.7588533"><ele>495.0</ele><time>2026-05-02T10:33:09.325Z</time></trkpt><trkpt lat="42.2758937" lon="13.75877"><ele>492.99999999999994</ele><time>2026-05-02T10:33:11.33Z</time></trkpt><trkpt lat="42.2759414" lon="13.7587122"><ele>491.0</ele><time>2026-05-02T10:33:16.345Z</time></trkpt><trkpt lat="42.2759002" lon="13.7586213"><ele>490.99999999999994</ele><time>2026-05-02T10:33:20.347Z</time></trkpt><trkpt lat="42.275798" lon="13.7586142"><ele>491.0</ele><time>2026-05-02T10:33:22.337Z</time></trkpt><trkpt lat="42.2757229" lon="13.7586264"><ele>491.0</ele><time>2026-05-02T10:33:23.341Z</time></trkpt><trkpt lat="42.2756439" lon="13.758648"><ele>491.0</ele><time>2026-05-02T10:33:24.332Z</time></trkpt><trkpt lat="42.2755728" lon="13.7586621"><ele>490.99999999999994</ele><time>2026-05-02T10:33:25.331Z</time></trkpt><trkpt lat="42.2755103" lon="13.7586778"><ele>491.0</ele><time>2026-05-02T10:33:26.331Z</time></trkpt><trkpt lat="42.2753969" lon="13.7587139"><ele>494.0</ele><time>2026-05-02T10:33:28.331Z</time></trkpt><trkpt lat="42.2752889" lon="13.7587464"><ele>497.0</ele><time>2026-05-02T10:33:30.337Z</time></trkpt><trkpt lat="42.2751682" lon="13.7587683"><ele>500.0</ele><time>2026-05-02T10:33:32.329Z</time></trkpt><trkpt lat="42.275099" lon="13.758779"><ele>503.0</ele><time>2026-05-02T10:33:33.329Z</time></trkpt><trkpt lat="42.2750267" lon="13.7587935"><ele>506.0</ele><time>2026-05-02T10:33:34.333Z</time></trkpt><trkpt lat="42.2749542" lon="13.7588242"><ele>506.0</ele><time>2026-05-02T10:33:35.337Z</time></trkpt><trkpt lat="42.274882" lon="13.7588391"><ele>506.0</ele><time>2026-05-02T10:33:36.329Z</time></trkpt><trkpt lat="42.2747581" lon="13.7588564"><ele>506.0</ele><time>2026-05-02T10:33:38.329Z</time></trkpt><trkpt lat="42.2746295" lon="13.7588932"><ele>506.0</ele><time>2026-05-02T10:33:40.331Z</time></trkpt><trkpt lat="42.2745635" lon="13.7589135"><ele>506.0</ele><time>2026-05-02T10:33:41.33Z</time></trkpt><trkpt lat="42.2744985" lon="13.7589397"><ele>507.8</ele><time>2026-05-02T10:33:42.331Z</time></trkpt><trkpt lat="42.2744323" lon="13.7589472"><ele>509.6</ele><time>2026-05-02T10:33:43.334Z</time></trkpt><trkpt lat="42.2743169" lon="13.7589569"><ele>511.4</ele><time>2026-05-02T10:33:45.322Z</time></trkpt><trkpt lat="42.2742173" lon="13.7589798"><ele>513.2</ele><time>2026-05-02T10:33:47.331Z</time></trkpt><trkpt lat="42.2740986" lon="13.7590469"><ele>515.0</ele><time>2026-05-02T10:33:49.332Z</time></trkpt><trkpt lat="42.2740115" lon="13.7591273"><ele>515.0</ele><time>2026-05-02T10:33:51.33Z</time></trkpt><trkpt lat="42.2739728" lon="13.7591969"><ele>515.0</ele><time>2026-05-02T10:34:33.327Z</time></trkpt><trkpt lat="42.2739785" lon="13.7593089"><ele>515.0</ele><time>2026-05-02T10:34:36.331Z</time></trkpt><trkpt lat="42.273951" lon="13.7594281"><ele>515.0</ele><time>2026-05-02T10:34:38.334Z</time></trkpt><trkpt lat="42.2738845" lon="13.7595541"><ele>515.0</ele><time>2026-05-02T10:34:40.324Z</time></trkpt><trkpt lat="42.2738479" lon="13.7596294"><ele>515.0</ele><time>2026-05-02T10:34:41.317Z</time></trkpt><trkpt lat="42.2738059" lon="13.7596954"><ele>516.8</ele><time>2026-05-02T10:34:42.314Z</time></trkpt><trkpt lat="42.2737068" lon="13.7597623"><ele>518.6</ele><time>2026-05-02T10:34:44.315Z</time></trkpt><trkpt lat="42.2735753" lon="13.759744"><ele>520.4</ele><time>2026-05-02T10:34:46.313Z</time></trkpt><trkpt lat="42.2734935" lon="13.759723"><ele>522.2</ele><time>2026-05-02T10:34:47.307Z</time></trkpt><trkpt lat="42.2733927" lon="13.7597011"><ele>524.0</ele><time>2026-05-02T10:34:48.313Z</time></trkpt><trkpt lat="42.2732798" lon="13.7596991"><ele>524.0</ele><time>2026-05-02T10:34:49.325Z</time></trkpt><trkpt lat="42.2731733" lon="13.7597273"><ele>524.0</ele><time>2026-05-02T10:34:50.321Z</time></trkpt><trkpt lat="42.273074" lon="13.7597606"><ele>524.0</ele><time>2026-05-02T10:34:51.318Z</time></trkpt><trkpt lat="42.2729664" lon="13.7597876"><ele>524.0</ele><time>2026-05-02T10:34:52.315Z</time></trkpt><trkpt lat="42.2728449" lon="13.7597705"><ele>524.0</ele><time>2026-05-02T10:34:53.314Z</time></trkpt><trkpt lat="42.2727155" lon="13.7597171"><ele>524.75</ele><time>2026-05-02T10:34:54.313Z</time></trkpt><trkpt lat="42.2725804" lon="13.7596546"><ele>525.5</ele><time>2026-05-02T10:34:55.314Z</time></trkpt><trkpt lat="42.2724375" lon="13.7595907"><ele>526.25</ele><time>2026-05-02T10:34:56.329Z</time></trkpt><trkpt lat="42.2723082" lon="13.7595254"><ele>527.0</ele><time>2026-05-02T10:34:57.322Z</time></trkpt><trkpt lat="42.2721902" lon="13.7594638"><ele>527.4</ele><time>2026-05-02T10:34:58.319Z</time></trkpt><trkpt lat="42.2720844" lon="13.759395"><ele>527.8000000000001</ele><time>2026-05-02T10:34:59.326Z</time></trkpt><trkpt lat="42.2720073" lon="13.7593059"><ele>528.2</ele><time>2026-05-02T10:35:00.306Z</time></trkpt><trkpt lat="42.2719532" lon="13.7592005"><ele>528.6</ele><time>2026-05-02T10:35:01.32Z</time></trkpt><trkpt lat="42.2719143" lon="13.7590773"><ele>529.0</ele><time>2026-05-02T10:35:02.32Z</time></trkpt><trkpt lat="42.2718688" lon="13.758959"><ele>529.5</ele><time>2026-05-02T10:35:03.327Z</time></trkpt><trkpt lat="42.2717865" lon="13.7588777"><ele>530.0</ele><time>2026-05-02T10:35:04.323Z</time></trkpt><trkpt lat="42.2716825" lon="13.7588148"><ele>530.5</ele><time>2026-05-02T10:35:05.325Z</time></trkpt><trkpt lat="42.2715557" lon="13.758751"><ele>531.0</ele><time>2026-05-02T10:35:06.333Z</time></trkpt><trkpt lat="42.2714191" lon="13.7587101"><ele>531.0</ele><time>2026-05-02T10:35:07.332Z</time></trkpt><trkpt lat="42.2712789" lon="13.7586982"><ele>531.0</ele><time>2026-05-02T10:35:08.327Z</time></trkpt><trkpt lat="42.2711445" lon="13.7587003"><ele>531.0</ele><time>2026-05-02T10:35:09.33Z</time></trkpt><trkpt lat="42.271017" lon="13.7587089"><ele>531.0</ele><time>2026-05-02T10:35:10.334Z</time></trkpt><trkpt lat="42.2708876" lon="13.7587083"><ele>531.0</ele><time>2026-05-02T10:35:11.319Z</time></trkpt><trkpt lat="42.2707731" lon="13.7587189"><ele>531.0</ele><time>2026-05-02T10:35:12.326Z</time></trkpt><trkpt lat="42.2706578" lon="13.7587377"><ele>531.0</ele><time>2026-05-02T10:35:13.323Z</time></trkpt><trkpt lat="42.2705446" lon="13.7587535"><ele>531.0</ele><time>2026-05-02T10:35:14.32Z</time></trkpt><trkpt lat="42.2704257" lon="13.758759"><ele>531.25</ele><time>2026-05-02T10:35:15.318Z</time></trkpt><trkpt lat="42.2703056" lon="13.7587661"><ele>531.5</ele><time>2026-05-02T10:35:16.32Z</time></trkpt><trkpt lat="42.2701875" lon="13.7587787"><ele>531.75</ele><time>2026-05-02T10:35:17.319Z</time></trkpt><trkpt lat="42.2700707" lon="13.7588024"><ele>532.0</ele><time>2026-05-02T10:35:18.321Z</time></trkpt><trkpt lat="42.2699644" lon="13.7588252"><ele>532.0</ele><time>2026-05-02T10:35:19.323Z</time></trkpt><trkpt lat="42.2698594" lon="13.758862"><ele>532.0</ele><time>2026-05-02T10:35:20.323Z</time></trkpt><trkpt lat="42.2697492" lon="13.7589111"><ele>532.0</ele><time>2026-05-02T10:35:21.32Z</time></trkpt><trkpt lat="42.2696391" lon="13.7589821"><ele>532.0</ele><time>2026-05-02T10:35:22.32Z</time></trkpt><trkpt lat="42.2695337" lon="13.7590605"><ele>532.2</ele><time>2026-05-02T10:35:23.321Z</time></trkpt><trkpt lat="42.2694246" lon="13.7591235"><ele>532.4000000000001</ele><time>2026-05-02T10:35:24.323Z</time></trkpt><trkpt lat="42.2693086" lon="13.7591726"><ele>532.5999999999999</ele><time>2026-05-02T10:35:25.315Z</time></trkpt><trkpt lat="42.269216" lon="13.759206"><ele>532.8</ele><time>2026-05-02T10:35:26.315Z</time></trkpt><trkpt lat="42.2691335" lon="13.7592303"><ele>533.0</ele><time>2026-05-02T10:35:27.319Z</time></trkpt><trkpt lat="42.2690614" lon="13.7592489"><ele>533.0</ele><time>2026-05-02T10:35:28.323Z</time></trkpt><trkpt lat="42.2689844" lon="13.7592753"><ele>533.0</ele><time>2026-05-02T10:35:29.328Z</time></trkpt><trkpt lat="42.268909" lon="13.7593056"><ele>533.0</ele><time>2026-05-02T10:35:30.318Z</time></trkpt><trkpt lat="42.2688402" lon="13.7593241"><ele>533.0</ele><time>2026-05-02T10:35:31.327Z</time></trkpt><trkpt lat="42.2687644" lon="13.7593804"><ele>533.0</ele><time>2026-05-02T10:35:35.332Z</time></trkpt><trkpt lat="42.2686878" lon="13.7594294"><ele>533.0</ele><time>2026-05-02T10:35:37.332Z</time></trkpt><trkpt lat="42.2686379" lon="13.759524"><ele>534.0</ele><time>2026-05-02T10:35:39.327Z</time></trkpt><trkpt lat="42.268575" lon="13.7596657"><ele>535.0</ele><time>2026-05-02T10:35:41.324Z</time></trkpt><trkpt lat="42.2685114" lon="13.7598109"><ele>536.0</ele><time>2026-05-02T10:35:43.327Z</time></trkpt><trkpt lat="42.2684455" lon="13.7599469"><ele>537.0</ele><time>2026-05-02T10:35:45.322Z</time></trkpt><trkpt lat="42.2684075" lon="13.7600169"><ele>538.0</ele><time>2026-05-02T10:35:46.327Z</time></trkpt><trkpt lat="42.2683659" lon="13.7600925"><ele>538.0</ele><time>2026-05-02T10:35:47.32Z</time></trkpt><trkpt lat="42.2683237" lon="13.7601635"><ele>538.0</ele><time>2026-05-02T10:35:48.324Z</time></trkpt><trkpt lat="42.2682839" lon="13.7602298"><ele>538.0</ele><time>2026-05-02T10:35:49.321Z</time></trkpt><trkpt lat="42.2682366" lon="13.7602863"><ele>538.0</ele><time>2026-05-02T10:35:50.319Z</time></trkpt><trkpt lat="42.2681821" lon="13.760354"><ele>538.0</ele><time>2026-05-02T10:35:51.31Z</time></trkpt><trkpt lat="42.2681202" lon="13.7604285"><ele>538.0</ele><time>2026-05-02T10:35:52.324Z</time></trkpt><trkpt lat="42.2680717" lon="13.7605006"><ele>538.0</ele><time>2026-05-02T10:35:53.321Z</time></trkpt><trkpt lat="42.2680135" lon="13.760564"><ele>538.4285714285714</ele><time>2026-05-02T10:35:54.324Z</time></trkpt><trkpt lat="42.2679658" lon="13.760625"><ele>538.8571428571429</ele><time>2026-05-02T10:35:55.319Z</time></trkpt><trkpt lat="42.2679154" lon="13.7606905"><ele>539.2857142857143</ele><time>2026-05-02T10:35:56.324Z</time></trkpt><trkpt lat="42.2678651" lon="13.760758"><ele>539.7142857142858</ele><time>2026-05-02T10:35:57.32Z</time></trkpt><trkpt lat="42.2678126" lon="13.7608198"><ele>540.1428571428571</ele><time>2026-05-02T10:35:58.327Z</time></trkpt><trkpt lat="42.2677534" lon="13.7609057"><ele>540.5714285714287</ele><time>2026-05-02T10:35:59.329Z</time></trkpt><trkpt lat="42.2676969" lon="13.7609796"><ele>541.0</ele><time>2026-05-02T10:36:00.325Z</time></trkpt><trkpt lat="42.2676373" lon="13.7610614"><ele>541.0000000000001</ele><time>2026-05-02T10:36:01.324Z</time></trkpt><trkpt lat="42.2675904" lon="13.7611462"><ele>541.0</ele><time>2026-05-02T10:36:02.324Z</time></trkpt><trkpt lat="42.267548" lon="13.7612227"><ele>541.0</ele><time>2026-05-02T10:36:03.324Z</time></trkpt><trkpt lat="42.2675097" lon="13.7612967"><ele>541.0</ele><time>2026-05-02T10:36:04.323Z</time></trkpt><trkpt lat="42.267462" lon="13.7613778"><ele>541.0</ele><time>2026-05-02T10:36:05.328Z</time></trkpt><trkpt lat="42.2674176" lon="13.7614509"><ele>541.0000000000001</ele><time>2026-05-02T10:36:06.32Z</time></trkpt><trkpt lat="42.2673633" lon="13.7615228"><ele>541.0</ele><time>2026-05-02T10:36:07.32Z</time></trkpt><trkpt lat="42.2673043" lon="13.761592"><ele>540.8333333333334</ele><time>2026-05-02T10:36:08.32Z</time></trkpt><trkpt lat="42.267229" lon="13.761646"><ele>540.6666666666667</ele><time>2026-05-02T10:36:09.325Z</time></trkpt><trkpt lat="42.267152" lon="13.7616996"><ele>540.5</ele><time>2026-05-02T10:36:10.324Z</time></trkpt><trkpt lat="42.2670832" lon="13.7617536"><ele>540.3333333333334</ele><time>2026-05-02T10:36:11.316Z</time></trkpt><trkpt lat="42.2670225" lon="13.7618045"><ele>540.1666666666666</ele><time>2026-05-02T10:36:12.323Z</time></trkpt><trkpt lat="42.2669665" lon="13.761873"><ele>540.0</ele><time>2026-05-02T10:36:13.318Z</time></trkpt><trkpt lat="42.2669146" lon="13.7619621"><ele>541.6</ele><time>2026-05-02T10:36:14.315Z</time></trkpt><trkpt lat="42.2668735" lon="13.762071"><ele>543.2</ele><time>2026-05-02T10:36:15.312Z</time></trkpt><trkpt lat="42.266828" lon="13.7622034"><ele>544.8</ele><time>2026-05-02T10:36:16.326Z</time></trkpt><trkpt lat="42.2667669" lon="13.7623292"><ele>546.4</ele><time>2026-05-02T10:36:17.322Z</time></trkpt><trkpt lat="42.2667018" lon="13.7624479"><ele>548.0</ele><time>2026-05-02T10:36:18.347Z</time></trkpt><trkpt lat="42.2666288" lon="13.7625404"><ele>548.0</ele><time>2026-05-02T10:36:19.399Z</time></trkpt><trkpt lat="42.266566" lon="13.762604"><ele>548.0</ele><time>2026-05-02T10:36:20.4Z</time></trkpt><trkpt lat="42.2664619" lon="13.7627011"><ele>548.0</ele><time>2026-05-02T10:36:21.406Z</time></trkpt><trkpt lat="42.2663772" lon="13.7628116"><ele>548.0</ele><time>2026-05-02T10:36:22.387Z</time></trkpt><trkpt lat="42.2662747" lon="13.7629097"><ele>548.0</ele><time>2026-05-02T10:36:23.303Z</time></trkpt><trkpt lat="42.2661798" lon="13.7630053"><ele>549.75</ele><time>2026-05-02T10:36:24.301Z</time></trkpt><trkpt lat="42.2660655" lon="13.7630771"><ele>551.5</ele><time>2026-05-02T10:36:25.3Z</time></trkpt><trkpt lat="42.2659413" lon="13.7631101"><ele>553.25</ele><time>2026-05-02T10:36:26.319Z</time></trkpt><trkpt lat="42.2658106" lon="13.7631343"><ele>555.0</ele><time>2026-05-02T10:36:27.321Z</time></trkpt><trkpt lat="42.2656815" lon="13.7631632"><ele>557.0</ele><time>2026-05-02T10:36:28.325Z</time></trkpt><trkpt lat="42.2655618" lon="13.7632216"><ele>559.0</ele><time>2026-05-02T10:36:29.323Z</time></trkpt><trkpt lat="42.2654518" lon="13.7633014"><ele>561.0</ele><time>2026-05-02T10:36:30.325Z</time></trkpt><trkpt lat="42.2653351" lon="13.7633605"><ele>563.0</ele><time>2026-05-02T10:36:31.31Z</time></trkpt><trkpt lat="42.2652059" lon="13.7633786"><ele>563.0</ele><time>2026-05-02T10:36:32.308Z</time></trkpt><trkpt lat="42.2650673" lon="13.7633727"><ele>563.0</ele><time>2026-05-02T10:36:33.314Z</time></trkpt><trkpt lat="42.2649321" lon="13.7633442"><ele>563.0</ele><time>2026-05-02T10:36:34.325Z</time></trkpt><trkpt lat="42.2647957" lon="13.7633354"><ele>563.0</ele><time>2026-05-02T10:36:35.322Z</time></trkpt><trkpt lat="42.2646599" lon="13.7633418"><ele>563.25</ele><time>2026-05-02T10:36:36.315Z</time></trkpt><trkpt lat="42.2645149" lon="13.7633697"><ele>563.5</ele><time>2026-05-02T10:36:37.323Z</time></trkpt><trkpt lat="42.2643663" lon="13.763426"><ele>563.75</ele><time>2026-05-02T10:36:38.31Z</time></trkpt><trkpt lat="42.26423" lon="13.7635026"><ele>564.0</ele><time>2026-05-02T10:36:39.317Z</time></trkpt><trkpt lat="42.2640801" lon="13.763588"><ele>568.3333333333334</ele><time>2026-05-02T10:36:40.331Z</time></trkpt><trkpt lat="42.2639409" lon="13.7636878"><ele>572.6666666666667</ele><time>2026-05-02T10:36:41.323Z</time></trkpt><trkpt lat="42.2637858" lon="13.7638001"><ele>577.0</ele><time>2026-05-02T10:36:42.323Z</time></trkpt><trkpt lat="42.2636475" lon="13.7639225"><ele>577.0</ele><time>2026-05-02T10:36:43.328Z</time></trkpt><trkpt lat="42.2635076" lon="13.7640491"><ele>577.0</ele><time>2026-05-02T10:36:44.32Z</time></trkpt><trkpt lat="42.2633593" lon="13.7641561"><ele>577.0</ele><time>2026-05-02T10:36:45.321Z</time></trkpt><trkpt lat="42.2631996" lon="13.764252"><ele>575.3333333333334</ele><time>2026-05-02T10:36:46.326Z</time></trkpt><trkpt lat="42.2630509" lon="13.7643458"><ele>573.6666666666666</ele><time>2026-05-02T10:36:47.322Z</time></trkpt><trkpt lat="42.2629099" lon="13.7644335"><ele>572.0</ele><time>2026-05-02T10:36:48.329Z</time></trkpt><trkpt lat="42.2627784" lon="13.7645166"><ele>577.0</ele><time>2026-05-02T10:36:49.317Z</time></trkpt><trkpt lat="42.2626415" lon="13.7645864"><ele>582.0</ele><time>2026-05-02T10:36:50.317Z</time></trkpt><trkpt lat="42.2624917" lon="13.7646215"><ele>587.0</ele><time>2026-05-02T10:36:51.318Z</time></trkpt><trkpt lat="42.2623464" lon="13.7646415"><ele>592.0</ele><time>2026-05-02T10:36:52.325Z</time></trkpt><trkpt lat="42.2622036" lon="13.764684"><ele>592.3333333333334</ele><time>2026-05-02T10:36:53.32Z</time></trkpt><trkpt lat="42.2620527" lon="13.7647405"><ele>592.6666666666666</ele><time>2026-05-02T10:36:54.324Z</time></trkpt><trkpt lat="42.2619046" lon="13.7648101"><ele>593.0</ele><time>2026-05-02T10:36:55.318Z</time></trkpt><trkpt lat="42.261754" lon="13.7648718"><ele>593.0</ele><time>2026-05-02T10:36:56.323Z</time></trkpt><trkpt lat="42.2616051" lon="13.7649247"><ele>593.0</ele><time>2026-05-02T10:36:57.321Z</time></trkpt><trkpt lat="42.261454" lon="13.764954"><ele>593.0</ele><time>2026-05-02T10:36:58.32Z</time></trkpt><trkpt lat="42.2613105" lon="13.7649915"><ele>591.5</ele><time>2026-05-02T10:36:59.326Z</time></trkpt><trkpt lat="42.2611723" lon="13.7650268"><ele>590.0</ele><time>2026-05-02T10:37:00.327Z</time></trkpt><trkpt lat="42.2610262" lon="13.7650618"><ele>588.5</ele><time>2026-05-02T10:37:01.314Z</time></trkpt><trkpt lat="42.2608775" lon="13.7650984"><ele>587.0</ele><time>2026-05-02T10:37:02.317Z</time></trkpt><trkpt lat="42.2607294" lon="13.7651489"><ele>595.0</ele><time>2026-05-02T10:37:03.316Z</time></trkpt><trkpt lat="42.2605794" lon="13.7652118"><ele>603.0</ele><time>2026-05-02T10:37:04.319Z</time></trkpt><trkpt lat="42.2604284" lon="13.7652744"><ele>611.0</ele><time>2026-05-02T10:37:05.315Z</time></trkpt><trkpt lat="42.2602814" lon="13.7653257"><ele>611.0</ele><time>2026-05-02T10:37:06.322Z</time></trkpt><trkpt lat="42.2601488" lon="13.7653863"><ele>611.0</ele><time>2026-05-02T10:37:07.32Z</time></trkpt><trkpt lat="42.2600373" lon="13.7654513"><ele>611.0</ele><time>2026-05-02T10:37:08.313Z</time></trkpt><trkpt lat="42.2599393" lon="13.7655088"><ele>611.0</ele><time>2026-05-02T10:37:09.315Z</time></trkpt><trkpt lat="42.2598483" lon="13.7655614"><ele>610.6</ele><time>2026-05-02T10:37:10.318Z</time></trkpt><trkpt lat="42.2597545" lon="13.7655896"><ele>610.2</ele><time>2026-05-02T10:37:11.323Z</time></trkpt><trkpt lat="42.2596548" lon="13.765619"><ele>609.8</ele><time>2026-05-02T10:37:12.324Z</time></trkpt><trkpt lat="42.2595628" lon="13.7656368"><ele>609.4</ele><time>2026-05-02T10:37:13.322Z</time></trkpt><trkpt lat="42.2594618" lon="13.7656344"><ele>609.0</ele><time>2026-05-02T10:37:14.314Z</time></trkpt><trkpt lat="42.2593538" lon="13.7656039"><ele>609.0</ele><time>2026-05-02T10:37:15.314Z</time></trkpt><trkpt lat="42.2592332" lon="13.7655528"><ele>609.0</ele><time>2026-05-02T10:37:16.319Z</time></trkpt><trkpt lat="42.2591041" lon="13.7655068"><ele>609.0</ele><time>2026-05-02T10:37:17.326Z</time></trkpt><trkpt lat="42.2589821" lon="13.7654723"><ele>609.0</ele><time>2026-05-02T10:37:18.318Z</time></trkpt><trkpt lat="42.2588771" lon="13.7654454"><ele>608.8333333333334</ele><time>2026-05-02T10:37:19.315Z</time></trkpt><trkpt lat="42.2587868" lon="13.7654248"><ele>608.6666666666666</ele><time>2026-05-02T10:37:20.324Z</time></trkpt><trkpt lat="42.2587146" lon="13.7654122"><ele>608.5</ele><time>2026-05-02T10:37:21.316Z</time></trkpt><trkpt lat="42.2586088" lon="13.7653904"><ele>608.3333333333333</ele><time>2026-05-02T10:37:23.31Z</time></trkpt><trkpt lat="42.2585263" lon="13.7653787"><ele>608.1666666666666</ele><time>2026-05-02T10:37:25.318Z</time></trkpt><trkpt lat="42.2584545" lon="13.765371"><ele>608.0</ele><time>2026-05-02T10:37:27.327Z</time></trkpt><trkpt lat="42.2583819" lon="13.7653409"><ele>608.0</ele><time>2026-05-02T10:37:31.336Z</time></trkpt><trkpt lat="42.2583146" lon="13.7653332"><ele>608.0</ele><time>2026-05-02T10:37:36.331Z</time></trkpt><trkpt lat="42.2582496" lon="13.7653166"><ele>608.0</ele><time>2026-05-02T10:37:39.317Z</time></trkpt><trkpt lat="42.2581474" lon="13.7652719"><ele>608.0</ele><time>2026-05-02T10:37:41.342Z</time></trkpt><trkpt lat="42.2580876" lon="13.7652403"><ele>608.0</ele><time>2026-05-02T10:37:42.339Z</time></trkpt><trkpt lat="42.2580219" lon="13.7652043"><ele>608.0</ele><time>2026-05-02T10:37:43.327Z</time></trkpt><trkpt lat="42.2579571" lon="13.765162"><ele>608.0</ele><time>2026-05-02T10:37:44.327Z</time></trkpt><trkpt lat="42.2578848" lon="13.7651159"><ele>609.3333333333333</ele><time>2026-05-02T10:37:45.322Z</time></trkpt><trkpt lat="42.2578105" lon="13.7650738"><ele>610.6666666666666</ele><time>2026-05-02T10:37:46.323Z</time></trkpt><trkpt lat="42.2577305" lon="13.7650286"><ele>612.0</ele><time>2026-05-02T10:37:47.322Z</time></trkpt><trkpt lat="42.2576511" lon="13.7649862"><ele>613.3333333333334</ele><time>2026-05-02T10:37:48.331Z</time></trkpt><trkpt lat="42.2575632" lon="13.7649467"><ele>614.6666666666667</ele><time>2026-05-02T10:37:49.322Z</time></trkpt><trkpt lat="42.2574865" lon="13.7649127"><ele>616.0</ele><time>2026-05-02T10:37:50.311Z</time></trkpt><trkpt lat="42.2573762" lon="13.7648755"><ele>616.8</ele><time>2026-05-02T10:37:52.328Z</time></trkpt><trkpt lat="42.2572696" lon="13.7648158"><ele>617.6</ele><time>2026-05-02T10:37:54.33Z</time></trkpt><trkpt lat="42.2571766" lon="13.7647615"><ele>618.4</ele><time>2026-05-02T10:37:56.325Z</time></trkpt><trkpt lat="42.2570589" lon="13.7647115"><ele>619.2</ele><time>2026-05-02T10:37:58.332Z</time></trkpt><trkpt lat="42.2570018" lon="13.7646744"><ele>620.0</ele><time>2026-05-02T10:37:59.334Z</time></trkpt><trkpt lat="42.2569351" lon="13.7646511"><ele>620.0</ele><time>2026-05-02T10:38:00.308Z</time></trkpt><trkpt lat="42.2568699" lon="13.7646534"><ele>620.0</ele><time>2026-05-02T10:38:01.308Z</time></trkpt><trkpt lat="42.2567994" lon="13.7646835"><ele>620.0</ele><time>2026-05-02T10:38:02.327Z</time></trkpt><trkpt lat="42.256735" lon="13.7647148"><ele>620.0</ele><time>2026-05-02T10:38:03.32Z</time></trkpt><trkpt lat="42.2566636" lon="13.7647492"><ele>620.0</ele><time>2026-05-02T10:38:04.321Z</time></trkpt><trkpt lat="42.2565952" lon="13.7647786"><ele>620.0</ele><time>2026-05-02T10:38:05.325Z</time></trkpt><trkpt lat="42.2564875" lon="13.7647809"><ele>621.1428571428571</ele><time>2026-05-02T10:38:07.321Z</time></trkpt><trkpt lat="42.2564245" lon="13.7647801"><ele>622.2857142857142</ele><time>2026-05-02T10:38:08.323Z</time></trkpt><trkpt lat="42.2563558" lon="13.7647795"><ele>623.4285714285713</ele><time>2026-05-02T10:38:09.325Z</time></trkpt><trkpt lat="42.2562872" lon="13.7647757"><ele>624.5714285714286</ele><time>2026-05-02T10:38:10.324Z</time></trkpt><trkpt lat="42.2562149" lon="13.7647757"><ele>625.7142857142857</ele><time>2026-05-02T10:38:11.317Z</time></trkpt><trkpt lat="42.2561386" lon="13.7647773"><ele>626.8571428571428</ele><time>2026-05-02T10:38:12.329Z</time></trkpt><trkpt lat="42.2560537" lon="13.7647678"><ele>628.0</ele><time>2026-05-02T10:38:13.328Z</time></trkpt><trkpt lat="42.2559656" lon="13.764755"><ele>628.0</ele><time>2026-05-02T10:38:14.32Z</time></trkpt><trkpt lat="42.255877" lon="13.7647376"><ele>628.0</ele><time>2026-05-02T10:38:15.323Z</time></trkpt><trkpt lat="42.2557772" lon="13.7647273"><ele>628.0</ele><time>2026-05-02T10:38:16.327Z</time></trkpt><trkpt lat="42.2556698" lon="13.7647033"><ele>628.0</ele><time>2026-05-02T10:38:17.324Z</time></trkpt><trkpt lat="42.2555578" lon="13.7646889"><ele>628.0</ele><time>2026-05-02T10:38:18.327Z</time></trkpt><trkpt lat="42.2554431" lon="13.7646673"><ele>629.0</ele><time>2026-05-02T10:38:19.322Z</time></trkpt><trkpt lat="42.2553267" lon="13.7646401"><ele>630.0</ele><time>2026-05-02T10:38:20.324Z</time></trkpt><trkpt lat="42.2552281" lon="13.7645894"><ele>631.0</ele><time>2026-05-02T10:38:21.32Z</time></trkpt><trkpt lat="42.2551405" lon="13.7645354"><ele>632.0</ele><time>2026-05-02T10:38:22.321Z</time></trkpt><trkpt lat="42.2550559" lon="13.764508"><ele>633.0</ele><time>2026-05-02T10:38:23.32Z</time></trkpt><trkpt lat="42.2549703" lon="13.7645097"><ele>633.0</ele><time>2026-05-02T10:38:24.317Z</time></trkpt><trkpt lat="42.2548883" lon="13.764541"><ele>633.0</ele><time>2026-05-02T10:38:25.321Z</time></trkpt><trkpt lat="42.2548" lon="13.7645691"><ele>633.0</ele><time>2026-05-02T10:38:26.318Z</time></trkpt><trkpt lat="42.2547031" lon="13.7645688"><ele>633.0</ele><time>2026-05-02T10:38:27.316Z</time></trkpt><trkpt lat="42.2546109" lon="13.7645533"><ele>633.0</ele><time>2026-05-02T10:38:28.323Z</time></trkpt><trkpt lat="42.2545209" lon="13.7645165"><ele>635.2</ele><time>2026-05-02T10:38:29.33Z</time></trkpt><trkpt lat="42.2544236" lon="13.7644913"><ele>637.4</ele><time>2026-05-02T10:38:30.326Z</time></trkpt><trkpt lat="42.2543293" lon="13.7644849"><ele>639.6</ele><time>2026-05-02T10:38:31.32Z</time></trkpt><trkpt lat="42.254232" lon="13.7644788"><ele>641.8000000000001</ele><time>2026-05-02T10:38:32.322Z</time></trkpt><trkpt lat="42.2541324" lon="13.7644641"><ele>644.0</ele><time>2026-05-02T10:38:33.328Z</time></trkpt><trkpt lat="42.254048" lon="13.7644438"><ele>644.0</ele><time>2026-05-02T10:38:34.32Z</time></trkpt><trkpt lat="42.2539705" lon="13.7644247"><ele>644.0</ele><time>2026-05-02T10:38:35.322Z</time></trkpt><trkpt lat="42.2538969" lon="13.7643897"><ele>644.0</ele><time>2026-05-02T10:38:36.317Z</time></trkpt><trkpt lat="42.2538138" lon="13.7643544"><ele>644.0</ele><time>2026-05-02T10:38:37.324Z</time></trkpt><trkpt lat="42.253732" lon="13.7643138"><ele>644.0</ele><time>2026-05-02T10:38:38.322Z</time></trkpt><trkpt lat="42.2536573" lon="13.7642575"><ele>644.0</ele><time>2026-05-02T10:38:39.324Z</time></trkpt><trkpt lat="42.2535823" lon="13.7641937"><ele>645.4000000000001</ele><time>2026-05-02T10:38:40.32Z</time></trkpt><trkpt lat="42.2535265" lon="13.7641195"><ele>646.8</ele><time>2026-05-02T10:38:41.326Z</time></trkpt><trkpt lat="42.2534838" lon="13.7640262"><ele>648.2</ele><time>2026-05-02T10:38:42.31Z</time></trkpt><trkpt lat="42.2534287" lon="13.7639131"><ele>649.5999999999999</ele><time>2026-05-02T10:38:43.321Z</time></trkpt><trkpt lat="42.25337" lon="13.7638029"><ele>651.0</ele><time>2026-05-02T10:38:44.333Z</time></trkpt><trkpt lat="42.2533033" lon="13.7637058"><ele>651.0</ele><time>2026-05-02T10:38:45.321Z</time></trkpt><trkpt lat="42.2532335" lon="13.7636306"><ele>651.0</ele><time>2026-05-02T10:38:46.323Z</time></trkpt><trkpt lat="42.2531495" lon="13.7635697"><ele>651.0</ele><time>2026-05-02T10:38:47.318Z</time></trkpt><trkpt lat="42.2530573" lon="13.7635314"><ele>651.0</ele><time>2026-05-02T10:38:48.316Z</time></trkpt><trkpt lat="42.2529508" lon="13.7635073"><ele>651.0</ele><time>2026-05-02T10:38:49.316Z</time></trkpt><trkpt lat="42.2528441" lon="13.7634843"><ele>652.4</ele><time>2026-05-02T10:38:50.315Z</time></trkpt><trkpt lat="42.252744" lon="13.7634528"><ele>653.8</ele><time>2026-05-02T10:38:51.312Z</time></trkpt><trkpt lat="42.2526395" lon="13.7634244"><ele>655.1999999999999</ele><time>2026-05-02T10:38:52.314Z</time></trkpt><trkpt lat="42.2525352" lon="13.7634101"><ele>656.5999999999999</ele><time>2026-05-02T10:38:53.306Z</time></trkpt><trkpt lat="42.2524466" lon="13.7634019"><ele>658.0</ele><time>2026-05-02T10:38:54.304Z</time></trkpt><trkpt lat="42.2523594" lon="13.7633962"><ele>657.5</ele><time>2026-05-02T10:38:55.313Z</time></trkpt><trkpt lat="42.2522793" lon="13.7633645"><ele>657.0</ele><time>2026-05-02T10:38:56.313Z</time></trkpt><trkpt lat="42.2521991" lon="13.7633292"><ele>656.5</ele><time>2026-05-02T10:38:57.31Z</time></trkpt><trkpt lat="42.2521186" lon="13.7632868"><ele>656.0</ele><time>2026-05-02T10:38:58.314Z</time></trkpt><trkpt lat="42.2520476" lon="13.7632443"><ele>655.5</ele><time>2026-05-02T10:38:59.32Z</time></trkpt><trkpt lat="42.2519723" lon="13.7631934"><ele>655.0</ele><time>2026-05-02T10:39:00.319Z</time></trkpt><trkpt lat="42.2518976" lon="13.7631303"><ele>655.0</ele><time>2026-05-02T10:39:01.315Z</time></trkpt><trkpt lat="42.2518233" lon="13.7630558"><ele>655.0</ele><time>2026-05-02T10:39:02.318Z</time></trkpt><trkpt lat="42.2517571" lon="13.7629667"><ele>655.0</ele><time>2026-05-02T10:39:03.31Z</time></trkpt><trkpt lat="42.251699" lon="13.7628674"><ele>655.0</ele><time>2026-05-02T10:39:04.318Z</time></trkpt><trkpt lat="42.2516372" lon="13.7627765"><ele>655.0</ele><time>2026-05-02T10:39:05.309Z</time></trkpt><trkpt lat="42.2515712" lon="13.7626946"><ele>658.6</ele><time>2026-05-02T10:39:06.308Z</time></trkpt><trkpt lat="42.2514968" lon="13.76263"><ele>662.2</ele><time>2026-05-02T10:39:07.31Z</time></trkpt><trkpt lat="42.2514129" lon="13.7625589"><ele>665.8</ele><time>2026-05-02T10:39:08.312Z</time></trkpt><trkpt lat="42.2513312" lon="13.7624855"><ele>669.4</ele><time>2026-05-02T10:39:09.311Z</time></trkpt><trkpt lat="42.2512493" lon="13.7624062"><ele>673.0</ele><time>2026-05-02T10:39:10.313Z</time></trkpt><trkpt lat="42.2511729" lon="13.7623444"><ele>673.0</ele><time>2026-05-02T10:39:11.313Z</time></trkpt><trkpt lat="42.2511062" lon="13.762294"><ele>673.0</ele><time>2026-05-02T10:39:12.311Z</time></trkpt><trkpt lat="42.2510268" lon="13.762258"><ele>673.0</ele><time>2026-05-02T10:39:13.309Z</time></trkpt><trkpt lat="42.2509482" lon="13.7622223"><ele>673.0</ele><time>2026-05-02T10:39:14.319Z</time></trkpt><trkpt lat="42.2508655" lon="13.7622024"><ele>673.0</ele><time>2026-05-02T10:39:15.312Z</time></trkpt><trkpt lat="42.2507925" lon="13.7621862"><ele>673.0</ele><time>2026-05-02T10:39:16.306Z</time></trkpt><trkpt lat="42.2506883" lon="13.7622372"><ele>673.0</ele><time>2026-05-02T10:39:18.303Z</time></trkpt><trkpt lat="42.2506375" lon="13.7623835"><ele>673.0</ele><time>2026-05-02T10:39:20.311Z</time></trkpt><trkpt lat="42.2506159" lon="13.7624714"><ele>673.0</ele><time>2026-05-02T10:39:21.307Z</time></trkpt><trkpt lat="42.2505841" lon="13.762547"><ele>673.0</ele><time>2026-05-02T10:39:22.306Z</time></trkpt><trkpt lat="42.2505283" lon="13.7625962"><ele>673.0</ele><time>2026-05-02T10:39:23.305Z</time></trkpt><trkpt lat="42.2504549" lon="13.7626386"><ele>673.0</ele><time>2026-05-02T10:39:24.306Z</time></trkpt><trkpt lat="42.2503676" lon="13.7626717"><ele>672.2</ele><time>2026-05-02T10:39:25.312Z</time></trkpt><trkpt lat="42.2502673" lon="13.7627002"><ele>671.4</ele><time>2026-05-02T10:39:26.311Z</time></trkpt><trkpt lat="42.2501618" lon="13.7627114"><ele>670.6</ele><time>2026-05-02T10:39:27.311Z</time></trkpt><trkpt lat="42.2500558" lon="13.7627208"><ele>669.8000000000001</ele><time>2026-05-02T10:39:28.314Z</time></trkpt><trkpt lat="42.2499455" lon="13.7627515"><ele>669.0</ele><time>2026-05-02T10:39:29.321Z</time></trkpt><trkpt lat="42.2498463" lon="13.7627962"><ele>672.0</ele><time>2026-05-02T10:39:30.316Z</time></trkpt><trkpt lat="42.2497545" lon="13.7628282"><ele>675.0</ele><time>2026-05-02T10:39:31.313Z</time></trkpt><trkpt lat="42.2496668" lon="13.7628793"><ele>678.0</ele><time>2026-05-02T10:39:32.318Z</time></trkpt><trkpt lat="42.2495886" lon="13.7629542"><ele>681.0</ele><time>2026-05-02T10:39:33.312Z</time></trkpt><trkpt lat="42.2495084" lon="13.7630526"><ele>684.0</ele><time>2026-05-02T10:39:34.317Z</time></trkpt><trkpt lat="42.2494413" lon="13.763142"><ele>684.0</ele><time>2026-05-02T10:39:35.323Z</time></trkpt><trkpt lat="42.2493634" lon="13.763232"><ele>684.0</ele><time>2026-05-02T10:39:36.315Z</time></trkpt><trkpt lat="42.249275" lon="13.7633044"><ele>684.0</ele><time>2026-05-02T10:39:37.313Z</time></trkpt><trkpt lat="42.2491822" lon="13.7633582"><ele>684.0</ele><time>2026-05-02T10:39:38.31Z</time></trkpt><trkpt lat="42.2490818" lon="13.7634165"><ele>684.0</ele><time>2026-05-02T10:39:39.313Z</time></trkpt><trkpt lat="42.2489703" lon="13.7634722"><ele>684.8000000000001</ele><time>2026-05-02T10:39:40.316Z</time></trkpt><trkpt lat="42.2488555" lon="13.7635397"><ele>685.6</ele><time>2026-05-02T10:39:41.315Z</time></trkpt><trkpt lat="42.2487494" lon="13.763612"><ele>686.4</ele><time>2026-05-02T10:39:42.314Z</time></trkpt><trkpt lat="42.2486626" lon="13.7636866"><ele>687.2</ele><time>2026-05-02T10:39:43.314Z</time></trkpt><trkpt lat="42.2485873" lon="13.7637696"><ele>688.0</ele><time>2026-05-02T10:39:44.313Z</time></trkpt><trkpt lat="42.2485087" lon="13.7638587"><ele>688.0</ele><time>2026-05-02T10:39:45.317Z</time></trkpt><trkpt lat="42.2484335" lon="13.7639658"><ele>688.0</ele><time>2026-05-02T10:39:46.314Z</time></trkpt><trkpt lat="42.2483492" lon="13.764074"><ele>688.0</ele><time>2026-05-02T10:39:47.318Z</time></trkpt><trkpt lat="42.2482551" lon="13.7641784"><ele>688.0</ele><time>2026-05-02T10:39:48.314Z</time></trkpt><trkpt lat="42.2481626" lon="13.7642794"><ele>689.5999999999999</ele><time>2026-05-02T10:39:49.315Z</time></trkpt><trkpt lat="42.2480742" lon="13.7643752"><ele>691.1999999999999</ele><time>2026-05-02T10:39:50.315Z</time></trkpt><trkpt lat="42.2479887" lon="13.7644701"><ele>692.8</ele><time>2026-05-02T10:39:51.315Z</time></trkpt><trkpt lat="42.2479078" lon="13.7645583"><ele>694.4</ele><time>2026-05-02T10:39:52.318Z</time></trkpt><trkpt lat="42.2478379" lon="13.7646536"><ele>696.0</ele><time>2026-05-02T10:39:53.315Z</time></trkpt><trkpt lat="42.2477764" lon="13.7647547"><ele>696.0</ele><time>2026-05-02T10:39:54.312Z</time></trkpt><trkpt lat="42.2477283" lon="13.7648616"><ele>696.0</ele><time>2026-05-02T10:39:55.312Z</time></trkpt><trkpt lat="42.2476876" lon="13.7649606"><ele>696.0</ele><time>2026-05-02T10:39:56.318Z</time></trkpt><trkpt lat="42.2476439" lon="13.7650509"><ele>696.0</ele><time>2026-05-02T10:39:57.312Z</time></trkpt><trkpt lat="42.2475879" lon="13.7651175"><ele>696.0</ele><time>2026-05-02T10:39:58.31Z</time></trkpt><trkpt lat="42.2475277" lon="13.765177"><ele>696.0</ele><time>2026-05-02T10:39:59.313Z</time></trkpt><trkpt lat="42.2474578" lon="13.7652261"><ele>696.3333333333334</ele><time>2026-05-02T10:40:00.319Z</time></trkpt><trkpt lat="42.2473772" lon="13.7652755"><ele>696.6666666666666</ele><time>2026-05-02T10:40:01.312Z</time></trkpt><trkpt lat="42.247295" lon="13.7653424"><ele>697.0</ele><time>2026-05-02T10:40:02.316Z</time></trkpt><trkpt lat="42.2472116" lon="13.7654008"><ele>697.3333333333333</ele><time>2026-05-02T10:40:03.315Z</time></trkpt><trkpt lat="42.2471316" lon="13.7654343"><ele>697.6666666666666</ele><time>2026-05-02T10:40:04.311Z</time></trkpt><trkpt lat="42.2470521" lon="13.7654528"><ele>698.0</ele><time>2026-05-02T10:40:05.315Z</time></trkpt><trkpt lat="42.2469929" lon="13.7654835"><ele>699.9999999999999</ele><time>2026-05-02T10:40:06.325Z</time></trkpt><trkpt lat="42.2469362" lon="13.7655267"><ele>702.0</ele><time>2026-05-02T10:40:07.313Z</time></trkpt><trkpt lat="42.2468782" lon="13.7655762"><ele>704.0</ele><time>2026-05-02T10:40:08.311Z</time></trkpt><trkpt lat="42.2468172" lon="13.7656225"><ele>706.0</ele><time>2026-05-02T10:40:09.315Z</time></trkpt><trkpt lat="42.2467543" lon="13.7656651"><ele>708.0</ele><time>2026-05-02T10:40:10.319Z</time></trkpt><trkpt lat="42.2466868" lon="13.765715"><ele>709.9999999999999</ele><time>2026-05-02T10:40:11.316Z</time></trkpt><trkpt lat="42.2466256" lon="13.7657811"><ele>712.0</ele><time>2026-05-02T10:40:12.315Z</time></trkpt><trkpt lat="42.2465596" lon="13.7658381"><ele>712.0</ele><time>2026-05-02T10:40:13.32Z</time></trkpt><trkpt lat="42.2464975" lon="13.7658917"><ele>712.0</ele><time>2026-05-02T10:40:14.314Z</time></trkpt><trkpt lat="42.2464411" lon="13.7659615"><ele>712.0</ele><time>2026-05-02T10:40:15.307Z</time></trkpt><trkpt lat="42.2463837" lon="13.7660321"><ele>712.0</ele><time>2026-05-02T10:40:16.318Z</time></trkpt><trkpt lat="42.2463305" lon="13.7661165"><ele>712.0</ele><time>2026-05-02T10:40:17.311Z</time></trkpt><trkpt lat="42.2462753" lon="13.7662123"><ele>712.0</ele><time>2026-05-02T10:40:18.316Z</time></trkpt><trkpt lat="42.2462201" lon="13.7662877"><ele>713.6</ele><time>2026-05-02T10:40:19.307Z</time></trkpt><trkpt lat="42.2461501" lon="13.7663782"><ele>715.2</ele><time>2026-05-02T10:40:21.304Z</time></trkpt><trkpt lat="42.2461021" lon="13.7664496"><ele>716.8</ele><time>2026-05-02T10:41:27.331Z</time></trkpt><trkpt lat="42.2460437" lon="13.766489"><ele>718.4</ele><time>2026-05-02T10:41:30.329Z</time></trkpt><trkpt lat="42.2459534" lon="13.7665187"><ele>720.0</ele><time>2026-05-02T10:41:33.322Z</time></trkpt><trkpt lat="42.2458302" lon="13.7665363"><ele>720.0</ele><time>2026-05-02T10:41:35.319Z</time></trkpt><trkpt lat="42.2457442" lon="13.7665649"><ele>720.0</ele><time>2026-05-02T10:41:36.32Z</time></trkpt><trkpt lat="42.245658" lon="13.7666005"><ele>720.0</ele><time>2026-05-02T10:41:37.318Z</time></trkpt><trkpt lat="42.2455764" lon="13.7666371"><ele>720.0</ele><time>2026-05-02T10:41:38.324Z</time></trkpt><trkpt lat="42.2454866" lon="13.7666841"><ele>720.0</ele><time>2026-05-02T10:41:39.317Z</time></trkpt><trkpt lat="42.2454057" lon="13.7667411"><ele>719.8333333333334</ele><time>2026-05-02T10:41:40.314Z</time></trkpt><trkpt lat="42.2453363" lon="13.7667909"><ele>719.6666666666666</ele><time>2026-05-02T10:41:41.311Z</time></trkpt><trkpt lat="42.2452703" lon="13.7668289"><ele>719.5</ele><time>2026-05-02T10:41:42.312Z</time></trkpt><trkpt lat="42.2451951" lon="13.7668458"><ele>719.3333333333333</ele><time>2026-05-02T10:41:43.314Z</time></trkpt><trkpt lat="42.2450981" lon="13.7668568"><ele>719.1666666666666</ele><time>2026-05-02T10:41:44.314Z</time></trkpt><trkpt lat="42.2449971" lon="13.7668876"><ele>719.0</ele><time>2026-05-02T10:41:45.321Z</time></trkpt><trkpt lat="42.2449092" lon="13.7669115"><ele>719.0</ele><time>2026-05-02T10:41:46.329Z</time></trkpt><trkpt lat="42.2448311" lon="13.7669339"><ele>719.0</ele><time>2026-05-02T10:41:47.328Z</time></trkpt><trkpt lat="42.244749" lon="13.7669726"><ele>719.0</ele><time>2026-05-02T10:41:48.324Z</time></trkpt><trkpt lat="42.2446664" lon="13.7670032"><ele>719.0</ele><time>2026-05-02T10:41:49.328Z</time></trkpt><trkpt lat="42.2445735" lon="13.7670265"><ele>719.0</ele><time>2026-05-02T10:41:50.327Z</time></trkpt><trkpt lat="42.2444807" lon="13.7670476"><ele>719.0</ele><time>2026-05-02T10:41:51.325Z</time></trkpt><trkpt lat="42.2443856" lon="13.7670604"><ele>721.0</ele><time>2026-05-02T10:41:52.325Z</time></trkpt><trkpt lat="42.2442925" lon="13.7670731"><ele>723.0</ele><time>2026-05-02T10:41:53.323Z</time></trkpt><trkpt lat="42.2441938" lon="13.7670746"><ele>725.0</ele><time>2026-05-02T10:41:54.327Z</time></trkpt><trkpt lat="42.2440967" lon="13.7670895"><ele>727.0</ele><time>2026-05-02T10:41:55.318Z</time></trkpt><trkpt lat="42.2439952" lon="13.7671199"><ele>729.0</ele><time>2026-05-02T10:41:56.314Z</time></trkpt><trkpt lat="42.2438948" lon="13.7671458"><ele>731.5</ele><time>2026-05-02T10:41:57.318Z</time></trkpt><trkpt lat="42.2438069" lon="13.7671788"><ele>734.0</ele><time>2026-05-02T10:41:58.311Z</time></trkpt><trkpt lat="42.243726" lon="13.767214"><ele>736.5</ele><time>2026-05-02T10:41:59.322Z</time></trkpt><trkpt lat="42.2436583" lon="13.7672399"><ele>739.0</ele><time>2026-05-02T10:42:00.319Z</time></trkpt><trkpt lat="42.2435869" lon="13.7672601"><ele>741.5</ele><time>2026-05-02T10:42:01.317Z</time></trkpt><trkpt lat="42.2435092" lon="13.7672666"><ele>744.0</ele><time>2026-05-02T10:42:02.317Z</time></trkpt><trkpt lat="42.243427" lon="13.7672595"><ele>744.0</ele><time>2026-05-02T10:42:03.317Z</time></trkpt><trkpt lat="42.2433347" lon="13.7672744"><ele>744.0</ele><time>2026-05-02T10:42:04.314Z</time></trkpt><trkpt lat="42.2432479" lon="13.7673063"><ele>744.0</ele><time>2026-05-02T10:42:05.316Z</time></trkpt><trkpt lat="42.2431676" lon="13.7673428"><ele>744.0</ele><time>2026-05-02T10:42:06.307Z</time></trkpt><trkpt lat="42.243087" lon="13.7673507"><ele>744.0</ele><time>2026-05-02T10:42:07.316Z</time></trkpt><trkpt lat="42.2430056" lon="13.7673387"><ele>744.0</ele><time>2026-05-02T10:42:08.306Z</time></trkpt><trkpt lat="42.2429154" lon="13.7673312"><ele>746.6</ele><time>2026-05-02T10:42:09.312Z</time></trkpt><trkpt lat="42.2428198" lon="13.7673241"><ele>749.2</ele><time>2026-05-02T10:42:10.306Z</time></trkpt><trkpt lat="42.2427237" lon="13.7673468"><ele>751.8000000000001</ele><time>2026-05-02T10:42:11.306Z</time></trkpt><trkpt lat="42.2426191" lon="13.7673859"><ele>754.4000000000001</ele><time>2026-05-02T10:42:12.313Z</time></trkpt><trkpt lat="42.2425057" lon="13.7674185"><ele>757.0</ele><time>2026-05-02T10:42:13.306Z</time></trkpt><trkpt lat="42.2424137" lon="13.7674616"><ele>757.0</ele><time>2026-05-02T10:42:14.308Z</time></trkpt><trkpt lat="42.2423171" lon="13.7675088"><ele>757.0</ele><time>2026-05-02T10:42:15.301Z</time></trkpt><trkpt lat="42.2422108" lon="13.7675343"><ele>757.0</ele><time>2026-05-02T10:42:16.308Z</time></trkpt><trkpt lat="42.2421064" lon="13.7675597"><ele>757.0</ele><time>2026-05-02T10:42:17.319Z</time></trkpt><trkpt lat="42.2420077" lon="13.7676064"><ele>757.0</ele><time>2026-05-02T10:42:18.305Z</time></trkpt><trkpt lat="42.241905" lon="13.7676853"><ele>757.0</ele><time>2026-05-02T10:42:19.304Z</time></trkpt><trkpt lat="42.2418076" lon="13.7677539"><ele>757.0</ele><time>2026-05-02T10:42:20.311Z</time></trkpt><trkpt lat="42.2417193" lon="13.7678295"><ele>757.0</ele><time>2026-05-02T10:42:21.298Z</time></trkpt><trkpt lat="42.2416389" lon="13.767916"><ele>757.0</ele><time>2026-05-02T10:42:22.305Z</time></trkpt><trkpt lat="42.2415527" lon="13.7680086"><ele>757.0</ele><time>2026-05-02T10:42:23.307Z</time></trkpt><trkpt lat="42.2414721" lon="13.7681187"><ele>761.5</ele><time>2026-05-02T10:42:24.303Z</time></trkpt><trkpt lat="42.2413959" lon="13.7682418"><ele>766.0</ele><time>2026-05-02T10:42:25.309Z</time></trkpt><trkpt lat="42.2413282" lon="13.7683741"><ele>770.5</ele><time>2026-05-02T10:42:26.31Z</time></trkpt><trkpt lat="42.2412631" lon="13.7685089"><ele>775.0</ele><time>2026-05-02T10:42:27.307Z</time></trkpt><trkpt lat="42.241194" lon="13.7686279"><ele>775.0</ele><time>2026-05-02T10:42:28.313Z</time></trkpt><trkpt lat="42.2411208" lon="13.7687316"><ele>775.0</ele><time>2026-05-02T10:42:29.315Z</time></trkpt><trkpt lat="42.2410436" lon="13.7688392"><ele>775.0</ele><time>2026-05-02T10:42:30.312Z</time></trkpt><trkpt lat="42.2409871" lon="13.7689316"><ele>775.0</ele><time>2026-05-02T10:42:31.305Z</time></trkpt><trkpt lat="42.2409383" lon="13.7690148"><ele>775.0</ele><time>2026-05-02T10:42:32.318Z</time></trkpt><trkpt lat="42.2408919" lon="13.769114"><ele>774.9999999999999</ele><time>2026-05-02T10:42:33.319Z</time></trkpt><trkpt lat="42.2408592" lon="13.7692254"><ele>775.0</ele><time>2026-05-02T10:42:34.325Z</time></trkpt><trkpt lat="42.2408275" lon="13.7693045"><ele>775.0</ele><time>2026-05-02T10:42:35.312Z</time></trkpt><trkpt lat="42.2407385" lon="13.7693743"><ele>775.0</ele><time>2026-05-02T10:42:37.321Z</time></trkpt><trkpt lat="42.2406261" lon="13.769365"><ele>774.9999999999999</ele><time>2026-05-02T10:42:39.325Z</time></trkpt><trkpt lat="42.2405636" lon="13.7693459"><ele>775.0</ele><time>2026-05-02T10:42:40.333Z</time></trkpt><trkpt lat="42.2404959" lon="13.7693163"><ele>777.3333333333333</ele><time>2026-05-02T10:42:41.322Z</time></trkpt><trkpt lat="42.2404225" lon="13.7692674"><ele>779.6666666666666</ele><time>2026-05-02T10:42:42.326Z</time></trkpt><trkpt lat="42.2403407" lon="13.7692197"><ele>782.0</ele><time>2026-05-02T10:42:43.327Z</time></trkpt><trkpt lat="42.2402511" lon="13.7691935"><ele>784.3333333333333</ele><time>2026-05-02T10:42:44.325Z</time></trkpt><trkpt lat="42.2401701" lon="13.7691945"><ele>786.6666666666666</ele><time>2026-05-02T10:42:45.322Z</time></trkpt><trkpt lat="42.2400871" lon="13.7691991"><ele>789.0</ele><time>2026-05-02T10:42:46.327Z</time></trkpt><trkpt lat="42.2400007" lon="13.7691959"><ele>789.0</ele><time>2026-05-02T10:42:47.32Z</time></trkpt><trkpt lat="42.2399195" lon="13.7691914"><ele>789.0</ele><time>2026-05-02T10:42:48.314Z</time></trkpt><trkpt lat="42.2398324" lon="13.7691791"><ele>789.0</ele><time>2026-05-02T10:42:49.316Z</time></trkpt><trkpt lat="42.2397352" lon="13.7691625"><ele>789.0</ele><time>2026-05-02T10:42:50.317Z</time></trkpt><trkpt lat="42.2396477" lon="13.7691424"><ele>789.0</ele><time>2026-05-02T10:42:51.309Z</time></trkpt><trkpt lat="42.2395785" lon="13.7691073"><ele>789.0</ele><time>2026-05-02T10:42:52.313Z</time></trkpt><trkpt lat="42.2395079" lon="13.7690812"><ele>791.6666666666666</ele><time>2026-05-02T10:42:53.314Z</time></trkpt><trkpt lat="42.2394216" lon="13.7690604"><ele>794.3333333333333</ele><time>2026-05-02T10:42:54.313Z</time></trkpt><trkpt lat="42.2393456" lon="13.7690668"><ele>797.0</ele><time>2026-05-02T10:42:55.298Z</time></trkpt><trkpt lat="42.23928" lon="13.7690978"><ele>799.6666666666666</ele><time>2026-05-02T10:42:56.313Z</time></trkpt><trkpt lat="42.2392326" lon="13.7691651"><ele>802.3333333333333</ele><time>2026-05-02T10:42:57.302Z</time></trkpt><trkpt lat="42.2391871" lon="13.7692321"><ele>805.0</ele><time>2026-05-02T10:42:58.31Z</time></trkpt><trkpt lat="42.2390813" lon="13.7693186"><ele>804.8</ele><time>2026-05-02T10:43:00.308Z</time></trkpt><trkpt lat="42.2389806" lon="13.7693678"><ele>804.6</ele><time>2026-05-02T10:43:02.306Z</time></trkpt><trkpt lat="42.238866" lon="13.7693855"><ele>804.4000000000001</ele><time>2026-05-02T10:43:04.31Z</time></trkpt><trkpt lat="42.2387499" lon="13.7693874"><ele>804.2</ele><time>2026-05-02T10:43:06.317Z</time></trkpt><trkpt lat="42.2386816" lon="13.7693841"><ele>804.0</ele><time>2026-05-02T10:43:07.315Z</time></trkpt><trkpt lat="42.238599" lon="13.7694043"><ele>804.0</ele><time>2026-05-02T10:43:08.33Z</time></trkpt><trkpt lat="42.23852" lon="13.7694246"><ele>804.0</ele><time>2026-05-02T10:43:09.317Z</time></trkpt><trkpt lat="42.2384405" lon="13.7694351"><ele>804.0</ele><time>2026-05-02T10:43:10.324Z</time></trkpt><trkpt lat="42.2383667" lon="13.7694602"><ele>804.0</ele><time>2026-05-02T10:43:11.322Z</time></trkpt><trkpt lat="42.2382916" lon="13.7695039"><ele>804.0</ele><time>2026-05-02T10:43:12.317Z</time></trkpt><trkpt lat="42.2382206" lon="13.7695442"><ele>804.0</ele><time>2026-05-02T10:43:13.317Z</time></trkpt><trkpt lat="42.2381543" lon="13.7695745"><ele>807.4000000000001</ele><time>2026-05-02T10:43:14.319Z</time></trkpt><trkpt lat="42.2380396" lon="13.7696369"><ele>810.8</ele><time>2026-05-02T10:43:16.326Z</time></trkpt><trkpt lat="42.2379359" lon="13.7697044"><ele>814.2</ele><time>2026-05-02T10:43:18.325Z</time></trkpt><trkpt lat="42.2378791" lon="13.7697422"><ele>817.5999999999999</ele><time>2026-05-02T10:43:19.322Z</time></trkpt><trkpt lat="42.2378242" lon="13.769784"><ele>821.0</ele><time>2026-05-02T10:43:20.323Z</time></trkpt><trkpt lat="42.2377124" lon="13.7698556"><ele>821.0000000000001</ele><time>2026-05-02T10:43:22.326Z</time></trkpt><trkpt lat="42.2376454" lon="13.7698823"><ele>821.0</ele><time>2026-05-02T10:43:23.324Z</time></trkpt><trkpt lat="42.2375738" lon="13.7699079"><ele>821.0</ele><time>2026-05-02T10:43:24.326Z</time></trkpt><trkpt lat="42.2375092" lon="13.7699245"><ele>821.0</ele><time>2026-05-02T10:43:25.319Z</time></trkpt><trkpt lat="42.2374156" lon="13.7699197"><ele>821.0000000000001</ele><time>2026-05-02T10:43:27.317Z</time></trkpt><trkpt lat="42.2373242" lon="13.7699327"><ele>821.0</ele><time>2026-05-02T10:43:29.33Z</time></trkpt><trkpt lat="42.2371963" lon="13.7699608"><ele>822.4</ele><time>2026-05-02T10:43:31.313Z</time></trkpt><trkpt lat="42.2370872" lon="13.7700249"><ele>823.8</ele><time>2026-05-02T10:43:33.312Z</time></trkpt><trkpt lat="42.2370285" lon="13.7700735"><ele>825.1999999999999</ele><time>2026-05-02T10:43:34.319Z</time></trkpt><trkpt lat="42.2369829" lon="13.7701325"><ele>826.5999999999999</ele><time>2026-05-02T10:43:35.312Z</time></trkpt><trkpt lat="42.2369248" lon="13.770246"><ele>828.0</ele><time>2026-05-02T10:43:37.318Z</time></trkpt><trkpt lat="42.2368454" lon="13.7703437"><ele>828.0</ele><time>2026-05-02T10:43:39.324Z</time></trkpt><trkpt lat="42.2367572" lon="13.7704063"><ele>828.0</ele><time>2026-05-02T10:43:41.323Z</time></trkpt><trkpt lat="42.2366563" lon="13.7704606"><ele>828.0</ele><time>2026-05-02T10:43:43.325Z</time></trkpt><trkpt lat="42.2365922" lon="13.7704899"><ele>828.0</ele><time>2026-05-02T10:43:44.321Z</time></trkpt><trkpt lat="42.2365239" lon="13.7705117"><ele>828.0</ele><time>2026-05-02T10:43:45.327Z</time></trkpt><trkpt lat="42.2364529" lon="13.7705258"><ele>828.0</ele><time>2026-05-02T10:43:46.324Z</time></trkpt><trkpt lat="42.2363813" lon="13.7705361"><ele>829.1666666666666</ele><time>2026-05-02T10:43:47.325Z</time></trkpt><trkpt lat="42.2363081" lon="13.7705583"><ele>830.3333333333333</ele><time>2026-05-02T10:43:48.324Z</time></trkpt><trkpt lat="42.2362458" lon="13.7705817"><ele>831.5</ele><time>2026-05-02T10:43:49.327Z</time></trkpt><trkpt lat="42.2361516" lon="13.7706183"><ele>832.6666666666666</ele><time>2026-05-02T10:43:51.322Z</time></trkpt><trkpt lat="42.2360349" lon="13.7706395"><ele>833.8333333333333</ele><time>2026-05-02T10:43:53.333Z</time></trkpt><trkpt lat="42.2359528" lon="13.7706805"><ele>835.0</ele><time>2026-05-02T10:43:55.329Z</time></trkpt><trkpt lat="42.2358757" lon="13.7707354"><ele>834.9999999999999</ele><time>2026-05-02T10:43:58.336Z</time></trkpt><trkpt lat="42.2358619" lon="13.7708611"><ele>835.0</ele><time>2026-05-02T10:46:20.334Z</time></trkpt><trkpt lat="42.2358599" lon="13.770948"><ele>835.0</ele><time>2026-05-02T10:46:21.325Z</time></trkpt><trkpt lat="42.2358647" lon="13.7710374"><ele>835.0</ele><time>2026-05-02T10:46:22.325Z</time></trkpt><trkpt lat="42.2358821" lon="13.7711473"><ele>834.9999999999999</ele><time>2026-05-02T10:46:23.322Z</time></trkpt><trkpt lat="42.2358951" lon="13.7712411"><ele>835.0</ele><time>2026-05-02T10:46:24.327Z</time></trkpt><trkpt lat="42.2359014" lon="13.7713852"><ele>834.8</ele><time>2026-05-02T10:46:26.324Z</time></trkpt><trkpt lat="42.2359108" lon="13.7715313"><ele>834.6</ele><time>2026-05-02T10:46:28.33Z</time></trkpt><trkpt lat="42.2359162" lon="13.7716513"><ele>834.4000000000001</ele><time>2026-05-02T10:46:30.333Z</time></trkpt><trkpt lat="42.2359172" lon="13.7717818"><ele>834.2</ele><time>2026-05-02T10:46:32.32Z</time></trkpt><trkpt lat="42.2358761" lon="13.771946"><ele>834.0</ele><time>2026-05-02T10:46:34.327Z</time></trkpt><trkpt lat="42.2358143" lon="13.7720819"><ele>834.0</ele><time>2026-05-02T10:46:36.319Z</time></trkpt><trkpt lat="42.2357728" lon="13.7721464"><ele>834.0</ele><time>2026-05-02T10:46:37.318Z</time></trkpt><trkpt lat="42.2357274" lon="13.7722102"><ele>834.0</ele><time>2026-05-02T10:46:38.319Z</time></trkpt><trkpt lat="42.2356836" lon="13.7722763"><ele>834.0</ele><time>2026-05-02T10:46:39.315Z</time></trkpt><trkpt lat="42.2356379" lon="13.7723381"><ele>834.0</ele><time>2026-05-02T10:46:40.315Z</time></trkpt><trkpt lat="42.235583" lon="13.7724142"><ele>834.0</ele><time>2026-05-02T10:46:41.308Z</time></trkpt><trkpt lat="42.2355451" lon="13.7725018"><ele>834.0</ele><time>2026-05-02T10:46:42.309Z</time></trkpt><trkpt lat="42.2355157" lon="13.7725845"><ele>835.0</ele><time>2026-05-02T10:46:43.332Z</time></trkpt><trkpt lat="42.2354845" lon="13.7726795"><ele>836.0</ele><time>2026-05-02T10:46:44.319Z</time></trkpt><trkpt lat="42.2354304" lon="13.7727597"><ele>837.0</ele><time>2026-05-02T10:46:45.303Z</time></trkpt><trkpt lat="42.2353627" lon="13.7728354"><ele>838.0</ele><time>2026-05-02T10:46:46.306Z</time></trkpt><trkpt lat="42.2352891" lon="13.7729042"><ele>839.0</ele><time>2026-05-02T10:46:47.318Z</time></trkpt><trkpt lat="42.2352207" lon="13.7729674"><ele>840.0</ele><time>2026-05-02T10:46:48.321Z</time></trkpt><trkpt lat="42.2351619" lon="13.7730439"><ele>840.0</ele><time>2026-05-02T10:46:49.311Z</time></trkpt><trkpt lat="42.2351109" lon="13.7731224"><ele>840.0</ele><time>2026-05-02T10:46:50.313Z</time></trkpt><trkpt lat="42.2350687" lon="13.7732075"><ele>840.0</ele><time>2026-05-02T10:46:51.306Z</time></trkpt><trkpt lat="42.2350435" lon="13.7732894"><ele>840.0</ele><time>2026-05-02T10:46:52.313Z</time></trkpt><trkpt lat="42.2350349" lon="13.7734633"><ele>840.0</ele><time>2026-05-02T10:46:54.304Z</time></trkpt><trkpt lat="42.2350551" lon="13.7735718"><ele>840.0</ele><time>2026-05-02T10:46:55.312Z</time></trkpt><trkpt lat="42.2350763" lon="13.773683"><ele>840.5714285714286</ele><time>2026-05-02T10:46:56.318Z</time></trkpt><trkpt lat="42.2350997" lon="13.7737971"><ele>841.1428571428571</ele><time>2026-05-02T10:46:57.312Z</time></trkpt><trkpt lat="42.2351237" lon="13.7738904"><ele>841.7142857142858</ele><time>2026-05-02T10:46:58.309Z</time></trkpt><trkpt lat="42.2351614" lon="13.7739664"><ele>842.2857142857142</ele><time>2026-05-02T10:46:59.311Z</time></trkpt><trkpt lat="42.2352085" lon="13.7740348"><ele>842.8571428571429</ele><time>2026-05-02T10:47:00.31Z</time></trkpt><trkpt lat="42.2352632" lon="13.7740854"><ele>843.4285714285714</ele><time>2026-05-02T10:47:01.305Z</time></trkpt><trkpt lat="42.2353164" lon="13.7741399"><ele>844.0</ele><time>2026-05-02T10:47:02.301Z</time></trkpt><trkpt lat="42.2353769" lon="13.7741922"><ele>844.0</ele><time>2026-05-02T10:47:03.316Z</time></trkpt><trkpt lat="42.2354394" lon="13.7743153"><ele>844.0</ele><time>2026-05-02T10:47:05.308Z</time></trkpt><trkpt lat="42.2354754" lon="13.7744924"><ele>844.0</ele><time>2026-05-02T10:47:07.305Z</time></trkpt><trkpt lat="42.2354819" lon="13.7746138"><ele>844.0</ele><time>2026-05-02T10:47:08.304Z</time></trkpt><trkpt lat="42.2355084" lon="13.7747385"><ele>844.0</ele><time>2026-05-02T10:47:09.302Z</time></trkpt><trkpt lat="42.235527" lon="13.7748545"><ele>843.6</ele><time>2026-05-02T10:47:10.301Z</time></trkpt><trkpt lat="42.2355413" lon="13.7749831"><ele>843.2</ele><time>2026-05-02T10:47:11.306Z</time></trkpt><trkpt lat="42.2355449" lon="13.7751133"><ele>842.8000000000001</ele><time>2026-05-02T10:47:12.304Z</time></trkpt><trkpt lat="42.2355225" lon="13.7752461"><ele>842.4000000000001</ele><time>2026-05-02T10:47:13.309Z</time></trkpt><trkpt lat="42.2354975" lon="13.7753761"><ele>842.0</ele><time>2026-05-02T10:47:14.311Z</time></trkpt><trkpt lat="42.2354846" lon="13.775504"><ele>842.0</ele><time>2026-05-02T10:47:15.313Z</time></trkpt><trkpt lat="42.2354565" lon="13.7756228"><ele>842.0</ele><time>2026-05-02T10:47:16.315Z</time></trkpt><trkpt lat="42.2354119" lon="13.7757342"><ele>842.0</ele><time>2026-05-02T10:47:17.315Z</time></trkpt><trkpt lat="42.2353603" lon="13.7758307"><ele>842.0</ele><time>2026-05-02T10:47:18.321Z</time></trkpt><trkpt lat="42.2352945" lon="13.7759191"><ele>842.0</ele><time>2026-05-02T10:47:19.316Z</time></trkpt><trkpt lat="42.2352168" lon="13.7759811"><ele>844.0</ele><time>2026-05-02T10:47:20.318Z</time></trkpt><trkpt lat="42.2351344" lon="13.7760424"><ele>846.0</ele><time>2026-05-02T10:47:21.316Z</time></trkpt><trkpt lat="42.2350456" lon="13.7760897"><ele>848.0</ele><time>2026-05-02T10:47:22.311Z</time></trkpt><trkpt lat="42.2349647" lon="13.7761175"><ele>850.0</ele><time>2026-05-02T10:47:23.323Z</time></trkpt><trkpt lat="42.2348779" lon="13.7761339"><ele>852.0</ele><time>2026-05-02T10:47:24.314Z</time></trkpt><trkpt lat="42.2347869" lon="13.7761624"><ele>852.0</ele><time>2026-05-02T10:47:25.308Z</time></trkpt><trkpt lat="42.2347058" lon="13.7761848"><ele>852.0</ele><time>2026-05-02T10:47:26.317Z</time></trkpt><trkpt lat="42.2346209" lon="13.7762003"><ele>852.0</ele><time>2026-05-02T10:47:27.308Z</time></trkpt><trkpt lat="42.2345378" lon="13.7762139"><ele>852.0</ele><time>2026-05-02T10:47:28.304Z</time></trkpt><trkpt lat="42.2344684" lon="13.7762388"><ele>852.0</ele><time>2026-05-02T10:47:29.301Z</time></trkpt><trkpt lat="42.2343893" lon="13.776363"><ele>852.0</ele><time>2026-05-02T10:47:31.312Z</time></trkpt><trkpt lat="42.2343986" lon="13.7765386"><ele>852.0</ele><time>2026-05-02T10:47:33.314Z</time></trkpt><trkpt lat="42.234435" lon="13.7766424"><ele>852.0</ele><time>2026-05-02T10:47:34.309Z</time></trkpt><trkpt lat="42.2344797" lon="13.7767229"><ele>852.0</ele><time>2026-05-02T10:47:35.309Z</time></trkpt><trkpt lat="42.2345281" lon="13.776804"><ele>852.0</ele><time>2026-05-02T10:47:36.31Z</time></trkpt><trkpt lat="42.2345735" lon="13.7768889"><ele>852.0</ele><time>2026-05-02T10:47:37.319Z</time></trkpt><trkpt lat="42.2346224" lon="13.7769893"><ele>852.0</ele><time>2026-05-02T10:47:38.319Z</time></trkpt><trkpt lat="42.2346684" lon="13.7770953"><ele>853.0</ele><time>2026-05-02T10:47:39.312Z</time></trkpt><trkpt lat="42.2347284" lon="13.7771898"><ele>854.0</ele><time>2026-05-02T10:47:40.318Z</time></trkpt><trkpt lat="42.2348042" lon="13.7772734"><ele>855.0</ele><time>2026-05-02T10:47:41.314Z</time></trkpt><trkpt lat="42.2348757" lon="13.7773508"><ele>856.0</ele><time>2026-05-02T10:47:42.305Z</time></trkpt><trkpt lat="42.2349394" lon="13.7774266"><ele>857.0</ele><time>2026-05-02T10:47:43.305Z</time></trkpt><trkpt lat="42.2349948" lon="13.7775092"><ele>858.0</ele><time>2026-05-02T10:47:44.309Z</time></trkpt><trkpt lat="42.2350599" lon="13.7775933"><ele>856.6666666666666</ele><time>2026-05-02T10:47:45.304Z</time></trkpt><trkpt lat="42.235125" lon="13.7776825"><ele>855.3333333333333</ele><time>2026-05-02T10:47:46.311Z</time></trkpt><trkpt lat="42.2351816" lon="13.7777565"><ele>854.0</ele><time>2026-05-02T10:47:47.306Z</time></trkpt><trkpt lat="42.2352233" lon="13.7778345"><ele>852.6666666666666</ele><time>2026-05-02T10:47:48.308Z</time></trkpt><trkpt lat="42.2352601" lon="13.7779163"><ele>851.3333333333333</ele><time>2026-05-02T10:47:49.307Z</time></trkpt><trkpt lat="42.2352937" lon="13.7780066"><ele>850.0</ele><time>2026-05-02T10:47:50.325Z</time></trkpt><trkpt lat="42.2353168" lon="13.7781005"><ele>850.0</ele><time>2026-05-02T10:47:51.317Z</time></trkpt><trkpt lat="42.2353284" lon="13.7781998"><ele>850.0</ele><time>2026-05-02T10:47:52.317Z</time></trkpt><trkpt lat="42.2353279" lon="13.7782893"><ele>850.0</ele><time>2026-05-02T10:47:53.322Z</time></trkpt><trkpt lat="42.2353308" lon="13.7783869"><ele>850.0</ele><time>2026-05-02T10:47:54.325Z</time></trkpt><trkpt lat="42.2353239" lon="13.7784868"><ele>850.0</ele><time>2026-05-02T10:47:55.317Z</time></trkpt><trkpt lat="42.2353159" lon="13.7785924"><ele>850.0</ele><time>2026-05-02T10:47:56.317Z</time></trkpt><trkpt lat="42.2352935" lon="13.7786883"><ele>850.0</ele><time>2026-05-02T10:47:57.324Z</time></trkpt><trkpt lat="42.2352583" lon="13.7787853"><ele>849.8333333333333</ele><time>2026-05-02T10:47:58.319Z</time></trkpt><trkpt lat="42.2352181" lon="13.7788681"><ele>849.6666666666666</ele><time>2026-05-02T10:47:59.322Z</time></trkpt><trkpt lat="42.2351659" lon="13.7789422"><ele>849.5</ele><time>2026-05-02T10:48:00.321Z</time></trkpt><trkpt lat="42.2351131" lon="13.7790175"><ele>849.3333333333333</ele><time>2026-05-02T10:48:01.332Z</time></trkpt><trkpt lat="42.2350544" lon="13.7790863"><ele>849.1666666666666</ele><time>2026-05-02T10:48:02.322Z</time></trkpt><trkpt lat="42.2349949" lon="13.7791534"><ele>849.0</ele><time>2026-05-02T10:48:03.319Z</time></trkpt><trkpt lat="42.2349364" lon="13.7792148"><ele>849.0</ele><time>2026-05-02T10:48:04.32Z</time></trkpt><trkpt lat="42.2348763" lon="13.7792782"><ele>849.0</ele><time>2026-05-02T10:48:05.319Z</time></trkpt><trkpt lat="42.2348111" lon="13.779352"><ele>849.0</ele><time>2026-05-02T10:48:06.32Z</time></trkpt><trkpt lat="42.2347332" lon="13.7794266"><ele>849.0</ele><time>2026-05-02T10:48:07.323Z</time></trkpt><trkpt lat="42.2346482" lon="13.7794973"><ele>849.0</ele><time>2026-05-02T10:48:08.322Z</time></trkpt><trkpt lat="42.2345665" lon="13.7795663"><ele>848.8333333333334</ele><time>2026-05-02T10:48:09.318Z</time></trkpt><trkpt lat="42.2344844" lon="13.7796339"><ele>848.6666666666667</ele><time>2026-05-02T10:48:10.325Z</time></trkpt><trkpt lat="42.2344105" lon="13.7796975"><ele>848.5</ele><time>2026-05-02T10:48:11.32Z</time></trkpt><trkpt lat="42.2343501" lon="13.779755"><ele>848.3333333333334</ele><time>2026-05-02T10:48:12.32Z</time></trkpt><trkpt lat="42.2342899" lon="13.7798096"><ele>848.1666666666667</ele><time>2026-05-02T10:48:13.319Z</time></trkpt><trkpt lat="42.2342251" lon="13.7798451"><ele>848.0</ele><time>2026-05-02T10:48:14.321Z</time></trkpt><trkpt lat="42.2341615" lon="13.779883"><ele>848.0000000000001</ele><time>2026-05-02T10:48:15.317Z</time></trkpt><trkpt lat="42.2340899" lon="13.7799089"><ele>848.0</ele><time>2026-05-02T10:48:16.322Z</time></trkpt><trkpt lat="42.2340222" lon="13.7799436"><ele>848.0</ele><time>2026-05-02T10:48:17.321Z</time></trkpt><trkpt lat="42.2339576" lon="13.7799853"><ele>848.0</ele><time>2026-05-02T10:48:18.314Z</time></trkpt><trkpt lat="42.233907" lon="13.7800418"><ele>848.0000000000001</ele><time>2026-05-02T10:48:19.322Z</time></trkpt><trkpt lat="42.233895" lon="13.7801988"><ele>848.0</ele><time>2026-05-02T10:48:21.322Z</time></trkpt><trkpt lat="42.2339298" lon="13.7802907"><ele>847.1666666666667</ele><time>2026-05-02T10:48:22.313Z</time></trkpt><trkpt lat="42.233976" lon="13.780374"><ele>846.3333333333334</ele><time>2026-05-02T10:48:23.321Z</time></trkpt><trkpt lat="42.2340013" lon="13.7804541"><ele>845.5</ele><time>2026-05-02T10:48:24.323Z</time></trkpt><trkpt lat="42.2340169" lon="13.780541"><ele>844.6666666666667</ele><time>2026-05-02T10:48:25.316Z</time></trkpt><trkpt lat="42.234039" lon="13.7806942"><ele>843.8333333333334</ele><time>2026-05-02T10:48:27.317Z</time></trkpt><trkpt lat="42.2340381" lon="13.7807821"><ele>843.0</ele><time>2026-05-02T10:48:28.324Z</time></trkpt><trkpt lat="42.2340368" lon="13.7808722"><ele>843.0</ele><time>2026-05-02T10:48:29.321Z</time></trkpt><trkpt lat="42.2340323" lon="13.78096"><ele>843.0</ele><time>2026-05-02T10:48:30.321Z</time></trkpt><trkpt lat="42.2340285" lon="13.7811067"><ele>843.0</ele><time>2026-05-02T10:48:32.316Z</time></trkpt><trkpt lat="42.2340203" lon="13.7812138"><ele>843.0</ele><time>2026-05-02T10:48:34.313Z</time></trkpt><trkpt lat="42.2340288" lon="13.7813147"><ele>843.0</ele><time>2026-05-02T10:48:47.316Z</time></trkpt><trkpt lat="42.2340321" lon="13.7814069"><ele>843.0</ele><time>2026-05-02T10:48:49.316Z</time></trkpt><trkpt lat="42.2339796" lon="13.7814775"><ele>843.1666666666666</ele><time>2026-05-02T10:48:57.336Z</time></trkpt><trkpt lat="42.2339167" lon="13.7814516"><ele>843.3333333333333</ele><time>2026-05-02T10:49:09.317Z</time></trkpt><trkpt lat="42.2338706" lon="13.7813734"><ele>843.5</ele><time>2026-05-02T10:49:11.33Z</time></trkpt><trkpt lat="42.2338359" lon="13.7812976"><ele>843.6666666666666</ele><time>2026-05-02T10:49:12.315Z</time></trkpt><trkpt lat="42.2337947" lon="13.7812151"><ele>843.8333333333333</ele><time>2026-05-02T10:49:13.319Z</time></trkpt><trkpt lat="42.2337379" lon="13.7811096"><ele>844.0</ele><time>2026-05-02T10:49:14.321Z</time></trkpt><trkpt lat="42.2336805" lon="13.7810203"><ele>845.8333333333333</ele><time>2026-05-02T10:49:15.315Z</time></trkpt><trkpt lat="42.2336253" lon="13.7809391"><ele>847.6666666666666</ele><time>2026-05-02T10:49:16.319Z</time></trkpt><trkpt lat="42.2335711" lon="13.780855"><ele>849.5</ele><time>2026-05-02T10:49:17.322Z</time></trkpt><trkpt lat="42.2335138" lon="13.7807618"><ele>851.3333333333333</ele><time>2026-05-02T10:49:18.327Z</time></trkpt><trkpt lat="42.2334584" lon="13.7806781"><ele>853.1666666666666</ele><time>2026-05-02T10:49:19.323Z</time></trkpt><trkpt lat="42.2333915" lon="13.7805957"><ele>855.0</ele><time>2026-05-02T10:49:20.321Z</time></trkpt><trkpt lat="42.2333253" lon="13.7805159"><ele>855.0</ele><time>2026-05-02T10:49:21.316Z</time></trkpt><trkpt lat="42.2332642" lon="13.7804395"><ele>855.0</ele><time>2026-05-02T10:49:22.322Z</time></trkpt><trkpt lat="42.2332053" lon="13.7803708"><ele>855.0</ele><time>2026-05-02T10:49:23.332Z</time></trkpt><trkpt lat="42.233145" lon="13.7802988"><ele>855.0</ele><time>2026-05-02T10:49:24.312Z</time></trkpt><trkpt lat="42.2330978" lon="13.7802197"><ele>855.0</ele><time>2026-05-02T10:49:25.318Z</time></trkpt><trkpt lat="42.2330615" lon="13.7801349"><ele>855.0</ele><time>2026-05-02T10:49:26.324Z</time></trkpt><trkpt lat="42.2330185" lon="13.7800602"><ele>858.4</ele><time>2026-05-02T10:49:27.319Z</time></trkpt><trkpt lat="42.232946" lon="13.7799434"><ele>861.8</ele><time>2026-05-02T10:49:29.322Z</time></trkpt><trkpt lat="42.232902" lon="13.7798814"><ele>865.2</ele><time>2026-05-02T10:49:30.324Z</time></trkpt><trkpt lat="42.2328086" lon="13.7797707"><ele>868.6</ele><time>2026-05-02T10:49:32.316Z</time></trkpt><trkpt lat="42.2327136" lon="13.7796668"><ele>872.0</ele><time>2026-05-02T10:49:34.319Z</time></trkpt><trkpt lat="42.2326564" lon="13.7796124"><ele>872.0</ele><time>2026-05-02T10:49:35.323Z</time></trkpt><trkpt lat="42.2325992" lon="13.7795657"><ele>872.0</ele><time>2026-05-02T10:49:36.321Z</time></trkpt><trkpt lat="42.232538" lon="13.7795245"><ele>872.0</ele><time>2026-05-02T10:49:37.324Z</time></trkpt><trkpt lat="42.2324715" lon="13.7794812"><ele>872.0</ele><time>2026-05-02T10:49:38.319Z</time></trkpt><trkpt lat="42.2324046" lon="13.7794543"><ele>872.0</ele><time>2026-05-02T10:49:39.317Z</time></trkpt><trkpt lat="42.2323415" lon="13.779434"><ele>872.0</ele><time>2026-05-02T10:49:40.324Z</time></trkpt><trkpt lat="42.2322703" lon="13.7794114"><ele>872.0</ele><time>2026-05-02T10:49:41.322Z</time></trkpt><trkpt lat="42.232194" lon="13.7793774"><ele>874.5000000000001</ele><time>2026-05-02T10:49:42.322Z</time></trkpt><trkpt lat="42.2321202" lon="13.7793483"><ele>877.0</ele><time>2026-05-02T10:49:43.326Z</time></trkpt><trkpt lat="42.2320498" lon="13.7793306"><ele>879.5</ele><time>2026-05-02T10:49:44.322Z</time></trkpt><trkpt lat="42.2319758" lon="13.7793081"><ele>882.0</ele><time>2026-05-02T10:49:45.322Z</time></trkpt><trkpt lat="42.2319054" lon="13.779283"><ele>884.5000000000001</ele><time>2026-05-02T10:49:46.325Z</time></trkpt><trkpt lat="42.2318306" lon="13.7792504"><ele>887.0</ele><time>2026-05-02T10:49:47.321Z</time></trkpt><trkpt lat="42.2317529" lon="13.77921"><ele>887.0000000000001</ele><time>2026-05-02T10:49:48.326Z</time></trkpt><trkpt lat="42.2316749" lon="13.7791587"><ele>887.0</ele><time>2026-05-02T10:49:49.324Z</time></trkpt><trkpt lat="42.2316047" lon="13.7790984"><ele>887.0</ele><time>2026-05-02T10:49:50.322Z</time></trkpt><trkpt lat="42.2315447" lon="13.7790404"><ele>887.0</ele><time>2026-05-02T10:49:51.313Z</time></trkpt><trkpt lat="42.2314877" lon="13.7789904"><ele>887.0000000000001</ele><time>2026-05-02T10:49:52.313Z</time></trkpt><trkpt lat="42.23141" lon="13.7789333"><ele>887.0</ele><time>2026-05-02T10:49:54.324Z</time></trkpt><trkpt lat="42.2313457" lon="13.7788681"><ele>888.1666666666667</ele><time>2026-05-02T10:49:56.326Z</time></trkpt><trkpt lat="42.2312813" lon="13.7787532"><ele>889.3333333333334</ele><time>2026-05-02T10:49:58.319Z</time></trkpt><trkpt lat="42.2312352" lon="13.7786828"><ele>890.5</ele><time>2026-05-02T10:49:59.325Z</time></trkpt><trkpt lat="42.2311876" lon="13.7786148"><ele>891.6666666666667</ele><time>2026-05-02T10:50:00.319Z</time></trkpt><trkpt lat="42.231139" lon="13.7785558"><ele>892.8333333333334</ele><time>2026-05-02T10:50:01.32Z</time></trkpt><trkpt lat="42.2310353" lon="13.7784956"><ele>894.0</ele><time>2026-05-02T10:50:03.315Z</time></trkpt><trkpt lat="42.2309387" lon="13.7785314"><ele>894.0</ele><time>2026-05-02T10:50:05.309Z</time></trkpt><trkpt lat="42.2308406" lon="13.7785652"><ele>894.0000000000001</ele><time>2026-05-02T10:50:07.308Z</time></trkpt><trkpt lat="42.2307477" lon="13.778534"><ele>894.0000000000001</ele><time>2026-05-02T10:50:09.312Z</time></trkpt><trkpt lat="42.2306492" lon="13.7784556"><ele>894.0</ele><time>2026-05-02T10:50:11.317Z</time></trkpt><trkpt lat="42.2305449" lon="13.7783808"><ele>894.0</ele><time>2026-05-02T10:50:13.324Z</time></trkpt><trkpt lat="42.2304295" lon="13.7783297"><ele>898.0</ele><time>2026-05-02T10:50:15.323Z</time></trkpt><trkpt lat="42.2303152" lon="13.7782807"><ele>902.0000000000001</ele><time>2026-05-02T10:50:17.329Z</time></trkpt><trkpt lat="42.2301872" lon="13.7782708"><ele>906.0000000000001</ele><time>2026-05-02T10:50:19.314Z</time></trkpt><trkpt lat="42.2301227" lon="13.7782863"><ele>910.0</ele><time>2026-05-02T10:50:20.311Z</time></trkpt><trkpt lat="42.2300147" lon="13.7783011"><ele>914.0</ele><time>2026-05-02T10:50:22.31Z</time></trkpt><trkpt lat="42.2299123" lon="13.7782392"><ele>914.0000000000001</ele><time>2026-05-02T10:50:24.322Z</time></trkpt><trkpt lat="42.2298504" lon="13.7781902"><ele>914.0</ele><time>2026-05-02T10:50:25.317Z</time></trkpt><trkpt lat="42.2297837" lon="13.7781372"><ele>914.0</ele><time>2026-05-02T10:50:26.318Z</time></trkpt><trkpt lat="42.2297156" lon="13.778078"><ele>914.0</ele><time>2026-05-02T10:50:27.333Z</time></trkpt><trkpt lat="42.2296413" lon="13.7780177"><ele>914.0000000000001</ele><time>2026-05-02T10:50:28.315Z</time></trkpt><trkpt lat="42.2295664" lon="13.777965"><ele>914.0</ele><time>2026-05-02T10:50:29.319Z</time></trkpt><trkpt lat="42.2295023" lon="13.7779268"><ele>914.5000000000001</ele><time>2026-05-02T10:50:30.325Z</time></trkpt><trkpt lat="42.2294446" lon="13.7778926"><ele>915.0</ele><time>2026-05-02T10:50:31.312Z</time></trkpt><trkpt lat="42.2293601" lon="13.7778528"><ele>915.5</ele><time>2026-05-02T10:50:33.318Z</time></trkpt><trkpt lat="42.2292921" lon="13.7778542"><ele>916.0</ele><time>2026-05-02T10:50:35.325Z</time></trkpt><trkpt lat="42.2292124" lon="13.7779192"><ele>916.5000000000001</ele><time>2026-05-02T10:50:38.33Z</time></trkpt><trkpt lat="42.2291244" lon="13.7779278"><ele>917.0</ele><time>2026-05-02T10:50:41.326Z</time></trkpt><trkpt lat="42.2290584" lon="13.7779407"><ele>917.0</ele><time>2026-05-02T10:50:44.331Z</time></trkpt><trkpt lat="42.2289852" lon="13.7779445"><ele>917.0</ele><time>2026-05-02T10:50:47.344Z</time></trkpt><trkpt lat="42.228914" lon="13.7779321"><ele>917.0</ele><time>2026-05-02T10:50:49.331Z</time></trkpt><trkpt lat="42.2288018" lon="13.7778318"><ele>917.0</ele><time>2026-05-02T10:50:51.305Z</time></trkpt><trkpt lat="42.2287403" lon="13.7777287"><ele>917.0</ele><time>2026-05-02T10:50:52.318Z</time></trkpt><trkpt lat="42.2286784" lon="13.7776169"><ele>917.4000000000001</ele><time>2026-05-02T10:50:53.321Z</time></trkpt><trkpt lat="42.228624" lon="13.7775394"><ele>917.8000000000001</ele><time>2026-05-02T10:50:54.31Z</time></trkpt><trkpt lat="42.2285176" lon="13.7774692"><ele>918.2</ele><time>2026-05-02T10:50:56.313Z</time></trkpt><trkpt lat="42.2284523" lon="13.777461"><ele>918.6</ele><time>2026-05-02T10:50:57.318Z</time></trkpt><trkpt lat="42.228329" lon="13.7774786"><ele>919.0</ele><time>2026-05-02T10:50:59.322Z</time></trkpt><trkpt lat="42.2282523" lon="13.7774868"><ele>918.9999999999999</ele><time>2026-05-02T10:51:00.324Z</time></trkpt><trkpt lat="42.2281695" lon="13.7774968"><ele>919.0</ele><time>2026-05-02T10:51:01.315Z</time></trkpt><trkpt lat="42.2281001" lon="13.7775093"><ele>919.0</ele><time>2026-05-02T10:51:02.318Z</time></trkpt><trkpt lat="42.2280376" lon="13.7775308"><ele>919.0</ele><time>2026-05-02T10:51:03.321Z</time></trkpt><trkpt lat="42.2279777" lon="13.7775623"><ele>918.9999999999999</ele><time>2026-05-02T10:51:04.317Z</time></trkpt><trkpt lat="42.2278734" lon="13.7776279"><ele>919.0</ele><time>2026-05-02T10:51:06.324Z</time></trkpt><trkpt lat="42.227795" lon="13.7776768"><ele>919.0</ele><time>2026-05-02T10:51:08.331Z</time></trkpt><trkpt lat="42.2277234" lon="13.7777442"><ele>919.0000000000001</ele><time>2026-05-02T10:51:10.33Z</time></trkpt><trkpt lat="42.2276224" lon="13.7778319"><ele>919.0000000000001</ele><time>2026-05-02T10:51:12.319Z</time></trkpt><trkpt lat="42.2275523" lon="13.777886"><ele>919.0</ele><time>2026-05-02T10:51:13.315Z</time></trkpt><trkpt lat="42.227484" lon="13.7779472"><ele>919.0</ele><time>2026-05-02T10:51:14.335Z</time></trkpt><trkpt lat="42.2274157" lon="13.778006"><ele>918.9999999999999</ele><time>2026-05-02T10:51:15.325Z</time></trkpt><trkpt lat="42.2273507" lon="13.7780708"><ele>919.0</ele><time>2026-05-02T10:51:16.329Z</time></trkpt><trkpt lat="42.2272805" lon="13.7781389"><ele>919.0</ele><time>2026-05-02T10:51:17.328Z</time></trkpt><trkpt lat="42.2272099" lon="13.7782069"><ele>919.0</ele><time>2026-05-02T10:51:18.329Z</time></trkpt><trkpt lat="42.2271384" lon="13.7782776"><ele>918.9999999999999</ele><time>2026-05-02T10:51:19.328Z</time></trkpt><trkpt lat="42.2270668" lon="13.7783372"><ele>919.0</ele><time>2026-05-02T10:51:20.332Z</time></trkpt><trkpt lat="42.2270073" lon="13.778394"><ele>918.9999999999999</ele><time>2026-05-02T10:51:21.331Z</time></trkpt><trkpt lat="42.2269522" lon="13.7784512"><ele>919.0</ele><time>2026-05-02T10:51:22.332Z</time></trkpt><trkpt lat="42.2268924" lon="13.7785004"><ele>919.0</ele><time>2026-05-02T10:51:23.327Z</time></trkpt><trkpt lat="42.2268282" lon="13.77855"><ele>919.0</ele><time>2026-05-02T10:51:24.329Z</time></trkpt><trkpt lat="42.2267638" lon="13.7786049"><ele>918.9999999999999</ele><time>2026-05-02T10:51:25.325Z</time></trkpt><trkpt lat="42.2266941" lon="13.7786639"><ele>919.0</ele><time>2026-05-02T10:51:26.339Z</time></trkpt><trkpt lat="42.2266156" lon="13.7787221"><ele>919.4000000000001</ele><time>2026-05-02T10:51:27.328Z</time></trkpt><trkpt lat="42.2265336" lon="13.7787873"><ele>919.8000000000001</ele><time>2026-05-02T10:51:28.333Z</time></trkpt><trkpt lat="42.2264485" lon="13.7788638"><ele>920.1999999999999</ele><time>2026-05-02T10:51:29.408Z</time></trkpt><trkpt lat="42.2263632" lon="13.7789486"><ele>920.5999999999999</ele><time>2026-05-02T10:51:30.413Z</time></trkpt><trkpt lat="42.2262785" lon="13.7790409"><ele>921.0</ele><time>2026-05-02T10:51:31.402Z</time></trkpt><trkpt lat="42.2261981" lon="13.7791346"><ele>920.1999999999999</ele><time>2026-05-02T10:51:32.403Z</time></trkpt><trkpt lat="42.2261236" lon="13.7792277"><ele>919.3999999999999</ele><time>2026-05-02T10:51:33.404Z</time></trkpt><trkpt lat="42.2260533" lon="13.7793203"><ele>918.6</ele><time>2026-05-02T10:51:34.413Z</time></trkpt><trkpt lat="42.225995" lon="13.7794364"><ele>917.8</ele><time>2026-05-02T10:51:35.404Z</time></trkpt><trkpt lat="42.2259259" lon="13.7795312"><ele>917.0</ele><time>2026-05-02T10:51:36.407Z</time></trkpt><trkpt lat="42.2258561" lon="13.7796375"><ele>917.0</ele><time>2026-05-02T10:51:37.409Z</time></trkpt><trkpt lat="42.2257834" lon="13.7797491"><ele>917.0</ele><time>2026-05-02T10:51:38.412Z</time></trkpt><trkpt lat="42.2257085" lon="13.7798602"><ele>917.0</ele><time>2026-05-02T10:51:39.409Z</time></trkpt><trkpt lat="42.2256296" lon="13.7799784"><ele>917.0</ele><time>2026-05-02T10:51:40.407Z</time></trkpt><trkpt lat="42.2255491" lon="13.7800926"><ele>915.0</ele><time>2026-05-02T10:51:41.406Z</time></trkpt><trkpt lat="42.2254735" lon="13.7802053"><ele>913.0</ele><time>2026-05-02T10:51:42.407Z</time></trkpt><trkpt lat="42.2254082" lon="13.7803132"><ele>911.0</ele><time>2026-05-02T10:51:43.407Z</time></trkpt><trkpt lat="42.2253488" lon="13.7804147"><ele>909.0</ele><time>2026-05-02T10:51:44.404Z</time></trkpt><trkpt lat="42.2252922" lon="13.7805148"><ele>907.0</ele><time>2026-05-02T10:51:45.405Z</time></trkpt><trkpt lat="42.2252411" lon="13.7806181"><ele>907.0</ele><time>2026-05-02T10:51:46.409Z</time></trkpt><trkpt lat="42.2251885" lon="13.7807279"><ele>907.0</ele><time>2026-05-02T10:51:47.407Z</time></trkpt><trkpt lat="42.2251309" lon="13.7808371"><ele>907.0</ele><time>2026-05-02T10:51:48.419Z</time></trkpt><trkpt lat="42.2250714" lon="13.7809288"><ele>907.0</ele><time>2026-05-02T10:51:49.407Z</time></trkpt><trkpt lat="42.2250108" lon="13.7810083"><ele>907.0</ele><time>2026-05-02T10:51:50.415Z</time></trkpt><trkpt lat="42.2249506" lon="13.7810854"><ele>907.3333333333333</ele><time>2026-05-02T10:51:51.409Z</time></trkpt><trkpt lat="42.2248944" lon="13.7811576"><ele>907.6666666666666</ele><time>2026-05-02T10:51:52.408Z</time></trkpt><trkpt lat="42.2248383" lon="13.7812339"><ele>908.0</ele><time>2026-05-02T10:51:53.408Z</time></trkpt><trkpt lat="42.2247841" lon="13.7813148"><ele>908.3333333333333</ele><time>2026-05-02T10:51:54.407Z</time></trkpt><trkpt lat="42.2247364" lon="13.7814006"><ele>908.6666666666666</ele><time>2026-05-02T10:51:55.402Z</time></trkpt><trkpt lat="42.2246986" lon="13.7814962"><ele>909.0</ele><time>2026-05-02T10:51:56.405Z</time></trkpt><trkpt lat="42.2246684" lon="13.7815971"><ele>904.8000000000001</ele><time>2026-05-02T10:51:57.39Z</time></trkpt><trkpt lat="42.2246441" lon="13.7817012"><ele>900.6000000000001</ele><time>2026-05-02T10:51:58.394Z</time></trkpt><trkpt lat="42.2246257" lon="13.7818157"><ele>896.4</ele><time>2026-05-02T10:51:59.39Z</time></trkpt><trkpt lat="42.2245902" lon="13.7819346"><ele>892.2</ele><time>2026-05-02T10:52:00.296Z</time></trkpt><trkpt lat="42.2245453" lon="13.7820594"><ele>888.0</ele><time>2026-05-02T10:52:01.31Z</time></trkpt><trkpt lat="42.2244857" lon="13.7821764"><ele>887.5999999999999</ele><time>2026-05-02T10:52:02.312Z</time></trkpt><trkpt lat="42.2244345" lon="13.7823016"><ele>887.1999999999999</ele><time>2026-05-02T10:52:03.309Z</time></trkpt><trkpt lat="42.2243842" lon="13.7824209"><ele>886.8</ele><time>2026-05-02T10:52:04.309Z</time></trkpt><trkpt lat="42.2243474" lon="13.782537"><ele>886.4</ele><time>2026-05-02T10:52:05.308Z</time></trkpt><trkpt lat="42.2243325" lon="13.7826598"><ele>886.0</ele><time>2026-05-02T10:52:06.3Z</time></trkpt><trkpt lat="42.2243226" lon="13.782767"><ele>885.9999999999999</ele><time>2026-05-02T10:52:07.298Z</time></trkpt><trkpt lat="42.2243224" lon="13.7828575"><ele>886.0</ele><time>2026-05-02T10:52:08.313Z</time></trkpt><trkpt lat="42.2242935" lon="13.7829572"><ele>886.0</ele><time>2026-05-02T10:52:10.322Z</time></trkpt><trkpt lat="42.2241956" lon="13.7829315"><ele>886.0</ele><time>2026-05-02T10:52:12.327Z</time></trkpt><trkpt lat="42.2241512" lon="13.7828475"><ele>885.9999999999999</ele><time>2026-05-02T10:52:13.319Z</time></trkpt><trkpt lat="42.2240983" lon="13.7827393"><ele>886.0</ele><time>2026-05-02T10:52:14.3Z</time></trkpt><trkpt lat="42.2240441" lon="13.7826226"><ele>886.0</ele><time>2026-05-02T10:52:15.306Z</time></trkpt><trkpt lat="42.223988" lon="13.7824984"><ele>885.9999999999999</ele><time>2026-05-02T10:52:16.317Z</time></trkpt><trkpt lat="42.2239345" lon="13.7823693"><ele>885.9999999999999</ele><time>2026-05-02T10:52:17.318Z</time></trkpt><trkpt lat="42.2238954" lon="13.7822342"><ele>886.0</ele><time>2026-05-02T10:52:18.316Z</time></trkpt><trkpt lat="42.2238603" lon="13.7821204"><ele>886.0</ele><time>2026-05-02T10:52:19.32Z</time></trkpt><trkpt lat="42.2238243" lon="13.7820268"><ele>880.4</ele><time>2026-05-02T10:52:20.309Z</time></trkpt><trkpt lat="42.2237701" lon="13.7818906"><ele>874.8</ele><time>2026-05-02T10:52:22.308Z</time></trkpt><trkpt lat="42.2237055" lon="13.781843"><ele>869.1999999999999</ele><time>2026-05-02T10:52:24.331Z</time></trkpt><trkpt lat="42.223656" lon="13.7819311"><ele>863.5999999999999</ele><time>2026-05-02T10:52:26.329Z</time></trkpt><trkpt lat="42.2236434" lon="13.7820492"><ele>858.0</ele><time>2026-05-02T10:52:27.304Z</time></trkpt><trkpt lat="42.2236363" lon="13.7821827"><ele>858.0</ele><time>2026-05-02T10:52:28.324Z</time></trkpt><trkpt lat="42.2236157" lon="13.7823171"><ele>858.0</ele><time>2026-05-02T10:52:29.317Z</time></trkpt><trkpt lat="42.2235974" lon="13.7824323"><ele>858.0</ele><time>2026-05-02T10:52:30.317Z</time></trkpt><trkpt lat="42.2235888" lon="13.7825279"><ele>858.0</ele><time>2026-05-02T10:52:31.31Z</time></trkpt><trkpt lat="42.2235684" lon="13.7826434"><ele>858.0</ele><time>2026-05-02T10:52:33.302Z</time></trkpt><trkpt lat="42.2234958" lon="13.7826041"><ele>858.0</ele><time>2026-05-02T10:52:35.331Z</time></trkpt><trkpt lat="42.2234551" lon="13.7825089"><ele>858.0</ele><time>2026-05-02T10:52:36.317Z</time></trkpt><trkpt lat="42.2234196" lon="13.7823953"><ele>858.0</ele><time>2026-05-02T10:52:37.307Z</time></trkpt><trkpt lat="42.223384" lon="13.7822909"><ele>858.0</ele><time>2026-05-02T10:52:38.309Z</time></trkpt><trkpt lat="42.2233501" lon="13.7822107"><ele>858.0</ele><time>2026-05-02T10:52:39.315Z</time></trkpt><trkpt lat="42.2233184" lon="13.7820608"><ele>858.0</ele><time>2026-05-02T10:52:41.312Z</time></trkpt><trkpt lat="42.2232631" lon="13.7819722"><ele>858.0</ele><time>2026-05-02T10:52:43.307Z</time></trkpt><trkpt lat="42.2231669" lon="13.7820333"><ele>857.0</ele><time>2026-05-02T10:52:45.314Z</time></trkpt><trkpt lat="42.2231183" lon="13.7821231"><ele>856.0</ele><time>2026-05-02T10:52:46.314Z</time></trkpt><trkpt lat="42.2230595" lon="13.7822306"><ele>855.0</ele><time>2026-05-02T10:52:47.313Z</time></trkpt><trkpt lat="42.2230044" lon="13.7823398"><ele>854.0</ele><time>2026-05-02T10:52:48.318Z</time></trkpt><trkpt lat="42.2229438" lon="13.7824363"><ele>853.0</ele><time>2026-05-02T10:52:49.303Z</time></trkpt><trkpt lat="42.2228839" lon="13.7824913"><ele>852.0</ele><time>2026-05-02T10:52:50.308Z</time></trkpt><trkpt lat="42.2227742" lon="13.7824974"><ele>852.0</ele><time>2026-05-02T10:52:52.314Z</time></trkpt><trkpt lat="42.2226719" lon="13.7824266"><ele>852.0</ele><time>2026-05-02T10:52:54.319Z</time></trkpt><trkpt lat="42.2226123" lon="13.7823389"><ele>852.0</ele><time>2026-05-02T10:52:56.327Z</time></trkpt><trkpt lat="42.2225559" lon="13.7822491"><ele>852.0</ele><time>2026-05-02T10:52:58.329Z</time></trkpt><trkpt lat="42.2224486" lon="13.7821535"><ele>852.0</ele><time>2026-05-02T10:53:00.311Z</time></trkpt><trkpt lat="42.2223758" lon="13.782089"><ele>852.8333333333334</ele><time>2026-05-02T10:53:01.313Z</time></trkpt><trkpt lat="42.2223027" lon="13.782024"><ele>853.6666666666667</ele><time>2026-05-02T10:53:02.32Z</time></trkpt><trkpt lat="42.2222334" lon="13.7819587"><ele>854.5</ele><time>2026-05-02T10:53:03.315Z</time></trkpt><trkpt lat="42.2221685" lon="13.7818892"><ele>855.3333333333334</ele><time>2026-05-02T10:53:04.318Z</time></trkpt><trkpt lat="42.2221154" lon="13.7818289"><ele>856.1666666666667</ele><time>2026-05-02T10:53:05.31Z</time></trkpt><trkpt lat="42.2220296" lon="13.7817221"><ele>857.0</ele><time>2026-05-02T10:53:07.306Z</time></trkpt><trkpt lat="42.2219642" lon="13.7815965"><ele>857.0000000000001</ele><time>2026-05-02T10:53:09.316Z</time></trkpt><trkpt lat="42.2219318" lon="13.7815101"><ele>857.0</ele><time>2026-05-02T10:53:10.324Z</time></trkpt><trkpt lat="42.2219079" lon="13.7814129"><ele>857.0</ele><time>2026-05-02T10:53:11.31Z</time></trkpt><trkpt lat="42.2218795" lon="13.7813018"><ele>857.0</ele><time>2026-05-02T10:53:12.309Z</time></trkpt><trkpt lat="42.2218384" lon="13.7811728"><ele>857.0000000000001</ele><time>2026-05-02T10:53:13.311Z</time></trkpt><trkpt lat="42.2217965" lon="13.7810368"><ele>857.0</ele><time>2026-05-02T10:53:14.306Z</time></trkpt><trkpt lat="42.2217616" lon="13.7809026"><ele>856.2</ele><time>2026-05-02T10:53:15.306Z</time></trkpt><trkpt lat="42.2217376" lon="13.7807668"><ele>855.4000000000001</ele><time>2026-05-02T10:53:16.306Z</time></trkpt><trkpt lat="42.2217147" lon="13.7806359"><ele>854.5999999999999</ele><time>2026-05-02T10:53:17.298Z</time></trkpt><trkpt lat="42.2216773" lon="13.7805116"><ele>853.8</ele><time>2026-05-02T10:53:18.302Z</time></trkpt><trkpt lat="42.221643" lon="13.7803946"><ele>853.0</ele><time>2026-05-02T10:53:19.288Z</time></trkpt><trkpt lat="42.2216002" lon="13.7802824"><ele>851.9999999999999</ele><time>2026-05-02T10:53:20.296Z</time></trkpt><trkpt lat="42.2215613" lon="13.7801698"><ele>851.0</ele><time>2026-05-02T10:53:21.294Z</time></trkpt><trkpt lat="42.2215209" lon="13.7800721"><ele>850.0</ele><time>2026-05-02T10:53:22.305Z</time></trkpt><trkpt lat="42.2214857" lon="13.7799746"><ele>849.0</ele><time>2026-05-02T10:53:23.302Z</time></trkpt><trkpt lat="42.2214482" lon="13.7798952"><ele>847.9999999999999</ele><time>2026-05-02T10:53:24.305Z</time></trkpt><trkpt lat="42.2214185" lon="13.7798146"><ele>847.0</ele><time>2026-05-02T10:53:25.301Z</time></trkpt><trkpt lat="42.2213787" lon="13.7797076"><ele>844.75</ele><time>2026-05-02T10:53:27.314Z</time></trkpt><trkpt lat="42.2212781" lon="13.7797429"><ele>842.5</ele><time>2026-05-02T10:53:31.322Z</time></trkpt><trkpt lat="42.2211585" lon="13.7798209"><ele>840.25</ele><time>2026-05-02T10:53:33.323Z</time></trkpt><trkpt lat="42.2210498" lon="13.7799111"><ele>838.0</ele><time>2026-05-02T10:53:34.314Z</time></trkpt><trkpt lat="42.2209284" lon="13.7800056"><ele>838.0</ele><time>2026-05-02T10:53:35.315Z</time></trkpt><trkpt lat="42.2208016" lon="13.7800962"><ele>838.0</ele><time>2026-05-02T10:53:36.315Z</time></trkpt><trkpt lat="42.2206782" lon="13.7801994"><ele>838.0</ele><time>2026-05-02T10:53:37.317Z</time></trkpt><trkpt lat="42.2205544" lon="13.7803042"><ele>838.0</ele><time>2026-05-02T10:53:38.305Z</time></trkpt><trkpt lat="42.2204372" lon="13.7803862"><ele>837.75</ele><time>2026-05-02T10:53:39.308Z</time></trkpt><trkpt lat="42.2203112" lon="13.7804451"><ele>837.5</ele><time>2026-05-02T10:53:40.302Z</time></trkpt><trkpt lat="42.2201915" lon="13.7804691"><ele>837.25</ele><time>2026-05-02T10:53:41.308Z</time></trkpt><trkpt lat="42.2200816" lon="13.7804662"><ele>837.0</ele><time>2026-05-02T10:53:42.304Z</time></trkpt><trkpt lat="42.2199863" lon="13.7804485"><ele>837.0</ele><time>2026-05-02T10:53:43.3Z</time></trkpt><trkpt lat="42.2198828" lon="13.7804104"><ele>837.0</ele><time>2026-05-02T10:53:44.295Z</time></trkpt><trkpt lat="42.2197784" lon="13.7803724"><ele>837.0</ele><time>2026-05-02T10:53:45.295Z</time></trkpt><trkpt lat="42.2196819" lon="13.7803344"><ele>837.0</ele><time>2026-05-02T10:53:46.301Z</time></trkpt><trkpt lat="42.2195898" lon="13.7802996"><ele>837.0</ele><time>2026-05-02T10:53:47.299Z</time></trkpt><trkpt lat="42.219495" lon="13.7802385"><ele>830.8</ele><time>2026-05-02T10:53:48.296Z</time></trkpt><trkpt lat="42.2194088" lon="13.7801582"><ele>824.6</ele><time>2026-05-02T10:53:49.297Z</time></trkpt><trkpt lat="42.2193306" lon="13.780057"><ele>818.4</ele><time>2026-05-02T10:53:50.302Z</time></trkpt><trkpt lat="42.2192553" lon="13.779948"><ele>812.1999999999999</ele><time>2026-05-02T10:53:51.302Z</time></trkpt><trkpt lat="42.2191882" lon="13.7798552"><ele>806.0</ele><time>2026-05-02T10:53:52.308Z</time></trkpt><trkpt lat="42.2191254" lon="13.7797743"><ele>806.0</ele><time>2026-05-02T10:53:53.311Z</time></trkpt><trkpt lat="42.2190613" lon="13.779706"><ele>806.0</ele><time>2026-05-02T10:53:54.306Z</time></trkpt><trkpt lat="42.2189795" lon="13.7796382"><ele>806.0</ele><time>2026-05-02T10:53:55.304Z</time></trkpt><trkpt lat="42.2188875" lon="13.7795996"><ele>806.0</ele><time>2026-05-02T10:53:56.312Z</time></trkpt><trkpt lat="42.2187875" lon="13.7795851"><ele>806.0</ele><time>2026-05-02T10:53:57.312Z</time></trkpt><trkpt lat="42.2186816" lon="13.7795865"><ele>802.5</ele><time>2026-05-02T10:53:58.306Z</time></trkpt><trkpt lat="42.2185766" lon="13.7796069"><ele>799.0</ele><time>2026-05-02T10:53:59.31Z</time></trkpt><trkpt lat="42.2184719" lon="13.7796584"><ele>795.5</ele><time>2026-05-02T10:54:00.318Z</time></trkpt><trkpt lat="42.2183464" lon="13.779725"><ele>792.0</ele><time>2026-05-02T10:54:01.326Z</time></trkpt><trkpt lat="42.2182101" lon="13.7797897"><ele>790.5</ele><time>2026-05-02T10:54:02.318Z</time></trkpt><trkpt lat="42.2180744" lon="13.7798365"><ele>789.0</ele><time>2026-05-02T10:54:03.314Z</time></trkpt><trkpt lat="42.217958" lon="13.7798758"><ele>787.5</ele><time>2026-05-02T10:54:04.309Z</time></trkpt><trkpt lat="42.2178464" lon="13.7799106"><ele>786.0</ele><time>2026-05-02T10:54:05.307Z</time></trkpt><trkpt lat="42.217749" lon="13.77991"><ele>786.0</ele><time>2026-05-02T10:54:06.305Z</time></trkpt><trkpt lat="42.2176515" lon="13.7798674"><ele>786.0</ele><time>2026-05-02T10:54:07.311Z</time></trkpt><trkpt lat="42.2175647" lon="13.7797794"><ele>786.0</ele><time>2026-05-02T10:54:08.325Z</time></trkpt><trkpt lat="42.217511" lon="13.779679"><ele>786.0</ele><time>2026-05-02T10:54:09.391Z</time></trkpt><trkpt lat="42.2174702" lon="13.7795651"><ele>786.0</ele><time>2026-05-02T10:54:10.392Z</time></trkpt><trkpt lat="42.2174346" lon="13.7794483"><ele>783.5999999999999</ele><time>2026-05-02T10:54:11.382Z</time></trkpt><trkpt lat="42.2174091" lon="13.7793381"><ele>781.2</ele><time>2026-05-02T10:54:12.375Z</time></trkpt><trkpt lat="42.2173883" lon="13.7792269"><ele>778.8</ele><time>2026-05-02T10:54:13.372Z</time></trkpt><trkpt lat="42.2173422" lon="13.7790689"><ele>776.4000000000001</ele><time>2026-05-02T10:54:15.358Z</time></trkpt><trkpt lat="42.2173141" lon="13.7789513"><ele>774.0</ele><time>2026-05-02T10:54:16.385Z</time></trkpt><trkpt lat="42.2172597" lon="13.7784003"><ele>768.0</ele><time>2026-05-02T10:54:17.392Z</time></trkpt><trkpt lat="42.2172253" lon="13.7782558"><ele>762.0</ele><time>2026-05-02T10:54:18.406Z</time></trkpt><trkpt lat="42.2171549" lon="13.7781206"><ele>756.0</ele><time>2026-05-02T10:54:19.405Z</time></trkpt><trkpt lat="42.2169475" lon="13.7777874"><ele>756.0</ele><time>2026-05-02T10:54:20.403Z</time></trkpt><trkpt lat="42.216899" lon="13.7777198"><ele>756.0</ele><time>2026-05-02T10:54:21.397Z</time></trkpt><trkpt lat="42.2168206" lon="13.7776508"><ele>756.0</ele><time>2026-05-02T10:54:22.409Z</time></trkpt><trkpt lat="42.2167062" lon="13.7775855"><ele>756.0</ele><time>2026-05-02T10:54:23.376Z</time></trkpt><trkpt lat="42.2165746" lon="13.7775392"><ele>756.0</ele><time>2026-05-02T10:54:24.377Z</time></trkpt><trkpt lat="42.2164421" lon="13.7774868"><ele>749.25</ele><time>2026-05-02T10:54:25.384Z</time></trkpt><trkpt lat="42.2163112" lon="13.7774145"><ele>742.5</ele><time>2026-05-02T10:54:26.385Z</time></trkpt><trkpt lat="42.2161786" lon="13.7773305"><ele>735.75</ele><time>2026-05-02T10:54:27.402Z</time></trkpt><trkpt lat="42.2160452" lon="13.7772392"><ele>729.0</ele><time>2026-05-02T10:54:28.409Z</time></trkpt><trkpt lat="42.2159076" lon="13.777143"><ele>729.0</ele><time>2026-05-02T10:54:29.409Z</time></trkpt><trkpt lat="42.215769" lon="13.7770448"><ele>729.0</ele><time>2026-05-02T10:54:30.409Z</time></trkpt><trkpt lat="42.2156395" lon="13.7769557"><ele>729.0</ele><time>2026-05-02T10:54:31.409Z</time></trkpt><trkpt lat="42.2155185" lon="13.7768812"><ele>729.0</ele><time>2026-05-02T10:54:32.399Z</time></trkpt><trkpt lat="42.2154272" lon="13.7767824"><ele>725.6666666666666</ele><time>2026-05-02T10:54:33.399Z</time></trkpt><trkpt lat="42.215334" lon="13.7767449"><ele>722.3333333333334</ele><time>2026-05-02T10:54:34.316Z</time></trkpt><trkpt lat="42.2152482" lon="13.7767153"><ele>719.0</ele><time>2026-05-02T10:54:35.396Z</time></trkpt><trkpt lat="42.2151667" lon="13.7767039"><ele>715.6666666666667</ele><time>2026-05-02T10:54:36.404Z</time></trkpt><trkpt lat="42.2150889" lon="13.7766941"><ele>712.3333333333334</ele><time>2026-05-02T10:54:37.405Z</time></trkpt><trkpt lat="42.2150209" lon="13.7767222"><ele>709.0</ele><time>2026-05-02T10:54:38.39Z</time></trkpt><trkpt lat="42.2149663" lon="13.7767872"><ele>710.3333333333334</ele><time>2026-05-02T10:54:39.386Z</time></trkpt><trkpt lat="42.214911" lon="13.7768701"><ele>711.6666666666667</ele><time>2026-05-02T10:54:40.292Z</time></trkpt><trkpt lat="42.2148894" lon="13.7769728"><ele>713.0</ele><time>2026-05-02T10:54:41.299Z</time></trkpt><trkpt lat="42.2148693" lon="13.7770554"><ele>714.3333333333334</ele><time>2026-05-02T10:54:42.294Z</time></trkpt><trkpt lat="42.2148114" lon="13.7771383"><ele>715.6666666666666</ele><time>2026-05-02T10:54:44.312Z</time></trkpt><trkpt lat="42.2147573" lon="13.7770912"><ele>717.0</ele><time>2026-05-02T10:54:46.326Z</time></trkpt><trkpt lat="42.2147945" lon="13.7769095"><ele>715.4000000000001</ele><time>2026-05-02T10:54:48.307Z</time></trkpt><trkpt lat="42.2148428" lon="13.7767728"><ele>713.8000000000001</ele><time>2026-05-02T10:54:49.312Z</time></trkpt><trkpt lat="42.2148969" lon="13.7766306"><ele>712.2</ele><time>2026-05-02T10:54:50.314Z</time></trkpt><trkpt lat="42.2149358" lon="13.7765142"><ele>710.6</ele><time>2026-05-02T10:54:51.3Z</time></trkpt><trkpt lat="42.2149417" lon="13.7764218"><ele>709.0</ele><time>2026-05-02T10:54:52.322Z</time></trkpt><trkpt lat="42.2148942" lon="13.776364"><ele>709.0</ele><time>2026-05-02T10:54:53.317Z</time></trkpt><trkpt lat="42.214821" lon="13.7763523"><ele>709.0</ele><time>2026-05-02T10:54:54.313Z</time></trkpt><trkpt lat="42.214754" lon="13.7764131"><ele>709.0</ele><time>2026-05-02T10:54:55.311Z</time></trkpt><trkpt lat="42.2146956" lon="13.7765309"><ele>709.0</ele><time>2026-05-02T10:54:56.305Z</time></trkpt><trkpt lat="42.2146327" lon="13.7766782"><ele>709.0</ele><time>2026-05-02T10:54:57.301Z</time></trkpt><trkpt lat="42.2145631" lon="13.7768548"><ele>707.0</ele><time>2026-05-02T10:54:58.3Z</time></trkpt><trkpt lat="42.2144813" lon="13.7770537"><ele>705.0</ele><time>2026-05-02T10:54:59.317Z</time></trkpt><trkpt lat="42.2144071" lon="13.7772289"><ele>703.0</ele><time>2026-05-02T10:55:00.313Z</time></trkpt><trkpt lat="42.2143374" lon="13.7773701"><ele>701.0</ele><time>2026-05-02T10:55:01.312Z</time></trkpt><trkpt lat="42.2142833" lon="13.7774709"><ele>701.0</ele><time>2026-05-02T10:55:02.303Z</time></trkpt><trkpt lat="42.2141702" lon="13.7774665"><ele>701.0</ele><time>2026-05-02T10:55:04.3Z</time></trkpt><trkpt lat="42.2141545" lon="13.7773788"><ele>701.0</ele><time>2026-05-02T10:55:05.311Z</time></trkpt><trkpt lat="42.2141785" lon="13.7772507"><ele>701.0</ele><time>2026-05-02T10:55:06.313Z</time></trkpt><trkpt lat="42.2142243" lon="13.7771202"><ele>701.0</ele><time>2026-05-02T10:55:07.301Z</time></trkpt><trkpt lat="42.2142769" lon="13.7769735"><ele>700.0</ele><time>2026-05-02T10:55:08.307Z</time></trkpt><trkpt lat="42.2143126" lon="13.7768342"><ele>699.0</ele><time>2026-05-02T10:55:09.301Z</time></trkpt><trkpt lat="42.2143372" lon="13.7767004"><ele>698.0</ele><time>2026-05-02T10:55:10.311Z</time></trkpt><trkpt lat="42.2143601" lon="13.7765862"><ele>697.0</ele><time>2026-05-02T10:55:11.301Z</time></trkpt><trkpt lat="42.2143924" lon="13.7764753"><ele>696.0</ele><time>2026-05-02T10:55:13.317Z</time></trkpt><trkpt lat="42.2143289" lon="13.7764801"><ele>696.0</ele><time>2026-05-02T10:55:15.318Z</time></trkpt><trkpt lat="42.2142539" lon="13.7765489"><ele>696.0</ele><time>2026-05-02T10:55:17.317Z</time></trkpt><trkpt lat="42.2141994" lon="13.7766133"><ele>696.0</ele><time>2026-05-02T10:55:18.317Z</time></trkpt><trkpt lat="42.2141494" lon="13.7766802"><ele>696.0</ele><time>2026-05-02T10:55:19.313Z</time></trkpt><trkpt lat="42.2140867" lon="13.7767157"><ele>696.0</ele><time>2026-05-02T10:55:20.313Z</time></trkpt><trkpt lat="42.2140123" lon="13.7767318"><ele>696.0</ele><time>2026-05-02T10:55:21.306Z</time></trkpt><trkpt lat="42.2139229" lon="13.7767329"><ele>694.8</ele><time>2026-05-02T10:55:22.317Z</time></trkpt><trkpt lat="42.2138281" lon="13.7767215"><ele>693.5999999999999</ele><time>2026-05-02T10:55:23.314Z</time></trkpt><trkpt lat="42.2137261" lon="13.7767217"><ele>692.4</ele><time>2026-05-02T10:55:24.323Z</time></trkpt><trkpt lat="42.2136271" lon="13.7767219"><ele>691.2</ele><time>2026-05-02T10:55:25.318Z</time></trkpt><trkpt lat="42.2135383" lon="13.7766947"><ele>690.0</ele><time>2026-05-02T10:55:26.31Z</time></trkpt><trkpt lat="42.2134499" lon="13.7766471"><ele>690.0</ele><time>2026-05-02T10:55:27.311Z</time></trkpt><trkpt lat="42.2133484" lon="13.7765762"><ele>690.0</ele><time>2026-05-02T10:55:28.312Z</time></trkpt><trkpt lat="42.2132406" lon="13.7764993"><ele>690.0</ele><time>2026-05-02T10:55:29.317Z</time></trkpt><trkpt lat="42.2131577" lon="13.7764164"><ele>690.0</ele><time>2026-05-02T10:55:30.315Z</time></trkpt><trkpt lat="42.213075" lon="13.7763504"><ele>690.0</ele><time>2026-05-02T10:55:31.31Z</time></trkpt><trkpt lat="42.2129974" lon="13.7763221"><ele>690.0</ele><time>2026-05-02T10:55:32.306Z</time></trkpt><trkpt lat="42.2129263" lon="13.7763245"><ele>690.0</ele><time>2026-05-02T10:55:33.308Z</time></trkpt><trkpt lat="42.2128567" lon="13.7763575"><ele>690.0</ele><time>2026-05-02T10:55:34.31Z</time></trkpt><trkpt lat="42.2127778" lon="13.7764134"><ele>690.0</ele><time>2026-05-02T10:55:35.304Z</time></trkpt><trkpt lat="42.2126822" lon="13.776501"><ele>690.0</ele><time>2026-05-02T10:55:36.31Z</time></trkpt><trkpt lat="42.2125832" lon="13.7766061"><ele>690.0</ele><time>2026-05-02T10:55:37.311Z</time></trkpt><trkpt lat="42.2124946" lon="13.7767341"><ele>690.0</ele><time>2026-05-02T10:55:38.323Z</time></trkpt><trkpt lat="42.2124072" lon="13.7768389"><ele>690.0</ele><time>2026-05-02T10:55:39.318Z</time></trkpt><trkpt lat="42.2123206" lon="13.7769115"><ele>690.0</ele><time>2026-05-02T10:55:40.317Z</time></trkpt><trkpt lat="42.2122297" lon="13.7769815"><ele>688.4</ele><time>2026-05-02T10:55:41.323Z</time></trkpt><trkpt lat="42.2121381" lon="13.777058"><ele>686.8</ele><time>2026-05-02T10:55:42.316Z</time></trkpt><trkpt lat="42.2120442" lon="13.777133"><ele>685.2</ele><time>2026-05-02T10:55:43.317Z</time></trkpt><trkpt lat="42.2119595" lon="13.777189"><ele>683.6</ele><time>2026-05-02T10:55:44.315Z</time></trkpt><trkpt lat="42.2118781" lon="13.7772229"><ele>682.0</ele><time>2026-05-02T10:55:45.314Z</time></trkpt><trkpt lat="42.2117895" lon="13.7772196"><ele>682.0</ele><time>2026-05-02T10:55:46.304Z</time></trkpt><trkpt lat="42.2116894" lon="13.7771873"><ele>682.0</ele><time>2026-05-02T10:55:47.319Z</time></trkpt><trkpt lat="42.2115796" lon="13.7771445"><ele>682.0</ele><time>2026-05-02T10:55:48.308Z</time></trkpt><trkpt lat="42.2114768" lon="13.7770807"><ele>682.0</ele><time>2026-05-02T10:55:49.309Z</time></trkpt><trkpt lat="42.2113752" lon="13.7769923"><ele>681.75</ele><time>2026-05-02T10:55:50.313Z</time></trkpt><trkpt lat="42.2112728" lon="13.7768736"><ele>681.5</ele><time>2026-05-02T10:55:51.305Z</time></trkpt><trkpt lat="42.2111657" lon="13.7767479"><ele>681.25</ele><time>2026-05-02T10:55:52.309Z</time></trkpt><trkpt lat="42.2110605" lon="13.7766307"><ele>681.0</ele><time>2026-05-02T10:55:53.31Z</time></trkpt><trkpt lat="42.2109733" lon="13.7765293"><ele>681.0</ele><time>2026-05-02T10:55:54.318Z</time></trkpt><trkpt lat="42.2108963" lon="13.7764394"><ele>681.0</ele><time>2026-05-02T10:55:55.316Z</time></trkpt><trkpt lat="42.2108263" lon="13.7763551"><ele>681.0</ele><time>2026-05-02T10:55:56.318Z</time></trkpt><trkpt lat="42.2107501" lon="13.7762556"><ele>681.0</ele><time>2026-05-02T10:55:57.314Z</time></trkpt><trkpt lat="42.2106695" lon="13.7761771"><ele>681.0</ele><time>2026-05-02T10:55:58.313Z</time></trkpt><trkpt lat="42.2105541" lon="13.7761011"><ele>680.5</ele><time>2026-05-02T10:55:59.317Z</time></trkpt><trkpt lat="42.2104262" lon="13.7760315"><ele>680.0</ele><time>2026-05-02T10:56:00.322Z</time></trkpt><trkpt lat="42.2102918" lon="13.7759612"><ele>679.5</ele><time>2026-05-02T10:56:01.319Z</time></trkpt><trkpt lat="42.2101334" lon="13.7758901"><ele>679.0</ele><time>2026-05-02T10:56:02.315Z</time></trkpt><trkpt lat="42.2099662" lon="13.7758055"><ele>679.0</ele><time>2026-05-02T10:56:03.323Z</time></trkpt><trkpt lat="42.2097959" lon="13.7757394"><ele>679.0</ele><time>2026-05-02T10:56:04.327Z</time></trkpt><trkpt lat="42.2096484" lon="13.775678"><ele>679.0</ele><time>2026-05-02T10:56:05.323Z</time></trkpt><trkpt lat="42.2095121" lon="13.7756244"><ele>679.0</ele><time>2026-05-02T10:56:06.327Z</time></trkpt><trkpt lat="42.2093759" lon="13.7755679"><ele>679.0</ele><time>2026-05-02T10:56:07.32Z</time></trkpt><trkpt lat="42.2092495" lon="13.7755165"><ele>679.0</ele><time>2026-05-02T10:56:08.321Z</time></trkpt><trkpt lat="42.2091245" lon="13.7754807"><ele>679.0</ele><time>2026-05-02T10:56:09.314Z</time></trkpt><trkpt lat="42.2090108" lon="13.775469"><ele>678.8000000000001</ele><time>2026-05-02T10:56:10.312Z</time></trkpt><trkpt lat="42.2089005" lon="13.7754699"><ele>678.6</ele><time>2026-05-02T10:56:11.32Z</time></trkpt><trkpt lat="42.2087976" lon="13.7754929"><ele>678.4</ele><time>2026-05-02T10:56:12.333Z</time></trkpt><trkpt lat="42.2086904" lon="13.7755309"><ele>678.2</ele><time>2026-05-02T10:56:13.329Z</time></trkpt><trkpt lat="42.2086" lon="13.7755748"><ele>678.0</ele><time>2026-05-02T10:56:14.322Z</time></trkpt><trkpt lat="42.2085296" lon="13.7756004"><ele>678.0</ele><time>2026-05-02T10:56:15.323Z</time></trkpt><trkpt lat="42.2084635" lon="13.775596"><ele>678.0</ele><time>2026-05-02T10:56:16.329Z</time></trkpt><trkpt lat="42.2084022" lon="13.775576"><ele>678.0</ele><time>2026-05-02T10:56:17.313Z</time></trkpt><trkpt lat="42.2083234" lon="13.7755265"><ele>678.0</ele><time>2026-05-02T10:56:18.329Z</time></trkpt><trkpt lat="42.2082378" lon="13.7754402"><ele>678.0</ele><time>2026-05-02T10:56:19.309Z</time></trkpt><trkpt lat="42.2081385" lon="13.7753487"><ele>678.0</ele><time>2026-05-02T10:56:20.314Z</time></trkpt><trkpt lat="42.2080138" lon="13.7752475"><ele>678.0</ele><time>2026-05-02T10:56:21.314Z</time></trkpt><trkpt lat="42.207884" lon="13.7751326"><ele>678.0</ele><time>2026-05-02T10:56:22.324Z</time></trkpt><trkpt lat="42.20776" lon="13.7750216"><ele>678.0</ele><time>2026-05-02T10:56:23.325Z</time></trkpt><trkpt lat="42.2076465" lon="13.7749105"><ele>678.0</ele><time>2026-05-02T10:56:24.315Z</time></trkpt><trkpt lat="42.2075513" lon="13.7748272"><ele>678.0</ele><time>2026-05-02T10:56:25.314Z</time></trkpt><trkpt lat="42.2074746" lon="13.7747577"><ele>678.0</ele><time>2026-05-02T10:56:26.323Z</time></trkpt><trkpt lat="42.2074029" lon="13.7746982"><ele>678.0</ele><time>2026-05-02T10:56:27.314Z</time></trkpt><trkpt lat="42.2073406" lon="13.7746433"><ele>678.0</ele><time>2026-05-02T10:56:28.317Z</time></trkpt><trkpt lat="42.2072679" lon="13.7745523"><ele>678.0</ele><time>2026-05-02T10:56:30.313Z</time></trkpt><trkpt lat="42.2071989" lon="13.7744847"><ele>678.0</ele><time>2026-05-02T10:56:34.341Z</time></trkpt><trkpt lat="42.2070614" lon="13.7745189"><ele>678.75</ele><time>2026-05-02T10:56:36.333Z</time></trkpt><trkpt lat="42.2069634" lon="13.7745804"><ele>679.5</ele><time>2026-05-02T10:56:37.323Z</time></trkpt><trkpt lat="42.2068622" lon="13.774657"><ele>680.25</ele><time>2026-05-02T10:56:38.326Z</time></trkpt><trkpt lat="42.2067602" lon="13.7747219"><ele>681.0</ele><time>2026-05-02T10:56:39.328Z</time></trkpt><trkpt lat="42.2066417" lon="13.7747923"><ele>681.0</ele><time>2026-05-02T10:56:40.402Z</time></trkpt><trkpt lat="42.2065179" lon="13.7748514"><ele>681.0</ele><time>2026-05-02T10:56:41.399Z</time></trkpt><trkpt lat="42.2063899" lon="13.7749128"><ele>681.0</ele><time>2026-05-02T10:56:42.411Z</time></trkpt><trkpt lat="42.2062532" lon="13.7749804"><ele>681.0</ele><time>2026-05-02T10:56:43.4Z</time></trkpt><trkpt lat="42.2061142" lon="13.7750588"><ele>681.0</ele><time>2026-05-02T10:56:44.401Z</time></trkpt><trkpt lat="42.205976" lon="13.7751513"><ele>681.0</ele><time>2026-05-02T10:56:45.408Z</time></trkpt><trkpt lat="42.205826" lon="13.7752449"><ele>681.0</ele><time>2026-05-02T10:56:46.407Z</time></trkpt><trkpt lat="42.2056699" lon="13.7753339"><ele>682.0</ele><time>2026-05-02T10:56:47.415Z</time></trkpt><trkpt lat="42.2055217" lon="13.7754145"><ele>683.0</ele><time>2026-05-02T10:56:48.408Z</time></trkpt><trkpt lat="42.2053689" lon="13.7754954"><ele>684.0</ele><time>2026-05-02T10:56:49.409Z</time></trkpt><trkpt lat="42.2052212" lon="13.7755843"><ele>684.0</ele><time>2026-05-02T10:56:50.404Z</time></trkpt><trkpt lat="42.2050753" lon="13.7756717"><ele>684.0</ele><time>2026-05-02T10:56:51.402Z</time></trkpt><trkpt lat="42.2049209" lon="13.7757633"><ele>684.0</ele><time>2026-05-02T10:56:52.408Z</time></trkpt><trkpt lat="42.2047653" lon="13.7758549"><ele>684.3333333333334</ele><time>2026-05-02T10:56:53.41Z</time></trkpt><trkpt lat="42.2046135" lon="13.775945"><ele>684.6666666666667</ele><time>2026-05-02T10:56:54.409Z</time></trkpt><trkpt lat="42.2044686" lon="13.7760293"><ele>685.0</ele><time>2026-05-02T10:56:55.405Z</time></trkpt><trkpt lat="42.2043286" lon="13.7761071"><ele>685.0</ele><time>2026-05-02T10:56:56.408Z</time></trkpt><trkpt lat="42.2041777" lon="13.7761867"><ele>685.0</ele><time>2026-05-02T10:56:57.408Z</time></trkpt><trkpt lat="42.2040236" lon="13.7762712"><ele>685.0</ele><time>2026-05-02T10:56:58.41Z</time></trkpt><trkpt lat="42.2038696" lon="13.7763593"><ele>686.6666666666667</ele><time>2026-05-02T10:56:59.408Z</time></trkpt><trkpt lat="42.2037148" lon="13.7764477"><ele>688.3333333333334</ele><time>2026-05-02T10:57:00.406Z</time></trkpt><trkpt lat="42.2035637" lon="13.7765344"><ele>690.0</ele><time>2026-05-02T10:57:01.4Z</time></trkpt><trkpt lat="42.2034129" lon="13.7766203"><ele>690.0</ele><time>2026-05-02T10:57:02.401Z</time></trkpt><trkpt lat="42.2032621" lon="13.7767021"><ele>690.0</ele><time>2026-05-02T10:57:03.402Z</time></trkpt><trkpt lat="42.2031161" lon="13.7767778"><ele>690.0</ele><time>2026-05-02T10:57:04.399Z</time></trkpt><trkpt lat="42.2029697" lon="13.7768523"><ele>693.5</ele><time>2026-05-02T10:57:05.396Z</time></trkpt><trkpt lat="42.2028282" lon="13.7769285"><ele>697.0</ele><time>2026-05-02T10:57:06.403Z</time></trkpt><trkpt lat="42.20269" lon="13.7770043"><ele>700.5</ele><time>2026-05-02T10:57:07.394Z</time></trkpt><trkpt lat="42.202568" lon="13.7770799"><ele>704.0</ele><time>2026-05-02T10:57:08.388Z</time></trkpt><trkpt lat="42.2024619" lon="13.77715"><ele>704.0</ele><time>2026-05-02T10:57:09.386Z</time></trkpt><trkpt lat="42.202369" lon="13.7772367"><ele>704.0</ele><time>2026-05-02T10:57:10.387Z</time></trkpt><trkpt lat="42.2023045" lon="13.7773553"><ele>704.0</ele><time>2026-05-02T10:57:11.372Z</time></trkpt><trkpt lat="42.2022573" lon="13.7774991"><ele>704.0</ele><time>2026-05-02T10:57:12.37Z</time></trkpt><trkpt lat="42.2022182" lon="13.7776608"><ele>703.25</ele><time>2026-05-02T10:57:13.373Z</time></trkpt><trkpt lat="42.2021801" lon="13.7778247"><ele>702.5</ele><time>2026-05-02T10:57:14.365Z</time></trkpt><trkpt lat="42.2021389" lon="13.7780311"><ele>701.75</ele><time>2026-05-02T10:57:15.381Z</time></trkpt><trkpt lat="42.2020933" lon="13.7782372"><ele>701.0</ele><time>2026-05-02T10:57:16.383Z</time></trkpt><trkpt lat="42.2020406" lon="13.7784835"><ele>703.0</ele><time>2026-05-02T10:57:17.388Z</time></trkpt><trkpt lat="42.2019879" lon="13.7787347"><ele>705.0</ele><time>2026-05-02T10:57:18.409Z</time></trkpt><trkpt lat="42.2019349" lon="13.7789821"><ele>707.0</ele><time>2026-05-02T10:57:19.394Z</time></trkpt><trkpt lat="42.2018809" lon="13.7792176"><ele>710.0</ele><time>2026-05-02T10:57:20.394Z</time></trkpt><trkpt lat="42.2018313" lon="13.7794477"><ele>713.0</ele><time>2026-05-02T10:57:21.396Z</time></trkpt><trkpt lat="42.2017829" lon="13.7796724"><ele>716.0</ele><time>2026-05-02T10:57:22.396Z</time></trkpt><trkpt lat="42.2017376" lon="13.7798934"><ele>716.0</ele><time>2026-05-02T10:57:23.395Z</time></trkpt><trkpt lat="42.2017011" lon="13.7801151"><ele>716.0</ele><time>2026-05-02T10:57:24.398Z</time></trkpt><trkpt lat="42.2016664" lon="13.7803383"><ele>716.0</ele><time>2026-05-02T10:57:25.389Z</time></trkpt><trkpt lat="42.2016422" lon="13.78056"><ele>718.0</ele><time>2026-05-02T10:57:26.393Z</time></trkpt><trkpt lat="42.2016301" lon="13.7807822"><ele>720.0</ele><time>2026-05-02T10:57:27.396Z</time></trkpt><trkpt lat="42.2016279" lon="13.7809982"><ele>722.0</ele><time>2026-05-02T10:57:28.393Z</time></trkpt><trkpt lat="42.2016345" lon="13.7812164"><ele>723.3333333333333</ele><time>2026-05-02T10:57:29.398Z</time></trkpt><trkpt lat="42.2016473" lon="13.7814343"><ele>724.6666666666666</ele><time>2026-05-02T10:57:30.396Z</time></trkpt><trkpt lat="42.2016647" lon="13.7816546"><ele>726.0</ele><time>2026-05-02T10:57:31.393Z</time></trkpt><trkpt lat="42.2016884" lon="13.781877"><ele>724.5</ele><time>2026-05-02T10:57:32.394Z</time></trkpt><trkpt lat="42.2016719" lon="13.7820773"><ele>723.0</ele><time>2026-05-02T10:57:33.387Z</time></trkpt><trkpt lat="42.2016287" lon="13.7822641"><ele>721.5</ele><time>2026-05-02T10:57:34.386Z</time></trkpt><trkpt lat="42.2015627" lon="13.7824307"><ele>720.0</ele><time>2026-05-02T10:57:35.368Z</time></trkpt><trkpt lat="42.2014933" lon="13.7825961"><ele>724.0</ele><time>2026-05-02T10:57:36.375Z</time></trkpt><trkpt lat="42.201424" lon="13.7827695"><ele>728.0</ele><time>2026-05-02T10:57:37.378Z</time></trkpt><trkpt lat="42.201355" lon="13.7829607"><ele>732.0</ele><time>2026-05-02T10:57:38.374Z</time></trkpt><trkpt lat="42.2012952" lon="13.7831552"><ele>732.0</ele><time>2026-05-02T10:57:39.395Z</time></trkpt><trkpt lat="42.2012424" lon="13.7833106"><ele>732.0</ele><time>2026-05-02T10:57:40.396Z</time></trkpt><trkpt lat="42.201189" lon="13.7834409"><ele>732.0</ele><time>2026-05-02T10:57:41.393Z</time></trkpt><trkpt lat="42.201132" lon="13.7835753"><ele>732.0</ele><time>2026-05-02T10:57:42.39Z</time></trkpt><trkpt lat="42.2010701" lon="13.7837116"><ele>735.75</ele><time>2026-05-02T10:57:43.394Z</time></trkpt><trkpt lat="42.2010083" lon="13.7838468"><ele>739.5</ele><time>2026-05-02T10:57:44.402Z</time></trkpt><trkpt lat="42.200947" lon="13.7839811"><ele>743.25</ele><time>2026-05-02T10:57:45.4Z</time></trkpt><trkpt lat="42.2008885" lon="13.7841185"><ele>747.0</ele><time>2026-05-02T10:57:46.403Z</time></trkpt><trkpt lat="42.2008359" lon="13.7842447"><ele>748.8</ele><time>2026-05-02T10:57:47.401Z</time></trkpt><trkpt lat="42.2007907" lon="13.7843472"><ele>750.6</ele><time>2026-05-02T10:57:48.406Z</time></trkpt><trkpt lat="42.2007433" lon="13.7844463"><ele>752.4</ele><time>2026-05-02T10:57:49.395Z</time></trkpt><trkpt lat="42.2006889" lon="13.7845517"><ele>754.1999999999999</ele><time>2026-05-02T10:57:50.398Z</time></trkpt><trkpt lat="42.2006291" lon="13.7846509"><ele>756.0</ele><time>2026-05-02T10:57:51.396Z</time></trkpt><trkpt lat="42.2005638" lon="13.7847504"><ele>756.0</ele><time>2026-05-02T10:57:52.396Z</time></trkpt><trkpt lat="42.2005006" lon="13.7848402"><ele>756.0</ele><time>2026-05-02T10:57:53.394Z</time></trkpt><trkpt lat="42.2004347" lon="13.7849369"><ele>756.0</ele><time>2026-05-02T10:57:54.4Z</time></trkpt><trkpt lat="42.2003752" lon="13.7850289"><ele>756.0</ele><time>2026-05-02T10:57:55.399Z</time></trkpt><trkpt lat="42.2003168" lon="13.7851172"><ele>756.0</ele><time>2026-05-02T10:57:56.398Z</time></trkpt><trkpt lat="42.2002279" lon="13.7851652"><ele>756.0</ele><time>2026-05-02T10:57:58.379Z</time></trkpt><trkpt lat="42.2001717" lon="13.7851146"><ele>756.0</ele><time>2026-05-02T10:58:00.295Z</time></trkpt><trkpt lat="42.2001726" lon="13.7849818"><ele>756.0</ele><time>2026-05-02T10:58:02.308Z</time></trkpt><trkpt lat="42.2001659" lon="13.7848457"><ele>756.0</ele><time>2026-05-02T10:58:04.313Z</time></trkpt><trkpt lat="42.2001566" lon="13.7847495"><ele>756.0</ele><time>2026-05-02T10:58:06.323Z</time></trkpt><trkpt lat="42.2001166" lon="13.7846002"><ele>756.0</ele><time>2026-05-02T10:58:08.314Z</time></trkpt><trkpt lat="42.2000854" lon="13.7844848"><ele>756.0</ele><time>2026-05-02T10:58:09.31Z</time></trkpt><trkpt lat="42.2000489" lon="13.784349"><ele>756.0</ele><time>2026-05-02T10:58:10.314Z</time></trkpt><trkpt lat="42.1999992" lon="13.7842128"><ele>756.0</ele><time>2026-05-02T10:58:11.31Z</time></trkpt><trkpt lat="42.1999373" lon="13.7840791"><ele>756.0</ele><time>2026-05-02T10:58:12.314Z</time></trkpt><trkpt lat="42.1998724" lon="13.7839399"><ele>759.0</ele><time>2026-05-02T10:58:13.315Z</time></trkpt><trkpt lat="42.1998138" lon="13.7837961"><ele>762.0</ele><time>2026-05-02T10:58:14.31Z</time></trkpt><trkpt lat="42.1997721" lon="13.7836391"><ele>765.0</ele><time>2026-05-02T10:58:15.307Z</time></trkpt><trkpt lat="42.1997627" lon="13.7834839"><ele>768.0</ele><time>2026-05-02T10:58:16.312Z</time></trkpt><trkpt lat="42.1997682" lon="13.7833486"><ele>768.0</ele><time>2026-05-02T10:58:17.318Z</time></trkpt><trkpt lat="42.1997568" lon="13.7832226"><ele>768.0</ele><time>2026-05-02T10:58:18.299Z</time></trkpt><trkpt lat="42.1997064" lon="13.7831158"><ele>768.0</ele><time>2026-05-02T10:58:19.313Z</time></trkpt><trkpt lat="42.1996332" lon="13.7830323"><ele>768.0</ele><time>2026-05-02T10:58:20.319Z</time></trkpt><trkpt lat="42.19954" lon="13.7829772"><ele>768.0</ele><time>2026-05-02T10:58:21.312Z</time></trkpt><trkpt lat="42.1994483" lon="13.7829263"><ele>768.0</ele><time>2026-05-02T10:58:22.311Z</time></trkpt><trkpt lat="42.1993455" lon="13.7828773"><ele>768.0</ele><time>2026-05-02T10:58:23.316Z</time></trkpt><trkpt lat="42.1992375" lon="13.7828381"><ele>768.0</ele><time>2026-05-02T10:58:24.32Z</time></trkpt><trkpt lat="42.1991128" lon="13.7828298"><ele>768.0</ele><time>2026-05-02T10:58:25.317Z</time></trkpt><trkpt lat="42.1989889" lon="13.7828364"><ele>769.25</ele><time>2026-05-02T10:58:26.325Z</time></trkpt><trkpt lat="42.1988633" lon="13.7828363"><ele>770.5</ele><time>2026-05-02T10:58:27.314Z</time></trkpt><trkpt lat="42.1987388" lon="13.7828051"><ele>771.75</ele><time>2026-05-02T10:58:28.324Z</time></trkpt><trkpt lat="42.1986187" lon="13.7827613"><ele>773.0</ele><time>2026-05-02T10:58:29.317Z</time></trkpt><trkpt lat="42.1985005" lon="13.7827075"><ele>770.5</ele><time>2026-05-02T10:58:30.322Z</time></trkpt><trkpt lat="42.1983865" lon="13.7826682"><ele>768.0</ele><time>2026-05-02T10:58:31.313Z</time></trkpt><trkpt lat="42.1982644" lon="13.7826573"><ele>765.5</ele><time>2026-05-02T10:58:32.312Z</time></trkpt><trkpt lat="42.1981372" lon="13.7826511"><ele>763.0</ele><time>2026-05-02T10:58:33.31Z</time></trkpt><trkpt lat="42.198002" lon="13.782656"><ele>763.0</ele><time>2026-05-02T10:58:34.319Z</time></trkpt><trkpt lat="42.1978677" lon="13.7826691"><ele>763.0</ele><time>2026-05-02T10:58:35.321Z</time></trkpt><trkpt lat="42.1977356" lon="13.7826938"><ele>763.0</ele><time>2026-05-02T10:58:36.319Z</time></trkpt><trkpt lat="42.1976073" lon="13.7827122"><ele>763.0</ele><time>2026-05-02T10:58:37.319Z</time></trkpt><trkpt lat="42.1974789" lon="13.7827201"><ele>765.75</ele><time>2026-05-02T10:58:38.317Z</time></trkpt><trkpt lat="42.1973436" lon="13.7827158"><ele>768.5</ele><time>2026-05-02T10:58:39.317Z</time></trkpt><trkpt lat="42.1972185" lon="13.7826854"><ele>771.25</ele><time>2026-05-02T10:58:40.318Z</time></trkpt><trkpt lat="42.1970991" lon="13.7826232"><ele>774.0</ele><time>2026-05-02T10:58:41.317Z</time></trkpt><trkpt lat="42.1970001" lon="13.782521"><ele>774.0</ele><time>2026-05-02T10:58:42.321Z</time></trkpt><trkpt lat="42.1969119" lon="13.7823847"><ele>774.0</ele><time>2026-05-02T10:58:43.327Z</time></trkpt><trkpt lat="42.196827" lon="13.7822229"><ele>774.0</ele><time>2026-05-02T10:58:44.318Z</time></trkpt><trkpt lat="42.1967272" lon="13.782094"><ele>774.0</ele><time>2026-05-02T10:58:45.31Z</time></trkpt><trkpt lat="42.1966135" lon="13.7820006"><ele>778.0</ele><time>2026-05-02T10:58:46.332Z</time></trkpt><trkpt lat="42.1964818" lon="13.7819466"><ele>782.0</ele><time>2026-05-02T10:58:47.315Z</time></trkpt><trkpt lat="42.19633" lon="13.7819266"><ele>786.0</ele><time>2026-05-02T10:58:48.318Z</time></trkpt><trkpt lat="42.1961583" lon="13.781915"><ele>786.0</ele><time>2026-05-02T10:58:49.321Z</time></trkpt><trkpt lat="42.195994" lon="13.7818798"><ele>786.0</ele><time>2026-05-02T10:58:50.327Z</time></trkpt><trkpt lat="42.1958167" lon="13.7818369"><ele>786.0</ele><time>2026-05-02T10:58:51.311Z</time></trkpt><trkpt lat="42.1956407" lon="13.7817948"><ele>784.3333333333333</ele><time>2026-05-02T10:58:52.322Z</time></trkpt><trkpt lat="42.1954625" lon="13.7817607"><ele>782.6666666666666</ele><time>2026-05-02T10:58:53.318Z</time></trkpt><trkpt lat="42.1952879" lon="13.7817259"><ele>781.0</ele><time>2026-05-02T10:58:54.322Z</time></trkpt><trkpt lat="42.1951242" lon="13.7816955"><ele>781.0</ele><time>2026-05-02T10:58:55.309Z</time></trkpt><trkpt lat="42.194962" lon="13.7816925"><ele>781.0</ele><time>2026-05-02T10:58:56.317Z</time></trkpt><trkpt lat="42.1948176" lon="13.7817036"><ele>781.0</ele><time>2026-05-02T10:58:57.317Z</time></trkpt><trkpt lat="42.1946744" lon="13.7817283"><ele>782.5</ele><time>2026-05-02T10:58:58.319Z</time></trkpt><trkpt lat="42.1945276" lon="13.7817254"><ele>784.0</ele><time>2026-05-02T10:58:59.32Z</time></trkpt><trkpt lat="42.1943856" lon="13.7816921"><ele>785.5</ele><time>2026-05-02T10:59:00.314Z</time></trkpt><trkpt lat="42.1942534" lon="13.7816343"><ele>787.0</ele><time>2026-05-02T10:59:01.322Z</time></trkpt><trkpt lat="42.1941453" lon="13.7815401"><ele>787.0</ele><time>2026-05-02T10:59:02.317Z</time></trkpt><trkpt lat="42.1940615" lon="13.7814198"><ele>787.0</ele><time>2026-05-02T10:59:03.321Z</time></trkpt><trkpt lat="42.1940196" lon="13.7812619"><ele>787.0</ele><time>2026-05-02T10:59:04.318Z</time></trkpt><trkpt lat="42.1939997" lon="13.7810813"><ele>787.0</ele><time>2026-05-02T10:59:05.307Z</time></trkpt><trkpt lat="42.1939944" lon="13.7808933"><ele>786.3333333333333</ele><time>2026-05-02T10:59:06.314Z</time></trkpt><trkpt lat="42.193985" lon="13.7806963"><ele>785.6666666666667</ele><time>2026-05-02T10:59:07.31Z</time></trkpt><trkpt lat="42.1939886" lon="13.7804888"><ele>785.0</ele><time>2026-05-02T10:59:08.306Z</time></trkpt><trkpt lat="42.1940099" lon="13.7802643"><ele>787.0</ele><time>2026-05-02T10:59:09.309Z</time></trkpt><trkpt lat="42.1940401" lon="13.7800356"><ele>789.0</ele><time>2026-05-02T10:59:10.319Z</time></trkpt><trkpt lat="42.1940833" lon="13.7798064"><ele>791.0</ele><time>2026-05-02T10:59:11.31Z</time></trkpt><trkpt lat="42.1941353" lon="13.779582"><ele>791.0</ele><time>2026-05-02T10:59:12.311Z</time></trkpt><trkpt lat="42.1941756" lon="13.7793589"><ele>791.0</ele><time>2026-05-02T10:59:13.307Z</time></trkpt><trkpt lat="42.1941881" lon="13.7791366"><ele>791.0</ele><time>2026-05-02T10:59:14.301Z</time></trkpt><trkpt lat="42.1941726" lon="13.7789047"><ele>792.6666666666667</ele><time>2026-05-02T10:59:15.305Z</time></trkpt><trkpt lat="42.1941406" lon="13.7786661"><ele>794.3333333333333</ele><time>2026-05-02T10:59:16.305Z</time></trkpt><trkpt lat="42.1941187" lon="13.7784178"><ele>796.0</ele><time>2026-05-02T10:59:17.308Z</time></trkpt><trkpt lat="42.1941254" lon="13.7781666"><ele>799.0</ele><time>2026-05-02T10:59:18.308Z</time></trkpt><trkpt lat="42.1941442" lon="13.7779125"><ele>802.0</ele><time>2026-05-02T10:59:19.306Z</time></trkpt><trkpt lat="42.1941745" lon="13.7776579"><ele>805.0</ele><time>2026-05-02T10:59:20.301Z</time></trkpt><trkpt lat="42.1942061" lon="13.7774136"><ele>808.3333333333333</ele><time>2026-05-02T10:59:21.309Z</time></trkpt><trkpt lat="42.1942636" lon="13.7771753"><ele>811.6666666666667</ele><time>2026-05-02T10:59:22.304Z</time></trkpt><trkpt lat="42.1943218" lon="13.7769487"><ele>815.0</ele><time>2026-05-02T10:59:23.296Z</time></trkpt><trkpt lat="42.194411" lon="13.7767264"><ele>817.6666666666667</ele><time>2026-05-02T10:59:24.298Z</time></trkpt><trkpt lat="42.194501" lon="13.7765099"><ele>820.3333333333333</ele><time>2026-05-02T10:59:25.299Z</time></trkpt><trkpt lat="42.194599" lon="13.7763029"><ele>823.0</ele><time>2026-05-02T10:59:26.306Z</time></trkpt><trkpt lat="42.1946951" lon="13.7761"><ele>820.3333333333333</ele><time>2026-05-02T10:59:27.306Z</time></trkpt><trkpt lat="42.1947653" lon="13.7758884"><ele>817.6666666666667</ele><time>2026-05-02T10:59:28.307Z</time></trkpt><trkpt lat="42.1948312" lon="13.7756765"><ele>815.0</ele><time>2026-05-02T10:59:29.312Z</time></trkpt><trkpt lat="42.1949279" lon="13.7754887"><ele>815.0</ele><time>2026-05-02T10:59:30.325Z</time></trkpt><trkpt lat="42.1950618" lon="13.7753216"><ele>815.0</ele><time>2026-05-02T10:59:31.311Z</time></trkpt><trkpt lat="42.1951974" lon="13.775163"><ele>815.0</ele><time>2026-05-02T10:59:32.319Z</time></trkpt><trkpt lat="42.1953127" lon="13.7749932"><ele>818.6666666666667</ele><time>2026-05-02T10:59:33.323Z</time></trkpt><trkpt lat="42.1954232" lon="13.7748075"><ele>822.3333333333333</ele><time>2026-05-02T10:59:34.323Z</time></trkpt><trkpt lat="42.19553" lon="13.774614"><ele>826.0</ele><time>2026-05-02T10:59:35.324Z</time></trkpt><trkpt lat="42.1956379" lon="13.7744252"><ele>827.0</ele><time>2026-05-02T10:59:36.326Z</time></trkpt><trkpt lat="42.1957496" lon="13.7742314"><ele>828.0</ele><time>2026-05-02T10:59:37.322Z</time></trkpt><trkpt lat="42.1958454" lon="13.7740501"><ele>829.0</ele><time>2026-05-02T10:59:38.326Z</time></trkpt><trkpt lat="42.1959377" lon="13.7738779"><ele>829.0</ele><time>2026-05-02T10:59:39.323Z</time></trkpt><trkpt lat="42.1960179" lon="13.7737057"><ele>829.0</ele><time>2026-05-02T10:59:40.313Z</time></trkpt><trkpt lat="42.196067" lon="13.773525"><ele>829.0</ele><time>2026-05-02T10:59:41.327Z</time></trkpt><trkpt lat="42.1960786" lon="13.7733282"><ele>829.0</ele><time>2026-05-02T10:59:42.325Z</time></trkpt><trkpt lat="42.1960639" lon="13.7731037"><ele>832.6666666666666</ele><time>2026-05-02T10:59:43.321Z</time></trkpt><trkpt lat="42.1960563" lon="13.7728778"><ele>836.3333333333333</ele><time>2026-05-02T10:59:44.321Z</time></trkpt><trkpt lat="42.1960727" lon="13.7726358"><ele>840.0</ele><time>2026-05-02T10:59:45.317Z</time></trkpt><trkpt lat="42.1960996" lon="13.7724107"><ele>841.0</ele><time>2026-05-02T10:59:46.328Z</time></trkpt><trkpt lat="42.1961383" lon="13.7721897"><ele>842.0</ele><time>2026-05-02T10:59:47.32Z</time></trkpt><trkpt lat="42.1961671" lon="13.7719644"><ele>843.0</ele><time>2026-05-02T10:59:48.315Z</time></trkpt><trkpt lat="42.1961658" lon="13.7717727"><ele>843.0</ele><time>2026-05-02T10:59:49.321Z</time></trkpt><trkpt lat="42.1961434" lon="13.7716141"><ele>843.0</ele><time>2026-05-02T10:59:50.322Z</time></trkpt><trkpt lat="42.196071" lon="13.7714926"><ele>843.0</ele><time>2026-05-02T10:59:51.322Z</time></trkpt><trkpt lat="42.1959697" lon="13.7714"><ele>843.0</ele><time>2026-05-02T10:59:52.325Z</time></trkpt><trkpt lat="42.1958496" lon="13.7713667"><ele>843.0</ele><time>2026-05-02T10:59:53.302Z</time></trkpt><trkpt lat="42.1957207" lon="13.7713409"><ele>843.0</ele><time>2026-05-02T10:59:54.31Z</time></trkpt><trkpt lat="42.1955804" lon="13.7713312"><ele>843.0</ele><time>2026-05-02T10:59:55.307Z</time></trkpt><trkpt lat="42.1954287" lon="13.7713464"><ele>843.0</ele><time>2026-05-02T10:59:56.317Z</time></trkpt><trkpt lat="42.1952831" lon="13.7713496"><ele>845.75</ele><time>2026-05-02T10:59:57.307Z</time></trkpt><trkpt lat="42.1951505" lon="13.7713525"><ele>848.5</ele><time>2026-05-02T10:59:58.315Z</time></trkpt><trkpt lat="42.1950374" lon="13.7713158"><ele>851.25</ele><time>2026-05-02T10:59:59.32Z</time></trkpt><trkpt lat="42.1949508" lon="13.7712418"><ele>854.0</ele><time>2026-05-02T11:00:00.31Z</time></trkpt><trkpt lat="42.194907" lon="13.7711133"><ele>853.0</ele><time>2026-05-02T11:00:01.31Z</time></trkpt><trkpt lat="42.194897" lon="13.7709494"><ele>852.0</ele><time>2026-05-02T11:00:02.309Z</time></trkpt><trkpt lat="42.1948936" lon="13.7707851"><ele>851.0</ele><time>2026-05-02T11:00:03.301Z</time></trkpt><trkpt lat="42.1948761" lon="13.7706131"><ele>850.0</ele><time>2026-05-02T11:00:04.292Z</time></trkpt><trkpt lat="42.1948328" lon="13.7704274"><ele>853.6666666666666</ele><time>2026-05-02T11:00:05.291Z</time></trkpt><trkpt lat="42.1947563" lon="13.7702342"><ele>857.3333333333333</ele><time>2026-05-02T11:00:06.292Z</time></trkpt><trkpt lat="42.1946718" lon="13.7700398"><ele>861.0</ele><time>2026-05-02T11:00:07.3Z</time></trkpt><trkpt lat="42.1945879" lon="13.769854"><ele>861.0</ele><time>2026-05-02T11:00:08.307Z</time></trkpt><trkpt lat="42.194512" lon="13.7697104"><ele>861.0</ele><time>2026-05-02T11:00:09.309Z</time></trkpt><trkpt lat="42.1944214" lon="13.7696129"><ele>861.0</ele><time>2026-05-02T11:00:10.315Z</time></trkpt><trkpt lat="42.1943187" lon="13.7695597"><ele>861.0</ele><time>2026-05-02T11:00:11.313Z</time></trkpt><trkpt lat="42.1942027" lon="13.7695512"><ele>861.0</ele><time>2026-05-02T11:00:12.32Z</time></trkpt><trkpt lat="42.1940729" lon="13.7695866"><ele>861.0</ele><time>2026-05-02T11:00:13.309Z</time></trkpt><trkpt lat="42.1939322" lon="13.7696232"><ele>861.0</ele><time>2026-05-02T11:00:14.311Z</time></trkpt><trkpt lat="42.1937777" lon="13.7696522"><ele>861.0</ele><time>2026-05-02T11:00:15.3Z</time></trkpt><trkpt lat="42.1936156" lon="13.7696572"><ele>864.3333333333333</ele><time>2026-05-02T11:00:16.301Z</time></trkpt><trkpt lat="42.1934416" lon="13.7696337"><ele>867.6666666666666</ele><time>2026-05-02T11:00:17.307Z</time></trkpt><trkpt lat="42.1932565" lon="13.7696087"><ele>871.0</ele><time>2026-05-02T11:00:18.31Z</time></trkpt><trkpt lat="42.193069" lon="13.7695988"><ele>872.0</ele><time>2026-05-02T11:00:19.312Z</time></trkpt><trkpt lat="42.1928921" lon="13.7695837"><ele>873.0</ele><time>2026-05-02T11:00:20.302Z</time></trkpt><trkpt lat="42.1927292" lon="13.7695581"><ele>874.0</ele><time>2026-05-02T11:00:21.313Z</time></trkpt><trkpt lat="42.1925635" lon="13.76953"><ele>874.0</ele><time>2026-05-02T11:00:22.327Z</time></trkpt><trkpt lat="42.1923934" lon="13.7694897"><ele>874.0</ele><time>2026-05-02T11:00:23.327Z</time></trkpt><trkpt lat="42.1922355" lon="13.7694292"><ele>874.0</ele><time>2026-05-02T11:00:24.313Z</time></trkpt><trkpt lat="42.1920924" lon="13.7693748"><ele>873.0</ele><time>2026-05-02T11:00:25.334Z</time></trkpt><trkpt lat="42.1919585" lon="13.769353"><ele>872.0</ele><time>2026-05-02T11:00:26.397Z</time></trkpt><trkpt lat="42.1918167" lon="13.7693435"><ele>871.0</ele><time>2026-05-02T11:00:27.407Z</time></trkpt><trkpt lat="42.1916856" lon="13.7693397"><ele>870.0</ele><time>2026-05-02T11:00:28.397Z</time></trkpt><trkpt lat="42.1915703" lon="13.7693342"><ele>870.4</ele><time>2026-05-02T11:00:29.403Z</time></trkpt><trkpt lat="42.1914636" lon="13.7693182"><ele>870.8</ele><time>2026-05-02T11:00:30.4Z</time></trkpt><trkpt lat="42.1913645" lon="13.7692757"><ele>871.2</ele><time>2026-05-02T11:00:31.387Z</time></trkpt><trkpt lat="42.1912744" lon="13.7692026"><ele>871.6</ele><time>2026-05-02T11:00:32.393Z</time></trkpt><trkpt lat="42.1911998" lon="13.7690986"><ele>872.0</ele><time>2026-05-02T11:00:33.384Z</time></trkpt><trkpt lat="42.1911396" lon="13.7689822"><ele>872.0000000000001</ele><time>2026-05-02T11:00:34.381Z</time></trkpt><trkpt lat="42.1910855" lon="13.7688702"><ele>872.0</ele><time>2026-05-02T11:00:35.387Z</time></trkpt><trkpt lat="42.1910332" lon="13.7687837"><ele>872.0</ele><time>2026-05-02T11:00:36.382Z</time></trkpt><trkpt lat="42.1909488" lon="13.7687591"><ele>872.0</ele><time>2026-05-02T11:00:38.393Z</time></trkpt><trkpt lat="42.1908858" lon="13.7686818"><ele>872.0000000000001</ele><time>2026-05-02T11:00:40.378Z</time></trkpt><trkpt lat="42.1908945" lon="13.7685973"><ele>872.0</ele><time>2026-05-02T11:00:43.422Z</time></trkpt><trkpt lat="42.1909602" lon="13.7685175"><ele>872.2</ele><time>2026-05-02T11:00:45.323Z</time></trkpt><trkpt lat="42.1910814" lon="13.7684935"><ele>872.4000000000001</ele><time>2026-05-02T11:00:47.319Z</time></trkpt><trkpt lat="42.191177" lon="13.7683909"><ele>872.5999999999999</ele><time>2026-05-02T11:00:49.311Z</time></trkpt><trkpt lat="42.1912208" lon="13.7683156"><ele>872.8</ele><time>2026-05-02T11:00:50.326Z</time></trkpt><trkpt lat="42.1912858" lon="13.7681797"><ele>873.0</ele><time>2026-05-02T11:00:52.335Z</time></trkpt><trkpt lat="42.1913602" lon="13.7680424"><ele>873.0</ele><time>2026-05-02T11:00:54.338Z</time></trkpt><trkpt lat="42.1914063" lon="13.7679756"><ele>873.0</ele><time>2026-05-02T11:00:55.324Z</time></trkpt><trkpt lat="42.1914623" lon="13.7679009"><ele>873.0</ele><time>2026-05-02T11:00:56.329Z</time></trkpt><trkpt lat="42.191523" lon="13.7678334"><ele>873.0</ele><time>2026-05-02T11:00:57.326Z</time></trkpt><trkpt lat="42.1915868" lon="13.767769"><ele>873.0</ele><time>2026-05-02T11:00:58.329Z</time></trkpt><trkpt lat="42.1916443" lon="13.7677008"><ele>873.0</ele><time>2026-05-02T11:00:59.333Z</time></trkpt><trkpt lat="42.1917031" lon="13.7676427"><ele>875.5</ele><time>2026-05-02T11:01:00.33Z</time></trkpt><trkpt lat="42.1917688" lon="13.7675789"><ele>878.0</ele><time>2026-05-02T11:01:01.318Z</time></trkpt><trkpt lat="42.1918271" lon="13.7675004"><ele>880.5</ele><time>2026-05-02T11:01:02.324Z</time></trkpt><trkpt lat="42.1918731" lon="13.7674095"><ele>883.0</ele><time>2026-05-02T11:01:03.32Z</time></trkpt><trkpt lat="42.1919055" lon="13.7673162"><ele>885.5</ele><time>2026-05-02T11:01:04.329Z</time></trkpt><trkpt lat="42.1919398" lon="13.7672197"><ele>888.0</ele><time>2026-05-02T11:01:05.326Z</time></trkpt><trkpt lat="42.1919762" lon="13.7671256"><ele>888.0</ele><time>2026-05-02T11:01:06.329Z</time></trkpt><trkpt lat="42.1920121" lon="13.7670183"><ele>888.0</ele><time>2026-05-02T11:01:07.33Z</time></trkpt><trkpt lat="42.1920336" lon="13.7668989"><ele>888.0</ele><time>2026-05-02T11:01:08.344Z</time></trkpt><trkpt lat="42.1920525" lon="13.7667974"><ele>888.0</ele><time>2026-05-02T11:01:09.321Z</time></trkpt><trkpt lat="42.192081" lon="13.7667196"><ele>888.0</ele><time>2026-05-02T11:01:10.326Z</time></trkpt><trkpt lat="42.1921255" lon="13.7666382"><ele>888.0</ele><time>2026-05-02T11:01:11.323Z</time></trkpt><trkpt lat="42.1921756" lon="13.7665434"><ele>889.2</ele><time>2026-05-02T11:01:12.323Z</time></trkpt><trkpt lat="42.1922315" lon="13.7664557"><ele>890.4</ele><time>2026-05-02T11:01:13.328Z</time></trkpt><trkpt lat="42.1922886" lon="13.7663707"><ele>891.6000000000001</ele><time>2026-05-02T11:01:14.335Z</time></trkpt><trkpt lat="42.1923438" lon="13.7662735"><ele>892.8000000000001</ele><time>2026-05-02T11:01:15.33Z</time></trkpt><trkpt lat="42.1924092" lon="13.766171"><ele>894.0</ele><time>2026-05-02T11:01:16.33Z</time></trkpt><trkpt lat="42.1924658" lon="13.7660635"><ele>896.4000000000001</ele><time>2026-05-02T11:01:17.326Z</time></trkpt><trkpt lat="42.192524" lon="13.7659638"><ele>898.8000000000001</ele><time>2026-05-02T11:01:18.327Z</time></trkpt><trkpt lat="42.1925815" lon="13.7658662"><ele>901.1999999999999</ele><time>2026-05-02T11:01:19.319Z</time></trkpt><trkpt lat="42.1926453" lon="13.7657617"><ele>903.5999999999999</ele><time>2026-05-02T11:01:20.312Z</time></trkpt><trkpt lat="42.1927199" lon="13.7656586"><ele>906.0</ele><time>2026-05-02T11:01:21.318Z</time></trkpt><trkpt lat="42.1928022" lon="13.7655557"><ele>906.0</ele><time>2026-05-02T11:01:22.317Z</time></trkpt><trkpt lat="42.1928864" lon="13.7654467"><ele>905.9999999999999</ele><time>2026-05-02T11:01:23.32Z</time></trkpt><trkpt lat="42.1929668" lon="13.7653305"><ele>905.9999999999999</ele><time>2026-05-02T11:01:24.315Z</time></trkpt><trkpt lat="42.193045" lon="13.7652332"><ele>906.0</ele><time>2026-05-02T11:01:25.325Z</time></trkpt><trkpt lat="42.1931112" lon="13.7651463"><ele>906.0</ele><time>2026-05-02T11:01:26.328Z</time></trkpt><trkpt lat="42.1931783" lon="13.765059"><ele>906.5999999999999</ele><time>2026-05-02T11:01:27.327Z</time></trkpt><trkpt lat="42.1932435" lon="13.7649537"><ele>907.1999999999999</ele><time>2026-05-02T11:01:28.324Z</time></trkpt><trkpt lat="42.1933029" lon="13.7648364"><ele>907.8000000000001</ele><time>2026-05-02T11:01:29.323Z</time></trkpt><trkpt lat="42.1933624" lon="13.7647358"><ele>908.4000000000001</ele><time>2026-05-02T11:01:30.328Z</time></trkpt><trkpt lat="42.1934264" lon="13.7646439"><ele>909.0</ele><time>2026-05-02T11:01:31.317Z</time></trkpt><trkpt lat="42.1934965" lon="13.7645659"><ele>909.0</ele><time>2026-05-02T11:01:32.321Z</time></trkpt><trkpt lat="42.1935661" lon="13.764501"><ele>909.0</ele><time>2026-05-02T11:01:33.323Z</time></trkpt><trkpt lat="42.1936413" lon="13.7644402"><ele>909.0</ele><time>2026-05-02T11:01:34.318Z</time></trkpt><trkpt lat="42.1937311" lon="13.7643958"><ele>909.0</ele><time>2026-05-02T11:01:35.321Z</time></trkpt><trkpt lat="42.1938253" lon="13.7643687"><ele>909.0</ele><time>2026-05-02T11:01:36.314Z</time></trkpt><trkpt lat="42.1939087" lon="13.7643481"><ele>909.0</ele><time>2026-05-02T11:01:37.319Z</time></trkpt><trkpt lat="42.1939974" lon="13.7642818"><ele>909.8000000000001</ele><time>2026-05-02T11:01:38.315Z</time></trkpt><trkpt lat="42.1940634" lon="13.7641877"><ele>910.6000000000001</ele><time>2026-05-02T11:01:39.327Z</time></trkpt><trkpt lat="42.1941196" lon="13.7640607"><ele>911.4</ele><time>2026-05-02T11:01:40.311Z</time></trkpt><trkpt lat="42.1941727" lon="13.7639156"><ele>912.2</ele><time>2026-05-02T11:01:41.32Z</time></trkpt><trkpt lat="42.1942203" lon="13.7637702"><ele>913.0</ele><time>2026-05-02T11:01:42.329Z</time></trkpt><trkpt lat="42.1942673" lon="13.7636329"><ele>915.4</ele><time>2026-05-02T11:01:43.328Z</time></trkpt><trkpt lat="42.1943129" lon="13.7635165"><ele>917.8</ele><time>2026-05-02T11:01:44.322Z</time></trkpt><trkpt lat="42.1943583" lon="13.7634295"><ele>920.2</ele><time>2026-05-02T11:01:45.342Z</time></trkpt><trkpt lat="42.1944146" lon="13.7633473"><ele>922.6</ele><time>2026-05-02T11:01:46.336Z</time></trkpt><trkpt lat="42.1944824" lon="13.7632693"><ele>925.0</ele><time>2026-05-02T11:01:47.32Z</time></trkpt><trkpt lat="42.1945584" lon="13.7631753"><ele>925.0</ele><time>2026-05-02T11:01:48.327Z</time></trkpt><trkpt lat="42.1946391" lon="13.763066"><ele>925.0</ele><time>2026-05-02T11:01:49.324Z</time></trkpt><trkpt lat="42.1947183" lon="13.7629618"><ele>925.0</ele><time>2026-05-02T11:01:50.323Z</time></trkpt><trkpt lat="42.1947925" lon="13.762881"><ele>925.0</ele><time>2026-05-02T11:01:51.311Z</time></trkpt><trkpt lat="42.1948627" lon="13.7628114"><ele>925.0</ele><time>2026-05-02T11:01:52.329Z</time></trkpt><trkpt lat="42.1949458" lon="13.7627637"><ele>924.4</ele><time>2026-05-02T11:01:53.317Z</time></trkpt><trkpt lat="42.1950413" lon="13.7627125"><ele>923.8</ele><time>2026-05-02T11:01:54.313Z</time></trkpt><trkpt lat="42.1951312" lon="13.7626756"><ele>923.2</ele><time>2026-05-02T11:01:55.312Z</time></trkpt><trkpt lat="42.1952324" lon="13.762638"><ele>922.6</ele><time>2026-05-02T11:01:56.331Z</time></trkpt><trkpt lat="42.1953392" lon="13.7625894"><ele>922.0</ele><time>2026-05-02T11:01:57.322Z</time></trkpt><trkpt lat="42.1954272" lon="13.7625239"><ele>922.0</ele><time>2026-05-02T11:01:58.299Z</time></trkpt><trkpt lat="42.1955078" lon="13.7624284"><ele>922.0</ele><time>2026-05-02T11:01:59.319Z</time></trkpt><trkpt lat="42.1955911" lon="13.7623138"><ele>922.0</ele><time>2026-05-02T11:02:00.318Z</time></trkpt><trkpt lat="42.195659" lon="13.7621911"><ele>922.0</ele><time>2026-05-02T11:02:01.319Z</time></trkpt><trkpt lat="42.1957197" lon="13.7620689"><ele>922.0</ele><time>2026-05-02T11:02:02.328Z</time></trkpt><trkpt lat="42.1957702" lon="13.7619666"><ele>921.9999999999999</ele><time>2026-05-02T11:02:03.323Z</time></trkpt><trkpt lat="42.1958079" lon="13.7618848"><ele>922.0</ele><time>2026-05-02T11:02:04.33Z</time></trkpt><trkpt lat="42.1958537" lon="13.7617936"><ele>922.0</ele><time>2026-05-02T11:02:05.319Z</time></trkpt><trkpt lat="42.1959085" lon="13.7616863"><ele>922.0</ele><time>2026-05-02T11:02:06.327Z</time></trkpt><trkpt lat="42.1959516" lon="13.7615765"><ele>921.9999999999999</ele><time>2026-05-02T11:02:07.33Z</time></trkpt><trkpt lat="42.1960037" lon="13.7614714"><ele>922.0</ele><time>2026-05-02T11:02:08.322Z</time></trkpt><trkpt lat="42.1960577" lon="13.761388"><ele>922.0</ele><time>2026-05-02T11:02:09.327Z</time></trkpt><trkpt lat="42.1961105" lon="13.7613118"><ele>922.0</ele><time>2026-05-02T11:02:10.316Z</time></trkpt><trkpt lat="42.1961698" lon="13.761224"><ele>922.0</ele><time>2026-05-02T11:02:11.314Z</time></trkpt><trkpt lat="42.1962333" lon="13.7611359"><ele>922.0</ele><time>2026-05-02T11:02:12.323Z</time></trkpt><trkpt lat="42.1962913" lon="13.7610339"><ele>922.0</ele><time>2026-05-02T11:02:13.321Z</time></trkpt><trkpt lat="42.1963543" lon="13.7609293"><ele>922.0</ele><time>2026-05-02T11:02:14.32Z</time></trkpt><trkpt lat="42.1964116" lon="13.7608212"><ele>922.0</ele><time>2026-05-02T11:02:15.32Z</time></trkpt><trkpt lat="42.1964636" lon="13.760703"><ele>922.0</ele><time>2026-05-02T11:02:16.332Z</time></trkpt><trkpt lat="42.1965132" lon="13.7605841"><ele>922.0</ele><time>2026-05-02T11:02:17.311Z</time></trkpt><trkpt lat="42.1965583" lon="13.760481"><ele>922.0</ele><time>2026-05-02T11:02:18.321Z</time></trkpt><trkpt lat="42.196607" lon="13.7603908"><ele>922.0</ele><time>2026-05-02T11:02:19.315Z</time></trkpt><trkpt lat="42.1966681" lon="13.7602883"><ele>922.0</ele><time>2026-05-02T11:02:20.326Z</time></trkpt><trkpt lat="42.1967314" lon="13.7601723"><ele>922.0</ele><time>2026-05-02T11:02:21.314Z</time></trkpt><trkpt lat="42.1967863" lon="13.760054"><ele>922.0</ele><time>2026-05-02T11:02:22.32Z</time></trkpt><trkpt lat="42.1968287" lon="13.7599392"><ele>922.0</ele><time>2026-05-02T11:02:23.332Z</time></trkpt><trkpt lat="42.1968627" lon="13.759841"><ele>923.4999999999999</ele><time>2026-05-02T11:02:24.327Z</time></trkpt><trkpt lat="42.1969044" lon="13.7597469"><ele>925.0</ele><time>2026-05-02T11:02:25.324Z</time></trkpt><trkpt lat="42.1969426" lon="13.7596631"><ele>926.5</ele><time>2026-05-02T11:02:26.32Z</time></trkpt><trkpt lat="42.196972" lon="13.7595482"><ele>928.0</ele><time>2026-05-02T11:02:27.326Z</time></trkpt><trkpt lat="42.1969803" lon="13.7594154"><ele>929.4999999999999</ele><time>2026-05-02T11:02:28.321Z</time></trkpt><trkpt lat="42.1969764" lon="13.7592852"><ele>931.0</ele><time>2026-05-02T11:02:29.33Z</time></trkpt><trkpt lat="42.1969601" lon="13.7591455"><ele>932.0</ele><time>2026-05-02T11:02:30.321Z</time></trkpt><trkpt lat="42.1969479" lon="13.7590104"><ele>932.9999999999999</ele><time>2026-05-02T11:02:31.315Z</time></trkpt><trkpt lat="42.19692" lon="13.7588691"><ele>933.9999999999999</ele><time>2026-05-02T11:02:32.318Z</time></trkpt><trkpt lat="42.1968936" lon="13.7587365"><ele>935.0</ele><time>2026-05-02T11:02:33.311Z</time></trkpt><trkpt lat="42.1968706" lon="13.7586094"><ele>936.0</ele><time>2026-05-02T11:02:34.321Z</time></trkpt><trkpt lat="42.196854" lon="13.7585082"><ele>936.3333333333334</ele><time>2026-05-02T11:02:35.312Z</time></trkpt><trkpt lat="42.1968571" lon="13.7584117"><ele>936.6666666666667</ele><time>2026-05-02T11:02:36.315Z</time></trkpt><trkpt lat="42.1968788" lon="13.7583114"><ele>937.0</ele><time>2026-05-02T11:02:37.313Z</time></trkpt><trkpt lat="42.1969129" lon="13.7582075"><ele>937.3333333333334</ele><time>2026-05-02T11:02:38.316Z</time></trkpt><trkpt lat="42.1969602" lon="13.758106"><ele>937.6666666666667</ele><time>2026-05-02T11:02:39.313Z</time></trkpt><trkpt lat="42.1970018" lon="13.7579999"><ele>938.0</ele><time>2026-05-02T11:02:40.313Z</time></trkpt><trkpt lat="42.197046" lon="13.757897"><ele>938.0</ele><time>2026-05-02T11:02:41.313Z</time></trkpt><trkpt lat="42.1971013" lon="13.7577922"><ele>938.0</ele><time>2026-05-02T11:02:42.316Z</time></trkpt><trkpt lat="42.1971611" lon="13.7576933"><ele>938.0</ele><time>2026-05-02T11:02:43.317Z</time></trkpt><trkpt lat="42.1972115" lon="13.7575862"><ele>938.0</ele><time>2026-05-02T11:02:44.313Z</time></trkpt><trkpt lat="42.1972498" lon="13.7574718"><ele>938.0</ele><time>2026-05-02T11:02:45.317Z</time></trkpt><trkpt lat="42.1972833" lon="13.7573609"><ele>939.5999999999999</ele><time>2026-05-02T11:02:46.319Z</time></trkpt><trkpt lat="42.1972891" lon="13.7572334"><ele>941.1999999999999</ele><time>2026-05-02T11:02:47.319Z</time></trkpt><trkpt lat="42.1972784" lon="13.7571012"><ele>942.8</ele><time>2026-05-02T11:02:48.317Z</time></trkpt><trkpt lat="42.1972527" lon="13.7569703"><ele>944.4</ele><time>2026-05-02T11:02:49.321Z</time></trkpt><trkpt lat="42.1972031" lon="13.7568489"><ele>946.0</ele><time>2026-05-02T11:02:50.313Z</time></trkpt><trkpt lat="42.1971649" lon="13.7567298"><ele>947.1999999999999</ele><time>2026-05-02T11:02:51.321Z</time></trkpt><trkpt lat="42.1971479" lon="13.7566114"><ele>948.3999999999999</ele><time>2026-05-02T11:02:52.319Z</time></trkpt><trkpt lat="42.1971476" lon="13.7564886"><ele>949.6</ele><time>2026-05-02T11:02:53.317Z</time></trkpt><trkpt lat="42.1971542" lon="13.7563602"><ele>950.8</ele><time>2026-05-02T11:02:54.32Z</time></trkpt><trkpt lat="42.1971622" lon="13.7562399"><ele>952.0</ele><time>2026-05-02T11:02:55.321Z</time></trkpt><trkpt lat="42.1971667" lon="13.7561246"><ele>953.4999999999999</ele><time>2026-05-02T11:02:56.32Z</time></trkpt><trkpt lat="42.1971667" lon="13.7560299"><ele>955.0</ele><time>2026-05-02T11:02:57.322Z</time></trkpt><trkpt lat="42.1971669" lon="13.7559416"><ele>956.5</ele><time>2026-05-02T11:02:58.322Z</time></trkpt><trkpt lat="42.1971687" lon="13.7558461"><ele>958.0</ele><time>2026-05-02T11:02:59.321Z</time></trkpt><trkpt lat="42.1971604" lon="13.7557459"><ele>959.4999999999999</ele><time>2026-05-02T11:03:00.32Z</time></trkpt><trkpt lat="42.1971392" lon="13.7556561"><ele>961.0</ele><time>2026-05-02T11:03:01.315Z</time></trkpt><trkpt lat="42.1971146" lon="13.7555101"><ele>960.9999999999999</ele><time>2026-05-02T11:03:03.321Z</time></trkpt><trkpt lat="42.1971081" lon="13.7553761"><ele>961.0</ele><time>2026-05-02T11:03:05.322Z</time></trkpt><trkpt lat="42.1970805" lon="13.7552855"><ele>961.0</ele><time>2026-05-02T11:03:07.329Z</time></trkpt><trkpt lat="42.197069" lon="13.7551859"><ele>961.0</ele><time>2026-05-02T11:03:09.328Z</time></trkpt><trkpt lat="42.1970535" lon="13.7550929"><ele>960.9999999999999</ele><time>2026-05-02T11:03:11.329Z</time></trkpt><trkpt lat="42.1970135" lon="13.7549766"><ele>961.0</ele><time>2026-05-02T11:03:14.329Z</time></trkpt><trkpt lat="42.1969843" lon="13.7548971"><ele>962.6666666666666</ele><time>2026-05-02T11:03:16.314Z</time></trkpt><trkpt lat="42.1969403" lon="13.754758"><ele>964.3333333333333</ele><time>2026-05-02T11:03:18.333Z</time></trkpt><trkpt lat="42.1969228" lon="13.754661"><ele>966.0</ele><time>2026-05-02T11:03:19.317Z</time></trkpt><trkpt lat="42.1969126" lon="13.7545642"><ele>967.6666666666667</ele><time>2026-05-02T11:03:20.322Z</time></trkpt><trkpt lat="42.196903" lon="13.7544686"><ele>969.3333333333334</ele><time>2026-05-02T11:03:21.323Z</time></trkpt><trkpt lat="42.1969021" lon="13.7543736"><ele>971.0</ele><time>2026-05-02T11:03:22.32Z</time></trkpt><trkpt lat="42.1968687" lon="13.7542315"><ele>973.1999999999999</ele><time>2026-05-02T11:03:24.319Z</time></trkpt><trkpt lat="42.1968263" lon="13.7541009"><ele>975.3999999999999</ele><time>2026-05-02T11:03:26.326Z</time></trkpt><trkpt lat="42.1967534" lon="13.7539666"><ele>977.6</ele><time>2026-05-02T11:03:28.322Z</time></trkpt><trkpt lat="42.1966788" lon="13.7538988"><ele>979.8</ele><time>2026-05-02T11:03:30.317Z</time></trkpt><trkpt lat="42.1966022" lon="13.7538311"><ele>982.0</ele><time>2026-05-02T11:03:32.32Z</time></trkpt><trkpt lat="42.1965376" lon="13.7536956"><ele>981.9999999999999</ele><time>2026-05-02T11:03:34.309Z</time></trkpt><trkpt lat="42.1965126" lon="13.7535842"><ele>982.0</ele><time>2026-05-02T11:03:36.308Z</time></trkpt><trkpt lat="42.1965453" lon="13.7534284"><ele>982.0</ele><time>2026-05-02T11:03:38.307Z</time></trkpt><trkpt lat="42.1965793" lon="13.753327"><ele>982.0</ele><time>2026-05-02T11:03:39.318Z</time></trkpt><trkpt lat="42.19661" lon="13.7532269"><ele>981.9999999999999</ele><time>2026-05-02T11:03:40.317Z</time></trkpt><trkpt lat="42.1966531" lon="13.7531539"><ele>982.0</ele><time>2026-05-02T11:03:41.294Z</time></trkpt><trkpt lat="42.1967096" lon="13.7530885"><ele>983.8333333333333</ele><time>2026-05-02T11:03:42.313Z</time></trkpt><trkpt lat="42.196789" lon="13.7530503"><ele>985.6666666666666</ele><time>2026-05-02T11:03:43.306Z</time></trkpt><trkpt lat="42.1968716" lon="13.753034"><ele>987.5</ele><time>2026-05-02T11:03:44.313Z</time></trkpt><trkpt lat="42.1969544" lon="13.7530068"><ele>989.3333333333333</ele><time>2026-05-02T11:03:45.317Z</time></trkpt><trkpt lat="42.1970309" lon="13.7529599"><ele>991.1666666666666</ele><time>2026-05-02T11:03:46.313Z</time></trkpt><trkpt lat="42.197092" lon="13.7528952"><ele>993.0</ele><time>2026-05-02T11:03:47.316Z</time></trkpt><trkpt lat="42.1971601" lon="13.7528027"><ele>993.0</ele><time>2026-05-02T11:03:48.329Z</time></trkpt><trkpt lat="42.1972226" lon="13.7527082"><ele>993.0</ele><time>2026-05-02T11:03:49.313Z</time></trkpt><trkpt lat="42.1972771" lon="13.7525851"><ele>993.0</ele><time>2026-05-02T11:03:50.314Z</time></trkpt><trkpt lat="42.1973235" lon="13.7524547"><ele>993.0</ele><time>2026-05-02T11:03:51.314Z</time></trkpt><trkpt lat="42.1973775" lon="13.7523301"><ele>993.0</ele><time>2026-05-02T11:03:52.309Z</time></trkpt><trkpt lat="42.1974353" lon="13.7521957"><ele>994.2</ele><time>2026-05-02T11:03:53.314Z</time></trkpt><trkpt lat="42.1974709" lon="13.7520628"><ele>995.4</ele><time>2026-05-02T11:03:54.305Z</time></trkpt><trkpt lat="42.197503" lon="13.7519482"><ele>996.6000000000001</ele><time>2026-05-02T11:03:55.301Z</time></trkpt><trkpt lat="42.1975477" lon="13.7518526"><ele>997.8000000000001</ele><time>2026-05-02T11:03:56.305Z</time></trkpt><trkpt lat="42.1976104" lon="13.7517861"><ele>999.0</ele><time>2026-05-02T11:03:57.307Z</time></trkpt><trkpt lat="42.1976855" lon="13.7517029"><ele>1001.4000000000001</ele><time>2026-05-02T11:03:58.307Z</time></trkpt><trkpt lat="42.1977552" lon="13.7516088"><ele>1003.8000000000001</ele><time>2026-05-02T11:03:59.311Z</time></trkpt><trkpt lat="42.1978339" lon="13.7515096"><ele>1006.1999999999999</ele><time>2026-05-02T11:04:00.314Z</time></trkpt><trkpt lat="42.1979244" lon="13.7514106"><ele>1008.5999999999999</ele><time>2026-05-02T11:04:01.31Z</time></trkpt><trkpt lat="42.19802" lon="13.7513117"><ele>1011.0</ele><time>2026-05-02T11:04:02.303Z</time></trkpt><trkpt lat="42.1980973" lon="13.7512072"><ele>1011.0</ele><time>2026-05-02T11:04:03.309Z</time></trkpt><trkpt lat="42.1981536" lon="13.7511023"><ele>1010.9999999999999</ele><time>2026-05-02T11:04:04.315Z</time></trkpt><trkpt lat="42.1982053" lon="13.7510044"><ele>1010.9999999999999</ele><time>2026-05-02T11:04:05.309Z</time></trkpt><trkpt lat="42.1982727" lon="13.7509118"><ele>1011.0</ele><time>2026-05-02T11:04:06.301Z</time></trkpt><trkpt lat="42.1983475" lon="13.7508141"><ele>1011.0</ele><time>2026-05-02T11:04:07.304Z</time></trkpt><trkpt lat="42.1984091" lon="13.7507122"><ele>1013.0</ele><time>2026-05-02T11:04:08.301Z</time></trkpt><trkpt lat="42.198474" lon="13.7506152"><ele>1014.9999999999999</ele><time>2026-05-02T11:04:09.306Z</time></trkpt><trkpt lat="42.1985488" lon="13.7505195"><ele>1016.9999999999999</ele><time>2026-05-02T11:04:10.291Z</time></trkpt><trkpt lat="42.1986179" lon="13.7504269"><ele>1019.0</ele><time>2026-05-02T11:04:11.302Z</time></trkpt><trkpt lat="42.1986755" lon="13.7503296"><ele>1021.0</ele><time>2026-05-02T11:04:12.305Z</time></trkpt><trkpt lat="42.1987306" lon="13.7502423"><ele>1022.8333333333333</ele><time>2026-05-02T11:04:13.306Z</time></trkpt><trkpt lat="42.1987647" lon="13.7501584"><ele>1024.6666666666665</ele><time>2026-05-02T11:04:14.297Z</time></trkpt><trkpt lat="42.1987819" lon="13.7500652"><ele>1026.5</ele><time>2026-05-02T11:04:15.309Z</time></trkpt><trkpt lat="42.1987808" lon="13.7499662"><ele>1028.3333333333333</ele><time>2026-05-02T11:04:16.305Z</time></trkpt><trkpt lat="42.1987819" lon="13.7498681"><ele>1030.1666666666667</ele><time>2026-05-02T11:04:17.308Z</time></trkpt><trkpt lat="42.1987839" lon="13.7497574"><ele>1032.0</ele><time>2026-05-02T11:04:18.302Z</time></trkpt><trkpt lat="42.1987802" lon="13.7496421"><ele>1032.0</ele><time>2026-05-02T11:04:19.315Z</time></trkpt><trkpt lat="42.198778" lon="13.7495335"><ele>1032.0</ele><time>2026-05-02T11:04:20.301Z</time></trkpt><trkpt lat="42.1987627" lon="13.7494265"><ele>1032.0</ele><time>2026-05-02T11:04:21.301Z</time></trkpt><trkpt lat="42.1987286" lon="13.749314"><ele>1032.0</ele><time>2026-05-02T11:04:22.296Z</time></trkpt><trkpt lat="42.1987007" lon="13.7491899"><ele>1032.0</ele><time>2026-05-02T11:04:23.304Z</time></trkpt><trkpt lat="42.1986918" lon="13.7490591"><ele>1032.0</ele><time>2026-05-02T11:04:24.299Z</time></trkpt><trkpt lat="42.1986928" lon="13.7489583"><ele>1032.8333333333333</ele><time>2026-05-02T11:04:25.305Z</time></trkpt><trkpt lat="42.1986842" lon="13.7488589"><ele>1033.6666666666667</ele><time>2026-05-02T11:04:26.297Z</time></trkpt><trkpt lat="42.1986734" lon="13.7487521"><ele>1034.5</ele><time>2026-05-02T11:04:27.302Z</time></trkpt><trkpt lat="42.1986521" lon="13.7486472"><ele>1035.3333333333335</ele><time>2026-05-02T11:04:28.302Z</time></trkpt><trkpt lat="42.1986347" lon="13.7485503"><ele>1036.1666666666667</ele><time>2026-05-02T11:04:29.304Z</time></trkpt><trkpt lat="42.1986372" lon="13.7484421"><ele>1037.0</ele><time>2026-05-02T11:04:30.307Z</time></trkpt><trkpt lat="42.1986512" lon="13.7483214"><ele>1037.5</ele><time>2026-05-02T11:04:31.303Z</time></trkpt><trkpt lat="42.1986687" lon="13.7481789"><ele>1038.0</ele><time>2026-05-02T11:04:32.299Z</time></trkpt><trkpt lat="42.1986782" lon="13.7480235"><ele>1038.5</ele><time>2026-05-02T11:04:33.301Z</time></trkpt><trkpt lat="42.1986863" lon="13.7478594"><ele>1039.0</ele><time>2026-05-02T11:04:34.308Z</time></trkpt><trkpt lat="42.1986865" lon="13.7477066"><ele>1040.4</ele><time>2026-05-02T11:04:35.3Z</time></trkpt><trkpt lat="42.1986793" lon="13.7475598"><ele>1041.8000000000002</ele><time>2026-05-02T11:04:36.304Z</time></trkpt><trkpt lat="42.1986804" lon="13.7474147"><ele>1043.1999999999998</ele><time>2026-05-02T11:04:37.304Z</time></trkpt><trkpt lat="42.1986886" lon="13.7472697"><ele>1044.6</ele><time>2026-05-02T11:04:38.304Z</time></trkpt><trkpt lat="42.1987045" lon="13.747136"><ele>1046.0</ele><time>2026-05-02T11:04:39.304Z</time></trkpt><trkpt lat="42.198731" lon="13.7470157"><ele>1046.0</ele><time>2026-05-02T11:04:40.304Z</time></trkpt><trkpt lat="42.1987656" lon="13.7469111"><ele>1046.0</ele><time>2026-05-02T11:04:41.307Z</time></trkpt><trkpt lat="42.1988074" lon="13.7468163"><ele>1046.0</ele><time>2026-05-02T11:04:42.286Z</time></trkpt><trkpt lat="42.1988385" lon="13.746706"><ele>1046.0</ele><time>2026-05-02T11:04:43.285Z</time></trkpt><trkpt lat="42.1988567" lon="13.7465808"><ele>1046.0</ele><time>2026-05-02T11:04:44.283Z</time></trkpt><trkpt lat="42.1988548" lon="13.7464377"><ele>1047.3999999999999</ele><time>2026-05-02T11:04:45.295Z</time></trkpt><trkpt lat="42.1988526" lon="13.7462924"><ele>1048.8</ele><time>2026-05-02T11:04:46.293Z</time></trkpt><trkpt lat="42.198847" lon="13.7461545"><ele>1050.1999999999998</ele><time>2026-05-02T11:04:47.295Z</time></trkpt><trkpt lat="42.1988638" lon="13.7460221"><ele>1051.6</ele><time>2026-05-02T11:04:48.293Z</time></trkpt><trkpt lat="42.1989082" lon="13.7459008"><ele>1053.0</ele><time>2026-05-02T11:04:49.293Z</time></trkpt><trkpt lat="42.1989608" lon="13.7457731"><ele>1053.8</ele><time>2026-05-02T11:04:50.304Z</time></trkpt><trkpt lat="42.1989983" lon="13.7456503"><ele>1054.6</ele><time>2026-05-02T11:04:51.296Z</time></trkpt><trkpt lat="42.1990291" lon="13.7455212"><ele>1055.4</ele><time>2026-05-02T11:04:52.293Z</time></trkpt><trkpt lat="42.199058" lon="13.7453842"><ele>1056.2</ele><time>2026-05-02T11:04:53.29Z</time></trkpt><trkpt lat="42.1991078" lon="13.7452594"><ele>1057.0</ele><time>2026-05-02T11:04:54.284Z</time></trkpt><trkpt lat="42.1991771" lon="13.745158"><ele>1057.3333333333333</ele><time>2026-05-02T11:04:55.292Z</time></trkpt><trkpt lat="42.1992608" lon="13.7450751"><ele>1057.6666666666665</ele><time>2026-05-02T11:04:56.31Z</time></trkpt><trkpt lat="42.1993186" lon="13.7449794"><ele>1058.0</ele><time>2026-05-02T11:04:57.305Z</time></trkpt><trkpt lat="42.199363" lon="13.7448757"><ele>1058.3333333333333</ele><time>2026-05-02T11:04:58.307Z</time></trkpt><trkpt lat="42.1993997" lon="13.7447777"><ele>1058.6666666666667</ele><time>2026-05-02T11:04:59.304Z</time></trkpt><trkpt lat="42.1994279" lon="13.7446846"><ele>1059.0</ele><time>2026-05-02T11:05:00.307Z</time></trkpt><trkpt lat="42.1994559" lon="13.7445843"><ele>1059.0</ele><time>2026-05-02T11:05:01.303Z</time></trkpt><trkpt lat="42.1995138" lon="13.7444468"><ele>1059.0</ele><time>2026-05-02T11:05:03.298Z</time></trkpt><trkpt lat="42.1995831" lon="13.7443526"><ele>1059.0</ele><time>2026-05-02T11:05:05.292Z</time></trkpt><trkpt lat="42.199683" lon="13.7442637"><ele>1059.0</ele><time>2026-05-02T11:05:07.294Z</time></trkpt><trkpt lat="42.1997571" lon="13.7442358"><ele>1059.0</ele><time>2026-05-02T11:05:08.295Z</time></trkpt><trkpt lat="42.1998189" lon="13.7442059"><ele>1057.857142857143</ele><time>2026-05-02T11:05:09.299Z</time></trkpt><trkpt lat="42.1998812" lon="13.7441876"><ele>1056.7142857142856</ele><time>2026-05-02T11:05:10.301Z</time></trkpt><trkpt lat="42.1999498" lon="13.7441511"><ele>1055.5714285714284</ele><time>2026-05-02T11:05:11.301Z</time></trkpt><trkpt lat="42.2000212" lon="13.7441103"><ele>1054.4285714285713</ele><time>2026-05-02T11:05:12.303Z</time></trkpt><trkpt lat="42.2000897" lon="13.7440818"><ele>1053.2857142857142</ele><time>2026-05-02T11:05:13.302Z</time></trkpt><trkpt lat="42.2001575" lon="13.7440388"><ele>1052.142857142857</ele><time>2026-05-02T11:05:14.297Z</time></trkpt><trkpt lat="42.2002115" lon="13.7439904"><ele>1051.0</ele><time>2026-05-02T11:05:15.305Z</time></trkpt><trkpt lat="42.2002686" lon="13.7439492"><ele>1051.0</ele><time>2026-05-02T11:05:16.307Z</time></trkpt><trkpt lat="42.2003242" lon="13.7438945"><ele>1051.0</ele><time>2026-05-02T11:05:17.299Z</time></trkpt><trkpt lat="42.2003757" lon="13.7438166"><ele>1051.0</ele><time>2026-05-02T11:05:18.307Z</time></trkpt><trkpt lat="42.2004242" lon="13.7437329"><ele>1051.0</ele><time>2026-05-02T11:05:19.299Z</time></trkpt><trkpt lat="42.2004623" lon="13.7436458"><ele>1051.0</ele><time>2026-05-02T11:05:20.299Z</time></trkpt><trkpt lat="42.2005072" lon="13.7435581"><ele>1051.0</ele><time>2026-05-02T11:05:21.301Z</time></trkpt><trkpt lat="42.2005539" lon="13.7434781"><ele>1051.8333333333333</ele><time>2026-05-02T11:05:22.299Z</time></trkpt><trkpt lat="42.2005918" lon="13.7434007"><ele>1052.6666666666665</ele><time>2026-05-02T11:05:23.296Z</time></trkpt><trkpt lat="42.2006243" lon="13.7433153"><ele>1053.5</ele><time>2026-05-02T11:05:24.295Z</time></trkpt><trkpt lat="42.200658" lon="13.7432173"><ele>1054.3333333333333</ele><time>2026-05-02T11:05:25.292Z</time></trkpt><trkpt lat="42.2006918" lon="13.7431187"><ele>1055.1666666666667</ele><time>2026-05-02T11:05:26.307Z</time></trkpt><trkpt lat="42.2007166" lon="13.7430078"><ele>1056.0</ele><time>2026-05-02T11:05:27.296Z</time></trkpt><trkpt lat="42.2007464" lon="13.7429061"><ele>1053.0</ele><time>2026-05-02T11:05:28.291Z</time></trkpt><trkpt lat="42.200788" lon="13.7428227"><ele>1050.0</ele><time>2026-05-02T11:05:29.309Z</time></trkpt><trkpt lat="42.2008298" lon="13.742746"><ele>1047.0</ele><time>2026-05-02T11:05:30.297Z</time></trkpt><trkpt lat="42.2008844" lon="13.7426575"><ele>1044.0</ele><time>2026-05-02T11:05:31.292Z</time></trkpt><trkpt lat="42.2009439" lon="13.7425674"><ele>1041.0</ele><time>2026-05-02T11:05:32.292Z</time></trkpt><trkpt lat="42.2009876" lon="13.7424822"><ele>1038.0</ele><time>2026-05-02T11:05:33.285Z</time></trkpt><trkpt lat="42.2010305" lon="13.7424121"><ele>1038.0</ele><time>2026-05-02T11:05:34.285Z</time></trkpt><trkpt lat="42.201078" lon="13.7423241"><ele>1038.0</ele><time>2026-05-02T11:05:35.289Z</time></trkpt><trkpt lat="42.2011564" lon="13.7422366"><ele>1038.0</ele><time>2026-05-02T11:05:36.285Z</time></trkpt><trkpt lat="42.2012509" lon="13.7421464"><ele>1038.0</ele><time>2026-05-02T11:05:37.282Z</time></trkpt><trkpt lat="42.2013275" lon="13.7420693"><ele>1038.0</ele><time>2026-05-02T11:05:38.291Z</time></trkpt><trkpt lat="42.2013886" lon="13.7419835"><ele>1038.0</ele><time>2026-05-02T11:05:39.285Z</time></trkpt><trkpt lat="42.2014597" lon="13.741898"><ele>1038.0</ele><time>2026-05-02T11:05:40.291Z</time></trkpt><trkpt lat="42.2015292" lon="13.7418178"><ele>1038.0</ele><time>2026-05-02T11:05:41.284Z</time></trkpt><trkpt lat="42.2015957" lon="13.7417301"><ele>1038.0</ele><time>2026-05-02T11:05:42.282Z</time></trkpt><trkpt lat="42.2016504" lon="13.7416369"><ele>1038.0</ele><time>2026-05-02T11:05:43.285Z</time></trkpt><trkpt lat="42.2017112" lon="13.7415433"><ele>1035.6666666666667</ele><time>2026-05-02T11:05:44.276Z</time></trkpt><trkpt lat="42.201782" lon="13.7414602"><ele>1033.3333333333333</ele><time>2026-05-02T11:05:45.281Z</time></trkpt><trkpt lat="42.2018573" lon="13.7413877"><ele>1031.0</ele><time>2026-05-02T11:05:46.285Z</time></trkpt><trkpt lat="42.2019268" lon="13.7413227"><ele>1028.6666666666665</ele><time>2026-05-02T11:05:47.286Z</time></trkpt><trkpt lat="42.2020022" lon="13.7412761"><ele>1026.3333333333333</ele><time>2026-05-02T11:05:48.284Z</time></trkpt><trkpt lat="42.2020853" lon="13.7412484"><ele>1024.0</ele><time>2026-05-02T11:05:49.291Z</time></trkpt><trkpt lat="42.202183" lon="13.7412396"><ele>1024.0</ele><time>2026-05-02T11:05:50.287Z</time></trkpt><trkpt lat="42.2022851" lon="13.7412236"><ele>1024.0</ele><time>2026-05-02T11:05:51.285Z</time></trkpt><trkpt lat="42.2024061" lon="13.7412028"><ele>1024.0</ele><time>2026-05-02T11:05:52.288Z</time></trkpt><trkpt lat="42.2025331" lon="13.741182"><ele>1024.0</ele><time>2026-05-02T11:05:53.278Z</time></trkpt><trkpt lat="42.2026645" lon="13.7411604"><ele>1024.2</ele><time>2026-05-02T11:05:54.277Z</time></trkpt><trkpt lat="42.2027946" lon="13.7411348"><ele>1024.4</ele><time>2026-05-02T11:05:55.28Z</time></trkpt><trkpt lat="42.2029031" lon="13.7410921"><ele>1024.6</ele><time>2026-05-02T11:05:56.29Z</time></trkpt><trkpt lat="42.2030023" lon="13.7410518"><ele>1024.8</ele><time>2026-05-02T11:05:57.287Z</time></trkpt><trkpt lat="42.2030965" lon="13.741021"><ele>1025.0</ele><time>2026-05-02T11:05:58.29Z</time></trkpt><trkpt lat="42.2031793" lon="13.7409917"><ele>1021.8333333333334</ele><time>2026-05-02T11:05:59.299Z</time></trkpt><trkpt lat="42.2032604" lon="13.7409708"><ele>1018.6666666666667</ele><time>2026-05-02T11:06:00.297Z</time></trkpt><trkpt lat="42.2033418" lon="13.7409502"><ele>1015.5</ele><time>2026-05-02T11:06:01.294Z</time></trkpt><trkpt lat="42.2034252" lon="13.7409249"><ele>1012.3333333333333</ele><time>2026-05-02T11:06:02.3Z</time></trkpt><trkpt lat="42.203503" lon="13.7408905"><ele>1009.1666666666666</ele><time>2026-05-02T11:06:03.3Z</time></trkpt><trkpt lat="42.2035705" lon="13.7408594"><ele>1006.0</ele><time>2026-05-02T11:06:04.296Z</time></trkpt><trkpt lat="42.2036645" lon="13.7407644"><ele>1005.9999999999999</ele><time>2026-05-02T11:06:06.287Z</time></trkpt><trkpt lat="42.2037125" lon="13.7406859"><ele>1006.0</ele><time>2026-05-02T11:06:07.295Z</time></trkpt><trkpt lat="42.2037639" lon="13.7405904"><ele>1006.0</ele><time>2026-05-02T11:06:08.295Z</time></trkpt><trkpt lat="42.2038171" lon="13.7404939"><ele>1006.0</ele><time>2026-05-02T11:06:09.299Z</time></trkpt><trkpt lat="42.2038691" lon="13.740397"><ele>1005.9999999999999</ele><time>2026-05-02T11:06:10.291Z</time></trkpt><trkpt lat="42.2039221" lon="13.7402979"><ele>1006.0</ele><time>2026-05-02T11:06:11.292Z</time></trkpt><trkpt lat="42.2039642" lon="13.7402025"><ele>1004.9999999999999</ele><time>2026-05-02T11:06:12.287Z</time></trkpt><trkpt lat="42.2040052" lon="13.7401243"><ele>1004.0</ele><time>2026-05-02T11:06:13.287Z</time></trkpt><trkpt lat="42.2040735" lon="13.7400579"><ele>1003.0</ele><time>2026-05-02T11:06:14.288Z</time></trkpt><trkpt lat="42.2041511" lon="13.7399948"><ele>1002.0</ele><time>2026-05-02T11:06:15.297Z</time></trkpt><trkpt lat="42.2042347" lon="13.739934"><ele>1000.9999999999999</ele><time>2026-05-02T11:06:16.277Z</time></trkpt><trkpt lat="42.20432" lon="13.7398647"><ele>1000.0</ele><time>2026-05-02T11:06:17.277Z</time></trkpt><trkpt lat="42.2043935" lon="13.7397947"><ele>1000.0</ele><time>2026-05-02T11:06:18.291Z</time></trkpt><trkpt lat="42.2044573" lon="13.7397311"><ele>1000.0</ele><time>2026-05-02T11:06:19.292Z</time></trkpt><trkpt lat="42.2045305" lon="13.7396758"><ele>1000.0</ele><time>2026-05-02T11:06:20.29Z</time></trkpt><trkpt lat="42.2046085" lon="13.7396282"><ele>1000.0</ele><time>2026-05-02T11:06:21.284Z</time></trkpt><trkpt lat="42.2047008" lon="13.7395851"><ele>1000.0</ele><time>2026-05-02T11:06:22.289Z</time></trkpt><trkpt lat="42.2048116" lon="13.7395406"><ele>997.8</ele><time>2026-05-02T11:06:23.297Z</time></trkpt><trkpt lat="42.2049164" lon="13.7395207"><ele>995.6</ele><time>2026-05-02T11:06:24.289Z</time></trkpt><trkpt lat="42.2050128" lon="13.7395042"><ele>993.4000000000001</ele><time>2026-05-02T11:06:25.291Z</time></trkpt><trkpt lat="42.2050939" lon="13.7394514"><ele>991.2</ele><time>2026-05-02T11:06:26.286Z</time></trkpt><trkpt lat="42.2051524" lon="13.7393752"><ele>989.0</ele><time>2026-05-02T11:06:27.292Z</time></trkpt><trkpt lat="42.205203" lon="13.7392731"><ele>989.0000000000001</ele><time>2026-05-02T11:06:28.282Z</time></trkpt><trkpt lat="42.2052514" lon="13.7391668"><ele>989.0</ele><time>2026-05-02T11:06:29.298Z</time></trkpt><trkpt lat="42.2052899" lon="13.7390688"><ele>989.0</ele><time>2026-05-02T11:06:30.299Z</time></trkpt><trkpt lat="42.2053388" lon="13.7390067"><ele>989.0</ele><time>2026-05-02T11:06:31.284Z</time></trkpt><trkpt lat="42.2053999" lon="13.7389679"><ele>989.0000000000001</ele><time>2026-05-02T11:06:32.294Z</time></trkpt><trkpt lat="42.2054814" lon="13.7389516"><ele>989.0</ele><time>2026-05-02T11:06:33.29Z</time></trkpt><trkpt lat="42.2055691" lon="13.7389355"><ele>987.6</ele><time>2026-05-02T11:06:34.3Z</time></trkpt><trkpt lat="42.20567" lon="13.7389104"><ele>986.2</ele><time>2026-05-02T11:06:35.294Z</time></trkpt><trkpt lat="42.205781" lon="13.7389073"><ele>984.8000000000001</ele><time>2026-05-02T11:06:36.303Z</time></trkpt><trkpt lat="42.205889" lon="13.7388831"><ele>983.4000000000001</ele><time>2026-05-02T11:06:37.3Z</time></trkpt><trkpt lat="42.2059809" lon="13.7388395"><ele>982.0</ele><time>2026-05-02T11:06:38.304Z</time></trkpt><trkpt lat="42.206061" lon="13.73879"><ele>981.9999999999999</ele><time>2026-05-02T11:06:39.304Z</time></trkpt><trkpt lat="42.2061434" lon="13.7387295"><ele>982.0</ele><time>2026-05-02T11:06:40.299Z</time></trkpt><trkpt lat="42.2062213" lon="13.7386786"><ele>982.0</ele><time>2026-05-02T11:06:41.298Z</time></trkpt><trkpt lat="42.2062925" lon="13.738667"><ele>982.0</ele><time>2026-05-02T11:06:42.3Z</time></trkpt><trkpt lat="42.2063749" lon="13.738683"><ele>981.9999999999999</ele><time>2026-05-02T11:06:43.296Z</time></trkpt><trkpt lat="42.2064642" lon="13.7387196"><ele>982.0</ele><time>2026-05-02T11:06:44.303Z</time></trkpt><trkpt lat="42.2065659" lon="13.7387714"><ele>982.0</ele><time>2026-05-02T11:06:45.304Z</time></trkpt><trkpt lat="42.2066716" lon="13.7388074"><ele>982.0</ele><time>2026-05-02T11:06:46.301Z</time></trkpt><trkpt lat="42.2067672" lon="13.7388153"><ele>982.0</ele><time>2026-05-02T11:06:47.301Z</time></trkpt><trkpt lat="42.2068577" lon="13.7388127"><ele>982.0</ele><time>2026-05-02T11:06:48.309Z</time></trkpt><trkpt lat="42.2069477" lon="13.7388202"><ele>982.0</ele><time>2026-05-02T11:06:49.305Z</time></trkpt><trkpt lat="42.2070274" lon="13.7388245"><ele>982.0</ele><time>2026-05-02T11:06:50.307Z</time></trkpt><trkpt lat="42.2071084" lon="13.7388102"><ele>982.0</ele><time>2026-05-02T11:06:51.305Z</time></trkpt><trkpt lat="42.2071997" lon="13.7387898"><ele>982.0</ele><time>2026-05-02T11:06:52.305Z</time></trkpt><trkpt lat="42.2072882" lon="13.7387478"><ele>982.0</ele><time>2026-05-02T11:06:53.299Z</time></trkpt><trkpt lat="42.2073796" lon="13.738684"><ele>982.0</ele><time>2026-05-02T11:06:54.311Z</time></trkpt><trkpt lat="42.207466" lon="13.7386031"><ele>983.8333333333333</ele><time>2026-05-02T11:06:55.304Z</time></trkpt><trkpt lat="42.2075377" lon="13.738515"><ele>985.6666666666666</ele><time>2026-05-02T11:06:56.305Z</time></trkpt><trkpt lat="42.2076012" lon="13.738423"><ele>987.5</ele><time>2026-05-02T11:06:57.301Z</time></trkpt><trkpt lat="42.2076606" lon="13.7383282"><ele>989.3333333333333</ele><time>2026-05-02T11:06:58.322Z</time></trkpt><trkpt lat="42.2077187" lon="13.7382464"><ele>991.1666666666666</ele><time>2026-05-02T11:06:59.388Z</time></trkpt><trkpt lat="42.2077715" lon="13.738167"><ele>993.0</ele><time>2026-05-02T11:07:00.389Z</time></trkpt><trkpt lat="42.2078175" lon="13.7381005"><ele>993.0</ele><time>2026-05-02T11:07:01.38Z</time></trkpt><trkpt lat="42.2078784" lon="13.7380315"><ele>993.0</ele><time>2026-05-02T11:07:02.379Z</time></trkpt><trkpt lat="42.2079533" lon="13.7379663"><ele>993.0</ele><time>2026-05-02T11:07:03.379Z</time></trkpt><trkpt lat="42.2080394" lon="13.7378927"><ele>993.0</ele><time>2026-05-02T11:07:04.378Z</time></trkpt><trkpt lat="42.208131" lon="13.7378174"><ele>993.0</ele><time>2026-05-02T11:07:05.368Z</time></trkpt><trkpt lat="42.2082279" lon="13.73775"><ele>993.8</ele><time>2026-05-02T11:07:06.362Z</time></trkpt><trkpt lat="42.2083182" lon="13.7376908"><ele>994.5999999999999</ele><time>2026-05-02T11:07:07.367Z</time></trkpt><trkpt lat="42.2084171" lon="13.7376399"><ele>995.4000000000001</ele><time>2026-05-02T11:07:08.367Z</time></trkpt><trkpt lat="42.2085176" lon="13.7375893"><ele>996.2</ele><time>2026-05-02T11:07:09.387Z</time></trkpt><trkpt lat="42.208645" lon="13.7375338"><ele>997.0</ele><time>2026-05-02T11:07:10.392Z</time></trkpt><trkpt lat="42.2087587" lon="13.7374832"><ele>997.0</ele><time>2026-05-02T11:07:11.388Z</time></trkpt><trkpt lat="42.208855" lon="13.7374377"><ele>997.0</ele><time>2026-05-02T11:07:12.382Z</time></trkpt><trkpt lat="42.2089505" lon="13.737388"><ele>997.0</ele><time>2026-05-02T11:07:13.393Z</time></trkpt><trkpt lat="42.2090459" lon="13.7373386"><ele>997.0</ele><time>2026-05-02T11:07:14.39Z</time></trkpt><trkpt lat="42.2091394" lon="13.7372919"><ele>997.0</ele><time>2026-05-02T11:07:15.382Z</time></trkpt><trkpt lat="42.2092278" lon="13.7372497"><ele>994.2</ele><time>2026-05-02T11:07:16.384Z</time></trkpt><trkpt lat="42.2093144" lon="13.7372066"><ele>991.4000000000001</ele><time>2026-05-02T11:07:17.386Z</time></trkpt><trkpt lat="42.2094044" lon="13.7371652"><ele>988.5999999999999</ele><time>2026-05-02T11:07:18.392Z</time></trkpt><trkpt lat="42.2094758" lon="13.7371357"><ele>985.8</ele><time>2026-05-02T11:07:19.388Z</time></trkpt><trkpt lat="42.2095442" lon="13.7370925"><ele>983.0</ele><time>2026-05-02T11:07:20.393Z</time></trkpt><trkpt lat="42.209628" lon="13.736984"><ele>983.2</ele><time>2026-05-02T11:07:22.385Z</time></trkpt><trkpt lat="42.2096899" lon="13.736868"><ele>983.4</ele><time>2026-05-02T11:07:23.286Z</time></trkpt><trkpt lat="42.2097531" lon="13.7367746"><ele>983.6000000000001</ele><time>2026-05-02T11:07:24.288Z</time></trkpt><trkpt lat="42.2098435" lon="13.7366979"><ele>983.8000000000001</ele><time>2026-05-02T11:07:25.292Z</time></trkpt><trkpt lat="42.2099436" lon="13.7366029"><ele>984.0</ele><time>2026-05-02T11:07:26.294Z</time></trkpt><trkpt lat="42.2100422" lon="13.7365118"><ele>984.0</ele><time>2026-05-02T11:07:27.31Z</time></trkpt><trkpt lat="42.2101205" lon="13.7364234"><ele>984.0</ele><time>2026-05-02T11:07:28.305Z</time></trkpt><trkpt lat="42.2101956" lon="13.7363543"><ele>984.0</ele><time>2026-05-02T11:07:29.311Z</time></trkpt><trkpt lat="42.210262" lon="13.7362923"><ele>984.0</ele><time>2026-05-02T11:07:30.301Z</time></trkpt><trkpt lat="42.2103264" lon="13.7362501"><ele>984.0</ele><time>2026-05-02T11:07:31.303Z</time></trkpt><trkpt lat="42.2104063" lon="13.7362043"><ele>984.0</ele><time>2026-05-02T11:07:33.305Z</time></trkpt><trkpt lat="42.2104179" lon="13.7361158"><ele>984.0</ele><time>2026-05-02T11:07:38.32Z</time></trkpt><trkpt lat="42.2103427" lon="13.7360601"><ele>984.0000000000001</ele><time>2026-05-02T11:07:41.321Z</time></trkpt><trkpt lat="42.2102643" lon="13.7360355"><ele>984.0000000000001</ele><time>2026-05-02T11:07:43.321Z</time></trkpt><trkpt lat="42.2101497" lon="13.7359762"><ele>984.0</ele><time>2026-05-02T11:07:45.308Z</time></trkpt><trkpt lat="42.2100582" lon="13.7359269"><ele>984.0</ele><time>2026-05-02T11:07:47.31Z</time></trkpt><trkpt lat="42.209958" lon="13.7358415"><ele>985.1666666666666</ele><time>2026-05-02T11:07:49.3Z</time></trkpt><trkpt lat="42.2098891" lon="13.7357884"><ele>986.3333333333333</ele><time>2026-05-02T11:07:50.302Z</time></trkpt><trkpt lat="42.2098208" lon="13.7357239"><ele>987.5</ele><time>2026-05-02T11:07:51.306Z</time></trkpt><trkpt lat="42.2097456" lon="13.735661"><ele>988.6666666666666</ele><time>2026-05-02T11:07:52.303Z</time></trkpt><trkpt lat="42.209685" lon="13.7355826"><ele>989.8333333333333</ele><time>2026-05-02T11:07:53.296Z</time></trkpt><trkpt lat="42.2096186" lon="13.7355076"><ele>991.0</ele><time>2026-05-02T11:07:54.303Z</time></trkpt><trkpt lat="42.2095672" lon="13.7354201"><ele>993.6666666666666</ele><time>2026-05-02T11:07:55.301Z</time></trkpt><trkpt lat="42.2095127" lon="13.7353335"><ele>996.3333333333333</ele><time>2026-05-02T11:07:56.311Z</time></trkpt><trkpt lat="42.2094571" lon="13.735247"><ele>999.0</ele><time>2026-05-02T11:07:57.299Z</time></trkpt><trkpt lat="42.2093883" lon="13.7351632"><ele>1001.6666666666667</ele><time>2026-05-02T11:07:58.3Z</time></trkpt><trkpt lat="42.2093183" lon="13.7351106"><ele>1004.3333333333334</ele><time>2026-05-02T11:07:59.297Z</time></trkpt><trkpt lat="42.20924" lon="13.7350721"><ele>1007.0</ele><time>2026-05-02T11:08:00.297Z</time></trkpt><trkpt lat="42.2091524" lon="13.7350526"><ele>1007.0000000000001</ele><time>2026-05-02T11:08:01.302Z</time></trkpt><trkpt lat="42.2090689" lon="13.7350479"><ele>1007.0</ele><time>2026-05-02T11:08:02.299Z</time></trkpt><trkpt lat="42.2089885" lon="13.7350461"><ele>1007.0</ele><time>2026-05-02T11:08:03.302Z</time></trkpt><trkpt lat="42.2089029" lon="13.735049"><ele>1007.0</ele><time>2026-05-02T11:08:04.297Z</time></trkpt><trkpt lat="42.2088157" lon="13.7350536"><ele>1007.0000000000001</ele><time>2026-05-02T11:08:05.293Z</time></trkpt><trkpt lat="42.2087256" lon="13.7350589"><ele>1007.0</ele><time>2026-05-02T11:08:06.297Z</time></trkpt><trkpt lat="42.2086354" lon="13.7350738"><ele>1010.8</ele><time>2026-05-02T11:08:07.299Z</time></trkpt><trkpt lat="42.2085462" lon="13.7350988"><ele>1014.6</ele><time>2026-05-02T11:08:08.3Z</time></trkpt><trkpt lat="42.2084525" lon="13.7351438"><ele>1018.3999999999999</ele><time>2026-05-02T11:08:09.299Z</time></trkpt><trkpt lat="42.208367" lon="13.7352011"><ele>1022.1999999999999</ele><time>2026-05-02T11:08:10.294Z</time></trkpt><trkpt lat="42.2082778" lon="13.7352731"><ele>1026.0</ele><time>2026-05-02T11:08:11.289Z</time></trkpt><trkpt lat="42.2082018" lon="13.7353608"><ele>1031.5</ele><time>2026-05-02T11:08:12.289Z</time></trkpt><trkpt lat="42.2081392" lon="13.735472"><ele>1037.0</ele><time>2026-05-02T11:08:13.304Z</time></trkpt><trkpt lat="42.208088" lon="13.7356118"><ele>1042.5</ele><time>2026-05-02T11:08:14.294Z</time></trkpt><trkpt lat="42.2080411" lon="13.7357687"><ele>1048.0</ele><time>2026-05-02T11:08:15.286Z</time></trkpt><trkpt lat="42.207994" lon="13.7359304"><ele>1046.0</ele><time>2026-05-02T11:08:16.287Z</time></trkpt><trkpt lat="42.2079378" lon="13.7360839"><ele>1044.0</ele><time>2026-05-02T11:08:17.284Z</time></trkpt><trkpt lat="42.2078689" lon="13.7362313"><ele>1042.0</ele><time>2026-05-02T11:08:18.293Z</time></trkpt><trkpt lat="42.2077974" lon="13.7363679"><ele>1040.0</ele><time>2026-05-02T11:08:19.285Z</time></trkpt><trkpt lat="42.2077239" lon="13.7364903"><ele>1040.0</ele><time>2026-05-02T11:08:20.295Z</time></trkpt><trkpt lat="42.2076441" lon="13.7365991"><ele>1040.0</ele><time>2026-05-02T11:08:21.294Z</time></trkpt><trkpt lat="42.2075614" lon="13.7367057"><ele>1040.0</ele><time>2026-05-02T11:08:22.293Z</time></trkpt><trkpt lat="42.2074777" lon="13.7368053"><ele>1040.0</ele><time>2026-05-02T11:08:23.289Z</time></trkpt><trkpt lat="42.2073907" lon="13.7368845"><ele>1040.0</ele><time>2026-05-02T11:08:24.292Z</time></trkpt><trkpt lat="42.207289" lon="13.7369414"><ele>1040.2</ele><time>2026-05-02T11:08:25.295Z</time></trkpt><trkpt lat="42.2071932" lon="13.7369807"><ele>1040.4</ele><time>2026-05-02T11:08:26.295Z</time></trkpt><trkpt lat="42.2071227" lon="13.7369941"><ele>1040.6</ele><time>2026-05-02T11:08:27.309Z</time></trkpt><trkpt lat="42.2070421" lon="13.7369348"><ele>1040.8</ele><time>2026-05-02T11:08:29.307Z</time></trkpt><trkpt lat="42.206986" lon="13.7367898"><ele>1041.0</ele><time>2026-05-02T11:08:31.296Z</time></trkpt><trkpt lat="42.2069573" lon="13.7366894"><ele>1041.0</ele><time>2026-05-02T11:08:32.297Z</time></trkpt><trkpt lat="42.2069287" lon="13.7365759"><ele>1041.0</ele><time>2026-05-02T11:08:33.304Z</time></trkpt><trkpt lat="42.206905" lon="13.7364563"><ele>1041.0</ele><time>2026-05-02T11:08:34.309Z</time></trkpt><trkpt lat="42.2068792" lon="13.7363174"><ele>1041.0</ele><time>2026-05-02T11:08:35.3Z</time></trkpt><trkpt lat="42.2068507" lon="13.7361766"><ele>1041.0</ele><time>2026-05-02T11:08:36.304Z</time></trkpt><trkpt lat="42.2068205" lon="13.7360438"><ele>1043.0</ele><time>2026-05-02T11:08:37.304Z</time></trkpt><trkpt lat="42.2067992" lon="13.7359151"><ele>1045.0</ele><time>2026-05-02T11:08:38.304Z</time></trkpt><trkpt lat="42.2067981" lon="13.7358008"><ele>1047.0</ele><time>2026-05-02T11:08:39.301Z</time></trkpt><trkpt lat="42.2068077" lon="13.7356801"><ele>1049.0</ele><time>2026-05-02T11:08:40.304Z</time></trkpt><trkpt lat="42.2068222" lon="13.7355643"><ele>1051.0</ele><time>2026-05-02T11:08:41.303Z</time></trkpt><trkpt lat="42.2068244" lon="13.7354677"><ele>1053.0</ele><time>2026-05-02T11:08:42.3Z</time></trkpt><trkpt lat="42.2067942" lon="13.735382"><ele>1053.0</ele><time>2026-05-02T11:08:43.301Z</time></trkpt><trkpt lat="42.2067452" lon="13.7353054"><ele>1053.0</ele><time>2026-05-02T11:08:44.305Z</time></trkpt><trkpt lat="42.2066869" lon="13.7352252"><ele>1053.0</ele><time>2026-05-02T11:08:45.305Z</time></trkpt><trkpt lat="42.206632" lon="13.7351325"><ele>1053.0</ele><time>2026-05-02T11:08:46.295Z</time></trkpt><trkpt lat="42.206589" lon="13.7350257"><ele>1053.0</ele><time>2026-05-02T11:08:47.302Z</time></trkpt><trkpt lat="42.2065649" lon="13.7349078"><ele>1053.0</ele><time>2026-05-02T11:08:48.305Z</time></trkpt><trkpt lat="42.2065547" lon="13.7347883"><ele>1055.0</ele><time>2026-05-02T11:08:49.303Z</time></trkpt><trkpt lat="42.2065461" lon="13.7346829"><ele>1057.0</ele><time>2026-05-02T11:08:50.309Z</time></trkpt><trkpt lat="42.2065466" lon="13.7345675"><ele>1059.0</ele><time>2026-05-02T11:08:51.305Z</time></trkpt><trkpt lat="42.2065537" lon="13.7344521"><ele>1061.0</ele><time>2026-05-02T11:08:52.307Z</time></trkpt><trkpt lat="42.2065663" lon="13.7343393"><ele>1063.0</ele><time>2026-05-02T11:08:53.301Z</time></trkpt><trkpt lat="42.2065864" lon="13.7342263"><ele>1065.0</ele><time>2026-05-02T11:08:54.31Z</time></trkpt><trkpt lat="42.2066022" lon="13.7341078"><ele>1066.1666666666667</ele><time>2026-05-02T11:08:55.307Z</time></trkpt><trkpt lat="42.2066201" lon="13.7339825"><ele>1067.3333333333333</ele><time>2026-05-02T11:08:56.303Z</time></trkpt><trkpt lat="42.2066406" lon="13.7338499"><ele>1068.5</ele><time>2026-05-02T11:08:57.313Z</time></trkpt><trkpt lat="42.2066586" lon="13.7337265"><ele>1069.6666666666665</ele><time>2026-05-02T11:08:58.314Z</time></trkpt><trkpt lat="42.2066686" lon="13.7336205"><ele>1070.8333333333333</ele><time>2026-05-02T11:08:59.308Z</time></trkpt><trkpt lat="42.2066591" lon="13.7335115"><ele>1072.0</ele><time>2026-05-02T11:09:00.303Z</time></trkpt><trkpt lat="42.2066352" lon="13.7333914"><ele>1073.6</ele><time>2026-05-02T11:09:01.303Z</time></trkpt><trkpt lat="42.2066074" lon="13.7332736"><ele>1075.2</ele><time>2026-05-02T11:09:02.301Z</time></trkpt><trkpt lat="42.2065654" lon="13.7331559"><ele>1076.8</ele><time>2026-05-02T11:09:03.31Z</time></trkpt><trkpt lat="42.2065176" lon="13.7330494"><ele>1078.4</ele><time>2026-05-02T11:09:04.312Z</time></trkpt><trkpt lat="42.2064699" lon="13.7329472"><ele>1080.0</ele><time>2026-05-02T11:09:05.314Z</time></trkpt><trkpt lat="42.2064229" lon="13.7328396"><ele>1081.3333333333333</ele><time>2026-05-02T11:09:06.308Z</time></trkpt><trkpt lat="42.2063748" lon="13.7327387"><ele>1082.6666666666667</ele><time>2026-05-02T11:09:07.3Z</time></trkpt><trkpt lat="42.2063293" lon="13.7326607"><ele>1084.0</ele><time>2026-05-02T11:09:08.297Z</time></trkpt><trkpt lat="42.2062738" lon="13.7326027"><ele>1085.3333333333335</ele><time>2026-05-02T11:09:09.306Z</time></trkpt><trkpt lat="42.2062156" lon="13.732555"><ele>1086.6666666666667</ele><time>2026-05-02T11:09:10.309Z</time></trkpt><trkpt lat="42.2061241" lon="13.7324394"><ele>1088.0</ele><time>2026-05-02T11:09:12.306Z</time></trkpt><trkpt lat="42.2061065" lon="13.7323472"><ele>1089.4</ele><time>2026-05-02T11:09:13.302Z</time></trkpt><trkpt lat="42.2060928" lon="13.7322279"><ele>1090.8</ele><time>2026-05-02T11:09:14.3Z</time></trkpt><trkpt lat="42.2060843" lon="13.7320953"><ele>1092.2</ele><time>2026-05-02T11:09:15.293Z</time></trkpt><trkpt lat="42.20608" lon="13.7319592"><ele>1093.6</ele><time>2026-05-02T11:09:16.299Z</time></trkpt><trkpt lat="42.2060808" lon="13.7318209"><ele>1095.0</ele><time>2026-05-02T11:09:17.294Z</time></trkpt><trkpt lat="42.2060785" lon="13.7316834"><ele>1097.6</ele><time>2026-05-02T11:09:18.296Z</time></trkpt><trkpt lat="42.2060681" lon="13.7315511"><ele>1100.2</ele><time>2026-05-02T11:09:19.296Z</time></trkpt><trkpt lat="42.2060514" lon="13.731432"><ele>1102.8</ele><time>2026-05-02T11:09:20.301Z</time></trkpt><trkpt lat="42.2060237" lon="13.7313147"><ele>1105.4</ele><time>2026-05-02T11:09:21.296Z</time></trkpt><trkpt lat="42.2059886" lon="13.7312034"><ele>1108.0</ele><time>2026-05-02T11:09:22.298Z</time></trkpt><trkpt lat="42.2059507" lon="13.7311071"><ele>1110.75</ele><time>2026-05-02T11:09:23.3Z</time></trkpt><trkpt lat="42.2059078" lon="13.73102"><ele>1113.5</ele><time>2026-05-02T11:09:24.305Z</time></trkpt><trkpt lat="42.2058379" lon="13.7308846"><ele>1116.25</ele><time>2026-05-02T11:09:26.301Z</time></trkpt><trkpt lat="42.2057809" lon="13.730735"><ele>1119.0</ele><time>2026-05-02T11:09:28.3Z</time></trkpt><trkpt lat="42.2057422" lon="13.7305687"><ele>1119.0</ele><time>2026-05-02T11:09:30.305Z</time></trkpt><trkpt lat="42.2057185" lon="13.7304785"><ele>1119.0</ele><time>2026-05-02T11:09:31.304Z</time></trkpt><trkpt lat="42.2056765" lon="13.7303951"><ele>1119.0</ele><time>2026-05-02T11:09:32.307Z</time></trkpt><trkpt lat="42.2056241" lon="13.7303195"><ele>1119.0</ele><time>2026-05-02T11:09:33.302Z</time></trkpt><trkpt lat="42.2055777" lon="13.7302458"><ele>1119.0</ele><time>2026-05-02T11:09:34.299Z</time></trkpt><trkpt lat="42.2055459" lon="13.7301546"><ele>1119.0</ele><time>2026-05-02T11:09:35.298Z</time></trkpt><trkpt lat="42.2055233" lon="13.730048"><ele>1121.6000000000001</ele><time>2026-05-02T11:09:36.305Z</time></trkpt><trkpt lat="42.2054963" lon="13.7299548"><ele>1124.2</ele><time>2026-05-02T11:09:37.298Z</time></trkpt><trkpt lat="42.2054446" lon="13.729881"><ele>1126.8000000000002</ele><time>2026-05-02T11:09:38.302Z</time></trkpt><trkpt lat="42.2053884" lon="13.7297835"><ele>1129.4</ele><time>2026-05-02T11:09:39.297Z</time></trkpt><trkpt lat="42.205308" lon="13.729667"><ele>1132.0</ele><time>2026-05-02T11:09:40.305Z</time></trkpt><trkpt lat="42.2052251" lon="13.7295348"><ele>1132.0</ele><time>2026-05-02T11:09:41.3Z</time></trkpt><trkpt lat="42.2051475" lon="13.7294051"><ele>1132.0</ele><time>2026-05-02T11:09:42.295Z</time></trkpt><trkpt lat="42.2050838" lon="13.7292842"><ele>1132.0</ele><time>2026-05-02T11:09:43.292Z</time></trkpt><trkpt lat="42.2050236" lon="13.7291797"><ele>1132.0</ele><time>2026-05-02T11:09:44.29Z</time></trkpt><trkpt lat="42.2049581" lon="13.7290964"><ele>1132.0</ele><time>2026-05-02T11:09:45.284Z</time></trkpt><trkpt lat="42.2049041" lon="13.7290272"><ele>1132.5</ele><time>2026-05-02T11:09:46.296Z</time></trkpt><trkpt lat="42.2048206" lon="13.7289507"><ele>1133.0</ele><time>2026-05-02T11:09:48.299Z</time></trkpt><trkpt lat="42.2047559" lon="13.7289263"><ele>1133.5</ele><time>2026-05-02T11:09:51.309Z</time></trkpt><trkpt lat="42.2046882" lon="13.7289186"><ele>1134.0</ele><time>2026-05-02T11:09:53.313Z</time></trkpt><trkpt lat="42.2046078" lon="13.7288816"><ele>1134.5</ele><time>2026-05-02T11:09:55.319Z</time></trkpt><trkpt lat="42.2045115" lon="13.7288547"><ele>1135.0</ele><time>2026-05-02T11:09:57.312Z</time></trkpt><trkpt lat="42.204403" lon="13.7288"><ele>1135.0</ele><time>2026-05-02T11:09:59.303Z</time></trkpt><trkpt lat="42.2043395" lon="13.7287643"><ele>1135.0</ele><time>2026-05-02T11:10:01.309Z</time></trkpt><trkpt lat="42.2042398" lon="13.7286872"><ele>1135.0</ele><time>2026-05-02T11:10:03.306Z</time></trkpt><trkpt lat="42.2041757" lon="13.7286232"><ele>1135.0</ele><time>2026-05-02T11:10:04.298Z</time></trkpt><trkpt lat="42.2040921" lon="13.7285534"><ele>1135.0</ele><time>2026-05-02T11:10:05.307Z</time></trkpt><trkpt lat="42.204014" lon="13.7284866"><ele>1134.2</ele><time>2026-05-02T11:10:06.297Z</time></trkpt><trkpt lat="42.2039359" lon="13.7284355"><ele>1133.4</ele><time>2026-05-02T11:10:07.309Z</time></trkpt><trkpt lat="42.2038741" lon="13.7283964"><ele>1132.6</ele><time>2026-05-02T11:10:08.296Z</time></trkpt><trkpt lat="42.2037516" lon="13.7283654"><ele>1131.8</ele><time>2026-05-02T11:10:10.299Z</time></trkpt><trkpt lat="42.2036788" lon="13.7283976"><ele>1131.0</ele><time>2026-05-02T11:10:11.302Z</time></trkpt><trkpt lat="42.2035878" lon="13.728437"><ele>1131.0</ele><time>2026-05-02T11:10:12.306Z</time></trkpt><trkpt lat="42.2034981" lon="13.7284656"><ele>1131.0</ele><time>2026-05-02T11:10:13.311Z</time></trkpt><trkpt lat="42.2034047" lon="13.7284877"><ele>1131.0</ele><time>2026-05-02T11:10:14.307Z</time></trkpt><trkpt lat="42.2033135" lon="13.7285179"><ele>1131.0</ele><time>2026-05-02T11:10:15.303Z</time></trkpt><trkpt lat="42.2032205" lon="13.7285503"><ele>1131.0</ele><time>2026-05-02T11:10:16.307Z</time></trkpt><trkpt lat="42.2031142" lon="13.7285596"><ele>1132.0</ele><time>2026-05-02T11:10:17.301Z</time></trkpt><trkpt lat="42.2030051" lon="13.7285554"><ele>1133.0</ele><time>2026-05-02T11:10:18.309Z</time></trkpt><trkpt lat="42.202891" lon="13.7285448"><ele>1134.0</ele><time>2026-05-02T11:10:19.308Z</time></trkpt><trkpt lat="42.2027824" lon="13.7285614"><ele>1135.0</ele><time>2026-05-02T11:10:20.319Z</time></trkpt><trkpt lat="42.2026759" lon="13.7285775"><ele>1136.0</ele><time>2026-05-02T11:10:21.321Z</time></trkpt><trkpt lat="42.2025716" lon="13.7285943"><ele>1136.2</ele><time>2026-05-02T11:10:22.317Z</time></trkpt><trkpt lat="42.2024638" lon="13.7286097"><ele>1136.3999999999999</ele><time>2026-05-02T11:10:23.311Z</time></trkpt><trkpt lat="42.2023612" lon="13.728611"><ele>1136.6</ele><time>2026-05-02T11:10:24.322Z</time></trkpt><trkpt lat="42.2022573" lon="13.7285926"><ele>1136.8</ele><time>2026-05-02T11:10:25.322Z</time></trkpt><trkpt lat="42.2021508" lon="13.7285512"><ele>1137.0</ele><time>2026-05-02T11:10:26.316Z</time></trkpt><trkpt lat="42.2020443" lon="13.7285101"><ele>1137.0</ele><time>2026-05-02T11:10:27.318Z</time></trkpt><trkpt lat="42.2019369" lon="13.728481"><ele>1137.0</ele><time>2026-05-02T11:10:28.316Z</time></trkpt><trkpt lat="42.201832" lon="13.7284743"><ele>1137.0</ele><time>2026-05-02T11:10:29.315Z</time></trkpt><trkpt lat="42.2017265" lon="13.7284845"><ele>1137.0</ele><time>2026-05-02T11:10:30.31Z</time></trkpt><trkpt lat="42.2016224" lon="13.7285111"><ele>1137.0</ele><time>2026-05-02T11:10:31.322Z</time></trkpt><trkpt lat="42.2015121" lon="13.7285277"><ele>1137.6666666666667</ele><time>2026-05-02T11:10:32.317Z</time></trkpt><trkpt lat="42.2014131" lon="13.7285439"><ele>1138.3333333333333</ele><time>2026-05-02T11:10:33.307Z</time></trkpt><trkpt lat="42.2013272" lon="13.7285582"><ele>1139.0</ele><time>2026-05-02T11:10:34.308Z</time></trkpt><trkpt lat="42.2012482" lon="13.7285705"><ele>1139.6666666666665</ele><time>2026-05-02T11:10:35.316Z</time></trkpt><trkpt lat="42.2011732" lon="13.7285819"><ele>1140.3333333333333</ele><time>2026-05-02T11:10:36.313Z</time></trkpt><trkpt lat="42.2010932" lon="13.7285893"><ele>1141.0</ele><time>2026-05-02T11:10:37.309Z</time></trkpt><trkpt lat="42.2010185" lon="13.7285925"><ele>1141.0</ele><time>2026-05-02T11:10:38.322Z</time></trkpt><trkpt lat="42.200943" lon="13.728591"><ele>1141.0</ele><time>2026-05-02T11:10:39.315Z</time></trkpt><trkpt lat="42.200867" lon="13.7285835"><ele>1141.0</ele><time>2026-05-02T11:10:40.319Z</time></trkpt><trkpt lat="42.2007926" lon="13.7285821"><ele>1141.0</ele><time>2026-05-02T11:10:41.308Z</time></trkpt><trkpt lat="42.200725" lon="13.7285775"><ele>1141.0</ele><time>2026-05-02T11:10:42.307Z</time></trkpt><trkpt lat="42.2006417" lon="13.7285384"><ele>1141.0</ele><time>2026-05-02T11:10:44.305Z</time></trkpt><trkpt lat="42.2005807" lon="13.728468"><ele>1137.2</ele><time>2026-05-02T11:10:46.319Z</time></trkpt><trkpt lat="42.2004879" lon="13.7283774"><ele>1133.3999999999999</ele><time>2026-05-02T11:10:48.305Z</time></trkpt><trkpt lat="42.2004173" lon="13.7283018"><ele>1129.6</ele><time>2026-05-02T11:10:49.3Z</time></trkpt><trkpt lat="42.2003593" lon="13.7282163"><ele>1125.8</ele><time>2026-05-02T11:10:50.299Z</time></trkpt><trkpt lat="42.2003097" lon="13.7281096"><ele>1122.0</ele><time>2026-05-02T11:10:51.303Z</time></trkpt><trkpt lat="42.2002676" lon="13.727996"><ele>1122.0</ele><time>2026-05-02T11:10:52.303Z</time></trkpt><trkpt lat="42.2002179" lon="13.7279047"><ele>1122.0</ele><time>2026-05-02T11:10:53.302Z</time></trkpt><trkpt lat="42.2001669" lon="13.727818"><ele>1122.0</ele><time>2026-05-02T11:10:54.305Z</time></trkpt><trkpt lat="42.2001072" lon="13.7277498"><ele>1122.0</ele><time>2026-05-02T11:10:55.309Z</time></trkpt><trkpt lat="42.2000296" lon="13.7276899"><ele>1122.0</ele><time>2026-05-02T11:10:56.303Z</time></trkpt><trkpt lat="42.1999541" lon="13.7276188"><ele>1122.0</ele><time>2026-05-02T11:10:57.307Z</time></trkpt><trkpt lat="42.1998799" lon="13.7275513"><ele>1120.0</ele><time>2026-05-02T11:10:58.307Z</time></trkpt><trkpt lat="42.199808" lon="13.7274999"><ele>1118.0</ele><time>2026-05-02T11:10:59.307Z</time></trkpt><trkpt lat="42.1997395" lon="13.7274662"><ele>1116.0</ele><time>2026-05-02T11:11:00.311Z</time></trkpt><trkpt lat="42.1996771" lon="13.7274286"><ele>1114.0</ele><time>2026-05-02T11:11:01.317Z</time></trkpt><trkpt lat="42.1996111" lon="13.7273739"><ele>1112.0</ele><time>2026-05-02T11:11:02.316Z</time></trkpt><trkpt lat="42.1995621" lon="13.7273007"><ele>1110.0</ele><time>2026-05-02T11:11:03.294Z</time></trkpt><trkpt lat="42.1995311" lon="13.7272165"><ele>1108.0</ele><time>2026-05-02T11:11:04.293Z</time></trkpt><trkpt lat="42.199483" lon="13.727128"><ele>1108.0</ele><time>2026-05-02T11:11:05.294Z</time></trkpt><trkpt lat="42.1994169" lon="13.7270692"><ele>1108.0</ele><time>2026-05-02T11:11:06.297Z</time></trkpt><trkpt lat="42.1993241" lon="13.7270212"><ele>1108.0</ele><time>2026-05-02T11:11:07.289Z</time></trkpt><trkpt lat="42.1992173" lon="13.7269913"><ele>1108.0</ele><time>2026-05-02T11:11:08.298Z</time></trkpt><trkpt lat="42.1991259" lon="13.726982"><ele>1108.0</ele><time>2026-05-02T11:11:09.305Z</time></trkpt><trkpt lat="42.1990555" lon="13.7269986"><ele>1107.6666666666665</ele><time>2026-05-02T11:11:10.301Z</time></trkpt><trkpt lat="42.1989925" lon="13.7270101"><ele>1107.3333333333333</ele><time>2026-05-02T11:11:11.301Z</time></trkpt><trkpt lat="42.1989301" lon="13.7270216"><ele>1107.0</ele><time>2026-05-02T11:11:12.306Z</time></trkpt><trkpt lat="42.1988651" lon="13.7270265"><ele>1106.6666666666667</ele><time>2026-05-02T11:11:13.325Z</time></trkpt><trkpt lat="42.1987865" lon="13.7270087"><ele>1106.3333333333335</ele><time>2026-05-02T11:11:14.298Z</time></trkpt><trkpt lat="42.1986999" lon="13.7269721"><ele>1106.0</ele><time>2026-05-02T11:11:15.309Z</time></trkpt><trkpt lat="42.1986124" lon="13.7269157"><ele>1104.1666666666667</ele><time>2026-05-02T11:11:16.298Z</time></trkpt><trkpt lat="42.198528" lon="13.726849"><ele>1102.3333333333335</ele><time>2026-05-02T11:11:17.307Z</time></trkpt><trkpt lat="42.1984435" lon="13.7267805"><ele>1100.5</ele><time>2026-05-02T11:11:18.302Z</time></trkpt><trkpt lat="42.1983662" lon="13.7267327"><ele>1098.6666666666667</ele><time>2026-05-02T11:11:19.308Z</time></trkpt><trkpt lat="42.1982897" lon="13.7266964"><ele>1096.8333333333333</ele><time>2026-05-02T11:11:20.306Z</time></trkpt><trkpt lat="42.1982273" lon="13.7266617"><ele>1095.0</ele><time>2026-05-02T11:11:21.307Z</time></trkpt><trkpt lat="42.1981326" lon="13.7266077"><ele>1093.8</ele><time>2026-05-02T11:11:23.313Z</time></trkpt><trkpt lat="42.1980495" lon="13.7265361"><ele>1092.6</ele><time>2026-05-02T11:11:25.315Z</time></trkpt><trkpt lat="42.1979578" lon="13.7264507"><ele>1091.4</ele><time>2026-05-02T11:11:27.314Z</time></trkpt><trkpt lat="42.1978745" lon="13.7263505"><ele>1090.2</ele><time>2026-05-02T11:11:29.303Z</time></trkpt><trkpt lat="42.1977753" lon="13.726365"><ele>1089.0</ele><time>2026-05-02T11:11:31.299Z</time></trkpt><trkpt lat="42.1976835" lon="13.7264739"><ele>1089.0000000000002</ele><time>2026-05-02T11:11:33.306Z</time></trkpt><trkpt lat="42.1976455" lon="13.7265578"><ele>1089.0</ele><time>2026-05-02T11:11:34.306Z</time></trkpt><trkpt lat="42.1976144" lon="13.7266561"><ele>1089.0</ele><time>2026-05-02T11:11:35.302Z</time></trkpt><trkpt lat="42.197595" lon="13.7267578"><ele>1089.0</ele><time>2026-05-02T11:11:36.307Z</time></trkpt><trkpt lat="42.197566" lon="13.7268507"><ele>1089.0</ele><time>2026-05-02T11:11:37.301Z</time></trkpt><trkpt lat="42.197522" lon="13.7269195"><ele>1089.0000000000002</ele><time>2026-05-02T11:11:38.31Z</time></trkpt><trkpt lat="42.1974523" lon="13.7269514"><ele>1089.0</ele><time>2026-05-02T11:11:39.308Z</time></trkpt><trkpt lat="42.1973746" lon="13.726989"><ele>1087.8</ele><time>2026-05-02T11:11:40.311Z</time></trkpt><trkpt lat="42.1972813" lon="13.7270306"><ele>1086.6000000000001</ele><time>2026-05-02T11:11:41.303Z</time></trkpt><trkpt lat="42.1971768" lon="13.7270585"><ele>1085.4</ele><time>2026-05-02T11:11:42.304Z</time></trkpt><trkpt lat="42.1970703" lon="13.7270861"><ele>1084.2</ele><time>2026-05-02T11:11:43.312Z</time></trkpt><trkpt lat="42.196965" lon="13.7271168"><ele>1083.0</ele><time>2026-05-02T11:11:44.303Z</time></trkpt><trkpt lat="42.1968586" lon="13.7271531"><ele>1083.0</ele><time>2026-05-02T11:11:45.309Z</time></trkpt><trkpt lat="42.1967553" lon="13.7271964"><ele>1083.0</ele><time>2026-05-02T11:11:46.301Z</time></trkpt><trkpt lat="42.1966622" lon="13.727229"><ele>1083.0</ele><time>2026-05-02T11:11:47.3Z</time></trkpt><trkpt lat="42.196581" lon="13.7272548"><ele>1083.0</ele><time>2026-05-02T11:11:48.305Z</time></trkpt><trkpt lat="42.1965113" lon="13.7272816"><ele>1083.0</ele><time>2026-05-02T11:11:49.298Z</time></trkpt><trkpt lat="42.1964256" lon="13.72732"><ele>1082.8333333333333</ele><time>2026-05-02T11:11:51.301Z</time></trkpt><trkpt lat="42.1963906" lon="13.7272467"><ele>1082.6666666666667</ele><time>2026-05-02T11:11:54.3Z</time></trkpt><trkpt lat="42.1964158" lon="13.7270781"><ele>1082.5</ele><time>2026-05-02T11:11:56.302Z</time></trkpt><trkpt lat="42.1964286" lon="13.7269713"><ele>1082.3333333333335</ele><time>2026-05-02T11:11:57.301Z</time></trkpt><trkpt lat="42.1964434" lon="13.7268534"><ele>1082.1666666666667</ele><time>2026-05-02T11:11:58.301Z</time></trkpt><trkpt lat="42.1964647" lon="13.7267385"><ele>1082.0</ele><time>2026-05-02T11:11:59.305Z</time></trkpt><trkpt lat="42.1964904" lon="13.7266148"><ele>1083.2</ele><time>2026-05-02T11:12:00.31Z</time></trkpt><trkpt lat="42.1965217" lon="13.7264974"><ele>1084.4</ele><time>2026-05-02T11:12:01.304Z</time></trkpt><trkpt lat="42.1965474" lon="13.7263598"><ele>1085.6</ele><time>2026-05-02T11:12:02.307Z</time></trkpt><trkpt lat="42.19656" lon="13.7262152"><ele>1086.8</ele><time>2026-05-02T11:12:03.308Z</time></trkpt><trkpt lat="42.1965886" lon="13.7260716"><ele>1088.0</ele><time>2026-05-02T11:12:04.316Z</time></trkpt><trkpt lat="42.196629" lon="13.7259468"><ele>1088.8333333333335</ele><time>2026-05-02T11:12:05.303Z</time></trkpt><trkpt lat="42.1966824" lon="13.7258574"><ele>1089.6666666666667</ele><time>2026-05-02T11:12:06.305Z</time></trkpt><trkpt lat="42.1967447" lon="13.7257979"><ele>1090.5</ele><time>2026-05-02T11:12:07.301Z</time></trkpt><trkpt lat="42.1968096" lon="13.7257451"><ele>1091.3333333333333</ele><time>2026-05-02T11:12:08.299Z</time></trkpt><trkpt lat="42.1968832" lon="13.7257095"><ele>1092.1666666666665</ele><time>2026-05-02T11:12:09.303Z</time></trkpt><trkpt lat="42.1969561" lon="13.7256637"><ele>1093.0</ele><time>2026-05-02T11:12:10.307Z</time></trkpt><trkpt lat="42.1970119" lon="13.7255919"><ele>1093.0</ele><time>2026-05-02T11:12:11.304Z</time></trkpt><trkpt lat="42.1970475" lon="13.7255097"><ele>1093.0</ele><time>2026-05-02T11:12:12.298Z</time></trkpt><trkpt lat="42.1970671" lon="13.7254003"><ele>1093.0</ele><time>2026-05-02T11:12:13.307Z</time></trkpt><trkpt lat="42.1970873" lon="13.7252906"><ele>1093.0</ele><time>2026-05-02T11:12:14.305Z</time></trkpt><trkpt lat="42.1971058" lon="13.7251894"><ele>1093.0</ele><time>2026-05-02T11:12:15.295Z</time></trkpt><trkpt lat="42.1971289" lon="13.7250815"><ele>1093.0</ele><time>2026-05-02T11:12:16.305Z</time></trkpt><trkpt lat="42.1971614" lon="13.7249777"><ele>1093.1666666666665</ele><time>2026-05-02T11:12:17.301Z</time></trkpt><trkpt lat="42.1971982" lon="13.7248717"><ele>1093.3333333333333</ele><time>2026-05-02T11:12:18.305Z</time></trkpt><trkpt lat="42.1972288" lon="13.7247655"><ele>1093.5</ele><time>2026-05-02T11:12:19.308Z</time></trkpt><trkpt lat="42.197248" lon="13.724663"><ele>1093.6666666666667</ele><time>2026-05-02T11:12:20.307Z</time></trkpt><trkpt lat="42.197256" lon="13.7245425"><ele>1093.8333333333335</ele><time>2026-05-02T11:12:21.307Z</time></trkpt><trkpt lat="42.1972527" lon="13.7244212"><ele>1094.0</ele><time>2026-05-02T11:12:22.305Z</time></trkpt><trkpt lat="42.1972401" lon="13.7243033"><ele>1095.2</ele><time>2026-05-02T11:12:23.298Z</time></trkpt><trkpt lat="42.1972171" lon="13.7241876"><ele>1096.4</ele><time>2026-05-02T11:12:24.302Z</time></trkpt><trkpt lat="42.1972007" lon="13.7240633"><ele>1097.6</ele><time>2026-05-02T11:12:25.299Z</time></trkpt><trkpt lat="42.1971774" lon="13.7239327"><ele>1098.8</ele><time>2026-05-02T11:12:26.3Z</time></trkpt><trkpt lat="42.1971694" lon="13.7238152"><ele>1100.0</ele><time>2026-05-02T11:12:27.298Z</time></trkpt><trkpt lat="42.1971753" lon="13.7237014"><ele>1100.0</ele><time>2026-05-02T11:12:28.293Z</time></trkpt><trkpt lat="42.1971904" lon="13.7235809"><ele>1100.0</ele><time>2026-05-02T11:12:29.297Z</time></trkpt><trkpt lat="42.1972016" lon="13.723455"><ele>1100.0</ele><time>2026-05-02T11:12:30.299Z</time></trkpt><trkpt lat="42.1972242" lon="13.7233469"><ele>1100.0</ele><time>2026-05-02T11:12:31.299Z</time></trkpt><trkpt lat="42.1972417" lon="13.723249"><ele>1100.0</ele><time>2026-05-02T11:12:32.295Z</time></trkpt><trkpt lat="42.1972606" lon="13.723145"><ele>1100.0</ele><time>2026-05-02T11:12:33.293Z</time></trkpt><trkpt lat="42.1972888" lon="13.7230442"><ele>1100.0</ele><time>2026-05-02T11:12:34.294Z</time></trkpt><trkpt lat="42.1973324" lon="13.7229574"><ele>1100.0</ele><time>2026-05-02T11:12:35.304Z</time></trkpt><trkpt lat="42.1973878" lon="13.7228699"><ele>1100.0</ele><time>2026-05-02T11:12:36.299Z</time></trkpt><trkpt lat="42.1974303" lon="13.7227912"><ele>1100.0</ele><time>2026-05-02T11:12:37.295Z</time></trkpt><trkpt lat="42.1974756" lon="13.7227222"><ele>1100.0</ele><time>2026-05-02T11:12:38.299Z</time></trkpt><trkpt lat="42.1975149" lon="13.7226513"><ele>1100.0</ele><time>2026-05-02T11:12:39.291Z</time></trkpt><trkpt lat="42.1975802" lon="13.7225324"><ele>1098.6</ele><time>2026-05-02T11:12:41.295Z</time></trkpt><trkpt lat="42.1976304" lon="13.7224096"><ele>1097.2</ele><time>2026-05-02T11:12:43.298Z</time></trkpt><trkpt lat="42.1976693" lon="13.7222808"><ele>1095.8</ele><time>2026-05-02T11:12:45.297Z</time></trkpt><trkpt lat="42.1977165" lon="13.7221656"><ele>1094.4</ele><time>2026-05-02T11:12:47.299Z</time></trkpt><trkpt lat="42.1977847" lon="13.7220454"><ele>1093.0</ele><time>2026-05-02T11:12:49.284Z</time></trkpt><trkpt lat="42.1978606" lon="13.7219195"><ele>1092.8333333333333</ele><time>2026-05-02T11:12:51.285Z</time></trkpt><trkpt lat="42.1979454" lon="13.7218032"><ele>1092.6666666666665</ele><time>2026-05-02T11:12:53.296Z</time></trkpt><trkpt lat="42.1980006" lon="13.7217443"><ele>1092.5</ele><time>2026-05-02T11:12:54.296Z</time></trkpt><trkpt lat="42.1980635" lon="13.721692"><ele>1092.3333333333333</ele><time>2026-05-02T11:12:55.295Z</time></trkpt><trkpt lat="42.198119" lon="13.7216443"><ele>1092.1666666666667</ele><time>2026-05-02T11:12:56.295Z</time></trkpt><trkpt lat="42.1981683" lon="13.7215795"><ele>1092.0</ele><time>2026-05-02T11:12:57.298Z</time></trkpt><trkpt lat="42.1982374" lon="13.7215032"><ele>1091.2</ele><time>2026-05-02T11:12:58.296Z</time></trkpt><trkpt lat="42.1983013" lon="13.7214322"><ele>1090.4</ele><time>2026-05-02T11:12:59.297Z</time></trkpt><trkpt lat="42.1983421" lon="13.7213635"><ele>1089.6</ele><time>2026-05-02T11:13:00.3Z</time></trkpt><trkpt lat="42.1984331" lon="13.7212519"><ele>1088.8</ele><time>2026-05-02T11:13:02.297Z</time></trkpt><trkpt lat="42.1985381" lon="13.7211253"><ele>1088.0</ele><time>2026-05-02T11:13:04.289Z</time></trkpt><trkpt lat="42.1985981" lon="13.7210548"><ele>1086.5</ele><time>2026-05-02T11:13:05.294Z</time></trkpt><trkpt lat="42.1986698" lon="13.7209971"><ele>1085.0</ele><time>2026-05-02T11:13:06.29Z</time></trkpt><trkpt lat="42.1987445" lon="13.7209295"><ele>1083.5</ele><time>2026-05-02T11:13:07.29Z</time></trkpt><trkpt lat="42.1988174" lon="13.720873"><ele>1082.0</ele><time>2026-05-02T11:13:08.291Z</time></trkpt><trkpt lat="42.1988894" lon="13.7208279"><ele>1080.5</ele><time>2026-05-02T11:13:09.286Z</time></trkpt><trkpt lat="42.1989552" lon="13.7207871"><ele>1079.0</ele><time>2026-05-02T11:13:10.281Z</time></trkpt><trkpt lat="42.1990207" lon="13.720724"><ele>1077.1666666666667</ele><time>2026-05-02T11:13:11.29Z</time></trkpt><trkpt lat="42.199084" lon="13.7206538"><ele>1075.3333333333335</ele><time>2026-05-02T11:13:12.292Z</time></trkpt><trkpt lat="42.1991401" lon="13.7205739"><ele>1073.5</ele><time>2026-05-02T11:13:13.299Z</time></trkpt><trkpt lat="42.1992021" lon="13.7204974"><ele>1071.6666666666667</ele><time>2026-05-02T11:13:14.288Z</time></trkpt><trkpt lat="42.1992531" lon="13.7204099"><ele>1069.8333333333333</ele><time>2026-05-02T11:13:15.288Z</time></trkpt><trkpt lat="42.1993032" lon="13.720331"><ele>1068.0</ele><time>2026-05-02T11:13:16.296Z</time></trkpt><trkpt lat="42.1993554" lon="13.7202604"><ele>1067.3333333333333</ele><time>2026-05-02T11:13:17.289Z</time></trkpt><trkpt lat="42.1993978" lon="13.7201762"><ele>1066.6666666666667</ele><time>2026-05-02T11:13:18.303Z</time></trkpt><trkpt lat="42.1994302" lon="13.720087"><ele>1066.0</ele><time>2026-05-02T11:13:19.308Z</time></trkpt><trkpt lat="42.1994496" lon="13.7199944"><ele>1065.3333333333335</ele><time>2026-05-02T11:13:20.309Z</time></trkpt><trkpt lat="42.1994662" lon="13.7198923"><ele>1064.6666666666667</ele><time>2026-05-02T11:13:21.308Z</time></trkpt><trkpt lat="42.1994854" lon="13.7197673"><ele>1064.0</ele><time>2026-05-02T11:13:22.305Z</time></trkpt><trkpt lat="42.1995198" lon="13.7196405"><ele>1064.0</ele><time>2026-05-02T11:13:23.303Z</time></trkpt><trkpt lat="42.1995689" lon="13.7195135"><ele>1064.0</ele><time>2026-05-02T11:13:24.293Z</time></trkpt><trkpt lat="42.1996342" lon="13.7193845"><ele>1064.0</ele><time>2026-05-02T11:13:25.288Z</time></trkpt><trkpt lat="42.1996821" lon="13.7192464"><ele>1064.0</ele><time>2026-05-02T11:13:26.292Z</time></trkpt><trkpt lat="42.1997309" lon="13.7190935"><ele>1065.0</ele><time>2026-05-02T11:13:27.29Z</time></trkpt><trkpt lat="42.1997786" lon="13.7189481"><ele>1066.0</ele><time>2026-05-02T11:13:28.276Z</time></trkpt><trkpt lat="42.1998301" lon="13.7188274"><ele>1067.0</ele><time>2026-05-02T11:13:29.281Z</time></trkpt><trkpt lat="42.1998941" lon="13.7187318"><ele>1068.0</ele><time>2026-05-02T11:13:30.288Z</time></trkpt><trkpt lat="42.199969" lon="13.7186432"><ele>1069.0</ele><time>2026-05-02T11:13:31.278Z</time></trkpt><trkpt lat="42.2000481" lon="13.71855"><ele>1067.0</ele><time>2026-05-02T11:13:32.278Z</time></trkpt><trkpt lat="42.2001115" lon="13.718442"><ele>1065.0</ele><time>2026-05-02T11:13:33.281Z</time></trkpt><trkpt lat="42.2001705" lon="13.7183137"><ele>1063.0</ele><time>2026-05-02T11:13:34.284Z</time></trkpt><trkpt lat="42.2002224" lon="13.7182"><ele>1061.0</ele><time>2026-05-02T11:13:35.282Z</time></trkpt><trkpt lat="42.2002714" lon="13.7181137"><ele>1059.0</ele><time>2026-05-02T11:13:36.285Z</time></trkpt><trkpt lat="42.2003136" lon="13.7180416"><ele>1059.0</ele><time>2026-05-02T11:13:37.279Z</time></trkpt><trkpt lat="42.2003236" lon="13.7178711"><ele>1059.0</ele><time>2026-05-02T11:13:39.282Z</time></trkpt><trkpt lat="42.2003375" lon="13.7177649"><ele>1059.0</ele><time>2026-05-02T11:13:40.278Z</time></trkpt><trkpt lat="42.2003527" lon="13.7176579"><ele>1059.0</ele><time>2026-05-02T11:13:41.274Z</time></trkpt><trkpt lat="42.2003514" lon="13.717565"><ele>1059.0</ele><time>2026-05-02T11:13:42.28Z</time></trkpt><trkpt lat="42.2003308" lon="13.7174833"><ele>1059.0</ele><time>2026-05-02T11:13:43.286Z</time></trkpt><trkpt lat="42.2003" lon="13.7174076"><ele>1059.0</ele><time>2026-05-02T11:13:44.285Z</time></trkpt><trkpt lat="42.2002462" lon="13.7173"><ele>1059.0</ele><time>2026-05-02T11:13:46.296Z</time></trkpt><trkpt lat="42.2001997" lon="13.717186"><ele>1059.0</ele><time>2026-05-02T11:16:34.293Z</time></trkpt><trkpt lat="42.2001185" lon="13.7170244"><ele>1059.0</ele><time>2026-05-02T11:16:36.295Z</time></trkpt><trkpt lat="42.200065" lon="13.7169078"><ele>1059.0</ele><time>2026-05-02T11:16:37.288Z</time></trkpt><trkpt lat="42.2000211" lon="13.7167679"><ele>1059.0</ele><time>2026-05-02T11:16:38.284Z</time></trkpt><trkpt lat="42.1999935" lon="13.7166302"><ele>1059.0</ele><time>2026-05-02T11:16:39.281Z</time></trkpt><trkpt lat="42.1999634" lon="13.7165113"><ele>1059.0</ele><time>2026-05-02T11:16:40.283Z</time></trkpt><trkpt lat="42.1999397" lon="13.7164075"><ele>1059.0</ele><time>2026-05-02T11:16:41.28Z</time></trkpt><trkpt lat="42.1999282" lon="13.716305"><ele>1059.0</ele><time>2026-05-02T11:16:42.285Z</time></trkpt><trkpt lat="42.1999501" lon="13.7162019"><ele>1059.0</ele><time>2026-05-02T11:16:43.291Z</time></trkpt><trkpt lat="42.2000087" lon="13.7160784"><ele>1059.25</ele><time>2026-05-02T11:16:44.279Z</time></trkpt><trkpt lat="42.2000707" lon="13.7159291"><ele>1059.5</ele><time>2026-05-02T11:16:45.278Z</time></trkpt><trkpt lat="42.2001452" lon="13.7157896"><ele>1059.75</ele><time>2026-05-02T11:16:46.289Z</time></trkpt><trkpt lat="42.2002211" lon="13.7156575"><ele>1060.0</ele><time>2026-05-02T11:16:47.282Z</time></trkpt><trkpt lat="42.2002707" lon="13.7155479"><ele>1060.0</ele><time>2026-05-02T11:16:48.283Z</time></trkpt><trkpt lat="42.2002991" lon="13.71542"><ele>1060.0</ele><time>2026-05-02T11:16:49.291Z</time></trkpt><trkpt lat="42.2003389" lon="13.7152815"><ele>1060.0</ele><time>2026-05-02T11:16:50.289Z</time></trkpt><trkpt lat="42.2003679" lon="13.7151403"><ele>1060.0</ele><time>2026-05-02T11:16:51.281Z</time></trkpt><trkpt lat="42.2003812" lon="13.7150138"><ele>1060.0</ele><time>2026-05-02T11:16:52.277Z</time></trkpt><trkpt lat="42.2003867" lon="13.7149076"><ele>1060.0</ele><time>2026-05-02T11:16:53.277Z</time></trkpt><trkpt lat="42.2003977" lon="13.7148138"><ele>1060.0</ele><time>2026-05-02T11:16:54.278Z</time></trkpt><trkpt lat="42.2004314" lon="13.714702"><ele>1060.0</ele><time>2026-05-02T11:16:55.271Z</time></trkpt><trkpt lat="42.2004712" lon="13.7145852"><ele>1060.0</ele><time>2026-05-02T11:16:56.291Z</time></trkpt><trkpt lat="42.2004998" lon="13.7144561"><ele>1060.0</ele><time>2026-05-02T11:16:57.293Z</time></trkpt><trkpt lat="42.2005161" lon="13.7143102"><ele>1060.0</ele><time>2026-05-02T11:16:58.286Z</time></trkpt><trkpt lat="42.2005223" lon="13.714147"><ele>1060.0</ele><time>2026-05-02T11:16:59.284Z</time></trkpt><trkpt lat="42.2005188" lon="13.713984"><ele>1060.0</ele><time>2026-05-02T11:17:00.285Z</time></trkpt><trkpt lat="42.2005275" lon="13.7138068"><ele>1060.0</ele><time>2026-05-02T11:17:01.278Z</time></trkpt><trkpt lat="42.2005433" lon="13.7136148"><ele>1059.25</ele><time>2026-05-02T11:17:02.275Z</time></trkpt><trkpt lat="42.2005715" lon="13.7134409"><ele>1058.5</ele><time>2026-05-02T11:17:03.282Z</time></trkpt><trkpt lat="42.2006009" lon="13.7132778"><ele>1057.75</ele><time>2026-05-02T11:17:04.282Z</time></trkpt><trkpt lat="42.2006369" lon="13.7131315"><ele>1057.0</ele><time>2026-05-02T11:17:05.28Z</time></trkpt><trkpt lat="42.2006778" lon="13.7130044"><ele>1052.5</ele><time>2026-05-02T11:17:06.292Z</time></trkpt><trkpt lat="42.200743" lon="13.7128697"><ele>1048.0</ele><time>2026-05-02T11:17:07.285Z</time></trkpt><trkpt lat="42.2008133" lon="13.7127313"><ele>1043.5</ele><time>2026-05-02T11:17:08.285Z</time></trkpt><trkpt lat="42.2008859" lon="13.7125832"><ele>1039.0</ele><time>2026-05-02T11:17:09.285Z</time></trkpt><trkpt lat="42.2009487" lon="13.7124394"><ele>1038.25</ele><time>2026-05-02T11:17:10.286Z</time></trkpt><trkpt lat="42.2010014" lon="13.7122982"><ele>1037.5</ele><time>2026-05-02T11:17:11.282Z</time></trkpt><trkpt lat="42.2010394" lon="13.7121522"><ele>1036.75</ele><time>2026-05-02T11:17:12.285Z</time></trkpt><trkpt lat="42.2010741" lon="13.7119931"><ele>1036.0</ele><time>2026-05-02T11:17:13.307Z</time></trkpt><trkpt lat="42.201108" lon="13.7118484"><ele>1035.3999999999999</ele><time>2026-05-02T11:17:14.289Z</time></trkpt><trkpt lat="42.2011436" lon="13.7117165"><ele>1034.8</ele><time>2026-05-02T11:17:15.314Z</time></trkpt><trkpt lat="42.2011687" lon="13.711589"><ele>1034.1999999999998</ele><time>2026-05-02T11:17:16.384Z</time></trkpt><trkpt lat="42.2011813" lon="13.7114698"><ele>1033.6</ele><time>2026-05-02T11:17:17.368Z</time></trkpt><trkpt lat="42.2011806" lon="13.7113442"><ele>1033.0</ele><time>2026-05-02T11:17:18.377Z</time></trkpt><trkpt lat="42.2011718" lon="13.7112209"><ele>1032.0</ele><time>2026-05-02T11:17:19.354Z</time></trkpt><trkpt lat="42.2011251" lon="13.7110361"><ele>1031.0</ele><time>2026-05-02T11:17:20.277Z</time></trkpt><trkpt lat="42.2010986" lon="13.7108874"><ele>1030.0</ele><time>2026-05-02T11:17:21.268Z</time></trkpt><trkpt lat="42.2010719" lon="13.710759"><ele>1029.0</ele><time>2026-05-02T11:17:22.269Z</time></trkpt><trkpt lat="42.2010588" lon="13.7106244"><ele>1029.0</ele><time>2026-05-02T11:17:23.278Z</time></trkpt><trkpt lat="42.2010746" lon="13.7105086"><ele>1029.0</ele><time>2026-05-02T11:17:24.289Z</time></trkpt><trkpt lat="42.2010986" lon="13.7103904"><ele>1029.0</ele><time>2026-05-02T11:17:25.286Z</time></trkpt><trkpt lat="42.2011354" lon="13.7102488"><ele>1029.0</ele><time>2026-05-02T11:17:26.286Z</time></trkpt><trkpt lat="42.2011676" lon="13.7101222"><ele>1029.0</ele><time>2026-05-02T11:17:27.288Z</time></trkpt><trkpt lat="42.2011967" lon="13.7099986"><ele>1028.8</ele><time>2026-05-02T11:17:28.28Z</time></trkpt><trkpt lat="42.2012285" lon="13.7098754"><ele>1028.6000000000001</ele><time>2026-05-02T11:17:29.278Z</time></trkpt><trkpt lat="42.201261" lon="13.7097389"><ele>1028.4</ele><time>2026-05-02T11:17:30.289Z</time></trkpt><trkpt lat="42.2012965" lon="13.7095944"><ele>1028.2</ele><time>2026-05-02T11:17:31.286Z</time></trkpt><trkpt lat="42.2013221" lon="13.7094509"><ele>1028.0</ele><time>2026-05-02T11:17:32.283Z</time></trkpt><trkpt lat="42.201349" lon="13.7092987"><ele>1028.4</ele><time>2026-05-02T11:17:33.287Z</time></trkpt><trkpt lat="42.2013703" lon="13.7091523"><ele>1028.8</ele><time>2026-05-02T11:17:34.286Z</time></trkpt><trkpt lat="42.2013879" lon="13.7090169"><ele>1029.2</ele><time>2026-05-02T11:17:35.281Z</time></trkpt><trkpt lat="42.2014124" lon="13.7088833"><ele>1029.6</ele><time>2026-05-02T11:17:36.289Z</time></trkpt><trkpt lat="42.2014456" lon="13.7087561"><ele>1030.0</ele><time>2026-05-02T11:17:37.279Z</time></trkpt><trkpt lat="42.2014814" lon="13.7086264"><ele>1025.2</ele><time>2026-05-02T11:17:38.283Z</time></trkpt><trkpt lat="42.2015148" lon="13.7084987"><ele>1020.4</ele><time>2026-05-02T11:17:39.288Z</time></trkpt><trkpt lat="42.2015471" lon="13.7083822"><ele>1015.5999999999999</ele><time>2026-05-02T11:17:40.283Z</time></trkpt><trkpt lat="42.2015746" lon="13.7082664"><ele>1010.8</ele><time>2026-05-02T11:17:41.283Z</time></trkpt><trkpt lat="42.2015916" lon="13.7081404"><ele>1006.0</ele><time>2026-05-02T11:17:42.284Z</time></trkpt><trkpt lat="42.2015973" lon="13.7080055"><ele>1005.9999999999999</ele><time>2026-05-02T11:17:43.291Z</time></trkpt><trkpt lat="42.2016081" lon="13.7078772"><ele>1006.0</ele><time>2026-05-02T11:17:44.286Z</time></trkpt><trkpt lat="42.2016287" lon="13.7077666"><ele>1006.0</ele><time>2026-05-02T11:17:45.28Z</time></trkpt><trkpt lat="42.2016517" lon="13.7076693"><ele>1006.0</ele><time>2026-05-02T11:17:46.284Z</time></trkpt><trkpt lat="42.2016857" lon="13.707571"><ele>1005.9999999999999</ele><time>2026-05-02T11:17:47.283Z</time></trkpt><trkpt lat="42.2017211" lon="13.7074761"><ele>1006.0</ele><time>2026-05-02T11:17:48.286Z</time></trkpt><trkpt lat="42.2017449" lon="13.7073829"><ele>1004.6666666666666</ele><time>2026-05-02T11:17:49.28Z</time></trkpt><trkpt lat="42.2017603" lon="13.7072804"><ele>1003.3333333333333</ele><time>2026-05-02T11:17:50.284Z</time></trkpt><trkpt lat="42.2017665" lon="13.7071693"><ele>1002.0</ele><time>2026-05-02T11:17:51.285Z</time></trkpt><trkpt lat="42.2017714" lon="13.7070612"><ele>1000.6666666666667</ele><time>2026-05-02T11:17:52.282Z</time></trkpt><trkpt lat="42.2017801" lon="13.7069763"><ele>999.3333333333334</ele><time>2026-05-02T11:17:53.273Z</time></trkpt><trkpt lat="42.2018313" lon="13.7068214"><ele>998.0</ele><time>2026-05-02T11:17:55.286Z</time></trkpt><trkpt lat="42.2018835" lon="13.7066982"><ele>996.5999999999999</ele><time>2026-05-02T11:17:57.28Z</time></trkpt><trkpt lat="42.2018631" lon="13.7065632"><ele>995.1999999999999</ele><time>2026-05-02T11:18:00.285Z</time></trkpt><trkpt lat="42.2018379" lon="13.7064194"><ele>993.8</ele><time>2026-05-02T11:18:02.275Z</time></trkpt><trkpt lat="42.2017987" lon="13.7062711"><ele>992.4</ele><time>2026-05-02T11:18:04.271Z</time></trkpt><trkpt lat="42.2017338" lon="13.7061506"><ele>991.0</ele><time>2026-05-02T11:18:06.277Z</time></trkpt><trkpt lat="42.2016273" lon="13.7060952"><ele>990.1999999999999</ele><time>2026-05-02T11:18:08.281Z</time></trkpt><trkpt lat="42.201533" lon="13.7060543"><ele>989.3999999999999</ele><time>2026-05-02T11:18:10.269Z</time></trkpt><trkpt lat="42.2014984" lon="13.7059671"><ele>988.6</ele><time>2026-05-02T11:18:12.278Z</time></trkpt><trkpt lat="42.2014971" lon="13.7058345"><ele>987.8</ele><time>2026-05-02T11:18:14.288Z</time></trkpt><trkpt lat="42.2014971" lon="13.7057251"><ele>987.0</ele><time>2026-05-02T11:18:16.281Z</time></trkpt><trkpt lat="42.2014516" lon="13.7055925"><ele>985.2</ele><time>2026-05-02T11:18:18.282Z</time></trkpt><trkpt lat="42.2014073" lon="13.7054849"><ele>983.4000000000001</ele><time>2026-05-02T11:18:20.294Z</time></trkpt><trkpt lat="42.2013787" lon="13.7053603"><ele>981.5999999999999</ele><time>2026-05-02T11:18:22.299Z</time></trkpt><trkpt lat="42.2013455" lon="13.7052428"><ele>979.8</ele><time>2026-05-02T11:18:24.285Z</time></trkpt><trkpt lat="42.2013309" lon="13.7051388"><ele>978.0</ele><time>2026-05-02T11:18:26.301Z</time></trkpt><trkpt lat="42.2013356" lon="13.7049999"><ele>978.0</ele><time>2026-05-02T11:18:29.3Z</time></trkpt><trkpt lat="42.2013444" lon="13.7048726"><ele>978.0</ele><time>2026-05-02T11:18:31.291Z</time></trkpt><trkpt lat="42.2013488" lon="13.7047511"><ele>978.0</ele><time>2026-05-02T11:18:33.293Z</time></trkpt><trkpt lat="42.201351" lon="13.704635"><ele>978.0</ele><time>2026-05-02T11:18:35.296Z</time></trkpt><trkpt lat="42.2013608" lon="13.7044937"><ele>978.0</ele><time>2026-05-02T11:18:37.284Z</time></trkpt><trkpt lat="42.2013773" lon="13.7043631"><ele>974.5</ele><time>2026-05-02T11:18:39.282Z</time></trkpt><trkpt lat="42.2013774" lon="13.7042261"><ele>971.0</ele><time>2026-05-02T11:18:41.285Z</time></trkpt><trkpt lat="42.2013827" lon="13.7040694"><ele>967.5</ele><time>2026-05-02T11:18:43.285Z</time></trkpt><trkpt lat="42.2013968" lon="13.7039777"><ele>964.0</ele><time>2026-05-02T11:18:44.276Z</time></trkpt><trkpt lat="42.2014226" lon="13.7038824"><ele>960.5</ele><time>2026-05-02T11:18:45.284Z</time></trkpt><trkpt lat="42.2014486" lon="13.7038001"><ele>957.0</ele><time>2026-05-02T11:18:46.275Z</time></trkpt><trkpt lat="42.2014702" lon="13.7037114"><ele>957.0</ele><time>2026-05-02T11:18:47.273Z</time></trkpt><trkpt lat="42.2014852" lon="13.7036193"><ele>957.0</ele><time>2026-05-02T11:18:48.276Z</time></trkpt><trkpt lat="42.2015026" lon="13.7035165"><ele>957.0</ele><time>2026-05-02T11:18:49.275Z</time></trkpt><trkpt lat="42.2015075" lon="13.7034192"><ele>957.0</ele><time>2026-05-02T11:18:50.275Z</time></trkpt><trkpt lat="42.2015093" lon="13.7033234"><ele>957.0</ele><time>2026-05-02T11:18:51.273Z</time></trkpt><trkpt lat="42.2015197" lon="13.7032334"><ele>957.0</ele><time>2026-05-02T11:18:52.273Z</time></trkpt><trkpt lat="42.2015172" lon="13.7030989"><ele>953.0</ele><time>2026-05-02T11:18:54.268Z</time></trkpt><trkpt lat="42.2014615" lon="13.7029745"><ele>949.0</ele><time>2026-05-02T11:18:56.275Z</time></trkpt><trkpt lat="42.2013757" lon="13.7028663"><ele>945.0</ele><time>2026-05-02T11:18:58.275Z</time></trkpt><trkpt lat="42.20129" lon="13.7027659"><ele>941.0</ele><time>2026-05-02T11:19:00.275Z</time></trkpt><trkpt lat="42.201247" lon="13.7027019"><ele>937.0</ele><time>2026-05-02T11:19:01.268Z</time></trkpt><trkpt lat="42.2011419" lon="13.7026189"><ele>937.0</ele><time>2026-05-02T11:19:03.277Z</time></trkpt><trkpt lat="42.2010788" lon="13.7025914"><ele>937.0</ele><time>2026-05-02T11:19:04.275Z</time></trkpt><trkpt lat="42.2010227" lon="13.702549"><ele>937.0</ele><time>2026-05-02T11:19:05.274Z</time></trkpt><trkpt lat="42.2009626" lon="13.7024866"><ele>937.0</ele><time>2026-05-02T11:19:06.269Z</time></trkpt><trkpt lat="42.2008894" lon="13.7024255"><ele>937.0</ele><time>2026-05-02T11:19:07.276Z</time></trkpt><trkpt lat="42.2008232" lon="13.7023806"><ele>937.0</ele><time>2026-05-02T11:19:08.288Z</time></trkpt><trkpt lat="42.2007591" lon="13.7023452"><ele>937.0</ele><time>2026-05-02T11:19:09.287Z</time></trkpt><trkpt lat="42.2007005" lon="13.7023035"><ele>931.0</ele><time>2026-05-02T11:19:10.303Z</time></trkpt><trkpt lat="42.2006025" lon="13.7022556"><ele>925.0</ele><time>2026-05-02T11:19:12.302Z</time></trkpt><trkpt lat="42.2004896" lon="13.7022308"><ele>919.0</ele><time>2026-05-02T11:19:14.292Z</time></trkpt><trkpt lat="42.2003806" lon="13.7021883"><ele>913.0</ele><time>2026-05-02T11:19:16.302Z</time></trkpt><trkpt lat="42.2003006" lon="13.7021757"><ele>907.0</ele><time>2026-05-02T11:19:18.303Z</time></trkpt><trkpt lat="42.2002279" lon="13.7021619"><ele>907.0</ele><time>2026-05-02T11:19:20.309Z</time></trkpt><trkpt lat="42.2001581" lon="13.7020644"><ele>907.0</ele><time>2026-05-02T11:19:23.295Z</time></trkpt><trkpt lat="42.2001314" lon="13.7019045"><ele>907.0</ele><time>2026-05-02T11:19:25.297Z</time></trkpt><trkpt lat="42.2001188" lon="13.7018146"><ele>907.0</ele><time>2026-05-02T11:19:26.3Z</time></trkpt><trkpt lat="42.2000932" lon="13.7016755"><ele>907.0</ele><time>2026-05-02T11:19:28.302Z</time></trkpt><trkpt lat="42.2000675" lon="13.7015872"><ele>907.4999999999999</ele><time>2026-05-02T11:19:30.308Z</time></trkpt><trkpt lat="42.2000261" lon="13.70152"><ele>908.0</ele><time>2026-05-02T11:19:32.304Z</time></trkpt><trkpt lat="42.2000101" lon="13.7014293"><ele>908.5</ele><time>2026-05-02T11:19:35.315Z</time></trkpt><trkpt lat="42.2000343" lon="13.7013084"><ele>909.0</ele><time>2026-05-02T11:19:37.315Z</time></trkpt><trkpt lat="42.2000457" lon="13.7011856"><ele>909.4999999999999</ele><time>2026-05-02T11:19:39.304Z</time></trkpt><trkpt lat="42.2000611" lon="13.7010539"><ele>910.0</ele><time>2026-05-02T11:19:41.298Z</time></trkpt><trkpt lat="42.2000713" lon="13.7009086"><ele>908.8</ele><time>2026-05-02T11:19:43.299Z</time></trkpt><trkpt lat="42.2000941" lon="13.7007877"><ele>907.6</ele><time>2026-05-02T11:19:45.298Z</time></trkpt><trkpt lat="42.200107" lon="13.7006793"><ele>906.4000000000001</ele><time>2026-05-02T11:19:47.309Z</time></trkpt><trkpt lat="42.2000666" lon="13.7005844"><ele>905.2</ele><time>2026-05-02T11:19:49.311Z</time></trkpt><trkpt lat="42.2000278" lon="13.7004695"><ele>904.0</ele><time>2026-05-02T11:19:51.302Z</time></trkpt><trkpt lat="42.2000308" lon="13.7003306"><ele>903.8333333333333</ele><time>2026-05-02T11:19:53.296Z</time></trkpt><trkpt lat="42.2000359" lon="13.7002202"><ele>903.6666666666666</ele><time>2026-05-02T11:19:55.297Z</time></trkpt><trkpt lat="42.2000606" lon="13.7001173"><ele>903.5</ele><time>2026-05-02T11:19:57.311Z</time></trkpt><trkpt lat="42.2000885" lon="13.7000394"><ele>903.3333333333333</ele><time>2026-05-02T11:19:59.305Z</time></trkpt><trkpt lat="42.2000433" lon="13.6999462"><ele>903.1666666666666</ele><time>2026-05-02T11:20:02.301Z</time></trkpt><trkpt lat="42.1999796" lon="13.6998856"><ele>903.0</ele><time>2026-05-02T11:20:04.303Z</time></trkpt><trkpt lat="42.1998956" lon="13.6998345"><ele>903.0</ele><time>2026-05-02T11:20:07.299Z</time></trkpt><trkpt lat="42.1998407" lon="13.6997823"><ele>903.0</ele><time>2026-05-02T11:20:09.301Z</time></trkpt><trkpt lat="42.1997865" lon="13.6997235"><ele>903.0</ele><time>2026-05-02T11:20:11.303Z</time></trkpt><trkpt lat="42.1997384" lon="13.699609"><ele>903.0</ele><time>2026-05-02T11:20:13.316Z</time></trkpt><trkpt lat="42.1997015" lon="13.6994885"><ele>903.0</ele><time>2026-05-02T11:20:15.299Z</time></trkpt><trkpt lat="42.1996843" lon="13.6993592"><ele>903.0</ele><time>2026-05-02T11:20:17.303Z</time></trkpt><trkpt lat="42.1996684" lon="13.6992552"><ele>894.3333333333334</ele><time>2026-05-02T11:20:19.307Z</time></trkpt><trkpt lat="42.1996132" lon="13.699153"><ele>885.6666666666667</ele><time>2026-05-02T11:20:21.309Z</time></trkpt><trkpt lat="42.1995535" lon="13.6990666"><ele>877.0</ele><time>2026-05-02T11:20:23.31Z</time></trkpt><trkpt lat="42.1995263" lon="13.6989616"><ele>868.3333333333334</ele><time>2026-05-02T11:20:25.315Z</time></trkpt><trkpt lat="42.1995116" lon="13.6988418"><ele>859.6666666666667</ele><time>2026-05-02T11:20:27.314Z</time></trkpt><trkpt lat="42.1995144" lon="13.6987253"><ele>851.0</ele><time>2026-05-02T11:20:29.317Z</time></trkpt><trkpt lat="42.1995226" lon="13.6986143"><ele>851.6666666666667</ele><time>2026-05-02T11:20:31.306Z</time></trkpt><trkpt lat="42.1995155" lon="13.6984981"><ele>852.3333333333334</ele><time>2026-05-02T11:20:33.3Z</time></trkpt><trkpt lat="42.1994884" lon="13.6983912"><ele>853.0</ele><time>2026-05-02T11:20:35.305Z</time></trkpt><trkpt lat="42.1994697" lon="13.6982886"><ele>853.6666666666667</ele><time>2026-05-02T11:20:37.306Z</time></trkpt><trkpt lat="42.1994744" lon="13.698191"><ele>854.3333333333334</ele><time>2026-05-02T11:20:39.3Z</time></trkpt><trkpt lat="42.1994866" lon="13.6980887"><ele>855.0</ele><time>2026-05-02T11:20:41.3Z</time></trkpt><trkpt lat="42.1995074" lon="13.6979795"><ele>855.0</ele><time>2026-05-02T11:20:43.303Z</time></trkpt><trkpt lat="42.1995345" lon="13.6978616"><ele>855.0</ele><time>2026-05-02T11:20:45.299Z</time></trkpt><trkpt lat="42.1995789" lon="13.6977394"><ele>855.0</ele><time>2026-05-02T11:20:47.292Z</time></trkpt><trkpt lat="42.1996176" lon="13.697626"><ele>855.0</ele><time>2026-05-02T11:20:49.297Z</time></trkpt><trkpt lat="42.1996561" lon="13.697525"><ele>855.0</ele><time>2026-05-02T11:20:51.305Z</time></trkpt><trkpt lat="42.1997044" lon="13.697437"><ele>853.0</ele><time>2026-05-02T11:20:53.3Z</time></trkpt><trkpt lat="42.1997516" lon="13.6973609"><ele>851.0</ele><time>2026-05-02T11:20:55.301Z</time></trkpt><trkpt lat="42.199803" lon="13.6972841"><ele>849.0</ele><time>2026-05-02T11:20:58.3Z</time></trkpt><trkpt lat="42.1998588" lon="13.6971912"><ele>847.0</ele><time>2026-05-02T11:21:01.294Z</time></trkpt><trkpt lat="42.199917" lon="13.6971538"><ele>845.0</ele><time>2026-05-02T11:21:04.3Z</time></trkpt><trkpt lat="42.2000168" lon="13.6971155"><ele>843.0</ele><time>2026-05-02T11:21:07.285Z</time></trkpt><trkpt lat="42.2000814" lon="13.6970927"><ele>843.5</ele><time>2026-05-02T11:21:09.289Z</time></trkpt><trkpt lat="42.2001727" lon="13.6970776"><ele>844.0</ele><time>2026-05-02T11:21:11.29Z</time></trkpt><trkpt lat="42.2002526" lon="13.6970347"><ele>844.5</ele><time>2026-05-02T11:21:13.292Z</time></trkpt><trkpt lat="42.2003137" lon="13.6970115"><ele>845.0</ele><time>2026-05-02T11:22:19.297Z</time></trkpt><trkpt lat="42.2003903" lon="13.6969886"><ele>845.5</ele><time>2026-05-02T11:22:22.302Z</time></trkpt><trkpt lat="42.200473" lon="13.6969722"><ele>846.0</ele><time>2026-05-02T11:22:24.295Z</time></trkpt><trkpt lat="42.2005724" lon="13.6969113"><ele>848.8333333333334</ele><time>2026-05-02T11:22:26.288Z</time></trkpt><trkpt lat="42.2006848" lon="13.6968384"><ele>851.6666666666667</ele><time>2026-05-02T11:22:28.29Z</time></trkpt><trkpt lat="42.2007492" lon="13.6967925"><ele>854.5</ele><time>2026-05-02T11:22:29.296Z</time></trkpt><trkpt lat="42.2008049" lon="13.6967418"><ele>857.3333333333334</ele><time>2026-05-02T11:22:30.29Z</time></trkpt><trkpt lat="42.2008819" lon="13.6966713"><ele>860.1666666666667</ele><time>2026-05-02T11:22:32.288Z</time></trkpt><trkpt lat="42.2008579" lon="13.696556"><ele>863.0</ele><time>2026-05-02T11:22:35.287Z</time></trkpt><trkpt lat="42.2007874" lon="13.6965336"><ele>863.0000000000001</ele><time>2026-05-02T11:22:37.285Z</time></trkpt><trkpt lat="42.2007263" lon="13.6965629"><ele>863.0</ele><time>2026-05-02T11:22:39.284Z</time></trkpt><trkpt lat="42.2006486" lon="13.6965664"><ele>863.0</ele><time>2026-05-02T11:22:41.28Z</time></trkpt><trkpt lat="42.2005955" lon="13.6964913"><ele>863.0</ele><time>2026-05-02T11:22:44.286Z</time></trkpt><trkpt lat="42.2005109" lon="13.6964796"><ele>863.0000000000001</ele><time>2026-05-02T11:22:48.289Z</time></trkpt><trkpt lat="42.2004449" lon="13.6965305"><ele>863.0</ele><time>2026-05-02T11:22:50.29Z</time></trkpt><trkpt lat="42.2003551" lon="13.6965194"><ele>860.1666666666667</ele><time>2026-05-02T11:22:53.298Z</time></trkpt><trkpt lat="42.2002897" lon="13.6964413"><ele>857.3333333333334</ele><time>2026-05-02T11:22:55.287Z</time></trkpt><trkpt lat="42.2001999" lon="13.6963193"><ele>854.5</ele><time>2026-05-02T11:22:57.286Z</time></trkpt><trkpt lat="42.2001284" lon="13.6962407"><ele>851.6666666666667</ele><time>2026-05-02T11:22:59.29Z</time></trkpt><trkpt lat="42.2000651" lon="13.6962166"><ele>848.8333333333334</ele><time>2026-05-02T11:23:01.3Z</time></trkpt><trkpt lat="42.2000136" lon="13.6962731"><ele>846.0</ele><time>2026-05-02T11:23:03.302Z</time></trkpt><trkpt lat="42.1999687" lon="13.6963327"><ele>846.0</ele><time>2026-05-02T11:23:10.299Z</time></trkpt><trkpt lat="42.1998995" lon="13.6963993"><ele>846.0</ele><time>2026-05-02T11:23:13.305Z</time></trkpt><trkpt lat="42.1998274" lon="13.6963767"><ele>846.0</ele><time>2026-05-02T11:23:20.293Z</time></trkpt><trkpt lat="42.19977" lon="13.6963411"><ele>846.0</ele><time>2026-05-02T11:23:24.299Z</time></trkpt><trkpt lat="42.1996991" lon="13.6962569"><ele>846.0</ele><time>2026-05-02T11:23:30.295Z</time></trkpt><trkpt lat="42.1996324" lon="13.696139"><ele>846.0</ele><time>2026-05-02T11:23:32.29Z</time></trkpt><trkpt lat="42.1996012" lon="13.6960533"><ele>839.0</ele><time>2026-05-02T11:23:33.29Z</time></trkpt><trkpt lat="42.1995579" lon="13.6959649"><ele>832.0</ele><time>2026-05-02T11:23:34.29Z</time></trkpt><trkpt lat="42.1995108" lon="13.6958779"><ele>825.0</ele><time>2026-05-02T11:23:35.292Z</time></trkpt><trkpt lat="42.1994515" lon="13.6957967"><ele>818.0</ele><time>2026-05-02T11:23:36.293Z</time></trkpt><trkpt lat="42.1993926" lon="13.6957113"><ele>811.0</ele><time>2026-05-02T11:23:37.294Z</time></trkpt><trkpt lat="42.1993426" lon="13.6956272"><ele>804.0</ele><time>2026-05-02T11:23:38.296Z</time></trkpt><trkpt lat="42.1992956" lon="13.6955393"><ele>804.0</ele><time>2026-05-02T11:23:39.297Z</time></trkpt><trkpt lat="42.1992551" lon="13.6954511"><ele>804.0</ele><time>2026-05-02T11:23:40.293Z</time></trkpt><trkpt lat="42.1992249" lon="13.6953525"><ele>804.0</ele><time>2026-05-02T11:23:41.293Z</time></trkpt><trkpt lat="42.1992043" lon="13.6952605"><ele>804.0</ele><time>2026-05-02T11:23:42.287Z</time></trkpt><trkpt lat="42.1991813" lon="13.6951757"><ele>804.0</ele><time>2026-05-02T11:23:43.301Z</time></trkpt><trkpt lat="42.1991458" lon="13.6951002"><ele>804.0</ele><time>2026-05-02T11:23:44.298Z</time></trkpt><trkpt lat="42.1990723" lon="13.6949653"><ele>800.5</ele><time>2026-05-02T11:23:46.301Z</time></trkpt><trkpt lat="42.1989811" lon="13.6948975"><ele>797.0</ele><time>2026-05-02T11:23:48.294Z</time></trkpt><trkpt lat="42.1989128" lon="13.694925"><ele>793.5</ele><time>2026-05-02T11:23:50.306Z</time></trkpt><trkpt lat="42.1988502" lon="13.695018"><ele>790.0</ele><time>2026-05-02T11:23:52.309Z</time></trkpt><trkpt lat="42.1988024" lon="13.6951454"><ele>786.5</ele><time>2026-05-02T11:23:54.299Z</time></trkpt><trkpt lat="42.1987696" lon="13.6952339"><ele>783.0</ele><time>2026-05-02T11:23:55.305Z</time></trkpt><trkpt lat="42.198725" lon="13.6953168"><ele>783.0</ele><time>2026-05-02T11:23:56.298Z</time></trkpt><trkpt lat="42.1986734" lon="13.6953985"><ele>783.0</ele><time>2026-05-02T11:23:57.3Z</time></trkpt><trkpt lat="42.1986237" lon="13.6954666"><ele>783.0</ele><time>2026-05-02T11:23:58.297Z</time></trkpt><trkpt lat="42.198583" lon="13.6955384"><ele>783.0</ele><time>2026-05-02T11:23:59.293Z</time></trkpt><trkpt lat="42.1985346" lon="13.695604"><ele>783.0</ele><time>2026-05-02T11:24:01.283Z</time></trkpt><trkpt lat="42.1984651" lon="13.6955893"><ele>783.0</ele><time>2026-05-02T11:24:03.31Z</time></trkpt><trkpt lat="42.1984021" lon="13.695515"><ele>783.0</ele><time>2026-05-02T11:24:05.31Z</time></trkpt><trkpt lat="42.1983172" lon="13.6954664"><ele>783.0</ele><time>2026-05-02T11:24:07.309Z</time></trkpt><trkpt lat="42.1982335" lon="13.6954723"><ele>783.0</ele><time>2026-05-02T11:24:09.312Z</time></trkpt><trkpt lat="42.198157" lon="13.6954971"><ele>783.0</ele><time>2026-05-02T11:24:11.31Z</time></trkpt><trkpt lat="42.1980975" lon="13.6955689"><ele>783.0</ele><time>2026-05-02T11:24:13.315Z</time></trkpt><trkpt lat="42.1980238" lon="13.6956461"><ele>783.0</ele><time>2026-05-02T11:24:15.302Z</time></trkpt><trkpt lat="42.1979082" lon="13.6956803"><ele>779.2</ele><time>2026-05-02T11:24:17.292Z</time></trkpt><trkpt lat="42.1978352" lon="13.6956973"><ele>775.4</ele><time>2026-05-02T11:24:18.298Z</time></trkpt><trkpt lat="42.1977548" lon="13.6957196"><ele>771.6</ele><time>2026-05-02T11:24:19.298Z</time></trkpt><trkpt lat="42.1976632" lon="13.6957433"><ele>767.8000000000001</ele><time>2026-05-02T11:24:20.301Z</time></trkpt><trkpt lat="42.197564" lon="13.6957711"><ele>764.0</ele><time>2026-05-02T11:24:21.373Z</time></trkpt><trkpt lat="42.1974579" lon="13.6958045"><ele>764.0</ele><time>2026-05-02T11:24:22.371Z</time></trkpt><trkpt lat="42.1973509" lon="13.6958437"><ele>764.0</ele><time>2026-05-02T11:24:23.367Z</time></trkpt><trkpt lat="42.1972457" lon="13.6958866"><ele>764.0</ele><time>2026-05-02T11:24:24.372Z</time></trkpt><trkpt lat="42.1971323" lon="13.6959279"><ele>764.0</ele><time>2026-05-02T11:24:25.375Z</time></trkpt><trkpt lat="42.1970086" lon="13.6959661"><ele>761.0</ele><time>2026-05-02T11:24:26.386Z</time></trkpt><trkpt lat="42.1969107" lon="13.6960035"><ele>758.0</ele><time>2026-05-02T11:24:27.375Z</time></trkpt><trkpt lat="42.1968089" lon="13.6960392"><ele>755.0</ele><time>2026-05-02T11:24:28.373Z</time></trkpt><trkpt lat="42.196727" lon="13.6960706"><ele>752.0</ele><time>2026-05-02T11:24:29.377Z</time></trkpt><trkpt lat="42.1966442" lon="13.6961048"><ele>749.0</ele><time>2026-05-02T11:24:30.374Z</time></trkpt><trkpt lat="42.1965868" lon="13.6961421"><ele>746.0</ele><time>2026-05-02T11:24:31.363Z</time></trkpt><trkpt lat="42.1965243" lon="13.6961956"><ele>745.3333333333333</ele><time>2026-05-02T11:24:33.364Z</time></trkpt><trkpt lat="42.1965246" lon="13.6962999"><ele>744.6666666666666</ele><time>2026-05-02T11:24:36.381Z</time></trkpt><trkpt lat="42.1964739" lon="13.6962205"><ele>744.0</ele><time>2026-05-02T11:25:19.294Z</time></trkpt><trkpt lat="42.1964608" lon="13.6961183"><ele>743.3333333333334</ele><time>2026-05-02T11:25:21.295Z</time></trkpt><trkpt lat="42.1964395" lon="13.6960163"><ele>742.6666666666667</ele><time>2026-05-02T11:25:23.296Z</time></trkpt><trkpt lat="42.1964278" lon="13.6959065"><ele>742.0</ele><time>2026-05-02T11:25:26.296Z</time></trkpt><trkpt lat="42.1964212" lon="13.6958133"><ele>740.2</ele><time>2026-05-02T11:25:29.301Z</time></trkpt><trkpt lat="42.1964233" lon="13.6956795"><ele>738.4000000000001</ele><time>2026-05-02T11:29:24.286Z</time></trkpt><trkpt lat="42.1963838" lon="13.6954916"><ele>736.5999999999999</ele><time>2026-05-02T11:29:26.286Z</time></trkpt><trkpt lat="42.1963623" lon="13.6953864"><ele>734.8</ele><time>2026-05-02T11:29:27.288Z</time></trkpt><trkpt lat="42.1963446" lon="13.695288"><ele>733.0</ele><time>2026-05-02T11:29:28.28Z</time></trkpt><trkpt lat="42.1963298" lon="13.6951973"><ele>733.0</ele><time>2026-05-02T11:29:29.284Z</time></trkpt><trkpt lat="42.1963198" lon="13.6951041"><ele>733.0</ele><time>2026-05-02T11:29:30.288Z</time></trkpt><trkpt lat="42.1963022" lon="13.6949936"><ele>733.0</ele><time>2026-05-02T11:29:31.272Z</time></trkpt><trkpt lat="42.1962919" lon="13.6948725"><ele>733.0</ele><time>2026-05-02T11:29:32.286Z</time></trkpt><trkpt lat="42.1962819" lon="13.6947618"><ele>733.0</ele><time>2026-05-02T11:29:33.284Z</time></trkpt><trkpt lat="42.1962637" lon="13.6946648"><ele>733.0</ele><time>2026-05-02T11:29:34.283Z</time></trkpt><trkpt lat="42.1962318" lon="13.6945279"><ele>733.0</ele><time>2026-05-02T11:29:36.287Z</time></trkpt><trkpt lat="42.1961902" lon="13.6944311"><ele>733.0</ele><time>2026-05-02T11:29:38.294Z</time></trkpt><trkpt lat="42.1961515" lon="13.6943088"><ele>733.0</ele><time>2026-05-02T11:29:40.291Z</time></trkpt><trkpt lat="42.1961097" lon="13.6941838"><ele>733.0</ele><time>2026-05-02T11:29:42.293Z</time></trkpt><trkpt lat="42.1960644" lon="13.6940246"><ele>733.0</ele><time>2026-05-02T11:29:44.283Z</time></trkpt><trkpt lat="42.1960459" lon="13.6939377"><ele>732.6666666666667</ele><time>2026-05-02T11:29:45.285Z</time></trkpt><trkpt lat="42.196036" lon="13.6938468"><ele>732.3333333333334</ele><time>2026-05-02T11:29:46.297Z</time></trkpt><trkpt lat="42.1960327" lon="13.6937193"><ele>732.0</ele><time>2026-05-02T11:29:48.286Z</time></trkpt><trkpt lat="42.1960014" lon="13.6935668"><ele>731.6666666666666</ele><time>2026-05-02T11:29:50.289Z</time></trkpt><trkpt lat="42.195981" lon="13.6934659"><ele>731.3333333333333</ele><time>2026-05-02T11:29:51.284Z</time></trkpt><trkpt lat="42.1959632" lon="13.6933607"><ele>731.0</ele><time>2026-05-02T11:29:52.285Z</time></trkpt><trkpt lat="42.1959511" lon="13.6932621"><ele>729.8333333333333</ele><time>2026-05-02T11:29:53.28Z</time></trkpt><trkpt lat="42.1959368" lon="13.6930998"><ele>728.6666666666666</ele><time>2026-05-02T11:29:55.283Z</time></trkpt><trkpt lat="42.1959176" lon="13.6930136"><ele>727.5</ele><time>2026-05-02T11:29:56.283Z</time></trkpt><trkpt lat="42.1958981" lon="13.6929194"><ele>726.3333333333334</ele><time>2026-05-02T11:29:57.284Z</time></trkpt><trkpt lat="42.1958752" lon="13.6928101"><ele>725.1666666666667</ele><time>2026-05-02T11:29:58.282Z</time></trkpt><trkpt lat="42.1958566" lon="13.6927009"><ele>724.0</ele><time>2026-05-02T11:29:59.287Z</time></trkpt><trkpt lat="42.1958467" lon="13.6925873"><ele>722.3333333333334</ele><time>2026-05-02T11:30:00.283Z</time></trkpt><trkpt lat="42.1958396" lon="13.6924793"><ele>720.6666666666667</ele><time>2026-05-02T11:30:01.282Z</time></trkpt><trkpt lat="42.1958397" lon="13.6923727"><ele>719.0</ele><time>2026-05-02T11:30:02.285Z</time></trkpt><trkpt lat="42.1958477" lon="13.6922561"><ele>717.3333333333334</ele><time>2026-05-02T11:30:03.286Z</time></trkpt><trkpt lat="42.1958491" lon="13.6921183"><ele>715.6666666666666</ele><time>2026-05-02T11:30:04.305Z</time></trkpt><trkpt lat="42.195851" lon="13.6919865"><ele>714.0</ele><time>2026-05-02T11:30:05.364Z</time></trkpt><trkpt lat="42.1958456" lon="13.6918358"><ele>711.6666666666666</ele><time>2026-05-02T11:30:06.374Z</time></trkpt><trkpt lat="42.1958674" lon="13.6917116"><ele>709.3333333333333</ele><time>2026-05-02T11:30:07.365Z</time></trkpt><trkpt lat="42.1958678" lon="13.6914374"><ele>707.0</ele><time>2026-05-02T11:30:08.368Z</time></trkpt><trkpt lat="42.1958472" lon="13.6912096"><ele>707.0</ele><time>2026-05-02T11:30:09.362Z</time></trkpt><trkpt lat="42.1958686" lon="13.6914298"><ele>707.0</ele><time>2026-05-02T11:30:10.279Z</time></trkpt><trkpt lat="42.1958333" lon="13.6913541"><ele>707.0</ele><time>2026-05-02T11:30:11.275Z</time></trkpt><trkpt lat="42.1957908" lon="13.6912859"><ele>707.0</ele><time>2026-05-02T11:30:12.284Z</time></trkpt><trkpt lat="42.1957422" lon="13.6912108"><ele>707.0</ele><time>2026-05-02T11:30:13.286Z</time></trkpt><trkpt lat="42.1957028" lon="13.6911209"><ele>707.0</ele><time>2026-05-02T11:30:14.276Z</time></trkpt><trkpt lat="42.1956647" lon="13.6910355"><ele>704.5</ele><time>2026-05-02T11:30:15.272Z</time></trkpt><trkpt lat="42.1956205" lon="13.6909525"><ele>702.0</ele><time>2026-05-02T11:30:16.281Z</time></trkpt><trkpt lat="42.1955692" lon="13.6908783"><ele>699.5</ele><time>2026-05-02T11:30:17.273Z</time></trkpt><trkpt lat="42.1955162" lon="13.6908214"><ele>697.0</ele><time>2026-05-02T11:30:18.278Z</time></trkpt><trkpt lat="42.1954577" lon="13.69077"><ele>694.5</ele><time>2026-05-02T11:30:19.276Z</time></trkpt><trkpt lat="42.1953337" lon="13.690713"><ele>692.0</ele><time>2026-05-02T11:30:21.282Z</time></trkpt><trkpt lat="42.1952487" lon="13.6906907"><ele>692.0</ele><time>2026-05-02T11:30:22.285Z</time></trkpt><trkpt lat="42.1951688" lon="13.6906665"><ele>692.0</ele><time>2026-05-02T11:30:23.282Z</time></trkpt><trkpt lat="42.1950929" lon="13.6906438"><ele>692.0</ele><time>2026-05-02T11:30:24.283Z</time></trkpt><trkpt lat="42.1950138" lon="13.6906131"><ele>692.0</ele><time>2026-05-02T11:30:25.285Z</time></trkpt><trkpt lat="42.1949376" lon="13.6905793"><ele>692.0</ele><time>2026-05-02T11:30:26.282Z</time></trkpt><trkpt lat="42.1948622" lon="13.6905528"><ele>692.0</ele><time>2026-05-02T11:30:27.284Z</time></trkpt><trkpt lat="42.1947741" lon="13.690528"><ele>690.0</ele><time>2026-05-02T11:30:28.284Z</time></trkpt><trkpt lat="42.1946829" lon="13.6905064"><ele>688.0</ele><time>2026-05-02T11:30:29.289Z</time></trkpt><trkpt lat="42.1945968" lon="13.6904864"><ele>686.0</ele><time>2026-05-02T11:30:30.285Z</time></trkpt><trkpt lat="42.194515" lon="13.6904593"><ele>684.0</ele><time>2026-05-02T11:30:31.281Z</time></trkpt><trkpt lat="42.1944365" lon="13.6904241"><ele>682.0</ele><time>2026-05-02T11:30:32.281Z</time></trkpt><trkpt lat="42.1943648" lon="13.6903684"><ele>680.0</ele><time>2026-05-02T11:30:33.28Z</time></trkpt><trkpt lat="42.1942991" lon="13.6903036"><ele>679.5</ele><time>2026-05-02T11:30:34.274Z</time></trkpt><trkpt lat="42.1942397" lon="13.6902215"><ele>679.0</ele><time>2026-05-02T11:30:35.284Z</time></trkpt><trkpt lat="42.194185" lon="13.6901417"><ele>678.5</ele><time>2026-05-02T11:30:36.293Z</time></trkpt><trkpt lat="42.1941366" lon="13.6900487"><ele>678.0</ele><time>2026-05-02T11:30:37.29Z</time></trkpt><trkpt lat="42.1940846" lon="13.6899619"><ele>677.5</ele><time>2026-05-02T11:30:38.29Z</time></trkpt><trkpt lat="42.1940303" lon="13.6898775"><ele>677.0</ele><time>2026-05-02T11:30:39.282Z</time></trkpt><trkpt lat="42.1939917" lon="13.6897705"><ele>676.0</ele><time>2026-05-02T11:30:40.278Z</time></trkpt><trkpt lat="42.193961" lon="13.6896642"><ele>675.0</ele><time>2026-05-02T11:30:41.279Z</time></trkpt><trkpt lat="42.1939211" lon="13.6895627"><ele>674.0</ele><time>2026-05-02T11:30:42.28Z</time></trkpt><trkpt lat="42.1938711" lon="13.6894844"><ele>673.0</ele><time>2026-05-02T11:30:43.276Z</time></trkpt><trkpt lat="42.1938125" lon="13.6894316"><ele>672.0</ele><time>2026-05-02T11:30:44.288Z</time></trkpt><trkpt lat="42.1937494" lon="13.6894102"><ele>671.0</ele><time>2026-05-02T11:30:45.279Z</time></trkpt><trkpt lat="42.1936802" lon="13.6894006"><ele>671.0</ele><time>2026-05-02T11:30:46.277Z</time></trkpt><trkpt lat="42.1935734" lon="13.6894238"><ele>671.0</ele><time>2026-05-02T11:30:48.283Z</time></trkpt><trkpt lat="42.1934739" lon="13.6894279"><ele>671.0</ele><time>2026-05-02T11:30:50.279Z</time></trkpt><trkpt lat="42.1933996" lon="13.6893399"><ele>671.0</ele><time>2026-05-02T11:30:52.275Z</time></trkpt><trkpt lat="42.1933705" lon="13.689254"><ele>671.0</ele><time>2026-05-02T11:30:53.279Z</time></trkpt><trkpt lat="42.1933252" lon="13.6891504"><ele>671.0</ele><time>2026-05-02T11:30:54.282Z</time></trkpt><trkpt lat="42.1932684" lon="13.6890661"><ele>671.0</ele><time>2026-05-02T11:30:55.276Z</time></trkpt><trkpt lat="42.1932063" lon="13.6889902"><ele>671.0</ele><time>2026-05-02T11:30:56.279Z</time></trkpt><trkpt lat="42.1931468" lon="13.6889157"><ele>671.0</ele><time>2026-05-02T11:30:57.279Z</time></trkpt><trkpt lat="42.1931182" lon="13.6888376"><ele>671.0</ele><time>2026-05-02T11:30:58.269Z</time></trkpt><trkpt lat="42.1931" lon="13.6887398"><ele>671.0</ele><time>2026-05-02T11:30:59.275Z</time></trkpt><trkpt lat="42.1930933" lon="13.6886264"><ele>672.0</ele><time>2026-05-02T11:31:00.279Z</time></trkpt><trkpt lat="42.1930742" lon="13.6885177"><ele>673.0</ele><time>2026-05-02T11:31:01.278Z</time></trkpt><trkpt lat="42.1930457" lon="13.6883917"><ele>674.0</ele><time>2026-05-02T11:31:02.279Z</time></trkpt><trkpt lat="42.1930272" lon="13.6882643"><ele>675.0</ele><time>2026-05-02T11:31:03.278Z</time></trkpt><trkpt lat="42.19302" lon="13.6881412"><ele>676.0</ele><time>2026-05-02T11:31:04.269Z</time></trkpt><trkpt lat="42.1930315" lon="13.6880218"><ele>676.0</ele><time>2026-05-02T11:31:05.274Z</time></trkpt><trkpt lat="42.1930613" lon="13.6879414"><ele>676.0</ele><time>2026-05-02T11:31:06.27Z</time></trkpt><trkpt lat="42.1930906" lon="13.6878058"><ele>676.0</ele><time>2026-05-02T11:31:08.293Z</time></trkpt><trkpt lat="42.1930746" lon="13.6876988"><ele>676.0</ele><time>2026-05-02T11:31:10.286Z</time></trkpt><trkpt lat="42.1930354" lon="13.6875431"><ele>676.0</ele><time>2026-05-02T11:31:12.281Z</time></trkpt><trkpt lat="42.1930096" lon="13.6874544"><ele>676.0</ele><time>2026-05-02T11:31:13.278Z</time></trkpt><trkpt lat="42.1929788" lon="13.6873672"><ele>676.1666666666667</ele><time>2026-05-02T11:31:14.27Z</time></trkpt><trkpt lat="42.1929566" lon="13.6872564"><ele>676.3333333333334</ele><time>2026-05-02T11:31:15.279Z</time></trkpt><trkpt lat="42.1929504" lon="13.6871521"><ele>676.5</ele><time>2026-05-02T11:31:16.277Z</time></trkpt><trkpt lat="42.1929625" lon="13.6870256"><ele>676.6666666666666</ele><time>2026-05-02T11:31:17.274Z</time></trkpt><trkpt lat="42.1929856" lon="13.6869023"><ele>676.8333333333333</ele><time>2026-05-02T11:31:18.277Z</time></trkpt><trkpt lat="42.1930146" lon="13.6867898"><ele>677.0</ele><time>2026-05-02T11:31:19.277Z</time></trkpt><trkpt lat="42.1930514" lon="13.6866781"><ele>676.6</ele><time>2026-05-02T11:31:20.278Z</time></trkpt><trkpt lat="42.193084" lon="13.6865599"><ele>676.2</ele><time>2026-05-02T11:31:21.277Z</time></trkpt><trkpt lat="42.1931204" lon="13.6864472"><ele>675.8</ele><time>2026-05-02T11:31:22.281Z</time></trkpt><trkpt lat="42.1931545" lon="13.6863122"><ele>675.4</ele><time>2026-05-02T11:31:23.276Z</time></trkpt><trkpt lat="42.1931841" lon="13.6861875"><ele>675.0</ele><time>2026-05-02T11:31:24.277Z</time></trkpt><trkpt lat="42.193216" lon="13.6860665"><ele>675.0</ele><time>2026-05-02T11:31:25.275Z</time></trkpt><trkpt lat="42.1932486" lon="13.6859538"><ele>675.0</ele><time>2026-05-02T11:31:26.279Z</time></trkpt><trkpt lat="42.1932567" lon="13.6858439"><ele>675.0</ele><time>2026-05-02T11:31:27.275Z</time></trkpt><trkpt lat="42.193245" lon="13.6857352"><ele>675.0</ele><time>2026-05-02T11:31:28.273Z</time></trkpt><trkpt lat="42.1932172" lon="13.6856327"><ele>675.0</ele><time>2026-05-02T11:31:29.282Z</time></trkpt><trkpt lat="42.1931941" lon="13.6855252"><ele>675.0</ele><time>2026-05-02T11:31:30.275Z</time></trkpt><trkpt lat="42.1931827" lon="13.6854206"><ele>675.0</ele><time>2026-05-02T11:31:31.277Z</time></trkpt><trkpt lat="42.1931784" lon="13.6853132"><ele>675.0</ele><time>2026-05-02T11:31:32.278Z</time></trkpt><trkpt lat="42.1931765" lon="13.6851962"><ele>675.0</ele><time>2026-05-02T11:31:33.277Z</time></trkpt><trkpt lat="42.1931883" lon="13.6850733"><ele>675.0</ele><time>2026-05-02T11:31:34.278Z</time></trkpt><trkpt lat="42.1931966" lon="13.6849495"><ele>675.0</ele><time>2026-05-02T11:31:35.278Z</time></trkpt><trkpt lat="42.1932077" lon="13.6848356"><ele>675.0</ele><time>2026-05-02T11:31:36.279Z</time></trkpt><trkpt lat="42.1932007" lon="13.6847096"><ele>674.8</ele><time>2026-05-02T11:31:37.275Z</time></trkpt><trkpt lat="42.1931801" lon="13.6845798"><ele>674.6</ele><time>2026-05-02T11:31:38.285Z</time></trkpt><trkpt lat="42.193151" lon="13.6844527"><ele>674.4000000000001</ele><time>2026-05-02T11:31:39.279Z</time></trkpt><trkpt lat="42.1931184" lon="13.6843095"><ele>674.2</ele><time>2026-05-02T11:31:40.28Z</time></trkpt><trkpt lat="42.1930791" lon="13.6841676"><ele>674.0</ele><time>2026-05-02T11:31:41.278Z</time></trkpt><trkpt lat="42.1930463" lon="13.6840269"><ele>672.0</ele><time>2026-05-02T11:31:42.279Z</time></trkpt><trkpt lat="42.1930143" lon="13.6838783"><ele>670.0</ele><time>2026-05-02T11:31:43.279Z</time></trkpt><trkpt lat="42.1929885" lon="13.6837373"><ele>668.0</ele><time>2026-05-02T11:31:44.279Z</time></trkpt><trkpt lat="42.1929619" lon="13.6836026"><ele>666.0</ele><time>2026-05-02T11:31:45.274Z</time></trkpt><trkpt lat="42.1929267" lon="13.6834805"><ele>664.0</ele><time>2026-05-02T11:31:46.285Z</time></trkpt><trkpt lat="42.1929045" lon="13.6833471"><ele>664.0</ele><time>2026-05-02T11:31:47.274Z</time></trkpt><trkpt lat="42.1928831" lon="13.6832241"><ele>664.0</ele><time>2026-05-02T11:31:48.278Z</time></trkpt><trkpt lat="42.1928655" lon="13.6831051"><ele>664.0</ele><time>2026-05-02T11:31:49.282Z</time></trkpt><trkpt lat="42.1928452" lon="13.6829771"><ele>664.0</ele><time>2026-05-02T11:31:50.282Z</time></trkpt><trkpt lat="42.192825" lon="13.6828616"><ele>664.0</ele><time>2026-05-02T11:31:51.279Z</time></trkpt><trkpt lat="42.192815" lon="13.6827537"><ele>664.0</ele><time>2026-05-02T11:31:52.279Z</time></trkpt><trkpt lat="42.1927994" lon="13.6826498"><ele>664.8333333333334</ele><time>2026-05-02T11:31:53.277Z</time></trkpt><trkpt lat="42.1927728" lon="13.6825501"><ele>665.6666666666667</ele><time>2026-05-02T11:31:54.279Z</time></trkpt><trkpt lat="42.1927577" lon="13.6824635"><ele>666.5</ele><time>2026-05-02T11:31:55.276Z</time></trkpt><trkpt lat="42.1927418" lon="13.6823712"><ele>667.3333333333334</ele><time>2026-05-02T11:31:56.274Z</time></trkpt><trkpt lat="42.1927229" lon="13.6822881"><ele>668.1666666666666</ele><time>2026-05-02T11:31:57.281Z</time></trkpt><trkpt lat="42.1927" lon="13.6821444"><ele>669.0</ele><time>2026-05-02T11:31:59.277Z</time></trkpt><trkpt lat="42.1926643" lon="13.6820357"><ele>668.3333333333334</ele><time>2026-05-02T11:32:01.271Z</time></trkpt><trkpt lat="42.1926853" lon="13.6819255"><ele>667.6666666666666</ele><time>2026-05-02T11:32:03.283Z</time></trkpt><trkpt lat="42.1927239" lon="13.6818351"><ele>667.0</ele><time>2026-05-02T11:32:04.271Z</time></trkpt><trkpt lat="42.1927518" lon="13.6817543"><ele>666.3333333333333</ele><time>2026-05-02T11:32:05.274Z</time></trkpt><trkpt lat="42.1927696" lon="13.6816672"><ele>665.6666666666666</ele><time>2026-05-02T11:32:06.271Z</time></trkpt><trkpt lat="42.192792" lon="13.6815449"><ele>665.0</ele><time>2026-05-02T11:32:08.269Z</time></trkpt><trkpt lat="42.1927861" lon="13.6814468"><ele>665.0</ele><time>2026-05-02T11:32:10.275Z</time></trkpt><trkpt lat="42.1927727" lon="13.6813592"><ele>665.0</ele><time>2026-05-02T11:32:12.28Z</time></trkpt><trkpt lat="42.1927669" lon="13.6812165"><ele>665.0</ele><time>2026-05-02T11:32:14.271Z</time></trkpt><trkpt lat="42.1927712" lon="13.6810761"><ele>665.0</ele><time>2026-05-02T11:32:16.269Z</time></trkpt><trkpt lat="42.1928425" lon="13.6809828"><ele>665.0</ele><time>2026-05-02T11:32:18.271Z</time></trkpt><trkpt lat="42.1929033" lon="13.6809309"><ele>665.0</ele><time>2026-05-02T11:32:19.263Z</time></trkpt><trkpt lat="42.1929584" lon="13.6808751"><ele>662.4</ele><time>2026-05-02T11:32:20.269Z</time></trkpt><trkpt lat="42.1930137" lon="13.6808216"><ele>659.8</ele><time>2026-05-02T11:32:21.257Z</time></trkpt><trkpt lat="42.1930934" lon="13.6807153"><ele>657.2</ele><time>2026-05-02T11:32:23.257Z</time></trkpt><trkpt lat="42.1930964" lon="13.680591"><ele>654.6</ele><time>2026-05-02T11:32:25.263Z</time></trkpt><trkpt lat="42.1930381" lon="13.6804573"><ele>652.0</ele><time>2026-05-02T11:32:27.271Z</time></trkpt><trkpt lat="42.1930012" lon="13.680358"><ele>649.2</ele><time>2026-05-02T11:32:28.264Z</time></trkpt><trkpt lat="42.1929755" lon="13.6802483"><ele>646.4000000000001</ele><time>2026-05-02T11:32:29.275Z</time></trkpt><trkpt lat="42.1929627" lon="13.6801408"><ele>643.5999999999999</ele><time>2026-05-02T11:32:30.274Z</time></trkpt><trkpt lat="42.1929597" lon="13.6800444"><ele>640.8</ele><time>2026-05-02T11:32:31.262Z</time></trkpt><trkpt lat="42.1929409" lon="13.6799272"><ele>638.0</ele><time>2026-05-02T11:32:33.267Z</time></trkpt><trkpt lat="42.1929545" lon="13.6797593"><ele>638.0</ele><time>2026-05-02T11:32:35.269Z</time></trkpt><trkpt lat="42.1929852" lon="13.6796289"><ele>638.0</ele><time>2026-05-02T11:32:36.27Z</time></trkpt><trkpt lat="42.1930298" lon="13.6794901"><ele>638.0</ele><time>2026-05-02T11:32:37.271Z</time></trkpt><trkpt lat="42.1930853" lon="13.6793726"><ele>638.0</ele><time>2026-05-02T11:32:38.27Z</time></trkpt><trkpt lat="42.1931441" lon="13.6792563"><ele>638.0</ele><time>2026-05-02T11:32:39.266Z</time></trkpt><trkpt lat="42.1932201" lon="13.6791376"><ele>640.0</ele><time>2026-05-02T11:32:40.28Z</time></trkpt><trkpt lat="42.1932996" lon="13.6790237"><ele>642.0</ele><time>2026-05-02T11:32:41.268Z</time></trkpt><trkpt lat="42.1933809" lon="13.6789307"><ele>644.0</ele><time>2026-05-02T11:32:42.269Z</time></trkpt><trkpt lat="42.1934566" lon="13.6788455"><ele>646.0</ele><time>2026-05-02T11:32:43.278Z</time></trkpt><trkpt lat="42.1935286" lon="13.6787473"><ele>648.0</ele><time>2026-05-02T11:32:44.273Z</time></trkpt><trkpt lat="42.1935962" lon="13.6786298"><ele>646.1999999999999</ele><time>2026-05-02T11:32:45.27Z</time></trkpt><trkpt lat="42.1936756" lon="13.6785217"><ele>644.4</ele><time>2026-05-02T11:32:46.278Z</time></trkpt><trkpt lat="42.1937556" lon="13.6784085"><ele>642.5999999999999</ele><time>2026-05-02T11:32:47.277Z</time></trkpt><trkpt lat="42.1938313" lon="13.6782935"><ele>640.8</ele><time>2026-05-02T11:32:48.283Z</time></trkpt><trkpt lat="42.1939009" lon="13.6781978"><ele>639.0</ele><time>2026-05-02T11:32:49.277Z</time></trkpt><trkpt lat="42.1939625" lon="13.6780967"><ele>639.8</ele><time>2026-05-02T11:32:50.28Z</time></trkpt><trkpt lat="42.1940202" lon="13.6780021"><ele>640.5999999999999</ele><time>2026-05-02T11:32:51.283Z</time></trkpt><trkpt lat="42.1940822" lon="13.6779087"><ele>641.4</ele><time>2026-05-02T11:32:52.28Z</time></trkpt><trkpt lat="42.1941419" lon="13.677815"><ele>642.1999999999999</ele><time>2026-05-02T11:32:53.278Z</time></trkpt><trkpt lat="42.1942069" lon="13.6777263"><ele>643.0</ele><time>2026-05-02T11:32:54.278Z</time></trkpt><trkpt lat="42.1942684" lon="13.6776357"><ele>643.0</ele><time>2026-05-02T11:32:55.274Z</time></trkpt><trkpt lat="42.1943435" lon="13.6775291"><ele>643.0</ele><time>2026-05-02T11:32:56.274Z</time></trkpt><trkpt lat="42.1944315" lon="13.6774011"><ele>643.0</ele><time>2026-05-02T11:32:57.279Z</time></trkpt><trkpt lat="42.194518" lon="13.677258"><ele>643.0</ele><time>2026-05-02T11:32:58.278Z</time></trkpt><trkpt lat="42.1946009" lon="13.6771162"><ele>643.0</ele><time>2026-05-02T11:32:59.284Z</time></trkpt><trkpt lat="42.1946805" lon="13.6769732"><ele>643.0</ele><time>2026-05-02T11:33:00.279Z</time></trkpt><trkpt lat="42.1947504" lon="13.6768207"><ele>643.0</ele><time>2026-05-02T11:33:01.272Z</time></trkpt><trkpt lat="42.1948195" lon="13.6766601"><ele>643.0</ele><time>2026-05-02T11:33:02.268Z</time></trkpt><trkpt lat="42.1948731" lon="13.6765143"><ele>642.25</ele><time>2026-05-02T11:33:03.271Z</time></trkpt><trkpt lat="42.1949381" lon="13.6763725"><ele>641.5</ele><time>2026-05-02T11:33:04.273Z</time></trkpt><trkpt lat="42.1950019" lon="13.6762218"><ele>640.75</ele><time>2026-05-02T11:33:05.271Z</time></trkpt><trkpt lat="42.1950813" lon="13.6760624"><ele>640.0</ele><time>2026-05-02T11:33:06.274Z</time></trkpt><trkpt lat="42.1951679" lon="13.6758959"><ele>640.0</ele><time>2026-05-02T11:33:07.271Z</time></trkpt><trkpt lat="42.1952585" lon="13.6757333"><ele>640.0</ele><time>2026-05-02T11:33:08.268Z</time></trkpt><trkpt lat="42.1953767" lon="13.6755829"><ele>640.0</ele><time>2026-05-02T11:33:09.269Z</time></trkpt><trkpt lat="42.1955027" lon="13.6754837"><ele>640.0</ele><time>2026-05-02T11:33:10.273Z</time></trkpt><trkpt lat="42.1956378" lon="13.675382"><ele>640.0</ele><time>2026-05-02T11:33:11.28Z</time></trkpt><trkpt lat="42.1957734" lon="13.6752685"><ele>640.0</ele><time>2026-05-02T11:33:12.276Z</time></trkpt><trkpt lat="42.1958951" lon="13.6751565"><ele>639.6666666666667</ele><time>2026-05-02T11:33:13.276Z</time></trkpt><trkpt lat="42.1960164" lon="13.6750402"><ele>639.3333333333334</ele><time>2026-05-02T11:33:14.276Z</time></trkpt><trkpt lat="42.1961428" lon="13.6749029"><ele>639.0</ele><time>2026-05-02T11:33:15.276Z</time></trkpt><trkpt lat="42.1962524" lon="13.6747645"><ele>639.0</ele><time>2026-05-02T11:33:16.275Z</time></trkpt><trkpt lat="42.1963417" lon="13.6746024"><ele>639.0</ele><time>2026-05-02T11:33:17.277Z</time></trkpt><trkpt lat="42.1964384" lon="13.6744478"><ele>639.0</ele><time>2026-05-02T11:33:18.278Z</time></trkpt><trkpt lat="42.1965283" lon="13.6742954"><ele>639.0</ele><time>2026-05-02T11:33:19.288Z</time></trkpt><trkpt lat="42.1966196" lon="13.6741448"><ele>638.0</ele><time>2026-05-02T11:33:20.279Z</time></trkpt><trkpt lat="42.1967177" lon="13.673982"><ele>637.0</ele><time>2026-05-02T11:33:21.275Z</time></trkpt><trkpt lat="42.1968172" lon="13.6738179"><ele>636.0</ele><time>2026-05-02T11:33:22.284Z</time></trkpt><trkpt lat="42.1969224" lon="13.6736522"><ele>633.0</ele><time>2026-05-02T11:33:23.278Z</time></trkpt><trkpt lat="42.1970248" lon="13.673477"><ele>630.0</ele><time>2026-05-02T11:33:24.28Z</time></trkpt><trkpt lat="42.197115" lon="13.6732865"><ele>627.0</ele><time>2026-05-02T11:33:25.276Z</time></trkpt><trkpt lat="42.1971861" lon="13.673118"><ele>627.0</ele><time>2026-05-02T11:33:26.271Z</time></trkpt><trkpt lat="42.1972331" lon="13.6729263"><ele>627.0</ele><time>2026-05-02T11:33:27.279Z</time></trkpt><trkpt lat="42.1972749" lon="13.672745"><ele>627.0</ele><time>2026-05-02T11:33:28.298Z</time></trkpt><trkpt lat="42.1973295" lon="13.6726076"><ele>627.0</ele><time>2026-05-02T11:33:29.358Z</time></trkpt><trkpt lat="42.1973857" lon="13.6725197"><ele>627.6666666666666</ele><time>2026-05-02T11:33:30.356Z</time></trkpt><trkpt lat="42.1974405" lon="13.6724535"><ele>628.3333333333334</ele><time>2026-05-02T11:33:31.353Z</time></trkpt><trkpt lat="42.1975101" lon="13.6724009"><ele>629.0</ele><time>2026-05-02T11:33:32.344Z</time></trkpt><trkpt lat="42.1975967" lon="13.6723572"><ele>629.6666666666667</ele><time>2026-05-02T11:33:33.344Z</time></trkpt><trkpt lat="42.197678" lon="13.6723379"><ele>630.3333333333334</ele><time>2026-05-02T11:33:34.343Z</time></trkpt><trkpt lat="42.1977702" lon="13.6723381"><ele>631.0</ele><time>2026-05-02T11:33:35.344Z</time></trkpt><trkpt lat="42.1978395" lon="13.6723656"><ele>631.0</ele><time>2026-05-02T11:33:36.36Z</time></trkpt><trkpt lat="42.1979683" lon="13.6724023"><ele>631.0</ele><time>2026-05-02T11:33:38.353Z</time></trkpt><trkpt lat="42.1980861" lon="13.672401"><ele>631.0</ele><time>2026-05-02T11:33:39.351Z</time></trkpt><trkpt lat="42.1985073" lon="13.6724809"><ele>632.2</ele><time>2026-05-02T11:33:40.339Z</time></trkpt><trkpt lat="42.1986168" lon="13.6724301"><ele>633.4000000000001</ele><time>2026-05-02T11:33:41.344Z</time></trkpt><trkpt lat="42.1987112" lon="13.6723383"><ele>634.6</ele><time>2026-05-02T11:33:42.344Z</time></trkpt><trkpt lat="42.1987618" lon="13.6722346"><ele>635.8000000000001</ele><time>2026-05-02T11:33:43.338Z</time></trkpt><trkpt lat="42.1987702" lon="13.6720886"><ele>637.0</ele><time>2026-05-02T11:33:44.348Z</time></trkpt><trkpt lat="42.1987547" lon="13.6719502"><ele>633.0</ele><time>2026-05-02T11:33:45.348Z</time></trkpt><trkpt lat="42.1987223" lon="13.6717258"><ele>629.0</ele><time>2026-05-02T11:33:47.255Z</time></trkpt><trkpt lat="42.1987311" lon="13.6715812"><ele>625.0</ele><time>2026-05-02T11:33:48.255Z</time></trkpt><trkpt lat="42.1987618" lon="13.6714282"><ele>621.0</ele><time>2026-05-02T11:33:49.264Z</time></trkpt><trkpt lat="42.1988159" lon="13.6713018"><ele>621.0</ele><time>2026-05-02T11:33:50.271Z</time></trkpt><trkpt lat="42.198887" lon="13.6711802"><ele>621.0</ele><time>2026-05-02T11:33:51.271Z</time></trkpt><trkpt lat="42.1989756" lon="13.6710697"><ele>621.0</ele><time>2026-05-02T11:33:52.275Z</time></trkpt><trkpt lat="42.1990874" lon="13.6709679"><ele>621.0</ele><time>2026-05-02T11:33:53.276Z</time></trkpt><trkpt lat="42.1991898" lon="13.6708479"><ele>620.75</ele><time>2026-05-02T11:33:54.271Z</time></trkpt><trkpt lat="42.199283" lon="13.6707048"><ele>620.5</ele><time>2026-05-02T11:33:55.27Z</time></trkpt><trkpt lat="42.1993621" lon="13.6705361"><ele>620.25</ele><time>2026-05-02T11:33:56.276Z</time></trkpt><trkpt lat="42.1994121" lon="13.6703454"><ele>620.0</ele><time>2026-05-02T11:33:57.28Z</time></trkpt><trkpt lat="42.1994684" lon="13.6701645"><ele>620.0</ele><time>2026-05-02T11:33:58.275Z</time></trkpt><trkpt lat="42.1995558" lon="13.6699908"><ele>620.0</ele><time>2026-05-02T11:33:59.277Z</time></trkpt><trkpt lat="42.1996625" lon="13.6698505"><ele>620.0</ele><time>2026-05-02T11:34:00.274Z</time></trkpt><trkpt lat="42.1997825" lon="13.669712"><ele>622.5</ele><time>2026-05-02T11:34:01.272Z</time></trkpt><trkpt lat="42.1998877" lon="13.6695784"><ele>625.0</ele><time>2026-05-02T11:34:02.276Z</time></trkpt><trkpt lat="42.2000049" lon="13.6694528"><ele>627.5</ele><time>2026-05-02T11:34:03.275Z</time></trkpt><trkpt lat="42.2000934" lon="13.6693377"><ele>630.0</ele><time>2026-05-02T11:34:04.274Z</time></trkpt><trkpt lat="42.2001895" lon="13.6692372"><ele>630.0</ele><time>2026-05-02T11:34:05.273Z</time></trkpt><trkpt lat="42.2002684" lon="13.6691012"><ele>630.0</ele><time>2026-05-02T11:34:06.267Z</time></trkpt><trkpt lat="42.2003365" lon="13.6689735"><ele>630.0</ele><time>2026-05-02T11:34:07.266Z</time></trkpt><trkpt lat="42.2003927" lon="13.6688525"><ele>630.0</ele><time>2026-05-02T11:34:08.272Z</time></trkpt><trkpt lat="42.2004278" lon="13.6687397"><ele>630.0</ele><time>2026-05-02T11:34:09.269Z</time></trkpt><trkpt lat="42.2004553" lon="13.6686349"><ele>627.6</ele><time>2026-05-02T11:34:10.271Z</time></trkpt><trkpt lat="42.2004823" lon="13.6685379"><ele>625.2</ele><time>2026-05-02T11:34:11.265Z</time></trkpt><trkpt lat="42.200514" lon="13.6684307"><ele>622.8</ele><time>2026-05-02T11:34:13.281Z</time></trkpt><trkpt lat="42.2004414" lon="13.6684089"><ele>620.4</ele><time>2026-05-02T11:34:15.278Z</time></trkpt><trkpt lat="42.2002986" lon="13.6684926"><ele>618.0</ele><time>2026-05-02T11:34:17.271Z</time></trkpt><trkpt lat="42.200201" lon="13.6685588"><ele>621.0</ele><time>2026-05-02T11:34:18.274Z</time></trkpt><trkpt lat="42.2000921" lon="13.6686455"><ele>624.0</ele><time>2026-05-02T11:34:19.276Z</time></trkpt><trkpt lat="42.1999909" lon="13.6687541"><ele>627.0</ele><time>2026-05-02T11:34:20.284Z</time></trkpt><trkpt lat="42.1999007" lon="13.668863"><ele>630.0</ele><time>2026-05-02T11:34:21.281Z</time></trkpt><trkpt lat="42.1998151" lon="13.6689713"><ele>628.0</ele><time>2026-05-02T11:34:22.282Z</time></trkpt><trkpt lat="42.1997467" lon="13.6690793"><ele>626.0</ele><time>2026-05-02T11:34:23.281Z</time></trkpt><trkpt lat="42.1996884" lon="13.6691904"><ele>624.0</ele><time>2026-05-02T11:34:24.292Z</time></trkpt><trkpt lat="42.1996286" lon="13.6692976"><ele>622.0</ele><time>2026-05-02T11:34:25.281Z</time></trkpt><trkpt lat="42.1995684" lon="13.6693966"><ele>620.0</ele><time>2026-05-02T11:34:26.268Z</time></trkpt><trkpt lat="42.1995232" lon="13.66947"><ele>620.0</ele><time>2026-05-02T11:34:27.265Z</time></trkpt><trkpt lat="42.1994289" lon="13.6695596"><ele>620.0</ele><time>2026-05-02T11:34:29.274Z</time></trkpt><trkpt lat="42.199356" lon="13.6694914"><ele>620.0</ele><time>2026-05-02T11:34:31.28Z</time></trkpt><trkpt lat="42.199342" lon="13.6693855"><ele>620.0</ele><time>2026-05-02T11:34:32.268Z</time></trkpt><trkpt lat="42.1993575" lon="13.6692539"><ele>620.0</ele><time>2026-05-02T11:34:33.271Z</time></trkpt><trkpt lat="42.1994071" lon="13.6691004"><ele>616.5</ele><time>2026-05-02T11:34:34.264Z</time></trkpt><trkpt lat="42.1994515" lon="13.668935"><ele>613.0</ele><time>2026-05-02T11:34:35.262Z</time></trkpt><trkpt lat="42.1994687" lon="13.6687558"><ele>609.5</ele><time>2026-05-02T11:34:36.259Z</time></trkpt><trkpt lat="42.1994515" lon="13.6685718"><ele>606.0</ele><time>2026-05-02T11:34:37.263Z</time></trkpt><trkpt lat="42.1994156" lon="13.6683973"><ele>606.5</ele><time>2026-05-02T11:34:38.271Z</time></trkpt><trkpt lat="42.1993603" lon="13.6682162"><ele>607.0</ele><time>2026-05-02T11:34:39.27Z</time></trkpt><trkpt lat="42.1992969" lon="13.6680392"><ele>607.5</ele><time>2026-05-02T11:34:40.271Z</time></trkpt><trkpt lat="42.199246" lon="13.667875"><ele>608.0</ele><time>2026-05-02T11:34:41.274Z</time></trkpt><trkpt lat="42.199223" lon="13.6677257"><ele>608.0</ele><time>2026-05-02T11:34:42.27Z</time></trkpt><trkpt lat="42.199201" lon="13.6676199"><ele>608.0</ele><time>2026-05-02T11:34:43.272Z</time></trkpt><trkpt lat="42.199189" lon="13.6675232"><ele>608.0</ele><time>2026-05-02T11:34:44.273Z</time></trkpt><trkpt lat="42.1991854" lon="13.6673978"><ele>608.0</ele><time>2026-05-02T11:34:46.263Z</time></trkpt><trkpt lat="42.1992236" lon="13.6672478"><ele>608.0</ele><time>2026-05-02T11:34:48.273Z</time></trkpt><trkpt lat="42.1992461" lon="13.6671559"><ele>608.0</ele><time>2026-05-02T11:34:49.268Z</time></trkpt><trkpt lat="42.199281" lon="13.6670451"><ele>608.1666666666666</ele><time>2026-05-02T11:34:50.27Z</time></trkpt><trkpt lat="42.1993128" lon="13.6669315"><ele>608.3333333333333</ele><time>2026-05-02T11:34:51.269Z</time></trkpt><trkpt lat="42.1993194" lon="13.6668191"><ele>608.5</ele><time>2026-05-02T11:34:52.255Z</time></trkpt><trkpt lat="42.1992979" lon="13.6666888"><ele>608.6666666666666</ele><time>2026-05-02T11:34:53.265Z</time></trkpt><trkpt lat="42.1992711" lon="13.6665695"><ele>608.8333333333334</ele><time>2026-05-02T11:34:54.272Z</time></trkpt><trkpt lat="42.1992487" lon="13.6664673"><ele>609.0</ele><time>2026-05-02T11:34:55.268Z</time></trkpt><trkpt lat="42.1992355" lon="13.6663706"><ele>609.0</ele><time>2026-05-02T11:34:56.27Z</time></trkpt><trkpt lat="42.1992339" lon="13.6662643"><ele>609.0</ele><time>2026-05-02T11:34:57.273Z</time></trkpt><trkpt lat="42.1992514" lon="13.6661557"><ele>609.0</ele><time>2026-05-02T11:34:58.271Z</time></trkpt><trkpt lat="42.1992742" lon="13.6660541"><ele>609.0</ele><time>2026-05-02T11:34:59.275Z</time></trkpt><trkpt lat="42.1993083" lon="13.6659381"><ele>609.0</ele><time>2026-05-02T11:35:00.275Z</time></trkpt><trkpt lat="42.1993556" lon="13.665832"><ele>609.0</ele><time>2026-05-02T11:35:01.27Z</time></trkpt><trkpt lat="42.1994137" lon="13.6657367"><ele>608.3333333333334</ele><time>2026-05-02T11:35:02.272Z</time></trkpt><trkpt lat="42.1994755" lon="13.6656428"><ele>607.6666666666666</ele><time>2026-05-02T11:35:03.269Z</time></trkpt><trkpt lat="42.1995288" lon="13.6655583"><ele>607.0</ele><time>2026-05-02T11:35:04.276Z</time></trkpt><trkpt lat="42.1995789" lon="13.6654698"><ele>606.3333333333333</ele><time>2026-05-02T11:35:05.277Z</time></trkpt><trkpt lat="42.1996329" lon="13.6653718"><ele>605.6666666666666</ele><time>2026-05-02T11:35:06.274Z</time></trkpt><trkpt lat="42.1996848" lon="13.6652822"><ele>605.0</ele><time>2026-05-02T11:35:07.271Z</time></trkpt><trkpt lat="42.1997465" lon="13.6652046"><ele>605.0</ele><time>2026-05-02T11:35:08.276Z</time></trkpt><trkpt lat="42.1998113" lon="13.6651236"><ele>605.0</ele><time>2026-05-02T11:35:09.273Z</time></trkpt><trkpt lat="42.1998776" lon="13.6650564"><ele>605.0</ele><time>2026-05-02T11:35:10.277Z</time></trkpt><trkpt lat="42.1999413" lon="13.6649952"><ele>605.0</ele><time>2026-05-02T11:35:11.276Z</time></trkpt><trkpt lat="42.2000028" lon="13.6649358"><ele>605.0</ele><time>2026-05-02T11:35:12.277Z</time></trkpt><trkpt lat="42.2000676" lon="13.6648948"><ele>605.0</ele><time>2026-05-02T11:35:13.279Z</time></trkpt><trkpt lat="42.2001336" lon="13.6648575"><ele>605.0</ele><time>2026-05-02T11:35:14.282Z</time></trkpt><trkpt lat="42.2001926" lon="13.6648135"><ele>605.0</ele><time>2026-05-02T11:35:15.287Z</time></trkpt><trkpt lat="42.2002566" lon="13.6647686"><ele>605.0</ele><time>2026-05-02T11:35:16.271Z</time></trkpt><trkpt lat="42.200322" lon="13.6647529"><ele>605.0</ele><time>2026-05-02T11:35:17.278Z</time></trkpt><trkpt lat="42.2003928" lon="13.6647419"><ele>605.0</ele><time>2026-05-02T11:35:18.281Z</time></trkpt><trkpt lat="42.2004526" lon="13.6647137"><ele>605.0</ele><time>2026-05-02T11:35:19.274Z</time></trkpt><trkpt lat="42.2005141" lon="13.6646706"><ele>605.0</ele><time>2026-05-02T11:35:20.281Z</time></trkpt><trkpt lat="42.2005756" lon="13.6646198"><ele>605.0</ele><time>2026-05-02T11:35:21.275Z</time></trkpt><trkpt lat="42.2006363" lon="13.6645683"><ele>605.0</ele><time>2026-05-02T11:35:22.284Z</time></trkpt><trkpt lat="42.2007018" lon="13.6645242"><ele>605.0</ele><time>2026-05-02T11:35:23.273Z</time></trkpt><trkpt lat="42.2007709" lon="13.6644825"><ele>605.0</ele><time>2026-05-02T11:35:24.274Z</time></trkpt><trkpt lat="42.2008433" lon="13.6644402"><ele>605.0</ele><time>2026-05-02T11:35:25.275Z</time></trkpt><trkpt lat="42.200908" lon="13.664385"><ele>605.0</ele><time>2026-05-02T11:35:26.266Z</time></trkpt><trkpt lat="42.200967" lon="13.6643043"><ele>601.6666666666666</ele><time>2026-05-02T11:35:27.267Z</time></trkpt><trkpt lat="42.2010287" lon="13.6642219"><ele>598.3333333333333</ele><time>2026-05-02T11:35:28.267Z</time></trkpt><trkpt lat="42.2010998" lon="13.6641424"><ele>595.0</ele><time>2026-05-02T11:35:29.274Z</time></trkpt><trkpt lat="42.2011723" lon="13.664083"><ele>591.6666666666666</ele><time>2026-05-02T11:35:30.268Z</time></trkpt><trkpt lat="42.2012382" lon="13.6640437"><ele>588.3333333333334</ele><time>2026-05-02T11:35:31.272Z</time></trkpt><trkpt lat="42.2013101" lon="13.6640274"><ele>585.0</ele><time>2026-05-02T11:35:32.267Z</time></trkpt><trkpt lat="42.2013884" lon="13.6640073"><ele>585.0</ele><time>2026-05-02T11:35:33.261Z</time></trkpt><trkpt lat="42.2014917" lon="13.6639778"><ele>585.0</ele><time>2026-05-02T11:35:34.271Z</time></trkpt><trkpt lat="42.2016019" lon="13.6639556"><ele>585.0</ele><time>2026-05-02T11:35:35.271Z</time></trkpt><trkpt lat="42.2017178" lon="13.6639174"><ele>585.0</ele><time>2026-05-02T11:35:36.273Z</time></trkpt><trkpt lat="42.2018209" lon="13.6638766"><ele>585.0</ele><time>2026-05-02T11:35:37.274Z</time></trkpt><trkpt lat="42.201891" lon="13.6638311"><ele>584.2</ele><time>2026-05-02T11:35:38.269Z</time></trkpt><trkpt lat="42.2019372" lon="13.6637649"><ele>583.4</ele><time>2026-05-02T11:35:39.265Z</time></trkpt><trkpt lat="42.2020011" lon="13.6636126"><ele>582.6</ele><time>2026-05-02T11:35:41.266Z</time></trkpt><trkpt lat="42.2020504" lon="13.6635092"><ele>581.8</ele><time>2026-05-02T11:35:42.272Z</time></trkpt><trkpt lat="42.2020986" lon="13.6634003"><ele>581.0</ele><time>2026-05-02T11:35:43.27Z</time></trkpt><trkpt lat="42.2021428" lon="13.6632836"><ele>578.0</ele><time>2026-05-02T11:35:44.274Z</time></trkpt><trkpt lat="42.2021927" lon="13.6631611"><ele>575.0</ele><time>2026-05-02T11:35:45.274Z</time></trkpt><trkpt lat="42.2022465" lon="13.6630298"><ele>572.0</ele><time>2026-05-02T11:35:46.291Z</time></trkpt><trkpt lat="42.2023069" lon="13.6628814"><ele>569.0</ele><time>2026-05-02T11:35:47.275Z</time></trkpt><trkpt lat="42.2023565" lon="13.6627385"><ele>569.0</ele><time>2026-05-02T11:35:48.275Z</time></trkpt><trkpt lat="42.2023909" lon="13.662594"><ele>569.0</ele><time>2026-05-02T11:35:49.281Z</time></trkpt><trkpt lat="42.2024156" lon="13.6624433"><ele>569.0</ele><time>2026-05-02T11:35:50.284Z</time></trkpt><trkpt lat="42.202456" lon="13.6622969"><ele>569.0</ele><time>2026-05-02T11:35:51.279Z</time></trkpt><trkpt lat="42.2025042" lon="13.6621445"><ele>569.0</ele><time>2026-05-02T11:35:52.285Z</time></trkpt><trkpt lat="42.2025504" lon="13.6619839"><ele>569.0</ele><time>2026-05-02T11:35:53.281Z</time></trkpt><trkpt lat="42.2025939" lon="13.6618239"><ele>569.0</ele><time>2026-05-02T11:35:54.277Z</time></trkpt><trkpt lat="42.202623" lon="13.6616802"><ele>569.0</ele><time>2026-05-02T11:35:55.276Z</time></trkpt><trkpt lat="42.2026478" lon="13.6615403"><ele>568.2</ele><time>2026-05-02T11:35:56.278Z</time></trkpt><trkpt lat="42.2026957" lon="13.6614128"><ele>567.4</ele><time>2026-05-02T11:35:57.274Z</time></trkpt><trkpt lat="42.2027504" lon="13.6612856"><ele>566.6</ele><time>2026-05-02T11:35:58.279Z</time></trkpt><trkpt lat="42.2028016" lon="13.6611533"><ele>565.8</ele><time>2026-05-02T11:35:59.28Z</time></trkpt><trkpt lat="42.2028519" lon="13.6610034"><ele>565.0</ele><time>2026-05-02T11:36:00.283Z</time></trkpt><trkpt lat="42.2028903" lon="13.6608615"><ele>564.3333333333334</ele><time>2026-05-02T11:36:01.277Z</time></trkpt><trkpt lat="42.2029181" lon="13.6607341"><ele>563.6666666666667</ele><time>2026-05-02T11:36:02.28Z</time></trkpt><trkpt lat="42.2029426" lon="13.6606106"><ele>563.0</ele><time>2026-05-02T11:36:03.277Z</time></trkpt><trkpt lat="42.2029649" lon="13.6604978"><ele>562.3333333333334</ele><time>2026-05-02T11:36:04.275Z</time></trkpt><trkpt lat="42.2029781" lon="13.6603823"><ele>561.6666666666666</ele><time>2026-05-02T11:36:05.275Z</time></trkpt><trkpt lat="42.2029904" lon="13.6602754"><ele>561.0</ele><time>2026-05-02T11:36:06.277Z</time></trkpt><trkpt lat="42.2030071" lon="13.6601648"><ele>560.0</ele><time>2026-05-02T11:36:07.272Z</time></trkpt><trkpt lat="42.2030311" lon="13.6600562"><ele>559.0</ele><time>2026-05-02T11:36:08.271Z</time></trkpt><trkpt lat="42.2030694" lon="13.6599517"><ele>558.0</ele><time>2026-05-02T11:36:09.277Z</time></trkpt><trkpt lat="42.2031082" lon="13.6598476"><ele>557.0</ele><time>2026-05-02T11:36:10.28Z</time></trkpt><trkpt lat="42.2031527" lon="13.6597323"><ele>556.0</ele><time>2026-05-02T11:36:11.278Z</time></trkpt><trkpt lat="42.2032013" lon="13.6596167"><ele>556.0</ele><time>2026-05-02T11:36:12.285Z</time></trkpt><trkpt lat="42.2032364" lon="13.6594969"><ele>556.0</ele><time>2026-05-02T11:36:13.282Z</time></trkpt><trkpt lat="42.2032733" lon="13.6593591"><ele>556.0</ele><time>2026-05-02T11:36:14.271Z</time></trkpt><trkpt lat="42.2033197" lon="13.6592305"><ele>556.0</ele><time>2026-05-02T11:36:15.278Z</time></trkpt><trkpt lat="42.2033693" lon="13.6591141"><ele>556.0</ele><time>2026-05-02T11:36:16.281Z</time></trkpt><trkpt lat="42.2034072" lon="13.6590194"><ele>554.0</ele><time>2026-05-02T11:36:17.273Z</time></trkpt><trkpt lat="42.2034433" lon="13.6589458"><ele>552.0</ele><time>2026-05-02T11:36:18.276Z</time></trkpt><trkpt lat="42.2035105" lon="13.6588195"><ele>550.0</ele><time>2026-05-02T11:36:20.275Z</time></trkpt><trkpt lat="42.2035631" lon="13.6587185"><ele>548.0</ele><time>2026-05-02T11:36:22.274Z</time></trkpt><trkpt lat="42.2035655" lon="13.658624"><ele>546.0</ele><time>2026-05-02T11:36:26.29Z</time></trkpt><trkpt lat="42.2035219" lon="13.6585292"><ele>544.0</ele><time>2026-05-02T11:36:28.281Z</time></trkpt><trkpt lat="42.2034526" lon="13.6584956"><ele>541.6</ele><time>2026-05-02T11:36:29.275Z</time></trkpt><trkpt lat="42.2033733" lon="13.6584656"><ele>539.2</ele><time>2026-05-02T11:36:30.281Z</time></trkpt><trkpt lat="42.2033099" lon="13.6584383"><ele>536.8000000000001</ele><time>2026-05-02T11:36:31.281Z</time></trkpt><trkpt lat="42.2032022" lon="13.6583953"><ele>534.4</ele><time>2026-05-02T11:36:33.279Z</time></trkpt><trkpt lat="42.2031142" lon="13.6583758"><ele>532.0</ele><time>2026-05-02T11:36:35.282Z</time></trkpt><trkpt lat="42.2030105" lon="13.6583421"><ele>531.8333333333334</ele><time>2026-05-02T11:36:38.291Z</time></trkpt><trkpt lat="42.2029353" lon="13.6582963"><ele>531.6666666666667</ele><time>2026-05-02T11:36:41.29Z</time></trkpt><trkpt lat="42.2028565" lon="13.6582371"><ele>531.5</ele><time>2026-05-02T11:36:43.293Z</time></trkpt><trkpt lat="42.2027487" lon="13.6581433"><ele>531.3333333333334</ele><time>2026-05-02T11:36:45.283Z</time></trkpt><trkpt lat="42.2026954" lon="13.6580863"><ele>531.1666666666666</ele><time>2026-05-02T11:36:46.277Z</time></trkpt><trkpt lat="42.2026412" lon="13.658023"><ele>531.0</ele><time>2026-05-02T11:36:47.283Z</time></trkpt><trkpt lat="42.2025892" lon="13.6579627"><ele>531.0</ele><time>2026-05-02T11:36:48.283Z</time></trkpt><trkpt lat="42.2025365" lon="13.6579087"><ele>531.0</ele><time>2026-05-02T11:36:49.278Z</time></trkpt><trkpt lat="42.2024755" lon="13.6578572"><ele>531.0</ele><time>2026-05-02T11:36:50.275Z</time></trkpt><trkpt lat="42.2024071" lon="13.6577954"><ele>531.0</ele><time>2026-05-02T11:36:51.282Z</time></trkpt><trkpt lat="42.2023424" lon="13.6577231"><ele>531.0</ele><time>2026-05-02T11:36:52.282Z</time></trkpt><trkpt lat="42.2022774" lon="13.6576479"><ele>531.0</ele><time>2026-05-02T11:36:53.277Z</time></trkpt><trkpt lat="42.2022164" lon="13.657579"><ele>528.2</ele><time>2026-05-02T11:36:54.278Z</time></trkpt><trkpt lat="42.2021382" lon="13.6575156"><ele>525.4000000000001</ele><time>2026-05-02T11:36:55.282Z</time></trkpt><trkpt lat="42.2020542" lon="13.6574702"><ele>522.6</ele><time>2026-05-02T11:36:56.275Z</time></trkpt><trkpt lat="42.2019559" lon="13.6574418"><ele>519.8000000000001</ele><time>2026-05-02T11:36:57.275Z</time></trkpt><trkpt lat="42.2018562" lon="13.6574343"><ele>517.0</ele><time>2026-05-02T11:36:58.276Z</time></trkpt><trkpt lat="42.201745" lon="13.6574428"><ele>517.0</ele><time>2026-05-02T11:36:59.286Z</time></trkpt><trkpt lat="42.2016285" lon="13.6574544"><ele>517.0</ele><time>2026-05-02T11:37:00.286Z</time></trkpt><trkpt lat="42.2014991" lon="13.6574887"><ele>517.0</ele><time>2026-05-02T11:37:01.276Z</time></trkpt><trkpt lat="42.2013728" lon="13.6575187"><ele>517.0</ele><time>2026-05-02T11:37:02.278Z</time></trkpt><trkpt lat="42.2012447" lon="13.6575645"><ele>517.75</ele><time>2026-05-02T11:37:03.277Z</time></trkpt><trkpt lat="42.2011209" lon="13.6576215"><ele>518.5</ele><time>2026-05-02T11:37:04.279Z</time></trkpt><trkpt lat="42.2010178" lon="13.657714"><ele>519.25</ele><time>2026-05-02T11:37:05.273Z</time></trkpt><trkpt lat="42.2009205" lon="13.6578362"><ele>520.0</ele><time>2026-05-02T11:37:06.272Z</time></trkpt><trkpt lat="42.20083" lon="13.6579614"><ele>520.0</ele><time>2026-05-02T11:37:07.27Z</time></trkpt><trkpt lat="42.200752" lon="13.6580755"><ele>520.0</ele><time>2026-05-02T11:37:08.27Z</time></trkpt><trkpt lat="42.2006618" lon="13.6581709"><ele>520.0</ele><time>2026-05-02T11:37:09.266Z</time></trkpt><trkpt lat="42.2005514" lon="13.6582485"><ele>520.0</ele><time>2026-05-02T11:37:10.266Z</time></trkpt><trkpt lat="42.2004264" lon="13.6582848"><ele>517.0</ele><time>2026-05-02T11:37:11.265Z</time></trkpt><trkpt lat="42.2002911" lon="13.6582995"><ele>514.0</ele><time>2026-05-02T11:37:12.27Z</time></trkpt><trkpt lat="42.2001625" lon="13.6583183"><ele>511.0</ele><time>2026-05-02T11:37:13.271Z</time></trkpt><trkpt lat="42.2000291" lon="13.6583374"><ele>508.0</ele><time>2026-05-02T11:37:14.271Z</time></trkpt><trkpt lat="42.1998841" lon="13.6583638"><ele>508.0</ele><time>2026-05-02T11:37:15.274Z</time></trkpt><trkpt lat="42.1997507" lon="13.6584051"><ele>508.0</ele><time>2026-05-02T11:37:16.269Z</time></trkpt><trkpt lat="42.1996196" lon="13.6584882"><ele>508.0</ele><time>2026-05-02T11:37:17.27Z</time></trkpt><trkpt lat="42.1995039" lon="13.658587"><ele>508.0</ele><time>2026-05-02T11:37:18.282Z</time></trkpt><trkpt lat="42.1993937" lon="13.6586982"><ele>508.0</ele><time>2026-05-02T11:37:19.272Z</time></trkpt><trkpt lat="42.1992881" lon="13.6588008"><ele>508.0</ele><time>2026-05-02T11:37:20.277Z</time></trkpt><trkpt lat="42.1991876" lon="13.6589186"><ele>508.0</ele><time>2026-05-02T11:37:21.274Z</time></trkpt><trkpt lat="42.199076" lon="13.6590312"><ele>508.0</ele><time>2026-05-02T11:37:22.277Z</time></trkpt><trkpt lat="42.1989689" lon="13.659139"><ele>505.25</ele><time>2026-05-02T11:37:23.274Z</time></trkpt><trkpt lat="42.1988603" lon="13.6592478"><ele>502.5</ele><time>2026-05-02T11:37:24.267Z</time></trkpt><trkpt lat="42.1987358" lon="13.6593118"><ele>499.75</ele><time>2026-05-02T11:37:25.272Z</time></trkpt><trkpt lat="42.1986115" lon="13.659316"><ele>497.0</ele><time>2026-05-02T11:37:26.279Z</time></trkpt><trkpt lat="42.1984941" lon="13.6592948"><ele>497.0</ele><time>2026-05-02T11:37:27.271Z</time></trkpt><trkpt lat="42.1983859" lon="13.659257"><ele>497.00000000000006</ele><time>2026-05-02T11:37:28.268Z</time></trkpt><trkpt lat="42.1982874" lon="13.6592052"><ele>497.00000000000006</ele><time>2026-05-02T11:37:29.281Z</time></trkpt><trkpt lat="42.1981886" lon="13.6591492"><ele>497.0</ele><time>2026-05-02T11:37:30.274Z</time></trkpt><trkpt lat="42.1981139" lon="13.6590709"><ele>497.0</ele><time>2026-05-02T11:37:31.277Z</time></trkpt><trkpt lat="42.1980891" lon="13.6589546"><ele>496.6</ele><time>2026-05-02T11:37:32.268Z</time></trkpt><trkpt lat="42.1980738" lon="13.6588333"><ele>496.20000000000005</ele><time>2026-05-02T11:37:33.273Z</time></trkpt><trkpt lat="42.198048" lon="13.6586971"><ele>495.8</ele><time>2026-05-02T11:37:34.273Z</time></trkpt><trkpt lat="42.1980083" lon="13.6585564"><ele>495.4</ele><time>2026-05-02T11:37:35.271Z</time></trkpt><trkpt lat="42.1979442" lon="13.6584153"><ele>495.0</ele><time>2026-05-02T11:37:36.27Z</time></trkpt><trkpt lat="42.1978652" lon="13.658268"><ele>494.33333333333337</ele><time>2026-05-02T11:37:37.269Z</time></trkpt><trkpt lat="42.1977747" lon="13.658115"><ele>493.6666666666667</ele><time>2026-05-02T11:37:38.272Z</time></trkpt><trkpt lat="42.1976723" lon="13.6579555"><ele>493.0</ele><time>2026-05-02T11:37:39.274Z</time></trkpt><trkpt lat="42.1975557" lon="13.6577807"><ele>493.0</ele><time>2026-05-02T11:37:40.273Z</time></trkpt><trkpt lat="42.1974469" lon="13.6576042"><ele>493.0</ele><time>2026-05-02T11:37:41.273Z</time></trkpt><trkpt lat="42.1973278" lon="13.657434"><ele>493.0</ele><time>2026-05-02T11:37:42.273Z</time></trkpt><trkpt lat="42.1972099" lon="13.6572518"><ele>493.0</ele><time>2026-05-02T11:37:43.277Z</time></trkpt><trkpt lat="42.1970891" lon="13.6570671"><ele>493.0</ele><time>2026-05-02T11:37:44.273Z</time></trkpt><trkpt lat="42.1969827" lon="13.6568998"><ele>493.0</ele><time>2026-05-02T11:37:45.274Z</time></trkpt><trkpt lat="42.1968919" lon="13.6567523"><ele>493.0</ele><time>2026-05-02T11:37:46.275Z</time></trkpt><trkpt lat="42.196802" lon="13.6566027"><ele>493.0</ele><time>2026-05-02T11:37:47.273Z</time></trkpt><trkpt lat="42.1966986" lon="13.6564518"><ele>493.0</ele><time>2026-05-02T11:37:48.276Z</time></trkpt><trkpt lat="42.1965883" lon="13.6562916"><ele>494.33333333333337</ele><time>2026-05-02T11:37:49.283Z</time></trkpt><trkpt lat="42.1964792" lon="13.6561237"><ele>495.66666666666663</ele><time>2026-05-02T11:37:50.274Z</time></trkpt><trkpt lat="42.1963698" lon="13.6559452"><ele>497.0</ele><time>2026-05-02T11:37:51.276Z</time></trkpt><trkpt lat="42.1962778" lon="13.6557805"><ele>498.3333333333333</ele><time>2026-05-02T11:37:52.275Z</time></trkpt><trkpt lat="42.1961708" lon="13.6556088"><ele>499.66666666666663</ele><time>2026-05-02T11:37:53.27Z</time></trkpt><trkpt lat="42.1960727" lon="13.6554603"><ele>501.0</ele><time>2026-05-02T11:37:54.279Z</time></trkpt><trkpt lat="42.1959667" lon="13.6552822"><ele>502.33333333333337</ele><time>2026-05-02T11:37:55.273Z</time></trkpt><trkpt lat="42.1958583" lon="13.6551119"><ele>503.6666666666667</ele><time>2026-05-02T11:37:56.271Z</time></trkpt><trkpt lat="42.1957665" lon="13.654961"><ele>505.0</ele><time>2026-05-02T11:37:57.285Z</time></trkpt><trkpt lat="42.1956928" lon="13.6547928"><ele>508.25</ele><time>2026-05-02T11:37:58.268Z</time></trkpt><trkpt lat="42.1956392" lon="13.6546039"><ele>511.5</ele><time>2026-05-02T11:37:59.279Z</time></trkpt><trkpt lat="42.1956213" lon="13.6544051"><ele>514.75</ele><time>2026-05-02T11:38:00.283Z</time></trkpt><trkpt lat="42.1956128" lon="13.6542026"><ele>518.0</ele><time>2026-05-02T11:38:01.272Z</time></trkpt><trkpt lat="42.1956594" lon="13.6538163"><ele>518.75</ele><time>2026-05-02T11:38:03.26Z</time></trkpt><trkpt lat="42.1956954" lon="13.6536274"><ele>519.5</ele><time>2026-05-02T11:38:04.269Z</time></trkpt><trkpt lat="42.1957372" lon="13.6534364"><ele>520.25</ele><time>2026-05-02T11:38:05.27Z</time></trkpt><trkpt lat="42.1957737" lon="13.6532547"><ele>521.0</ele><time>2026-05-02T11:38:06.269Z</time></trkpt><trkpt lat="42.1957982" lon="13.653062"><ele>521.0</ele><time>2026-05-02T11:38:07.269Z</time></trkpt><trkpt lat="42.1958309" lon="13.65286"><ele>521.0</ele><time>2026-05-02T11:38:08.266Z</time></trkpt><trkpt lat="42.1958666" lon="13.6526588"><ele>521.0</ele><time>2026-05-02T11:38:09.267Z</time></trkpt><trkpt lat="42.1958928" lon="13.6524416"><ele>522.6666666666666</ele><time>2026-05-02T11:38:10.271Z</time></trkpt><trkpt lat="42.195928" lon="13.6522286"><ele>524.3333333333334</ele><time>2026-05-02T11:38:11.271Z</time></trkpt><trkpt lat="42.1959675" lon="13.6520062"><ele>526.0</ele><time>2026-05-02T11:38:12.269Z</time></trkpt><trkpt lat="42.1960022" lon="13.6517843"><ele>527.6666666666667</ele><time>2026-05-02T11:38:13.273Z</time></trkpt><trkpt lat="42.1960337" lon="13.6515638"><ele>529.3333333333334</ele><time>2026-05-02T11:38:14.272Z</time></trkpt><trkpt lat="42.196077" lon="13.6513469"><ele>531.0</ele><time>2026-05-02T11:38:15.274Z</time></trkpt><trkpt lat="42.1961215" lon="13.6511185"><ele>532.3333333333334</ele><time>2026-05-02T11:38:16.275Z</time></trkpt><trkpt lat="42.1961622" lon="13.6508992"><ele>533.6666666666667</ele><time>2026-05-02T11:38:17.277Z</time></trkpt><trkpt lat="42.1962011" lon="13.6506755"><ele>535.0</ele><time>2026-05-02T11:38:18.275Z</time></trkpt><trkpt lat="42.1962334" lon="13.6504555"><ele>537.3333333333334</ele><time>2026-05-02T11:38:19.275Z</time></trkpt><trkpt lat="42.1962681" lon="13.6502248"><ele>539.6666666666666</ele><time>2026-05-02T11:38:20.285Z</time></trkpt><trkpt lat="42.1963097" lon="13.649999"><ele>542.0</ele><time>2026-05-02T11:38:21.274Z</time></trkpt><trkpt lat="42.196339" lon="13.6497682"><ele>542.0</ele><time>2026-05-02T11:38:22.28Z</time></trkpt><trkpt lat="42.1963744" lon="13.6495521"><ele>542.0</ele><time>2026-05-02T11:38:23.277Z</time></trkpt><trkpt lat="42.196408" lon="13.6493358"><ele>542.0</ele><time>2026-05-02T11:38:24.276Z</time></trkpt><trkpt lat="42.1964371" lon="13.649136"><ele>543.25</ele><time>2026-05-02T11:38:25.299Z</time></trkpt><trkpt lat="42.1964671" lon="13.6489576"><ele>544.5</ele><time>2026-05-02T11:38:26.363Z</time></trkpt><trkpt lat="42.1964923" lon="13.6487847"><ele>545.75</ele><time>2026-05-02T11:38:27.367Z</time></trkpt><trkpt lat="42.1965197" lon="13.6486139"><ele>547.0</ele><time>2026-05-02T11:38:28.358Z</time></trkpt><trkpt lat="42.1965485" lon="13.6484537"><ele>547.0</ele><time>2026-05-02T11:38:29.359Z</time></trkpt><trkpt lat="42.1965767" lon="13.6483033"><ele>547.0</ele><time>2026-05-02T11:38:30.358Z</time></trkpt><trkpt lat="42.1965934" lon="13.6481668"><ele>547.0</ele><time>2026-05-02T11:38:31.356Z</time></trkpt><trkpt lat="42.1965925" lon="13.648058"><ele>547.0</ele><time>2026-05-02T11:38:32.362Z</time></trkpt><trkpt lat="42.196532" lon="13.6479638"><ele>547.0</ele><time>2026-05-02T11:38:34.341Z</time></trkpt><trkpt lat="42.1964333" lon="13.6478907"><ele>549.2</ele><time>2026-05-02T11:38:36.255Z</time></trkpt><trkpt lat="42.196364" lon="13.6479042"><ele>551.4000000000001</ele><time>2026-05-02T11:38:43.287Z</time></trkpt><trkpt lat="42.1963111" lon="13.6479531"><ele>553.5999999999999</ele><time>2026-05-02T11:38:44.281Z</time></trkpt><trkpt lat="42.1962449" lon="13.6480289"><ele>555.8</ele><time>2026-05-02T11:38:45.27Z</time></trkpt><trkpt lat="42.1961693" lon="13.6481369"><ele>558.0</ele><time>2026-05-02T11:38:46.271Z</time></trkpt><trkpt lat="42.1960767" lon="13.6482481"><ele>558.0</ele><time>2026-05-02T11:38:47.27Z</time></trkpt><trkpt lat="42.1959764" lon="13.6483541"><ele>558.0</ele><time>2026-05-02T11:38:48.273Z</time></trkpt><trkpt lat="42.195857" lon="13.6484541"><ele>558.0</ele><time>2026-05-02T11:38:49.27Z</time></trkpt><trkpt lat="42.1957349" lon="13.6485414"><ele>558.0</ele><time>2026-05-02T11:38:50.271Z</time></trkpt><trkpt lat="42.1956156" lon="13.6486152"><ele>560.75</ele><time>2026-05-02T11:38:51.275Z</time></trkpt><trkpt lat="42.1954792" lon="13.6486793"><ele>563.5</ele><time>2026-05-02T11:38:52.267Z</time></trkpt><trkpt lat="42.1953465" lon="13.6487566"><ele>566.25</ele><time>2026-05-02T11:38:53.274Z</time></trkpt><trkpt lat="42.1952211" lon="13.6488681"><ele>569.0</ele><time>2026-05-02T11:38:54.272Z</time></trkpt><trkpt lat="42.1951371" lon="13.6489913"><ele>569.0</ele><time>2026-05-02T11:38:55.262Z</time></trkpt><trkpt lat="42.1950689" lon="13.6491334"><ele>569.0</ele><time>2026-05-02T11:38:56.266Z</time></trkpt><trkpt lat="42.1950257" lon="13.6492962"><ele>569.0</ele><time>2026-05-02T11:38:57.27Z</time></trkpt><trkpt lat="42.1949657" lon="13.6494491"><ele>569.0</ele><time>2026-05-02T11:38:58.274Z</time></trkpt><trkpt lat="42.1948944" lon="13.6496095"><ele>573.0</ele><time>2026-05-02T11:38:59.277Z</time></trkpt><trkpt lat="42.1948302" lon="13.6497573"><ele>577.0</ele><time>2026-05-02T11:39:00.272Z</time></trkpt><trkpt lat="42.1947446" lon="13.6499027"><ele>581.0</ele><time>2026-05-02T11:39:01.269Z</time></trkpt><trkpt lat="42.1946563" lon="13.6500409"><ele>585.0</ele><time>2026-05-02T11:39:02.266Z</time></trkpt><trkpt lat="42.1945476" lon="13.6501479"><ele>585.0</ele><time>2026-05-02T11:39:03.258Z</time></trkpt><trkpt lat="42.1944253" lon="13.6502323"><ele>585.0</ele><time>2026-05-02T11:39:04.269Z</time></trkpt><trkpt lat="42.1942969" lon="13.650313"><ele>585.0</ele><time>2026-05-02T11:39:05.269Z</time></trkpt><trkpt lat="42.1941565" lon="13.6503879"><ele>585.0</ele><time>2026-05-02T11:39:06.272Z</time></trkpt><trkpt lat="42.1940308" lon="13.6504794"><ele>587.3333333333334</ele><time>2026-05-02T11:39:07.264Z</time></trkpt><trkpt lat="42.1938947" lon="13.6505821"><ele>589.6666666666667</ele><time>2026-05-02T11:39:08.267Z</time></trkpt><trkpt lat="42.1937605" lon="13.6506873"><ele>592.0</ele><time>2026-05-02T11:39:09.271Z</time></trkpt><trkpt lat="42.1936324" lon="13.6507989"><ele>592.0</ele><time>2026-05-02T11:39:10.267Z</time></trkpt><trkpt lat="42.1935195" lon="13.650911"><ele>592.0</ele><time>2026-05-02T11:39:11.264Z</time></trkpt><trkpt lat="42.1934207" lon="13.6510685"><ele>592.0</ele><time>2026-05-02T11:39:12.263Z</time></trkpt><trkpt lat="42.1933313" lon="13.6512406"><ele>592.0</ele><time>2026-05-02T11:39:13.263Z</time></trkpt><trkpt lat="42.1932798" lon="13.6514114"><ele>590.75</ele><time>2026-05-02T11:39:14.263Z</time></trkpt><trkpt lat="42.1932471" lon="13.6515558"><ele>589.5</ele><time>2026-05-02T11:39:15.258Z</time></trkpt><trkpt lat="42.1932382" lon="13.6517172"><ele>588.25</ele><time>2026-05-02T11:39:16.256Z</time></trkpt><trkpt lat="42.193291" lon="13.6518664"><ele>587.0</ele><time>2026-05-02T11:39:17.258Z</time></trkpt><trkpt lat="42.1933207" lon="13.6520114"><ele>587.0</ele><time>2026-05-02T11:39:18.265Z</time></trkpt><trkpt lat="42.1933571" lon="13.6521594"><ele>587.0</ele><time>2026-05-02T11:39:19.27Z</time></trkpt><trkpt lat="42.193385" lon="13.652321"><ele>587.0</ele><time>2026-05-02T11:39:20.267Z</time></trkpt><trkpt lat="42.1933729" lon="13.6524847"><ele>587.0</ele><time>2026-05-02T11:39:21.266Z</time></trkpt><trkpt lat="42.1933383" lon="13.65266"><ele>585.75</ele><time>2026-05-02T11:39:22.278Z</time></trkpt><trkpt lat="42.1933076" lon="13.6528342"><ele>584.5</ele><time>2026-05-02T11:39:23.269Z</time></trkpt><trkpt lat="42.1932744" lon="13.6530009"><ele>583.25</ele><time>2026-05-02T11:39:24.273Z</time></trkpt><trkpt lat="42.1932298" lon="13.6531371"><ele>582.0</ele><time>2026-05-02T11:39:25.268Z</time></trkpt><trkpt lat="42.1931687" lon="13.6532372"><ele>583.8333333333334</ele><time>2026-05-02T11:39:26.271Z</time></trkpt><trkpt lat="42.193096" lon="13.6532804"><ele>585.6666666666666</ele><time>2026-05-02T11:39:27.279Z</time></trkpt><trkpt lat="42.1930272" lon="13.6532715"><ele>587.5</ele><time>2026-05-02T11:39:28.273Z</time></trkpt><trkpt lat="42.1929686" lon="13.6532003"><ele>589.3333333333333</ele><time>2026-05-02T11:39:29.283Z</time></trkpt><trkpt lat="42.192948" lon="13.6530883"><ele>591.1666666666666</ele><time>2026-05-02T11:39:30.27Z</time></trkpt><trkpt lat="42.1929637" lon="13.6529576"><ele>593.0</ele><time>2026-05-02T11:39:31.267Z</time></trkpt><trkpt lat="42.1930002" lon="13.6528044"><ele>598.0</ele><time>2026-05-02T11:39:32.269Z</time></trkpt><trkpt lat="42.1930477" lon="13.6526433"><ele>603.0</ele><time>2026-05-02T11:39:33.27Z</time></trkpt><trkpt lat="42.1930887" lon="13.6524659"><ele>608.0</ele><time>2026-05-02T11:39:34.266Z</time></trkpt><trkpt lat="42.1931076" lon="13.6522932"><ele>613.0</ele><time>2026-05-02T11:39:35.267Z</time></trkpt><trkpt lat="42.1930875" lon="13.6521529"><ele>613.0</ele><time>2026-05-02T11:39:36.273Z</time></trkpt><trkpt lat="42.1930374" lon="13.6520704"><ele>613.0</ele><time>2026-05-02T11:39:37.276Z</time></trkpt><trkpt lat="42.1929614" lon="13.6520708"><ele>613.0</ele><time>2026-05-02T11:39:38.275Z</time></trkpt><trkpt lat="42.1928838" lon="13.652125"><ele>613.0</ele><time>2026-05-02T11:39:39.264Z</time></trkpt><trkpt lat="42.1928324" lon="13.6522139"><ele>613.0</ele><time>2026-05-02T11:39:40.278Z</time></trkpt><trkpt lat="42.1928211" lon="13.6523671"><ele>613.0</ele><time>2026-05-02T11:39:41.266Z</time></trkpt><trkpt lat="42.1928095" lon="13.6525267"><ele>613.0</ele><time>2026-05-02T11:39:42.266Z</time></trkpt><trkpt lat="42.1927799" lon="13.6526847"><ele>613.0</ele><time>2026-05-02T11:39:43.275Z</time></trkpt><trkpt lat="42.1927096" lon="13.6528318"><ele>613.0</ele><time>2026-05-02T11:39:44.257Z</time></trkpt><trkpt lat="42.1926196" lon="13.6529374"><ele>613.0</ele><time>2026-05-02T11:39:45.269Z</time></trkpt><trkpt lat="42.1925101" lon="13.6529762"><ele>613.0</ele><time>2026-05-02T11:39:46.269Z</time></trkpt><trkpt lat="42.1924283" lon="13.6529572"><ele>613.0</ele><time>2026-05-02T11:39:47.261Z</time></trkpt><trkpt lat="42.1923752" lon="13.6528921"><ele>613.0</ele><time>2026-05-02T11:39:48.273Z</time></trkpt><trkpt lat="42.1923762" lon="13.6527971"><ele>613.0</ele><time>2026-05-02T11:39:49.265Z</time></trkpt><trkpt lat="42.1924165" lon="13.6527109"><ele>613.0</ele><time>2026-05-02T11:39:50.262Z</time></trkpt><trkpt lat="42.1924869" lon="13.6526276"><ele>613.0</ele><time>2026-05-02T11:39:51.261Z</time></trkpt><trkpt lat="42.1925629" lon="13.6525611"><ele>613.0</ele><time>2026-05-02T11:39:52.266Z</time></trkpt><trkpt lat="42.192641" lon="13.6524886"><ele>613.0</ele><time>2026-05-02T11:39:53.27Z</time></trkpt><trkpt lat="42.1926974" lon="13.6523915"><ele>613.0</ele><time>2026-05-02T11:39:54.263Z</time></trkpt><trkpt lat="42.192714" lon="13.6522838"><ele>613.0</ele><time>2026-05-02T11:39:55.275Z</time></trkpt><trkpt lat="42.1926712" lon="13.6521976"><ele>613.0</ele><time>2026-05-02T11:39:56.27Z</time></trkpt><trkpt lat="42.1926111" lon="13.6521666"><ele>613.0</ele><time>2026-05-02T11:39:57.276Z</time></trkpt><trkpt lat="42.1925298" lon="13.6521904"><ele>613.0</ele><time>2026-05-02T11:39:58.274Z</time></trkpt><trkpt lat="42.192441" lon="13.6522573"><ele>613.0</ele><time>2026-05-02T11:39:59.274Z</time></trkpt><trkpt lat="42.1923448" lon="13.6523494"><ele>613.0</ele><time>2026-05-02T11:40:00.272Z</time></trkpt><trkpt lat="42.1922344" lon="13.6524595"><ele>613.0</ele><time>2026-05-02T11:40:01.27Z</time></trkpt><trkpt lat="42.1921266" lon="13.652571"><ele>611.5</ele><time>2026-05-02T11:40:02.27Z</time></trkpt><trkpt lat="42.1920176" lon="13.6526695"><ele>610.0</ele><time>2026-05-02T11:40:03.264Z</time></trkpt><trkpt lat="42.1919001" lon="13.6527483"><ele>608.5</ele><time>2026-05-02T11:40:04.275Z</time></trkpt><trkpt lat="42.1917608" lon="13.6528066"><ele>607.0</ele><time>2026-05-02T11:40:05.265Z</time></trkpt><trkpt lat="42.1916117" lon="13.6528237"><ele>614.6666666666667</ele><time>2026-05-02T11:40:06.265Z</time></trkpt><trkpt lat="42.1914539" lon="13.6528349"><ele>622.3333333333334</ele><time>2026-05-02T11:40:07.268Z</time></trkpt><trkpt lat="42.1912893" lon="13.6528751"><ele>630.0</ele><time>2026-05-02T11:40:08.269Z</time></trkpt><trkpt lat="42.1911663" lon="13.6529552"><ele>630.0</ele><time>2026-05-02T11:40:09.262Z</time></trkpt><trkpt lat="42.1910392" lon="13.6530883"><ele>630.0</ele><time>2026-05-02T11:40:10.274Z</time></trkpt><trkpt lat="42.190926" lon="13.6531958"><ele>630.0</ele><time>2026-05-02T11:40:11.273Z</time></trkpt><trkpt lat="42.1908066" lon="13.6533119"><ele>630.0</ele><time>2026-05-02T11:40:12.276Z</time></trkpt><trkpt lat="42.1906536" lon="13.6533973"><ele>636.0</ele><time>2026-05-02T11:40:13.272Z</time></trkpt><trkpt lat="42.1904996" lon="13.6534745"><ele>642.0</ele><time>2026-05-02T11:40:14.277Z</time></trkpt><trkpt lat="42.1903577" lon="13.6535428"><ele>648.0</ele><time>2026-05-02T11:40:15.274Z</time></trkpt><trkpt lat="42.1902054" lon="13.6536067"><ele>649.0</ele><time>2026-05-02T11:40:16.274Z</time></trkpt><trkpt lat="42.190073" lon="13.6536553"><ele>650.0</ele><time>2026-05-02T11:40:17.275Z</time></trkpt><trkpt lat="42.1899462" lon="13.653697"><ele>651.0</ele><time>2026-05-02T11:40:18.274Z</time></trkpt><trkpt lat="42.1898378" lon="13.6537432"><ele>652.0</ele><time>2026-05-02T11:40:19.272Z</time></trkpt><trkpt lat="42.1897553" lon="13.6538049"><ele>652.0</ele><time>2026-05-02T11:40:20.263Z</time></trkpt><trkpt lat="42.1897096" lon="13.6538921"><ele>652.0</ele><time>2026-05-02T11:40:21.267Z</time></trkpt><trkpt lat="42.1896648" lon="13.6539951"><ele>652.0</ele><time>2026-05-02T11:40:22.271Z</time></trkpt><trkpt lat="42.1896665" lon="13.6541042"><ele>652.0</ele><time>2026-05-02T11:40:23.265Z</time></trkpt><trkpt lat="42.1896871" lon="13.6542295"><ele>652.0</ele><time>2026-05-02T11:40:24.275Z</time></trkpt><trkpt lat="42.1897293" lon="13.6543619"><ele>652.25</ele><time>2026-05-02T11:40:25.265Z</time></trkpt><trkpt lat="42.1897979" lon="13.6544991"><ele>652.5</ele><time>2026-05-02T11:40:26.268Z</time></trkpt><trkpt lat="42.1898697" lon="13.6546515"><ele>652.75</ele><time>2026-05-02T11:40:27.272Z</time></trkpt><trkpt lat="42.1899331" lon="13.6548041"><ele>653.0</ele><time>2026-05-02T11:40:28.274Z</time></trkpt><trkpt lat="42.1899783" lon="13.6549471"><ele>652.8</ele><time>2026-05-02T11:40:29.276Z</time></trkpt><trkpt lat="42.1900042" lon="13.6550866"><ele>652.5999999999999</ele><time>2026-05-02T11:40:30.271Z</time></trkpt><trkpt lat="42.1899965" lon="13.6552171"><ele>652.4000000000001</ele><time>2026-05-02T11:40:31.266Z</time></trkpt><trkpt lat="42.1899429" lon="13.6553139"><ele>652.2</ele><time>2026-05-02T11:40:32.278Z</time></trkpt><trkpt lat="42.1898514" lon="13.655376"><ele>652.0</ele><time>2026-05-02T11:40:33.278Z</time></trkpt><trkpt lat="42.1897224" lon="13.6554009"><ele>652.0</ele><time>2026-05-02T11:40:34.275Z</time></trkpt><trkpt lat="42.1895823" lon="13.6554257"><ele>652.0</ele><time>2026-05-02T11:40:35.272Z</time></trkpt><trkpt lat="42.1894417" lon="13.6554851"><ele>652.0</ele><time>2026-05-02T11:40:36.27Z</time></trkpt><trkpt lat="42.1892994" lon="13.6555559"><ele>652.0</ele><time>2026-05-02T11:40:37.274Z</time></trkpt><trkpt lat="42.1891492" lon="13.6556262"><ele>654.3333333333334</ele><time>2026-05-02T11:40:38.269Z</time></trkpt><trkpt lat="42.1890066" lon="13.6556957"><ele>656.6666666666666</ele><time>2026-05-02T11:40:39.268Z</time></trkpt><trkpt lat="42.1888603" lon="13.6557684"><ele>659.0</ele><time>2026-05-02T11:40:40.27Z</time></trkpt><trkpt lat="42.1887045" lon="13.6558333"><ele>659.0</ele><time>2026-05-02T11:40:41.263Z</time></trkpt><trkpt lat="42.1885401" lon="13.6558674"><ele>659.0</ele><time>2026-05-02T11:40:42.273Z</time></trkpt><trkpt lat="42.1883918" lon="13.6559297"><ele>659.0</ele><time>2026-05-02T11:40:43.273Z</time></trkpt><trkpt lat="42.1882607" lon="13.6559904"><ele>659.8333333333333</ele><time>2026-05-02T11:40:44.265Z</time></trkpt><trkpt lat="42.188166" lon="13.6560598"><ele>660.6666666666666</ele><time>2026-05-02T11:40:45.268Z</time></trkpt><trkpt lat="42.1881352" lon="13.6561521"><ele>661.5</ele><time>2026-05-02T11:40:46.263Z</time></trkpt><trkpt lat="42.1881319" lon="13.6562379"><ele>662.3333333333334</ele><time>2026-05-02T11:40:47.263Z</time></trkpt><trkpt lat="42.1881874" lon="13.6563143"><ele>663.1666666666667</ele><time>2026-05-02T11:40:48.26Z</time></trkpt><trkpt lat="42.188261" lon="13.6563756"><ele>664.0</ele><time>2026-05-02T11:40:49.258Z</time></trkpt><trkpt lat="42.1883389" lon="13.6563966"><ele>664.25</ele><time>2026-05-02T11:40:50.258Z</time></trkpt><trkpt lat="42.1884354" lon="13.6563843"><ele>664.5</ele><time>2026-05-02T11:40:51.263Z</time></trkpt><trkpt lat="42.1885511" lon="13.6563636"><ele>664.75</ele><time>2026-05-02T11:40:52.26Z</time></trkpt><trkpt lat="42.1886889" lon="13.6563439"><ele>665.0</ele><time>2026-05-02T11:40:53.254Z</time></trkpt><trkpt lat="42.1888362" lon="13.6563243"><ele>665.0</ele><time>2026-05-02T11:40:54.262Z</time></trkpt><trkpt lat="42.1889925" lon="13.6563087"><ele>665.0</ele><time>2026-05-02T11:40:55.265Z</time></trkpt><trkpt lat="42.1891469" lon="13.6562882"><ele>665.0</ele><time>2026-05-02T11:40:56.264Z</time></trkpt><trkpt lat="42.1892757" lon="13.6562686"><ele>665.0</ele><time>2026-05-02T11:40:57.276Z</time></trkpt><trkpt lat="42.1893973" lon="13.656263"><ele>664.1666666666666</ele><time>2026-05-02T11:40:58.269Z</time></trkpt><trkpt lat="42.1894782" lon="13.6563095"><ele>663.3333333333333</ele><time>2026-05-02T11:40:59.282Z</time></trkpt><trkpt lat="42.1895264" lon="13.6563923"><ele>662.5</ele><time>2026-05-02T11:41:00.281Z</time></trkpt><trkpt lat="42.1895199" lon="13.6564804"><ele>661.6666666666666</ele><time>2026-05-02T11:41:01.267Z</time></trkpt><trkpt lat="42.1894478" lon="13.6565485"><ele>660.8333333333334</ele><time>2026-05-02T11:41:02.275Z</time></trkpt><trkpt lat="42.1893732" lon="13.6565859"><ele>660.0</ele><time>2026-05-02T11:41:03.286Z</time></trkpt><trkpt lat="42.1892764" lon="13.6565696"><ele>660.0</ele><time>2026-05-02T11:41:04.278Z</time></trkpt><trkpt lat="42.1891722" lon="13.6565458"><ele>660.0</ele><time>2026-05-02T11:41:05.276Z</time></trkpt><trkpt lat="42.1890523" lon="13.6565331"><ele>660.0</ele><time>2026-05-02T11:41:06.278Z</time></trkpt><trkpt lat="42.1889267" lon="13.6565242"><ele>660.0</ele><time>2026-05-02T11:41:07.273Z</time></trkpt><trkpt lat="42.1887856" lon="13.6565176"><ele>661.6666666666666</ele><time>2026-05-02T11:41:08.279Z</time></trkpt><trkpt lat="42.1886393" lon="13.6565132"><ele>663.3333333333333</ele><time>2026-05-02T11:41:09.282Z</time></trkpt><trkpt lat="42.1884867" lon="13.6565362"><ele>665.0</ele><time>2026-05-02T11:41:10.279Z</time></trkpt><trkpt lat="42.1883263" lon="13.6565524"><ele>666.3333333333333</ele><time>2026-05-02T11:41:11.276Z</time></trkpt><trkpt lat="42.1881531" lon="13.656561"><ele>667.6666666666666</ele><time>2026-05-02T11:41:12.282Z</time></trkpt><trkpt lat="42.1879915" lon="13.656569"><ele>669.0</ele><time>2026-05-02T11:41:13.284Z</time></trkpt><trkpt lat="42.1878333" lon="13.6565955"><ele>669.0</ele><time>2026-05-02T11:41:14.281Z</time></trkpt><trkpt lat="42.1876768" lon="13.6566342"><ele>669.0</ele><time>2026-05-02T11:41:15.27Z</time></trkpt><trkpt lat="42.1875123" lon="13.6566876"><ele>669.0</ele><time>2026-05-02T11:41:16.279Z</time></trkpt><trkpt lat="42.1873556" lon="13.6567255"><ele>671.3333333333334</ele><time>2026-05-02T11:41:17.265Z</time></trkpt><trkpt lat="42.1872003" lon="13.6567736"><ele>673.6666666666667</ele><time>2026-05-02T11:41:18.272Z</time></trkpt><trkpt lat="42.1870526" lon="13.6568094"><ele>676.0</ele><time>2026-05-02T11:41:19.271Z</time></trkpt><trkpt lat="42.186897" lon="13.6568625"><ele>676.0</ele><time>2026-05-02T11:41:20.27Z</time></trkpt><trkpt lat="42.1867463" lon="13.656901"><ele>676.0</ele><time>2026-05-02T11:41:21.262Z</time></trkpt><trkpt lat="42.1865987" lon="13.6569343"><ele>676.0</ele><time>2026-05-02T11:41:22.263Z</time></trkpt><trkpt lat="42.1864266" lon="13.6569652"><ele>682.6666666666667</ele><time>2026-05-02T11:41:23.261Z</time></trkpt><trkpt lat="42.1862668" lon="13.656997"><ele>689.3333333333334</ele><time>2026-05-02T11:41:24.263Z</time></trkpt><trkpt lat="42.1861132" lon="13.6570331"><ele>696.0</ele><time>2026-05-02T11:41:25.258Z</time></trkpt><trkpt lat="42.1859351" lon="13.6570737"><ele>696.0</ele><time>2026-05-02T11:41:26.268Z</time></trkpt><trkpt lat="42.1857798" lon="13.6571169"><ele>696.0</ele><time>2026-05-02T11:41:27.259Z</time></trkpt><trkpt lat="42.1856181" lon="13.6571649"><ele>696.0</ele><time>2026-05-02T11:41:28.267Z</time></trkpt><trkpt lat="42.1854519" lon="13.6572133"><ele>694.0</ele><time>2026-05-02T11:41:29.259Z</time></trkpt><trkpt lat="42.1852997" lon="13.6572677"><ele>692.0</ele><time>2026-05-02T11:41:30.263Z</time></trkpt><trkpt lat="42.1851566" lon="13.6573545"><ele>690.0</ele><time>2026-05-02T11:41:31.266Z</time></trkpt><trkpt lat="42.1850273" lon="13.6574678"><ele>690.0</ele><time>2026-05-02T11:41:32.271Z</time></trkpt><trkpt lat="42.1848893" lon="13.6576247"><ele>690.0</ele><time>2026-05-02T11:41:33.27Z</time></trkpt><trkpt lat="42.1847654" lon="13.6577877"><ele>690.0</ele><time>2026-05-02T11:41:34.266Z</time></trkpt><trkpt lat="42.1846282" lon="13.6579286"><ele>688.6666666666666</ele><time>2026-05-02T11:41:35.277Z</time></trkpt><trkpt lat="42.1844957" lon="13.6580614"><ele>687.3333333333333</ele><time>2026-05-02T11:41:36.272Z</time></trkpt><trkpt lat="42.184373" lon="13.6581912"><ele>686.0</ele><time>2026-05-02T11:41:37.278Z</time></trkpt><trkpt lat="42.1842488" lon="13.6583087"><ele>686.0</ele><time>2026-05-02T11:41:38.3Z</time></trkpt><trkpt lat="42.1841225" lon="13.6584189"><ele>686.0</ele><time>2026-05-02T11:41:39.36Z</time></trkpt><trkpt lat="42.183989" lon="13.6585293"><ele>686.0</ele><time>2026-05-02T11:41:40.366Z</time></trkpt><trkpt lat="42.1838409" lon="13.6586342"><ele>684.3333333333333</ele><time>2026-05-02T11:41:41.364Z</time></trkpt><trkpt lat="42.1836836" lon="13.6587347"><ele>682.6666666666666</ele><time>2026-05-02T11:41:42.362Z</time></trkpt><trkpt lat="42.1835187" lon="13.6588298"><ele>681.0</ele><time>2026-05-02T11:41:43.369Z</time></trkpt><trkpt lat="42.1833491" lon="13.6589228"><ele>683.3333333333334</ele><time>2026-05-02T11:41:44.363Z</time></trkpt><trkpt lat="42.1831721" lon="13.6590153"><ele>685.6666666666667</ele><time>2026-05-02T11:41:45.366Z</time></trkpt><trkpt lat="42.1829965" lon="13.6591107"><ele>688.0</ele><time>2026-05-02T11:41:46.368Z</time></trkpt><trkpt lat="42.1828156" lon="13.6592069"><ele>688.0</ele><time>2026-05-02T11:41:47.369Z</time></trkpt><trkpt lat="42.1826346" lon="13.6593021"><ele>688.0</ele><time>2026-05-02T11:41:48.381Z</time></trkpt><trkpt lat="42.1824563" lon="13.6594019"><ele>688.0</ele><time>2026-05-02T11:41:49.38Z</time></trkpt><trkpt lat="42.1822762" lon="13.6594981"><ele>687.0</ele><time>2026-05-02T11:41:50.361Z</time></trkpt><trkpt lat="42.1821088" lon="13.6596224"><ele>686.0</ele><time>2026-05-02T11:41:51.362Z</time></trkpt><trkpt lat="42.1819586" lon="13.6597586"><ele>685.0</ele><time>2026-05-02T11:41:52.361Z</time></trkpt><trkpt lat="42.1818137" lon="13.6599012"><ele>685.0</ele><time>2026-05-02T11:41:53.363Z</time></trkpt><trkpt lat="42.1816744" lon="13.6600497"><ele>685.0</ele><time>2026-05-02T11:41:54.365Z</time></trkpt><trkpt lat="42.1815341" lon="13.6602107"><ele>685.0</ele><time>2026-05-02T11:41:55.367Z</time></trkpt><trkpt lat="42.1813979" lon="13.6603787"><ele>686.3333333333334</ele><time>2026-05-02T11:41:56.363Z</time></trkpt><trkpt lat="42.1812598" lon="13.66055"><ele>687.6666666666666</ele><time>2026-05-02T11:41:57.37Z</time></trkpt><trkpt lat="42.181124" lon="13.6607309"><ele>689.0</ele><time>2026-05-02T11:41:58.361Z</time></trkpt><trkpt lat="42.181" lon="13.6609066"><ele>689.0</ele><time>2026-05-02T11:41:59.37Z</time></trkpt><trkpt lat="42.1808882" lon="13.6610779"><ele>689.0</ele><time>2026-05-02T11:42:00.369Z</time></trkpt><trkpt lat="42.1807808" lon="13.6612455"><ele>689.0</ele><time>2026-05-02T11:42:01.363Z</time></trkpt><trkpt lat="42.1806635" lon="13.6614093"><ele>689.3333333333333</ele><time>2026-05-02T11:42:02.36Z</time></trkpt><trkpt lat="42.1805337" lon="13.6615723"><ele>689.6666666666666</ele><time>2026-05-02T11:42:03.362Z</time></trkpt><trkpt lat="42.1803944" lon="13.6617173"><ele>690.0</ele><time>2026-05-02T11:42:04.369Z</time></trkpt><trkpt lat="42.1802509" lon="13.6618581"><ele>688.6666666666666</ele><time>2026-05-02T11:42:05.352Z</time></trkpt><trkpt lat="42.1801042" lon="13.6620026"><ele>687.3333333333333</ele><time>2026-05-02T11:42:06.354Z</time></trkpt><trkpt lat="42.1799631" lon="13.6621542"><ele>686.0</ele><time>2026-05-02T11:42:07.348Z</time></trkpt><trkpt lat="42.179827" lon="13.6623115"><ele>686.0</ele><time>2026-05-02T11:42:08.354Z</time></trkpt><trkpt lat="42.1796895" lon="13.6624745"><ele>686.0</ele><time>2026-05-02T11:42:09.369Z</time></trkpt><trkpt lat="42.1795536" lon="13.6626394"><ele>686.0</ele><time>2026-05-02T11:42:10.367Z</time></trkpt><trkpt lat="42.1794231" lon="13.6628087"><ele>686.3333333333333</ele><time>2026-05-02T11:42:11.365Z</time></trkpt><trkpt lat="42.1792986" lon="13.6629756"><ele>686.6666666666666</ele><time>2026-05-02T11:42:12.36Z</time></trkpt><trkpt lat="42.1791812" lon="13.6631356"><ele>687.0</ele><time>2026-05-02T11:42:13.368Z</time></trkpt><trkpt lat="42.1790716" lon="13.6632897"><ele>688.6666666666666</ele><time>2026-05-02T11:42:14.37Z</time></trkpt><trkpt lat="42.1789656" lon="13.6634349"><ele>690.3333333333333</ele><time>2026-05-02T11:42:15.363Z</time></trkpt><trkpt lat="42.1788562" lon="13.6635708"><ele>692.0</ele><time>2026-05-02T11:42:16.362Z</time></trkpt><trkpt lat="42.1787405" lon="13.6636995"><ele>692.6666666666666</ele><time>2026-05-02T11:42:17.36Z</time></trkpt><trkpt lat="42.1786197" lon="13.6638346"><ele>693.3333333333334</ele><time>2026-05-02T11:42:18.347Z</time></trkpt><trkpt lat="42.1784876" lon="13.6639519"><ele>694.0</ele><time>2026-05-02T11:42:19.348Z</time></trkpt><trkpt lat="42.1783509" lon="13.6640646"><ele>694.0</ele><time>2026-05-02T11:42:20.348Z</time></trkpt><trkpt lat="42.1782101" lon="13.6641699"><ele>694.0</ele><time>2026-05-02T11:42:21.347Z</time></trkpt><trkpt lat="42.1780659" lon="13.6642702"><ele>694.0</ele><time>2026-05-02T11:42:22.367Z</time></trkpt><trkpt lat="42.1779241" lon="13.6643705"><ele>696.6666666666667</ele><time>2026-05-02T11:42:23.363Z</time></trkpt><trkpt lat="42.177781" lon="13.6644725"><ele>699.3333333333334</ele><time>2026-05-02T11:42:24.371Z</time></trkpt><trkpt lat="42.1776379" lon="13.6645801"><ele>702.0</ele><time>2026-05-02T11:42:25.364Z</time></trkpt><trkpt lat="42.1774987" lon="13.6646958"><ele>702.0</ele><time>2026-05-02T11:42:26.363Z</time></trkpt><trkpt lat="42.1773651" lon="13.6648181"><ele>702.0</ele><time>2026-05-02T11:42:27.361Z</time></trkpt><trkpt lat="42.1772464" lon="13.6649521"><ele>702.0</ele><time>2026-05-02T11:42:28.363Z</time></trkpt><trkpt lat="42.1771435" lon="13.6650934"><ele>704.25</ele><time>2026-05-02T11:42:29.36Z</time></trkpt><trkpt lat="42.1770432" lon="13.6652373"><ele>706.5</ele><time>2026-05-02T11:42:30.35Z</time></trkpt><trkpt lat="42.176939" lon="13.6653706"><ele>708.75</ele><time>2026-05-02T11:42:31.347Z</time></trkpt><trkpt lat="42.1768301" lon="13.6654937"><ele>711.0</ele><time>2026-05-02T11:42:32.348Z</time></trkpt><trkpt lat="42.1767146" lon="13.6656132"><ele>711.5999999999999</ele><time>2026-05-02T11:42:33.345Z</time></trkpt><trkpt lat="42.1766102" lon="13.6657215"><ele>712.2</ele><time>2026-05-02T11:42:34.361Z</time></trkpt><trkpt lat="42.1765265" lon="13.6658149"><ele>712.8</ele><time>2026-05-02T11:42:35.364Z</time></trkpt><trkpt lat="42.176447" lon="13.6658978"><ele>713.4000000000001</ele><time>2026-05-02T11:42:36.353Z</time></trkpt><trkpt lat="42.176384" lon="13.6659693"><ele>714.0</ele><time>2026-05-02T11:42:37.354Z</time></trkpt><trkpt lat="42.1763271" lon="13.6660302"><ele>716.6</ele><time>2026-05-02T11:42:38.352Z</time></trkpt><trkpt lat="42.1762547" lon="13.6660651"><ele>719.2</ele><time>2026-05-02T11:42:39.359Z</time></trkpt><trkpt lat="42.1761719" lon="13.6660695"><ele>721.8000000000001</ele><time>2026-05-02T11:42:40.361Z</time></trkpt><trkpt lat="42.1760867" lon="13.6660596"><ele>724.4000000000001</ele><time>2026-05-02T11:42:41.345Z</time></trkpt><trkpt lat="42.1759887" lon="13.6660285"><ele>727.0</ele><time>2026-05-02T11:42:42.342Z</time></trkpt><trkpt lat="42.1758843" lon="13.6659891"><ele>727.0</ele><time>2026-05-02T11:42:43.347Z</time></trkpt><trkpt lat="42.1757715" lon="13.6659512"><ele>727.0</ele><time>2026-05-02T11:42:44.352Z</time></trkpt><trkpt lat="42.1756513" lon="13.6659126"><ele>727.0</ele><time>2026-05-02T11:42:45.367Z</time></trkpt><trkpt lat="42.1755322" lon="13.6658638"><ele>727.0</ele><time>2026-05-02T11:42:46.365Z</time></trkpt><trkpt lat="42.1754166" lon="13.6658044"><ele>729.25</ele><time>2026-05-02T11:42:47.358Z</time></trkpt><trkpt lat="42.1753023" lon="13.6657341"><ele>731.5</ele><time>2026-05-02T11:42:48.365Z</time></trkpt><trkpt lat="42.1751794" lon="13.665654"><ele>733.75</ele><time>2026-05-02T11:42:49.348Z</time></trkpt><trkpt lat="42.1750505" lon="13.6655641"><ele>736.0</ele><time>2026-05-02T11:42:50.352Z</time></trkpt><trkpt lat="42.1749139" lon="13.6654709"><ele>739.0</ele><time>2026-05-02T11:42:51.348Z</time></trkpt><trkpt lat="42.1747689" lon="13.6653695"><ele>742.0</ele><time>2026-05-02T11:42:52.351Z</time></trkpt><trkpt lat="42.1746192" lon="13.6652665"><ele>745.0</ele><time>2026-05-02T11:42:53.361Z</time></trkpt><trkpt lat="42.1744691" lon="13.6651626"><ele>746.3333333333334</ele><time>2026-05-02T11:42:54.363Z</time></trkpt><trkpt lat="42.1743118" lon="13.6650561"><ele>747.6666666666666</ele><time>2026-05-02T11:42:55.36Z</time></trkpt><trkpt lat="42.1741607" lon="13.6649541"><ele>749.0</ele><time>2026-05-02T11:42:56.363Z</time></trkpt><trkpt lat="42.1740054" lon="13.6648523"><ele>754.0</ele><time>2026-05-02T11:42:57.363Z</time></trkpt><trkpt lat="42.1738467" lon="13.6647456"><ele>759.0</ele><time>2026-05-02T11:42:58.356Z</time></trkpt><trkpt lat="42.1736899" lon="13.6646443"><ele>764.0</ele><time>2026-05-02T11:42:59.364Z</time></trkpt><trkpt lat="42.1735391" lon="13.664552"><ele>764.0</ele><time>2026-05-02T11:43:00.361Z</time></trkpt><trkpt lat="42.1733945" lon="13.6644674"><ele>764.0</ele><time>2026-05-02T11:43:01.357Z</time></trkpt><trkpt lat="42.1732476" lon="13.6643758"><ele>764.0</ele><time>2026-05-02T11:43:02.358Z</time></trkpt><trkpt lat="42.1731068" lon="13.6642762"><ele>768.6666666666666</ele><time>2026-05-02T11:43:03.355Z</time></trkpt><trkpt lat="42.1729594" lon="13.6641626"><ele>773.3333333333333</ele><time>2026-05-02T11:43:04.355Z</time></trkpt><trkpt lat="42.1728151" lon="13.6640355"><ele>778.0</ele><time>2026-05-02T11:43:05.355Z</time></trkpt><trkpt lat="42.1726813" lon="13.6639096"><ele>778.0</ele><time>2026-05-02T11:43:06.355Z</time></trkpt><trkpt lat="42.1725403" lon="13.6637639"><ele>778.0</ele><time>2026-05-02T11:43:07.35Z</time></trkpt><trkpt lat="42.1724131" lon="13.6636254"><ele>778.0</ele><time>2026-05-02T11:43:08.352Z</time></trkpt><trkpt lat="42.1723053" lon="13.6634845"><ele>780.75</ele><time>2026-05-02T11:43:09.35Z</time></trkpt><trkpt lat="42.1722175" lon="13.6633393"><ele>783.5</ele><time>2026-05-02T11:43:10.348Z</time></trkpt><trkpt lat="42.1721394" lon="13.6631756"><ele>786.25</ele><time>2026-05-02T11:43:11.347Z</time></trkpt><trkpt lat="42.172071" lon="13.6629989"><ele>789.0</ele><time>2026-05-02T11:43:12.337Z</time></trkpt><trkpt lat="42.1719954" lon="13.662817"><ele>790.0</ele><time>2026-05-02T11:43:13.338Z</time></trkpt><trkpt lat="42.1719221" lon="13.662636"><ele>791.0</ele><time>2026-05-02T11:43:14.335Z</time></trkpt><trkpt lat="42.1718311" lon="13.6624597"><ele>792.0</ele><time>2026-05-02T11:43:15.338Z</time></trkpt><trkpt lat="42.1717408" lon="13.6622864"><ele>792.0</ele><time>2026-05-02T11:43:16.353Z</time></trkpt><trkpt lat="42.1716508" lon="13.6621066"><ele>792.0</ele><time>2026-05-02T11:43:17.353Z</time></trkpt><trkpt lat="42.1715647" lon="13.6619203"><ele>792.0</ele><time>2026-05-02T11:43:18.342Z</time></trkpt><trkpt lat="42.1714797" lon="13.6617319"><ele>799.0</ele><time>2026-05-02T11:43:19.35Z</time></trkpt><trkpt lat="42.1713978" lon="13.6615417"><ele>806.0</ele><time>2026-05-02T11:43:20.35Z</time></trkpt><trkpt lat="42.1713266" lon="13.6613894"><ele>813.0</ele><time>2026-05-02T11:43:21.344Z</time></trkpt><trkpt lat="42.171265" lon="13.661245"><ele>820.0</ele><time>2026-05-02T11:43:22.345Z</time></trkpt><trkpt lat="42.171199" lon="13.6611288"><ele>819.8</ele><time>2026-05-02T11:43:23.344Z</time></trkpt><trkpt lat="42.1711213" lon="13.6610441"><ele>819.6</ele><time>2026-05-02T11:43:24.345Z</time></trkpt><trkpt lat="42.1710321" lon="13.6609731"><ele>819.4000000000001</ele><time>2026-05-02T11:43:25.35Z</time></trkpt><trkpt lat="42.1709238" lon="13.6609185"><ele>819.2</ele><time>2026-05-02T11:43:26.337Z</time></trkpt><trkpt lat="42.170812" lon="13.660863"><ele>819.0</ele><time>2026-05-02T11:43:27.337Z</time></trkpt><trkpt lat="42.1706948" lon="13.6608168"><ele>823.75</ele><time>2026-05-02T11:43:28.341Z</time></trkpt><trkpt lat="42.170576" lon="13.6607744"><ele>828.5</ele><time>2026-05-02T11:43:29.339Z</time></trkpt><trkpt lat="42.1704568" lon="13.6607259"><ele>833.25</ele><time>2026-05-02T11:43:30.357Z</time></trkpt><trkpt lat="42.170336" lon="13.6606696"><ele>838.0</ele><time>2026-05-02T11:43:31.347Z</time></trkpt><trkpt lat="42.1702147" lon="13.6606051"><ele>838.0</ele><time>2026-05-02T11:43:32.349Z</time></trkpt><trkpt lat="42.1700924" lon="13.6605359"><ele>838.0</ele><time>2026-05-02T11:43:33.348Z</time></trkpt><trkpt lat="42.1699719" lon="13.6604627"><ele>838.0</ele><time>2026-05-02T11:43:34.347Z</time></trkpt><trkpt lat="42.1698511" lon="13.6603935"><ele>838.0</ele><time>2026-05-02T11:43:35.341Z</time></trkpt><trkpt lat="42.1697292" lon="13.6603421"><ele>843.0</ele><time>2026-05-02T11:43:36.346Z</time></trkpt><trkpt lat="42.169602" lon="13.6603058"><ele>848.0</ele><time>2026-05-02T11:43:37.342Z</time></trkpt><trkpt lat="42.1694668" lon="13.6602194"><ele>853.0</ele><time>2026-05-02T11:43:38.246Z</time></trkpt><trkpt lat="42.1693309" lon="13.6601778"><ele>858.0</ele><time>2026-05-02T11:43:39.245Z</time></trkpt><trkpt lat="42.1691868" lon="13.6601315"><ele>858.0</ele><time>2026-05-02T11:43:40.247Z</time></trkpt><trkpt lat="42.1690522" lon="13.6600664"><ele>858.0</ele><time>2026-05-02T11:43:41.248Z</time></trkpt><trkpt lat="42.1689179" lon="13.6599919"><ele>858.0</ele><time>2026-05-02T11:43:42.257Z</time></trkpt><trkpt lat="42.1687982" lon="13.6599552"><ele>858.0</ele><time>2026-05-02T11:43:43.256Z</time></trkpt><trkpt lat="42.1686981" lon="13.6599538"><ele>861.5</ele><time>2026-05-02T11:43:44.25Z</time></trkpt><trkpt lat="42.1685934" lon="13.6599899"><ele>865.0</ele><time>2026-05-02T11:43:45.253Z</time></trkpt><trkpt lat="42.1684917" lon="13.6600553"><ele>868.5</ele><time>2026-05-02T11:43:46.261Z</time></trkpt><trkpt lat="42.168393" lon="13.6601258"><ele>872.0</ele><time>2026-05-02T11:43:47.262Z</time></trkpt><trkpt lat="42.1682733" lon="13.6602049"><ele>876.3333333333334</ele><time>2026-05-02T11:43:48.257Z</time></trkpt><trkpt lat="42.1681481" lon="13.6602951"><ele>880.6666666666667</ele><time>2026-05-02T11:43:49.256Z</time></trkpt><trkpt lat="42.1680231" lon="13.6604044"><ele>885.0</ele><time>2026-05-02T11:43:50.258Z</time></trkpt><trkpt lat="42.1678911" lon="13.660544"><ele>885.0</ele><time>2026-05-02T11:43:51.259Z</time></trkpt><trkpt lat="42.1677568" lon="13.6606613"><ele>885.0</ele><time>2026-05-02T11:43:52.262Z</time></trkpt><trkpt lat="42.1676139" lon="13.6607701"><ele>885.0</ele><time>2026-05-02T11:43:53.253Z</time></trkpt><trkpt lat="42.1674834" lon="13.6608867"><ele>888.6666666666667</ele><time>2026-05-02T11:43:54.256Z</time></trkpt><trkpt lat="42.167345" lon="13.6609968"><ele>892.3333333333334</ele><time>2026-05-02T11:43:55.255Z</time></trkpt><trkpt lat="42.1672029" lon="13.6610945"><ele>896.0</ele><time>2026-05-02T11:43:56.252Z</time></trkpt><trkpt lat="42.1670373" lon="13.6611917"><ele>896.0</ele><time>2026-05-02T11:43:57.262Z</time></trkpt><trkpt lat="42.1669011" lon="13.6612936"><ele>896.0</ele><time>2026-05-02T11:43:58.253Z</time></trkpt><trkpt lat="42.16681" lon="13.661413"><ele>896.0</ele><time>2026-05-02T11:43:59.262Z</time></trkpt><trkpt lat="42.1667071" lon="13.6615379"><ele>896.0</ele><time>2026-05-02T11:44:00.262Z</time></trkpt><trkpt lat="42.1666159" lon="13.6616756"><ele>897.25</ele><time>2026-05-02T11:44:01.264Z</time></trkpt><trkpt lat="42.1665249" lon="13.6618411"><ele>898.5</ele><time>2026-05-02T11:44:02.268Z</time></trkpt><trkpt lat="42.1664341" lon="13.6620057"><ele>899.75</ele><time>2026-05-02T11:44:03.27Z</time></trkpt><trkpt lat="42.1663403" lon="13.6621516"><ele>901.0</ele><time>2026-05-02T11:44:04.266Z</time></trkpt><trkpt lat="42.1662515" lon="13.6622746"><ele>900.9999999999999</ele><time>2026-05-02T11:44:05.262Z</time></trkpt><trkpt lat="42.1661788" lon="13.6623856"><ele>901.0</ele><time>2026-05-02T11:44:06.263Z</time></trkpt><trkpt lat="42.1661165" lon="13.6624777"><ele>901.0</ele><time>2026-05-02T11:44:07.267Z</time></trkpt><trkpt lat="42.1660481" lon="13.6625342"><ele>901.0</ele><time>2026-05-02T11:44:08.267Z</time></trkpt><trkpt lat="42.1659695" lon="13.6625683"><ele>900.9999999999999</ele><time>2026-05-02T11:44:12.27Z</time></trkpt><trkpt lat="42.1659011" lon="13.6626333"><ele>901.0</ele><time>2026-05-02T11:44:14.274Z</time></trkpt><trkpt lat="42.1657984" lon="13.6627195"><ele>901.0</ele><time>2026-05-02T11:44:16.271Z</time></trkpt><trkpt lat="42.1657313" lon="13.6627805"><ele>900.9999999999999</ele><time>2026-05-02T11:44:17.274Z</time></trkpt><trkpt lat="42.1656565" lon="13.6628451"><ele>900.9999999999999</ele><time>2026-05-02T11:44:18.266Z</time></trkpt><trkpt lat="42.1655689" lon="13.662881"><ele>901.0</ele><time>2026-05-02T11:44:19.273Z</time></trkpt><trkpt lat="42.1654723" lon="13.6628928"><ele>901.0</ele><time>2026-05-02T11:44:20.275Z</time></trkpt><trkpt lat="42.1653751" lon="13.6628869"><ele>904.0</ele><time>2026-05-02T11:44:21.272Z</time></trkpt><trkpt lat="42.1652875" lon="13.6628851"><ele>906.9999999999999</ele><time>2026-05-02T11:44:22.274Z</time></trkpt><trkpt lat="42.1651938" lon="13.6628965"><ele>909.9999999999999</ele><time>2026-05-02T11:44:23.274Z</time></trkpt><trkpt lat="42.1651067" lon="13.662937"><ele>913.0</ele><time>2026-05-02T11:44:24.277Z</time></trkpt><trkpt lat="42.1650245" lon="13.6629819"><ele>916.0</ele><time>2026-05-02T11:44:25.27Z</time></trkpt><trkpt lat="42.1649412" lon="13.6630555"><ele>916.9999999999999</ele><time>2026-05-02T11:44:26.268Z</time></trkpt><trkpt lat="42.1648563" lon="13.6631223"><ele>918.0</ele><time>2026-05-02T11:44:27.273Z</time></trkpt><trkpt lat="42.1647802" lon="13.6631807"><ele>919.0</ele><time>2026-05-02T11:44:28.261Z</time></trkpt><trkpt lat="42.1647011" lon="13.6632148"><ele>920.0</ele><time>2026-05-02T11:44:29.27Z</time></trkpt><trkpt lat="42.1646207" lon="13.6632577"><ele>920.9999999999999</ele><time>2026-05-02T11:44:30.269Z</time></trkpt><trkpt lat="42.1645501" lon="13.6633166"><ele>922.0</ele><time>2026-05-02T11:44:31.268Z</time></trkpt><trkpt lat="42.1644934" lon="13.6634092"><ele>922.0</ele><time>2026-05-02T11:44:32.271Z</time></trkpt><trkpt lat="42.164435" lon="13.6635054"><ele>922.0</ele><time>2026-05-02T11:44:33.265Z</time></trkpt><trkpt lat="42.1643678" lon="13.6635956"><ele>922.0</ele><time>2026-05-02T11:44:34.264Z</time></trkpt><trkpt lat="42.1642876" lon="13.6636736"><ele>922.0</ele><time>2026-05-02T11:44:35.264Z</time></trkpt><trkpt lat="42.1641951" lon="13.6637421"><ele>922.0</ele><time>2026-05-02T11:44:36.267Z</time></trkpt><trkpt lat="42.1640966" lon="13.663801"><ele>924.6</ele><time>2026-05-02T11:44:37.263Z</time></trkpt><trkpt lat="42.1640015" lon="13.6638616"><ele>927.2</ele><time>2026-05-02T11:44:38.272Z</time></trkpt><trkpt lat="42.1639186" lon="13.6639437"><ele>929.8</ele><time>2026-05-02T11:44:39.266Z</time></trkpt><trkpt lat="42.163842" lon="13.6640456"><ele>932.4</ele><time>2026-05-02T11:44:40.266Z</time></trkpt><trkpt lat="42.1637632" lon="13.6641486"><ele>935.0</ele><time>2026-05-02T11:44:41.259Z</time></trkpt><trkpt lat="42.1636723" lon="13.6642311"><ele>935.0</ele><time>2026-05-02T11:44:42.276Z</time></trkpt><trkpt lat="42.1635753" lon="13.6643052"><ele>935.0</ele><time>2026-05-02T11:44:43.275Z</time></trkpt><trkpt lat="42.1634911" lon="13.6643894"><ele>935.0</ele><time>2026-05-02T11:44:44.267Z</time></trkpt><trkpt lat="42.1634257" lon="13.664488"><ele>935.0</ele><time>2026-05-02T11:44:45.266Z</time></trkpt><trkpt lat="42.1633654" lon="13.6645824"><ele>935.0</ele><time>2026-05-02T11:44:46.27Z</time></trkpt><trkpt lat="42.1632995" lon="13.6646838"><ele>935.6</ele><time>2026-05-02T11:44:47.277Z</time></trkpt><trkpt lat="42.1632313" lon="13.6647797"><ele>936.2</ele><time>2026-05-02T11:44:48.271Z</time></trkpt><trkpt lat="42.1631636" lon="13.6648692"><ele>936.8</ele><time>2026-05-02T11:44:49.265Z</time></trkpt><trkpt lat="42.1630864" lon="13.6649482"><ele>937.4</ele><time>2026-05-02T11:44:50.272Z</time></trkpt><trkpt lat="42.1630243" lon="13.6650446"><ele>938.0</ele><time>2026-05-02T11:44:51.275Z</time></trkpt><trkpt lat="42.1629649" lon="13.6651443"><ele>937.8</ele><time>2026-05-02T11:44:52.271Z</time></trkpt><trkpt lat="42.1629123" lon="13.6652699"><ele>937.5999999999999</ele><time>2026-05-02T11:44:53.272Z</time></trkpt><trkpt lat="42.1628647" lon="13.6653931"><ele>937.4000000000001</ele><time>2026-05-02T11:44:54.273Z</time></trkpt><trkpt lat="42.162817" lon="13.6655037"><ele>937.2</ele><time>2026-05-02T11:44:55.269Z</time></trkpt><trkpt lat="42.1627561" lon="13.6656499"><ele>937.0</ele><time>2026-05-02T11:44:56.285Z</time></trkpt><trkpt lat="42.1626965" lon="13.6657895"><ele>937.0</ele><time>2026-05-02T11:44:57.289Z</time></trkpt><trkpt lat="42.1626434" lon="13.665928"><ele>937.0</ele><time>2026-05-02T11:44:58.283Z</time></trkpt><trkpt lat="42.1625895" lon="13.6660541"><ele>937.0</ele><time>2026-05-02T11:44:59.273Z</time></trkpt><trkpt lat="42.1625285" lon="13.6661397"><ele>937.0</ele><time>2026-05-02T11:45:00.286Z</time></trkpt><trkpt lat="42.162454" lon="13.6661949"><ele>937.0</ele><time>2026-05-02T11:45:01.265Z</time></trkpt><trkpt lat="42.1623642" lon="13.6662454"><ele>939.2</ele><time>2026-05-02T11:45:02.268Z</time></trkpt><trkpt lat="42.162269" lon="13.6662976"><ele>941.4000000000001</ele><time>2026-05-02T11:45:03.28Z</time></trkpt><trkpt lat="42.1621685" lon="13.6663461"><ele>943.5999999999999</ele><time>2026-05-02T11:45:04.268Z</time></trkpt><trkpt lat="42.1620597" lon="13.6663771"><ele>945.8</ele><time>2026-05-02T11:45:05.275Z</time></trkpt><trkpt lat="42.1619511" lon="13.6664353"><ele>948.0</ele><time>2026-05-02T11:45:06.274Z</time></trkpt><trkpt lat="42.1618538" lon="13.6665163"><ele>948.0</ele><time>2026-05-02T11:45:07.267Z</time></trkpt><trkpt lat="42.1617516" lon="13.6666139"><ele>948.0</ele><time>2026-05-02T11:45:08.273Z</time></trkpt><trkpt lat="42.1616584" lon="13.6667197"><ele>948.0</ele><time>2026-05-02T11:45:09.28Z</time></trkpt><trkpt lat="42.1615499" lon="13.6668143"><ele>948.0</ele><time>2026-05-02T11:45:10.275Z</time></trkpt><trkpt lat="42.1614493" lon="13.6669078"><ele>949.75</ele><time>2026-05-02T11:45:11.272Z</time></trkpt><trkpt lat="42.1613492" lon="13.6669886"><ele>951.5</ele><time>2026-05-02T11:45:12.283Z</time></trkpt><trkpt lat="42.161244" lon="13.6670785"><ele>953.25</ele><time>2026-05-02T11:45:13.286Z</time></trkpt><trkpt lat="42.1611412" lon="13.6671831"><ele>955.0</ele><time>2026-05-02T11:45:14.271Z</time></trkpt><trkpt lat="42.1610485" lon="13.6673033"><ele>955.0</ele><time>2026-05-02T11:45:15.279Z</time></trkpt><trkpt lat="42.1609681" lon="13.6674307"><ele>955.0</ele><time>2026-05-02T11:45:16.284Z</time></trkpt><trkpt lat="42.1608853" lon="13.667547"><ele>955.0</ele><time>2026-05-02T11:45:17.277Z</time></trkpt><trkpt lat="42.160807" lon="13.6676413"><ele>955.0</ele><time>2026-05-02T11:45:18.285Z</time></trkpt><trkpt lat="42.1607413" lon="13.6677209"><ele>955.0</ele><time>2026-05-02T11:45:19.277Z</time></trkpt><trkpt lat="42.1606827" lon="13.6677817"><ele>954.4</ele><time>2026-05-02T11:45:20.271Z</time></trkpt><trkpt lat="42.1605969" lon="13.6678426"><ele>953.8</ele><time>2026-05-02T11:45:22.274Z</time></trkpt><trkpt lat="42.160484" lon="13.6679252"><ele>953.2</ele><time>2026-05-02T11:45:24.272Z</time></trkpt><trkpt lat="42.1604116" lon="13.6679888"><ele>952.6</ele><time>2026-05-02T11:45:25.273Z</time></trkpt><trkpt lat="42.1603394" lon="13.6680527"><ele>952.0</ele><time>2026-05-02T11:45:26.282Z</time></trkpt><trkpt lat="42.1602668" lon="13.6681124"><ele>952.0</ele><time>2026-05-02T11:45:27.284Z</time></trkpt><trkpt lat="42.160203" lon="13.6681799"><ele>952.0</ele><time>2026-05-02T11:45:28.279Z</time></trkpt><trkpt lat="42.1601522" lon="13.6682443"><ele>952.0</ele><time>2026-05-02T11:45:29.289Z</time></trkpt><trkpt lat="42.1601044" lon="13.6683091"><ele>952.0</ele><time>2026-05-02T11:45:30.275Z</time></trkpt><trkpt lat="42.1600572" lon="13.6683734"><ele>952.0</ele><time>2026-05-02T11:45:31.281Z</time></trkpt><trkpt lat="42.1600098" lon="13.6684426"><ele>952.0</ele><time>2026-05-02T11:45:32.286Z</time></trkpt><trkpt lat="42.159958" lon="13.6685093"><ele>952.0</ele><time>2026-05-02T11:45:33.286Z</time></trkpt><trkpt lat="42.1599002" lon="13.668565"><ele>950.1666666666666</ele><time>2026-05-02T11:45:34.272Z</time></trkpt><trkpt lat="42.1598176" lon="13.6686289"><ele>948.3333333333333</ele><time>2026-05-02T11:45:35.277Z</time></trkpt><trkpt lat="42.159745" lon="13.668685"><ele>946.5</ele><time>2026-05-02T11:45:36.272Z</time></trkpt><trkpt lat="42.1596813" lon="13.6687559"><ele>944.6666666666667</ele><time>2026-05-02T11:45:37.273Z</time></trkpt><trkpt lat="42.1596191" lon="13.6688181"><ele>942.8333333333334</ele><time>2026-05-02T11:45:38.268Z</time></trkpt><trkpt lat="42.1595666" lon="13.6688738"><ele>941.0</ele><time>2026-05-02T11:45:39.266Z</time></trkpt><trkpt lat="42.159519" lon="13.6690169"><ele>941.0000000000001</ele><time>2026-05-02T11:45:41.273Z</time></trkpt><trkpt lat="42.1595107" lon="13.6691127"><ele>941.0</ele><time>2026-05-02T11:45:42.27Z</time></trkpt><trkpt lat="42.1595081" lon="13.6692131"><ele>941.0</ele><time>2026-05-02T11:45:43.272Z</time></trkpt><trkpt lat="42.1595162" lon="13.6693343"><ele>941.0</ele><time>2026-05-02T11:45:44.283Z</time></trkpt><trkpt lat="42.1595173" lon="13.6694456"><ele>941.0000000000001</ele><time>2026-05-02T11:45:45.272Z</time></trkpt><trkpt lat="42.1594971" lon="13.6695668"><ele>941.0</ele><time>2026-05-02T11:45:46.278Z</time></trkpt><trkpt lat="42.15948" lon="13.669678"><ele>939.8333333333334</ele><time>2026-05-02T11:45:47.279Z</time></trkpt><trkpt lat="42.1594663" lon="13.6697804"><ele>938.6666666666667</ele><time>2026-05-02T11:45:48.283Z</time></trkpt><trkpt lat="42.159435" lon="13.6698587"><ele>937.5</ele><time>2026-05-02T11:45:49.277Z</time></trkpt><trkpt lat="42.1593932" lon="13.6699504"><ele>936.3333333333333</ele><time>2026-05-02T11:45:50.276Z</time></trkpt><trkpt lat="42.1593308" lon="13.6700389"><ele>935.1666666666666</ele><time>2026-05-02T11:45:51.279Z</time></trkpt><trkpt lat="42.1592832" lon="13.670118"><ele>934.0</ele><time>2026-05-02T11:45:52.273Z</time></trkpt><trkpt lat="42.1592354" lon="13.670206"><ele>935.6</ele><time>2026-05-02T11:45:53.277Z</time></trkpt><trkpt lat="42.1591953" lon="13.670319"><ele>937.2</ele><time>2026-05-02T11:45:54.277Z</time></trkpt><trkpt lat="42.1591673" lon="13.6704394"><ele>938.8000000000001</ele><time>2026-05-02T11:45:55.269Z</time></trkpt><trkpt lat="42.1591559" lon="13.6705574"><ele>940.4000000000001</ele><time>2026-05-02T11:45:56.282Z</time></trkpt><trkpt lat="42.1591498" lon="13.6706827"><ele>942.0</ele><time>2026-05-02T11:45:57.28Z</time></trkpt><trkpt lat="42.1591505" lon="13.6708098"><ele>942.0</ele><time>2026-05-02T11:45:58.289Z</time></trkpt><trkpt lat="42.1591562" lon="13.6709295"><ele>942.0</ele><time>2026-05-02T11:45:59.279Z</time></trkpt><trkpt lat="42.1591652" lon="13.6710509"><ele>942.0</ele><time>2026-05-02T11:46:00.278Z</time></trkpt><trkpt lat="42.159176" lon="13.6711824"><ele>942.0</ele><time>2026-05-02T11:46:01.274Z</time></trkpt><trkpt lat="42.1591869" lon="13.6713107"><ele>942.0</ele><time>2026-05-02T11:46:02.267Z</time></trkpt><trkpt lat="42.1592028" lon="13.6714469"><ele>942.1666666666666</ele><time>2026-05-02T11:46:03.282Z</time></trkpt><trkpt lat="42.1592118" lon="13.6715782"><ele>942.3333333333333</ele><time>2026-05-02T11:46:04.284Z</time></trkpt><trkpt lat="42.1592159" lon="13.6716844"><ele>942.5</ele><time>2026-05-02T11:46:05.271Z</time></trkpt><trkpt lat="42.1592297" lon="13.6717816"><ele>942.6666666666666</ele><time>2026-05-02T11:46:06.269Z</time></trkpt><trkpt lat="42.1592693" lon="13.67188"><ele>942.8333333333333</ele><time>2026-05-02T11:46:07.278Z</time></trkpt><trkpt lat="42.1593275" lon="13.6719529"><ele>943.0</ele><time>2026-05-02T11:46:08.274Z</time></trkpt><trkpt lat="42.1593953" lon="13.6720061"><ele>941.9999999999999</ele><time>2026-05-02T11:46:09.278Z</time></trkpt><trkpt lat="42.1594631" lon="13.6720452"><ele>941.0</ele><time>2026-05-02T11:46:10.281Z</time></trkpt><trkpt lat="42.1595265" lon="13.6720762"><ele>940.0</ele><time>2026-05-02T11:46:11.276Z</time></trkpt><trkpt lat="42.1596028" lon="13.6721897"><ele>939.0</ele><time>2026-05-02T11:46:13.282Z</time></trkpt><trkpt lat="42.1596179" lon="13.6722778"><ele>937.9999999999999</ele><time>2026-05-02T11:46:14.269Z</time></trkpt><trkpt lat="42.1596268" lon="13.6723867"><ele>937.0</ele><time>2026-05-02T11:46:15.286Z</time></trkpt><trkpt lat="42.1596486" lon="13.6724852"><ele>937.0</ele><time>2026-05-02T11:46:16.277Z</time></trkpt><trkpt lat="42.1596801" lon="13.6726121"><ele>937.0</ele><time>2026-05-02T11:46:17.278Z</time></trkpt><trkpt lat="42.159721" lon="13.6727421"><ele>937.0</ele><time>2026-05-02T11:46:18.282Z</time></trkpt><trkpt lat="42.1597701" lon="13.6728676"><ele>937.0</ele><time>2026-05-02T11:46:19.281Z</time></trkpt><trkpt lat="42.1598137" lon="13.6729983"><ele>937.0</ele><time>2026-05-02T11:46:20.282Z</time></trkpt><trkpt lat="42.1598668" lon="13.6731274"><ele>940.25</ele><time>2026-05-02T11:46:21.281Z</time></trkpt><trkpt lat="42.1599232" lon="13.6732619"><ele>943.5</ele><time>2026-05-02T11:46:22.286Z</time></trkpt><trkpt lat="42.1599845" lon="13.6733949"><ele>946.75</ele><time>2026-05-02T11:46:23.278Z</time></trkpt><trkpt lat="42.1600454" lon="13.6735304"><ele>950.0</ele><time>2026-05-02T11:46:24.286Z</time></trkpt><trkpt lat="42.1600994" lon="13.6736713"><ele>950.0</ele><time>2026-05-02T11:46:25.278Z</time></trkpt><trkpt lat="42.1601513" lon="13.6738069"><ele>950.0</ele><time>2026-05-02T11:46:26.284Z</time></trkpt><trkpt lat="42.1601965" lon="13.6739275"><ele>950.0</ele><time>2026-05-02T11:46:27.285Z</time></trkpt><trkpt lat="42.1602406" lon="13.6740474"><ele>950.0</ele><time>2026-05-02T11:46:28.277Z</time></trkpt><trkpt lat="42.1602862" lon="13.6741665"><ele>950.0</ele><time>2026-05-02T11:46:29.284Z</time></trkpt><trkpt lat="42.160337" lon="13.6742636"><ele>950.0000000000001</ele><time>2026-05-02T11:46:30.276Z</time></trkpt><trkpt lat="42.1603871" lon="13.674339"><ele>950.0</ele><time>2026-05-02T11:46:31.275Z</time></trkpt><trkpt lat="42.1604508" lon="13.6743906"><ele>950.0</ele><time>2026-05-02T11:46:32.267Z</time></trkpt><trkpt lat="42.1605332" lon="13.6744223"><ele>950.0</ele><time>2026-05-02T11:46:33.279Z</time></trkpt><trkpt lat="42.1606315" lon="13.6744535"><ele>950.0000000000001</ele><time>2026-05-02T11:46:34.276Z</time></trkpt><trkpt lat="42.160721" lon="13.6744897"><ele>950.0</ele><time>2026-05-02T11:46:35.285Z</time></trkpt><trkpt lat="42.1607969" lon="13.6745519"><ele>952.2</ele><time>2026-05-02T11:46:36.269Z</time></trkpt><trkpt lat="42.1608618" lon="13.6746339"><ele>954.4</ele><time>2026-05-02T11:46:37.269Z</time></trkpt><trkpt lat="42.1609224" lon="13.6747474"><ele>956.5999999999999</ele><time>2026-05-02T11:46:38.278Z</time></trkpt><trkpt lat="42.1609849" lon="13.6748682"><ele>958.8</ele><time>2026-05-02T11:46:39.275Z</time></trkpt><trkpt lat="42.1610589" lon="13.6749992"><ele>961.0</ele><time>2026-05-02T11:46:40.278Z</time></trkpt><trkpt lat="42.1611361" lon="13.675111"><ele>961.0</ele><time>2026-05-02T11:46:41.27Z</time></trkpt><trkpt lat="42.1611978" lon="13.6752307"><ele>960.9999999999999</ele><time>2026-05-02T11:46:42.277Z</time></trkpt><trkpt lat="42.1612565" lon="13.675347"><ele>960.9999999999999</ele><time>2026-05-02T11:46:43.272Z</time></trkpt><trkpt lat="42.1613135" lon="13.6754702"><ele>961.0</ele><time>2026-05-02T11:46:44.266Z</time></trkpt><trkpt lat="42.1613752" lon="13.6755726"><ele>961.0</ele><time>2026-05-02T11:46:45.265Z</time></trkpt><trkpt lat="42.1614286" lon="13.6756808"><ele>962.1666666666666</ele><time>2026-05-02T11:46:46.27Z</time></trkpt><trkpt lat="42.1614828" lon="13.6757888"><ele>963.3333333333333</ele><time>2026-05-02T11:46:47.26Z</time></trkpt><trkpt lat="42.1615315" lon="13.675877"><ele>964.5</ele><time>2026-05-02T11:46:48.267Z</time></trkpt><trkpt lat="42.1615784" lon="13.6759698"><ele>965.6666666666667</ele><time>2026-05-02T11:46:49.263Z</time></trkpt><trkpt lat="42.1616057" lon="13.6760804"><ele>966.8333333333334</ele><time>2026-05-02T11:46:50.265Z</time></trkpt><trkpt lat="42.1616268" lon="13.6761909"><ele>968.0</ele><time>2026-05-02T11:46:51.264Z</time></trkpt><trkpt lat="42.1616487" lon="13.6763012"><ele>968.0000000000001</ele><time>2026-05-02T11:46:52.263Z</time></trkpt><trkpt lat="42.1616614" lon="13.6764114"><ele>968.0</ele><time>2026-05-02T11:46:53.269Z</time></trkpt><trkpt lat="42.1616855" lon="13.6765196"><ele>968.0</ele><time>2026-05-02T11:46:54.263Z</time></trkpt><trkpt lat="42.1617147" lon="13.6766163"><ele>968.0</ele><time>2026-05-02T11:46:55.266Z</time></trkpt><trkpt lat="42.1617399" lon="13.6767076"><ele>968.0000000000001</ele><time>2026-05-02T11:46:56.268Z</time></trkpt><trkpt lat="42.1617887" lon="13.6768607"><ele>968.0</ele><time>2026-05-02T11:46:58.266Z</time></trkpt><trkpt lat="42.16181" lon="13.6770444"><ele>966.5999999999999</ele><time>2026-05-02T11:47:00.275Z</time></trkpt><trkpt lat="42.1618111" lon="13.6771646"><ele>965.1999999999999</ele><time>2026-05-02T11:47:01.275Z</time></trkpt><trkpt lat="42.1618178" lon="13.6772882"><ele>963.8</ele><time>2026-05-02T11:47:02.27Z</time></trkpt><trkpt lat="42.1618244" lon="13.6774157"><ele>962.4</ele><time>2026-05-02T11:47:03.272Z</time></trkpt><trkpt lat="42.1618373" lon="13.6775338"><ele>961.0</ele><time>2026-05-02T11:47:04.281Z</time></trkpt><trkpt lat="42.161845" lon="13.6776558"><ele>958.4</ele><time>2026-05-02T11:47:05.276Z</time></trkpt><trkpt lat="42.1618484" lon="13.6777874"><ele>955.8</ele><time>2026-05-02T11:47:06.285Z</time></trkpt><trkpt lat="42.1618436" lon="13.6779288"><ele>953.1999999999999</ele><time>2026-05-02T11:47:07.279Z</time></trkpt><trkpt lat="42.1618474" lon="13.6780715"><ele>950.5999999999999</ele><time>2026-05-02T11:47:08.275Z</time></trkpt><trkpt lat="42.1618517" lon="13.6782179"><ele>948.0</ele><time>2026-05-02T11:47:09.281Z</time></trkpt><trkpt lat="42.1618622" lon="13.6783541"><ele>948.0</ele><time>2026-05-02T11:47:10.279Z</time></trkpt><trkpt lat="42.1618713" lon="13.6784834"><ele>948.0</ele><time>2026-05-02T11:47:11.279Z</time></trkpt><trkpt lat="42.1618822" lon="13.6786184"><ele>948.0</ele><time>2026-05-02T11:47:12.285Z</time></trkpt><trkpt lat="42.1618919" lon="13.6787505"><ele>948.0</ele><time>2026-05-02T11:47:13.292Z</time></trkpt><trkpt lat="42.1618981" lon="13.6788774"><ele>948.0</ele><time>2026-05-02T11:47:14.283Z</time></trkpt><trkpt lat="42.1618976" lon="13.6789906"><ele>946.3333333333334</ele><time>2026-05-02T11:47:15.286Z</time></trkpt><trkpt lat="42.1618879" lon="13.6791147"><ele>944.6666666666667</ele><time>2026-05-02T11:47:16.28Z</time></trkpt><trkpt lat="42.1618709" lon="13.6792388"><ele>943.0</ele><time>2026-05-02T11:47:17.291Z</time></trkpt><trkpt lat="42.1618484" lon="13.6793512"><ele>941.3333333333334</ele><time>2026-05-02T11:47:18.286Z</time></trkpt><trkpt lat="42.1618255" lon="13.6794488"><ele>939.6666666666667</ele><time>2026-05-02T11:47:19.291Z</time></trkpt><trkpt lat="42.1618063" lon="13.6795534"><ele>938.0</ele><time>2026-05-02T11:47:20.287Z</time></trkpt><trkpt lat="42.1617905" lon="13.6796536"><ele>936.6666666666667</ele><time>2026-05-02T11:47:21.285Z</time></trkpt><trkpt lat="42.161773" lon="13.6797497"><ele>935.3333333333334</ele><time>2026-05-02T11:47:22.29Z</time></trkpt><trkpt lat="42.1617555" lon="13.6798418"><ele>934.0</ele><time>2026-05-02T11:47:23.283Z</time></trkpt><trkpt lat="42.1617359" lon="13.6799875"><ele>932.6666666666667</ele><time>2026-05-02T11:47:25.287Z</time></trkpt><trkpt lat="42.161702" lon="13.680088"><ele>931.3333333333334</ele><time>2026-05-02T11:47:27.292Z</time></trkpt><trkpt lat="42.1616265" lon="13.6801388"><ele>930.0</ele><time>2026-05-02T11:47:30.309Z</time></trkpt><trkpt lat="42.1615775" lon="13.6800603"><ele>930.0</ele><time>2026-05-02T11:47:33.297Z</time></trkpt><trkpt lat="42.1615661" lon="13.6799528"><ele>930.0</ele><time>2026-05-02T11:47:45.296Z</time></trkpt><trkpt lat="42.1615472" lon="13.6798483"><ele>930.0</ele><time>2026-05-02T11:47:47.302Z</time></trkpt><trkpt lat="42.1615412" lon="13.6797629"><ele>930.0</ele><time>2026-05-02T11:47:48.29Z</time></trkpt><trkpt lat="42.1615302" lon="13.6796318"><ele>930.0</ele><time>2026-05-02T11:47:50.292Z</time></trkpt><trkpt lat="42.1615236" lon="13.6795003"><ele>930.0</ele><time>2026-05-02T11:47:52.285Z</time></trkpt><trkpt lat="42.1615047" lon="13.6793674"><ele>931.2</ele><time>2026-05-02T11:47:54.29Z</time></trkpt><trkpt lat="42.1614695" lon="13.6792683"><ele>932.4</ele><time>2026-05-02T11:47:56.301Z</time></trkpt><trkpt lat="42.1613675" lon="13.6792263"><ele>933.5999999999999</ele><time>2026-05-02T11:47:58.278Z</time></trkpt><trkpt lat="42.161288" lon="13.6792372"><ele>934.8</ele><time>2026-05-02T11:47:59.295Z</time></trkpt><trkpt lat="42.1612035" lon="13.6792782"><ele>936.0</ele><time>2026-05-02T11:48:00.288Z</time></trkpt><trkpt lat="42.1611075" lon="13.6793325"><ele>936.0</ele><time>2026-05-02T11:48:01.279Z</time></trkpt><trkpt lat="42.1610175" lon="13.6793802"><ele>935.9999999999999</ele><time>2026-05-02T11:48:02.285Z</time></trkpt><trkpt lat="42.160919" lon="13.6794131"><ele>935.9999999999999</ele><time>2026-05-02T11:48:03.27Z</time></trkpt><trkpt lat="42.1608136" lon="13.6794469"><ele>936.0</ele><time>2026-05-02T11:48:04.273Z</time></trkpt><trkpt lat="42.1607064" lon="13.6794495"><ele>936.0</ele><time>2026-05-02T11:48:05.275Z</time></trkpt><trkpt lat="42.1606045" lon="13.679447"><ele>931.4</ele><time>2026-05-02T11:48:06.272Z</time></trkpt><trkpt lat="42.1605073" lon="13.679456"><ele>926.8</ele><time>2026-05-02T11:48:07.275Z</time></trkpt><trkpt lat="42.1604178" lon="13.6794864"><ele>922.1999999999999</ele><time>2026-05-02T11:48:08.282Z</time></trkpt><trkpt lat="42.1603304" lon="13.6795316"><ele>917.5999999999999</ele><time>2026-05-02T11:48:09.277Z</time></trkpt><trkpt lat="42.1602483" lon="13.6796005"><ele>913.0</ele><time>2026-05-02T11:48:10.284Z</time></trkpt><trkpt lat="42.1601706" lon="13.6796606"><ele>912.9999999999999</ele><time>2026-05-02T11:48:11.279Z</time></trkpt><trkpt lat="42.1600956" lon="13.6797091"><ele>913.0</ele><time>2026-05-02T11:48:12.283Z</time></trkpt><trkpt lat="42.1600217" lon="13.6797448"><ele>912.9999999999999</ele><time>2026-05-02T11:48:13.292Z</time></trkpt><trkpt lat="42.1599594" lon="13.6797861"><ele>912.9999999999999</ele><time>2026-05-02T11:48:14.287Z</time></trkpt><trkpt lat="42.1599035" lon="13.6798498"><ele>913.0</ele><time>2026-05-02T11:48:15.296Z</time></trkpt><trkpt lat="42.1598554" lon="13.6799239"><ele>912.9999999999999</ele><time>2026-05-02T11:48:16.289Z</time></trkpt><trkpt lat="42.1598166" lon="13.6799996"><ele>912.9999999999999</ele><time>2026-05-02T11:48:17.291Z</time></trkpt><trkpt lat="42.1597442" lon="13.6800814"><ele>908.0</ele><time>2026-05-02T11:48:19.293Z</time></trkpt><trkpt lat="42.1596557" lon="13.6800278"><ele>903.0</ele><time>2026-05-02T11:48:22.302Z</time></trkpt><trkpt lat="42.1595929" lon="13.6799426"><ele>898.0</ele><time>2026-05-02T11:48:24.292Z</time></trkpt><trkpt lat="42.1595445" lon="13.679876"><ele>893.0</ele><time>2026-05-02T11:48:26.294Z</time></trkpt><trkpt lat="42.1594915" lon="13.6797963"><ele>888.0</ele><time>2026-05-02T11:48:28.294Z</time></trkpt><trkpt lat="42.1594327" lon="13.6796499"><ele>888.0</ele><time>2026-05-02T11:48:30.289Z</time></trkpt><trkpt lat="42.1594017" lon="13.6795732"><ele>888.0</ele><time>2026-05-02T11:48:31.286Z</time></trkpt><trkpt lat="42.1593679" lon="13.679482"><ele>888.0</ele><time>2026-05-02T11:48:32.29Z</time></trkpt><trkpt lat="42.1593418" lon="13.679385"><ele>888.0</ele><time>2026-05-02T11:48:33.284Z</time></trkpt><trkpt lat="42.1593217" lon="13.6792929"><ele>888.0</ele><time>2026-05-02T11:48:34.285Z</time></trkpt><trkpt lat="42.1593076" lon="13.6791977"><ele>888.0</ele><time>2026-05-02T11:48:35.287Z</time></trkpt><trkpt lat="42.1592972" lon="13.679109"><ele>888.0</ele><time>2026-05-02T11:48:36.287Z</time></trkpt><trkpt lat="42.1592771" lon="13.6790282"><ele>889.2857142857142</ele><time>2026-05-02T11:48:37.279Z</time></trkpt><trkpt lat="42.1592501" lon="13.678947"><ele>890.5714285714287</ele><time>2026-05-02T11:48:38.286Z</time></trkpt><trkpt lat="42.1592203" lon="13.6788615"><ele>891.8571428571429</ele><time>2026-05-02T11:48:39.293Z</time></trkpt><trkpt lat="42.1591859" lon="13.6787811"><ele>893.1428571428571</ele><time>2026-05-02T11:48:40.283Z</time></trkpt><trkpt lat="42.1591573" lon="13.6786965"><ele>894.4285714285713</ele><time>2026-05-02T11:48:41.286Z</time></trkpt><trkpt lat="42.1591271" lon="13.678607"><ele>895.7142857142858</ele><time>2026-05-02T11:48:42.286Z</time></trkpt><trkpt lat="42.1590926" lon="13.6785138"><ele>897.0</ele><time>2026-05-02T11:48:43.284Z</time></trkpt><trkpt lat="42.1590607" lon="13.6784291"><ele>898.6666666666666</ele><time>2026-05-02T11:48:44.282Z</time></trkpt><trkpt lat="42.1590377" lon="13.6783397"><ele>900.3333333333333</ele><time>2026-05-02T11:48:45.281Z</time></trkpt><trkpt lat="42.1590122" lon="13.6782368"><ele>902.0</ele><time>2026-05-02T11:48:46.286Z</time></trkpt><trkpt lat="42.1589834" lon="13.6781227"><ele>903.6666666666666</ele><time>2026-05-02T11:48:47.282Z</time></trkpt><trkpt lat="42.1589592" lon="13.6780192"><ele>905.3333333333333</ele><time>2026-05-02T11:48:48.282Z</time></trkpt><trkpt lat="42.1589344" lon="13.6779265"><ele>907.0</ele><time>2026-05-02T11:48:49.286Z</time></trkpt><trkpt lat="42.158911" lon="13.6778449"><ele>900.9999999999999</ele><time>2026-05-02T11:48:50.283Z</time></trkpt><trkpt lat="42.1588841" lon="13.6777663"><ele>895.0</ele><time>2026-05-02T11:48:51.276Z</time></trkpt><trkpt lat="42.158819" lon="13.6776243"><ele>889.0</ele><time>2026-05-02T11:48:53.276Z</time></trkpt><trkpt lat="42.1587949" lon="13.6775386"><ele>883.0</ele><time>2026-05-02T11:48:54.279Z</time></trkpt><trkpt lat="42.1587718" lon="13.6774467"><ele>876.9999999999999</ele><time>2026-05-02T11:48:55.275Z</time></trkpt><trkpt lat="42.1587443" lon="13.6773634"><ele>871.0</ele><time>2026-05-02T11:48:56.279Z</time></trkpt><trkpt lat="42.158716" lon="13.6772868"><ele>871.0</ele><time>2026-05-02T11:48:57.287Z</time></trkpt><trkpt lat="42.1586556" lon="13.6771499"><ele>870.9999999999999</ele><time>2026-05-02T11:48:59.281Z</time></trkpt><trkpt lat="42.158593" lon="13.6770117"><ele>870.9999999999999</ele><time>2026-05-02T11:49:01.278Z</time></trkpt><trkpt lat="42.1585237" lon="13.6768679"><ele>871.0</ele><time>2026-05-02T11:49:03.278Z</time></trkpt><trkpt lat="42.1584826" lon="13.6767842"><ele>871.0</ele><time>2026-05-02T11:49:04.274Z</time></trkpt><trkpt lat="42.1584407" lon="13.6766983"><ele>873.4999999999999</ele><time>2026-05-02T11:49:05.268Z</time></trkpt><trkpt lat="42.1583919" lon="13.676611"><ele>876.0</ele><time>2026-05-02T11:49:06.271Z</time></trkpt><trkpt lat="42.1583425" lon="13.6765216"><ele>878.5</ele><time>2026-05-02T11:49:07.267Z</time></trkpt><trkpt lat="42.1582876" lon="13.6764314"><ele>881.0</ele><time>2026-05-02T11:49:08.274Z</time></trkpt><trkpt lat="42.1582345" lon="13.6763458"><ele>883.4999999999999</ele><time>2026-05-02T11:49:09.272Z</time></trkpt><trkpt lat="42.1581868" lon="13.6762598"><ele>886.0</ele><time>2026-05-02T11:49:10.282Z</time></trkpt><trkpt lat="42.1581442" lon="13.6761669"><ele>879.8333333333333</ele><time>2026-05-02T11:49:11.272Z</time></trkpt><trkpt lat="42.1581028" lon="13.6760727"><ele>873.6666666666666</ele><time>2026-05-02T11:49:12.274Z</time></trkpt><trkpt lat="42.1580635" lon="13.675984"><ele>867.5</ele><time>2026-05-02T11:49:13.272Z</time></trkpt><trkpt lat="42.1580273" lon="13.6758949"><ele>861.3333333333333</ele><time>2026-05-02T11:49:14.267Z</time></trkpt><trkpt lat="42.1579889" lon="13.6758085"><ele>855.1666666666666</ele><time>2026-05-02T11:49:15.28Z</time></trkpt><trkpt lat="42.1579302" lon="13.6756726"><ele>849.0</ele><time>2026-05-02T11:49:17.275Z</time></trkpt><trkpt lat="42.1578696" lon="13.6755908"><ele>849.0</ele><time>2026-05-02T11:49:19.279Z</time></trkpt><trkpt lat="42.1578206" lon="13.6755263"><ele>849.0</ele><time>2026-05-02T11:49:21.282Z</time></trkpt><trkpt lat="42.1577693" lon="13.675433"><ele>849.0</ele><time>2026-05-02T11:49:23.284Z</time></trkpt><trkpt lat="42.1577293" lon="13.6752996"><ele>849.0</ele><time>2026-05-02T11:49:25.29Z</time></trkpt><trkpt lat="42.1576711" lon="13.6751594"><ele>849.0</ele><time>2026-05-02T11:49:27.273Z</time></trkpt><trkpt lat="42.1576377" lon="13.6750315"><ele>849.4000000000001</ele><time>2026-05-02T11:49:29.274Z</time></trkpt><trkpt lat="42.1576141" lon="13.6749216"><ele>849.8</ele><time>2026-05-02T11:49:31.281Z</time></trkpt><trkpt lat="42.1576038" lon="13.6748165"><ele>850.2</ele><time>2026-05-02T11:49:33.28Z</time></trkpt><trkpt lat="42.1576139" lon="13.674688"><ele>850.5999999999999</ele><time>2026-05-02T11:49:35.275Z</time></trkpt><trkpt lat="42.1576175" lon="13.6745451"><ele>851.0</ele><time>2026-05-02T11:49:38.285Z</time></trkpt><trkpt lat="42.1576302" lon="13.674414"><ele>851.0000000000001</ele><time>2026-05-02T11:49:40.282Z</time></trkpt><trkpt lat="42.1576632" lon="13.6743382"><ele>851.0</ele><time>2026-05-02T11:49:42.205Z</time></trkpt><trkpt lat="42.1576866" lon="13.6742255"><ele>851.0</ele><time>2026-05-02T11:49:45.284Z</time></trkpt><trkpt lat="42.1575983" lon="13.6742328"><ele>851.0</ele><time>2026-05-02T11:49:48.291Z</time></trkpt><trkpt lat="42.1575477" lon="13.6743336"><ele>851.0000000000001</ele><time>2026-05-02T11:49:50.293Z</time></trkpt><trkpt lat="42.1575011" lon="13.6744496"><ele>851.0</ele><time>2026-05-02T11:49:52.279Z</time></trkpt><trkpt lat="42.157458" lon="13.6745695"><ele>851.6666666666667</ele><time>2026-05-02T11:49:54.247Z</time></trkpt><trkpt lat="42.1574138" lon="13.674695"><ele>852.3333333333334</ele><time>2026-05-02T11:49:56.273Z</time></trkpt><trkpt lat="42.1573956" lon="13.6748325"><ele>853.0</ele><time>2026-05-02T11:49:58.273Z</time></trkpt><trkpt lat="42.1573872" lon="13.6749335"><ele>853.6666666666667</ele><time>2026-05-02T11:50:00.277Z</time></trkpt><trkpt lat="42.1573756" lon="13.6750232"><ele>854.3333333333334</ele><time>2026-05-02T11:50:06.292Z</time></trkpt><trkpt lat="42.1573105" lon="13.6750715"><ele>855.0</ele><time>2026-05-02T11:50:09.293Z</time></trkpt><trkpt lat="42.1572611" lon="13.6749807"><ele>849.3333333333334</ele><time>2026-05-02T11:50:13.303Z</time></trkpt><trkpt lat="42.1572467" lon="13.6748903"><ele>843.6666666666667</ele><time>2026-05-02T11:50:15.299Z</time></trkpt><trkpt lat="42.1572252" lon="13.6747888"><ele>838.0</ele><time>2026-05-02T11:50:17.3Z</time></trkpt><trkpt lat="42.157203" lon="13.6746664"><ele>832.3333333333334</ele><time>2026-05-02T11:50:19.303Z</time></trkpt><trkpt lat="42.1571978" lon="13.6745381"><ele>826.6666666666667</ele><time>2026-05-02T11:50:21.292Z</time></trkpt><trkpt lat="42.1572017" lon="13.6744238"><ele>821.0</ele><time>2026-05-02T11:50:23.292Z</time></trkpt><trkpt lat="42.1572104" lon="13.6743126"><ele>821.0000000000001</ele><time>2026-05-02T11:50:25.291Z</time></trkpt><trkpt lat="42.1572005" lon="13.6742112"><ele>821.0</ele><time>2026-05-02T11:50:27.297Z</time></trkpt><trkpt lat="42.1572114" lon="13.6741013"><ele>821.0</ele><time>2026-05-02T11:50:29.296Z</time></trkpt><trkpt lat="42.1572338" lon="13.673986"><ele>821.0</ele><time>2026-05-02T11:50:31.295Z</time></trkpt><trkpt lat="42.1571825" lon="13.6739145"><ele>821.0000000000001</ele><time>2026-05-02T11:50:34.282Z</time></trkpt><trkpt lat="42.1571087" lon="13.6738874"><ele>821.0</ele><time>2026-05-02T11:50:36.295Z</time></trkpt><trkpt lat="42.1570346" lon="13.6739202"><ele>821.0000000000001</ele><time>2026-05-02T11:50:39.295Z</time></trkpt><trkpt lat="42.1569693" lon="13.6739978"><ele>821.0</ele><time>2026-05-02T11:50:59.296Z</time></trkpt><trkpt lat="42.1569029" lon="13.6741024"><ele>821.0</ele><time>2026-05-02T11:51:01.286Z</time></trkpt><trkpt lat="42.1568605" lon="13.6742079"><ele>821.0</ele><time>2026-05-02T11:51:03.278Z</time></trkpt><trkpt lat="42.156869" lon="13.6743299"><ele>821.0000000000001</ele><time>2026-05-02T11:51:06.285Z</time></trkpt><trkpt lat="42.1568694" lon="13.6744382"><ele>821.0</ele><time>2026-05-02T11:51:08.29Z</time></trkpt><trkpt lat="42.1568521" lon="13.6745317"><ele>819.3333333333334</ele><time>2026-05-02T11:51:10.294Z</time></trkpt><trkpt lat="42.1568122" lon="13.6746202"><ele>817.6666666666667</ele><time>2026-05-02T11:51:13.301Z</time></trkpt><trkpt lat="42.1567781" lon="13.674712"><ele>816.0</ele><time>2026-05-02T11:51:17.292Z</time></trkpt><trkpt lat="42.1567576" lon="13.6748115"><ele>814.3333333333333</ele><time>2026-05-02T11:53:11.287Z</time></trkpt><trkpt lat="42.1567272" lon="13.6749078"><ele>812.6666666666666</ele><time>2026-05-02T11:53:13.287Z</time></trkpt><trkpt lat="42.156684" lon="13.6750258"><ele>811.0</ele><time>2026-05-02T11:53:15.282Z</time></trkpt><trkpt lat="42.1566379" lon="13.6751443"><ele>809.6666666666666</ele><time>2026-05-02T11:53:17.297Z</time></trkpt><trkpt lat="42.1565797" lon="13.6752783"><ele>808.3333333333333</ele><time>2026-05-02T11:53:19.284Z</time></trkpt><trkpt lat="42.1565558" lon="13.6753619"><ele>807.0</ele><time>2026-05-02T11:53:20.285Z</time></trkpt><trkpt lat="42.1565355" lon="13.6754498"><ele>805.6666666666667</ele><time>2026-05-02T11:53:21.286Z</time></trkpt><trkpt lat="42.1565177" lon="13.6755433"><ele>804.3333333333334</ele><time>2026-05-02T11:53:22.286Z</time></trkpt><trkpt lat="42.1564898" lon="13.6757057"><ele>803.0</ele><time>2026-05-02T11:53:24.287Z</time></trkpt><trkpt lat="42.156452" lon="13.6758351"><ele>805.1666666666667</ele><time>2026-05-02T11:53:26.277Z</time></trkpt><trkpt lat="42.1564005" lon="13.6759311"><ele>807.3333333333334</ele><time>2026-05-02T11:53:28.279Z</time></trkpt><trkpt lat="42.15638" lon="13.6760171"><ele>809.5</ele><time>2026-05-02T11:53:30.285Z</time></trkpt><trkpt lat="42.1563928" lon="13.6761072"><ele>811.6666666666667</ele><time>2026-05-02T11:53:56.283Z</time></trkpt><trkpt lat="42.1563958" lon="13.6762175"><ele>813.8333333333334</ele><time>2026-05-02T11:54:28.268Z</time></trkpt><trkpt lat="42.1564039" lon="13.6763248"><ele>816.0</ele><time>2026-05-02T11:54:30.283Z</time></trkpt><trkpt lat="42.1564405" lon="13.676451"><ele>816.0</ele><time>2026-05-02T11:54:32.273Z</time></trkpt><trkpt lat="42.1564671" lon="13.676566"><ele>816.0</ele><time>2026-05-02T11:54:34.271Z</time></trkpt><trkpt lat="42.1564889" lon="13.6766766"><ele>816.0</ele><time>2026-05-02T11:54:36.267Z</time></trkpt><trkpt lat="42.1565145" lon="13.6767891"><ele>816.0</ele><time>2026-05-02T11:54:38.274Z</time></trkpt><trkpt lat="42.1565305" lon="13.6768897"><ele>816.0</ele><time>2026-05-02T11:54:40.273Z</time></trkpt><trkpt lat="42.1565711" lon="13.6770314"><ele>810.1666666666666</ele><time>2026-05-02T11:54:42.27Z</time></trkpt><trkpt lat="42.1566071" lon="13.6771149"><ele>804.3333333333333</ele><time>2026-05-02T11:54:43.274Z</time></trkpt><trkpt lat="42.1566503" lon="13.6772026"><ele>798.5</ele><time>2026-05-02T11:54:44.267Z</time></trkpt><trkpt lat="42.1566941" lon="13.6772794"><ele>792.6666666666666</ele><time>2026-05-02T11:54:45.27Z</time></trkpt><trkpt lat="42.1567348" lon="13.6773625"><ele>786.8333333333333</ele><time>2026-05-02T11:54:46.276Z</time></trkpt><trkpt lat="42.1567658" lon="13.6774563"><ele>781.0</ele><time>2026-05-02T11:54:47.274Z</time></trkpt><trkpt lat="42.1567986" lon="13.6775568"><ele>781.0</ele><time>2026-05-02T11:54:48.28Z</time></trkpt><trkpt lat="42.1568222" lon="13.6776588"><ele>781.0</ele><time>2026-05-02T11:54:49.282Z</time></trkpt><trkpt lat="42.1568441" lon="13.6777709"><ele>781.0</ele><time>2026-05-02T11:54:50.285Z</time></trkpt><trkpt lat="42.1568729" lon="13.6778869"><ele>781.0</ele><time>2026-05-02T11:54:51.285Z</time></trkpt><trkpt lat="42.1569022" lon="13.6780146"><ele>781.0</ele><time>2026-05-02T11:54:52.277Z</time></trkpt><trkpt lat="42.1569305" lon="13.6781371"><ele>780.4</ele><time>2026-05-02T11:54:53.278Z</time></trkpt><trkpt lat="42.1569691" lon="13.6782554"><ele>779.8</ele><time>2026-05-02T11:54:54.274Z</time></trkpt><trkpt lat="42.1570071" lon="13.6783776"><ele>779.1999999999999</ele><time>2026-05-02T11:54:55.271Z</time></trkpt><trkpt lat="42.1570378" lon="13.6785041"><ele>778.5999999999999</ele><time>2026-05-02T11:54:56.267Z</time></trkpt><trkpt lat="42.1570699" lon="13.6786375"><ele>778.0</ele><time>2026-05-02T11:54:57.281Z</time></trkpt><trkpt lat="42.1571043" lon="13.6787747"><ele>778.0</ele><time>2026-05-02T11:54:58.274Z</time></trkpt><trkpt lat="42.15714" lon="13.6789071"><ele>778.0</ele><time>2026-05-02T11:54:59.274Z</time></trkpt><trkpt lat="42.1571738" lon="13.6790289"><ele>778.0</ele><time>2026-05-02T11:55:00.266Z</time></trkpt><trkpt lat="42.1572029" lon="13.6791476"><ele>778.0</ele><time>2026-05-02T11:55:01.271Z</time></trkpt><trkpt lat="42.1572408" lon="13.6792606"><ele>778.0</ele><time>2026-05-02T11:55:02.262Z</time></trkpt><trkpt lat="42.1572761" lon="13.6793591"><ele>775.2</ele><time>2026-05-02T11:55:03.265Z</time></trkpt><trkpt lat="42.1572947" lon="13.6794596"><ele>772.4</ele><time>2026-05-02T11:55:04.267Z</time></trkpt><trkpt lat="42.1572907" lon="13.6795688"><ele>769.6</ele><time>2026-05-02T11:55:05.269Z</time></trkpt><trkpt lat="42.1572675" lon="13.6797114"><ele>766.8000000000001</ele><time>2026-05-02T11:55:06.269Z</time></trkpt><trkpt lat="42.1572391" lon="13.6798629"><ele>764.0</ele><time>2026-05-02T11:55:07.265Z</time></trkpt><trkpt lat="42.1571926" lon="13.6800304"><ele>764.0</ele><time>2026-05-02T11:55:08.268Z</time></trkpt><trkpt lat="42.1571548" lon="13.6802002"><ele>764.0</ele><time>2026-05-02T11:55:09.27Z</time></trkpt><trkpt lat="42.1571236" lon="13.6803736"><ele>764.0</ele><time>2026-05-02T11:55:10.349Z</time></trkpt><trkpt lat="42.1570833" lon="13.6805329"><ele>764.0</ele><time>2026-05-02T11:55:11.361Z</time></trkpt><trkpt lat="42.1570364" lon="13.6806857"><ele>759.25</ele><time>2026-05-02T11:55:12.348Z</time></trkpt><trkpt lat="42.1569735" lon="13.6808385"><ele>754.5</ele><time>2026-05-02T11:55:13.34Z</time></trkpt><trkpt lat="42.1569095" lon="13.6809788"><ele>749.75</ele><time>2026-05-02T11:55:14.344Z</time></trkpt><trkpt lat="42.1568216" lon="13.6811041"><ele>745.0</ele><time>2026-05-02T11:55:15.337Z</time></trkpt><trkpt lat="42.1567453" lon="13.6812119"><ele>743.5</ele><time>2026-05-02T11:55:16.342Z</time></trkpt><trkpt lat="42.1566616" lon="13.6813303"><ele>742.0</ele><time>2026-05-02T11:55:17.355Z</time></trkpt><trkpt lat="42.1565774" lon="13.6814475"><ele>740.5</ele><time>2026-05-02T11:55:18.356Z</time></trkpt><trkpt lat="42.156457" lon="13.681565"><ele>739.0</ele><time>2026-05-02T11:55:19.353Z</time></trkpt><trkpt lat="42.1563503" lon="13.6816809"><ele>736.6666666666667</ele><time>2026-05-02T11:55:20.362Z</time></trkpt><trkpt lat="42.1562315" lon="13.6818076"><ele>734.3333333333334</ele><time>2026-05-02T11:55:21.368Z</time></trkpt><trkpt lat="42.1561035" lon="13.6819401"><ele>732.0</ele><time>2026-05-02T11:55:22.358Z</time></trkpt><trkpt lat="42.15598" lon="13.6820694"><ele>731.0</ele><time>2026-05-02T11:55:23.355Z</time></trkpt><trkpt lat="42.1558578" lon="13.6821914"><ele>730.0</ele><time>2026-05-02T11:55:24.354Z</time></trkpt><trkpt lat="42.1557364" lon="13.6823092"><ele>729.0</ele><time>2026-05-02T11:55:25.354Z</time></trkpt><trkpt lat="42.1556124" lon="13.6824234"><ele>725.5</ele><time>2026-05-02T11:55:26.347Z</time></trkpt><trkpt lat="42.1554925" lon="13.6825322"><ele>722.0</ele><time>2026-05-02T11:55:27.356Z</time></trkpt><trkpt lat="42.1553756" lon="13.6826351"><ele>718.5</ele><time>2026-05-02T11:55:28.351Z</time></trkpt><trkpt lat="42.1552645" lon="13.6827345"><ele>715.0</ele><time>2026-05-02T11:55:29.349Z</time></trkpt><trkpt lat="42.1551568" lon="13.6828393"><ele>715.0</ele><time>2026-05-02T11:55:30.347Z</time></trkpt><trkpt lat="42.1550533" lon="13.6829483"><ele>715.0</ele><time>2026-05-02T11:55:31.358Z</time></trkpt><trkpt lat="42.1549545" lon="13.6830641"><ele>715.0</ele><time>2026-05-02T11:55:32.353Z</time></trkpt><trkpt lat="42.1548571" lon="13.6831784"><ele>715.0</ele><time>2026-05-02T11:55:33.363Z</time></trkpt><trkpt lat="42.1547558" lon="13.6832935"><ele>712.8</ele><time>2026-05-02T11:55:34.359Z</time></trkpt><trkpt lat="42.1546576" lon="13.6834051"><ele>710.6</ele><time>2026-05-02T11:55:35.362Z</time></trkpt><trkpt lat="42.1545796" lon="13.6834976"><ele>708.4000000000001</ele><time>2026-05-02T11:55:36.353Z</time></trkpt><trkpt lat="42.1545172" lon="13.6835697"><ele>706.2</ele><time>2026-05-02T11:55:37.363Z</time></trkpt><trkpt lat="42.1544262" lon="13.6836661"><ele>704.0</ele><time>2026-05-02T11:55:39.357Z</time></trkpt><trkpt lat="42.1543438" lon="13.6836796"><ele>702.8000000000001</ele><time>2026-05-02T11:55:41.362Z</time></trkpt><trkpt lat="42.1542673" lon="13.6836116"><ele>701.6</ele><time>2026-05-02T11:55:43.363Z</time></trkpt><trkpt lat="42.1542007" lon="13.6836021"><ele>700.4</ele><time>2026-05-02T11:55:45.37Z</time></trkpt><trkpt lat="42.1540985" lon="13.6836777"><ele>699.2</ele><time>2026-05-02T11:55:47.354Z</time></trkpt><trkpt lat="42.1540352" lon="13.6838124"><ele>698.0</ele><time>2026-05-02T11:55:49.345Z</time></trkpt><trkpt lat="42.1540396" lon="13.6839608"><ele>698.0</ele><time>2026-05-02T11:55:51.361Z</time></trkpt><trkpt lat="42.1541121" lon="13.6840997"><ele>698.0</ele><time>2026-05-02T11:55:53.362Z</time></trkpt><trkpt lat="42.1541384" lon="13.6841922"><ele>698.0</ele><time>2026-05-02T11:55:54.281Z</time></trkpt><trkpt lat="42.1541493" lon="13.684305"><ele>698.0</ele><time>2026-05-02T11:55:55.272Z</time></trkpt><trkpt lat="42.1541364" lon="13.6844254"><ele>698.0</ele><time>2026-05-02T11:55:56.287Z</time></trkpt><trkpt lat="42.1540959" lon="13.6845696"><ele>697.5</ele><time>2026-05-02T11:55:57.28Z</time></trkpt><trkpt lat="42.1540509" lon="13.6847441"><ele>697.0</ele><time>2026-05-02T11:55:58.283Z</time></trkpt><trkpt lat="42.1540078" lon="13.6849149"><ele>696.5</ele><time>2026-05-02T11:55:59.29Z</time></trkpt><trkpt lat="42.1539598" lon="13.685097"><ele>696.0</ele><time>2026-05-02T11:56:00.28Z</time></trkpt><trkpt lat="42.1539129" lon="13.6852858"><ele>695.25</ele><time>2026-05-02T11:56:01.277Z</time></trkpt><trkpt lat="42.1538641" lon="13.685469"><ele>694.5</ele><time>2026-05-02T11:56:02.274Z</time></trkpt><trkpt lat="42.1538162" lon="13.6856312"><ele>693.75</ele><time>2026-05-02T11:56:03.278Z</time></trkpt><trkpt lat="42.1537769" lon="13.6858121"><ele>693.0</ele><time>2026-05-02T11:56:04.292Z</time></trkpt><trkpt lat="42.1537235" lon="13.6859954"><ele>690.25</ele><time>2026-05-02T11:56:05.285Z</time></trkpt><trkpt lat="42.1536724" lon="13.6861909"><ele>687.5</ele><time>2026-05-02T11:56:06.283Z</time></trkpt><trkpt lat="42.1536293" lon="13.6863844"><ele>684.75</ele><time>2026-05-02T11:56:07.299Z</time></trkpt><trkpt lat="42.1535816" lon="13.6865665"><ele>682.0</ele><time>2026-05-02T11:56:08.298Z</time></trkpt><trkpt lat="42.1535414" lon="13.6867483"><ele>680.25</ele><time>2026-05-02T11:56:09.299Z</time></trkpt><trkpt lat="42.1535081" lon="13.6869283"><ele>678.5</ele><time>2026-05-02T11:56:10.303Z</time></trkpt><trkpt lat="42.153479" lon="13.6870883"><ele>676.75</ele><time>2026-05-02T11:56:11.301Z</time></trkpt><trkpt lat="42.1534467" lon="13.6872338"><ele>675.0</ele><time>2026-05-02T11:56:12.301Z</time></trkpt><trkpt lat="42.153416" lon="13.6873568"><ele>675.0</ele><time>2026-05-02T11:56:13.303Z</time></trkpt><trkpt lat="42.1534001" lon="13.687486"><ele>675.0</ele><time>2026-05-02T11:56:14.306Z</time></trkpt><trkpt lat="42.1533795" lon="13.687596"><ele>675.0</ele><time>2026-05-02T11:56:15.302Z</time></trkpt><trkpt lat="42.1533273" lon="13.6877196"><ele>675.0</ele><time>2026-05-02T11:56:17.304Z</time></trkpt><trkpt lat="42.153262" lon="13.6877455"><ele>675.0</ele><time>2026-05-02T11:56:19.309Z</time></trkpt><trkpt lat="42.1532008" lon="13.6877246"><ele>675.0</ele><time>2026-05-02T11:56:20.302Z</time></trkpt><trkpt lat="42.1531155" lon="13.6877024"><ele>675.0</ele><time>2026-05-02T11:56:21.294Z</time></trkpt><trkpt lat="42.1530232" lon="13.6877231"><ele>675.0</ele><time>2026-05-02T11:56:22.304Z</time></trkpt><trkpt lat="42.1529292" lon="13.6877798"><ele>675.0</ele><time>2026-05-02T11:56:23.298Z</time></trkpt><trkpt lat="42.1528287" lon="13.6878561"><ele>675.0</ele><time>2026-05-02T11:56:24.303Z</time></trkpt><trkpt lat="42.1527284" lon="13.6879172"><ele>675.0</ele><time>2026-05-02T11:56:25.295Z</time></trkpt><trkpt lat="42.1526336" lon="13.687984"><ele>674.2</ele><time>2026-05-02T11:56:26.298Z</time></trkpt><trkpt lat="42.1525584" lon="13.6880661"><ele>673.4</ele><time>2026-05-02T11:56:27.302Z</time></trkpt><trkpt lat="42.1524929" lon="13.6881672"><ele>672.5999999999999</ele><time>2026-05-02T11:56:28.302Z</time></trkpt><trkpt lat="42.1524333" lon="13.6882848"><ele>671.8</ele><time>2026-05-02T11:56:29.305Z</time></trkpt><trkpt lat="42.1523814" lon="13.688423"><ele>671.0</ele><time>2026-05-02T11:56:30.318Z</time></trkpt><trkpt lat="42.1523245" lon="13.6885521"><ele>669.4</ele><time>2026-05-02T11:56:31.305Z</time></trkpt><trkpt lat="42.1522563" lon="13.6886701"><ele>667.8</ele><time>2026-05-02T11:56:32.304Z</time></trkpt><trkpt lat="42.1521827" lon="13.6887741"><ele>666.1999999999999</ele><time>2026-05-02T11:56:33.305Z</time></trkpt><trkpt lat="42.1520979" lon="13.6888576"><ele>664.5999999999999</ele><time>2026-05-02T11:56:34.298Z</time></trkpt><trkpt lat="42.1519994" lon="13.6889312"><ele>663.0</ele><time>2026-05-02T11:56:35.302Z</time></trkpt><trkpt lat="42.1518942" lon="13.6890126"><ele>663.0</ele><time>2026-05-02T11:56:36.307Z</time></trkpt><trkpt lat="42.1517794" lon="13.6890934"><ele>663.0</ele><time>2026-05-02T11:56:37.307Z</time></trkpt><trkpt lat="42.1516682" lon="13.6891717"><ele>663.0</ele><time>2026-05-02T11:56:38.306Z</time></trkpt><trkpt lat="42.1515661" lon="13.689238"><ele>663.0</ele><time>2026-05-02T11:56:39.315Z</time></trkpt><trkpt lat="42.1514756" lon="13.6892956"><ele>662.8</ele><time>2026-05-02T11:56:40.309Z</time></trkpt><trkpt lat="42.15139" lon="13.6893545"><ele>662.5999999999999</ele><time>2026-05-02T11:56:41.311Z</time></trkpt><trkpt lat="42.1513127" lon="13.689408"><ele>662.4000000000001</ele><time>2026-05-02T11:56:42.304Z</time></trkpt><trkpt lat="42.1512474" lon="13.6894513"><ele>662.2</ele><time>2026-05-02T11:56:43.307Z</time></trkpt><trkpt lat="42.1511615" lon="13.6895705"><ele>662.0</ele><time>2026-05-02T11:56:45.303Z</time></trkpt><trkpt lat="42.1511337" lon="13.6896649"><ele>662.0</ele><time>2026-05-02T11:56:46.299Z</time></trkpt><trkpt lat="42.1511127" lon="13.6897786"><ele>662.0</ele><time>2026-05-02T11:56:47.299Z</time></trkpt><trkpt lat="42.1510934" lon="13.6899245"><ele>662.0</ele><time>2026-05-02T11:56:48.296Z</time></trkpt><trkpt lat="42.1510719" lon="13.6900782"><ele>662.0</ele><time>2026-05-02T11:56:49.301Z</time></trkpt><trkpt lat="42.1510337" lon="13.6902407"><ele>662.0</ele><time>2026-05-02T11:56:50.302Z</time></trkpt><trkpt lat="42.1509867" lon="13.6904147"><ele>662.0</ele><time>2026-05-02T11:56:51.299Z</time></trkpt><trkpt lat="42.1509264" lon="13.6905927"><ele>662.0</ele><time>2026-05-02T11:56:52.307Z</time></trkpt><trkpt lat="42.150866" lon="13.6907902"><ele>662.0</ele><time>2026-05-02T11:56:53.317Z</time></trkpt><trkpt lat="42.1508036" lon="13.6909951"><ele>662.0</ele><time>2026-05-02T11:56:54.303Z</time></trkpt><trkpt lat="42.1507432" lon="13.6911622"><ele>662.0</ele><time>2026-05-02T11:56:55.307Z</time></trkpt><trkpt lat="42.1506881" lon="13.6913212"><ele>662.0</ele><time>2026-05-02T11:56:56.308Z</time></trkpt><trkpt lat="42.1506425" lon="13.6914666"><ele>662.0</ele><time>2026-05-02T11:56:57.31Z</time></trkpt><trkpt lat="42.1506036" lon="13.6916174"><ele>661.5</ele><time>2026-05-02T11:56:58.296Z</time></trkpt><trkpt lat="42.1505392" lon="13.6917572"><ele>661.0</ele><time>2026-05-02T11:56:59.307Z</time></trkpt><trkpt lat="42.1504759" lon="13.6919043"><ele>660.5</ele><time>2026-05-02T11:57:00.301Z</time></trkpt><trkpt lat="42.1504065" lon="13.6920527"><ele>660.0</ele><time>2026-05-02T11:57:01.299Z</time></trkpt><trkpt lat="42.1503381" lon="13.6922138"><ele>660.0</ele><time>2026-05-02T11:57:02.297Z</time></trkpt><trkpt lat="42.1502811" lon="13.6923874"><ele>660.0</ele><time>2026-05-02T11:57:03.303Z</time></trkpt><trkpt lat="42.1502267" lon="13.6925402"><ele>660.0</ele><time>2026-05-02T11:57:04.301Z</time></trkpt><trkpt lat="42.1501758" lon="13.692662"><ele>660.0</ele><time>2026-05-02T11:57:05.295Z</time></trkpt><trkpt lat="42.1501402" lon="13.6927409"><ele>660.0</ele><time>2026-05-02T11:57:06.294Z</time></trkpt><trkpt lat="42.150093" lon="13.692801"><ele>659.6</ele><time>2026-05-02T11:57:07.292Z</time></trkpt><trkpt lat="42.1499731" lon="13.6928623"><ele>659.2</ele><time>2026-05-02T11:57:09.299Z</time></trkpt><trkpt lat="42.1499059" lon="13.6929116"><ele>658.8</ele><time>2026-05-02T11:57:10.299Z</time></trkpt><trkpt lat="42.1498339" lon="13.6929916"><ele>658.4</ele><time>2026-05-02T11:57:11.286Z</time></trkpt><trkpt lat="42.1497674" lon="13.6931083"><ele>658.0</ele><time>2026-05-02T11:57:12.306Z</time></trkpt><trkpt lat="42.1497092" lon="13.6932429"><ele>656.0</ele><time>2026-05-02T11:57:13.295Z</time></trkpt><trkpt lat="42.1496505" lon="13.6933955"><ele>654.0</ele><time>2026-05-02T11:57:14.305Z</time></trkpt><trkpt lat="42.1495837" lon="13.6935581"><ele>652.0</ele><time>2026-05-02T11:57:15.315Z</time></trkpt><trkpt lat="42.1495247" lon="13.6937188"><ele>650.0</ele><time>2026-05-02T11:57:16.293Z</time></trkpt><trkpt lat="42.1494552" lon="13.6938548"><ele>650.0</ele><time>2026-05-02T11:57:17.299Z</time></trkpt><trkpt lat="42.1493846" lon="13.6939868"><ele>650.0</ele><time>2026-05-02T11:57:18.305Z</time></trkpt><trkpt lat="42.1493201" lon="13.6941146"><ele>650.0</ele><time>2026-05-02T11:57:19.3Z</time></trkpt><trkpt lat="42.1492559" lon="13.6942407"><ele>650.0</ele><time>2026-05-02T11:57:20.303Z</time></trkpt><trkpt lat="42.1491928" lon="13.6943589"><ele>650.0</ele><time>2026-05-02T11:57:21.307Z</time></trkpt><trkpt lat="42.1491296" lon="13.6944744"><ele>650.0</ele><time>2026-05-02T11:57:22.297Z</time></trkpt><trkpt lat="42.1490609" lon="13.6945749"><ele>650.0</ele><time>2026-05-02T11:57:23.303Z</time></trkpt><trkpt lat="42.1489918" lon="13.6946882"><ele>650.0</ele><time>2026-05-02T11:57:24.307Z</time></trkpt><trkpt lat="42.1489107" lon="13.6948079"><ele>650.0</ele><time>2026-05-02T11:57:25.3Z</time></trkpt><trkpt lat="42.1488457" lon="13.694947"><ele>650.0</ele><time>2026-05-02T11:57:26.299Z</time></trkpt><trkpt lat="42.14879" lon="13.6950682"><ele>650.0</ele><time>2026-05-02T11:57:27.307Z</time></trkpt><trkpt lat="42.1487347" lon="13.6951631"><ele>650.0</ele><time>2026-05-02T11:57:28.301Z</time></trkpt><trkpt lat="42.1486661" lon="13.6952291"><ele>650.0</ele><time>2026-05-02T11:57:29.3Z</time></trkpt><trkpt lat="42.1485747" lon="13.695292"><ele>650.0</ele><time>2026-05-02T11:57:30.295Z</time></trkpt><trkpt lat="42.1484645" lon="13.6953606"><ele>649.8</ele><time>2026-05-02T11:57:31.303Z</time></trkpt><trkpt lat="42.148373" lon="13.695441"><ele>649.6</ele><time>2026-05-02T11:57:32.305Z</time></trkpt><trkpt lat="42.1483186" lon="13.6955394"><ele>649.4000000000001</ele><time>2026-05-02T11:57:33.316Z</time></trkpt><trkpt lat="42.1482688" lon="13.6956525"><ele>649.2</ele><time>2026-05-02T11:57:34.3Z</time></trkpt><trkpt lat="42.1482228" lon="13.6957562"><ele>649.0</ele><time>2026-05-02T11:57:35.305Z</time></trkpt><trkpt lat="42.1481785" lon="13.6958609"><ele>649.0</ele><time>2026-05-02T11:57:36.314Z</time></trkpt><trkpt lat="42.1481264" lon="13.6959446"><ele>649.0</ele><time>2026-05-02T11:57:37.294Z</time></trkpt><trkpt lat="42.1480639" lon="13.6960019"><ele>649.0</ele><time>2026-05-02T11:57:38.306Z</time></trkpt><trkpt lat="42.1479847" lon="13.6960346"><ele>649.0</ele><time>2026-05-02T11:57:39.312Z</time></trkpt><trkpt lat="42.1478868" lon="13.6960516"><ele>649.0</ele><time>2026-05-02T11:57:40.301Z</time></trkpt><trkpt lat="42.1477742" lon="13.6960624"><ele>649.0</ele><time>2026-05-02T11:57:41.298Z</time></trkpt><trkpt lat="42.1476517" lon="13.6960817"><ele>649.0</ele><time>2026-05-02T11:57:42.302Z</time></trkpt><trkpt lat="42.1475289" lon="13.6960983"><ele>649.0</ele><time>2026-05-02T11:57:43.3Z</time></trkpt><trkpt lat="42.1474106" lon="13.6961109"><ele>649.0</ele><time>2026-05-02T11:57:44.308Z</time></trkpt><trkpt lat="42.1472991" lon="13.6961272"><ele>648.0</ele><time>2026-05-02T11:57:45.301Z</time></trkpt><trkpt lat="42.1471927" lon="13.6961452"><ele>647.0</ele><time>2026-05-02T11:57:46.307Z</time></trkpt><trkpt lat="42.1471036" lon="13.6961486"><ele>646.0</ele><time>2026-05-02T11:57:47.293Z</time></trkpt><trkpt lat="42.1469932" lon="13.6961047"><ele>645.0</ele><time>2026-05-02T11:57:49.296Z</time></trkpt><trkpt lat="42.1469363" lon="13.6960559"><ele>644.0</ele><time>2026-05-02T11:57:50.313Z</time></trkpt><trkpt lat="42.1468598" lon="13.6960019"><ele>644.0</ele><time>2026-05-02T11:57:51.313Z</time></trkpt><trkpt lat="42.1467673" lon="13.6959493"><ele>644.0</ele><time>2026-05-02T11:57:52.314Z</time></trkpt><trkpt lat="42.1466639" lon="13.6959019"><ele>644.0</ele><time>2026-05-02T11:57:53.308Z</time></trkpt><trkpt lat="42.1465601" lon="13.6958682"><ele>644.0</ele><time>2026-05-02T11:57:54.298Z</time></trkpt><trkpt lat="42.1464689" lon="13.6958525"><ele>644.0</ele><time>2026-05-02T11:57:55.301Z</time></trkpt><trkpt lat="42.146379" lon="13.6958428"><ele>641.6</ele><time>2026-05-02T11:57:56.297Z</time></trkpt><trkpt lat="42.1462952" lon="13.6958234"><ele>639.2</ele><time>2026-05-02T11:57:57.297Z</time></trkpt><trkpt lat="42.1462017" lon="13.6958074"><ele>636.8000000000001</ele><time>2026-05-02T11:57:58.3Z</time></trkpt><trkpt lat="42.1461143" lon="13.6958173"><ele>634.4000000000001</ele><time>2026-05-02T11:57:59.294Z</time></trkpt><trkpt lat="42.1460256" lon="13.6958471"><ele>632.0</ele><time>2026-05-02T11:58:00.294Z</time></trkpt><trkpt lat="42.1459294" lon="13.695895"><ele>632.0</ele><time>2026-05-02T11:58:01.285Z</time></trkpt><trkpt lat="42.1458172" lon="13.6959581"><ele>632.0</ele><time>2026-05-02T11:58:02.295Z</time></trkpt><trkpt lat="42.1456844" lon="13.6960172"><ele>632.0</ele><time>2026-05-02T11:58:03.3Z</time></trkpt><trkpt lat="42.14555" lon="13.6960641"><ele>632.0</ele><time>2026-05-02T11:58:04.297Z</time></trkpt><trkpt lat="42.1454329" lon="13.6961161"><ele>629.0</ele><time>2026-05-02T11:58:05.305Z</time></trkpt><trkpt lat="42.1453176" lon="13.6961666"><ele>626.0</ele><time>2026-05-02T11:58:06.303Z</time></trkpt><trkpt lat="42.1452024" lon="13.6962164"><ele>623.0</ele><time>2026-05-02T11:58:07.301Z</time></trkpt><trkpt lat="42.1450862" lon="13.6962538"><ele>620.0</ele><time>2026-05-02T11:58:08.307Z</time></trkpt><trkpt lat="42.1449651" lon="13.6962911"><ele>617.25</ele><time>2026-05-02T11:58:09.312Z</time></trkpt><trkpt lat="42.1448266" lon="13.6963164"><ele>614.5</ele><time>2026-05-02T11:58:10.302Z</time></trkpt><trkpt lat="42.1446839" lon="13.6963328"><ele>611.75</ele><time>2026-05-02T11:58:11.304Z</time></trkpt><trkpt lat="42.1445606" lon="13.6963386"><ele>609.0</ele><time>2026-05-02T11:58:12.306Z</time></trkpt><trkpt lat="42.144458" lon="13.6963474"><ele>609.0</ele><time>2026-05-02T11:58:13.305Z</time></trkpt><trkpt lat="42.1443589" lon="13.6963667"><ele>609.0</ele><time>2026-05-02T11:58:14.327Z</time></trkpt><trkpt lat="42.1442636" lon="13.6964103"><ele>609.0</ele><time>2026-05-02T11:58:15.392Z</time></trkpt><trkpt lat="42.1441737" lon="13.6964545"><ele>609.0</ele><time>2026-05-02T11:58:16.397Z</time></trkpt><trkpt lat="42.1440888" lon="13.6965159"><ele>609.0</ele><time>2026-05-02T11:58:17.39Z</time></trkpt><trkpt lat="42.1439971" lon="13.6965999"><ele>606.25</ele><time>2026-05-02T11:58:18.379Z</time></trkpt><trkpt lat="42.1439006" lon="13.696684"><ele>603.5</ele><time>2026-05-02T11:58:19.378Z</time></trkpt><trkpt lat="42.1437844" lon="13.6968125"><ele>600.75</ele><time>2026-05-02T11:58:20.374Z</time></trkpt><trkpt lat="42.1436474" lon="13.6968839"><ele>598.0</ele><time>2026-05-02T11:58:21.369Z</time></trkpt><trkpt lat="42.1435043" lon="13.6969596"><ele>597.25</ele><time>2026-05-02T11:58:22.391Z</time></trkpt><trkpt lat="42.143365" lon="13.6970445"><ele>596.5</ele><time>2026-05-02T11:58:23.396Z</time></trkpt><trkpt lat="42.1432331" lon="13.6971402"><ele>595.75</ele><time>2026-05-02T11:58:24.399Z</time></trkpt><trkpt lat="42.143109" lon="13.6972382"><ele>595.0</ele><time>2026-05-02T11:58:25.397Z</time></trkpt><trkpt lat="42.1429949" lon="13.6973467"><ele>593.75</ele><time>2026-05-02T11:58:26.407Z</time></trkpt><trkpt lat="42.14288" lon="13.6974467"><ele>592.5</ele><time>2026-05-02T11:58:27.409Z</time></trkpt><trkpt lat="42.142761" lon="13.6975478"><ele>591.25</ele><time>2026-05-02T11:58:28.394Z</time></trkpt><trkpt lat="42.1426385" lon="13.6976452"><ele>590.0</ele><time>2026-05-02T11:58:29.398Z</time></trkpt><trkpt lat="42.1425188" lon="13.6977369"><ele>588.5</ele><time>2026-05-02T11:58:30.395Z</time></trkpt><trkpt lat="42.1424016" lon="13.6978216"><ele>587.0</ele><time>2026-05-02T11:58:31.394Z</time></trkpt><trkpt lat="42.1422836" lon="13.697901"><ele>585.5</ele><time>2026-05-02T11:58:32.391Z</time></trkpt><trkpt lat="42.1421671" lon="13.6979662"><ele>584.0</ele><time>2026-05-02T11:58:33.392Z</time></trkpt><trkpt lat="42.1420504" lon="13.6980181"><ele>582.6</ele><time>2026-05-02T11:58:34.391Z</time></trkpt><trkpt lat="42.1419387" lon="13.6980603"><ele>581.2</ele><time>2026-05-02T11:58:35.39Z</time></trkpt><trkpt lat="42.1418308" lon="13.6980925"><ele>579.8000000000001</ele><time>2026-05-02T11:58:36.392Z</time></trkpt><trkpt lat="42.1417253" lon="13.6981063"><ele>578.4</ele><time>2026-05-02T11:58:37.386Z</time></trkpt><trkpt lat="42.1416177" lon="13.6981048"><ele>577.0</ele><time>2026-05-02T11:58:38.371Z</time></trkpt><trkpt lat="42.141527" lon="13.6980948"><ele>575.0</ele><time>2026-05-02T11:58:39.367Z</time></trkpt><trkpt lat="42.1414369" lon="13.6980728"><ele>573.0</ele><time>2026-05-02T11:58:40.372Z</time></trkpt><trkpt lat="42.1413506" lon="13.6980456"><ele>571.0</ele><time>2026-05-02T11:58:41.368Z</time></trkpt><trkpt lat="42.1412644" lon="13.6980157"><ele>569.0</ele><time>2026-05-02T11:58:42.383Z</time></trkpt><trkpt lat="42.1411781" lon="13.6979799"><ele>567.0</ele><time>2026-05-02T11:58:43.382Z</time></trkpt><trkpt lat="42.1411018" lon="13.697928"><ele>565.0</ele><time>2026-05-02T11:58:44.387Z</time></trkpt><trkpt lat="42.1410381" lon="13.6978675"><ele>565.0</ele><time>2026-05-02T11:58:45.399Z</time></trkpt><trkpt lat="42.1409902" lon="13.6978115"><ele>565.0</ele><time>2026-05-02T11:58:46.374Z</time></trkpt><trkpt lat="42.1409442" lon="13.6976914"><ele>565.0</ele><time>2026-05-02T11:58:48.375Z</time></trkpt><trkpt lat="42.1409091" lon="13.6976035"><ele>565.0</ele><time>2026-05-02T11:58:50.388Z</time></trkpt><trkpt lat="42.1408357" lon="13.69768"><ele>565.0</ele><time>2026-05-02T11:58:53.311Z</time></trkpt><trkpt lat="42.1408075" lon="13.6977621"><ele>565.0</ele><time>2026-05-02T11:58:54.305Z</time></trkpt><trkpt lat="42.140776" lon="13.6978666"><ele>565.0</ele><time>2026-05-02T11:58:55.305Z</time></trkpt><trkpt lat="42.1407276" lon="13.6979719"><ele>565.0</ele><time>2026-05-02T11:58:56.3Z</time></trkpt><trkpt lat="42.1406697" lon="13.6980727"><ele>565.0</ele><time>2026-05-02T11:58:57.318Z</time></trkpt><trkpt lat="42.1406285" lon="13.6981448"><ele>565.0</ele><time>2026-05-02T11:58:58.297Z</time></trkpt><trkpt lat="42.1405777" lon="13.6981979"><ele>565.0</ele><time>2026-05-02T11:59:00.303Z</time></trkpt><trkpt lat="42.1405131" lon="13.6981484"><ele>565.0</ele><time>2026-05-02T11:59:02.319Z</time></trkpt><trkpt lat="42.14046" lon="13.6979943"><ele>565.4</ele><time>2026-05-02T11:59:04.302Z</time></trkpt><trkpt lat="42.1404239" lon="13.697895"><ele>565.8</ele><time>2026-05-02T11:59:05.305Z</time></trkpt><trkpt lat="42.1403783" lon="13.6977873"><ele>566.2</ele><time>2026-05-02T11:59:06.301Z</time></trkpt><trkpt lat="42.1403247" lon="13.6976841"><ele>566.6</ele><time>2026-05-02T11:59:07.307Z</time></trkpt><trkpt lat="42.1402583" lon="13.6975903"><ele>567.0</ele><time>2026-05-02T11:59:08.304Z</time></trkpt><trkpt lat="42.1401776" lon="13.6975027"><ele>567.0</ele><time>2026-05-02T11:59:09.297Z</time></trkpt><trkpt lat="42.1401034" lon="13.697417"><ele>567.0</ele><time>2026-05-02T11:59:10.292Z</time></trkpt><trkpt lat="42.1400406" lon="13.6973743"><ele>567.0</ele><time>2026-05-02T11:59:11.296Z</time></trkpt><trkpt lat="42.139953" lon="13.6973721"><ele>567.0</ele><time>2026-05-02T11:59:13.297Z</time></trkpt><trkpt lat="42.1398357" lon="13.6974358"><ele>567.0</ele><time>2026-05-02T11:59:15.288Z</time></trkpt><trkpt lat="42.139761" lon="13.6974596"><ele>568.1666666666666</ele><time>2026-05-02T11:59:16.289Z</time></trkpt><trkpt lat="42.1396892" lon="13.6974608"><ele>569.3333333333334</ele><time>2026-05-02T11:59:17.29Z</time></trkpt><trkpt lat="42.1396271" lon="13.6974369"><ele>570.5</ele><time>2026-05-02T11:59:18.293Z</time></trkpt><trkpt lat="42.1395695" lon="13.6973932"><ele>571.6666666666667</ele><time>2026-05-02T11:59:19.293Z</time></trkpt><trkpt lat="42.1394918" lon="13.6973461"><ele>572.8333333333334</ele><time>2026-05-02T11:59:20.3Z</time></trkpt><trkpt lat="42.139406" lon="13.6972935"><ele>574.0</ele><time>2026-05-02T11:59:21.307Z</time></trkpt><trkpt lat="42.1393291" lon="13.6972772"><ele>574.0</ele><time>2026-05-02T11:59:22.298Z</time></trkpt><trkpt lat="42.1392335" lon="13.6972789"><ele>574.0</ele><time>2026-05-02T11:59:23.302Z</time></trkpt><trkpt lat="42.1391325" lon="13.6972875"><ele>574.0</ele><time>2026-05-02T11:59:24.302Z</time></trkpt><trkpt lat="42.1390611" lon="13.6972563"><ele>574.0</ele><time>2026-05-02T11:59:25.301Z</time></trkpt><trkpt lat="42.1389562" lon="13.6971635"><ele>574.0</ele><time>2026-05-02T11:59:27.309Z</time></trkpt><trkpt lat="42.1388865" lon="13.6970948"><ele>575.8333333333334</ele><time>2026-05-02T11:59:28.316Z</time></trkpt><trkpt lat="42.138816" lon="13.6970244"><ele>577.6666666666667</ele><time>2026-05-02T11:59:29.312Z</time></trkpt><trkpt lat="42.138764" lon="13.6969486"><ele>579.5</ele><time>2026-05-02T11:59:30.312Z</time></trkpt><trkpt lat="42.1387175" lon="13.6968813"><ele>581.3333333333334</ele><time>2026-05-02T11:59:31.313Z</time></trkpt><trkpt lat="42.1386268" lon="13.696769"><ele>583.1666666666666</ele><time>2026-05-02T11:59:33.308Z</time></trkpt><trkpt lat="42.1385549" lon="13.6967181"><ele>585.0</ele><time>2026-05-02T11:59:34.304Z</time></trkpt><trkpt lat="42.138463" lon="13.6966675"><ele>585.0</ele><time>2026-05-02T11:59:35.305Z</time></trkpt><trkpt lat="42.1383642" lon="13.6966158"><ele>585.0</ele><time>2026-05-02T11:59:36.304Z</time></trkpt><trkpt lat="42.1382687" lon="13.6965649"><ele>585.0</ele><time>2026-05-02T11:59:37.309Z</time></trkpt><trkpt lat="42.1381629" lon="13.6965096"><ele>585.0</ele><time>2026-05-02T11:59:38.307Z</time></trkpt><trkpt lat="42.1380618" lon="13.6964611"><ele>585.0</ele><time>2026-05-02T11:59:39.317Z</time></trkpt><trkpt lat="42.1379593" lon="13.6964109"><ele>586.0</ele><time>2026-05-02T11:59:40.305Z</time></trkpt><trkpt lat="42.1378586" lon="13.6963705"><ele>587.0</ele><time>2026-05-02T11:59:41.295Z</time></trkpt><trkpt lat="42.1377659" lon="13.6963347"><ele>588.0</ele><time>2026-05-02T11:59:42.305Z</time></trkpt><trkpt lat="42.1376908" lon="13.6962878"><ele>589.0</ele><time>2026-05-02T11:59:43.298Z</time></trkpt><trkpt lat="42.1376326" lon="13.6962522"><ele>590.0</ele><time>2026-05-02T11:59:44.294Z</time></trkpt><trkpt lat="42.1375261" lon="13.6961655"><ele>590.0</ele><time>2026-05-02T11:59:46.283Z</time></trkpt><trkpt lat="42.1374699" lon="13.6961209"><ele>590.0</ele><time>2026-05-02T11:59:47.294Z</time></trkpt><trkpt lat="42.1373635" lon="13.6960646"><ele>590.0</ele><time>2026-05-02T11:59:49.288Z</time></trkpt><trkpt lat="42.1372815" lon="13.6960554"><ele>590.0</ele><time>2026-05-02T11:59:51.31Z</time></trkpt><trkpt lat="42.1371949" lon="13.6960612"><ele>590.0</ele><time>2026-05-02T11:59:54.31Z</time></trkpt><trkpt lat="42.1371233" lon="13.6960806"><ele>590.0</ele><time>2026-05-02T11:59:56.286Z</time></trkpt><trkpt lat="42.1370381" lon="13.6961112"><ele>591.0</ele><time>2026-05-02T11:59:58.286Z</time></trkpt><trkpt lat="42.1369302" lon="13.6961299"><ele>592.0</ele><time>2026-05-02T12:00:00.297Z</time></trkpt><trkpt lat="42.1368187" lon="13.6961327"><ele>593.0</ele><time>2026-05-02T12:00:02.277Z</time></trkpt><trkpt lat="42.136742" lon="13.6961203"><ele>594.0</ele><time>2026-05-02T12:02:46.314Z</time></trkpt><trkpt lat="42.1366703" lon="13.6961307"><ele>595.0</ele><time>2026-05-02T12:02:49.303Z</time></trkpt><trkpt lat="42.136596" lon="13.696125"><ele>596.0</ele><time>2026-05-02T12:02:52.311Z</time></trkpt><trkpt lat="42.1365165" lon="13.6961089"><ele>596.5</ele><time>2026-05-02T12:02:54.309Z</time></trkpt><trkpt lat="42.1364411" lon="13.6960913"><ele>597.0</ele><time>2026-05-02T12:02:55.309Z</time></trkpt><trkpt lat="42.1363772" lon="13.6960836"><ele>597.5</ele><time>2026-05-02T12:02:56.295Z</time></trkpt><trkpt lat="42.136298" lon="13.69608"><ele>598.0</ele><time>2026-05-02T12:02:57.294Z</time></trkpt><trkpt lat="42.1362208" lon="13.6960889"><ele>598.5</ele><time>2026-05-02T12:02:58.301Z</time></trkpt><trkpt lat="42.1361465" lon="13.6960907"><ele>599.0</ele><time>2026-05-02T12:02:59.303Z</time></trkpt><trkpt lat="42.1360616" lon="13.6960919"><ele>599.0</ele><time>2026-05-02T12:03:00.296Z</time></trkpt><trkpt lat="42.1359749" lon="13.6960959"><ele>599.0</ele><time>2026-05-02T12:03:01.298Z</time></trkpt><trkpt lat="42.1358951" lon="13.6960966"><ele>599.0</ele><time>2026-05-02T12:03:02.292Z</time></trkpt><trkpt lat="42.1358199" lon="13.6960925"><ele>599.0</ele><time>2026-05-02T12:03:03.299Z</time></trkpt><trkpt lat="42.1357409" lon="13.6960748"><ele>599.0</ele><time>2026-05-02T12:03:04.29Z</time></trkpt><trkpt lat="42.1356665" lon="13.6960445"><ele>599.0</ele><time>2026-05-02T12:03:05.296Z</time></trkpt><trkpt lat="42.1355923" lon="13.6960048"><ele>601.3333333333333</ele><time>2026-05-02T12:03:06.29Z</time></trkpt><trkpt lat="42.1355155" lon="13.6959612"><ele>603.6666666666666</ele><time>2026-05-02T12:03:07.281Z</time></trkpt><trkpt lat="42.1354408" lon="13.6959248"><ele>606.0</ele><time>2026-05-02T12:03:08.3Z</time></trkpt><trkpt lat="42.1353654" lon="13.695895"><ele>608.3333333333334</ele><time>2026-05-02T12:03:09.288Z</time></trkpt><trkpt lat="42.1352935" lon="13.6958731"><ele>610.6666666666667</ele><time>2026-05-02T12:03:10.289Z</time></trkpt><trkpt lat="42.1352237" lon="13.6958644"><ele>613.0</ele><time>2026-05-02T12:03:11.29Z</time></trkpt><trkpt lat="42.1351016" lon="13.6958736"><ele>613.0</ele><time>2026-05-02T12:03:13.289Z</time></trkpt><trkpt lat="42.1350348" lon="13.6958937"><ele>613.0</ele><time>2026-05-02T12:03:14.294Z</time></trkpt><trkpt lat="42.1349555" lon="13.6959078"><ele>613.0</ele><time>2026-05-02T12:03:15.296Z</time></trkpt><trkpt lat="42.1348776" lon="13.6959355"><ele>613.0</ele><time>2026-05-02T12:03:16.293Z</time></trkpt><trkpt lat="42.1347899" lon="13.6959532"><ele>613.0</ele><time>2026-05-02T12:03:17.293Z</time></trkpt><trkpt lat="42.1346982" lon="13.6959481"><ele>613.0</ele><time>2026-05-02T12:03:18.294Z</time></trkpt><trkpt lat="42.1346103" lon="13.6959568"><ele>613.0</ele><time>2026-05-02T12:03:19.294Z</time></trkpt><trkpt lat="42.1345473" lon="13.6959565"><ele>613.0</ele><time>2026-05-02T12:03:20.294Z</time></trkpt><trkpt lat="42.1344513" lon="13.6959937"><ele>613.0</ele><time>2026-05-02T12:03:22.296Z</time></trkpt><trkpt lat="42.1343649" lon="13.6960643"><ele>613.0</ele><time>2026-05-02T12:03:24.29Z</time></trkpt><trkpt lat="42.1343167" lon="13.6961284"><ele>613.0</ele><time>2026-05-02T12:03:25.289Z</time></trkpt><trkpt lat="42.1342576" lon="13.6962222"><ele>613.0</ele><time>2026-05-02T12:03:26.292Z</time></trkpt><trkpt lat="42.1341979" lon="13.6963214"><ele>613.0</ele><time>2026-05-02T12:03:27.291Z</time></trkpt><trkpt lat="42.1341577" lon="13.6964147"><ele>613.0</ele><time>2026-05-02T12:03:28.287Z</time></trkpt><trkpt lat="42.1341142" lon="13.6964864"><ele>613.0</ele><time>2026-05-02T12:03:29.281Z</time></trkpt><trkpt lat="42.1340631" lon="13.6965491"><ele>613.0</ele><time>2026-05-02T12:03:30.295Z</time></trkpt><trkpt lat="42.134005" lon="13.6966245"><ele>613.0</ele><time>2026-05-02T12:03:31.278Z</time></trkpt><trkpt lat="42.1339308" lon="13.6967046"><ele>613.0</ele><time>2026-05-02T12:03:32.287Z</time></trkpt><trkpt lat="42.133853" lon="13.6967818"><ele>613.1666666666667</ele><time>2026-05-02T12:03:33.283Z</time></trkpt><trkpt lat="42.133786" lon="13.6968585"><ele>613.3333333333334</ele><time>2026-05-02T12:03:34.287Z</time></trkpt><trkpt lat="42.1337255" lon="13.6969318"><ele>613.5</ele><time>2026-05-02T12:03:35.288Z</time></trkpt><trkpt lat="42.1336625" lon="13.6970095"><ele>613.6666666666666</ele><time>2026-05-02T12:03:36.303Z</time></trkpt><trkpt lat="42.1335996" lon="13.6970921"><ele>613.8333333333333</ele><time>2026-05-02T12:03:37.291Z</time></trkpt><trkpt lat="42.1335507" lon="13.6971647"><ele>614.0</ele><time>2026-05-02T12:03:38.289Z</time></trkpt><trkpt lat="42.1334993" lon="13.6972326"><ele>614.6</ele><time>2026-05-02T12:03:39.29Z</time></trkpt><trkpt lat="42.1334401" lon="13.6973148"><ele>615.2</ele><time>2026-05-02T12:03:40.287Z</time></trkpt><trkpt lat="42.1333723" lon="13.6974117"><ele>615.8000000000001</ele><time>2026-05-02T12:03:41.292Z</time></trkpt><trkpt lat="42.1332919" lon="13.6975081"><ele>616.4</ele><time>2026-05-02T12:03:42.296Z</time></trkpt><trkpt lat="42.1332134" lon="13.6976121"><ele>617.0</ele><time>2026-05-02T12:03:43.291Z</time></trkpt><trkpt lat="42.1331154" lon="13.6977266"><ele>616.0</ele><time>2026-05-02T12:03:44.291Z</time></trkpt><trkpt lat="42.1330184" lon="13.6978432"><ele>615.0</ele><time>2026-05-02T12:03:45.291Z</time></trkpt><trkpt lat="42.1329298" lon="13.6979547"><ele>614.0</ele><time>2026-05-02T12:03:46.292Z</time></trkpt><trkpt lat="42.1328448" lon="13.6980571"><ele>613.0</ele><time>2026-05-02T12:03:47.295Z</time></trkpt><trkpt lat="42.1327635" lon="13.6981568"><ele>613.0</ele><time>2026-05-02T12:03:48.29Z</time></trkpt><trkpt lat="42.1326785" lon="13.6982442"><ele>613.0</ele><time>2026-05-02T12:03:49.294Z</time></trkpt><trkpt lat="42.132595" lon="13.6983299"><ele>613.0</ele><time>2026-05-02T12:03:50.288Z</time></trkpt><trkpt lat="42.1325313" lon="13.6984206"><ele>613.0</ele><time>2026-05-02T12:03:51.285Z</time></trkpt><trkpt lat="42.1324876" lon="13.6985254"><ele>613.0</ele><time>2026-05-02T12:03:52.293Z</time></trkpt><trkpt lat="42.1324523" lon="13.6986546"><ele>612.75</ele><time>2026-05-02T12:03:53.285Z</time></trkpt><trkpt lat="42.1324187" lon="13.6987942"><ele>612.5</ele><time>2026-05-02T12:03:54.288Z</time></trkpt><trkpt lat="42.1323789" lon="13.6989414"><ele>612.25</ele><time>2026-05-02T12:03:55.28Z</time></trkpt><trkpt lat="42.1323244" lon="13.6990724"><ele>612.0</ele><time>2026-05-02T12:03:56.29Z</time></trkpt><trkpt lat="42.1322567" lon="13.6992205"><ele>612.75</ele><time>2026-05-02T12:03:57.287Z</time></trkpt><trkpt lat="42.1321763" lon="13.6993654"><ele>613.5</ele><time>2026-05-02T12:03:58.291Z</time></trkpt><trkpt lat="42.1321039" lon="13.699491"><ele>614.25</ele><time>2026-05-02T12:03:59.293Z</time></trkpt><trkpt lat="42.1320368" lon="13.6995861"><ele>615.0</ele><time>2026-05-02T12:04:00.293Z</time></trkpt><trkpt lat="42.1319509" lon="13.699694"><ele>615.0</ele><time>2026-05-02T12:04:01.295Z</time></trkpt><trkpt lat="42.1318622" lon="13.699808"><ele>615.0</ele><time>2026-05-02T12:04:02.291Z</time></trkpt><trkpt lat="42.1317754" lon="13.6999238"><ele>615.0</ele><time>2026-05-02T12:04:03.297Z</time></trkpt><trkpt lat="42.1316915" lon="13.7000358"><ele>615.0</ele><time>2026-05-02T12:04:04.295Z</time></trkpt><trkpt lat="42.1315889" lon="13.700141"><ele>615.5</ele><time>2026-05-02T12:04:05.293Z</time></trkpt><trkpt lat="42.1314821" lon="13.7002288"><ele>616.0</ele><time>2026-05-02T12:04:06.294Z</time></trkpt><trkpt lat="42.1313909" lon="13.7003049"><ele>616.5</ele><time>2026-05-02T12:04:07.29Z</time></trkpt><trkpt lat="42.1313061" lon="13.7004026"><ele>617.0</ele><time>2026-05-02T12:04:08.298Z</time></trkpt><trkpt lat="42.1312291" lon="13.700526"><ele>617.0</ele><time>2026-05-02T12:04:09.287Z</time></trkpt><trkpt lat="42.1311531" lon="13.7006654"><ele>617.0</ele><time>2026-05-02T12:04:10.295Z</time></trkpt><trkpt lat="42.1310791" lon="13.7008021"><ele>617.0</ele><time>2026-05-02T12:04:11.296Z</time></trkpt><trkpt lat="42.1309863" lon="13.7009151"><ele>617.0</ele><time>2026-05-02T12:04:12.288Z</time></trkpt><trkpt lat="42.1308808" lon="13.7010122"><ele>616.6</ele><time>2026-05-02T12:04:13.303Z</time></trkpt><trkpt lat="42.1307779" lon="13.7010967"><ele>616.2</ele><time>2026-05-02T12:04:14.299Z</time></trkpt><trkpt lat="42.1306828" lon="13.701182"><ele>615.8</ele><time>2026-05-02T12:04:15.298Z</time></trkpt><trkpt lat="42.1305969" lon="13.7012731"><ele>615.4</ele><time>2026-05-02T12:04:16.302Z</time></trkpt><trkpt lat="42.1305181" lon="13.7013601"><ele>615.0</ele><time>2026-05-02T12:04:17.301Z</time></trkpt><trkpt lat="42.1304485" lon="13.7014482"><ele>617.3333333333334</ele><time>2026-05-02T12:04:18.301Z</time></trkpt><trkpt lat="42.130387" lon="13.7015352"><ele>619.6666666666666</ele><time>2026-05-02T12:04:19.297Z</time></trkpt><trkpt lat="42.1303341" lon="13.7015988"><ele>622.0</ele><time>2026-05-02T12:04:20.298Z</time></trkpt><trkpt lat="42.1302743" lon="13.7016554"><ele>624.3333333333333</ele><time>2026-05-02T12:04:21.294Z</time></trkpt><trkpt lat="42.130187" lon="13.7017193"><ele>626.6666666666666</ele><time>2026-05-02T12:04:23.309Z</time></trkpt><trkpt lat="42.1301323" lon="13.7016461"><ele>629.0</ele><time>2026-05-02T12:04:26.314Z</time></trkpt><trkpt lat="42.1301045" lon="13.7015646"><ele>629.0</ele><time>2026-05-02T12:04:35.308Z</time></trkpt><trkpt lat="42.1300595" lon="13.7014576"><ele>629.0</ele><time>2026-05-02T12:04:37.314Z</time></trkpt><trkpt lat="42.1300135" lon="13.701354"><ele>629.0</ele><time>2026-05-02T12:04:38.303Z</time></trkpt><trkpt lat="42.1299658" lon="13.7012595"><ele>629.0</ele><time>2026-05-02T12:04:39.308Z</time></trkpt><trkpt lat="42.1299162" lon="13.7011624"><ele>629.0</ele><time>2026-05-02T12:04:40.311Z</time></trkpt><trkpt lat="42.1298645" lon="13.701046"><ele>632.2</ele><time>2026-05-02T12:04:41.311Z</time></trkpt><trkpt lat="42.1298252" lon="13.7009315"><ele>635.4</ele><time>2026-05-02T12:04:42.371Z</time></trkpt><trkpt lat="42.1297797" lon="13.7008194"><ele>638.6</ele><time>2026-05-02T12:04:43.37Z</time></trkpt><trkpt lat="42.129734" lon="13.7007117"><ele>641.8</ele><time>2026-05-02T12:04:44.365Z</time></trkpt><trkpt lat="42.1296862" lon="13.7006103"><ele>645.0</ele><time>2026-05-02T12:04:45.378Z</time></trkpt><trkpt lat="42.1296342" lon="13.7005198"><ele>645.0</ele><time>2026-05-02T12:04:46.376Z</time></trkpt><trkpt lat="42.129593" lon="13.7004386"><ele>645.0</ele><time>2026-05-02T12:04:47.367Z</time></trkpt><trkpt lat="42.1295145" lon="13.7003477"><ele>645.0</ele><time>2026-05-02T12:04:49.346Z</time></trkpt><trkpt lat="42.1293454" lon="13.7002842"><ele>645.0</ele><time>2026-05-02T12:04:53.356Z</time></trkpt><trkpt lat="42.129263" lon="13.7002518"><ele>645.0</ele><time>2026-05-02T12:04:54.351Z</time></trkpt><trkpt lat="42.1291993" lon="13.7002131"><ele>647.0</ele><time>2026-05-02T12:04:55.347Z</time></trkpt><trkpt lat="42.1291421" lon="13.7001758"><ele>649.0</ele><time>2026-05-02T12:04:56.347Z</time></trkpt><trkpt lat="42.1290836" lon="13.7001279"><ele>651.0</ele><time>2026-05-02T12:04:57.336Z</time></trkpt><trkpt lat="42.1290351" lon="13.7000579"><ele>653.0</ele><time>2026-05-02T12:04:59.339Z</time></trkpt><trkpt lat="42.1289207" lon="13.7000021"><ele>655.0</ele><time>2026-05-02T12:05:01.267Z</time></trkpt><trkpt lat="42.1287929" lon="13.7000837"><ele>654.5</ele><time>2026-05-02T12:05:03.273Z</time></trkpt><trkpt lat="42.1287154" lon="13.700189"><ele>654.0</ele><time>2026-05-02T12:05:04.272Z</time></trkpt><trkpt lat="42.128627" lon="13.7003013"><ele>653.5</ele><time>2026-05-02T12:05:05.28Z</time></trkpt><trkpt lat="42.1285287" lon="13.7004092"><ele>653.0</ele><time>2026-05-02T12:05:06.272Z</time></trkpt><trkpt lat="42.1284393" lon="13.7005021"><ele>653.0</ele><time>2026-05-02T12:05:07.274Z</time></trkpt><trkpt lat="42.128361" lon="13.7005941"><ele>653.0</ele><time>2026-05-02T12:05:08.273Z</time></trkpt><trkpt lat="42.128299" lon="13.7006739"><ele>653.0</ele><time>2026-05-02T12:05:09.263Z</time></trkpt><trkpt lat="42.1282487" lon="13.7007262"><ele>653.0</ele><time>2026-05-02T12:05:10.271Z</time></trkpt><trkpt lat="42.1281734" lon="13.7007956"><ele>653.0</ele><time>2026-05-02T12:05:12.268Z</time></trkpt><trkpt lat="42.1282479" lon="13.7008044"><ele>653.0</ele><time>2026-05-02T12:05:19.273Z</time></trkpt><trkpt lat="42.1283557" lon="13.7006807"><ele>653.0</ele><time>2026-05-02T12:05:21.278Z</time></trkpt><trkpt lat="42.1284371" lon="13.7005721"><ele>653.0</ele><time>2026-05-02T12:05:22.281Z</time></trkpt><trkpt lat="42.1285116" lon="13.700486"><ele>653.0</ele><time>2026-05-02T12:05:23.282Z</time></trkpt><trkpt lat="42.1285889" lon="13.7004127"><ele>653.0</ele><time>2026-05-02T12:05:24.279Z</time></trkpt><trkpt lat="42.1286458" lon="13.7003498"><ele>653.0</ele><time>2026-05-02T12:05:25.279Z</time></trkpt><trkpt lat="42.1287277" lon="13.7002602"><ele>654.4285714285714</ele><time>2026-05-02T12:05:27.284Z</time></trkpt><trkpt lat="42.1287789" lon="13.7001784"><ele>655.8571428571429</ele><time>2026-05-02T12:05:29.285Z</time></trkpt><trkpt lat="42.1287706" lon="13.7000787"><ele>657.2857142857142</ele><time>2026-05-02T12:05:31.283Z</time></trkpt><trkpt lat="42.1287241" lon="13.7000087"><ele>658.7142857142858</ele><time>2026-05-02T12:05:33.284Z</time></trkpt><trkpt lat="42.1286737" lon="13.6999362"><ele>660.1428571428571</ele><time>2026-05-02T12:05:35.286Z</time></trkpt><trkpt lat="42.1285891" lon="13.6999204"><ele>661.5714285714286</ele><time>2026-05-02T12:05:37.278Z</time></trkpt><trkpt lat="42.1285262" lon="13.6999492"><ele>663.0</ele><time>2026-05-02T12:05:38.278Z</time></trkpt><trkpt lat="42.1284471" lon="13.6999818"><ele>663.0</ele><time>2026-05-02T12:05:39.273Z</time></trkpt><trkpt lat="42.1283586" lon="13.7000102"><ele>663.0</ele><time>2026-05-02T12:05:40.27Z</time></trkpt><trkpt lat="42.1282743" lon="13.7000379"><ele>663.0</ele><time>2026-05-02T12:05:41.266Z</time></trkpt><trkpt lat="42.128184" lon="13.7000667"><ele>663.0</ele><time>2026-05-02T12:05:42.261Z</time></trkpt><trkpt lat="42.1281131" lon="13.7000885"><ele>663.0</ele><time>2026-05-02T12:05:43.27Z</time></trkpt><trkpt lat="42.1280443" lon="13.7001107"><ele>663.0</ele><time>2026-05-02T12:05:44.272Z</time></trkpt><trkpt lat="42.1279743" lon="13.7001321"><ele>665.1666666666666</ele><time>2026-05-02T12:05:45.267Z</time></trkpt><trkpt lat="42.1279011" lon="13.7001495"><ele>667.3333333333334</ele><time>2026-05-02T12:05:46.272Z</time></trkpt><trkpt lat="42.1278288" lon="13.7001708"><ele>669.5</ele><time>2026-05-02T12:05:47.263Z</time></trkpt><trkpt lat="42.1277517" lon="13.7001895"><ele>671.6666666666667</ele><time>2026-05-02T12:05:48.278Z</time></trkpt><trkpt lat="42.1276865" lon="13.7002016"><ele>673.8333333333334</ele><time>2026-05-02T12:05:49.261Z</time></trkpt><trkpt lat="42.1275982" lon="13.7001934"><ele>676.0</ele><time>2026-05-02T12:05:50.263Z</time></trkpt><trkpt lat="42.1275049" lon="13.7001826"><ele>676.0</ele><time>2026-05-02T12:05:51.28Z</time></trkpt><trkpt lat="42.1274253" lon="13.7001608"><ele>676.0</ele><time>2026-05-02T12:05:52.271Z</time></trkpt><trkpt lat="42.1273448" lon="13.7001537"><ele>676.0</ele><time>2026-05-02T12:05:53.273Z</time></trkpt><trkpt lat="42.1272717" lon="13.7001374"><ele>676.0</ele><time>2026-05-02T12:05:54.26Z</time></trkpt><trkpt lat="42.1271816" lon="13.700193"><ele>676.0</ele><time>2026-05-02T12:05:56.27Z</time></trkpt><trkpt lat="42.1270739" lon="13.7001869"><ele>676.0</ele><time>2026-05-02T12:05:58.281Z</time></trkpt><trkpt lat="42.1269858" lon="13.7001595"><ele>674.0</ele><time>2026-05-02T12:06:00.273Z</time></trkpt><trkpt lat="42.1269034" lon="13.7001041"><ele>672.0</ele><time>2026-05-02T12:06:02.265Z</time></trkpt><trkpt lat="42.1268513" lon="13.6999998"><ele>670.0</ele><time>2026-05-02T12:06:04.267Z</time></trkpt><trkpt lat="42.1268043" lon="13.6998622"><ele>668.0</ele><time>2026-05-02T12:06:06.264Z</time></trkpt><trkpt lat="42.1267872" lon="13.699773"><ele>666.0</ele><time>2026-05-02T12:06:07.273Z</time></trkpt><trkpt lat="42.1267714" lon="13.6996333"><ele>666.0</ele><time>2026-05-02T12:06:09.265Z</time></trkpt><trkpt lat="42.1267413" lon="13.6995216"><ele>666.0</ele><time>2026-05-02T12:06:11.257Z</time></trkpt><trkpt lat="42.1267046" lon="13.6994088"><ele>666.0</ele><time>2026-05-02T12:06:14.273Z</time></trkpt><trkpt lat="42.1266038" lon="13.6993916"><ele>666.0</ele><time>2026-05-02T12:06:16.281Z</time></trkpt><trkpt lat="42.1265258" lon="13.699397"><ele>666.0</ele><time>2026-05-02T12:06:17.272Z</time></trkpt><trkpt lat="42.1264077" lon="13.699386"><ele>664.8</ele><time>2026-05-02T12:06:19.286Z</time></trkpt><trkpt lat="42.1263087" lon="13.6993719"><ele>663.5999999999999</ele><time>2026-05-02T12:06:21.281Z</time></trkpt><trkpt lat="42.1262595" lon="13.6992802"><ele>662.4</ele><time>2026-05-02T12:06:23.288Z</time></trkpt><trkpt lat="42.1262388" lon="13.6991211"><ele>661.2</ele><time>2026-05-02T12:06:25.278Z</time></trkpt><trkpt lat="42.1261588" lon="13.6989978"><ele>660.0</ele><time>2026-05-02T12:06:27.268Z</time></trkpt><trkpt lat="42.1260938" lon="13.6988796"><ele>660.0</ele><time>2026-05-02T12:06:29.273Z</time></trkpt><trkpt lat="42.1260923" lon="13.6987715"><ele>660.0</ele><time>2026-05-02T12:06:30.273Z</time></trkpt><trkpt lat="42.1261001" lon="13.6986396"><ele>660.0</ele><time>2026-05-02T12:06:31.272Z</time></trkpt><trkpt lat="42.1261102" lon="13.6984921"><ele>660.0</ele><time>2026-05-02T12:06:32.278Z</time></trkpt><trkpt lat="42.1261268" lon="13.6983583"><ele>660.0</ele><time>2026-05-02T12:06:33.274Z</time></trkpt><trkpt lat="42.1261368" lon="13.6982201"><ele>661.2</ele><time>2026-05-02T12:06:34.274Z</time></trkpt><trkpt lat="42.1261364" lon="13.6980767"><ele>662.4</ele><time>2026-05-02T12:06:35.275Z</time></trkpt><trkpt lat="42.1261384" lon="13.6979248"><ele>663.5999999999999</ele><time>2026-05-02T12:06:36.275Z</time></trkpt><trkpt lat="42.1261262" lon="13.6977796"><ele>664.8</ele><time>2026-05-02T12:06:37.277Z</time></trkpt><trkpt lat="42.1261108" lon="13.697637"><ele>666.0</ele><time>2026-05-02T12:06:38.278Z</time></trkpt><trkpt lat="42.1260957" lon="13.6974978"><ele>668.75</ele><time>2026-05-02T12:06:39.28Z</time></trkpt><trkpt lat="42.1260684" lon="13.6973532"><ele>671.5</ele><time>2026-05-02T12:06:40.282Z</time></trkpt><trkpt lat="42.1260274" lon="13.6972058"><ele>674.25</ele><time>2026-05-02T12:06:41.285Z</time></trkpt><trkpt lat="42.125988" lon="13.6970625"><ele>677.0</ele><time>2026-05-02T12:06:42.278Z</time></trkpt><trkpt lat="42.1259485" lon="13.696922"><ele>680.0</ele><time>2026-05-02T12:06:43.281Z</time></trkpt><trkpt lat="42.1259094" lon="13.6967765"><ele>683.0</ele><time>2026-05-02T12:06:44.282Z</time></trkpt><trkpt lat="42.1258828" lon="13.6966238"><ele>686.0</ele><time>2026-05-02T12:06:45.277Z</time></trkpt><trkpt lat="42.1258548" lon="13.6964526"><ele>689.0</ele><time>2026-05-02T12:06:46.283Z</time></trkpt><trkpt lat="42.1258223" lon="13.6962782"><ele>689.0</ele><time>2026-05-02T12:06:47.281Z</time></trkpt><trkpt lat="42.1257922" lon="13.696098"><ele>689.0</ele><time>2026-05-02T12:06:48.278Z</time></trkpt><trkpt lat="42.1257625" lon="13.6959246"><ele>689.0</ele><time>2026-05-02T12:06:49.287Z</time></trkpt><trkpt lat="42.1257255" lon="13.6957374"><ele>689.0</ele><time>2026-05-02T12:06:50.282Z</time></trkpt><trkpt lat="42.1256971" lon="13.6955625"><ele>694.25</ele><time>2026-05-02T12:06:51.283Z</time></trkpt><trkpt lat="42.1256648" lon="13.6953784"><ele>699.5</ele><time>2026-05-02T12:06:52.289Z</time></trkpt><trkpt lat="42.1256266" lon="13.6951927"><ele>704.75</ele><time>2026-05-02T12:06:53.28Z</time></trkpt><trkpt lat="42.1255954" lon="13.6950197"><ele>710.0</ele><time>2026-05-02T12:06:54.286Z</time></trkpt><trkpt lat="42.1255549" lon="13.6948299"><ele>714.75</ele><time>2026-05-02T12:06:55.282Z</time></trkpt><trkpt lat="42.125513" lon="13.6946511"><ele>719.5</ele><time>2026-05-02T12:06:56.282Z</time></trkpt><trkpt lat="42.125474" lon="13.6944664"><ele>724.25</ele><time>2026-05-02T12:06:57.276Z</time></trkpt><trkpt lat="42.1254265" lon="13.6942823"><ele>729.0</ele><time>2026-05-02T12:06:58.276Z</time></trkpt><trkpt lat="42.1253691" lon="13.694124"><ele>730.0</ele><time>2026-05-02T12:06:59.275Z</time></trkpt><trkpt lat="42.1253182" lon="13.693986"><ele>731.0</ele><time>2026-05-02T12:07:00.273Z</time></trkpt><trkpt lat="42.125247" lon="13.6938615"><ele>732.0</ele><time>2026-05-02T12:07:01.278Z</time></trkpt><trkpt lat="42.1252027" lon="13.693739"><ele>733.0</ele><time>2026-05-02T12:07:02.28Z</time></trkpt><trkpt lat="42.1251546" lon="13.6936183"><ele>734.0</ele><time>2026-05-02T12:07:03.281Z</time></trkpt><trkpt lat="42.1251098" lon="13.6934963"><ele>735.3333333333333</ele><time>2026-05-02T12:07:04.28Z</time></trkpt><trkpt lat="42.1250604" lon="13.6933981"><ele>736.6666666666666</ele><time>2026-05-02T12:07:05.279Z</time></trkpt><trkpt lat="42.1250116" lon="13.6933081"><ele>738.0</ele><time>2026-05-02T12:07:06.278Z</time></trkpt><trkpt lat="42.1249592" lon="13.6932221"><ele>739.3333333333334</ele><time>2026-05-02T12:07:07.277Z</time></trkpt><trkpt lat="42.1248973" lon="13.6931385"><ele>740.6666666666667</ele><time>2026-05-02T12:07:08.27Z</time></trkpt><trkpt lat="42.1248301" lon="13.6930563"><ele>742.0</ele><time>2026-05-02T12:07:09.267Z</time></trkpt><trkpt lat="42.124752" lon="13.6929701"><ele>746.8</ele><time>2026-05-02T12:07:10.274Z</time></trkpt><trkpt lat="42.1246826" lon="13.6928803"><ele>751.6</ele><time>2026-05-02T12:07:11.272Z</time></trkpt><trkpt lat="42.1246115" lon="13.6927828"><ele>756.4</ele><time>2026-05-02T12:07:12.275Z</time></trkpt><trkpt lat="42.1245407" lon="13.6926879"><ele>761.1999999999999</ele><time>2026-05-02T12:07:13.273Z</time></trkpt><trkpt lat="42.1244877" lon="13.6925902"><ele>766.0</ele><time>2026-05-02T12:07:14.266Z</time></trkpt><trkpt lat="42.1244352" lon="13.6924848"><ele>766.1666666666667</ele><time>2026-05-02T12:07:15.266Z</time></trkpt><trkpt lat="42.1243877" lon="13.6923869"><ele>766.3333333333334</ele><time>2026-05-02T12:07:16.271Z</time></trkpt><trkpt lat="42.1243525" lon="13.6922815"><ele>766.5</ele><time>2026-05-02T12:07:17.269Z</time></trkpt><trkpt lat="42.1243134" lon="13.6921748"><ele>766.6666666666666</ele><time>2026-05-02T12:07:18.266Z</time></trkpt><trkpt lat="42.1242956" lon="13.6920882"><ele>766.8333333333333</ele><time>2026-05-02T12:07:19.27Z</time></trkpt><trkpt lat="42.1242573" lon="13.6920041"><ele>767.0</ele><time>2026-05-02T12:07:21.265Z</time></trkpt><trkpt lat="42.1241813" lon="13.692001"><ele>767.0</ele><time>2026-05-02T12:07:23.268Z</time></trkpt><trkpt lat="42.1241135" lon="13.6920593"><ele>767.0</ele><time>2026-05-02T12:07:25.271Z</time></trkpt><trkpt lat="42.1240797" lon="13.6922218"><ele>767.0</ele><time>2026-05-02T12:07:27.278Z</time></trkpt><trkpt lat="42.1240706" lon="13.6923273"><ele>767.0</ele><time>2026-05-02T12:07:28.264Z</time></trkpt><trkpt lat="42.1240626" lon="13.6924543"><ele>767.0</ele><time>2026-05-02T12:07:29.261Z</time></trkpt><trkpt lat="42.1240645" lon="13.6925947"><ele>766.75</ele><time>2026-05-02T12:07:30.262Z</time></trkpt><trkpt lat="42.1240611" lon="13.6927563"><ele>766.5</ele><time>2026-05-02T12:07:31.262Z</time></trkpt><trkpt lat="42.1240666" lon="13.6929163"><ele>766.25</ele><time>2026-05-02T12:07:32.266Z</time></trkpt><trkpt lat="42.1240812" lon="13.6930895"><ele>766.0</ele><time>2026-05-02T12:07:33.277Z</time></trkpt><trkpt lat="42.1240851" lon="13.6932673"><ele>766.0</ele><time>2026-05-02T12:07:34.279Z</time></trkpt><trkpt lat="42.1240808" lon="13.6934079"><ele>766.0</ele><time>2026-05-02T12:07:35.266Z</time></trkpt><trkpt lat="42.1240655" lon="13.6935073"><ele>766.0</ele><time>2026-05-02T12:07:36.267Z</time></trkpt><trkpt lat="42.1240234" lon="13.6935981"><ele>766.0</ele><time>2026-05-02T12:07:37.273Z</time></trkpt><trkpt lat="42.1239622" lon="13.6936766"><ele>766.0</ele><time>2026-05-02T12:07:38.271Z</time></trkpt><trkpt lat="42.1238854" lon="13.6937621"><ele>766.0</ele><time>2026-05-02T12:07:39.27Z</time></trkpt><trkpt lat="42.1237816" lon="13.6938329"><ele>767.8</ele><time>2026-05-02T12:07:40.275Z</time></trkpt><trkpt lat="42.1236755" lon="13.6938903"><ele>769.5999999999999</ele><time>2026-05-02T12:07:41.279Z</time></trkpt><trkpt lat="42.1235645" lon="13.6939339"><ele>771.4</ele><time>2026-05-02T12:07:42.3Z</time></trkpt><trkpt lat="42.1234629" lon="13.6939736"><ele>773.2</ele><time>2026-05-02T12:07:43.378Z</time></trkpt><trkpt lat="42.1233563" lon="13.6940047"><ele>775.0</ele><time>2026-05-02T12:07:44.371Z</time></trkpt><trkpt lat="42.1232643" lon="13.6940665"><ele>778.2</ele><time>2026-05-02T12:07:45.365Z</time></trkpt><trkpt lat="42.1231942" lon="13.6941434"><ele>781.4</ele><time>2026-05-02T12:07:46.35Z</time></trkpt><trkpt lat="42.1231037" lon="13.694244"><ele>784.5999999999999</ele><time>2026-05-02T12:07:47.356Z</time></trkpt><trkpt lat="42.1230314" lon="13.6943275"><ele>787.8</ele><time>2026-05-02T12:07:48.357Z</time></trkpt><trkpt lat="42.1229553" lon="13.6944115"><ele>791.0</ele><time>2026-05-02T12:07:49.348Z</time></trkpt><trkpt lat="42.1228714" lon="13.6944939"><ele>791.0</ele><time>2026-05-02T12:07:50.37Z</time></trkpt><trkpt lat="42.1227778" lon="13.6945879"><ele>791.0</ele><time>2026-05-02T12:07:51.369Z</time></trkpt><trkpt lat="42.1226831" lon="13.6946757"><ele>791.0</ele><time>2026-05-02T12:07:52.357Z</time></trkpt><trkpt lat="42.1225128" lon="13.6946972"><ele>791.0</ele><time>2026-05-02T12:07:54.356Z</time></trkpt><trkpt lat="42.1224142" lon="13.6947055"><ele>792.0</ele><time>2026-05-02T12:07:55.354Z</time></trkpt><trkpt lat="42.1223176" lon="13.6947054"><ele>793.0</ele><time>2026-05-02T12:07:56.364Z</time></trkpt><trkpt lat="42.1222283" lon="13.694689"><ele>794.0</ele><time>2026-05-02T12:07:57.377Z</time></trkpt><trkpt lat="42.1221431" lon="13.6946698"><ele>795.0</ele><time>2026-05-02T12:07:58.358Z</time></trkpt><trkpt lat="42.1220692" lon="13.6946258"><ele>796.0</ele><time>2026-05-02T12:07:59.355Z</time></trkpt><trkpt lat="42.1219851" lon="13.6945603"><ele>795.9999999999999</ele><time>2026-05-02T12:08:00.355Z</time></trkpt><trkpt lat="42.1220303" lon="13.6944818"><ele>796.0</ele><time>2026-05-02T12:08:02.365Z</time></trkpt><trkpt lat="42.1220765" lon="13.6944215"><ele>796.0</ele><time>2026-05-02T12:08:04.302Z</time></trkpt><trkpt lat="42.1221296" lon="13.694338"><ele>796.0</ele><time>2026-05-02T12:08:05.283Z</time></trkpt><trkpt lat="42.1221901" lon="13.6942394"><ele>795.9999999999999</ele><time>2026-05-02T12:08:06.281Z</time></trkpt><trkpt lat="42.1222473" lon="13.694112"><ele>796.0</ele><time>2026-05-02T12:08:07.285Z</time></trkpt><trkpt lat="42.1223009" lon="13.6939643"><ele>796.25</ele><time>2026-05-02T12:08:08.295Z</time></trkpt><trkpt lat="42.1223438" lon="13.6938042"><ele>796.5</ele><time>2026-05-02T12:08:09.287Z</time></trkpt><trkpt lat="42.1223984" lon="13.6936606"><ele>796.75</ele><time>2026-05-02T12:08:10.293Z</time></trkpt><trkpt lat="42.122447" lon="13.6935036"><ele>797.0</ele><time>2026-05-02T12:08:11.289Z</time></trkpt><trkpt lat="42.122509" lon="13.6933556"><ele>799.0</ele><time>2026-05-02T12:08:12.28Z</time></trkpt><trkpt lat="42.1225508" lon="13.6932233"><ele>801.0</ele><time>2026-05-02T12:08:13.284Z</time></trkpt><trkpt lat="42.1225809" lon="13.6930968"><ele>803.0</ele><time>2026-05-02T12:08:14.29Z</time></trkpt><trkpt lat="42.1226019" lon="13.6929871"><ele>805.0</ele><time>2026-05-02T12:08:15.273Z</time></trkpt><trkpt lat="42.1226059" lon="13.6928944"><ele>807.0</ele><time>2026-05-02T12:08:16.278Z</time></trkpt><trkpt lat="42.1225411" lon="13.6927748"><ele>807.0</ele><time>2026-05-02T12:08:18.275Z</time></trkpt><trkpt lat="42.1224696" lon="13.6927721"><ele>807.0</ele><time>2026-05-02T12:08:19.275Z</time></trkpt><trkpt lat="42.12238" lon="13.6928219"><ele>807.0</ele><time>2026-05-02T12:08:20.275Z</time></trkpt><trkpt lat="42.1222863" lon="13.6928838"><ele>807.0</ele><time>2026-05-02T12:08:21.276Z</time></trkpt><trkpt lat="42.1221803" lon="13.6929621"><ele>807.0</ele><time>2026-05-02T12:08:22.273Z</time></trkpt><trkpt lat="42.122059" lon="13.6930435"><ele>812.0</ele><time>2026-05-02T12:08:23.265Z</time></trkpt><trkpt lat="42.1219314" lon="13.6931231"><ele>817.0</ele><time>2026-05-02T12:08:24.264Z</time></trkpt><trkpt lat="42.1217988" lon="13.6932033"><ele>822.0</ele><time>2026-05-02T12:08:25.269Z</time></trkpt><trkpt lat="42.1216701" lon="13.6933074"><ele>827.0</ele><time>2026-05-02T12:08:26.268Z</time></trkpt><trkpt lat="42.1215403" lon="13.6933826"><ele>834.0</ele><time>2026-05-02T12:08:27.268Z</time></trkpt><trkpt lat="42.1214183" lon="13.6934491"><ele>841.0</ele><time>2026-05-02T12:08:28.261Z</time></trkpt><trkpt lat="42.1212619" lon="13.6935072"><ele>848.0</ele><time>2026-05-02T12:08:29.268Z</time></trkpt><trkpt lat="42.1211042" lon="13.6935606"><ele>845.0</ele><time>2026-05-02T12:08:30.274Z</time></trkpt><trkpt lat="42.1209547" lon="13.6936296"><ele>842.0</ele><time>2026-05-02T12:08:31.267Z</time></trkpt><trkpt lat="42.1208095" lon="13.6936928"><ele>839.0</ele><time>2026-05-02T12:08:32.268Z</time></trkpt><trkpt lat="42.1206417" lon="13.693751"><ele>839.0</ele><time>2026-05-02T12:08:33.273Z</time></trkpt><trkpt lat="42.1204937" lon="13.6938283"><ele>839.0</ele><time>2026-05-02T12:08:34.271Z</time></trkpt><trkpt lat="42.1203502" lon="13.6938806"><ele>839.0</ele><time>2026-05-02T12:08:35.274Z</time></trkpt><trkpt lat="42.1202142" lon="13.6939331"><ele>839.0</ele><time>2026-05-02T12:08:36.268Z</time></trkpt><trkpt lat="42.1200666" lon="13.6939846"><ele>839.0</ele><time>2026-05-02T12:08:37.274Z</time></trkpt><trkpt lat="42.1199338" lon="13.6940441"><ele>839.0</ele><time>2026-05-02T12:08:38.272Z</time></trkpt><trkpt lat="42.119792" lon="13.6941062"><ele>839.0</ele><time>2026-05-02T12:08:39.274Z</time></trkpt><trkpt lat="42.1196844" lon="13.6941732"><ele>839.0</ele><time>2026-05-02T12:08:40.28Z</time></trkpt><trkpt lat="42.1195572" lon="13.6942253"><ele>845.25</ele><time>2026-05-02T12:08:41.275Z</time></trkpt><trkpt lat="42.1194173" lon="13.6942662"><ele>851.5</ele><time>2026-05-02T12:08:42.278Z</time></trkpt><trkpt lat="42.1192816" lon="13.694298"><ele>857.75</ele><time>2026-05-02T12:08:43.276Z</time></trkpt><trkpt lat="42.1191497" lon="13.6943247"><ele>864.0</ele><time>2026-05-02T12:08:44.276Z</time></trkpt><trkpt lat="42.1190034" lon="13.6943682"><ele>861.6666666666667</ele><time>2026-05-02T12:08:45.27Z</time></trkpt><trkpt lat="42.1188621" lon="13.6944304"><ele>859.3333333333334</ele><time>2026-05-02T12:08:46.274Z</time></trkpt><trkpt lat="42.1187207" lon="13.6945061"><ele>857.0</ele><time>2026-05-02T12:08:47.274Z</time></trkpt><trkpt lat="42.1185812" lon="13.6945931"><ele>857.0</ele><time>2026-05-02T12:08:48.274Z</time></trkpt><trkpt lat="42.118438" lon="13.6946891"><ele>857.0</ele><time>2026-05-02T12:08:49.278Z</time></trkpt><trkpt lat="42.11828" lon="13.6947824"><ele>857.0</ele><time>2026-05-02T12:08:50.272Z</time></trkpt><trkpt lat="42.1181411" lon="13.6948726"><ele>864.5</ele><time>2026-05-02T12:08:51.275Z</time></trkpt><trkpt lat="42.1180056" lon="13.6949696"><ele>872.0</ele><time>2026-05-02T12:08:52.273Z</time></trkpt><trkpt lat="42.1178747" lon="13.6950542"><ele>879.5</ele><time>2026-05-02T12:08:53.273Z</time></trkpt><trkpt lat="42.1177396" lon="13.6951347"><ele>887.0</ele><time>2026-05-02T12:08:54.273Z</time></trkpt><trkpt lat="42.1175921" lon="13.6952009"><ele>887.0</ele><time>2026-05-02T12:08:55.268Z</time></trkpt><trkpt lat="42.117427" lon="13.6952434"><ele>887.0</ele><time>2026-05-02T12:08:56.271Z</time></trkpt><trkpt lat="42.1172519" lon="13.6952694"><ele>887.0</ele><time>2026-05-02T12:08:57.269Z</time></trkpt><trkpt lat="42.1170839" lon="13.6952916"><ele>879.0</ele><time>2026-05-02T12:08:58.273Z</time></trkpt><trkpt lat="42.1169271" lon="13.6953335"><ele>871.0</ele><time>2026-05-02T12:08:59.277Z</time></trkpt><trkpt lat="42.1167709" lon="13.6953663"><ele>863.0</ele><time>2026-05-02T12:09:00.281Z</time></trkpt><trkpt lat="42.1166205" lon="13.6953983"><ele>870.0</ele><time>2026-05-02T12:09:01.274Z</time></trkpt><trkpt lat="42.1164669" lon="13.6954219"><ele>877.0</ele><time>2026-05-02T12:09:02.279Z</time></trkpt><trkpt lat="42.1163051" lon="13.6954534"><ele>884.0</ele><time>2026-05-02T12:09:03.277Z</time></trkpt><trkpt lat="42.1161495" lon="13.6954941"><ele>884.0</ele><time>2026-05-02T12:09:04.275Z</time></trkpt><trkpt lat="42.1160048" lon="13.6955448"><ele>884.0</ele><time>2026-05-02T12:09:05.278Z</time></trkpt><trkpt lat="42.1158641" lon="13.6955867"><ele>884.0</ele><time>2026-05-02T12:09:06.277Z</time></trkpt><trkpt lat="42.115726" lon="13.6956223"><ele>884.0</ele><time>2026-05-02T12:09:07.275Z</time></trkpt><trkpt lat="42.1155753" lon="13.6956618"><ele>889.0</ele><time>2026-05-02T12:09:08.273Z</time></trkpt><trkpt lat="42.1154299" lon="13.6957035"><ele>894.0</ele><time>2026-05-02T12:09:09.277Z</time></trkpt><trkpt lat="42.1152804" lon="13.695739"><ele>899.0</ele><time>2026-05-02T12:09:10.279Z</time></trkpt><trkpt lat="42.1151498" lon="13.6957781"><ele>904.0</ele><time>2026-05-02T12:09:11.275Z</time></trkpt><trkpt lat="42.1150177" lon="13.6958046"><ele>908.5</ele><time>2026-05-02T12:09:12.278Z</time></trkpt><trkpt lat="42.1148967" lon="13.6958172"><ele>913.0</ele><time>2026-05-02T12:09:13.281Z</time></trkpt><trkpt lat="42.1147802" lon="13.695858"><ele>917.5</ele><time>2026-05-02T12:09:14.279Z</time></trkpt><trkpt lat="42.1146613" lon="13.6958829"><ele>922.0</ele><time>2026-05-02T12:09:15.282Z</time></trkpt><trkpt lat="42.1145466" lon="13.6959141"><ele>922.0</ele><time>2026-05-02T12:09:16.273Z</time></trkpt><trkpt lat="42.1144089" lon="13.6959445"><ele>922.0</ele><time>2026-05-02T12:09:17.274Z</time></trkpt><trkpt lat="42.114265" lon="13.6959806"><ele>922.0</ele><time>2026-05-02T12:09:18.276Z</time></trkpt><trkpt lat="42.1141292" lon="13.696012"><ele>922.0</ele><time>2026-05-02T12:09:19.273Z</time></trkpt><trkpt lat="42.1139812" lon="13.6960417"><ele>926.0</ele><time>2026-05-02T12:09:20.273Z</time></trkpt><trkpt lat="42.1138292" lon="13.6960864"><ele>930.0</ele><time>2026-05-02T12:09:21.281Z</time></trkpt><trkpt lat="42.1136896" lon="13.6961411"><ele>934.0</ele><time>2026-05-02T12:09:22.28Z</time></trkpt><trkpt lat="42.1135508" lon="13.6961936"><ele>938.0</ele><time>2026-05-02T12:09:23.276Z</time></trkpt><trkpt lat="42.1133995" lon="13.6962455"><ele>931.3333333333334</ele><time>2026-05-02T12:09:24.275Z</time></trkpt><trkpt lat="42.113242" lon="13.6962933"><ele>924.6666666666667</ele><time>2026-05-02T12:09:25.275Z</time></trkpt><trkpt lat="42.1130847" lon="13.6963244"><ele>918.0</ele><time>2026-05-02T12:09:26.28Z</time></trkpt><trkpt lat="42.1129244" lon="13.6963709"><ele>918.0</ele><time>2026-05-02T12:09:27.281Z</time></trkpt><trkpt lat="42.1127939" lon="13.6964517"><ele>918.0</ele><time>2026-05-02T12:09:28.281Z</time></trkpt><trkpt lat="42.1126627" lon="13.696532"><ele>918.0</ele><time>2026-05-02T12:09:29.274Z</time></trkpt><trkpt lat="42.1125056" lon="13.6966214"><ele>927.6666666666667</ele><time>2026-05-02T12:09:30.277Z</time></trkpt><trkpt lat="42.1123564" lon="13.6967146"><ele>937.3333333333334</ele><time>2026-05-02T12:09:31.272Z</time></trkpt><trkpt lat="42.1122226" lon="13.6968126"><ele>947.0</ele><time>2026-05-02T12:09:32.273Z</time></trkpt><trkpt lat="42.1120718" lon="13.6968908"><ele>944.75</ele><time>2026-05-02T12:09:33.278Z</time></trkpt><trkpt lat="42.1119402" lon="13.6969802"><ele>942.5</ele><time>2026-05-02T12:09:34.274Z</time></trkpt><trkpt lat="42.111802" lon="13.6970647"><ele>940.25</ele><time>2026-05-02T12:09:35.273Z</time></trkpt><trkpt lat="42.1116698" lon="13.6971382"><ele>938.0</ele><time>2026-05-02T12:09:36.273Z</time></trkpt><trkpt lat="42.1115423" lon="13.6972003"><ele>938.0</ele><time>2026-05-02T12:09:37.276Z</time></trkpt><trkpt lat="42.1113916" lon="13.6972688"><ele>938.0</ele><time>2026-05-02T12:09:38.274Z</time></trkpt><trkpt lat="42.11124" lon="13.6973402"><ele>938.0</ele><time>2026-05-02T12:09:39.273Z</time></trkpt><trkpt lat="42.1110897" lon="13.6973998"><ele>938.0</ele><time>2026-05-02T12:09:40.275Z</time></trkpt><trkpt lat="42.1109408" lon="13.6974688"><ele>938.0</ele><time>2026-05-02T12:09:41.272Z</time></trkpt><trkpt lat="42.1107927" lon="13.6975433"><ele>938.0</ele><time>2026-05-02T12:09:42.275Z</time></trkpt><trkpt lat="42.1106626" lon="13.6976301"><ele>936.75</ele><time>2026-05-02T12:09:43.275Z</time></trkpt><trkpt lat="42.1105323" lon="13.6977286"><ele>935.5</ele><time>2026-05-02T12:09:44.274Z</time></trkpt><trkpt lat="42.1104213" lon="13.6978356"><ele>934.25</ele><time>2026-05-02T12:09:45.279Z</time></trkpt><trkpt lat="42.1102696" lon="13.697913"><ele>933.0</ele><time>2026-05-02T12:09:46.281Z</time></trkpt><trkpt lat="42.1101144" lon="13.6979968"><ele>933.0</ele><time>2026-05-02T12:09:47.277Z</time></trkpt><trkpt lat="42.1099737" lon="13.6980627"><ele>933.0</ele><time>2026-05-02T12:09:48.282Z</time></trkpt><trkpt lat="42.109822" lon="13.6981402"><ele>933.0</ele><time>2026-05-02T12:09:49.282Z</time></trkpt><trkpt lat="42.1096687" lon="13.698212"><ele>941.3333333333333</ele><time>2026-05-02T12:09:50.28Z</time></trkpt><trkpt lat="42.109525" lon="13.6983032"><ele>949.6666666666666</ele><time>2026-05-02T12:09:51.285Z</time></trkpt><trkpt lat="42.1093827" lon="13.6983727"><ele>958.0</ele><time>2026-05-02T12:09:52.287Z</time></trkpt><trkpt lat="42.1092369" lon="13.6984308"><ele>958.0</ele><time>2026-05-02T12:09:53.284Z</time></trkpt><trkpt lat="42.10909" lon="13.6984838"><ele>958.0</ele><time>2026-05-02T12:09:54.278Z</time></trkpt><trkpt lat="42.1089407" lon="13.6985189"><ele>958.0</ele><time>2026-05-02T12:09:55.281Z</time></trkpt><trkpt lat="42.108808" lon="13.6985514"><ele>958.0</ele><time>2026-05-02T12:09:56.279Z</time></trkpt><trkpt lat="42.1086986" lon="13.6985737"><ele>957.8</ele><time>2026-05-02T12:09:57.284Z</time></trkpt><trkpt lat="42.1085903" lon="13.698581"><ele>957.5999999999999</ele><time>2026-05-02T12:09:58.29Z</time></trkpt><trkpt lat="42.1085049" lon="13.6985716"><ele>957.4000000000001</ele><time>2026-05-02T12:09:59.286Z</time></trkpt><trkpt lat="42.1084329" lon="13.6985018"><ele>957.2</ele><time>2026-05-02T12:10:00.286Z</time></trkpt><trkpt lat="42.1083782" lon="13.6984299"><ele>957.0</ele><time>2026-05-02T12:10:01.298Z</time></trkpt><trkpt lat="42.1083475" lon="13.6983026"><ele>957.0</ele><time>2026-05-02T12:10:02.282Z</time></trkpt><trkpt lat="42.108309" lon="13.6981647"><ele>957.0</ele><time>2026-05-02T12:10:03.283Z</time></trkpt><trkpt lat="42.1082585" lon="13.6980224"><ele>957.0</ele><time>2026-05-02T12:10:04.299Z</time></trkpt><trkpt lat="42.1081973" lon="13.6978676"><ele>957.0</ele><time>2026-05-02T12:10:05.293Z</time></trkpt><trkpt lat="42.1081398" lon="13.6977209"><ele>955.5</ele><time>2026-05-02T12:10:06.295Z</time></trkpt><trkpt lat="42.1080891" lon="13.6975857"><ele>954.0</ele><time>2026-05-02T12:10:07.281Z</time></trkpt><trkpt lat="42.1080607" lon="13.697431"><ele>952.5</ele><time>2026-05-02T12:10:08.284Z</time></trkpt><trkpt lat="42.1080677" lon="13.6972788"><ele>951.0</ele><time>2026-05-02T12:10:09.276Z</time></trkpt><trkpt lat="42.1080935" lon="13.697121"><ele>951.0</ele><time>2026-05-02T12:10:10.286Z</time></trkpt><trkpt lat="42.1081379" lon="13.696977"><ele>951.0</ele><time>2026-05-02T12:10:11.283Z</time></trkpt><trkpt lat="42.1081953" lon="13.6968317"><ele>951.0</ele><time>2026-05-02T12:10:12.286Z</time></trkpt><trkpt lat="42.1082634" lon="13.6966914"><ele>951.0</ele><time>2026-05-02T12:10:13.279Z</time></trkpt><trkpt lat="42.1083114" lon="13.6965887"><ele>951.0</ele><time>2026-05-02T12:10:14.273Z</time></trkpt><trkpt lat="42.1083564" lon="13.6964967"><ele>950.9999999999999</ele><time>2026-05-02T12:10:16.276Z</time></trkpt><trkpt lat="42.1082678" lon="13.6966056"><ele>950.9999999999999</ele><time>2026-05-02T12:10:30.307Z</time></trkpt><trkpt lat="42.1082303" lon="13.6967247"><ele>951.0</ele><time>2026-05-02T12:10:31.296Z</time></trkpt><trkpt lat="42.108179" lon="13.696856"><ele>951.0</ele><time>2026-05-02T12:10:32.37Z</time></trkpt><trkpt lat="42.108138" lon="13.6969773"><ele>951.0</ele><time>2026-05-02T12:10:33.369Z</time></trkpt><trkpt lat="42.1081054" lon="13.6970869"><ele>950.9999999999999</ele><time>2026-05-02T12:10:34.372Z</time></trkpt><trkpt lat="42.1080614" lon="13.6972718"><ele>950.9999999999999</ele><time>2026-05-02T12:10:36.369Z</time></trkpt><trkpt lat="42.1080559" lon="13.6973983"><ele>951.0</ele><time>2026-05-02T12:10:38.362Z</time></trkpt><trkpt lat="42.1080537" lon="13.6975028"><ele>951.0</ele><time>2026-05-02T12:10:41.264Z</time></trkpt><trkpt lat="42.1079871" lon="13.6974582"><ele>951.0</ele><time>2026-05-02T12:10:44.29Z</time></trkpt><trkpt lat="42.107944" lon="13.6973714"><ele>951.0</ele><time>2026-05-02T12:10:46.291Z</time></trkpt><trkpt lat="42.1079278" lon="13.6972675"><ele>951.0</ele><time>2026-05-02T12:10:47.273Z</time></trkpt><trkpt lat="42.107918" lon="13.6971621"><ele>951.0</ele><time>2026-05-02T12:10:48.281Z</time></trkpt><trkpt lat="42.1079066" lon="13.6970536"><ele>951.0</ele><time>2026-05-02T12:10:49.278Z</time></trkpt><trkpt lat="42.107888" lon="13.6969507"><ele>951.0</ele><time>2026-05-02T12:10:50.279Z</time></trkpt><trkpt lat="42.1078717" lon="13.6968298"><ele>950.6666666666666</ele><time>2026-05-02T12:10:51.281Z</time></trkpt><trkpt lat="42.1078595" lon="13.6967215"><ele>950.3333333333333</ele><time>2026-05-02T12:10:52.28Z</time></trkpt><trkpt lat="42.1078303" lon="13.6966116"><ele>950.0</ele><time>2026-05-02T12:10:53.279Z</time></trkpt><trkpt lat="42.1078133" lon="13.6965012"><ele>949.6666666666666</ele><time>2026-05-02T12:10:54.281Z</time></trkpt><trkpt lat="42.1077953" lon="13.6963835"><ele>949.3333333333333</ele><time>2026-05-02T12:10:55.282Z</time></trkpt><trkpt lat="42.1077673" lon="13.696256"><ele>949.0</ele><time>2026-05-02T12:10:56.28Z</time></trkpt><trkpt lat="42.1077411" lon="13.6961403"><ele>948.2</ele><time>2026-05-02T12:10:57.282Z</time></trkpt><trkpt lat="42.1077189" lon="13.6960228"><ele>947.4000000000001</ele><time>2026-05-02T12:10:58.291Z</time></trkpt><trkpt lat="42.1077005" lon="13.695901"><ele>946.6</ele><time>2026-05-02T12:10:59.28Z</time></trkpt><trkpt lat="42.1076781" lon="13.6957698"><ele>945.8</ele><time>2026-05-02T12:11:00.295Z</time></trkpt><trkpt lat="42.1076592" lon="13.695626"><ele>945.0</ele><time>2026-05-02T12:11:01.286Z</time></trkpt><trkpt lat="42.1076341" lon="13.69549"><ele>945.0</ele><time>2026-05-02T12:11:02.282Z</time></trkpt><trkpt lat="42.1076116" lon="13.6953582"><ele>945.0</ele><time>2026-05-02T12:11:03.285Z</time></trkpt><trkpt lat="42.1076026" lon="13.6952367"><ele>945.0</ele><time>2026-05-02T12:11:04.286Z</time></trkpt><trkpt lat="42.1075823" lon="13.6950993"><ele>945.0</ele><time>2026-05-02T12:11:05.292Z</time></trkpt><trkpt lat="42.1075527" lon="13.6949688"><ele>945.0</ele><time>2026-05-02T12:11:06.294Z</time></trkpt><trkpt lat="42.107531" lon="13.6948488"><ele>944.6666666666666</ele><time>2026-05-02T12:11:07.294Z</time></trkpt><trkpt lat="42.1075113" lon="13.6947402"><ele>944.3333333333333</ele><time>2026-05-02T12:11:08.295Z</time></trkpt><trkpt lat="42.1074883" lon="13.6946282"><ele>944.0</ele><time>2026-05-02T12:11:09.28Z</time></trkpt><trkpt lat="42.107458" lon="13.6945354"><ele>943.6666666666666</ele><time>2026-05-02T12:11:10.282Z</time></trkpt><trkpt lat="42.1074166" lon="13.6944574"><ele>943.3333333333333</ele><time>2026-05-02T12:11:11.282Z</time></trkpt><trkpt lat="42.1073636" lon="13.6943952"><ele>943.0</ele><time>2026-05-02T12:11:12.286Z</time></trkpt><trkpt lat="42.1072806" lon="13.6943614"><ele>939.5999999999999</ele><time>2026-05-02T12:11:13.283Z</time></trkpt><trkpt lat="42.1071903" lon="13.6943424"><ele>936.1999999999999</ele><time>2026-05-02T12:11:14.287Z</time></trkpt><trkpt lat="42.1070773" lon="13.6943493"><ele>932.8</ele><time>2026-05-02T12:11:15.285Z</time></trkpt><trkpt lat="42.1069705" lon="13.6943619"><ele>929.4</ele><time>2026-05-02T12:11:16.29Z</time></trkpt><trkpt lat="42.1068646" lon="13.6943543"><ele>926.0</ele><time>2026-05-02T12:11:17.29Z</time></trkpt><trkpt lat="42.1067615" lon="13.6943267"><ele>926.0</ele><time>2026-05-02T12:11:18.294Z</time></trkpt><trkpt lat="42.1066483" lon="13.6942937"><ele>926.0</ele><time>2026-05-02T12:11:19.291Z</time></trkpt><trkpt lat="42.1065241" lon="13.6942449"><ele>926.0</ele><time>2026-05-02T12:11:20.29Z</time></trkpt><trkpt lat="42.1063981" lon="13.6942078"><ele>926.0</ele><time>2026-05-02T12:11:21.288Z</time></trkpt><trkpt lat="42.1062687" lon="13.6941795"><ele>923.0</ele><time>2026-05-02T12:11:22.295Z</time></trkpt><trkpt lat="42.1061428" lon="13.6941522"><ele>920.0</ele><time>2026-05-02T12:11:23.286Z</time></trkpt><trkpt lat="42.1060176" lon="13.6941268"><ele>917.0</ele><time>2026-05-02T12:11:24.294Z</time></trkpt><trkpt lat="42.1058898" lon="13.694099"><ele>914.0</ele><time>2026-05-02T12:11:25.289Z</time></trkpt><trkpt lat="42.1057715" lon="13.6940718"><ele>912.0</ele><time>2026-05-02T12:11:26.286Z</time></trkpt><trkpt lat="42.1056584" lon="13.694043"><ele>910.0</ele><time>2026-05-02T12:11:27.286Z</time></trkpt><trkpt lat="42.105535" lon="13.6940075"><ele>908.0</ele><time>2026-05-02T12:11:28.284Z</time></trkpt><trkpt lat="42.1054152" lon="13.6939727"><ele>906.0</ele><time>2026-05-02T12:11:29.286Z</time></trkpt><trkpt lat="42.1053084" lon="13.6939472"><ele>906.0</ele><time>2026-05-02T12:11:30.287Z</time></trkpt><trkpt lat="42.1052219" lon="13.6939172"><ele>906.0</ele><time>2026-05-02T12:11:31.282Z</time></trkpt><trkpt lat="42.1051458" lon="13.6938816"><ele>906.0</ele><time>2026-05-02T12:11:32.283Z</time></trkpt><trkpt lat="42.1050942" lon="13.6938311"><ele>906.0</ele><time>2026-05-02T12:11:33.287Z</time></trkpt><trkpt lat="42.1050516" lon="13.6937578"><ele>906.0</ele><time>2026-05-02T12:11:34.288Z</time></trkpt><trkpt lat="42.105002" lon="13.6936521"><ele>906.0</ele><time>2026-05-02T12:11:35.283Z</time></trkpt><trkpt lat="42.1049463" lon="13.6935191"><ele>908.5999999999999</ele><time>2026-05-02T12:11:36.28Z</time></trkpt><trkpt lat="42.1048931" lon="13.6934024"><ele>911.1999999999999</ele><time>2026-05-02T12:11:37.284Z</time></trkpt><trkpt lat="42.1048298" lon="13.6933106"><ele>913.8000000000001</ele><time>2026-05-02T12:11:38.275Z</time></trkpt><trkpt lat="42.1047622" lon="13.6932508"><ele>916.4000000000001</ele><time>2026-05-02T12:11:39.288Z</time></trkpt><trkpt lat="42.1046235" lon="13.6932835"><ele>919.0</ele><time>2026-05-02T12:11:41.276Z</time></trkpt><trkpt lat="42.1045354" lon="13.6933017"><ele>919.0</ele><time>2026-05-02T12:11:42.278Z</time></trkpt><trkpt lat="42.104426" lon="13.6932913"><ele>919.0000000000001</ele><time>2026-05-02T12:11:43.281Z</time></trkpt><trkpt lat="42.1043123" lon="13.6932619"><ele>919.0000000000001</ele><time>2026-05-02T12:11:44.282Z</time></trkpt><trkpt lat="42.1042222" lon="13.6932516"><ele>919.0</ele><time>2026-05-02T12:11:45.286Z</time></trkpt><trkpt lat="42.1041561" lon="13.6932836"><ele>919.0</ele><time>2026-05-02T12:11:46.279Z</time></trkpt><trkpt lat="42.1040973" lon="13.6933442"><ele>919.6666666666666</ele><time>2026-05-02T12:11:47.288Z</time></trkpt><trkpt lat="42.1040561" lon="13.6934443"><ele>920.3333333333333</ele><time>2026-05-02T12:11:48.277Z</time></trkpt><trkpt lat="42.1040322" lon="13.6935568"><ele>921.0</ele><time>2026-05-02T12:11:49.275Z</time></trkpt><trkpt lat="42.1040045" lon="13.6936698"><ele>921.6666666666667</ele><time>2026-05-02T12:11:50.287Z</time></trkpt><trkpt lat="42.103993" lon="13.693794"><ele>922.3333333333334</ele><time>2026-05-02T12:11:51.284Z</time></trkpt><trkpt lat="42.103974" lon="13.6939002"><ele>923.0</ele><time>2026-05-02T12:11:52.284Z</time></trkpt><trkpt lat="42.1039347" lon="13.6939811"><ele>923.0000000000001</ele><time>2026-05-02T12:11:53.283Z</time></trkpt><trkpt lat="42.1038833" lon="13.6940489"><ele>923.0</ele><time>2026-05-02T12:11:54.278Z</time></trkpt><trkpt lat="42.1038278" lon="13.6941096"><ele>923.0</ele><time>2026-05-02T12:11:55.278Z</time></trkpt><trkpt lat="42.103767" lon="13.6941496"><ele>923.0</ele><time>2026-05-02T12:11:56.277Z</time></trkpt><trkpt lat="42.1036935" lon="13.6941505"><ele>923.0000000000001</ele><time>2026-05-02T12:11:57.278Z</time></trkpt><trkpt lat="42.1036039" lon="13.6941417"><ele>923.0</ele><time>2026-05-02T12:11:58.286Z</time></trkpt><trkpt lat="42.1035085" lon="13.6941158"><ele>923.0</ele><time>2026-05-02T12:11:59.283Z</time></trkpt><trkpt lat="42.1033944" lon="13.6940932"><ele>923.0</ele><time>2026-05-02T12:12:00.285Z</time></trkpt><trkpt lat="42.1032751" lon="13.6940803"><ele>923.0</ele><time>2026-05-02T12:12:01.278Z</time></trkpt><trkpt lat="42.1031576" lon="13.6941004"><ele>923.0</ele><time>2026-05-02T12:12:02.275Z</time></trkpt><trkpt lat="42.1030345" lon="13.6941192"><ele>923.8</ele><time>2026-05-02T12:12:03.282Z</time></trkpt><trkpt lat="42.1029248" lon="13.6941417"><ele>924.5999999999999</ele><time>2026-05-02T12:12:04.283Z</time></trkpt><trkpt lat="42.1028125" lon="13.6941656"><ele>925.4000000000001</ele><time>2026-05-02T12:12:05.283Z</time></trkpt><trkpt lat="42.1027118" lon="13.6941917"><ele>926.2</ele><time>2026-05-02T12:12:06.285Z</time></trkpt><trkpt lat="42.1026258" lon="13.6942118"><ele>927.0</ele><time>2026-05-02T12:12:07.284Z</time></trkpt><trkpt lat="42.1025459" lon="13.6942428"><ele>927.0</ele><time>2026-05-02T12:12:08.288Z</time></trkpt><trkpt lat="42.1024523" lon="13.694267"><ele>927.0</ele><time>2026-05-02T12:12:09.284Z</time></trkpt><trkpt lat="42.102358" lon="13.6942779"><ele>927.0</ele><time>2026-05-02T12:12:10.283Z</time></trkpt><trkpt lat="42.1022689" lon="13.6942756"><ele>927.0</ele><time>2026-05-02T12:12:11.277Z</time></trkpt><trkpt lat="42.1021775" lon="13.6942598"><ele>927.0</ele><time>2026-05-02T12:12:12.281Z</time></trkpt><trkpt lat="42.1021011" lon="13.6942148"><ele>928.0</ele><time>2026-05-02T12:12:13.284Z</time></trkpt><trkpt lat="42.1020306" lon="13.6941417"><ele>929.0</ele><time>2026-05-02T12:12:14.271Z</time></trkpt><trkpt lat="42.1019688" lon="13.6940644"><ele>930.0</ele><time>2026-05-02T12:12:15.278Z</time></trkpt><trkpt lat="42.101916" lon="13.6939742"><ele>931.0</ele><time>2026-05-02T12:12:16.286Z</time></trkpt><trkpt lat="42.1018599" lon="13.6938858"><ele>932.0</ele><time>2026-05-02T12:12:17.289Z</time></trkpt><trkpt lat="42.1018" lon="13.6937903"><ele>933.0</ele><time>2026-05-02T12:12:18.285Z</time></trkpt><trkpt lat="42.1017475" lon="13.6936864"><ele>933.0</ele><time>2026-05-02T12:12:19.283Z</time></trkpt><trkpt lat="42.1016956" lon="13.6936138"><ele>932.9999999999999</ele><time>2026-05-02T12:12:20.283Z</time></trkpt><trkpt lat="42.101642" lon="13.6935555"><ele>933.0</ele><time>2026-05-02T12:12:21.287Z</time></trkpt><trkpt lat="42.1015791" lon="13.6935222"><ele>933.0</ele><time>2026-05-02T12:12:22.284Z</time></trkpt><trkpt lat="42.1015063" lon="13.6934955"><ele>932.9999999999999</ele><time>2026-05-02T12:12:23.282Z</time></trkpt><trkpt lat="42.1014283" lon="13.6934699"><ele>933.0</ele><time>2026-05-02T12:12:24.279Z</time></trkpt><trkpt lat="42.1013542" lon="13.6934702"><ele>933.0</ele><time>2026-05-02T12:12:25.273Z</time></trkpt><trkpt lat="42.1012909" lon="13.6935171"><ele>935.8</ele><time>2026-05-02T12:12:26.278Z</time></trkpt><trkpt lat="42.1012299" lon="13.6935973"><ele>938.5999999999999</ele><time>2026-05-02T12:12:27.281Z</time></trkpt><trkpt lat="42.1011709" lon="13.6937017"><ele>941.4000000000001</ele><time>2026-05-02T12:12:28.28Z</time></trkpt><trkpt lat="42.101114" lon="13.6938244"><ele>944.2</ele><time>2026-05-02T12:12:29.275Z</time></trkpt><trkpt lat="42.1010518" lon="13.6939444"><ele>947.0</ele><time>2026-05-02T12:12:30.278Z</time></trkpt><trkpt lat="42.100988" lon="13.6940538"><ele>947.0000000000001</ele><time>2026-05-02T12:12:31.27Z</time></trkpt><trkpt lat="42.1009193" lon="13.6941367"><ele>947.0</ele><time>2026-05-02T12:12:32.281Z</time></trkpt><trkpt lat="42.1008473" lon="13.6941979"><ele>947.0</ele><time>2026-05-02T12:12:33.287Z</time></trkpt><trkpt lat="42.1007766" lon="13.6942652"><ele>947.0</ele><time>2026-05-02T12:12:34.285Z</time></trkpt><trkpt lat="42.1007149" lon="13.6943443"><ele>947.0000000000001</ele><time>2026-05-02T12:12:35.285Z</time></trkpt><trkpt lat="42.1006463" lon="13.694398"><ele>947.0</ele><time>2026-05-02T12:12:36.282Z</time></trkpt><trkpt lat="42.1005718" lon="13.6944227"><ele>949.3333333333334</ele><time>2026-05-02T12:12:37.288Z</time></trkpt><trkpt lat="42.1004983" lon="13.6944189"><ele>951.6666666666667</ele><time>2026-05-02T12:12:38.286Z</time></trkpt><trkpt lat="42.1004303" lon="13.694375"><ele>954.0</ele><time>2026-05-02T12:12:39.294Z</time></trkpt><trkpt lat="42.1003676" lon="13.6943058"><ele>956.3333333333333</ele><time>2026-05-02T12:12:40.299Z</time></trkpt><trkpt lat="42.1003023" lon="13.694255"><ele>958.6666666666666</ele><time>2026-05-02T12:12:41.285Z</time></trkpt><trkpt lat="42.1002334" lon="13.694237"><ele>961.0</ele><time>2026-05-02T12:12:42.283Z</time></trkpt><trkpt lat="42.1001285" lon="13.6942536"><ele>961.0</ele><time>2026-05-02T12:12:44.287Z</time></trkpt><trkpt lat="42.1000094" lon="13.6942091"><ele>960.9999999999999</ele><time>2026-05-02T12:12:46.286Z</time></trkpt><trkpt lat="42.0999307" lon="13.6941702"><ele>960.9999999999999</ele><time>2026-05-02T12:12:47.284Z</time></trkpt><trkpt lat="42.0998449" lon="13.6941265"><ele>961.0</ele><time>2026-05-02T12:12:48.287Z</time></trkpt><trkpt lat="42.0997706" lon="13.6940797"><ele>961.0</ele><time>2026-05-02T12:12:49.284Z</time></trkpt><trkpt lat="42.0997172" lon="13.694011"><ele>963.8333333333333</ele><time>2026-05-02T12:12:50.278Z</time></trkpt><trkpt lat="42.099692" lon="13.6939251"><ele>966.6666666666666</ele><time>2026-05-02T12:12:51.284Z</time></trkpt><trkpt lat="42.0996825" lon="13.6938375"><ele>969.5</ele><time>2026-05-02T12:12:52.304Z</time></trkpt><trkpt lat="42.0996555" lon="13.6936767"><ele>972.3333333333333</ele><time>2026-05-02T12:12:54.289Z</time></trkpt><trkpt lat="42.0996305" lon="13.6935903"><ele>975.1666666666666</ele><time>2026-05-02T12:12:55.284Z</time></trkpt><trkpt lat="42.0995972" lon="13.6934921"><ele>978.0</ele><time>2026-05-02T12:12:56.286Z</time></trkpt><trkpt lat="42.099562" lon="13.6934014"><ele>979.5</ele><time>2026-05-02T12:12:57.28Z</time></trkpt><trkpt lat="42.0995134" lon="13.6933233"><ele>981.0</ele><time>2026-05-02T12:12:58.281Z</time></trkpt><trkpt lat="42.0994525" lon="13.6932668"><ele>982.5</ele><time>2026-05-02T12:12:59.282Z</time></trkpt><trkpt lat="42.0993826" lon="13.6932206"><ele>984.0</ele><time>2026-05-02T12:13:00.283Z</time></trkpt><trkpt lat="42.0993212" lon="13.6931793"><ele>985.5</ele><time>2026-05-02T12:13:01.276Z</time></trkpt><trkpt lat="42.0992174" lon="13.6931637"><ele>987.0</ele><time>2026-05-02T12:13:03.274Z</time></trkpt><trkpt lat="42.0991103" lon="13.6932154"><ele>989.8333333333334</ele><time>2026-05-02T12:13:05.269Z</time></trkpt><trkpt lat="42.0990478" lon="13.6932508"><ele>992.6666666666667</ele><time>2026-05-02T12:13:06.273Z</time></trkpt><trkpt lat="42.098985" lon="13.693291"><ele>995.5</ele><time>2026-05-02T12:13:07.268Z</time></trkpt><trkpt lat="42.0989146" lon="13.6934021"><ele>998.3333333333334</ele><time>2026-05-02T12:13:09.266Z</time></trkpt><trkpt lat="42.098899" lon="13.6934883"><ele>1001.1666666666667</ele><time>2026-05-02T12:13:10.271Z</time></trkpt><trkpt lat="42.0988892" lon="13.6935909"><ele>1004.0</ele><time>2026-05-02T12:13:11.266Z</time></trkpt><trkpt lat="42.0989046" lon="13.6937125"><ele>1004.0</ele><time>2026-05-02T12:13:12.265Z</time></trkpt><trkpt lat="42.0989209" lon="13.693831"><ele>1004.0000000000001</ele><time>2026-05-02T12:13:13.273Z</time></trkpt><trkpt lat="42.0989227" lon="13.6939363"><ele>1004.0000000000001</ele><time>2026-05-02T12:13:14.29Z</time></trkpt><trkpt lat="42.0989055" lon="13.6940239"><ele>1004.0</ele><time>2026-05-02T12:13:15.288Z</time></trkpt><trkpt lat="42.0988474" lon="13.6941511"><ele>1004.0</ele><time>2026-05-02T12:13:17.284Z</time></trkpt><trkpt lat="42.0987417" lon="13.694221"><ele>1004.0</ele><time>2026-05-02T12:13:19.285Z</time></trkpt><trkpt lat="42.0986695" lon="13.6942407"><ele>1004.0000000000001</ele><time>2026-05-02T12:13:20.281Z</time></trkpt><trkpt lat="42.0985933" lon="13.6942792"><ele>1004.0000000000001</ele><time>2026-05-02T12:13:21.287Z</time></trkpt><trkpt lat="42.0985145" lon="13.6943503"><ele>1004.0</ele><time>2026-05-02T12:13:22.298Z</time></trkpt><trkpt lat="42.0984307" lon="13.6944497"><ele>1004.0</ele><time>2026-05-02T12:13:23.279Z</time></trkpt><trkpt lat="42.0983542" lon="13.6945647"><ele>1004.0</ele><time>2026-05-02T12:13:24.281Z</time></trkpt><trkpt lat="42.0982987" lon="13.694685"><ele>1004.0000000000001</ele><time>2026-05-02T12:13:25.282Z</time></trkpt><trkpt lat="42.0982541" lon="13.6948002"><ele>1004.0000000000001</ele><time>2026-05-02T12:13:26.292Z</time></trkpt><trkpt lat="42.0982148" lon="13.694908"><ele>1004.0</ele><time>2026-05-02T12:13:27.287Z</time></trkpt><trkpt lat="42.098171" lon="13.6950054"><ele>1004.0</ele><time>2026-05-02T12:13:28.286Z</time></trkpt><trkpt lat="42.0981181" lon="13.6951119"><ele>1004.0000000000001</ele><time>2026-05-02T12:13:29.29Z</time></trkpt><trkpt lat="42.0980576" lon="13.6952229"><ele>1004.0</ele><time>2026-05-02T12:13:30.289Z</time></trkpt><trkpt lat="42.098004" lon="13.6953204"><ele>1004.0</ele><time>2026-05-02T12:13:31.283Z</time></trkpt><trkpt lat="42.0979527" lon="13.6954054"><ele>1004.0</ele><time>2026-05-02T12:13:32.289Z</time></trkpt><trkpt lat="42.0979034" lon="13.695478"><ele>1004.0000000000001</ele><time>2026-05-02T12:13:33.284Z</time></trkpt><trkpt lat="42.0978508" lon="13.6955365"><ele>1004.0</ele><time>2026-05-02T12:13:34.28Z</time></trkpt><trkpt lat="42.0977824" lon="13.6955818"><ele>1002.5</ele><time>2026-05-02T12:13:35.28Z</time></trkpt><trkpt lat="42.0976806" lon="13.6956186"><ele>1001.0</ele><time>2026-05-02T12:13:36.285Z</time></trkpt><trkpt lat="42.0975555" lon="13.6956494"><ele>999.5</ele><time>2026-05-02T12:13:37.29Z</time></trkpt><trkpt lat="42.0974337" lon="13.6956891"><ele>998.0</ele><time>2026-05-02T12:13:38.288Z</time></trkpt><trkpt lat="42.0973189" lon="13.6957311"><ele>998.0</ele><time>2026-05-02T12:13:39.288Z</time></trkpt><trkpt lat="42.0972155" lon="13.695789"><ele>998.0</ele><time>2026-05-02T12:13:40.291Z</time></trkpt><trkpt lat="42.0971067" lon="13.6958429"><ele>998.0</ele><time>2026-05-02T12:13:41.288Z</time></trkpt><trkpt lat="42.0970001" lon="13.6958836"><ele>998.0</ele><time>2026-05-02T12:13:42.288Z</time></trkpt><trkpt lat="42.0969037" lon="13.6959067"><ele>998.0</ele><time>2026-05-02T12:13:43.281Z</time></trkpt><trkpt lat="42.0968135" lon="13.6959088"><ele>998.0000000000001</ele><time>2026-05-02T12:13:44.282Z</time></trkpt><trkpt lat="42.0967338" lon="13.6959014"><ele>998.0</ele><time>2026-05-02T12:13:45.282Z</time></trkpt><trkpt lat="42.0966637" lon="13.6958694"><ele>998.0</ele><time>2026-05-02T12:13:46.284Z</time></trkpt><trkpt lat="42.0966119" lon="13.6958178"><ele>998.0</ele><time>2026-05-02T12:13:47.289Z</time></trkpt><trkpt lat="42.0965643" lon="13.6957547"><ele>998.0000000000001</ele><time>2026-05-02T12:13:48.291Z</time></trkpt><trkpt lat="42.0964648" lon="13.6956605"><ele>998.0</ele><time>2026-05-02T12:13:50.283Z</time></trkpt><trkpt lat="42.0963447" lon="13.6956683"><ele>997.5999999999999</ele><time>2026-05-02T12:13:52.293Z</time></trkpt><trkpt lat="42.0962518" lon="13.6957422"><ele>997.1999999999999</ele><time>2026-05-02T12:13:54.284Z</time></trkpt><trkpt lat="42.0961968" lon="13.6957872"><ele>996.8</ele><time>2026-05-02T12:13:56.293Z</time></trkpt><trkpt lat="42.0961278" lon="13.6958385"><ele>996.4</ele><time>2026-05-02T12:13:58.302Z</time></trkpt><trkpt lat="42.0960275" lon="13.6959108"><ele>996.0</ele><time>2026-05-02T12:14:00.286Z</time></trkpt><trkpt lat="42.0959356" lon="13.6959436"><ele>996.0</ele><time>2026-05-02T12:14:02.281Z</time></trkpt><trkpt lat="42.0958523" lon="13.6959217"><ele>996.0</ele><time>2026-05-02T12:14:04.284Z</time></trkpt><trkpt lat="42.0957608" lon="13.6958491"><ele>996.0</ele><time>2026-05-02T12:14:06.279Z</time></trkpt><trkpt lat="42.0956914" lon="13.6957942"><ele>996.0</ele><time>2026-05-02T12:14:07.276Z</time></trkpt><trkpt lat="42.0956097" lon="13.6957501"><ele>996.0</ele><time>2026-05-02T12:14:08.286Z</time></trkpt><trkpt lat="42.095531" lon="13.6957221"><ele>996.0</ele><time>2026-05-02T12:14:09.283Z</time></trkpt><trkpt lat="42.0954564" lon="13.6957157"><ele>997.1666666666666</ele><time>2026-05-02T12:14:10.278Z</time></trkpt><trkpt lat="42.0953754" lon="13.6957214"><ele>998.3333333333333</ele><time>2026-05-02T12:14:11.28Z</time></trkpt><trkpt lat="42.0952894" lon="13.6957375"><ele>999.5</ele><time>2026-05-02T12:14:12.285Z</time></trkpt><trkpt lat="42.0952098" lon="13.695769"><ele>1000.6666666666666</ele><time>2026-05-02T12:14:13.281Z</time></trkpt><trkpt lat="42.0951449" lon="13.6958054"><ele>1001.8333333333333</ele><time>2026-05-02T12:14:14.282Z</time></trkpt><trkpt lat="42.0950889" lon="13.6958478"><ele>1003.0</ele><time>2026-05-02T12:14:15.287Z</time></trkpt><trkpt lat="42.0950283" lon="13.6958976"><ele>1003.0</ele><time>2026-05-02T12:14:16.287Z</time></trkpt><trkpt lat="42.0949426" lon="13.6959507"><ele>1003.0</ele><time>2026-05-02T12:14:17.283Z</time></trkpt><trkpt lat="42.0948355" lon="13.6959959"><ele>1003.0</ele><time>2026-05-02T12:14:18.288Z</time></trkpt><trkpt lat="42.0947323" lon="13.6960406"><ele>1003.0</ele><time>2026-05-02T12:14:19.288Z</time></trkpt><trkpt lat="42.0946283" lon="13.6960748"><ele>1003.0</ele><time>2026-05-02T12:14:20.29Z</time></trkpt><trkpt lat="42.0945308" lon="13.6961387"><ele>1002.0</ele><time>2026-05-02T12:14:21.292Z</time></trkpt><trkpt lat="42.0944514" lon="13.6961921"><ele>1001.0</ele><time>2026-05-02T12:14:22.291Z</time></trkpt><trkpt lat="42.0943724" lon="13.6962415"><ele>1000.0</ele><time>2026-05-02T12:14:23.288Z</time></trkpt><trkpt lat="42.0942861" lon="13.6962827"><ele>999.0</ele><time>2026-05-02T12:14:24.289Z</time></trkpt><trkpt lat="42.0941738" lon="13.6963192"><ele>998.0</ele><time>2026-05-02T12:14:25.279Z</time></trkpt><trkpt lat="42.0940569" lon="13.6963587"><ele>1000.5</ele><time>2026-05-02T12:14:26.286Z</time></trkpt><trkpt lat="42.0939387" lon="13.6963869"><ele>1003.0</ele><time>2026-05-02T12:14:27.286Z</time></trkpt><trkpt lat="42.0938254" lon="13.6964284"><ele>1005.5</ele><time>2026-05-02T12:14:28.286Z</time></trkpt><trkpt lat="42.0937248" lon="13.6964914"><ele>1008.0</ele><time>2026-05-02T12:14:29.28Z</time></trkpt><trkpt lat="42.0936343" lon="13.6965842"><ele>1008.0</ele><time>2026-05-02T12:14:30.281Z</time></trkpt><trkpt lat="42.0935517" lon="13.6966899"><ele>1008.0</ele><time>2026-05-02T12:14:31.284Z</time></trkpt><trkpt lat="42.0934875" lon="13.6968142"><ele>1008.0</ele><time>2026-05-02T12:14:32.286Z</time></trkpt><trkpt lat="42.0934322" lon="13.6969413"><ele>1008.0</ele><time>2026-05-02T12:14:33.291Z</time></trkpt><trkpt lat="42.093371" lon="13.6970738"><ele>1007.2</ele><time>2026-05-02T12:14:34.285Z</time></trkpt><trkpt lat="42.0932971" lon="13.6971964"><ele>1006.4</ele><time>2026-05-02T12:14:35.288Z</time></trkpt><trkpt lat="42.0932271" lon="13.6973052"><ele>1005.6000000000001</ele><time>2026-05-02T12:14:36.285Z</time></trkpt><trkpt lat="42.0931724" lon="13.6974113"><ele>1004.8000000000001</ele><time>2026-05-02T12:14:37.288Z</time></trkpt><trkpt lat="42.0931238" lon="13.6975175"><ele>1004.0</ele><time>2026-05-02T12:14:38.289Z</time></trkpt><trkpt lat="42.0930711" lon="13.6976313"><ele>1003.8333333333334</ele><time>2026-05-02T12:14:39.291Z</time></trkpt><trkpt lat="42.0930163" lon="13.6977268"><ele>1003.6666666666667</ele><time>2026-05-02T12:14:40.284Z</time></trkpt><trkpt lat="42.0929527" lon="13.6978015"><ele>1003.5</ele><time>2026-05-02T12:14:41.282Z</time></trkpt><trkpt lat="42.0928822" lon="13.6978422"><ele>1003.3333333333333</ele><time>2026-05-02T12:14:42.287Z</time></trkpt><trkpt lat="42.0928033" lon="13.6978301"><ele>1003.1666666666666</ele><time>2026-05-02T12:14:43.292Z</time></trkpt><trkpt lat="42.092725" lon="13.6977865"><ele>1003.0</ele><time>2026-05-02T12:14:44.284Z</time></trkpt><trkpt lat="42.0926486" lon="13.6977332"><ele>1003.0</ele><time>2026-05-02T12:14:45.286Z</time></trkpt><trkpt lat="42.0925567" lon="13.6976901"><ele>1003.0</ele><time>2026-05-02T12:14:46.286Z</time></trkpt><trkpt lat="42.0924579" lon="13.6976936"><ele>1003.0</ele><time>2026-05-02T12:14:47.284Z</time></trkpt><trkpt lat="42.0923566" lon="13.6977175"><ele>1003.0</ele><time>2026-05-02T12:14:48.289Z</time></trkpt><trkpt lat="42.0922565" lon="13.6977542"><ele>1003.0</ele><time>2026-05-02T12:14:49.291Z</time></trkpt><trkpt lat="42.0921527" lon="13.6977856"><ele>1001.4</ele><time>2026-05-02T12:14:50.287Z</time></trkpt><trkpt lat="42.0920618" lon="13.69782"><ele>999.8</ele><time>2026-05-02T12:14:51.291Z</time></trkpt><trkpt lat="42.091969" lon="13.6978368"><ele>998.2</ele><time>2026-05-02T12:14:52.287Z</time></trkpt><trkpt lat="42.0918693" lon="13.6978305"><ele>996.6</ele><time>2026-05-02T12:14:53.287Z</time></trkpt><trkpt lat="42.0917529" lon="13.6978307"><ele>995.0</ele><time>2026-05-02T12:14:54.289Z</time></trkpt><trkpt lat="42.0916412" lon="13.6978465"><ele>994.25</ele><time>2026-05-02T12:14:55.287Z</time></trkpt><trkpt lat="42.0915368" lon="13.6979082"><ele>993.5</ele><time>2026-05-02T12:14:56.283Z</time></trkpt><trkpt lat="42.0914317" lon="13.6979881"><ele>992.75</ele><time>2026-05-02T12:14:57.277Z</time></trkpt><trkpt lat="42.0913272" lon="13.6980747"><ele>992.0</ele><time>2026-05-02T12:14:58.284Z</time></trkpt><trkpt lat="42.0912355" lon="13.6981488"><ele>992.0</ele><time>2026-05-02T12:14:59.281Z</time></trkpt><trkpt lat="42.0911489" lon="13.6981981"><ele>992.0</ele><time>2026-05-02T12:15:00.286Z</time></trkpt><trkpt lat="42.0910622" lon="13.6982527"><ele>992.0</ele><time>2026-05-02T12:15:01.282Z</time></trkpt><trkpt lat="42.0909688" lon="13.698302"><ele>992.0</ele><time>2026-05-02T12:15:02.283Z</time></trkpt><trkpt lat="42.0908858" lon="13.6983502"><ele>992.0</ele><time>2026-05-02T12:15:03.278Z</time></trkpt><trkpt lat="42.0908321" lon="13.6984162"><ele>992.0</ele><time>2026-05-02T12:15:04.287Z</time></trkpt><trkpt lat="42.0908134" lon="13.698526"><ele>992.0</ele><time>2026-05-02T12:15:05.282Z</time></trkpt><trkpt lat="42.0908121" lon="13.6986547"><ele>992.0</ele><time>2026-05-02T12:15:06.279Z</time></trkpt><trkpt lat="42.0908168" lon="13.698791"><ele>992.0</ele><time>2026-05-02T12:15:07.279Z</time></trkpt><trkpt lat="42.0907938" lon="13.698902"><ele>992.0</ele><time>2026-05-02T12:15:08.278Z</time></trkpt><trkpt lat="42.0907498" lon="13.6990055"><ele>992.8333333333334</ele><time>2026-05-02T12:15:09.277Z</time></trkpt><trkpt lat="42.0906872" lon="13.6990762"><ele>993.6666666666667</ele><time>2026-05-02T12:15:10.278Z</time></trkpt><trkpt lat="42.0906149" lon="13.6991196"><ele>994.5</ele><time>2026-05-02T12:15:11.279Z</time></trkpt><trkpt lat="42.0905418" lon="13.6991727"><ele>995.3333333333333</ele><time>2026-05-02T12:15:12.279Z</time></trkpt><trkpt lat="42.0904659" lon="13.6992435"><ele>996.1666666666666</ele><time>2026-05-02T12:15:13.284Z</time></trkpt><trkpt lat="42.0903958" lon="13.6992993"><ele>997.0</ele><time>2026-05-02T12:15:14.276Z</time></trkpt><trkpt lat="42.0903127" lon="13.6993408"><ele>997.0</ele><time>2026-05-02T12:15:15.275Z</time></trkpt><trkpt lat="42.0902163" lon="13.6993818"><ele>997.0</ele><time>2026-05-02T12:15:16.279Z</time></trkpt><trkpt lat="42.0901301" lon="13.6994435"><ele>997.0</ele><time>2026-05-02T12:15:17.278Z</time></trkpt><trkpt lat="42.0900519" lon="13.6995239"><ele>997.0</ele><time>2026-05-02T12:15:18.277Z</time></trkpt><trkpt lat="42.0899601" lon="13.6995923"><ele>997.0</ele><time>2026-05-02T12:15:19.273Z</time></trkpt><trkpt lat="42.0898642" lon="13.6996486"><ele>997.6</ele><time>2026-05-02T12:15:20.281Z</time></trkpt><trkpt lat="42.0897784" lon="13.6996687"><ele>998.2</ele><time>2026-05-02T12:15:21.286Z</time></trkpt><trkpt lat="42.0896765" lon="13.6995816"><ele>998.8</ele><time>2026-05-02T12:15:23.286Z</time></trkpt><trkpt lat="42.0896442" lon="13.6994961"><ele>999.4</ele><time>2026-05-02T12:15:24.281Z</time></trkpt><trkpt lat="42.089614" lon="13.6993988"><ele>1000.0</ele><time>2026-05-02T12:15:25.272Z</time></trkpt><trkpt lat="42.0895841" lon="13.6992716"><ele>1000.0</ele><time>2026-05-02T12:15:26.283Z</time></trkpt><trkpt lat="42.0895522" lon="13.6991305"><ele>1000.0</ele><time>2026-05-02T12:15:27.279Z</time></trkpt><trkpt lat="42.0895362" lon="13.6989963"><ele>1000.0</ele><time>2026-05-02T12:15:28.273Z</time></trkpt><trkpt lat="42.0895296" lon="13.6988791"><ele>1000.0</ele><time>2026-05-02T12:15:29.275Z</time></trkpt><trkpt lat="42.0895231" lon="13.6987698"><ele>1000.0</ele><time>2026-05-02T12:15:30.278Z</time></trkpt><trkpt lat="42.0895229" lon="13.6986633"><ele>999.1666666666666</ele><time>2026-05-02T12:15:31.277Z</time></trkpt><trkpt lat="42.0895379" lon="13.6985674"><ele>998.3333333333333</ele><time>2026-05-02T12:15:32.278Z</time></trkpt><trkpt lat="42.0895509" lon="13.6984843"><ele>997.5</ele><time>2026-05-02T12:15:33.277Z</time></trkpt><trkpt lat="42.0895511" lon="13.6983414"><ele>996.6666666666667</ele><time>2026-05-02T12:15:35.277Z</time></trkpt><trkpt lat="42.0894853" lon="13.6982027"><ele>995.8333333333334</ele><time>2026-05-02T12:15:37.281Z</time></trkpt><trkpt lat="42.0894335" lon="13.6981123"><ele>995.0</ele><time>2026-05-02T12:15:38.28Z</time></trkpt><trkpt lat="42.0893766" lon="13.6980293"><ele>995.0000000000001</ele><time>2026-05-02T12:15:39.272Z</time></trkpt><trkpt lat="42.0893168" lon="13.6979945"><ele>995.0</ele><time>2026-05-02T12:15:40.282Z</time></trkpt><trkpt lat="42.0892512" lon="13.6980014"><ele>995.0</ele><time>2026-05-02T12:15:41.281Z</time></trkpt><trkpt lat="42.0891727" lon="13.6980544"><ele>995.0</ele><time>2026-05-02T12:15:42.278Z</time></trkpt><trkpt lat="42.0890899" lon="13.698109"><ele>995.0000000000001</ele><time>2026-05-02T12:15:43.28Z</time></trkpt><trkpt lat="42.0890079" lon="13.6981734"><ele>995.0</ele><time>2026-05-02T12:15:44.278Z</time></trkpt><trkpt lat="42.0889324" lon="13.6982367"><ele>995.0</ele><time>2026-05-02T12:15:45.279Z</time></trkpt><trkpt lat="42.0888707" lon="13.6983033"><ele>995.0</ele><time>2026-05-02T12:15:46.282Z</time></trkpt><trkpt lat="42.0888115" lon="13.6983657"><ele>995.0</ele><time>2026-05-02T12:15:47.273Z</time></trkpt><trkpt lat="42.0887482" lon="13.6983997"><ele>995.0</ele><time>2026-05-02T12:15:48.275Z</time></trkpt><trkpt lat="42.0886239" lon="13.6984873"><ele>995.0</ele><time>2026-05-02T12:15:50.278Z</time></trkpt><trkpt lat="42.088544" lon="13.6985337"><ele>994.8333333333334</ele><time>2026-05-02T12:15:51.287Z</time></trkpt><trkpt lat="42.0884559" lon="13.6985855"><ele>994.6666666666667</ele><time>2026-05-02T12:15:52.29Z</time></trkpt><trkpt lat="42.0883814" lon="13.698638"><ele>994.5</ele><time>2026-05-02T12:15:53.286Z</time></trkpt><trkpt lat="42.0883039" lon="13.6986858"><ele>994.3333333333333</ele><time>2026-05-02T12:15:54.29Z</time></trkpt><trkpt lat="42.0882301" lon="13.698727"><ele>994.1666666666666</ele><time>2026-05-02T12:15:55.286Z</time></trkpt><trkpt lat="42.0881517" lon="13.6987748"><ele>994.0</ele><time>2026-05-02T12:15:56.285Z</time></trkpt><trkpt lat="42.0880877" lon="13.6988609"><ele>993.4000000000001</ele><time>2026-05-02T12:15:57.287Z</time></trkpt><trkpt lat="42.0880257" lon="13.6989562"><ele>992.8000000000001</ele><time>2026-05-02T12:15:58.282Z</time></trkpt><trkpt lat="42.087958" lon="13.6990638"><ele>992.1999999999999</ele><time>2026-05-02T12:15:59.279Z</time></trkpt><trkpt lat="42.0879032" lon="13.6991776"><ele>991.5999999999999</ele><time>2026-05-02T12:16:00.28Z</time></trkpt><trkpt lat="42.0878574" lon="13.6992846"><ele>991.0</ele><time>2026-05-02T12:16:01.276Z</time></trkpt><trkpt lat="42.0878328" lon="13.6993983"><ele>989.3333333333333</ele><time>2026-05-02T12:16:02.27Z</time></trkpt><trkpt lat="42.0878384" lon="13.6995207"><ele>987.6666666666666</ele><time>2026-05-02T12:16:03.274Z</time></trkpt><trkpt lat="42.0878601" lon="13.6996419"><ele>986.0</ele><time>2026-05-02T12:16:04.276Z</time></trkpt><trkpt lat="42.0878748" lon="13.6997464"><ele>984.3333333333333</ele><time>2026-05-02T12:16:05.275Z</time></trkpt><trkpt lat="42.0878675" lon="13.699866"><ele>982.6666666666666</ele><time>2026-05-02T12:16:06.277Z</time></trkpt><trkpt lat="42.0878468" lon="13.6999816"><ele>981.0</ele><time>2026-05-02T12:16:07.274Z</time></trkpt><trkpt lat="42.0878152" lon="13.7000821"><ele>981.0</ele><time>2026-05-02T12:16:08.273Z</time></trkpt><trkpt lat="42.0877518" lon="13.7001465"><ele>980.9999999999999</ele><time>2026-05-02T12:16:09.275Z</time></trkpt><trkpt lat="42.087674" lon="13.7001889"><ele>980.9999999999999</ele><time>2026-05-02T12:16:10.275Z</time></trkpt><trkpt lat="42.0875879" lon="13.7002154"><ele>981.0</ele><time>2026-05-02T12:16:11.269Z</time></trkpt><trkpt lat="42.0874854" lon="13.7002322"><ele>981.0</ele><time>2026-05-02T12:16:12.276Z</time></trkpt><trkpt lat="42.0873873" lon="13.7002491"><ele>980.4</ele><time>2026-05-02T12:16:13.276Z</time></trkpt><trkpt lat="42.0873026" lon="13.7002812"><ele>979.8</ele><time>2026-05-02T12:16:14.279Z</time></trkpt><trkpt lat="42.0872231" lon="13.700329"><ele>979.1999999999999</ele><time>2026-05-02T12:16:15.277Z</time></trkpt><trkpt lat="42.0871421" lon="13.7004026"><ele>978.5999999999999</ele><time>2026-05-02T12:16:16.282Z</time></trkpt><trkpt lat="42.0870551" lon="13.70048"><ele>978.0</ele><time>2026-05-02T12:16:17.279Z</time></trkpt><trkpt lat="42.086979" lon="13.7005475"><ele>978.0</ele><time>2026-05-02T12:16:18.282Z</time></trkpt><trkpt lat="42.0869077" lon="13.7006063"><ele>978.0</ele><time>2026-05-02T12:16:19.281Z</time></trkpt><trkpt lat="42.0868362" lon="13.7006556"><ele>978.0</ele><time>2026-05-02T12:16:20.279Z</time></trkpt><trkpt lat="42.0867675" lon="13.7007017"><ele>978.0</ele><time>2026-05-02T12:16:21.282Z</time></trkpt><trkpt lat="42.086704" lon="13.7007586"><ele>978.0</ele><time>2026-05-02T12:16:22.284Z</time></trkpt><trkpt lat="42.0866456" lon="13.7008247"><ele>978.0</ele><time>2026-05-02T12:16:23.279Z</time></trkpt><trkpt lat="42.0865774" lon="13.7009101"><ele>977.3333333333334</ele><time>2026-05-02T12:16:24.281Z</time></trkpt><trkpt lat="42.0865115" lon="13.7009917"><ele>976.6666666666667</ele><time>2026-05-02T12:16:25.287Z</time></trkpt><trkpt lat="42.0864525" lon="13.7010722"><ele>976.0</ele><time>2026-05-02T12:16:26.287Z</time></trkpt><trkpt lat="42.0864009" lon="13.7011604"><ele>975.3333333333334</ele><time>2026-05-02T12:16:27.286Z</time></trkpt><trkpt lat="42.0863642" lon="13.7012528"><ele>974.6666666666667</ele><time>2026-05-02T12:16:28.292Z</time></trkpt><trkpt lat="42.0863365" lon="13.7013578"><ele>974.0</ele><time>2026-05-02T12:16:29.278Z</time></trkpt><trkpt lat="42.0863077" lon="13.7014836"><ele>974.0</ele><time>2026-05-02T12:16:30.284Z</time></trkpt><trkpt lat="42.0862635" lon="13.7016136"><ele>974.0000000000001</ele><time>2026-05-02T12:16:31.276Z</time></trkpt><trkpt lat="42.0862028" lon="13.7017432"><ele>974.0000000000001</ele><time>2026-05-02T12:16:32.28Z</time></trkpt><trkpt lat="42.0861334" lon="13.7018671"><ele>974.0</ele><time>2026-05-02T12:16:33.28Z</time></trkpt><trkpt lat="42.0860733" lon="13.7019888"><ele>974.0</ele><time>2026-05-02T12:16:34.279Z</time></trkpt><trkpt lat="42.0860125" lon="13.7021302"><ele>973.25</ele><time>2026-05-02T12:16:35.276Z</time></trkpt><trkpt lat="42.0859454" lon="13.7022888"><ele>972.5</ele><time>2026-05-02T12:16:36.28Z</time></trkpt><trkpt lat="42.0858727" lon="13.702447"><ele>971.75</ele><time>2026-05-02T12:16:37.279Z</time></trkpt><trkpt lat="42.085809" lon="13.7026046"><ele>971.0</ele><time>2026-05-02T12:16:38.275Z</time></trkpt><trkpt lat="42.0857584" lon="13.7027495"><ele>969.5</ele><time>2026-05-02T12:16:39.277Z</time></trkpt><trkpt lat="42.0857" lon="13.7028744"><ele>968.0</ele><time>2026-05-02T12:16:40.276Z</time></trkpt><trkpt lat="42.0856347" lon="13.7029985"><ele>966.5</ele><time>2026-05-02T12:16:41.271Z</time></trkpt><trkpt lat="42.0855407" lon="13.7031354"><ele>965.0</ele><time>2026-05-02T12:16:42.274Z</time></trkpt><trkpt lat="42.0854365" lon="13.7032867"><ele>965.0</ele><time>2026-05-02T12:16:43.284Z</time></trkpt><trkpt lat="42.0853224" lon="13.7034196"><ele>965.0</ele><time>2026-05-02T12:16:44.278Z</time></trkpt><trkpt lat="42.0852232" lon="13.7035255"><ele>965.0</ele><time>2026-05-02T12:16:45.274Z</time></trkpt><trkpt lat="42.0851165" lon="13.7036161"><ele>965.0</ele><time>2026-05-02T12:16:46.281Z</time></trkpt><trkpt lat="42.0850057" lon="13.7037138"><ele>965.25</ele><time>2026-05-02T12:16:47.278Z</time></trkpt><trkpt lat="42.0848748" lon="13.7038108"><ele>965.5</ele><time>2026-05-02T12:16:48.278Z</time></trkpt><trkpt lat="42.0847594" lon="13.7039219"><ele>965.75</ele><time>2026-05-02T12:16:49.284Z</time></trkpt><trkpt lat="42.0846556" lon="13.704029"><ele>966.0</ele><time>2026-05-02T12:16:50.287Z</time></trkpt><trkpt lat="42.0845441" lon="13.7041252"><ele>966.0</ele><time>2026-05-02T12:16:51.278Z</time></trkpt><trkpt lat="42.0844469" lon="13.7042343"><ele>966.0</ele><time>2026-05-02T12:16:52.289Z</time></trkpt><trkpt lat="42.0843481" lon="13.7043411"><ele>966.0</ele><time>2026-05-02T12:16:53.281Z</time></trkpt><trkpt lat="42.0842651" lon="13.7044401"><ele>966.0</ele><time>2026-05-02T12:16:54.281Z</time></trkpt><trkpt lat="42.0841741" lon="13.7045329"><ele>966.5</ele><time>2026-05-02T12:16:55.287Z</time></trkpt><trkpt lat="42.0840835" lon="13.7046363"><ele>967.0</ele><time>2026-05-02T12:16:56.283Z</time></trkpt><trkpt lat="42.0839762" lon="13.7047695"><ele>967.5</ele><time>2026-05-02T12:16:57.286Z</time></trkpt><trkpt lat="42.0838816" lon="13.7049022"><ele>968.0</ele><time>2026-05-02T12:16:58.282Z</time></trkpt><trkpt lat="42.0837811" lon="13.7050145"><ele>968.0</ele><time>2026-05-02T12:16:59.277Z</time></trkpt><trkpt lat="42.0836703" lon="13.7050912"><ele>968.0</ele><time>2026-05-02T12:17:00.285Z</time></trkpt><trkpt lat="42.083573" lon="13.7051812"><ele>968.0</ele><time>2026-05-02T12:17:01.282Z</time></trkpt><trkpt lat="42.0834882" lon="13.7052645"><ele>968.0</ele><time>2026-05-02T12:17:02.282Z</time></trkpt><trkpt lat="42.0834005" lon="13.7053433"><ele>967.2</ele><time>2026-05-02T12:17:03.287Z</time></trkpt><trkpt lat="42.0833132" lon="13.7054247"><ele>966.4</ele><time>2026-05-02T12:17:04.289Z</time></trkpt><trkpt lat="42.0832527" lon="13.705498"><ele>965.6000000000001</ele><time>2026-05-02T12:17:05.291Z</time></trkpt><trkpt lat="42.0831813" lon="13.7056003"><ele>964.8000000000001</ele><time>2026-05-02T12:17:06.285Z</time></trkpt><trkpt lat="42.0831186" lon="13.7057287"><ele>964.0</ele><time>2026-05-02T12:17:07.284Z</time></trkpt><trkpt lat="42.0830482" lon="13.7058615"><ele>964.8333333333333</ele><time>2026-05-02T12:17:08.283Z</time></trkpt><trkpt lat="42.0829815" lon="13.7059855"><ele>965.6666666666666</ele><time>2026-05-02T12:17:09.286Z</time></trkpt><trkpt lat="42.0829236" lon="13.706103"><ele>966.5</ele><time>2026-05-02T12:17:10.284Z</time></trkpt><trkpt lat="42.0828719" lon="13.7061944"><ele>967.3333333333333</ele><time>2026-05-02T12:17:11.274Z</time></trkpt><trkpt lat="42.0828349" lon="13.7062641"><ele>968.1666666666666</ele><time>2026-05-02T12:17:12.276Z</time></trkpt><trkpt lat="42.0827983" lon="13.706338"><ele>969.0</ele><time>2026-05-02T12:17:13.282Z</time></trkpt><trkpt lat="42.0827496" lon="13.706409"><ele>969.0</ele><time>2026-05-02T12:17:14.271Z</time></trkpt><trkpt lat="42.0826766" lon="13.7064981"><ele>969.0</ele><time>2026-05-02T12:17:15.281Z</time></trkpt><trkpt lat="42.0825945" lon="13.7066068"><ele>969.0</ele><time>2026-05-02T12:17:16.283Z</time></trkpt><trkpt lat="42.0825084" lon="13.706737"><ele>969.0</ele><time>2026-05-02T12:17:17.277Z</time></trkpt><trkpt lat="42.0824279" lon="13.7068836"><ele>973.25</ele><time>2026-05-02T12:17:18.282Z</time></trkpt><trkpt lat="42.0823572" lon="13.7070252"><ele>977.5</ele><time>2026-05-02T12:17:19.28Z</time></trkpt><trkpt lat="42.0822863" lon="13.7071577"><ele>981.75</ele><time>2026-05-02T12:17:20.277Z</time></trkpt><trkpt lat="42.0821972" lon="13.7072864"><ele>986.0</ele><time>2026-05-02T12:17:21.284Z</time></trkpt><trkpt lat="42.0820982" lon="13.7074215"><ele>986.0</ele><time>2026-05-02T12:17:22.283Z</time></trkpt><trkpt lat="42.0819983" lon="13.707564"><ele>986.0</ele><time>2026-05-02T12:17:23.285Z</time></trkpt><trkpt lat="42.0818887" lon="13.7077162"><ele>986.0</ele><time>2026-05-02T12:17:24.284Z</time></trkpt><trkpt lat="42.0817837" lon="13.7078709"><ele>987.3333333333334</ele><time>2026-05-02T12:17:25.282Z</time></trkpt><trkpt lat="42.0816742" lon="13.7080151"><ele>988.6666666666667</ele><time>2026-05-02T12:17:26.281Z</time></trkpt><trkpt lat="42.0815599" lon="13.7081588"><ele>990.0</ele><time>2026-05-02T12:17:27.275Z</time></trkpt><trkpt lat="42.0814379" lon="13.7082925"><ele>990.0</ele><time>2026-05-02T12:17:28.288Z</time></trkpt><trkpt lat="42.0813307" lon="13.7083922"><ele>990.0</ele><time>2026-05-02T12:17:29.287Z</time></trkpt><trkpt lat="42.0811845" lon="13.7084757"><ele>990.0</ele><time>2026-05-02T12:17:30.271Z</time></trkpt><trkpt lat="42.0810458" lon="13.7085669"><ele>990.0</ele><time>2026-05-02T12:17:31.27Z</time></trkpt><trkpt lat="42.0808915" lon="13.7086682"><ele>985.6666666666667</ele><time>2026-05-02T12:17:32.273Z</time></trkpt><trkpt lat="42.0807328" lon="13.7087611"><ele>981.3333333333334</ele><time>2026-05-02T12:17:33.272Z</time></trkpt><trkpt lat="42.0805791" lon="13.7088554"><ele>977.0</ele><time>2026-05-02T12:17:34.269Z</time></trkpt><trkpt lat="42.0804271" lon="13.7089491"><ele>977.0</ele><time>2026-05-02T12:17:35.269Z</time></trkpt><trkpt lat="42.0802614" lon="13.7090352"><ele>977.0</ele><time>2026-05-02T12:17:36.27Z</time></trkpt><trkpt lat="42.0800818" lon="13.7091215"><ele>977.0</ele><time>2026-05-02T12:17:37.271Z</time></trkpt><trkpt lat="42.0799239" lon="13.7092212"><ele>978.75</ele><time>2026-05-02T12:17:38.271Z</time></trkpt><trkpt lat="42.0797708" lon="13.7092965"><ele>980.5</ele><time>2026-05-02T12:17:39.273Z</time></trkpt><trkpt lat="42.0796425" lon="13.7093968"><ele>982.25</ele><time>2026-05-02T12:17:40.277Z</time></trkpt><trkpt lat="42.0795171" lon="13.7094645"><ele>984.0</ele><time>2026-05-02T12:17:41.277Z</time></trkpt><trkpt lat="42.0794028" lon="13.7095052"><ele>978.5</ele><time>2026-05-02T12:17:42.274Z</time></trkpt><trkpt lat="42.0792726" lon="13.7095065"><ele>973.0</ele><time>2026-05-02T12:17:43.285Z</time></trkpt><trkpt lat="42.0791475" lon="13.7094628"><ele>967.5</ele><time>2026-05-02T12:17:44.274Z</time></trkpt><trkpt lat="42.0790367" lon="13.709409"><ele>962.0</ele><time>2026-05-02T12:17:45.287Z</time></trkpt><trkpt lat="42.0789753" lon="13.7092527"><ele>961.0</ele><time>2026-05-02T12:17:46.284Z</time></trkpt><trkpt lat="42.0789011" lon="13.709104"><ele>960.0</ele><time>2026-05-02T12:17:47.283Z</time></trkpt><trkpt lat="42.0788302" lon="13.7089305"><ele>959.0</ele><time>2026-05-02T12:17:48.286Z</time></trkpt><trkpt lat="42.0787622" lon="13.7087507"><ele>958.0</ele><time>2026-05-02T12:17:49.289Z</time></trkpt><trkpt lat="42.0787042" lon="13.7085536"><ele>963.6666666666666</ele><time>2026-05-02T12:17:50.289Z</time></trkpt><trkpt lat="42.0786716" lon="13.7083589"><ele>969.3333333333333</ele><time>2026-05-02T12:17:51.283Z</time></trkpt><trkpt lat="42.0786266" lon="13.7081438"><ele>975.0</ele><time>2026-05-02T12:17:52.29Z</time></trkpt><trkpt lat="42.0785917" lon="13.7079108"><ele>979.6666666666667</ele><time>2026-05-02T12:17:53.287Z</time></trkpt><trkpt lat="42.0785568" lon="13.7076788"><ele>984.3333333333334</ele><time>2026-05-02T12:17:54.291Z</time></trkpt><trkpt lat="42.0785126" lon="13.7074538"><ele>989.0</ele><time>2026-05-02T12:17:55.282Z</time></trkpt><trkpt lat="42.0784766" lon="13.7072635"><ele>989.0</ele><time>2026-05-02T12:17:56.28Z</time></trkpt><trkpt lat="42.0784467" lon="13.7070919"><ele>989.0000000000001</ele><time>2026-05-02T12:17:57.283Z</time></trkpt><trkpt lat="42.0784063" lon="13.7069484"><ele>989.0000000000001</ele><time>2026-05-02T12:17:58.275Z</time></trkpt><trkpt lat="42.0783544" lon="13.7068384"><ele>989.0</ele><time>2026-05-02T12:17:59.282Z</time></trkpt><trkpt lat="42.0782679" lon="13.7067663"><ele>989.0</ele><time>2026-05-02T12:18:00.284Z</time></trkpt><trkpt lat="42.0781766" lon="13.7067587"><ele>992.0</ele><time>2026-05-02T12:18:01.285Z</time></trkpt><trkpt lat="42.078086" lon="13.70681"><ele>995.0</ele><time>2026-05-02T12:18:02.281Z</time></trkpt><trkpt lat="42.0780021" lon="13.706893"><ele>998.0</ele><time>2026-05-02T12:18:03.278Z</time></trkpt><trkpt lat="42.0779384" lon="13.7070351"><ele>1001.0</ele><time>2026-05-02T12:18:04.28Z</time></trkpt><trkpt lat="42.0778702" lon="13.7071773"><ele>1001.0</ele><time>2026-05-02T12:18:05.271Z</time></trkpt><trkpt lat="42.0777841" lon="13.7073135"><ele>1001.0</ele><time>2026-05-02T12:18:06.271Z</time></trkpt><trkpt lat="42.0776831" lon="13.7074556"><ele>1001.0</ele><time>2026-05-02T12:18:07.278Z</time></trkpt><trkpt lat="42.0775775" lon="13.7076115"><ele>1001.0</ele><time>2026-05-02T12:18:08.27Z</time></trkpt><trkpt lat="42.0774789" lon="13.7077752"><ele>995.75</ele><time>2026-05-02T12:18:09.265Z</time></trkpt><trkpt lat="42.0773792" lon="13.7079013"><ele>990.5</ele><time>2026-05-02T12:18:10.278Z</time></trkpt><trkpt lat="42.0772825" lon="13.7079958"><ele>985.25</ele><time>2026-05-02T12:18:11.281Z</time></trkpt><trkpt lat="42.0771812" lon="13.7080159"><ele>980.0</ele><time>2026-05-02T12:18:12.284Z</time></trkpt><trkpt lat="42.0770782" lon="13.707987"><ele>980.0</ele><time>2026-05-02T12:18:13.276Z</time></trkpt><trkpt lat="42.0769391" lon="13.707934"><ele>980.0</ele><time>2026-05-02T12:18:14.274Z</time></trkpt><trkpt lat="42.0768033" lon="13.707887"><ele>980.0</ele><time>2026-05-02T12:18:15.285Z</time></trkpt><trkpt lat="42.0766494" lon="13.7078324"><ele>980.0</ele><time>2026-05-02T12:18:16.286Z</time></trkpt><trkpt lat="42.076483" lon="13.7077812"><ele>989.6666666666667</ele><time>2026-05-02T12:18:17.286Z</time></trkpt><trkpt lat="42.0763082" lon="13.7077264"><ele>999.3333333333333</ele><time>2026-05-02T12:18:18.279Z</time></trkpt><trkpt lat="42.0761425" lon="13.7076839"><ele>1009.0</ele><time>2026-05-02T12:18:19.301Z</time></trkpt><trkpt lat="42.075966" lon="13.7076322"><ele>1009.0</ele><time>2026-05-02T12:18:20.369Z</time></trkpt><trkpt lat="42.0758024" lon="13.7075813"><ele>1009.0</ele><time>2026-05-02T12:18:21.375Z</time></trkpt><trkpt lat="42.0756436" lon="13.7075185"><ele>1009.0</ele><time>2026-05-02T12:18:22.371Z</time></trkpt><trkpt lat="42.0754975" lon="13.7074341"><ele>1004.6666666666666</ele><time>2026-05-02T12:18:23.368Z</time></trkpt><trkpt lat="42.0753394" lon="13.7073184"><ele>1000.3333333333333</ele><time>2026-05-02T12:18:24.362Z</time></trkpt><trkpt lat="42.0751874" lon="13.7071903"><ele>996.0</ele><time>2026-05-02T12:18:25.347Z</time></trkpt><trkpt lat="42.075035" lon="13.7070598"><ele>998.3333333333333</ele><time>2026-05-02T12:18:26.355Z</time></trkpt><trkpt lat="42.0748824" lon="13.7069218"><ele>1000.6666666666666</ele><time>2026-05-02T12:18:27.353Z</time></trkpt><trkpt lat="42.0747357" lon="13.7067728"><ele>1003.0</ele><time>2026-05-02T12:18:28.359Z</time></trkpt><trkpt lat="42.0745944" lon="13.706607"><ele>1003.0</ele><time>2026-05-02T12:18:29.369Z</time></trkpt><trkpt lat="42.0744606" lon="13.7064338"><ele>1003.0</ele><time>2026-05-02T12:18:30.379Z</time></trkpt><trkpt lat="42.0743302" lon="13.7062412"><ele>1003.0</ele><time>2026-05-02T12:18:31.358Z</time></trkpt><trkpt lat="42.0742009" lon="13.7060601"><ele>1006.6666666666666</ele><time>2026-05-02T12:18:32.363Z</time></trkpt><trkpt lat="42.0740805" lon="13.7058925"><ele>1010.3333333333333</ele><time>2026-05-02T12:18:33.357Z</time></trkpt><trkpt lat="42.0739631" lon="13.7057205"><ele>1014.0</ele><time>2026-05-02T12:18:34.358Z</time></trkpt><trkpt lat="42.0738495" lon="13.7055582"><ele>1014.0</ele><time>2026-05-02T12:18:35.373Z</time></trkpt><trkpt lat="42.0737457" lon="13.7054146"><ele>1014.0</ele><time>2026-05-02T12:18:36.364Z</time></trkpt><trkpt lat="42.0736464" lon="13.7052902"><ele>1014.0</ele><time>2026-05-02T12:18:37.363Z</time></trkpt><trkpt lat="42.0735431" lon="13.7052114"><ele>1014.0</ele><time>2026-05-02T12:18:38.362Z</time></trkpt><trkpt lat="42.0734341" lon="13.7051746"><ele>1014.0</ele><time>2026-05-02T12:18:39.355Z</time></trkpt><trkpt lat="42.0733246" lon="13.7051833"><ele>1014.0</ele><time>2026-05-02T12:18:40.348Z</time></trkpt><trkpt lat="42.0731869" lon="13.7052206"><ele>1014.0</ele><time>2026-05-02T12:18:41.256Z</time></trkpt><trkpt lat="42.0730438" lon="13.705239"><ele>1014.0</ele><time>2026-05-02T12:18:42.261Z</time></trkpt><trkpt lat="42.0728896" lon="13.7052745"><ele>1014.0</ele><time>2026-05-02T12:18:43.265Z</time></trkpt><trkpt lat="42.0727334" lon="13.7052745"><ele>1014.0</ele><time>2026-05-02T12:18:44.275Z</time></trkpt><trkpt lat="42.0725517" lon="13.7052719"><ele>1014.0</ele><time>2026-05-02T12:18:45.279Z</time></trkpt><trkpt lat="42.0723685" lon="13.7052876"><ele>1017.6666666666667</ele><time>2026-05-02T12:18:46.281Z</time></trkpt><trkpt lat="42.0721829" lon="13.7052945"><ele>1021.3333333333334</ele><time>2026-05-02T12:18:47.278Z</time></trkpt><trkpt lat="42.0719958" lon="13.705318"><ele>1025.0</ele><time>2026-05-02T12:18:48.276Z</time></trkpt><trkpt lat="42.0718194" lon="13.705353"><ele>1025.0</ele><time>2026-05-02T12:18:49.269Z</time></trkpt><trkpt lat="42.0716771" lon="13.7054247"><ele>1025.0</ele><time>2026-05-02T12:18:50.274Z</time></trkpt><trkpt lat="42.0715564" lon="13.7055427"><ele>1025.0</ele><time>2026-05-02T12:18:51.276Z</time></trkpt><trkpt lat="42.0714455" lon="13.7056804"><ele>1024.5</ele><time>2026-05-02T12:18:52.276Z</time></trkpt><trkpt lat="42.0713357" lon="13.705843"><ele>1024.0</ele><time>2026-05-02T12:18:53.277Z</time></trkpt><trkpt lat="42.0712521" lon="13.7060109"><ele>1023.5</ele><time>2026-05-02T12:18:54.28Z</time></trkpt><trkpt lat="42.0711499" lon="13.7061294"><ele>1023.0</ele><time>2026-05-02T12:18:55.276Z</time></trkpt><trkpt lat="42.0710291" lon="13.7062286"><ele>1023.0</ele><time>2026-05-02T12:18:56.277Z</time></trkpt><trkpt lat="42.0708894" lon="13.7062888"><ele>1023.0</ele><time>2026-05-02T12:18:57.284Z</time></trkpt><trkpt lat="42.0707313" lon="13.706316"><ele>1023.0</ele><time>2026-05-02T12:18:58.277Z</time></trkpt><trkpt lat="42.0705903" lon="13.7063115"><ele>1023.0</ele><time>2026-05-02T12:18:59.281Z</time></trkpt><trkpt lat="42.0704524" lon="13.7063291"><ele>1024.0</ele><time>2026-05-02T12:19:00.283Z</time></trkpt><trkpt lat="42.070344" lon="13.7063285"><ele>1025.0</ele><time>2026-05-02T12:19:01.277Z</time></trkpt><trkpt lat="42.0702421" lon="13.706296"><ele>1026.0</ele><time>2026-05-02T12:19:02.274Z</time></trkpt><trkpt lat="42.0701676" lon="13.7062324"><ele>1027.0</ele><time>2026-05-02T12:19:03.28Z</time></trkpt><trkpt lat="42.0701177" lon="13.7061118"><ele>1028.0</ele><time>2026-05-02T12:19:04.276Z</time></trkpt><trkpt lat="42.0701297" lon="13.7059825"><ele>1031.8</ele><time>2026-05-02T12:19:05.274Z</time></trkpt><trkpt lat="42.0701997" lon="13.7059018"><ele>1035.6</ele><time>2026-05-02T12:19:06.276Z</time></trkpt><trkpt lat="42.0702883" lon="13.7058432"><ele>1039.4</ele><time>2026-05-02T12:19:07.263Z</time></trkpt><trkpt lat="42.0703869" lon="13.7058114"><ele>1043.2</ele><time>2026-05-02T12:19:08.277Z</time></trkpt><trkpt lat="42.0705123" lon="13.7058356"><ele>1047.0</ele><time>2026-05-02T12:19:09.265Z</time></trkpt><trkpt lat="42.0706495" lon="13.7058678"><ele>1045.5</ele><time>2026-05-02T12:19:10.276Z</time></trkpt><trkpt lat="42.0707955" lon="13.7058827"><ele>1044.0</ele><time>2026-05-02T12:19:11.268Z</time></trkpt><trkpt lat="42.0709371" lon="13.7058586"><ele>1042.5</ele><time>2026-05-02T12:19:12.27Z</time></trkpt><trkpt lat="42.0710506" lon="13.7057796"><ele>1041.0</ele><time>2026-05-02T12:19:13.271Z</time></trkpt><trkpt lat="42.0711458" lon="13.7056617"><ele>1041.0</ele><time>2026-05-02T12:19:14.269Z</time></trkpt><trkpt lat="42.0712367" lon="13.7055335"><ele>1041.0</ele><time>2026-05-02T12:19:15.27Z</time></trkpt><trkpt lat="42.071319" lon="13.705373"><ele>1041.0</ele><time>2026-05-02T12:19:16.277Z</time></trkpt><trkpt lat="42.0714406" lon="13.7052154"><ele>1041.0</ele><time>2026-05-02T12:19:17.269Z</time></trkpt><trkpt lat="42.0715663" lon="13.7050692"><ele>1042.6666666666667</ele><time>2026-05-02T12:19:18.273Z</time></trkpt><trkpt lat="42.0717151" lon="13.7049295"><ele>1044.3333333333335</ele><time>2026-05-02T12:19:19.274Z</time></trkpt><trkpt lat="42.0718584" lon="13.7047951"><ele>1046.0</ele><time>2026-05-02T12:19:20.278Z</time></trkpt><trkpt lat="42.0720042" lon="13.7046631"><ele>1046.0</ele><time>2026-05-02T12:19:21.285Z</time></trkpt><trkpt lat="42.072148" lon="13.7045305"><ele>1046.0</ele><time>2026-05-02T12:19:22.285Z</time></trkpt><trkpt lat="42.0722863" lon="13.7043828"><ele>1046.0</ele><time>2026-05-02T12:19:23.274Z</time></trkpt><trkpt lat="42.0724115" lon="13.7042223"><ele>1047.5</ele><time>2026-05-02T12:19:24.271Z</time></trkpt><trkpt lat="42.0725007" lon="13.7040536"><ele>1049.0</ele><time>2026-05-02T12:19:25.277Z</time></trkpt><trkpt lat="42.0725739" lon="13.7038905"><ele>1050.5</ele><time>2026-05-02T12:19:26.274Z</time></trkpt><trkpt lat="42.0726511" lon="13.7037688"><ele>1052.0</ele><time>2026-05-02T12:19:27.274Z</time></trkpt><trkpt lat="42.0726983" lon="13.7036406"><ele>1054.3333333333335</ele><time>2026-05-02T12:19:28.271Z</time></trkpt><trkpt lat="42.0727232" lon="13.7035147"><ele>1056.6666666666667</ele><time>2026-05-02T12:19:29.265Z</time></trkpt><trkpt lat="42.0727142" lon="13.7034127"><ele>1059.0</ele><time>2026-05-02T12:19:30.28Z</time></trkpt><trkpt lat="42.0726259" lon="13.703354"><ele>1061.3333333333333</ele><time>2026-05-02T12:19:31.277Z</time></trkpt><trkpt lat="42.0725503" lon="13.7033251"><ele>1063.6666666666665</ele><time>2026-05-02T12:19:32.27Z</time></trkpt><trkpt lat="42.0724683" lon="13.7033502"><ele>1066.0</ele><time>2026-05-02T12:19:33.268Z</time></trkpt><trkpt lat="42.0723879" lon="13.7034209"><ele>1065.5</ele><time>2026-05-02T12:19:34.266Z</time></trkpt><trkpt lat="42.0723046" lon="13.7035387"><ele>1065.0</ele><time>2026-05-02T12:19:35.258Z</time></trkpt><trkpt lat="42.0722224" lon="13.7036814"><ele>1064.5</ele><time>2026-05-02T12:19:36.261Z</time></trkpt><trkpt lat="42.0721028" lon="13.7038161"><ele>1064.0</ele><time>2026-05-02T12:19:37.261Z</time></trkpt><trkpt lat="42.0719834" lon="13.7039548"><ele>1064.0</ele><time>2026-05-02T12:19:38.263Z</time></trkpt><trkpt lat="42.0718633" lon="13.7040827"><ele>1064.0</ele><time>2026-05-02T12:19:39.269Z</time></trkpt><trkpt lat="42.0717503" lon="13.7041996"><ele>1064.0</ele><time>2026-05-02T12:19:40.269Z</time></trkpt><trkpt lat="42.0716392" lon="13.7043041"><ele>1064.0</ele><time>2026-05-02T12:19:41.263Z</time></trkpt><trkpt lat="42.0715283" lon="13.7043801"><ele>1067.3333333333335</ele><time>2026-05-02T12:19:42.255Z</time></trkpt><trkpt lat="42.0713817" lon="13.7044008"><ele>1070.6666666666667</ele><time>2026-05-02T12:19:43.264Z</time></trkpt><trkpt lat="42.0712145" lon="13.7043985"><ele>1074.0</ele><time>2026-05-02T12:19:44.257Z</time></trkpt><trkpt lat="42.0710556" lon="13.7043838"><ele>1074.0</ele><time>2026-05-02T12:19:45.254Z</time></trkpt><trkpt lat="42.0708722" lon="13.704353"><ele>1074.0</ele><time>2026-05-02T12:19:46.26Z</time></trkpt><trkpt lat="42.0706801" lon="13.7043354"><ele>1074.0</ele><time>2026-05-02T12:19:47.261Z</time></trkpt><trkpt lat="42.0704972" lon="13.7043361"><ele>1072.3333333333333</ele><time>2026-05-02T12:19:48.262Z</time></trkpt><trkpt lat="42.0703364" lon="13.7043741"><ele>1070.6666666666665</ele><time>2026-05-02T12:19:49.257Z</time></trkpt><trkpt lat="42.070183" lon="13.7044315"><ele>1069.0</ele><time>2026-05-02T12:19:50.265Z</time></trkpt><trkpt lat="42.070041" lon="13.7045583"><ele>1080.3333333333333</ele><time>2026-05-02T12:19:51.261Z</time></trkpt><trkpt lat="42.0698995" lon="13.7047156"><ele>1091.6666666666667</ele><time>2026-05-02T12:19:52.26Z</time></trkpt><trkpt lat="42.0697826" lon="13.7048761"><ele>1103.0</ele><time>2026-05-02T12:19:53.261Z</time></trkpt><trkpt lat="42.0696593" lon="13.7050536"><ele>1103.0</ele><time>2026-05-02T12:19:54.258Z</time></trkpt><trkpt lat="42.0695224" lon="13.7052114"><ele>1103.0</ele><time>2026-05-02T12:19:55.251Z</time></trkpt><trkpt lat="42.069377" lon="13.7053538"><ele>1103.0</ele><time>2026-05-02T12:19:56.247Z</time></trkpt><trkpt lat="42.069214" lon="13.7054853"><ele>1098.3333333333335</ele><time>2026-05-02T12:19:57.258Z</time></trkpt><trkpt lat="42.0690374" lon="13.7055943"><ele>1093.6666666666667</ele><time>2026-05-02T12:19:58.261Z</time></trkpt><trkpt lat="42.0688652" lon="13.7056969"><ele>1089.0</ele><time>2026-05-02T12:19:59.26Z</time></trkpt><trkpt lat="42.0686851" lon="13.7057788"><ele>1089.0</ele><time>2026-05-02T12:20:00.263Z</time></trkpt><trkpt lat="42.0685194" lon="13.7058605"><ele>1089.0</ele><time>2026-05-02T12:20:01.261Z</time></trkpt><trkpt lat="42.0683281" lon="13.7059107"><ele>1089.0</ele><time>2026-05-02T12:20:02.264Z</time></trkpt><trkpt lat="42.0681382" lon="13.7059391"><ele>1093.6666666666667</ele><time>2026-05-02T12:20:03.285Z</time></trkpt><trkpt lat="42.0679434" lon="13.7059647"><ele>1098.3333333333335</ele><time>2026-05-02T12:20:04.278Z</time></trkpt><trkpt lat="42.0677607" lon="13.705999"><ele>1103.0</ele><time>2026-05-02T12:20:05.27Z</time></trkpt><trkpt lat="42.0675704" lon="13.7060349"><ele>1105.0</ele><time>2026-05-02T12:20:06.268Z</time></trkpt><trkpt lat="42.0673745" lon="13.7060465"><ele>1107.0</ele><time>2026-05-02T12:20:07.267Z</time></trkpt><trkpt lat="42.0671826" lon="13.7060528"><ele>1109.0</ele><time>2026-05-02T12:20:08.277Z</time></trkpt><trkpt lat="42.066971" lon="13.7060394"><ele>1109.0</ele><time>2026-05-02T12:20:09.281Z</time></trkpt><trkpt lat="42.066779" lon="13.7060425"><ele>1109.0</ele><time>2026-05-02T12:20:10.276Z</time></trkpt><trkpt lat="42.066594" lon="13.7060495"><ele>1109.0</ele><time>2026-05-02T12:20:11.272Z</time></trkpt><trkpt lat="42.0663922" lon="13.7060654"><ele>1100.3333333333335</ele><time>2026-05-02T12:20:12.271Z</time></trkpt><trkpt lat="42.0662147" lon="13.7061098"><ele>1091.6666666666667</ele><time>2026-05-02T12:20:13.276Z</time></trkpt><trkpt lat="42.0660611" lon="13.7061622"><ele>1083.0</ele><time>2026-05-02T12:20:14.271Z</time></trkpt><trkpt lat="42.0658938" lon="13.7062191"><ele>1086.6666666666667</ele><time>2026-05-02T12:20:15.267Z</time></trkpt><trkpt lat="42.0657173" lon="13.7062457"><ele>1090.3333333333335</ele><time>2026-05-02T12:20:16.278Z</time></trkpt><trkpt lat="42.065541" lon="13.7062295"><ele>1094.0</ele><time>2026-05-02T12:20:17.27Z</time></trkpt><trkpt lat="42.0653482" lon="13.7061937"><ele>1094.0</ele><time>2026-05-02T12:20:18.275Z</time></trkpt><trkpt lat="42.0651666" lon="13.7061648"><ele>1094.0</ele><time>2026-05-02T12:20:19.271Z</time></trkpt><trkpt lat="42.0649642" lon="13.7061303"><ele>1094.0</ele><time>2026-05-02T12:20:20.271Z</time></trkpt><trkpt lat="42.0647765" lon="13.7061226"><ele>1101.3333333333335</ele><time>2026-05-02T12:20:21.278Z</time></trkpt><trkpt lat="42.0645934" lon="13.7061176"><ele>1108.6666666666667</ele><time>2026-05-02T12:20:22.276Z</time></trkpt><trkpt lat="42.0644365" lon="13.7061128"><ele>1116.0</ele><time>2026-05-02T12:20:23.283Z</time></trkpt><trkpt lat="42.0643129" lon="13.706114"><ele>1116.0</ele><time>2026-05-02T12:20:24.274Z</time></trkpt><trkpt lat="42.0641934" lon="13.7060877"><ele>1116.0</ele><time>2026-05-02T12:20:25.28Z</time></trkpt><trkpt lat="42.0640909" lon="13.7060228"><ele>1116.0</ele><time>2026-05-02T12:20:26.295Z</time></trkpt><trkpt lat="42.0640065" lon="13.7059642"><ele>1116.0</ele><time>2026-05-02T12:20:27.289Z</time></trkpt><trkpt lat="42.0639322" lon="13.7058744"><ele>1116.0</ele><time>2026-05-02T12:20:28.287Z</time></trkpt><trkpt lat="42.063866" lon="13.7057711"><ele>1115.3333333333333</ele><time>2026-05-02T12:20:29.281Z</time></trkpt><trkpt lat="42.0638158" lon="13.7056776"><ele>1114.6666666666667</ele><time>2026-05-02T12:20:30.281Z</time></trkpt><trkpt lat="42.0637575" lon="13.7055992"><ele>1114.0</ele><time>2026-05-02T12:20:31.276Z</time></trkpt><trkpt lat="42.0637113" lon="13.705529"><ele>1113.3333333333335</ele><time>2026-05-02T12:20:33.303Z</time></trkpt><trkpt lat="42.0636501" lon="13.7054611"><ele>1112.6666666666667</ele><time>2026-05-02T12:21:08.306Z</time></trkpt><trkpt lat="42.0635961" lon="13.7053559"><ele>1112.0</ele><time>2026-05-02T12:21:10.307Z</time></trkpt><trkpt lat="42.0635497" lon="13.7052701"><ele>1110.6</ele><time>2026-05-02T12:21:11.293Z</time></trkpt><trkpt lat="42.0634911" lon="13.7051696"><ele>1109.2</ele><time>2026-05-02T12:21:12.3Z</time></trkpt><trkpt lat="42.0634369" lon="13.705061"><ele>1107.8</ele><time>2026-05-02T12:21:13.299Z</time></trkpt><trkpt lat="42.063392" lon="13.704964"><ele>1106.4</ele><time>2026-05-02T12:21:14.296Z</time></trkpt><trkpt lat="42.0633328" lon="13.7048571"><ele>1105.0</ele><time>2026-05-02T12:21:15.371Z</time></trkpt><trkpt lat="42.0632783" lon="13.7047469"><ele>1100.8</ele><time>2026-05-02T12:21:16.372Z</time></trkpt><trkpt lat="42.0632397" lon="13.7046248"><ele>1096.6</ele><time>2026-05-02T12:21:17.363Z</time></trkpt><trkpt lat="42.0632137" lon="13.7045003"><ele>1092.4</ele><time>2026-05-02T12:21:18.369Z</time></trkpt><trkpt lat="42.0631966" lon="13.7044038"><ele>1088.2</ele><time>2026-05-02T12:21:19.351Z</time></trkpt><trkpt lat="42.063172" lon="13.704247"><ele>1084.0</ele><time>2026-05-02T12:21:21.356Z</time></trkpt><trkpt lat="42.063155" lon="13.7041521"><ele>1084.0</ele><time>2026-05-02T12:21:22.356Z</time></trkpt><trkpt lat="42.0631401" lon="13.7040165"><ele>1084.0</ele><time>2026-05-02T12:21:24.367Z</time></trkpt><trkpt lat="42.0631" lon="13.7039441"><ele>1084.0</ele><time>2026-05-02T12:21:26.354Z</time></trkpt><trkpt lat="42.063085" lon="13.7040458"><ele>1084.0</ele><time>2026-05-02T12:21:29.282Z</time></trkpt><trkpt lat="42.0631147" lon="13.7041843"><ele>1084.0</ele><time>2026-05-02T12:21:31.29Z</time></trkpt><trkpt lat="42.063133" lon="13.7043059"><ele>1084.0</ele><time>2026-05-02T12:21:32.282Z</time></trkpt><trkpt lat="42.063151" lon="13.7044293"><ele>1084.0</ele><time>2026-05-02T12:21:33.283Z</time></trkpt><trkpt lat="42.0631769" lon="13.7045696"><ele>1084.0</ele><time>2026-05-02T12:21:34.285Z</time></trkpt><trkpt lat="42.0632191" lon="13.7047072"><ele>1084.0</ele><time>2026-05-02T12:21:35.283Z</time></trkpt><trkpt lat="42.0632757" lon="13.7048517"><ele>1084.0</ele><time>2026-05-02T12:21:36.282Z</time></trkpt><trkpt lat="42.0633563" lon="13.7050036"><ele>1089.25</ele><time>2026-05-02T12:21:37.288Z</time></trkpt><trkpt lat="42.0634388" lon="13.7051579"><ele>1094.5</ele><time>2026-05-02T12:21:38.286Z</time></trkpt><trkpt lat="42.0635219" lon="13.7052945"><ele>1099.75</ele><time>2026-05-02T12:21:39.284Z</time></trkpt><trkpt lat="42.0635908" lon="13.7054184"><ele>1105.0</ele><time>2026-05-02T12:21:40.284Z</time></trkpt><trkpt lat="42.0636603" lon="13.7055113"><ele>1106.4</ele><time>2026-05-02T12:21:41.284Z</time></trkpt><trkpt lat="42.0637158" lon="13.705588"><ele>1107.8</ele><time>2026-05-02T12:21:42.289Z</time></trkpt><trkpt lat="42.063759" lon="13.7056593"><ele>1109.2</ele><time>2026-05-02T12:21:43.296Z</time></trkpt><trkpt lat="42.0637824" lon="13.7057773"><ele>1110.6</ele><time>2026-05-02T12:21:45.274Z</time></trkpt><trkpt lat="42.0636928" lon="13.7058128"><ele>1112.0</ele><time>2026-05-02T12:21:48.289Z</time></trkpt><trkpt lat="42.0635861" lon="13.7057089"><ele>1112.0</ele><time>2026-05-02T12:21:50.277Z</time></trkpt><trkpt lat="42.063524" lon="13.7056176"><ele>1112.0</ele><time>2026-05-02T12:21:51.285Z</time></trkpt><trkpt lat="42.0634585" lon="13.7055264"><ele>1112.0</ele><time>2026-05-02T12:21:52.289Z</time></trkpt><trkpt lat="42.0633836" lon="13.7054428"><ele>1112.0</ele><time>2026-05-02T12:21:53.29Z</time></trkpt><trkpt lat="42.0633076" lon="13.7053691"><ele>1112.0</ele><time>2026-05-02T12:21:54.292Z</time></trkpt><trkpt lat="42.0632375" lon="13.7053079"><ele>1111.142857142857</ele><time>2026-05-02T12:21:55.286Z</time></trkpt><trkpt lat="42.063175" lon="13.7052593"><ele>1110.2857142857142</ele><time>2026-05-02T12:21:56.295Z</time></trkpt><trkpt lat="42.063119" lon="13.705205"><ele>1109.4285714285716</ele><time>2026-05-02T12:21:57.289Z</time></trkpt><trkpt lat="42.0630649" lon="13.7051612"><ele>1108.5714285714284</ele><time>2026-05-02T12:21:58.289Z</time></trkpt><trkpt lat="42.063004" lon="13.7051267"><ele>1107.7142857142858</ele><time>2026-05-02T12:21:59.289Z</time></trkpt><trkpt lat="42.0629475" lon="13.7050879"><ele>1106.857142857143</ele><time>2026-05-02T12:22:00.291Z</time></trkpt><trkpt lat="42.0628852" lon="13.7050354"><ele>1106.0</ele><time>2026-05-02T12:22:01.284Z</time></trkpt><trkpt lat="42.0628215" lon="13.7049951"><ele>1102.3333333333335</ele><time>2026-05-02T12:22:02.289Z</time></trkpt><trkpt lat="42.062748" lon="13.7049748"><ele>1098.6666666666667</ele><time>2026-05-02T12:22:03.283Z</time></trkpt><trkpt lat="42.062661" lon="13.7049569"><ele>1095.0</ele><time>2026-05-02T12:22:04.287Z</time></trkpt><trkpt lat="42.0625734" lon="13.7049532"><ele>1091.3333333333333</ele><time>2026-05-02T12:22:05.284Z</time></trkpt><trkpt lat="42.0624804" lon="13.7049487"><ele>1087.6666666666665</ele><time>2026-05-02T12:22:06.29Z</time></trkpt><trkpt lat="42.0623871" lon="13.7049439"><ele>1084.0</ele><time>2026-05-02T12:22:07.287Z</time></trkpt><trkpt lat="42.0622937" lon="13.7049422"><ele>1082.0</ele><time>2026-05-02T12:22:08.288Z</time></trkpt><trkpt lat="42.0621931" lon="13.7049395"><ele>1080.0</ele><time>2026-05-02T12:22:09.295Z</time></trkpt><trkpt lat="42.0620967" lon="13.7049306"><ele>1078.0</ele><time>2026-05-02T12:22:10.286Z</time></trkpt><trkpt lat="42.0619988" lon="13.7049228"><ele>1076.0</ele><time>2026-05-02T12:22:11.295Z</time></trkpt><trkpt lat="42.0619085" lon="13.7049089"><ele>1074.0</ele><time>2026-05-02T12:22:12.294Z</time></trkpt><trkpt lat="42.0618303" lon="13.7048969"><ele>1074.0</ele><time>2026-05-02T12:22:13.296Z</time></trkpt><trkpt lat="42.0617691" lon="13.7048754"><ele>1074.0</ele><time>2026-05-02T12:22:14.28Z</time></trkpt><trkpt lat="42.0617077" lon="13.7048278"><ele>1074.0</ele><time>2026-05-02T12:22:15.282Z</time></trkpt><trkpt lat="42.0616537" lon="13.7047615"><ele>1074.0</ele><time>2026-05-02T12:22:16.28Z</time></trkpt><trkpt lat="42.0615804" lon="13.7046646"><ele>1074.0</ele><time>2026-05-02T12:22:17.281Z</time></trkpt><trkpt lat="42.0615052" lon="13.7045467"><ele>1074.0</ele><time>2026-05-02T12:22:18.282Z</time></trkpt><trkpt lat="42.0614363" lon="13.7044161"><ele>1072.8</ele><time>2026-05-02T12:22:19.285Z</time></trkpt><trkpt lat="42.0613593" lon="13.7042869"><ele>1071.6000000000001</ele><time>2026-05-02T12:22:20.29Z</time></trkpt><trkpt lat="42.061287" lon="13.7041577"><ele>1070.4</ele><time>2026-05-02T12:22:21.285Z</time></trkpt><trkpt lat="42.0612271" lon="13.7040442"><ele>1069.2</ele><time>2026-05-02T12:22:22.283Z</time></trkpt><trkpt lat="42.0611713" lon="13.7039434"><ele>1068.0</ele><time>2026-05-02T12:22:23.285Z</time></trkpt><trkpt lat="42.061117" lon="13.7038544"><ele>1068.0</ele><time>2026-05-02T12:22:24.285Z</time></trkpt><trkpt lat="42.0610593" lon="13.7037626"><ele>1068.0</ele><time>2026-05-02T12:22:25.288Z</time></trkpt><trkpt lat="42.0610068" lon="13.7036586"><ele>1068.0</ele><time>2026-05-02T12:22:26.282Z</time></trkpt><trkpt lat="42.0609407" lon="13.7035459"><ele>1068.0</ele><time>2026-05-02T12:22:27.288Z</time></trkpt><trkpt lat="42.0608752" lon="13.7034344"><ele>1068.0</ele><time>2026-05-02T12:22:28.287Z</time></trkpt><trkpt lat="42.0608211" lon="13.7033359"><ele>1068.5</ele><time>2026-05-02T12:22:29.283Z</time></trkpt><trkpt lat="42.0607586" lon="13.7032309"><ele>1069.0</ele><time>2026-05-02T12:22:30.289Z</time></trkpt><trkpt lat="42.0607059" lon="13.7031426"><ele>1069.5</ele><time>2026-05-02T12:22:31.287Z</time></trkpt><trkpt lat="42.0606646" lon="13.7030695"><ele>1070.0</ele><time>2026-05-02T12:22:32.289Z</time></trkpt><trkpt lat="42.060618" lon="13.7029816"><ele>1070.5</ele><time>2026-05-02T12:22:33.285Z</time></trkpt><trkpt lat="42.060571" lon="13.7028933"><ele>1071.0</ele><time>2026-05-02T12:22:34.284Z</time></trkpt><trkpt lat="42.0605234" lon="13.7027904"><ele>1069.8</ele><time>2026-05-02T12:22:35.288Z</time></trkpt><trkpt lat="42.0604698" lon="13.7026875"><ele>1068.6</ele><time>2026-05-02T12:22:36.286Z</time></trkpt><trkpt lat="42.0604171" lon="13.7025848"><ele>1067.4</ele><time>2026-05-02T12:22:37.287Z</time></trkpt><trkpt lat="42.0603626" lon="13.7024847"><ele>1066.2</ele><time>2026-05-02T12:22:38.286Z</time></trkpt><trkpt lat="42.0603084" lon="13.7023761"><ele>1065.0</ele><time>2026-05-02T12:22:39.286Z</time></trkpt><trkpt lat="42.060248" lon="13.7022755"><ele>1065.0</ele><time>2026-05-02T12:22:40.287Z</time></trkpt><trkpt lat="42.0601866" lon="13.7021807"><ele>1065.0</ele><time>2026-05-02T12:22:41.288Z</time></trkpt><trkpt lat="42.0601212" lon="13.7020846"><ele>1065.0</ele><time>2026-05-02T12:22:42.283Z</time></trkpt><trkpt lat="42.0600681" lon="13.7020011"><ele>1065.0</ele><time>2026-05-02T12:22:43.292Z</time></trkpt><trkpt lat="42.0600141" lon="13.7019107"><ele>1065.0</ele><time>2026-05-02T12:22:44.287Z</time></trkpt><trkpt lat="42.0599635" lon="13.7018143"><ele>1065.0</ele><time>2026-05-02T12:22:45.286Z</time></trkpt><trkpt lat="42.0599138" lon="13.7017139"><ele>1066.8333333333333</ele><time>2026-05-02T12:22:46.289Z</time></trkpt><trkpt lat="42.0598551" lon="13.7016028"><ele>1068.6666666666667</ele><time>2026-05-02T12:22:47.285Z</time></trkpt><trkpt lat="42.0598039" lon="13.7015226"><ele>1070.5</ele><time>2026-05-02T12:22:48.287Z</time></trkpt><trkpt lat="42.0597573" lon="13.7014336"><ele>1072.3333333333335</ele><time>2026-05-02T12:22:49.286Z</time></trkpt><trkpt lat="42.0597047" lon="13.7013417"><ele>1074.1666666666667</ele><time>2026-05-02T12:22:50.283Z</time></trkpt><trkpt lat="42.0596521" lon="13.7012588"><ele>1076.0</ele><time>2026-05-02T12:22:51.287Z</time></trkpt><trkpt lat="42.0596093" lon="13.701183"><ele>1076.0</ele><time>2026-05-02T12:22:52.291Z</time></trkpt><trkpt lat="42.0595625" lon="13.7010978"><ele>1076.0</ele><time>2026-05-02T12:22:53.284Z</time></trkpt><trkpt lat="42.0595064" lon="13.701003"><ele>1076.0</ele><time>2026-05-02T12:22:54.289Z</time></trkpt><trkpt lat="42.0594481" lon="13.700917"><ele>1076.0</ele><time>2026-05-02T12:22:55.28Z</time></trkpt><trkpt lat="42.059385" lon="13.7008388"><ele>1076.0</ele><time>2026-05-02T12:22:56.283Z</time></trkpt><trkpt lat="42.0593301" lon="13.7007646"><ele>1076.0</ele><time>2026-05-02T12:22:57.279Z</time></trkpt><trkpt lat="42.0592713" lon="13.7006933"><ele>1073.5</ele><time>2026-05-02T12:22:58.289Z</time></trkpt><trkpt lat="42.0592081" lon="13.7006283"><ele>1071.0</ele><time>2026-05-02T12:22:59.284Z</time></trkpt><trkpt lat="42.0591367" lon="13.700583"><ele>1068.5</ele><time>2026-05-02T12:23:00.29Z</time></trkpt><trkpt lat="42.0590504" lon="13.7005354"><ele>1066.0</ele><time>2026-05-02T12:23:01.28Z</time></trkpt><trkpt lat="42.0589538" lon="13.7004859"><ele>1063.5</ele><time>2026-05-02T12:23:02.281Z</time></trkpt><trkpt lat="42.0588637" lon="13.700451"><ele>1061.0</ele><time>2026-05-02T12:23:03.284Z</time></trkpt><trkpt lat="42.0587796" lon="13.7004277"><ele>1060.3333333333335</ele><time>2026-05-02T12:23:04.284Z</time></trkpt><trkpt lat="42.0586888" lon="13.7004153"><ele>1059.6666666666667</ele><time>2026-05-02T12:23:05.283Z</time></trkpt><trkpt lat="42.0585871" lon="13.7004073"><ele>1059.0</ele><time>2026-05-02T12:23:06.284Z</time></trkpt><trkpt lat="42.0585048" lon="13.7003978"><ele>1058.3333333333333</ele><time>2026-05-02T12:23:07.283Z</time></trkpt><trkpt lat="42.0584268" lon="13.7003897"><ele>1057.6666666666665</ele><time>2026-05-02T12:23:08.284Z</time></trkpt><trkpt lat="42.0583391" lon="13.7003841"><ele>1057.0</ele><time>2026-05-02T12:23:09.282Z</time></trkpt><trkpt lat="42.0582605" lon="13.7003815"><ele>1056.1666666666665</ele><time>2026-05-02T12:23:10.291Z</time></trkpt><trkpt lat="42.0581935" lon="13.7003742"><ele>1055.3333333333333</ele><time>2026-05-02T12:23:11.279Z</time></trkpt><trkpt lat="42.0581128" lon="13.700371"><ele>1054.5</ele><time>2026-05-02T12:23:12.279Z</time></trkpt><trkpt lat="42.0580317" lon="13.7003641"><ele>1053.6666666666667</ele><time>2026-05-02T12:23:13.281Z</time></trkpt><trkpt lat="42.0579609" lon="13.7003571"><ele>1052.8333333333335</ele><time>2026-05-02T12:23:14.279Z</time></trkpt><trkpt lat="42.057892" lon="13.7003495"><ele>1052.0</ele><time>2026-05-02T12:23:15.282Z</time></trkpt><trkpt lat="42.0577784" lon="13.7003307"><ele>1052.0</ele><time>2026-05-02T12:23:17.278Z</time></trkpt><trkpt lat="42.0577049" lon="13.7003169"><ele>1052.0</ele><time>2026-05-02T12:23:18.274Z</time></trkpt><trkpt lat="42.057631" lon="13.7003081"><ele>1052.0</ele><time>2026-05-02T12:23:19.28Z</time></trkpt><trkpt lat="42.0575598" lon="13.7002908"><ele>1052.0</ele><time>2026-05-02T12:23:20.277Z</time></trkpt><trkpt lat="42.0574912" lon="13.7002831"><ele>1052.0</ele><time>2026-05-02T12:23:21.282Z</time></trkpt><trkpt lat="42.057424" lon="13.7002801"><ele>1052.0</ele><time>2026-05-02T12:23:22.282Z</time></trkpt><trkpt lat="42.0573555" lon="13.7002673"><ele>1052.0</ele><time>2026-05-02T12:23:23.28Z</time></trkpt><trkpt lat="42.0572813" lon="13.7002554"><ele>1051.8333333333335</ele><time>2026-05-02T12:23:24.282Z</time></trkpt><trkpt lat="42.057201" lon="13.7002532"><ele>1051.6666666666667</ele><time>2026-05-02T12:23:25.281Z</time></trkpt><trkpt lat="42.0571176" lon="13.7002356"><ele>1051.5</ele><time>2026-05-02T12:23:26.281Z</time></trkpt><trkpt lat="42.0570232" lon="13.7002191"><ele>1051.3333333333333</ele><time>2026-05-02T12:23:27.282Z</time></trkpt><trkpt lat="42.0569333" lon="13.7001984"><ele>1051.1666666666665</ele><time>2026-05-02T12:23:28.285Z</time></trkpt><trkpt lat="42.0568506" lon="13.7001783"><ele>1051.0</ele><time>2026-05-02T12:23:29.282Z</time></trkpt><trkpt lat="42.0567681" lon="13.7001705"><ele>1051.0</ele><time>2026-05-02T12:23:30.286Z</time></trkpt><trkpt lat="42.0566778" lon="13.7001643"><ele>1051.0</ele><time>2026-05-02T12:23:31.282Z</time></trkpt><trkpt lat="42.0565818" lon="13.7001557"><ele>1051.0</ele><time>2026-05-02T12:23:32.284Z</time></trkpt><trkpt lat="42.0564868" lon="13.7001496"><ele>1051.0</ele><time>2026-05-02T12:23:33.283Z</time></trkpt><trkpt lat="42.0563899" lon="13.7001287"><ele>1051.0</ele><time>2026-05-02T12:23:34.283Z</time></trkpt><trkpt lat="42.0562969" lon="13.7001191"><ele>1051.1666666666665</ele><time>2026-05-02T12:23:35.282Z</time></trkpt><trkpt lat="42.0562096" lon="13.7001055"><ele>1051.3333333333333</ele><time>2026-05-02T12:23:36.282Z</time></trkpt><trkpt lat="42.0561258" lon="13.7000852"><ele>1051.5</ele><time>2026-05-02T12:23:37.282Z</time></trkpt><trkpt lat="42.0560477" lon="13.7000643"><ele>1051.6666666666667</ele><time>2026-05-02T12:23:38.284Z</time></trkpt><trkpt lat="42.0559807" lon="13.7000483"><ele>1051.8333333333335</ele><time>2026-05-02T12:23:39.282Z</time></trkpt><trkpt lat="42.0559068" lon="13.7000459"><ele>1052.0</ele><time>2026-05-02T12:23:40.286Z</time></trkpt><trkpt lat="42.0558324" lon="13.7000304"><ele>1051.6666666666667</ele><time>2026-05-02T12:23:41.286Z</time></trkpt><trkpt lat="42.055753" lon="13.7000053"><ele>1051.3333333333335</ele><time>2026-05-02T12:23:42.282Z</time></trkpt><trkpt lat="42.0556663" lon="13.699992"><ele>1051.0</ele><time>2026-05-02T12:23:43.283Z</time></trkpt><trkpt lat="42.0555872" lon="13.6999797"><ele>1050.6666666666667</ele><time>2026-05-02T12:23:44.279Z</time></trkpt><trkpt lat="42.0555055" lon="13.6999742"><ele>1050.3333333333333</ele><time>2026-05-02T12:23:45.281Z</time></trkpt><trkpt lat="42.0554265" lon="13.6999624"><ele>1050.0</ele><time>2026-05-02T12:23:46.283Z</time></trkpt><trkpt lat="42.055362" lon="13.6999542"><ele>1050.0</ele><time>2026-05-02T12:23:47.279Z</time></trkpt><trkpt lat="42.0552882" lon="13.6999393"><ele>1050.0</ele><time>2026-05-02T12:23:48.282Z</time></trkpt><trkpt lat="42.0552238" lon="13.6999239"><ele>1050.0</ele><time>2026-05-02T12:23:49.282Z</time></trkpt><trkpt lat="42.0551518" lon="13.6998997"><ele>1050.0</ele><time>2026-05-02T12:23:50.279Z</time></trkpt><trkpt lat="42.0550725" lon="13.6998682"><ele>1050.0</ele><time>2026-05-02T12:23:51.282Z</time></trkpt><trkpt lat="42.0549978" lon="13.6998377"><ele>1050.0</ele><time>2026-05-02T12:23:52.291Z</time></trkpt><trkpt lat="42.0549177" lon="13.6998027"><ele>1049.6666666666667</ele><time>2026-05-02T12:23:53.285Z</time></trkpt><trkpt lat="42.0548449" lon="13.6997669"><ele>1049.3333333333333</ele><time>2026-05-02T12:23:54.28Z</time></trkpt><trkpt lat="42.0547777" lon="13.6997309"><ele>1049.0</ele><time>2026-05-02T12:23:55.285Z</time></trkpt><trkpt lat="42.0547022" lon="13.69969"><ele>1048.6666666666665</ele><time>2026-05-02T12:23:56.287Z</time></trkpt><trkpt lat="42.0546402" lon="13.6996302"><ele>1048.3333333333333</ele><time>2026-05-02T12:23:57.284Z</time></trkpt><trkpt lat="42.0545615" lon="13.6995806"><ele>1048.0</ele><time>2026-05-02T12:23:58.285Z</time></trkpt><trkpt lat="42.0544357" lon="13.6995594"><ele>1048.0</ele><time>2026-05-02T12:24:00.289Z</time></trkpt><trkpt lat="42.0543596" lon="13.6995475"><ele>1048.0</ele><time>2026-05-02T12:24:01.284Z</time></trkpt><trkpt lat="42.0542854" lon="13.6995277"><ele>1048.0</ele><time>2026-05-02T12:24:02.285Z</time></trkpt><trkpt lat="42.0542013" lon="13.6994933"><ele>1048.0</ele><time>2026-05-02T12:24:03.286Z</time></trkpt><trkpt lat="42.0541133" lon="13.6994538"><ele>1048.0</ele><time>2026-05-02T12:24:04.285Z</time></trkpt><trkpt lat="42.0540203" lon="13.6994096"><ele>1048.0</ele><time>2026-05-02T12:24:05.282Z</time></trkpt><trkpt lat="42.0539252" lon="13.6993441"><ele>1048.8</ele><time>2026-05-02T12:24:06.292Z</time></trkpt><trkpt lat="42.0538286" lon="13.6992806"><ele>1049.6</ele><time>2026-05-02T12:24:07.292Z</time></trkpt><trkpt lat="42.0537389" lon="13.6992333"><ele>1050.4</ele><time>2026-05-02T12:24:08.285Z</time></trkpt><trkpt lat="42.0536478" lon="13.6991746"><ele>1051.2</ele><time>2026-05-02T12:24:09.285Z</time></trkpt><trkpt lat="42.0535498" lon="13.6991175"><ele>1052.0</ele><time>2026-05-02T12:24:10.286Z</time></trkpt><trkpt lat="42.0534513" lon="13.6990704"><ele>1052.0</ele><time>2026-05-02T12:24:11.281Z</time></trkpt><trkpt lat="42.0533678" lon="13.6990341"><ele>1052.0</ele><time>2026-05-02T12:24:12.288Z</time></trkpt><trkpt lat="42.053292" lon="13.6990104"><ele>1052.0</ele><time>2026-05-02T12:24:13.288Z</time></trkpt><trkpt lat="42.0532254" lon="13.6989807"><ele>1052.0</ele><time>2026-05-02T12:24:14.283Z</time></trkpt><trkpt lat="42.0531605" lon="13.6989453"><ele>1052.0</ele><time>2026-05-02T12:24:15.284Z</time></trkpt><trkpt lat="42.0530939" lon="13.6988969"><ele>1052.0</ele><time>2026-05-02T12:24:16.287Z</time></trkpt><trkpt lat="42.05302" lon="13.6988399"><ele>1052.3333333333335</ele><time>2026-05-02T12:24:17.283Z</time></trkpt><trkpt lat="42.052945" lon="13.6987693"><ele>1052.6666666666667</ele><time>2026-05-02T12:24:18.282Z</time></trkpt><trkpt lat="42.052883" lon="13.6986885"><ele>1053.0</ele><time>2026-05-02T12:24:19.285Z</time></trkpt><trkpt lat="42.0528313" lon="13.6986044"><ele>1053.3333333333333</ele><time>2026-05-02T12:24:20.285Z</time></trkpt><trkpt lat="42.0527623" lon="13.6985165"><ele>1053.6666666666665</ele><time>2026-05-02T12:24:21.288Z</time></trkpt><trkpt lat="42.0526891" lon="13.6984493"><ele>1054.0</ele><time>2026-05-02T12:24:22.286Z</time></trkpt><trkpt lat="42.0526034" lon="13.6983724"><ele>1054.4</ele><time>2026-05-02T12:24:23.286Z</time></trkpt><trkpt lat="42.0525231" lon="13.6982923"><ele>1054.8000000000002</ele><time>2026-05-02T12:24:24.289Z</time></trkpt><trkpt lat="42.0524495" lon="13.6982146"><ele>1055.1999999999998</ele><time>2026-05-02T12:24:25.284Z</time></trkpt><trkpt lat="42.0523784" lon="13.6981415"><ele>1055.6</ele><time>2026-05-02T12:24:26.286Z</time></trkpt><trkpt lat="42.0522948" lon="13.6980735"><ele>1056.0</ele><time>2026-05-02T12:24:27.281Z</time></trkpt><trkpt lat="42.0522104" lon="13.6979852"><ele>1056.0</ele><time>2026-05-02T12:24:28.285Z</time></trkpt><trkpt lat="42.0521169" lon="13.6978801"><ele>1056.0</ele><time>2026-05-02T12:24:29.28Z</time></trkpt><trkpt lat="42.052021" lon="13.6977561"><ele>1056.0</ele><time>2026-05-02T12:24:30.288Z</time></trkpt><trkpt lat="42.0519292" lon="13.6976249"><ele>1056.0</ele><time>2026-05-02T12:24:31.279Z</time></trkpt><trkpt lat="42.0518582" lon="13.697502"><ele>1056.0</ele><time>2026-05-02T12:24:32.286Z</time></trkpt><trkpt lat="42.0517843" lon="13.6974"><ele>1056.0</ele><time>2026-05-02T12:24:33.281Z</time></trkpt><trkpt lat="42.0517154" lon="13.6973218"><ele>1056.0</ele><time>2026-05-02T12:24:34.286Z</time></trkpt><trkpt lat="42.0516339" lon="13.6972469"><ele>1056.0</ele><time>2026-05-02T12:24:35.278Z</time></trkpt><trkpt lat="42.0515604" lon="13.6971671"><ele>1056.0</ele><time>2026-05-02T12:24:36.285Z</time></trkpt><trkpt lat="42.0514848" lon="13.6970949"><ele>1055.8333333333333</ele><time>2026-05-02T12:24:37.286Z</time></trkpt><trkpt lat="42.0514183" lon="13.6970212"><ele>1055.6666666666667</ele><time>2026-05-02T12:24:38.282Z</time></trkpt><trkpt lat="42.0513525" lon="13.6969503"><ele>1055.5</ele><time>2026-05-02T12:24:39.281Z</time></trkpt><trkpt lat="42.0512824" lon="13.6968839"><ele>1055.3333333333335</ele><time>2026-05-02T12:24:40.281Z</time></trkpt><trkpt lat="42.0512125" lon="13.6968134"><ele>1055.1666666666667</ele><time>2026-05-02T12:24:41.281Z</time></trkpt><trkpt lat="42.0511447" lon="13.6967285"><ele>1055.0</ele><time>2026-05-02T12:24:42.275Z</time></trkpt><trkpt lat="42.0510738" lon="13.6966339"><ele>1055.0</ele><time>2026-05-02T12:24:43.287Z</time></trkpt><trkpt lat="42.0509938" lon="13.6965399"><ele>1055.0</ele><time>2026-05-02T12:24:44.278Z</time></trkpt><trkpt lat="42.0509151" lon="13.6964458"><ele>1055.0</ele><time>2026-05-02T12:24:45.301Z</time></trkpt><trkpt lat="42.0508443" lon="13.6963644"><ele>1055.0</ele><time>2026-05-02T12:24:46.371Z</time></trkpt><trkpt lat="42.0507792" lon="13.696282"><ele>1055.0</ele><time>2026-05-02T12:24:47.364Z</time></trkpt><trkpt lat="42.0507104" lon="13.6961874"><ele>1054.2</ele><time>2026-05-02T12:24:48.363Z</time></trkpt><trkpt lat="42.0506394" lon="13.6960845"><ele>1053.4</ele><time>2026-05-02T12:24:49.367Z</time></trkpt><trkpt lat="42.0505669" lon="13.6959881"><ele>1052.6</ele><time>2026-05-02T12:24:50.375Z</time></trkpt><trkpt lat="42.0505045" lon="13.695898"><ele>1051.8</ele><time>2026-05-02T12:24:51.366Z</time></trkpt><trkpt lat="42.0504455" lon="13.6958109"><ele>1051.0</ele><time>2026-05-02T12:24:52.368Z</time></trkpt><trkpt lat="42.0503914" lon="13.6957363"><ele>1051.0</ele><time>2026-05-02T12:24:53.361Z</time></trkpt><trkpt lat="42.0503327" lon="13.6956662"><ele>1051.0</ele><time>2026-05-02T12:24:54.348Z</time></trkpt><trkpt lat="42.0502763" lon="13.6956014"><ele>1051.0</ele><time>2026-05-02T12:24:55.257Z</time></trkpt><trkpt lat="42.0502106" lon="13.6955189"><ele>1051.0</ele><time>2026-05-02T12:24:56.26Z</time></trkpt><trkpt lat="42.0501435" lon="13.6954172"><ele>1051.0</ele><time>2026-05-02T12:24:57.261Z</time></trkpt><trkpt lat="42.0500741" lon="13.6953321"><ele>1051.0</ele><time>2026-05-02T12:24:58.281Z</time></trkpt><trkpt lat="42.0500006" lon="13.6952409"><ele>1051.8333333333333</ele><time>2026-05-02T12:24:59.272Z</time></trkpt><trkpt lat="42.0499372" lon="13.6951595"><ele>1052.6666666666665</ele><time>2026-05-02T12:25:00.277Z</time></trkpt><trkpt lat="42.0498765" lon="13.6950738"><ele>1053.5</ele><time>2026-05-02T12:25:01.274Z</time></trkpt><trkpt lat="42.0498119" lon="13.6949846"><ele>1054.3333333333333</ele><time>2026-05-02T12:25:02.277Z</time></trkpt><trkpt lat="42.0497501" lon="13.6949028"><ele>1055.1666666666667</ele><time>2026-05-02T12:25:03.274Z</time></trkpt><trkpt lat="42.0496968" lon="13.6948248"><ele>1056.0</ele><time>2026-05-02T12:25:04.272Z</time></trkpt><trkpt lat="42.0496442" lon="13.6947509"><ele>1056.0</ele><time>2026-05-02T12:25:05.272Z</time></trkpt><trkpt lat="42.0495934" lon="13.6946688"><ele>1056.0</ele><time>2026-05-02T12:25:06.271Z</time></trkpt><trkpt lat="42.0495381" lon="13.6945848"><ele>1056.0</ele><time>2026-05-02T12:25:07.271Z</time></trkpt><trkpt lat="42.0494896" lon="13.6945072"><ele>1056.0</ele><time>2026-05-02T12:25:08.279Z</time></trkpt><trkpt lat="42.0494331" lon="13.6944345"><ele>1056.0</ele><time>2026-05-02T12:25:09.266Z</time></trkpt><trkpt lat="42.0493614" lon="13.6943316"><ele>1056.0</ele><time>2026-05-02T12:25:10.267Z</time></trkpt><trkpt lat="42.049276" lon="13.6942352"><ele>1055.8333333333333</ele><time>2026-05-02T12:25:11.278Z</time></trkpt><trkpt lat="42.0492042" lon="13.6941448"><ele>1055.6666666666667</ele><time>2026-05-02T12:25:12.275Z</time></trkpt><trkpt lat="42.0491367" lon="13.6940719"><ele>1055.5</ele><time>2026-05-02T12:25:13.272Z</time></trkpt><trkpt lat="42.0490665" lon="13.6940052"><ele>1055.3333333333335</ele><time>2026-05-02T12:25:14.28Z</time></trkpt><trkpt lat="42.0489981" lon="13.6939398"><ele>1055.1666666666667</ele><time>2026-05-02T12:25:15.272Z</time></trkpt><trkpt lat="42.0489312" lon="13.6938752"><ele>1055.0</ele><time>2026-05-02T12:25:16.28Z</time></trkpt><trkpt lat="42.048871" lon="13.6937976"><ele>1055.0</ele><time>2026-05-02T12:25:17.274Z</time></trkpt><trkpt lat="42.0488064" lon="13.6937149"><ele>1055.0</ele><time>2026-05-02T12:25:18.275Z</time></trkpt><trkpt lat="42.0487346" lon="13.6936391"><ele>1055.0</ele><time>2026-05-02T12:25:19.272Z</time></trkpt><trkpt lat="42.0486636" lon="13.6935579"><ele>1055.0</ele><time>2026-05-02T12:25:20.273Z</time></trkpt><trkpt lat="42.0486024" lon="13.6934796"><ele>1055.0</ele><time>2026-05-02T12:25:21.278Z</time></trkpt><trkpt lat="42.0485402" lon="13.6934191"><ele>1055.0</ele><time>2026-05-02T12:25:22.278Z</time></trkpt><trkpt lat="42.0484666" lon="13.693353"><ele>1054.6</ele><time>2026-05-02T12:25:23.273Z</time></trkpt><trkpt lat="42.0483864" lon="13.6932788"><ele>1054.2</ele><time>2026-05-02T12:25:24.276Z</time></trkpt><trkpt lat="42.0483087" lon="13.6931974"><ele>1053.8</ele><time>2026-05-02T12:25:25.275Z</time></trkpt><trkpt lat="42.0482358" lon="13.6931272"><ele>1053.4</ele><time>2026-05-02T12:25:26.274Z</time></trkpt><trkpt lat="42.048174" lon="13.6930482"><ele>1053.0</ele><time>2026-05-02T12:25:27.271Z</time></trkpt><trkpt lat="42.0480939" lon="13.6929555"><ele>1053.0</ele><time>2026-05-02T12:25:28.271Z</time></trkpt><trkpt lat="42.0480068" lon="13.6928511"><ele>1053.0</ele><time>2026-05-02T12:25:29.278Z</time></trkpt><trkpt lat="42.0479167" lon="13.6927548"><ele>1053.0</ele><time>2026-05-02T12:25:30.277Z</time></trkpt><trkpt lat="42.0478411" lon="13.6926742"><ele>1053.0</ele><time>2026-05-02T12:25:31.272Z</time></trkpt><trkpt lat="42.0477681" lon="13.6925992"><ele>1053.0</ele><time>2026-05-02T12:25:32.275Z</time></trkpt><trkpt lat="42.0476981" lon="13.6925336"><ele>1050.2</ele><time>2026-05-02T12:25:33.274Z</time></trkpt><trkpt lat="42.0476305" lon="13.6924626"><ele>1047.4</ele><time>2026-05-02T12:25:34.273Z</time></trkpt><trkpt lat="42.0475482" lon="13.6923863"><ele>1044.6000000000001</ele><time>2026-05-02T12:25:35.272Z</time></trkpt><trkpt lat="42.0474668" lon="13.6923098"><ele>1041.8</ele><time>2026-05-02T12:25:36.279Z</time></trkpt><trkpt lat="42.047393" lon="13.6922367"><ele>1039.0</ele><time>2026-05-02T12:25:37.276Z</time></trkpt><trkpt lat="42.0473163" lon="13.6921675"><ele>1039.0</ele><time>2026-05-02T12:25:38.277Z</time></trkpt><trkpt lat="42.0472483" lon="13.6920942"><ele>1039.0</ele><time>2026-05-02T12:25:39.275Z</time></trkpt><trkpt lat="42.0471743" lon="13.6920261"><ele>1039.0</ele><time>2026-05-02T12:25:40.277Z</time></trkpt><trkpt lat="42.0470956" lon="13.691947"><ele>1039.0</ele><time>2026-05-02T12:25:41.276Z</time></trkpt><trkpt lat="42.04702" lon="13.6918898"><ele>1039.0</ele><time>2026-05-02T12:25:42.279Z</time></trkpt><trkpt lat="42.0469438" lon="13.6918332"><ele>1039.0</ele><time>2026-05-02T12:25:43.281Z</time></trkpt><trkpt lat="42.0468674" lon="13.6917761"><ele>1036.3333333333333</ele><time>2026-05-02T12:25:44.274Z</time></trkpt><trkpt lat="42.0467796" lon="13.6917151"><ele>1033.6666666666665</ele><time>2026-05-02T12:25:45.281Z</time></trkpt><trkpt lat="42.0466963" lon="13.6916483"><ele>1031.0</ele><time>2026-05-02T12:25:46.274Z</time></trkpt><trkpt lat="42.0466181" lon="13.6915872"><ele>1028.3333333333333</ele><time>2026-05-02T12:25:47.273Z</time></trkpt><trkpt lat="42.0465493" lon="13.6915322"><ele>1025.6666666666667</ele><time>2026-05-02T12:25:48.272Z</time></trkpt><trkpt lat="42.0464844" lon="13.6914808"><ele>1023.0</ele><time>2026-05-02T12:25:49.271Z</time></trkpt><trkpt lat="42.0464211" lon="13.6914287"><ele>1023.0</ele><time>2026-05-02T12:25:50.276Z</time></trkpt><trkpt lat="42.0463463" lon="13.6913793"><ele>1023.0</ele><time>2026-05-02T12:25:51.271Z</time></trkpt><trkpt lat="42.0462554" lon="13.6913152"><ele>1023.0</ele><time>2026-05-02T12:25:52.271Z</time></trkpt><trkpt lat="42.0461608" lon="13.6912409"><ele>1023.0</ele><time>2026-05-02T12:25:53.27Z</time></trkpt><trkpt lat="42.0460608" lon="13.6911546"><ele>1023.0</ele><time>2026-05-02T12:25:54.273Z</time></trkpt><trkpt lat="42.0459734" lon="13.6910652"><ele>1021.8</ele><time>2026-05-02T12:25:55.272Z</time></trkpt><trkpt lat="42.0458919" lon="13.6909621"><ele>1020.5999999999999</ele><time>2026-05-02T12:25:56.268Z</time></trkpt><trkpt lat="42.0458124" lon="13.6908759"><ele>1019.4000000000001</ele><time>2026-05-02T12:25:57.265Z</time></trkpt><trkpt lat="42.0457439" lon="13.6907936"><ele>1018.2</ele><time>2026-05-02T12:25:58.272Z</time></trkpt><trkpt lat="42.0456675" lon="13.6907073"><ele>1017.0</ele><time>2026-05-02T12:25:59.27Z</time></trkpt><trkpt lat="42.0455744" lon="13.6906112"><ele>1017.0</ele><time>2026-05-02T12:26:00.269Z</time></trkpt><trkpt lat="42.0454717" lon="13.6905023"><ele>1017.0</ele><time>2026-05-02T12:26:01.264Z</time></trkpt><trkpt lat="42.0453828" lon="13.6903909"><ele>1017.0</ele><time>2026-05-02T12:26:02.267Z</time></trkpt><trkpt lat="42.0453127" lon="13.6902711"><ele>1017.0</ele><time>2026-05-02T12:26:03.266Z</time></trkpt><trkpt lat="42.0452579" lon="13.6901438"><ele>1014.8333333333334</ele><time>2026-05-02T12:26:04.262Z</time></trkpt><trkpt lat="42.0452154" lon="13.6900267"><ele>1012.6666666666667</ele><time>2026-05-02T12:26:05.267Z</time></trkpt><trkpt lat="42.0451675" lon="13.6899269"><ele>1010.5</ele><time>2026-05-02T12:26:06.27Z</time></trkpt><trkpt lat="42.0451203" lon="13.6898379"><ele>1008.3333333333334</ele><time>2026-05-02T12:26:07.267Z</time></trkpt><trkpt lat="42.0450773" lon="13.6897441"><ele>1006.1666666666667</ele><time>2026-05-02T12:26:08.265Z</time></trkpt><trkpt lat="42.0450486" lon="13.6896647"><ele>1004.0</ele><time>2026-05-02T12:26:09.263Z</time></trkpt><trkpt lat="42.0450089" lon="13.6895981"><ele>1004.0000000000001</ele><time>2026-05-02T12:26:10.266Z</time></trkpt><trkpt lat="42.0449762" lon="13.6895115"><ele>1004.0</ele><time>2026-05-02T12:26:11.26Z</time></trkpt><trkpt lat="42.0449417" lon="13.6894188"><ele>1004.0</ele><time>2026-05-02T12:26:12.264Z</time></trkpt><trkpt lat="42.0449137" lon="13.6893065"><ele>1004.0</ele><time>2026-05-02T12:26:13.262Z</time></trkpt><trkpt lat="42.0448893" lon="13.6891884"><ele>1004.0000000000001</ele><time>2026-05-02T12:26:14.265Z</time></trkpt><trkpt lat="42.0448552" lon="13.6890778"><ele>1004.0</ele><time>2026-05-02T12:26:15.259Z</time></trkpt><trkpt lat="42.0448125" lon="13.688981"><ele>1003.0000000000001</ele><time>2026-05-02T12:26:16.27Z</time></trkpt><trkpt lat="42.0447711" lon="13.6888912"><ele>1002.0</ele><time>2026-05-02T12:26:17.265Z</time></trkpt><trkpt lat="42.0447435" lon="13.6888072"><ele>1001.0</ele><time>2026-05-02T12:26:18.268Z</time></trkpt><trkpt lat="42.0447133" lon="13.6887203"><ele>1000.0</ele><time>2026-05-02T12:26:19.26Z</time></trkpt><trkpt lat="42.0446779" lon="13.6886413"><ele>999.0000000000001</ele><time>2026-05-02T12:26:20.269Z</time></trkpt><trkpt lat="42.044637" lon="13.6885539"><ele>998.0</ele><time>2026-05-02T12:26:21.269Z</time></trkpt><trkpt lat="42.0445937" lon="13.6884482"><ele>998.0000000000001</ele><time>2026-05-02T12:26:22.27Z</time></trkpt><trkpt lat="42.0445574" lon="13.6883323"><ele>998.0</ele><time>2026-05-02T12:26:23.263Z</time></trkpt><trkpt lat="42.0445272" lon="13.688233"><ele>998.0</ele><time>2026-05-02T12:26:24.264Z</time></trkpt><trkpt lat="42.0444854" lon="13.6881385"><ele>998.0</ele><time>2026-05-02T12:26:25.273Z</time></trkpt><trkpt lat="42.044438" lon="13.6880581"><ele>998.0000000000001</ele><time>2026-05-02T12:26:26.275Z</time></trkpt><trkpt lat="42.0443918" lon="13.6879759"><ele>998.0</ele><time>2026-05-02T12:26:27.274Z</time></trkpt><trkpt lat="42.0443453" lon="13.6879061"><ele>998.0000000000001</ele><time>2026-05-02T12:26:28.275Z</time></trkpt><trkpt lat="42.0442924" lon="13.6878369"><ele>998.0</ele><time>2026-05-02T12:26:29.275Z</time></trkpt><trkpt lat="42.0442501" lon="13.6877597"><ele>998.0</ele><time>2026-05-02T12:26:30.272Z</time></trkpt><trkpt lat="42.0442087" lon="13.6876721"><ele>998.0</ele><time>2026-05-02T12:26:31.272Z</time></trkpt><trkpt lat="42.0441759" lon="13.6875689"><ele>998.0000000000001</ele><time>2026-05-02T12:26:32.274Z</time></trkpt><trkpt lat="42.0441383" lon="13.6874748"><ele>998.0</ele><time>2026-05-02T12:26:33.269Z</time></trkpt><trkpt lat="42.0440905" lon="13.6873434"><ele>997.6666666666667</ele><time>2026-05-02T12:26:35.276Z</time></trkpt><trkpt lat="42.0440325" lon="13.6872532"><ele>997.3333333333334</ele><time>2026-05-02T12:26:37.267Z</time></trkpt><trkpt lat="42.0439848" lon="13.6871903"><ele>997.0</ele><time>2026-05-02T12:26:39.28Z</time></trkpt><trkpt lat="42.0439349" lon="13.6871112"><ele>996.6666666666667</ele><time>2026-05-02T12:26:41.274Z</time></trkpt><trkpt lat="42.0438634" lon="13.6870073"><ele>996.3333333333334</ele><time>2026-05-02T12:26:43.283Z</time></trkpt><trkpt lat="42.0437953" lon="13.6869121"><ele>996.0</ele><time>2026-05-02T12:26:45.27Z</time></trkpt><trkpt lat="42.0437447" lon="13.686812"><ele>991.1999999999999</ele><time>2026-05-02T12:26:47.283Z</time></trkpt><trkpt lat="42.0436604" lon="13.6867009"><ele>986.3999999999999</ele><time>2026-05-02T12:26:49.266Z</time></trkpt><trkpt lat="42.0435853" lon="13.6865991"><ele>981.6</ele><time>2026-05-02T12:26:51.273Z</time></trkpt><trkpt lat="42.043537" lon="13.6865054"><ele>976.8</ele><time>2026-05-02T12:26:53.267Z</time></trkpt><trkpt lat="42.0434952" lon="13.6863702"><ele>972.0</ele><time>2026-05-02T12:26:55.264Z</time></trkpt><trkpt lat="42.0434344" lon="13.6862072"><ele>972.0</ele><time>2026-05-02T12:26:57.26Z</time></trkpt><trkpt lat="42.0433975" lon="13.6861268"><ele>972.0</ele><time>2026-05-02T12:26:58.269Z</time></trkpt><trkpt lat="42.0433526" lon="13.6860229"><ele>972.0</ele><time>2026-05-02T12:27:00.27Z</time></trkpt><trkpt lat="42.0432933" lon="13.6858834"><ele>972.0</ele><time>2026-05-02T12:27:03.273Z</time></trkpt><trkpt lat="42.0432238" lon="13.6857423"><ele>972.0</ele><time>2026-05-02T12:27:05.269Z</time></trkpt><trkpt lat="42.0431866" lon="13.6856629"><ele>973.0</ele><time>2026-05-02T12:27:06.262Z</time></trkpt><trkpt lat="42.0431444" lon="13.6855923"><ele>974.0</ele><time>2026-05-02T12:27:07.262Z</time></trkpt><trkpt lat="42.0430947" lon="13.6854778"><ele>975.0</ele><time>2026-05-02T12:27:09.268Z</time></trkpt><trkpt lat="42.0430309" lon="13.6853554"><ele>976.0</ele><time>2026-05-02T12:27:11.261Z</time></trkpt><trkpt lat="42.0429784" lon="13.6853056"><ele>977.0</ele><time>2026-05-02T12:27:12.259Z</time></trkpt><trkpt lat="42.04293" lon="13.6852457"><ele>978.0</ele><time>2026-05-02T12:27:13.265Z</time></trkpt><trkpt lat="42.0428862" lon="13.6851619"><ele>972.4</ele><time>2026-05-02T12:27:14.265Z</time></trkpt><trkpt lat="42.0428486" lon="13.6850786"><ele>966.8</ele><time>2026-05-02T12:27:15.261Z</time></trkpt><trkpt lat="42.0428167" lon="13.6849982"><ele>961.2</ele><time>2026-05-02T12:27:16.27Z</time></trkpt><trkpt lat="42.0427366" lon="13.6848544"><ele>955.6</ele><time>2026-05-02T12:27:18.27Z</time></trkpt><trkpt lat="42.0426868" lon="13.684713"><ele>950.0</ele><time>2026-05-02T12:27:20.267Z</time></trkpt><trkpt lat="42.0426498" lon="13.6846421"><ele>950.0000000000001</ele><time>2026-05-02T12:27:21.272Z</time></trkpt><trkpt lat="42.0425943" lon="13.6845803"><ele>950.0</ele><time>2026-05-02T12:27:22.277Z</time></trkpt><trkpt lat="42.0425396" lon="13.6845128"><ele>950.0</ele><time>2026-05-02T12:27:23.275Z</time></trkpt><trkpt lat="42.0424826" lon="13.6844511"><ele>950.0</ele><time>2026-05-02T12:27:24.27Z</time></trkpt><trkpt lat="42.0424152" lon="13.6843627"><ele>950.0000000000001</ele><time>2026-05-02T12:27:25.271Z</time></trkpt><trkpt lat="42.0423685" lon="13.6842604"><ele>950.0</ele><time>2026-05-02T12:27:26.27Z</time></trkpt><trkpt lat="42.0423254" lon="13.6841716"><ele>948.2</ele><time>2026-05-02T12:27:27.273Z</time></trkpt><trkpt lat="42.0422676" lon="13.6840985"><ele>946.4</ele><time>2026-05-02T12:27:28.274Z</time></trkpt><trkpt lat="42.0421809" lon="13.6839993"><ele>944.5999999999999</ele><time>2026-05-02T12:27:30.272Z</time></trkpt><trkpt lat="42.0421343" lon="13.6839136"><ele>942.8</ele><time>2026-05-02T12:27:32.284Z</time></trkpt><trkpt lat="42.0420425" lon="13.6838118"><ele>941.0</ele><time>2026-05-02T12:27:34.276Z</time></trkpt><trkpt lat="42.0419905" lon="13.6837449"><ele>941.0000000000001</ele><time>2026-05-02T12:27:35.275Z</time></trkpt><trkpt lat="42.0419507" lon="13.6836701"><ele>941.0</ele><time>2026-05-02T12:27:36.276Z</time></trkpt><trkpt lat="42.0419033" lon="13.683575"><ele>941.0</ele><time>2026-05-02T12:27:37.277Z</time></trkpt><trkpt lat="42.0418532" lon="13.6834858"><ele>941.0</ele><time>2026-05-02T12:27:38.278Z</time></trkpt><trkpt lat="42.0417991" lon="13.6833982"><ele>941.0000000000001</ele><time>2026-05-02T12:27:39.279Z</time></trkpt><trkpt lat="42.0417367" lon="13.6833188"><ele>941.0</ele><time>2026-05-02T12:27:40.281Z</time></trkpt><trkpt lat="42.0416851" lon="13.6832354"><ele>938.8333333333334</ele><time>2026-05-02T12:27:41.277Z</time></trkpt><trkpt lat="42.0416261" lon="13.6831464"><ele>936.6666666666667</ele><time>2026-05-02T12:27:42.277Z</time></trkpt><trkpt lat="42.0415826" lon="13.6830569"><ele>934.5</ele><time>2026-05-02T12:27:43.278Z</time></trkpt><trkpt lat="42.0415291" lon="13.682968"><ele>932.3333333333333</ele><time>2026-05-02T12:27:44.276Z</time></trkpt><trkpt lat="42.0414778" lon="13.6828806"><ele>930.1666666666666</ele><time>2026-05-02T12:27:45.276Z</time></trkpt><trkpt lat="42.0414202" lon="13.6827942"><ele>928.0</ele><time>2026-05-02T12:27:46.278Z</time></trkpt><trkpt lat="42.0413648" lon="13.6827036"><ele>923.8333333333333</ele><time>2026-05-02T12:27:47.279Z</time></trkpt><trkpt lat="42.0413212" lon="13.6826207"><ele>919.6666666666666</ele><time>2026-05-02T12:27:48.281Z</time></trkpt><trkpt lat="42.0412707" lon="13.6825345"><ele>915.5</ele><time>2026-05-02T12:27:49.275Z</time></trkpt><trkpt lat="42.0412193" lon="13.6824456"><ele>911.3333333333333</ele><time>2026-05-02T12:27:50.275Z</time></trkpt><trkpt lat="42.0411817" lon="13.6823433"><ele>907.1666666666666</ele><time>2026-05-02T12:27:51.278Z</time></trkpt><trkpt lat="42.0411417" lon="13.6822318"><ele>903.0</ele><time>2026-05-02T12:27:52.278Z</time></trkpt><trkpt lat="42.0411056" lon="13.6821368"><ele>903.0</ele><time>2026-05-02T12:27:53.274Z</time></trkpt><trkpt lat="42.0410455" lon="13.6820423"><ele>903.0</ele><time>2026-05-02T12:27:54.275Z</time></trkpt><trkpt lat="42.0409924" lon="13.6819715"><ele>903.0</ele><time>2026-05-02T12:27:55.278Z</time></trkpt><trkpt lat="42.0409398" lon="13.6818898"><ele>903.0</ele><time>2026-05-02T12:27:56.279Z</time></trkpt><trkpt lat="42.040875" lon="13.6817967"><ele>903.0</ele><time>2026-05-02T12:27:57.28Z</time></trkpt><trkpt lat="42.0408032" lon="13.6817013"><ele>903.0</ele><time>2026-05-02T12:27:58.28Z</time></trkpt><trkpt lat="42.0407336" lon="13.681614"><ele>901.8</ele><time>2026-05-02T12:27:59.277Z</time></trkpt><trkpt lat="42.0406629" lon="13.6815211"><ele>900.5999999999999</ele><time>2026-05-02T12:28:00.282Z</time></trkpt><trkpt lat="42.0405889" lon="13.6814147"><ele>899.4000000000001</ele><time>2026-05-02T12:28:01.276Z</time></trkpt><trkpt lat="42.0405118" lon="13.6812975"><ele>898.2</ele><time>2026-05-02T12:28:02.275Z</time></trkpt><trkpt lat="42.0404385" lon="13.6811931"><ele>897.0</ele><time>2026-05-02T12:28:03.275Z</time></trkpt><trkpt lat="42.0403672" lon="13.6810921"><ele>893.8</ele><time>2026-05-02T12:28:04.278Z</time></trkpt><trkpt lat="42.0403021" lon="13.6809889"><ele>890.6</ele><time>2026-05-02T12:28:05.279Z</time></trkpt><trkpt lat="42.0402419" lon="13.6808866"><ele>887.3999999999999</ele><time>2026-05-02T12:28:06.278Z</time></trkpt><trkpt lat="42.0401831" lon="13.6807862"><ele>884.1999999999999</ele><time>2026-05-02T12:28:07.281Z</time></trkpt><trkpt lat="42.0401229" lon="13.680674"><ele>881.0</ele><time>2026-05-02T12:28:08.28Z</time></trkpt><trkpt lat="42.0400568" lon="13.6805519"><ele>881.0</ele><time>2026-05-02T12:28:09.282Z</time></trkpt><trkpt lat="42.0399919" lon="13.6804384"><ele>880.9999999999999</ele><time>2026-05-02T12:28:10.281Z</time></trkpt><trkpt lat="42.0399317" lon="13.6803273"><ele>880.9999999999999</ele><time>2026-05-02T12:28:11.281Z</time></trkpt><trkpt lat="42.0398774" lon="13.6802316"><ele>881.0</ele><time>2026-05-02T12:28:12.281Z</time></trkpt><trkpt lat="42.0398225" lon="13.6801418"><ele>881.0</ele><time>2026-05-02T12:28:13.283Z</time></trkpt><trkpt lat="42.0397632" lon="13.6800475"><ele>882.0</ele><time>2026-05-02T12:28:14.282Z</time></trkpt><trkpt lat="42.0397016" lon="13.6799465"><ele>882.9999999999999</ele><time>2026-05-02T12:28:15.28Z</time></trkpt><trkpt lat="42.0396351" lon="13.6798369"><ele>883.9999999999999</ele><time>2026-05-02T12:28:16.285Z</time></trkpt><trkpt lat="42.0395698" lon="13.6797236"><ele>885.0</ele><time>2026-05-02T12:28:17.28Z</time></trkpt><trkpt lat="42.0395111" lon="13.6796134"><ele>886.0</ele><time>2026-05-02T12:28:18.284Z</time></trkpt><trkpt lat="42.039462" lon="13.6795123"><ele>883.3333333333333</ele><time>2026-05-02T12:28:19.284Z</time></trkpt><trkpt lat="42.0394115" lon="13.6794124"><ele>880.6666666666666</ele><time>2026-05-02T12:28:20.28Z</time></trkpt><trkpt lat="42.0393596" lon="13.6793171"><ele>878.0</ele><time>2026-05-02T12:28:21.281Z</time></trkpt><trkpt lat="42.0393098" lon="13.6792258"><ele>875.3333333333333</ele><time>2026-05-02T12:28:22.28Z</time></trkpt><trkpt lat="42.0392685" lon="13.6791295"><ele>872.6666666666666</ele><time>2026-05-02T12:28:23.28Z</time></trkpt><trkpt lat="42.0392273" lon="13.6790284"><ele>870.0</ele><time>2026-05-02T12:28:24.277Z</time></trkpt><trkpt lat="42.0391748" lon="13.678921"><ele>870.4</ele><time>2026-05-02T12:28:25.274Z</time></trkpt><trkpt lat="42.0391142" lon="13.6788107"><ele>870.8</ele><time>2026-05-02T12:28:26.275Z</time></trkpt><trkpt lat="42.0390451" lon="13.6786907"><ele>871.2</ele><time>2026-05-02T12:28:27.277Z</time></trkpt><trkpt lat="42.0389824" lon="13.6785817"><ele>871.6</ele><time>2026-05-02T12:28:28.281Z</time></trkpt><trkpt lat="42.0389221" lon="13.6784691"><ele>872.0</ele><time>2026-05-02T12:28:29.28Z</time></trkpt><trkpt lat="42.0388667" lon="13.6783655"><ele>872.0</ele><time>2026-05-02T12:28:30.281Z</time></trkpt><trkpt lat="42.0388096" lon="13.6782606"><ele>872.0</ele><time>2026-05-02T12:28:31.274Z</time></trkpt><trkpt lat="42.0387455" lon="13.6781502"><ele>872.0</ele><time>2026-05-02T12:28:32.277Z</time></trkpt><trkpt lat="42.0386728" lon="13.6780376"><ele>872.0</ele><time>2026-05-02T12:28:33.277Z</time></trkpt><trkpt lat="42.0386024" lon="13.6779281"><ele>872.0</ele><time>2026-05-02T12:28:34.278Z</time></trkpt><trkpt lat="42.0385411" lon="13.6778212"><ele>870.0</ele><time>2026-05-02T12:28:35.276Z</time></trkpt><trkpt lat="42.0384785" lon="13.6777164"><ele>868.0</ele><time>2026-05-02T12:28:36.281Z</time></trkpt><trkpt lat="42.0384012" lon="13.6776025"><ele>866.0</ele><time>2026-05-02T12:28:37.278Z</time></trkpt><trkpt lat="42.0383245" lon="13.6774947"><ele>864.0</ele><time>2026-05-02T12:28:38.281Z</time></trkpt><trkpt lat="42.0382518" lon="13.6773898"><ele>862.0</ele><time>2026-05-02T12:28:39.279Z</time></trkpt><trkpt lat="42.0381717" lon="13.6772784"><ele>862.0</ele><time>2026-05-02T12:28:40.279Z</time></trkpt><trkpt lat="42.0380848" lon="13.6771763"><ele>862.0</ele><time>2026-05-02T12:28:41.277Z</time></trkpt><trkpt lat="42.0379887" lon="13.6770778"><ele>862.0</ele><time>2026-05-02T12:28:42.282Z</time></trkpt><trkpt lat="42.0379031" lon="13.6769873"><ele>862.0</ele><time>2026-05-02T12:28:43.277Z</time></trkpt><trkpt lat="42.0378324" lon="13.6769029"><ele>862.0</ele><time>2026-05-02T12:28:44.279Z</time></trkpt><trkpt lat="42.0377711" lon="13.6768254"><ele>859.8333333333333</ele><time>2026-05-02T12:28:45.278Z</time></trkpt><trkpt lat="42.0377104" lon="13.6767441"><ele>857.6666666666666</ele><time>2026-05-02T12:28:46.285Z</time></trkpt><trkpt lat="42.0376483" lon="13.6766619"><ele>855.5</ele><time>2026-05-02T12:28:47.28Z</time></trkpt><trkpt lat="42.0375886" lon="13.6765723"><ele>853.3333333333333</ele><time>2026-05-02T12:28:48.283Z</time></trkpt><trkpt lat="42.0375273" lon="13.6764923"><ele>851.1666666666666</ele><time>2026-05-02T12:28:49.281Z</time></trkpt><trkpt lat="42.0374651" lon="13.6764257"><ele>849.0</ele><time>2026-05-02T12:28:50.282Z</time></trkpt><trkpt lat="42.0374023" lon="13.6763621"><ele>849.0</ele><time>2026-05-02T12:28:51.281Z</time></trkpt><trkpt lat="42.0373428" lon="13.6762675"><ele>849.0</ele><time>2026-05-02T12:28:52.279Z</time></trkpt><trkpt lat="42.0372824" lon="13.6761372"><ele>849.0</ele><time>2026-05-02T12:28:53.286Z</time></trkpt><trkpt lat="42.0372149" lon="13.6760189"><ele>849.0</ele><time>2026-05-02T12:28:54.284Z</time></trkpt><trkpt lat="42.037133" lon="13.6759241"><ele>849.0</ele><time>2026-05-02T12:28:55.279Z</time></trkpt><trkpt lat="42.0370429" lon="13.6758494"><ele>846.6</ele><time>2026-05-02T12:28:56.28Z</time></trkpt><trkpt lat="42.0369567" lon="13.6757702"><ele>844.2</ele><time>2026-05-02T12:28:57.28Z</time></trkpt><trkpt lat="42.0368823" lon="13.6756907"><ele>841.8000000000001</ele><time>2026-05-02T12:28:58.285Z</time></trkpt><trkpt lat="42.0368071" lon="13.6756257"><ele>839.4000000000001</ele><time>2026-05-02T12:28:59.285Z</time></trkpt><trkpt lat="42.0367294" lon="13.6755697"><ele>837.0</ele><time>2026-05-02T12:29:00.284Z</time></trkpt><trkpt lat="42.0366524" lon="13.6755148"><ele>837.1666666666666</ele><time>2026-05-02T12:29:01.283Z</time></trkpt><trkpt lat="42.036583" lon="13.675456"><ele>837.3333333333333</ele><time>2026-05-02T12:29:02.282Z</time></trkpt><trkpt lat="42.0365118" lon="13.6754018"><ele>837.5</ele><time>2026-05-02T12:29:03.281Z</time></trkpt><trkpt lat="42.0364307" lon="13.6753419"><ele>837.6666666666666</ele><time>2026-05-02T12:29:04.282Z</time></trkpt><trkpt lat="42.0363448" lon="13.6752792"><ele>837.8333333333333</ele><time>2026-05-02T12:29:05.282Z</time></trkpt><trkpt lat="42.0362567" lon="13.6752365"><ele>838.0</ele><time>2026-05-02T12:29:06.277Z</time></trkpt><trkpt lat="42.0361736" lon="13.6752198"><ele>836.2</ele><time>2026-05-02T12:29:07.274Z</time></trkpt><trkpt lat="42.0360821" lon="13.6752276"><ele>834.4</ele><time>2026-05-02T12:29:08.276Z</time></trkpt><trkpt lat="42.0359788" lon="13.6752433"><ele>832.6</ele><time>2026-05-02T12:29:09.278Z</time></trkpt><trkpt lat="42.035883" lon="13.6752495"><ele>830.8000000000001</ele><time>2026-05-02T12:29:10.28Z</time></trkpt><trkpt lat="42.0358013" lon="13.6752496"><ele>829.0</ele><time>2026-05-02T12:29:11.278Z</time></trkpt><trkpt lat="42.0357223" lon="13.6752452"><ele>828.4999999999999</ele><time>2026-05-02T12:29:12.274Z</time></trkpt><trkpt lat="42.0356517" lon="13.6752367"><ele>828.0</ele><time>2026-05-02T12:29:13.276Z</time></trkpt><trkpt lat="42.0355376" lon="13.6751722"><ele>827.5</ele><time>2026-05-02T12:29:15.272Z</time></trkpt><trkpt lat="42.0354824" lon="13.6751063"><ele>827.0</ele><time>2026-05-02T12:29:16.283Z</time></trkpt><trkpt lat="42.0354332" lon="13.6750266"><ele>826.4999999999999</ele><time>2026-05-02T12:29:17.284Z</time></trkpt><trkpt lat="42.0353838" lon="13.6749308"><ele>826.0</ele><time>2026-05-02T12:29:18.284Z</time></trkpt><trkpt lat="42.0353408" lon="13.6748376"><ele>825.9999999999999</ele><time>2026-05-02T12:29:19.285Z</time></trkpt><trkpt lat="42.0352854" lon="13.6747636"><ele>826.0</ele><time>2026-05-02T12:29:20.283Z</time></trkpt><trkpt lat="42.0352153" lon="13.674719"><ele>826.0</ele><time>2026-05-02T12:29:21.283Z</time></trkpt><trkpt lat="42.0351455" lon="13.6746962"><ele>826.0</ele><time>2026-05-02T12:29:22.288Z</time></trkpt><trkpt lat="42.0350774" lon="13.6746855"><ele>825.9999999999999</ele><time>2026-05-02T12:29:23.286Z</time></trkpt><trkpt lat="42.0349854" lon="13.674662"><ele>826.0</ele><time>2026-05-02T12:29:25.285Z</time></trkpt><trkpt lat="42.0349131" lon="13.6746315"><ele>824.1666666666666</ele><time>2026-05-02T12:29:27.294Z</time></trkpt><trkpt lat="42.0348529" lon="13.6745674"><ele>822.3333333333333</ele><time>2026-05-02T12:29:31.297Z</time></trkpt><trkpt lat="42.0347843" lon="13.6744748"><ele>820.5</ele><time>2026-05-02T12:29:34.293Z</time></trkpt><trkpt lat="42.0347402" lon="13.674406"><ele>818.6666666666667</ele><time>2026-05-02T12:29:36.295Z</time></trkpt><trkpt lat="42.0347294" lon="13.6743004"><ele>816.8333333333334</ele><time>2026-05-02T12:29:41.282Z</time></trkpt><trkpt lat="42.0347069" lon="13.6741392"><ele>815.0</ele><time>2026-05-02T12:29:43.271Z</time></trkpt><trkpt lat="42.0346908" lon="13.6740233"><ele>815.1666666666667</ele><time>2026-05-02T12:29:44.271Z</time></trkpt><trkpt lat="42.0346873" lon="13.6738989"><ele>815.3333333333334</ele><time>2026-05-02T12:29:45.273Z</time></trkpt><trkpt lat="42.0346826" lon="13.6737697"><ele>815.5</ele><time>2026-05-02T12:29:46.269Z</time></trkpt><trkpt lat="42.0346966" lon="13.6736561"><ele>815.6666666666667</ele><time>2026-05-02T12:29:47.266Z</time></trkpt><trkpt lat="42.0347347" lon="13.6735651"><ele>815.8333333333334</ele><time>2026-05-02T12:29:48.268Z</time></trkpt><trkpt lat="42.0347908" lon="13.6734653"><ele>816.0</ele><time>2026-05-02T12:29:49.271Z</time></trkpt><trkpt lat="42.0348277" lon="13.6733507"><ele>816.0</ele><time>2026-05-02T12:29:50.273Z</time></trkpt><trkpt lat="42.0348489" lon="13.6732165"><ele>816.0</ele><time>2026-05-02T12:29:51.278Z</time></trkpt><trkpt lat="42.0348689" lon="13.6730724"><ele>816.0</ele><time>2026-05-02T12:29:52.273Z</time></trkpt><trkpt lat="42.0349086" lon="13.6729261"><ele>816.0</ele><time>2026-05-02T12:29:53.268Z</time></trkpt><trkpt lat="42.03496" lon="13.6727753"><ele>819.5</ele><time>2026-05-02T12:29:54.264Z</time></trkpt><trkpt lat="42.0350279" lon="13.6726395"><ele>823.0</ele><time>2026-05-02T12:29:55.274Z</time></trkpt><trkpt lat="42.0351025" lon="13.6725028"><ele>826.5</ele><time>2026-05-02T12:29:56.271Z</time></trkpt><trkpt lat="42.03517" lon="13.6723671"><ele>830.0</ele><time>2026-05-02T12:29:57.274Z</time></trkpt><trkpt lat="42.0352206" lon="13.6722416"><ele>830.0</ele><time>2026-05-02T12:29:58.274Z</time></trkpt><trkpt lat="42.0352747" lon="13.6721176"><ele>830.0</ele><time>2026-05-02T12:29:59.263Z</time></trkpt><trkpt lat="42.0353214" lon="13.6719875"><ele>830.0</ele><time>2026-05-02T12:30:00.267Z</time></trkpt><trkpt lat="42.0353503" lon="13.6718398"><ele>830.0</ele><time>2026-05-02T12:30:01.263Z</time></trkpt><trkpt lat="42.035373" lon="13.6716763"><ele>831.0</ele><time>2026-05-02T12:30:02.265Z</time></trkpt><trkpt lat="42.0354021" lon="13.6715079"><ele>832.0</ele><time>2026-05-02T12:30:03.272Z</time></trkpt><trkpt lat="42.0354462" lon="13.6713723"><ele>833.0</ele><time>2026-05-02T12:30:04.267Z</time></trkpt><trkpt lat="42.0354865" lon="13.6712592"><ele>834.0</ele><time>2026-05-02T12:30:05.271Z</time></trkpt><trkpt lat="42.0355176" lon="13.6711601"><ele>835.0</ele><time>2026-05-02T12:30:06.271Z</time></trkpt><trkpt lat="42.0355426" lon="13.6710577"><ele>836.2</ele><time>2026-05-02T12:30:07.269Z</time></trkpt><trkpt lat="42.0355626" lon="13.6709252"><ele>837.4</ele><time>2026-05-02T12:30:08.273Z</time></trkpt><trkpt lat="42.0355823" lon="13.6707761"><ele>838.5999999999999</ele><time>2026-05-02T12:30:09.267Z</time></trkpt><trkpt lat="42.035606" lon="13.6706273"><ele>839.8</ele><time>2026-05-02T12:30:10.269Z</time></trkpt><trkpt lat="42.0356158" lon="13.6704832"><ele>841.0</ele><time>2026-05-02T12:30:11.285Z</time></trkpt><trkpt lat="42.0356269" lon="13.6703463"><ele>841.4</ele><time>2026-05-02T12:30:12.271Z</time></trkpt><trkpt lat="42.0356509" lon="13.670223"><ele>841.8</ele><time>2026-05-02T12:30:13.271Z</time></trkpt><trkpt lat="42.0356544" lon="13.6700989"><ele>842.1999999999999</ele><time>2026-05-02T12:30:14.274Z</time></trkpt><trkpt lat="42.0356484" lon="13.6699751"><ele>842.5999999999999</ele><time>2026-05-02T12:30:15.27Z</time></trkpt><trkpt lat="42.0356323" lon="13.6698506"><ele>843.0</ele><time>2026-05-02T12:30:16.273Z</time></trkpt><trkpt lat="42.0356089" lon="13.6697266"><ele>843.0</ele><time>2026-05-02T12:30:17.272Z</time></trkpt><trkpt lat="42.0355782" lon="13.6696011"><ele>843.0</ele><time>2026-05-02T12:30:18.27Z</time></trkpt><trkpt lat="42.0355575" lon="13.6694831"><ele>843.0</ele><time>2026-05-02T12:30:19.262Z</time></trkpt><trkpt lat="42.0355411" lon="13.6693755"><ele>843.0</ele><time>2026-05-02T12:30:20.266Z</time></trkpt><trkpt lat="42.0355575" lon="13.6692904"><ele>843.0</ele><time>2026-05-02T12:30:21.283Z</time></trkpt><trkpt lat="42.0356028" lon="13.669215"><ele>843.0</ele><time>2026-05-02T12:30:22.278Z</time></trkpt><trkpt lat="42.0356725" lon="13.6691373"><ele>843.25</ele><time>2026-05-02T12:30:23.28Z</time></trkpt><trkpt lat="42.035757" lon="13.6690541"><ele>843.5</ele><time>2026-05-02T12:30:24.358Z</time></trkpt><trkpt lat="42.0358492" lon="13.6689735"><ele>843.75</ele><time>2026-05-02T12:30:25.352Z</time></trkpt><trkpt lat="42.0359457" lon="13.6688839"><ele>844.0</ele><time>2026-05-02T12:30:26.352Z</time></trkpt><trkpt lat="42.0360433" lon="13.66879"><ele>843.8000000000001</ele><time>2026-05-02T12:30:27.348Z</time></trkpt><trkpt lat="42.0361376" lon="13.6687248"><ele>843.6</ele><time>2026-05-02T12:30:28.349Z</time></trkpt><trkpt lat="42.0362193" lon="13.6686689"><ele>843.4</ele><time>2026-05-02T12:30:29.361Z</time></trkpt><trkpt lat="42.0363107" lon="13.6686118"><ele>843.2</ele><time>2026-05-02T12:30:30.358Z</time></trkpt><trkpt lat="42.036385" lon="13.6685594"><ele>843.0</ele><time>2026-05-02T12:30:31.35Z</time></trkpt><trkpt lat="42.0362803" lon="13.6686333"><ele>843.0</ele><time>2026-05-02T12:30:32.35Z</time></trkpt><trkpt lat="42.036338" lon="13.6685942"><ele>843.0</ele><time>2026-05-02T12:30:35.369Z</time></trkpt><trkpt lat="42.0363371" lon="13.6685008"><ele>843.0</ele><time>2026-05-02T12:30:45.383Z</time></trkpt><trkpt lat="42.0363831" lon="13.6684278"><ele>843.0</ele><time>2026-05-02T12:30:48.38Z</time></trkpt><trkpt lat="42.0363665" lon="13.6685235"><ele>843.0</ele><time>2026-05-02T12:30:50.361Z</time></trkpt><trkpt lat="42.0364839" lon="13.6685924"><ele>843.0</ele><time>2026-05-02T12:30:52.368Z</time></trkpt><trkpt lat="42.0365645" lon="13.6686284"><ele>844.4</ele><time>2026-05-02T12:30:53.371Z</time></trkpt><trkpt lat="42.0366497" lon="13.6686647"><ele>845.8</ele><time>2026-05-02T12:30:54.373Z</time></trkpt><trkpt lat="42.0367404" lon="13.6686986"><ele>847.2</ele><time>2026-05-02T12:30:55.366Z</time></trkpt><trkpt lat="42.0368299" lon="13.6687459"><ele>848.6</ele><time>2026-05-02T12:30:56.38Z</time></trkpt><trkpt lat="42.0369229" lon="13.6687778"><ele>850.0</ele><time>2026-05-02T12:30:57.377Z</time></trkpt><trkpt lat="42.0370334" lon="13.6688163"><ele>850.0</ele><time>2026-05-02T12:30:58.371Z</time></trkpt><trkpt lat="42.0371465" lon="13.6688488"><ele>850.0</ele><time>2026-05-02T12:30:59.366Z</time></trkpt><trkpt lat="42.0372871" lon="13.668888"><ele>850.0</ele><time>2026-05-02T12:31:00.362Z</time></trkpt><trkpt lat="42.0373999" lon="13.6688806"><ele>850.0</ele><time>2026-05-02T12:31:01.356Z</time></trkpt><trkpt lat="42.0374445" lon="13.668798"><ele>850.0</ele><time>2026-05-02T12:31:02.364Z</time></trkpt><trkpt lat="42.0375057" lon="13.6687208"><ele>850.0</ele><time>2026-05-02T12:31:03.343Z</time></trkpt><trkpt lat="42.0375983" lon="13.6686716"><ele>850.0</ele><time>2026-05-02T12:31:04.342Z</time></trkpt><trkpt lat="42.0377253" lon="13.66863"><ele>850.0</ele><time>2026-05-02T12:31:05.346Z</time></trkpt><trkpt lat="42.0372663" lon="13.6686867"><ele>850.1666666666666</ele><time>2026-05-02T12:31:06.279Z</time></trkpt><trkpt lat="42.0372787" lon="13.6685883"><ele>850.3333333333333</ele><time>2026-05-02T12:31:07.275Z</time></trkpt><trkpt lat="42.0372978" lon="13.6684974"><ele>850.5</ele><time>2026-05-02T12:31:08.278Z</time></trkpt><trkpt lat="42.0373145" lon="13.668398"><ele>850.6666666666667</ele><time>2026-05-02T12:31:09.275Z</time></trkpt><trkpt lat="42.0373364" lon="13.6682824"><ele>850.8333333333334</ele><time>2026-05-02T12:31:10.28Z</time></trkpt><trkpt lat="42.0373577" lon="13.6681553"><ele>851.0</ele><time>2026-05-02T12:31:11.288Z</time></trkpt><trkpt lat="42.0373891" lon="13.6680172"><ele>851.0</ele><time>2026-05-02T12:31:12.288Z</time></trkpt><trkpt lat="42.0374201" lon="13.6678785"><ele>851.0</ele><time>2026-05-02T12:31:13.296Z</time></trkpt><trkpt lat="42.0374537" lon="13.6677453"><ele>851.0</ele><time>2026-05-02T12:31:14.289Z</time></trkpt><trkpt lat="42.0374771" lon="13.6676182"><ele>851.0</ele><time>2026-05-02T12:31:15.292Z</time></trkpt><trkpt lat="42.0374847" lon="13.6674857"><ele>851.0</ele><time>2026-05-02T12:31:16.282Z</time></trkpt><trkpt lat="42.0374927" lon="13.6673374"><ele>851.4</ele><time>2026-05-02T12:31:17.283Z</time></trkpt><trkpt lat="42.0375046" lon="13.6671771"><ele>851.8</ele><time>2026-05-02T12:31:18.278Z</time></trkpt><trkpt lat="42.0375367" lon="13.6670311"><ele>852.1999999999999</ele><time>2026-05-02T12:31:19.276Z</time></trkpt><trkpt lat="42.037576" lon="13.6669045"><ele>852.5999999999999</ele><time>2026-05-02T12:31:20.27Z</time></trkpt><trkpt lat="42.0376351" lon="13.6667925"><ele>853.0</ele><time>2026-05-02T12:31:21.279Z</time></trkpt><trkpt lat="42.0377137" lon="13.6666908"><ele>853.0</ele><time>2026-05-02T12:31:22.283Z</time></trkpt><trkpt lat="42.0377895" lon="13.6665747"><ele>853.0</ele><time>2026-05-02T12:31:23.281Z</time></trkpt><trkpt lat="42.0378526" lon="13.6664024"><ele>853.0</ele><time>2026-05-02T12:31:24.276Z</time></trkpt><trkpt lat="42.0378987" lon="13.666201"><ele>853.0</ele><time>2026-05-02T12:31:25.271Z</time></trkpt><trkpt lat="42.0379362" lon="13.6659613"><ele>853.0</ele><time>2026-05-02T12:31:26.266Z</time></trkpt><trkpt lat="42.0380018" lon="13.6657348"><ele>853.0</ele><time>2026-05-02T12:31:27.273Z</time></trkpt><trkpt lat="42.0380286" lon="13.665546"><ele>853.0</ele><time>2026-05-02T12:31:28.272Z</time></trkpt><trkpt lat="42.0380439" lon="13.6653465"><ele>853.3333333333333</ele><time>2026-05-02T12:31:29.277Z</time></trkpt><trkpt lat="42.0380656" lon="13.6651419"><ele>853.6666666666667</ele><time>2026-05-02T12:31:30.281Z</time></trkpt><trkpt lat="42.0381047" lon="13.6649542"><ele>854.0</ele><time>2026-05-02T12:31:31.273Z</time></trkpt><trkpt lat="42.0381503" lon="13.6647545"><ele>854.0</ele><time>2026-05-02T12:31:32.277Z</time></trkpt><trkpt lat="42.0382086" lon="13.6645566"><ele>854.0</ele><time>2026-05-02T12:31:33.276Z</time></trkpt><trkpt lat="42.0382738" lon="13.6643616"><ele>854.0</ele><time>2026-05-02T12:31:34.275Z</time></trkpt><trkpt lat="42.038312" lon="13.6641809"><ele>854.5</ele><time>2026-05-02T12:31:35.273Z</time></trkpt><trkpt lat="42.0383426" lon="13.6640053"><ele>855.0</ele><time>2026-05-02T12:31:36.279Z</time></trkpt><trkpt lat="42.0383699" lon="13.6638152"><ele>855.5</ele><time>2026-05-02T12:31:37.27Z</time></trkpt><trkpt lat="42.0384078" lon="13.6636116"><ele>856.0</ele><time>2026-05-02T12:31:38.296Z</time></trkpt><trkpt lat="42.03844" lon="13.6633946"><ele>856.25</ele><time>2026-05-02T12:31:39.285Z</time></trkpt><trkpt lat="42.0384755" lon="13.6631867"><ele>856.5</ele><time>2026-05-02T12:31:40.275Z</time></trkpt><trkpt lat="42.0385369" lon="13.6630133"><ele>856.75</ele><time>2026-05-02T12:31:41.28Z</time></trkpt><trkpt lat="42.0385895" lon="13.6628445"><ele>857.0</ele><time>2026-05-02T12:31:42.278Z</time></trkpt><trkpt lat="42.0386684" lon="13.6626562"><ele>858.0</ele><time>2026-05-02T12:31:43.282Z</time></trkpt><trkpt lat="42.0387381" lon="13.6624468"><ele>859.0</ele><time>2026-05-02T12:31:44.284Z</time></trkpt><trkpt lat="42.0387884" lon="13.662226"><ele>860.0</ele><time>2026-05-02T12:31:45.281Z</time></trkpt><trkpt lat="42.0388344" lon="13.6620041"><ele>860.75</ele><time>2026-05-02T12:31:46.282Z</time></trkpt><trkpt lat="42.0388856" lon="13.6618057"><ele>861.5</ele><time>2026-05-02T12:31:47.286Z</time></trkpt><trkpt lat="42.0389266" lon="13.6616048"><ele>862.25</ele><time>2026-05-02T12:31:48.276Z</time></trkpt><trkpt lat="42.0389869" lon="13.6614373"><ele>863.0</ele><time>2026-05-02T12:31:49.279Z</time></trkpt><trkpt lat="42.0390808" lon="13.6612585"><ele>861.6666666666667</ele><time>2026-05-02T12:31:50.277Z</time></trkpt><trkpt lat="42.0391548" lon="13.6610574"><ele>860.3333333333333</ele><time>2026-05-02T12:31:51.286Z</time></trkpt><trkpt lat="42.0392198" lon="13.6608393"><ele>859.0</ele><time>2026-05-02T12:31:52.29Z</time></trkpt><trkpt lat="42.0392876" lon="13.660622"><ele>859.0</ele><time>2026-05-02T12:31:53.287Z</time></trkpt><trkpt lat="42.0393584" lon="13.6604041"><ele>859.0</ele><time>2026-05-02T12:31:54.29Z</time></trkpt><trkpt lat="42.0394218" lon="13.6601893"><ele>859.0</ele><time>2026-05-02T12:31:55.286Z</time></trkpt><trkpt lat="42.0394702" lon="13.6599892"><ele>859.0</ele><time>2026-05-02T12:31:56.286Z</time></trkpt><trkpt lat="42.0395302" lon="13.6597849"><ele>859.0</ele><time>2026-05-02T12:31:57.286Z</time></trkpt><trkpt lat="42.0395935" lon="13.6595861"><ele>859.0</ele><time>2026-05-02T12:31:58.29Z</time></trkpt><trkpt lat="42.0396669" lon="13.6594083"><ele>859.25</ele><time>2026-05-02T12:31:59.287Z</time></trkpt><trkpt lat="42.0397319" lon="13.6592485"><ele>859.5</ele><time>2026-05-02T12:32:00.294Z</time></trkpt><trkpt lat="42.0397966" lon="13.6591021"><ele>859.75</ele><time>2026-05-02T12:32:01.283Z</time></trkpt><trkpt lat="42.0398669" lon="13.6589704"><ele>860.0</ele><time>2026-05-02T12:32:02.285Z</time></trkpt><trkpt lat="42.0399499" lon="13.6588368"><ele>859.5</ele><time>2026-05-02T12:32:03.285Z</time></trkpt><trkpt lat="42.0400502" lon="13.6587131"><ele>859.0</ele><time>2026-05-02T12:32:04.28Z</time></trkpt><trkpt lat="42.0401868" lon="13.6586023"><ele>858.5</ele><time>2026-05-02T12:32:05.282Z</time></trkpt><trkpt lat="42.0403161" lon="13.6584939"><ele>858.0</ele><time>2026-05-02T12:32:06.279Z</time></trkpt><trkpt lat="42.0404615" lon="13.658377"><ele>857.6666666666667</ele><time>2026-05-02T12:32:07.277Z</time></trkpt><trkpt lat="42.0406171" lon="13.6582605"><ele>857.3333333333334</ele><time>2026-05-02T12:32:08.282Z</time></trkpt><trkpt lat="42.0407836" lon="13.6581443"><ele>857.0</ele><time>2026-05-02T12:32:09.287Z</time></trkpt><trkpt lat="42.0409335" lon="13.6580365"><ele>857.3333333333334</ele><time>2026-05-02T12:32:10.284Z</time></trkpt><trkpt lat="42.0410765" lon="13.6579331"><ele>857.6666666666667</ele><time>2026-05-02T12:32:11.287Z</time></trkpt><trkpt lat="42.0412279" lon="13.6578326"><ele>858.0</ele><time>2026-05-02T12:32:12.282Z</time></trkpt><trkpt lat="42.0413722" lon="13.6577383"><ele>858.0</ele><time>2026-05-02T12:32:13.281Z</time></trkpt><trkpt lat="42.0415016" lon="13.6576576"><ele>858.0</ele><time>2026-05-02T12:32:14.292Z</time></trkpt><trkpt lat="42.0416363" lon="13.6575671"><ele>858.0</ele><time>2026-05-02T12:32:15.29Z</time></trkpt><trkpt lat="42.0417928" lon="13.6574876"><ele>858.5</ele><time>2026-05-02T12:32:16.29Z</time></trkpt><trkpt lat="42.041943" lon="13.6574126"><ele>859.0</ele><time>2026-05-02T12:32:17.288Z</time></trkpt><trkpt lat="42.042064" lon="13.6573519"><ele>859.5</ele><time>2026-05-02T12:32:18.285Z</time></trkpt><trkpt lat="42.0421491" lon="13.6573036"><ele>860.0</ele><time>2026-05-02T12:32:19.272Z</time></trkpt><trkpt lat="42.0422142" lon="13.6572601"><ele>860.0000000000001</ele><time>2026-05-02T12:32:20.283Z</time></trkpt><trkpt lat="42.0422793" lon="13.6572256"><ele>860.0</ele><time>2026-05-02T12:32:21.283Z</time></trkpt><trkpt lat="42.0423727" lon="13.6572052"><ele>860.0</ele><time>2026-05-02T12:32:23.278Z</time></trkpt><trkpt lat="42.042477" lon="13.6572694"><ele>860.0</ele><time>2026-05-02T12:32:25.28Z</time></trkpt><trkpt lat="42.0425229" lon="13.657334"><ele>860.0000000000001</ele><time>2026-05-02T12:32:26.283Z</time></trkpt><trkpt lat="42.0425613" lon="13.6574371"><ele>860.0</ele><time>2026-05-02T12:32:27.282Z</time></trkpt><trkpt lat="42.0425875" lon="13.6575541"><ele>859.8333333333334</ele><time>2026-05-02T12:32:28.282Z</time></trkpt><trkpt lat="42.042602" lon="13.657664"><ele>859.6666666666667</ele><time>2026-05-02T12:32:29.287Z</time></trkpt><trkpt lat="42.0426123" lon="13.6577601"><ele>859.5</ele><time>2026-05-02T12:32:30.283Z</time></trkpt><trkpt lat="42.0426249" lon="13.6578546"><ele>859.3333333333333</ele><time>2026-05-02T12:32:31.279Z</time></trkpt><trkpt lat="42.0426435" lon="13.6579508"><ele>859.1666666666666</ele><time>2026-05-02T12:32:33.28Z</time></trkpt><trkpt lat="42.0426557" lon="13.6580504"><ele>859.0</ele><time>2026-05-02T12:32:57.277Z</time></trkpt><trkpt lat="42.0426796" lon="13.6581714"><ele>858.9999999999999</ele><time>2026-05-02T12:32:59.279Z</time></trkpt><trkpt lat="42.0426753" lon="13.6580678"><ele>859.0</ele><time>2026-05-02T12:33:06.281Z</time></trkpt><trkpt lat="42.0426657" lon="13.6579726"><ele>859.0</ele><time>2026-05-02T12:33:14.284Z</time></trkpt><trkpt lat="42.0426353" lon="13.6578757"><ele>859.0</ele><time>2026-05-02T12:33:17.291Z</time></trkpt><trkpt lat="42.0426022" lon="13.6577928"><ele>858.9999999999999</ele><time>2026-05-02T12:33:20.292Z</time></trkpt><trkpt lat="42.0426157" lon="13.6578865"><ele>859.0</ele><time>2026-05-02T12:33:25.289Z</time></trkpt><trkpt lat="42.0426618" lon="13.6580002"><ele>859.0</ele><time>2026-05-02T12:33:27.281Z</time></trkpt><trkpt lat="42.0426842" lon="13.6580914"><ele>859.0000000000001</ele><time>2026-05-02T12:33:28.286Z</time></trkpt><trkpt lat="42.0427202" lon="13.6582065"><ele>859.0000000000001</ele><time>2026-05-02T12:33:30.274Z</time></trkpt><trkpt lat="42.0428041" lon="13.6581883"><ele>859.0</ele><time>2026-05-02T12:33:33.297Z</time></trkpt><trkpt lat="42.0428659" lon="13.6581402"><ele>859.0</ele><time>2026-05-02T12:33:35.293Z</time></trkpt><trkpt lat="42.0429813" lon="13.6580572"><ele>859.0</ele><time>2026-05-02T12:33:37.279Z</time></trkpt><trkpt lat="42.0430641" lon="13.6579968"><ele>859.0000000000001</ele><time>2026-05-02T12:33:38.288Z</time></trkpt><trkpt lat="42.0431546" lon="13.6579435"><ele>859.0000000000001</ele><time>2026-05-02T12:33:39.287Z</time></trkpt><trkpt lat="42.0432545" lon="13.6578822"><ele>859.0</ele><time>2026-05-02T12:33:40.29Z</time></trkpt><trkpt lat="42.0433606" lon="13.6578276"><ele>859.0</ele><time>2026-05-02T12:33:41.287Z</time></trkpt><trkpt lat="42.0434515" lon="13.6577809"><ele>858.8000000000001</ele><time>2026-05-02T12:33:42.287Z</time></trkpt><trkpt lat="42.0435355" lon="13.6577354"><ele>858.6000000000001</ele><time>2026-05-02T12:33:43.289Z</time></trkpt><trkpt lat="42.0436388" lon="13.6576875"><ele>858.4</ele><time>2026-05-02T12:33:44.304Z</time></trkpt><trkpt lat="42.0437481" lon="13.657638"><ele>858.2</ele><time>2026-05-02T12:33:45.369Z</time></trkpt><trkpt lat="42.0438495" lon="13.6575878"><ele>858.0</ele><time>2026-05-02T12:33:46.373Z</time></trkpt><trkpt lat="42.0439452" lon="13.6575405"><ele>858.0</ele><time>2026-05-02T12:33:47.364Z</time></trkpt><trkpt lat="42.0440332" lon="13.6575223"><ele>858.0</ele><time>2026-05-02T12:33:48.369Z</time></trkpt><trkpt lat="42.0441272" lon="13.6575365"><ele>858.0</ele><time>2026-05-02T12:33:49.364Z</time></trkpt><trkpt lat="42.0442197" lon="13.6575632"><ele>858.0</ele><time>2026-05-02T12:33:50.354Z</time></trkpt><trkpt lat="42.0443217" lon="13.6575709"><ele>858.0</ele><time>2026-05-02T12:33:51.355Z</time></trkpt><trkpt lat="42.0444228" lon="13.6575492"><ele>858.5</ele><time>2026-05-02T12:33:52.355Z</time></trkpt><trkpt lat="42.0445208" lon="13.6575116"><ele>859.0</ele><time>2026-05-02T12:33:53.349Z</time></trkpt><trkpt lat="42.0446117" lon="13.6574783"><ele>859.5</ele><time>2026-05-02T12:33:54.37Z</time></trkpt><trkpt lat="42.04469" lon="13.6574386"><ele>860.0</ele><time>2026-05-02T12:33:55.371Z</time></trkpt><trkpt lat="42.0447519" lon="13.6573956"><ele>860.5</ele><time>2026-05-02T12:33:56.371Z</time></trkpt><trkpt lat="42.0448242" lon="13.6573623"><ele>861.0</ele><time>2026-05-02T12:33:57.373Z</time></trkpt><trkpt lat="42.0449105" lon="13.6573357"><ele>861.4</ele><time>2026-05-02T12:33:58.361Z</time></trkpt><trkpt lat="42.0449971" lon="13.6573149"><ele>861.8</ele><time>2026-05-02T12:33:59.361Z</time></trkpt><trkpt lat="42.0450876" lon="13.6572821"><ele>862.1999999999999</ele><time>2026-05-02T12:34:00.359Z</time></trkpt><trkpt lat="42.0451699" lon="13.6572585"><ele>862.5999999999999</ele><time>2026-05-02T12:34:01.358Z</time></trkpt><trkpt lat="42.0452558" lon="13.6572427"><ele>863.0</ele><time>2026-05-02T12:34:02.284Z</time></trkpt><trkpt lat="42.045354" lon="13.6572438"><ele>863.0</ele><time>2026-05-02T12:34:03.282Z</time></trkpt><trkpt lat="42.0454565" lon="13.657221"><ele>863.0</ele><time>2026-05-02T12:34:04.281Z</time></trkpt><trkpt lat="42.0455728" lon="13.6571806"><ele>863.0</ele><time>2026-05-02T12:34:05.283Z</time></trkpt><trkpt lat="42.0456846" lon="13.6571201"><ele>863.0</ele><time>2026-05-02T12:34:06.285Z</time></trkpt><trkpt lat="42.045789" lon="13.6570653"><ele>863.0</ele><time>2026-05-02T12:34:07.285Z</time></trkpt><trkpt lat="42.0458871" lon="13.6570077"><ele>863.0</ele><time>2026-05-02T12:34:08.29Z</time></trkpt><trkpt lat="42.0459939" lon="13.6569522"><ele>863.0</ele><time>2026-05-02T12:34:09.283Z</time></trkpt><trkpt lat="42.0460826" lon="13.6568778"><ele>863.0</ele><time>2026-05-02T12:34:10.279Z</time></trkpt><trkpt lat="42.0461587" lon="13.6567937"><ele>863.0</ele><time>2026-05-02T12:34:11.289Z</time></trkpt><trkpt lat="42.0462327" lon="13.6567269"><ele>863.2</ele><time>2026-05-02T12:34:12.287Z</time></trkpt><trkpt lat="42.0463128" lon="13.6566728"><ele>863.4</ele><time>2026-05-02T12:34:13.289Z</time></trkpt><trkpt lat="42.046403" lon="13.6566168"><ele>863.6000000000001</ele><time>2026-05-02T12:34:14.283Z</time></trkpt><trkpt lat="42.0465011" lon="13.6565368"><ele>863.8000000000001</ele><time>2026-05-02T12:34:15.278Z</time></trkpt><trkpt lat="42.0465999" lon="13.6564443"><ele>864.0</ele><time>2026-05-02T12:34:16.288Z</time></trkpt><trkpt lat="42.0466918" lon="13.6563557"><ele>864.0</ele><time>2026-05-02T12:34:17.283Z</time></trkpt><trkpt lat="42.0467779" lon="13.6562704"><ele>864.0000000000001</ele><time>2026-05-02T12:34:18.282Z</time></trkpt><trkpt lat="42.0468645" lon="13.6562046"><ele>864.0000000000001</ele><time>2026-05-02T12:34:19.282Z</time></trkpt><trkpt lat="42.0469592" lon="13.6561476"><ele>864.0</ele><time>2026-05-02T12:34:20.287Z</time></trkpt><trkpt lat="42.0470755" lon="13.6560914"><ele>864.0</ele><time>2026-05-02T12:34:21.292Z</time></trkpt><trkpt lat="42.0471927" lon="13.6560165"><ele>863.5</ele><time>2026-05-02T12:34:22.285Z</time></trkpt><trkpt lat="42.0473069" lon="13.6559276"><ele>863.0</ele><time>2026-05-02T12:34:23.282Z</time></trkpt><trkpt lat="42.0474201" lon="13.6558306"><ele>862.5</ele><time>2026-05-02T12:34:24.288Z</time></trkpt><trkpt lat="42.0475186" lon="13.6557472"><ele>862.0</ele><time>2026-05-02T12:34:25.288Z</time></trkpt><trkpt lat="42.0476052" lon="13.65567"><ele>862.0</ele><time>2026-05-02T12:34:26.288Z</time></trkpt><trkpt lat="42.047689" lon="13.6555868"><ele>862.0</ele><time>2026-05-02T12:34:27.289Z</time></trkpt><trkpt lat="42.0477741" lon="13.6554897"><ele>862.0</ele><time>2026-05-02T12:34:28.288Z</time></trkpt><trkpt lat="42.0478656" lon="13.6553718"><ele>862.0</ele><time>2026-05-02T12:34:29.281Z</time></trkpt><trkpt lat="42.0479587" lon="13.6552214"><ele>861.75</ele><time>2026-05-02T12:34:30.292Z</time></trkpt><trkpt lat="42.0480536" lon="13.655084"><ele>861.5</ele><time>2026-05-02T12:34:31.285Z</time></trkpt><trkpt lat="42.048157" lon="13.6549482"><ele>861.25</ele><time>2026-05-02T12:34:32.29Z</time></trkpt><trkpt lat="42.0482449" lon="13.6548287"><ele>861.0</ele><time>2026-05-02T12:34:33.279Z</time></trkpt><trkpt lat="42.0483148" lon="13.6547207"><ele>861.0</ele><time>2026-05-02T12:34:34.283Z</time></trkpt><trkpt lat="42.0483648" lon="13.6546012"><ele>861.0</ele><time>2026-05-02T12:34:35.286Z</time></trkpt><trkpt lat="42.0484321" lon="13.6544819"><ele>861.0</ele><time>2026-05-02T12:34:36.285Z</time></trkpt><trkpt lat="42.0485114" lon="13.6543523"><ele>861.0</ele><time>2026-05-02T12:34:37.281Z</time></trkpt><trkpt lat="42.048611" lon="13.6542654"><ele>860.5</ele><time>2026-05-02T12:34:38.28Z</time></trkpt><trkpt lat="42.048705" lon="13.6541889"><ele>860.0</ele><time>2026-05-02T12:34:39.282Z</time></trkpt><trkpt lat="42.0487907" lon="13.6540995"><ele>859.5</ele><time>2026-05-02T12:34:40.279Z</time></trkpt><trkpt lat="42.0488736" lon="13.6539819"><ele>859.0</ele><time>2026-05-02T12:34:41.282Z</time></trkpt><trkpt lat="42.0489452" lon="13.6538596"><ele>859.0</ele><time>2026-05-02T12:34:42.275Z</time></trkpt><trkpt lat="42.0490286" lon="13.6537812"><ele>859.0000000000001</ele><time>2026-05-02T12:34:43.281Z</time></trkpt><trkpt lat="42.049122" lon="13.6536952"><ele>859.0000000000001</ele><time>2026-05-02T12:34:44.285Z</time></trkpt><trkpt lat="42.0492162" lon="13.6536149"><ele>859.0</ele><time>2026-05-02T12:34:45.284Z</time></trkpt><trkpt lat="42.0492952" lon="13.6535293"><ele>859.0</ele><time>2026-05-02T12:34:46.286Z</time></trkpt><trkpt lat="42.0493764" lon="13.6534132"><ele>858.6</ele><time>2026-05-02T12:34:47.283Z</time></trkpt><trkpt lat="42.0494578" lon="13.6532823"><ele>858.2</ele><time>2026-05-02T12:34:48.29Z</time></trkpt><trkpt lat="42.0495324" lon="13.6531613"><ele>857.8000000000001</ele><time>2026-05-02T12:34:49.282Z</time></trkpt><trkpt lat="42.0496019" lon="13.6530831"><ele>857.4000000000001</ele><time>2026-05-02T12:34:50.278Z</time></trkpt><trkpt lat="42.0496642" lon="13.6530156"><ele>857.0</ele><time>2026-05-02T12:34:51.285Z</time></trkpt><trkpt lat="42.0497185" lon="13.6529141"><ele>857.0</ele><time>2026-05-02T12:34:52.282Z</time></trkpt><trkpt lat="42.0497691" lon="13.6528017"><ele>857.0</ele><time>2026-05-02T12:34:53.284Z</time></trkpt><trkpt lat="42.0498112" lon="13.6526878"><ele>857.0</ele><time>2026-05-02T12:34:54.286Z</time></trkpt><trkpt lat="42.0498524" lon="13.6525659"><ele>857.0</ele><time>2026-05-02T12:34:55.281Z</time></trkpt><trkpt lat="42.0499051" lon="13.6524543"><ele>857.0</ele><time>2026-05-02T12:34:56.288Z</time></trkpt><trkpt lat="42.0499748" lon="13.6523464"><ele>857.2</ele><time>2026-05-02T12:34:57.287Z</time></trkpt><trkpt lat="42.0500633" lon="13.652243"><ele>857.4000000000001</ele><time>2026-05-02T12:34:58.291Z</time></trkpt><trkpt lat="42.0501624" lon="13.6521345"><ele>857.5999999999999</ele><time>2026-05-02T12:34:59.292Z</time></trkpt><trkpt lat="42.050247" lon="13.6520514"><ele>857.8</ele><time>2026-05-02T12:35:00.284Z</time></trkpt><trkpt lat="42.0503287" lon="13.6519873"><ele>858.0</ele><time>2026-05-02T12:35:01.293Z</time></trkpt><trkpt lat="42.0504085" lon="13.6519224"><ele>857.4</ele><time>2026-05-02T12:35:02.286Z</time></trkpt><trkpt lat="42.050487" lon="13.6518713"><ele>856.8</ele><time>2026-05-02T12:35:03.288Z</time></trkpt><trkpt lat="42.0505809" lon="13.6518305"><ele>856.2</ele><time>2026-05-02T12:35:04.279Z</time></trkpt><trkpt lat="42.0506892" lon="13.6517748"><ele>855.6</ele><time>2026-05-02T12:35:05.285Z</time></trkpt><trkpt lat="42.0507812" lon="13.6517031"><ele>855.0</ele><time>2026-05-02T12:35:06.28Z</time></trkpt><trkpt lat="42.0508546" lon="13.651627"><ele>855.6</ele><time>2026-05-02T12:35:07.275Z</time></trkpt><trkpt lat="42.0509094" lon="13.6515386"><ele>856.2</ele><time>2026-05-02T12:35:08.276Z</time></trkpt><trkpt lat="42.0509401" lon="13.6514213"><ele>856.8</ele><time>2026-05-02T12:35:09.284Z</time></trkpt><trkpt lat="42.0509789" lon="13.6512722"><ele>857.4</ele><time>2026-05-02T12:35:10.28Z</time></trkpt><trkpt lat="42.0509981" lon="13.6511462"><ele>858.0</ele><time>2026-05-02T12:35:11.271Z</time></trkpt><trkpt lat="42.0509896" lon="13.651002"><ele>858.0</ele><time>2026-05-02T12:35:12.276Z</time></trkpt><trkpt lat="42.0509596" lon="13.6508392"><ele>858.0</ele><time>2026-05-02T12:35:13.276Z</time></trkpt><trkpt lat="42.0509109" lon="13.6506826"><ele>858.0</ele><time>2026-05-02T12:35:14.277Z</time></trkpt><trkpt lat="42.0508716" lon="13.6505539"><ele>858.0</ele><time>2026-05-02T12:35:15.271Z</time></trkpt><trkpt lat="42.0508516" lon="13.6504495"><ele>858.0</ele><time>2026-05-02T12:35:16.273Z</time></trkpt><trkpt lat="42.0508696" lon="13.6502892"><ele>857.0</ele><time>2026-05-02T12:35:18.277Z</time></trkpt><trkpt lat="42.0509075" lon="13.6502059"><ele>856.0</ele><time>2026-05-02T12:35:19.274Z</time></trkpt><trkpt lat="42.0509624" lon="13.6501121"><ele>855.0</ele><time>2026-05-02T12:35:20.281Z</time></trkpt><trkpt lat="42.0510371" lon="13.6499967"><ele>854.0</ele><time>2026-05-02T12:35:21.278Z</time></trkpt><trkpt lat="42.0511193" lon="13.6498795"><ele>853.0</ele><time>2026-05-02T12:35:22.283Z</time></trkpt><trkpt lat="42.0512085" lon="13.6497532"><ele>853.0</ele><time>2026-05-02T12:35:23.281Z</time></trkpt><trkpt lat="42.0513041" lon="13.649618"><ele>853.0</ele><time>2026-05-02T12:35:24.284Z</time></trkpt><trkpt lat="42.0514037" lon="13.6494816"><ele>853.0</ele><time>2026-05-02T12:35:25.286Z</time></trkpt><trkpt lat="42.0514956" lon="13.6493554"><ele>853.0</ele><time>2026-05-02T12:35:26.285Z</time></trkpt><trkpt lat="42.0515454" lon="13.6492068"><ele>852.75</ele><time>2026-05-02T12:35:27.28Z</time></trkpt><trkpt lat="42.0515974" lon="13.6490478"><ele>852.5</ele><time>2026-05-02T12:35:28.287Z</time></trkpt><trkpt lat="42.0516482" lon="13.6489012"><ele>852.25</ele><time>2026-05-02T12:35:29.28Z</time></trkpt><trkpt lat="42.0516822" lon="13.6487656"><ele>852.0</ele><time>2026-05-02T12:35:30.291Z</time></trkpt><trkpt lat="42.0517343" lon="13.648631"><ele>852.0</ele><time>2026-05-02T12:35:31.284Z</time></trkpt><trkpt lat="42.0518053" lon="13.6485097"><ele>852.0</ele><time>2026-05-02T12:35:32.28Z</time></trkpt><trkpt lat="42.0518997" lon="13.648412"><ele>852.0</ele><time>2026-05-02T12:35:33.284Z</time></trkpt><trkpt lat="42.0520019" lon="13.6483026"><ele>852.0</ele><time>2026-05-02T12:35:34.284Z</time></trkpt><trkpt lat="42.0520994" lon="13.6481764"><ele>852.0</ele><time>2026-05-02T12:35:35.282Z</time></trkpt><trkpt lat="42.0522047" lon="13.6480696"><ele>852.0</ele><time>2026-05-02T12:35:36.28Z</time></trkpt><trkpt lat="42.0523155" lon="13.6479663"><ele>852.0</ele><time>2026-05-02T12:35:37.28Z</time></trkpt><trkpt lat="42.0524252" lon="13.6478489"><ele>852.0</ele><time>2026-05-02T12:35:38.283Z</time></trkpt><trkpt lat="42.0525391" lon="13.6477209"><ele>852.25</ele><time>2026-05-02T12:35:39.275Z</time></trkpt><trkpt lat="42.0526578" lon="13.6475827"><ele>852.5</ele><time>2026-05-02T12:35:40.283Z</time></trkpt><trkpt lat="42.0527563" lon="13.6474533"><ele>852.75</ele><time>2026-05-02T12:35:41.277Z</time></trkpt><trkpt lat="42.0528481" lon="13.6473511"><ele>853.0</ele><time>2026-05-02T12:35:42.274Z</time></trkpt><trkpt lat="42.0529285" lon="13.6472529"><ele>853.0</ele><time>2026-05-02T12:35:43.282Z</time></trkpt><trkpt lat="42.0530188" lon="13.6471584"><ele>853.0</ele><time>2026-05-02T12:35:44.285Z</time></trkpt><trkpt lat="42.0531206" lon="13.6470766"><ele>853.0</ele><time>2026-05-02T12:35:45.282Z</time></trkpt><trkpt lat="42.0532188" lon="13.6469961"><ele>853.0</ele><time>2026-05-02T12:35:46.281Z</time></trkpt><trkpt lat="42.0533141" lon="13.6469105"><ele>853.5</ele><time>2026-05-02T12:35:47.279Z</time></trkpt><trkpt lat="42.0534049" lon="13.6468113"><ele>854.0</ele><time>2026-05-02T12:35:48.285Z</time></trkpt><trkpt lat="42.053492" lon="13.6467189"><ele>854.5</ele><time>2026-05-02T12:35:49.277Z</time></trkpt><trkpt lat="42.053589" lon="13.6466197"><ele>855.0</ele><time>2026-05-02T12:35:50.281Z</time></trkpt><trkpt lat="42.0536824" lon="13.6465035"><ele>855.0</ele><time>2026-05-02T12:35:51.284Z</time></trkpt><trkpt lat="42.0537803" lon="13.6463822"><ele>855.0</ele><time>2026-05-02T12:35:52.281Z</time></trkpt><trkpt lat="42.0538841" lon="13.6462564"><ele>855.0</ele><time>2026-05-02T12:35:53.279Z</time></trkpt><trkpt lat="42.0540002" lon="13.6461173"><ele>855.0</ele><time>2026-05-02T12:35:54.286Z</time></trkpt><trkpt lat="42.0541049" lon="13.6459916"><ele>854.5</ele><time>2026-05-02T12:35:55.283Z</time></trkpt><trkpt lat="42.0541987" lon="13.645864"><ele>854.0</ele><time>2026-05-02T12:35:56.283Z</time></trkpt><trkpt lat="42.0542866" lon="13.6457491"><ele>853.5</ele><time>2026-05-02T12:35:57.279Z</time></trkpt><trkpt lat="42.0543715" lon="13.6456488"><ele>853.0</ele><time>2026-05-02T12:35:58.278Z</time></trkpt><trkpt lat="42.0544818" lon="13.6455531"><ele>853.0</ele><time>2026-05-02T12:35:59.298Z</time></trkpt><trkpt lat="42.0545754" lon="13.6454464"><ele>853.0</ele><time>2026-05-02T12:36:00.368Z</time></trkpt><trkpt lat="42.0546472" lon="13.6453295"><ele>853.0</ele><time>2026-05-02T12:36:01.367Z</time></trkpt><trkpt lat="42.0547286" lon="13.6452146"><ele>853.0</ele><time>2026-05-02T12:36:02.365Z</time></trkpt><trkpt lat="42.0547918" lon="13.6451023"><ele>853.2</ele><time>2026-05-02T12:36:03.366Z</time></trkpt><trkpt lat="42.054847" lon="13.6449831"><ele>853.4</ele><time>2026-05-02T12:36:04.368Z</time></trkpt><trkpt lat="42.0548923" lon="13.6448618"><ele>853.6000000000001</ele><time>2026-05-02T12:36:05.361Z</time></trkpt><trkpt lat="42.0549392" lon="13.644717"><ele>853.8000000000001</ele><time>2026-05-02T12:36:06.353Z</time></trkpt><trkpt lat="42.0549743" lon="13.6445713"><ele>854.0</ele><time>2026-05-02T12:36:07.348Z</time></trkpt><trkpt lat="42.0549984" lon="13.6444431"><ele>853.4000000000001</ele><time>2026-05-02T12:36:08.357Z</time></trkpt><trkpt lat="42.0550168" lon="13.6443186"><ele>852.8000000000001</ele><time>2026-05-02T12:36:09.35Z</time></trkpt><trkpt lat="42.055039" lon="13.6442109"><ele>852.2</ele><time>2026-05-02T12:36:10.363Z</time></trkpt><trkpt lat="42.0550756" lon="13.6441134"><ele>851.5999999999999</ele><time>2026-05-02T12:36:11.364Z</time></trkpt><trkpt lat="42.055122" lon="13.6439995"><ele>851.0</ele><time>2026-05-02T12:36:12.366Z</time></trkpt><trkpt lat="42.0551672" lon="13.6438786"><ele>851.0</ele><time>2026-05-02T12:36:13.353Z</time></trkpt><trkpt lat="42.0552104" lon="13.6437363"><ele>851.0</ele><time>2026-05-02T12:36:14.356Z</time></trkpt><trkpt lat="42.0552463" lon="13.6435833"><ele>851.0</ele><time>2026-05-02T12:36:15.356Z</time></trkpt><trkpt lat="42.055275" lon="13.643426"><ele>851.0</ele><time>2026-05-02T12:36:16.358Z</time></trkpt><trkpt lat="42.0553026" lon="13.6432723"><ele>851.0</ele><time>2026-05-02T12:36:17.373Z</time></trkpt><trkpt lat="42.0553279" lon="13.6431308"><ele>851.0</ele><time>2026-05-02T12:36:18.369Z</time></trkpt><trkpt lat="42.0553594" lon="13.6429886"><ele>851.0</ele><time>2026-05-02T12:36:19.372Z</time></trkpt><trkpt lat="42.0553959" lon="13.6428408"><ele>851.0</ele><time>2026-05-02T12:36:20.373Z</time></trkpt><trkpt lat="42.0554379" lon="13.6426938"><ele>851.0000000000001</ele><time>2026-05-02T12:36:21.371Z</time></trkpt><trkpt lat="42.0554866" lon="13.6425693"><ele>851.0</ele><time>2026-05-02T12:36:22.374Z</time></trkpt><trkpt lat="42.0555296" lon="13.6424632"><ele>851.0</ele><time>2026-05-02T12:36:23.354Z</time></trkpt><trkpt lat="42.0555766" lon="13.642368"><ele>851.0</ele><time>2026-05-02T12:36:24.357Z</time></trkpt><trkpt lat="42.0556313" lon="13.6422998"><ele>851.0000000000001</ele><time>2026-05-02T12:36:25.356Z</time></trkpt><trkpt lat="42.055706" lon="13.6422426"><ele>851.0</ele><time>2026-05-02T12:36:26.357Z</time></trkpt><trkpt lat="42.0557959" lon="13.6421922"><ele>852.5</ele><time>2026-05-02T12:36:27.367Z</time></trkpt><trkpt lat="42.0559003" lon="13.6421444"><ele>854.0</ele><time>2026-05-02T12:36:28.369Z</time></trkpt><trkpt lat="42.0560231" lon="13.6421079"><ele>855.5</ele><time>2026-05-02T12:36:29.37Z</time></trkpt><trkpt lat="42.0561469" lon="13.6420574"><ele>857.0</ele><time>2026-05-02T12:36:30.29Z</time></trkpt><trkpt lat="42.0562592" lon="13.6420006"><ele>856.0</ele><time>2026-05-02T12:36:31.286Z</time></trkpt><trkpt lat="42.0563624" lon="13.6419433"><ele>855.0</ele><time>2026-05-02T12:36:32.291Z</time></trkpt><trkpt lat="42.056472" lon="13.6418931"><ele>854.0</ele><time>2026-05-02T12:36:33.28Z</time></trkpt><trkpt lat="42.0566013" lon="13.6418374"><ele>853.0</ele><time>2026-05-02T12:36:34.286Z</time></trkpt><trkpt lat="42.0567238" lon="13.641787"><ele>853.0</ele><time>2026-05-02T12:36:35.286Z</time></trkpt><trkpt lat="42.0568318" lon="13.6417354"><ele>853.0</ele><time>2026-05-02T12:36:36.283Z</time></trkpt><trkpt lat="42.0569309" lon="13.6417085"><ele>853.0</ele><time>2026-05-02T12:36:37.287Z</time></trkpt><trkpt lat="42.0570275" lon="13.6416977"><ele>853.0</ele><time>2026-05-02T12:36:38.279Z</time></trkpt><trkpt lat="42.057134" lon="13.6417157"><ele>853.0</ele><time>2026-05-02T12:36:39.281Z</time></trkpt><trkpt lat="42.0572464" lon="13.6417622"><ele>853.0</ele><time>2026-05-02T12:36:40.282Z</time></trkpt><trkpt lat="42.0573747" lon="13.6417975"><ele>853.0</ele><time>2026-05-02T12:36:41.282Z</time></trkpt><trkpt lat="42.0574946" lon="13.6417899"><ele>853.0</ele><time>2026-05-02T12:36:42.282Z</time></trkpt><trkpt lat="42.0576127" lon="13.641759"><ele>853.0</ele><time>2026-05-02T12:36:43.288Z</time></trkpt><trkpt lat="42.0577308" lon="13.6417171"><ele>853.5</ele><time>2026-05-02T12:36:44.283Z</time></trkpt><trkpt lat="42.057847" lon="13.6416636"><ele>854.0</ele><time>2026-05-02T12:36:45.281Z</time></trkpt><trkpt lat="42.0579699" lon="13.6415919"><ele>854.5</ele><time>2026-05-02T12:36:46.283Z</time></trkpt><trkpt lat="42.0580845" lon="13.6415347"><ele>855.0</ele><time>2026-05-02T12:36:47.285Z</time></trkpt><trkpt lat="42.0582036" lon="13.64149"><ele>855.5</ele><time>2026-05-02T12:36:48.287Z</time></trkpt><trkpt lat="42.058331" lon="13.6414287"><ele>856.0</ele><time>2026-05-02T12:36:49.284Z</time></trkpt><trkpt lat="42.0584526" lon="13.6413642"><ele>856.5</ele><time>2026-05-02T12:36:50.281Z</time></trkpt><trkpt lat="42.0585743" lon="13.6413104"><ele>857.0</ele><time>2026-05-02T12:36:51.288Z</time></trkpt><trkpt lat="42.0586825" lon="13.6412633"><ele>857.0</ele><time>2026-05-02T12:36:52.288Z</time></trkpt><trkpt lat="42.058796" lon="13.6412147"><ele>857.0</ele><time>2026-05-02T12:36:53.288Z</time></trkpt><trkpt lat="42.0589236" lon="13.6411994"><ele>857.0</ele><time>2026-05-02T12:36:54.284Z</time></trkpt><trkpt lat="42.0590501" lon="13.6411911"><ele>857.0</ele><time>2026-05-02T12:36:55.285Z</time></trkpt><trkpt lat="42.0591735" lon="13.6411754"><ele>857.5</ele><time>2026-05-02T12:36:56.291Z</time></trkpt><trkpt lat="42.0592971" lon="13.6411589"><ele>858.0</ele><time>2026-05-02T12:36:57.288Z</time></trkpt><trkpt lat="42.0594322" lon="13.6411529"><ele>858.5</ele><time>2026-05-02T12:36:58.291Z</time></trkpt><trkpt lat="42.0595882" lon="13.6411458"><ele>859.0</ele><time>2026-05-02T12:36:59.288Z</time></trkpt><trkpt lat="42.0597412" lon="13.6411518"><ele>859.0</ele><time>2026-05-02T12:37:00.288Z</time></trkpt><trkpt lat="42.0598655" lon="13.6411539"><ele>859.0</ele><time>2026-05-02T12:37:01.286Z</time></trkpt><trkpt lat="42.0599836" lon="13.6411601"><ele>859.0</ele><time>2026-05-02T12:37:02.288Z</time></trkpt><trkpt lat="42.0600944" lon="13.641184"><ele>859.0</ele><time>2026-05-02T12:37:03.29Z</time></trkpt><trkpt lat="42.0602122" lon="13.6412059"><ele>859.25</ele><time>2026-05-02T12:37:04.286Z</time></trkpt><trkpt lat="42.0603355" lon="13.6412293"><ele>859.5</ele><time>2026-05-02T12:37:05.289Z</time></trkpt><trkpt lat="42.060478" lon="13.6412257"><ele>859.75</ele><time>2026-05-02T12:37:06.277Z</time></trkpt><trkpt lat="42.0606201" lon="13.6412149"><ele>860.0</ele><time>2026-05-02T12:37:07.282Z</time></trkpt><trkpt lat="42.0607785" lon="13.6411961"><ele>860.0</ele><time>2026-05-02T12:37:08.287Z</time></trkpt><trkpt lat="42.0609274" lon="13.6411723"><ele>860.0</ele><time>2026-05-02T12:37:09.289Z</time></trkpt><trkpt lat="42.0610583" lon="13.6411523"><ele>860.0</ele><time>2026-05-02T12:37:10.292Z</time></trkpt><trkpt lat="42.0611874" lon="13.6411168"><ele>860.0</ele><time>2026-05-02T12:37:11.289Z</time></trkpt><trkpt lat="42.0613098" lon="13.641076"><ele>860.0</ele><time>2026-05-02T12:37:12.289Z</time></trkpt><trkpt lat="42.0614229" lon="13.6410386"><ele>860.0</ele><time>2026-05-02T12:37:13.292Z</time></trkpt><trkpt lat="42.0615366" lon="13.6409944"><ele>860.0</ele><time>2026-05-02T12:37:14.284Z</time></trkpt><trkpt lat="42.0616547" lon="13.6409454"><ele>860.0</ele><time>2026-05-02T12:37:15.281Z</time></trkpt><trkpt lat="42.0617761" lon="13.6408807"><ele>861.75</ele><time>2026-05-02T12:37:16.278Z</time></trkpt><trkpt lat="42.0618958" lon="13.6407988"><ele>863.5</ele><time>2026-05-02T12:37:17.28Z</time></trkpt><trkpt lat="42.062009" lon="13.6406978"><ele>865.25</ele><time>2026-05-02T12:37:18.277Z</time></trkpt><trkpt lat="42.0621254" lon="13.6405836"><ele>867.0</ele><time>2026-05-02T12:37:19.283Z</time></trkpt><trkpt lat="42.0622337" lon="13.640457"><ele>867.0</ele><time>2026-05-02T12:37:20.279Z</time></trkpt><trkpt lat="42.0623129" lon="13.6403418"><ele>867.0</ele><time>2026-05-02T12:37:21.282Z</time></trkpt><trkpt lat="42.0623957" lon="13.6402425"><ele>867.0</ele><time>2026-05-02T12:37:22.285Z</time></trkpt><trkpt lat="42.0624778" lon="13.6401447"><ele>867.0</ele><time>2026-05-02T12:37:23.283Z</time></trkpt><trkpt lat="42.0625619" lon="13.6400448"><ele>867.0</ele><time>2026-05-02T12:37:24.283Z</time></trkpt><trkpt lat="42.0626399" lon="13.639949"><ele>867.0</ele><time>2026-05-02T12:37:25.286Z</time></trkpt><trkpt lat="42.0627245" lon="13.6398622"><ele>867.0</ele><time>2026-05-02T12:37:26.286Z</time></trkpt><trkpt lat="42.0628289" lon="13.6397685"><ele>867.0</ele><time>2026-05-02T12:37:27.282Z</time></trkpt><trkpt lat="42.0629553" lon="13.6396866"><ele>867.0</ele><time>2026-05-02T12:37:28.287Z</time></trkpt><trkpt lat="42.0630921" lon="13.6396011"><ele>867.0</ele><time>2026-05-02T12:37:29.287Z</time></trkpt><trkpt lat="42.0632245" lon="13.6395123"><ele>867.0</ele><time>2026-05-02T12:37:30.29Z</time></trkpt><trkpt lat="42.0633659" lon="13.6394064"><ele>867.0</ele><time>2026-05-02T12:37:31.281Z</time></trkpt><trkpt lat="42.0634975" lon="13.6393146"><ele>866.5</ele><time>2026-05-02T12:37:32.281Z</time></trkpt><trkpt lat="42.0636149" lon="13.6392252"><ele>866.0</ele><time>2026-05-02T12:37:33.282Z</time></trkpt><trkpt lat="42.0637174" lon="13.6391283"><ele>865.5</ele><time>2026-05-02T12:37:34.29Z</time></trkpt><trkpt lat="42.06383" lon="13.6390162"><ele>865.0</ele><time>2026-05-02T12:37:35.286Z</time></trkpt><trkpt lat="42.0639398" lon="13.6388943"><ele>865.0</ele><time>2026-05-02T12:37:36.282Z</time></trkpt><trkpt lat="42.0640465" lon="13.6387699"><ele>865.0</ele><time>2026-05-02T12:37:37.285Z</time></trkpt><trkpt lat="42.0641695" lon="13.6386671"><ele>865.0</ele><time>2026-05-02T12:37:38.292Z</time></trkpt><trkpt lat="42.0642899" lon="13.6385691"><ele>865.0</ele><time>2026-05-02T12:37:39.282Z</time></trkpt><trkpt lat="42.0643961" lon="13.638478"><ele>864.75</ele><time>2026-05-02T12:37:40.286Z</time></trkpt><trkpt lat="42.0644901" lon="13.6384027"><ele>864.5</ele><time>2026-05-02T12:37:41.285Z</time></trkpt><trkpt lat="42.0645967" lon="13.6383057"><ele>864.25</ele><time>2026-05-02T12:37:42.281Z</time></trkpt><trkpt lat="42.0647038" lon="13.6381933"><ele>864.0</ele><time>2026-05-02T12:37:43.288Z</time></trkpt><trkpt lat="42.0648241" lon="13.6380575"><ele>864.3333333333333</ele><time>2026-05-02T12:37:44.282Z</time></trkpt><trkpt lat="42.0649474" lon="13.6379223"><ele>864.6666666666666</ele><time>2026-05-02T12:37:45.283Z</time></trkpt><trkpt lat="42.0650735" lon="13.6377895"><ele>865.0</ele><time>2026-05-02T12:37:46.286Z</time></trkpt><trkpt lat="42.0651771" lon="13.6376611"><ele>865.0</ele><time>2026-05-02T12:37:47.282Z</time></trkpt><trkpt lat="42.0652906" lon="13.6375402"><ele>865.0</ele><time>2026-05-02T12:37:48.284Z</time></trkpt><trkpt lat="42.0653812" lon="13.637432"><ele>865.0</ele><time>2026-05-02T12:37:49.283Z</time></trkpt><trkpt lat="42.0654691" lon="13.6373152"><ele>865.0</ele><time>2026-05-02T12:37:50.282Z</time></trkpt><trkpt lat="42.0655771" lon="13.637216"><ele>865.0</ele><time>2026-05-02T12:37:51.279Z</time></trkpt><trkpt lat="42.0657102" lon="13.637121"><ele>865.0</ele><time>2026-05-02T12:37:52.284Z</time></trkpt><trkpt lat="42.0658385" lon="13.6370318"><ele>865.0</ele><time>2026-05-02T12:37:53.283Z</time></trkpt><trkpt lat="42.0659472" lon="13.6369297"><ele>865.0</ele><time>2026-05-02T12:37:54.283Z</time></trkpt><trkpt lat="42.0660711" lon="13.6368242"><ele>865.25</ele><time>2026-05-02T12:37:55.278Z</time></trkpt><trkpt lat="42.0662041" lon="13.6367156"><ele>865.5</ele><time>2026-05-02T12:37:56.279Z</time></trkpt><trkpt lat="42.0663196" lon="13.636614"><ele>865.75</ele><time>2026-05-02T12:37:57.281Z</time></trkpt><trkpt lat="42.0664394" lon="13.6365277"><ele>866.0</ele><time>2026-05-02T12:37:58.289Z</time></trkpt><trkpt lat="42.066566" lon="13.6364323"><ele>867.25</ele><time>2026-05-02T12:37:59.286Z</time></trkpt><trkpt lat="42.0666817" lon="13.6363357"><ele>868.5</ele><time>2026-05-02T12:38:00.287Z</time></trkpt><trkpt lat="42.066794" lon="13.6362313"><ele>869.75</ele><time>2026-05-02T12:38:01.281Z</time></trkpt><trkpt lat="42.0669122" lon="13.6361413"><ele>871.0</ele><time>2026-05-02T12:38:02.281Z</time></trkpt><trkpt lat="42.067008" lon="13.6360562"><ele>871.0</ele><time>2026-05-02T12:38:03.283Z</time></trkpt><trkpt lat="42.0670853" lon="13.6359877"><ele>870.9999999999999</ele><time>2026-05-02T12:38:04.284Z</time></trkpt><trkpt lat="42.0671549" lon="13.6359178"><ele>870.9999999999999</ele><time>2026-05-02T12:38:05.28Z</time></trkpt><trkpt lat="42.0672097" lon="13.6358634"><ele>871.0</ele><time>2026-05-02T12:38:06.281Z</time></trkpt><trkpt lat="42.0673435" lon="13.6358454"><ele>871.0</ele><time>2026-05-02T12:38:08.285Z</time></trkpt><trkpt lat="42.0674357" lon="13.6358379"><ele>873.0</ele><time>2026-05-02T12:38:09.284Z</time></trkpt><trkpt lat="42.0675223" lon="13.6357968"><ele>875.0</ele><time>2026-05-02T12:38:10.288Z</time></trkpt><trkpt lat="42.0676145" lon="13.6357176"><ele>877.0</ele><time>2026-05-02T12:38:11.281Z</time></trkpt><trkpt lat="42.06772" lon="13.6356295"><ele>879.0</ele><time>2026-05-02T12:38:12.288Z</time></trkpt><trkpt lat="42.0678385" lon="13.6355155"><ele>879.0</ele><time>2026-05-02T12:38:13.288Z</time></trkpt><trkpt lat="42.0679496" lon="13.6354136"><ele>879.0</ele><time>2026-05-02T12:38:14.285Z</time></trkpt><trkpt lat="42.0680562" lon="13.6353146"><ele>879.0</ele><time>2026-05-02T12:38:15.285Z</time></trkpt><trkpt lat="42.0681662" lon="13.6352004"><ele>879.0</ele><time>2026-05-02T12:38:16.289Z</time></trkpt><trkpt lat="42.0682679" lon="13.6351"><ele>880.5</ele><time>2026-05-02T12:38:17.282Z</time></trkpt><trkpt lat="42.0683647" lon="13.635003"><ele>882.0</ele><time>2026-05-02T12:38:18.287Z</time></trkpt><trkpt lat="42.0684473" lon="13.6348991"><ele>883.5</ele><time>2026-05-02T12:38:19.284Z</time></trkpt><trkpt lat="42.0685344" lon="13.6347964"><ele>885.0</ele><time>2026-05-02T12:38:20.282Z</time></trkpt><trkpt lat="42.068633" lon="13.6346913"><ele>885.0</ele><time>2026-05-02T12:38:21.289Z</time></trkpt><trkpt lat="42.0687361" lon="13.6345829"><ele>885.0</ele><time>2026-05-02T12:38:22.295Z</time></trkpt><trkpt lat="42.068831" lon="13.6344723"><ele>885.0</ele><time>2026-05-02T12:38:23.287Z</time></trkpt><trkpt lat="42.0689163" lon="13.6343709"><ele>885.0</ele><time>2026-05-02T12:38:24.286Z</time></trkpt><trkpt lat="42.0689945" lon="13.6342658"><ele>884.4</ele><time>2026-05-02T12:38:25.292Z</time></trkpt><trkpt lat="42.0690777" lon="13.6341646"><ele>883.8</ele><time>2026-05-02T12:38:26.292Z</time></trkpt><trkpt lat="42.0691478" lon="13.6340671"><ele>883.2</ele><time>2026-05-02T12:38:27.29Z</time></trkpt><trkpt lat="42.0692093" lon="13.6339765"><ele>882.6</ele><time>2026-05-02T12:38:28.292Z</time></trkpt><trkpt lat="42.0692584" lon="13.6339065"><ele>882.0</ele><time>2026-05-02T12:38:29.283Z</time></trkpt><trkpt lat="42.0693457" lon="13.6338133"><ele>883.2</ele><time>2026-05-02T12:38:31.289Z</time></trkpt><trkpt lat="42.0694629" lon="13.6338556"><ele>884.4000000000001</ele><time>2026-05-02T12:38:33.283Z</time></trkpt><trkpt lat="42.0695237" lon="13.6339069"><ele>885.5999999999999</ele><time>2026-05-02T12:38:34.291Z</time></trkpt><trkpt lat="42.0696077" lon="13.6339703"><ele>886.8</ele><time>2026-05-02T12:38:36.29Z</time></trkpt><trkpt lat="42.069661" lon="13.6340455"><ele>888.0</ele><time>2026-05-02T12:38:38.285Z</time></trkpt><trkpt lat="42.0696656" lon="13.6341888"><ele>888.0</ele><time>2026-05-02T12:38:40.28Z</time></trkpt><trkpt lat="42.0696652" lon="13.6342892"><ele>888.0</ele><time>2026-05-02T12:38:44.299Z</time></trkpt><trkpt lat="42.0696862" lon="13.6343899"><ele>888.0</ele><time>2026-05-02T12:39:00.288Z</time></trkpt><trkpt lat="42.0697505" lon="13.6344622"><ele>888.0</ele><time>2026-05-02T12:39:34.301Z</time></trkpt><trkpt lat="42.0698199" lon="13.6345804"><ele>888.0</ele><time>2026-05-02T12:39:36.293Z</time></trkpt><trkpt lat="42.0698794" lon="13.6346749"><ele>888.0</ele><time>2026-05-02T12:39:37.295Z</time></trkpt><trkpt lat="42.0699412" lon="13.6347762"><ele>888.2</ele><time>2026-05-02T12:39:38.297Z</time></trkpt><trkpt lat="42.0700119" lon="13.6348806"><ele>888.4</ele><time>2026-05-02T12:39:39.295Z</time></trkpt><trkpt lat="42.0700798" lon="13.6349947"><ele>888.6000000000001</ele><time>2026-05-02T12:39:40.301Z</time></trkpt><trkpt lat="42.0701411" lon="13.6351098"><ele>888.8000000000001</ele><time>2026-05-02T12:39:41.296Z</time></trkpt><trkpt lat="42.0702039" lon="13.6352304"><ele>889.0</ele><time>2026-05-02T12:39:42.297Z</time></trkpt><trkpt lat="42.0702669" lon="13.6353434"><ele>893.0</ele><time>2026-05-02T12:39:43.297Z</time></trkpt><trkpt lat="42.070341" lon="13.635468"><ele>897.0</ele><time>2026-05-02T12:39:44.297Z</time></trkpt><trkpt lat="42.0704121" lon="13.635598"><ele>901.0</ele><time>2026-05-02T12:39:45.294Z</time></trkpt><trkpt lat="42.0704896" lon="13.6357327"><ele>905.0</ele><time>2026-05-02T12:39:46.294Z</time></trkpt><trkpt lat="42.0705726" lon="13.635878"><ele>905.0</ele><time>2026-05-02T12:39:47.288Z</time></trkpt><trkpt lat="42.0706534" lon="13.6360311"><ele>905.0</ele><time>2026-05-02T12:39:48.289Z</time></trkpt><trkpt lat="42.0707336" lon="13.6361833"><ele>905.0</ele><time>2026-05-02T12:39:49.311Z</time></trkpt><trkpt lat="42.0708193" lon="13.6363383"><ele>905.0</ele><time>2026-05-02T12:39:50.37Z</time></trkpt><trkpt lat="42.0709046" lon="13.6365006"><ele>905.0</ele><time>2026-05-02T12:39:51.369Z</time></trkpt><trkpt lat="42.0710121" lon="13.6366497"><ele>905.0</ele><time>2026-05-02T12:39:52.369Z</time></trkpt><trkpt lat="42.071135" lon="13.6367754"><ele>905.0</ele><time>2026-05-02T12:39:53.347Z</time></trkpt><trkpt lat="42.0712537" lon="13.6369073"><ele>912.0</ele><time>2026-05-02T12:39:54.35Z</time></trkpt><trkpt lat="42.0713515" lon="13.6370616"><ele>919.0</ele><time>2026-05-02T12:39:55.349Z</time></trkpt><trkpt lat="42.0714481" lon="13.6372256"><ele>926.0</ele><time>2026-05-02T12:39:56.361Z</time></trkpt><trkpt lat="42.0715553" lon="13.6373769"><ele>918.3333333333334</ele><time>2026-05-02T12:39:57.378Z</time></trkpt><trkpt lat="42.0716744" lon="13.6375241"><ele>910.6666666666667</ele><time>2026-05-02T12:39:58.363Z</time></trkpt><trkpt lat="42.0717974" lon="13.6376605"><ele>903.0</ele><time>2026-05-02T12:39:59.364Z</time></trkpt><trkpt lat="42.0719742" lon="13.6377488"><ele>908.0</ele><time>2026-05-02T12:40:00.357Z</time></trkpt><trkpt lat="42.0721286" lon="13.6378492"><ele>913.0</ele><time>2026-05-02T12:40:01.35Z</time></trkpt><trkpt lat="42.0722721" lon="13.6379441"><ele>918.0</ele><time>2026-05-02T12:40:02.348Z</time></trkpt><trkpt lat="42.0724201" lon="13.6380262"><ele>916.0</ele><time>2026-05-02T12:40:03.348Z</time></trkpt><trkpt lat="42.0725622" lon="13.6380958"><ele>914.0</ele><time>2026-05-02T12:40:04.366Z</time></trkpt><trkpt lat="42.0726873" lon="13.6381595"><ele>912.0</ele><time>2026-05-02T12:40:05.368Z</time></trkpt><trkpt lat="42.0728092" lon="13.6382289"><ele>910.0</ele><time>2026-05-02T12:40:06.359Z</time></trkpt><trkpt lat="42.0729181" lon="13.6383003"><ele>910.0</ele><time>2026-05-02T12:40:07.36Z</time></trkpt><trkpt lat="42.0730115" lon="13.638387"><ele>910.0</ele><time>2026-05-02T12:40:08.356Z</time></trkpt><trkpt lat="42.0731016" lon="13.6385002"><ele>910.0</ele><time>2026-05-02T12:40:09.346Z</time></trkpt><trkpt lat="42.0731876" lon="13.6386301"><ele>910.0</ele><time>2026-05-02T12:40:10.349Z</time></trkpt><trkpt lat="42.0732715" lon="13.638768"><ele>911.75</ele><time>2026-05-02T12:40:11.347Z</time></trkpt><trkpt lat="42.0733641" lon="13.6389111"><ele>913.5</ele><time>2026-05-02T12:40:12.339Z</time></trkpt><trkpt lat="42.0734638" lon="13.6390588"><ele>915.25</ele><time>2026-05-02T12:40:13.343Z</time></trkpt><trkpt lat="42.0735701" lon="13.639207"><ele>917.0</ele><time>2026-05-02T12:40:14.346Z</time></trkpt><trkpt lat="42.0736847" lon="13.6393514"><ele>925.0</ele><time>2026-05-02T12:40:15.356Z</time></trkpt><trkpt lat="42.0738067" lon="13.6394922"><ele>933.0</ele><time>2026-05-02T12:40:16.357Z</time></trkpt><trkpt lat="42.0739328" lon="13.6396289"><ele>941.0</ele><time>2026-05-02T12:40:17.355Z</time></trkpt><trkpt lat="42.0740627" lon="13.6397649"><ele>934.6666666666667</ele><time>2026-05-02T12:40:18.358Z</time></trkpt><trkpt lat="42.074192" lon="13.6399085"><ele>928.3333333333333</ele><time>2026-05-02T12:40:19.356Z</time></trkpt><trkpt lat="42.0743214" lon="13.6400587"><ele>922.0</ele><time>2026-05-02T12:40:20.355Z</time></trkpt><trkpt lat="42.0744522" lon="13.6402135"><ele>929.6666666666666</ele><time>2026-05-02T12:40:21.358Z</time></trkpt><trkpt lat="42.0745832" lon="13.6403752"><ele>937.3333333333333</ele><time>2026-05-02T12:40:22.356Z</time></trkpt><trkpt lat="42.0747118" lon="13.6405416"><ele>945.0</ele><time>2026-05-02T12:40:23.355Z</time></trkpt><trkpt lat="42.0748337" lon="13.6407089"><ele>942.0</ele><time>2026-05-02T12:40:24.355Z</time></trkpt><trkpt lat="42.074956" lon="13.6408814"><ele>939.0</ele><time>2026-05-02T12:40:25.359Z</time></trkpt><trkpt lat="42.0750787" lon="13.6410629"><ele>936.0</ele><time>2026-05-02T12:40:26.358Z</time></trkpt><trkpt lat="42.075206" lon="13.6412532"><ele>936.0</ele><time>2026-05-02T12:40:27.358Z</time></trkpt><trkpt lat="42.0753284" lon="13.6414373"><ele>936.0</ele><time>2026-05-02T12:40:28.359Z</time></trkpt><trkpt lat="42.0754521" lon="13.6416243"><ele>936.0</ele><time>2026-05-02T12:40:29.36Z</time></trkpt><trkpt lat="42.0755836" lon="13.6418091"><ele>936.0</ele><time>2026-05-02T12:40:30.356Z</time></trkpt><trkpt lat="42.0757177" lon="13.6419842"><ele>936.0</ele><time>2026-05-02T12:40:31.357Z</time></trkpt><trkpt lat="42.0758595" lon="13.6421572"><ele>936.0</ele><time>2026-05-02T12:40:32.355Z</time></trkpt><trkpt lat="42.0759978" lon="13.6423092"><ele>936.0</ele><time>2026-05-02T12:40:33.35Z</time></trkpt><trkpt lat="42.0761362" lon="13.6424596"><ele>936.0</ele><time>2026-05-02T12:40:34.354Z</time></trkpt><trkpt lat="42.076269" lon="13.6426138"><ele>936.0</ele><time>2026-05-02T12:40:35.353Z</time></trkpt><trkpt lat="42.0763971" lon="13.6427762"><ele>938.0</ele><time>2026-05-02T12:40:36.355Z</time></trkpt><trkpt lat="42.0765271" lon="13.6429457"><ele>940.0</ele><time>2026-05-02T12:40:37.349Z</time></trkpt><trkpt lat="42.0766558" lon="13.6431222"><ele>942.0</ele><time>2026-05-02T12:40:38.355Z</time></trkpt><trkpt lat="42.0767787" lon="13.6433014"><ele>942.0</ele><time>2026-05-02T12:40:39.355Z</time></trkpt><trkpt lat="42.0769012" lon="13.6434818"><ele>942.0</ele><time>2026-05-02T12:40:40.355Z</time></trkpt><trkpt lat="42.0770231" lon="13.6436591"><ele>942.0</ele><time>2026-05-02T12:40:41.355Z</time></trkpt><trkpt lat="42.0771476" lon="13.6438315"><ele>944.3333333333333</ele><time>2026-05-02T12:40:42.356Z</time></trkpt><trkpt lat="42.0772747" lon="13.6439918"><ele>946.6666666666666</ele><time>2026-05-02T12:40:43.355Z</time></trkpt><trkpt lat="42.0774055" lon="13.6441417"><ele>949.0</ele><time>2026-05-02T12:40:44.352Z</time></trkpt><trkpt lat="42.0775418" lon="13.644283"><ele>949.0</ele><time>2026-05-02T12:40:45.349Z</time></trkpt><trkpt lat="42.0776773" lon="13.6444103"><ele>949.0</ele><time>2026-05-02T12:40:46.359Z</time></trkpt><trkpt lat="42.0777995" lon="13.6445399"><ele>949.0</ele><time>2026-05-02T12:40:47.266Z</time></trkpt><trkpt lat="42.0779109" lon="13.6446972"><ele>953.3333333333333</ele><time>2026-05-02T12:40:48.261Z</time></trkpt><trkpt lat="42.0780118" lon="13.6448697"><ele>957.6666666666667</ele><time>2026-05-02T12:40:49.263Z</time></trkpt><trkpt lat="42.0781108" lon="13.6450605"><ele>962.0</ele><time>2026-05-02T12:40:50.264Z</time></trkpt><trkpt lat="42.0782068" lon="13.6452414"><ele>961.5</ele><time>2026-05-02T12:40:51.269Z</time></trkpt><trkpt lat="42.078286" lon="13.6454126"><ele>961.0</ele><time>2026-05-02T12:40:52.265Z</time></trkpt><trkpt lat="42.0783731" lon="13.6455602"><ele>960.5</ele><time>2026-05-02T12:40:53.258Z</time></trkpt><trkpt lat="42.0784586" lon="13.6457025"><ele>960.0</ele><time>2026-05-02T12:40:54.261Z</time></trkpt><trkpt lat="42.0785665" lon="13.6458344"><ele>960.0</ele><time>2026-05-02T12:40:55.26Z</time></trkpt><trkpt lat="42.07869" lon="13.6459506"><ele>960.0</ele><time>2026-05-02T12:40:56.259Z</time></trkpt><trkpt lat="42.0788229" lon="13.6460538"><ele>960.0</ele><time>2026-05-02T12:40:57.261Z</time></trkpt><trkpt lat="42.0789512" lon="13.646169"><ele>960.3333333333333</ele><time>2026-05-02T12:40:58.265Z</time></trkpt><trkpt lat="42.079065" lon="13.6463057"><ele>960.6666666666666</ele><time>2026-05-02T12:40:59.263Z</time></trkpt><trkpt lat="42.0791644" lon="13.6464746"><ele>961.0</ele><time>2026-05-02T12:41:00.267Z</time></trkpt><trkpt lat="42.0792524" lon="13.6466496"><ele>961.0</ele><time>2026-05-02T12:41:01.267Z</time></trkpt><trkpt lat="42.0793303" lon="13.6468136"><ele>961.0</ele><time>2026-05-02T12:41:02.268Z</time></trkpt><trkpt lat="42.0793971" lon="13.6469662"><ele>961.0</ele><time>2026-05-02T12:41:03.269Z</time></trkpt><trkpt lat="42.079464" lon="13.6471042"><ele>961.0</ele><time>2026-05-02T12:41:04.271Z</time></trkpt><trkpt lat="42.0795461" lon="13.6472497"><ele>960.5</ele><time>2026-05-02T12:41:05.269Z</time></trkpt><trkpt lat="42.0796268" lon="13.6473757"><ele>960.0</ele><time>2026-05-02T12:41:06.268Z</time></trkpt><trkpt lat="42.079724" lon="13.6474822"><ele>959.5</ele><time>2026-05-02T12:41:07.271Z</time></trkpt><trkpt lat="42.0798268" lon="13.6475697"><ele>959.0</ele><time>2026-05-02T12:41:08.271Z</time></trkpt><trkpt lat="42.0799409" lon="13.64764"><ele>959.0</ele><time>2026-05-02T12:41:09.273Z</time></trkpt><trkpt lat="42.0800568" lon="13.6477078"><ele>959.0</ele><time>2026-05-02T12:41:10.279Z</time></trkpt><trkpt lat="42.0801687" lon="13.6477708"><ele>959.0</ele><time>2026-05-02T12:41:11.281Z</time></trkpt><trkpt lat="42.0802709" lon="13.6478155"><ele>959.0</ele><time>2026-05-02T12:41:12.278Z</time></trkpt><trkpt lat="42.0803767" lon="13.6478298"><ele>959.0</ele><time>2026-05-02T12:41:13.281Z</time></trkpt><trkpt lat="42.0804943" lon="13.6478073"><ele>959.0</ele><time>2026-05-02T12:41:14.278Z</time></trkpt><trkpt lat="42.080616" lon="13.6477677"><ele>959.0</ele><time>2026-05-02T12:41:15.275Z</time></trkpt><trkpt lat="42.0807417" lon="13.6477112"><ele>959.0</ele><time>2026-05-02T12:41:16.269Z</time></trkpt><trkpt lat="42.0808648" lon="13.6476523"><ele>960.25</ele><time>2026-05-02T12:41:17.291Z</time></trkpt><trkpt lat="42.0810028" lon="13.6475857"><ele>961.5</ele><time>2026-05-02T12:41:18.291Z</time></trkpt><trkpt lat="42.0811425" lon="13.6475161"><ele>962.75</ele><time>2026-05-02T12:41:19.291Z</time></trkpt><trkpt lat="42.081283" lon="13.6474368"><ele>964.0</ele><time>2026-05-02T12:41:20.302Z</time></trkpt><trkpt lat="42.0814155" lon="13.6473341"><ele>964.0</ele><time>2026-05-02T12:41:21.302Z</time></trkpt><trkpt lat="42.0815348" lon="13.6472147"><ele>964.0</ele><time>2026-05-02T12:41:22.295Z</time></trkpt><trkpt lat="42.0816671" lon="13.6470864"><ele>964.0</ele><time>2026-05-02T12:41:23.293Z</time></trkpt><trkpt lat="42.0817829" lon="13.6469339"><ele>967.3333333333333</ele><time>2026-05-02T12:41:24.295Z</time></trkpt><trkpt lat="42.0818961" lon="13.6467687"><ele>970.6666666666667</ele><time>2026-05-02T12:41:25.298Z</time></trkpt><trkpt lat="42.082009" lon="13.6466095"><ele>974.0</ele><time>2026-05-02T12:41:26.302Z</time></trkpt><trkpt lat="42.0821176" lon="13.6464539"><ele>974.0</ele><time>2026-05-02T12:41:27.295Z</time></trkpt><trkpt lat="42.0821997" lon="13.6463308"><ele>974.0</ele><time>2026-05-02T12:41:28.297Z</time></trkpt><trkpt lat="42.0823041" lon="13.6462259"><ele>974.0</ele><time>2026-05-02T12:41:29.295Z</time></trkpt><trkpt lat="42.0824213" lon="13.6461364"><ele>974.0</ele><time>2026-05-02T12:41:30.293Z</time></trkpt><trkpt lat="42.0825572" lon="13.6460564"><ele>977.0</ele><time>2026-05-02T12:41:31.3Z</time></trkpt><trkpt lat="42.0826985" lon="13.6459987"><ele>980.0</ele><time>2026-05-02T12:41:32.298Z</time></trkpt><trkpt lat="42.082845" lon="13.6459398"><ele>983.0</ele><time>2026-05-02T12:41:33.305Z</time></trkpt><trkpt lat="42.0829944" lon="13.6458734"><ele>983.0</ele><time>2026-05-02T12:41:34.304Z</time></trkpt><trkpt lat="42.0831207" lon="13.6457734"><ele>983.0</ele><time>2026-05-02T12:41:35.303Z</time></trkpt><trkpt lat="42.0832587" lon="13.6456695"><ele>983.0</ele><time>2026-05-02T12:41:36.302Z</time></trkpt><trkpt lat="42.0833948" lon="13.6455519"><ele>986.3333333333334</ele><time>2026-05-02T12:41:37.301Z</time></trkpt><trkpt lat="42.0835272" lon="13.6454221"><ele>989.6666666666667</ele><time>2026-05-02T12:41:38.301Z</time></trkpt><trkpt lat="42.0836531" lon="13.6452859"><ele>993.0</ele><time>2026-05-02T12:41:39.305Z</time></trkpt><trkpt lat="42.0837753" lon="13.6451475"><ele>994.0</ele><time>2026-05-02T12:41:40.304Z</time></trkpt><trkpt lat="42.0838804" lon="13.6450039"><ele>995.0</ele><time>2026-05-02T12:41:41.299Z</time></trkpt><trkpt lat="42.0839786" lon="13.6448581"><ele>996.0</ele><time>2026-05-02T12:41:42.301Z</time></trkpt><trkpt lat="42.0840451" lon="13.6446998"><ele>997.0</ele><time>2026-05-02T12:41:43.297Z</time></trkpt><trkpt lat="42.0840896" lon="13.644532"><ele>999.0</ele><time>2026-05-02T12:41:44.291Z</time></trkpt><trkpt lat="42.0841335" lon="13.644338"><ele>1001.0</ele><time>2026-05-02T12:41:45.298Z</time></trkpt><trkpt lat="42.0841544" lon="13.644135"><ele>1003.0</ele><time>2026-05-02T12:41:46.304Z</time></trkpt><trkpt lat="42.0841775" lon="13.6439455"><ele>1005.0</ele><time>2026-05-02T12:41:47.295Z</time></trkpt><trkpt lat="42.0842196" lon="13.6437635"><ele>1006.5</ele><time>2026-05-02T12:41:48.301Z</time></trkpt><trkpt lat="42.0842942" lon="13.643603"><ele>1008.0</ele><time>2026-05-02T12:41:49.293Z</time></trkpt><trkpt lat="42.0843717" lon="13.6434395"><ele>1009.5</ele><time>2026-05-02T12:41:50.303Z</time></trkpt><trkpt lat="42.0844397" lon="13.6432691"><ele>1011.0</ele><time>2026-05-02T12:41:51.304Z</time></trkpt><trkpt lat="42.0844879" lon="13.6430804"><ele>1011.0</ele><time>2026-05-02T12:41:52.306Z</time></trkpt><trkpt lat="42.0845635" lon="13.642905"><ele>1011.0</ele><time>2026-05-02T12:41:53.298Z</time></trkpt><trkpt lat="42.0846518" lon="13.6427357"><ele>1011.0</ele><time>2026-05-02T12:41:54.298Z</time></trkpt><trkpt lat="42.0847415" lon="13.6425701"><ele>1012.0</ele><time>2026-05-02T12:41:55.297Z</time></trkpt><trkpt lat="42.08483" lon="13.6424152"><ele>1013.0</ele><time>2026-05-02T12:41:56.302Z</time></trkpt><trkpt lat="42.0849018" lon="13.6422464"><ele>1014.0</ele><time>2026-05-02T12:41:57.305Z</time></trkpt><trkpt lat="42.0849437" lon="13.6420708"><ele>1015.0</ele><time>2026-05-02T12:41:58.304Z</time></trkpt><trkpt lat="42.0849676" lon="13.6418956"><ele>1018.5</ele><time>2026-05-02T12:41:59.302Z</time></trkpt><trkpt lat="42.0849639" lon="13.6417169"><ele>1022.0</ele><time>2026-05-02T12:42:00.307Z</time></trkpt><trkpt lat="42.0849757" lon="13.6415332"><ele>1025.5</ele><time>2026-05-02T12:42:01.301Z</time></trkpt><trkpt lat="42.0850115" lon="13.6413593"><ele>1029.0</ele><time>2026-05-02T12:42:02.297Z</time></trkpt><trkpt lat="42.0850799" lon="13.6411908"><ele>1030.75</ele><time>2026-05-02T12:42:03.298Z</time></trkpt><trkpt lat="42.0851444" lon="13.6410137"><ele>1032.5</ele><time>2026-05-02T12:42:04.305Z</time></trkpt><trkpt lat="42.0851976" lon="13.6408435"><ele>1034.25</ele><time>2026-05-02T12:42:05.301Z</time></trkpt><trkpt lat="42.0852401" lon="13.6406713"><ele>1036.0</ele><time>2026-05-02T12:42:06.303Z</time></trkpt><trkpt lat="42.0852627" lon="13.6405119"><ele>1036.0</ele><time>2026-05-02T12:42:07.299Z</time></trkpt><trkpt lat="42.0852489" lon="13.6403655"><ele>1036.0</ele><time>2026-05-02T12:42:08.298Z</time></trkpt><trkpt lat="42.0852099" lon="13.6402191"><ele>1036.0</ele><time>2026-05-02T12:42:09.286Z</time></trkpt><trkpt lat="42.0851699" lon="13.6400843"><ele>1036.0</ele><time>2026-05-02T12:42:10.306Z</time></trkpt><trkpt lat="42.0851389" lon="13.6399509"><ele>1036.0</ele><time>2026-05-02T12:42:11.293Z</time></trkpt><trkpt lat="42.0851464" lon="13.6398255"><ele>1037.0</ele><time>2026-05-02T12:42:12.294Z</time></trkpt><trkpt lat="42.085192" lon="13.6397003"><ele>1038.0</ele><time>2026-05-02T12:42:13.299Z</time></trkpt><trkpt lat="42.0852656" lon="13.6395785"><ele>1039.0</ele><time>2026-05-02T12:42:14.296Z</time></trkpt><trkpt lat="42.0853362" lon="13.639455"><ele>1040.0</ele><time>2026-05-02T12:42:15.293Z</time></trkpt><trkpt lat="42.0853871" lon="13.6393388"><ele>1041.0</ele><time>2026-05-02T12:42:16.294Z</time></trkpt><trkpt lat="42.0854122" lon="13.6392351"><ele>1042.3999999999999</ele><time>2026-05-02T12:42:17.293Z</time></trkpt><trkpt lat="42.0854066" lon="13.6391187"><ele>1043.8</ele><time>2026-05-02T12:42:18.295Z</time></trkpt><trkpt lat="42.0853702" lon="13.6390044"><ele>1045.1999999999998</ele><time>2026-05-02T12:42:19.297Z</time></trkpt><trkpt lat="42.0853234" lon="13.6388814"><ele>1046.6</ele><time>2026-05-02T12:42:20.299Z</time></trkpt><trkpt lat="42.0852689" lon="13.638761"><ele>1048.0</ele><time>2026-05-02T12:42:21.306Z</time></trkpt><trkpt lat="42.085231" lon="13.6386168"><ele>1050.25</ele><time>2026-05-02T12:42:22.302Z</time></trkpt><trkpt lat="42.0852056" lon="13.6384583"><ele>1052.5</ele><time>2026-05-02T12:42:23.302Z</time></trkpt><trkpt lat="42.085177" lon="13.6382967"><ele>1054.75</ele><time>2026-05-02T12:42:24.3Z</time></trkpt><trkpt lat="42.0851396" lon="13.6381275"><ele>1057.0</ele><time>2026-05-02T12:42:25.297Z</time></trkpt><trkpt lat="42.0851031" lon="13.6379523"><ele>1058.5</ele><time>2026-05-02T12:42:26.303Z</time></trkpt><trkpt lat="42.08507" lon="13.6377842"><ele>1060.0</ele><time>2026-05-02T12:42:27.306Z</time></trkpt><trkpt lat="42.0850424" lon="13.6376107"><ele>1061.5</ele><time>2026-05-02T12:42:28.304Z</time></trkpt><trkpt lat="42.0850319" lon="13.6374495"><ele>1063.0</ele><time>2026-05-02T12:42:29.306Z</time></trkpt><trkpt lat="42.0850289" lon="13.6372799"><ele>1063.0</ele><time>2026-05-02T12:42:30.307Z</time></trkpt><trkpt lat="42.0850237" lon="13.6371014"><ele>1063.0</ele><time>2026-05-02T12:42:31.299Z</time></trkpt><trkpt lat="42.0850094" lon="13.6369321"><ele>1063.0</ele><time>2026-05-02T12:42:32.294Z</time></trkpt><trkpt lat="42.084967" lon="13.6367833"><ele>1063.0</ele><time>2026-05-02T12:42:33.284Z</time></trkpt><trkpt lat="42.0848904" lon="13.636652"><ele>1065.0</ele><time>2026-05-02T12:42:34.281Z</time></trkpt><trkpt lat="42.0848132" lon="13.6365221"><ele>1067.0</ele><time>2026-05-02T12:42:35.295Z</time></trkpt><trkpt lat="42.0847332" lon="13.6363893"><ele>1069.0</ele><time>2026-05-02T12:42:36.292Z</time></trkpt><trkpt lat="42.0846529" lon="13.6362486"><ele>1071.0</ele><time>2026-05-02T12:42:37.291Z</time></trkpt><trkpt lat="42.084564" lon="13.6361033"><ele>1072.75</ele><time>2026-05-02T12:42:38.298Z</time></trkpt><trkpt lat="42.084472" lon="13.6359736"><ele>1074.5</ele><time>2026-05-02T12:42:39.295Z</time></trkpt><trkpt lat="42.0843801" lon="13.6358486"><ele>1076.25</ele><time>2026-05-02T12:42:40.291Z</time></trkpt><trkpt lat="42.0842963" lon="13.6357537"><ele>1078.0</ele><time>2026-05-02T12:42:41.286Z</time></trkpt><trkpt lat="42.0842187" lon="13.6356668"><ele>1078.0</ele><time>2026-05-02T12:42:42.288Z</time></trkpt><trkpt lat="42.0841572" lon="13.6355877"><ele>1078.0</ele><time>2026-05-02T12:42:43.288Z</time></trkpt><trkpt lat="42.0841344" lon="13.6354983"><ele>1078.0</ele><time>2026-05-02T12:42:44.288Z</time></trkpt><trkpt lat="42.0841125" lon="13.6353928"><ele>1078.0</ele><time>2026-05-02T12:42:45.284Z</time></trkpt><trkpt lat="42.0841145" lon="13.6352848"><ele>1078.0</ele><time>2026-05-02T12:42:46.291Z</time></trkpt><trkpt lat="42.0841203" lon="13.6351639"><ele>1078.0</ele><time>2026-05-02T12:42:47.296Z</time></trkpt><trkpt lat="42.084119" lon="13.6350648"><ele>1078.6</ele><time>2026-05-02T12:42:48.292Z</time></trkpt><trkpt lat="42.084092" lon="13.6349618"><ele>1079.1999999999998</ele><time>2026-05-02T12:42:49.295Z</time></trkpt><trkpt lat="42.0840571" lon="13.6348508"><ele>1079.8</ele><time>2026-05-02T12:42:50.296Z</time></trkpt><trkpt lat="42.0840138" lon="13.6347371"><ele>1080.3999999999999</ele><time>2026-05-02T12:42:51.293Z</time></trkpt><trkpt lat="42.0839707" lon="13.6346026"><ele>1081.0</ele><time>2026-05-02T12:42:52.297Z</time></trkpt><trkpt lat="42.0839338" lon="13.6344601"><ele>1081.0</ele><time>2026-05-02T12:42:53.285Z</time></trkpt><trkpt lat="42.0839189" lon="13.6343333"><ele>1081.0</ele><time>2026-05-02T12:42:54.292Z</time></trkpt><trkpt lat="42.0839269" lon="13.6342235"><ele>1081.0</ele><time>2026-05-02T12:42:55.289Z</time></trkpt><trkpt lat="42.0839461" lon="13.6341205"><ele>1081.0</ele><time>2026-05-02T12:42:56.293Z</time></trkpt><trkpt lat="42.0839787" lon="13.634026"><ele>1081.0</ele><time>2026-05-02T12:42:57.293Z</time></trkpt><trkpt lat="42.084026" lon="13.6339508"><ele>1081.0</ele><time>2026-05-02T12:42:58.29Z</time></trkpt><trkpt lat="42.0840874" lon="13.6338806"><ele>1081.6666666666665</ele><time>2026-05-02T12:42:59.287Z</time></trkpt><trkpt lat="42.0841786" lon="13.6338458"><ele>1082.3333333333333</ele><time>2026-05-02T12:43:00.297Z</time></trkpt><trkpt lat="42.084268" lon="13.6338254"><ele>1083.0</ele><time>2026-05-02T12:43:01.293Z</time></trkpt><trkpt lat="42.0843523" lon="13.6338025"><ele>1083.6666666666667</ele><time>2026-05-02T12:43:02.291Z</time></trkpt><trkpt lat="42.0844384" lon="13.6337723"><ele>1084.3333333333335</ele><time>2026-05-02T12:43:03.295Z</time></trkpt><trkpt lat="42.0845118" lon="13.6337139"><ele>1085.0</ele><time>2026-05-02T12:43:04.292Z</time></trkpt><trkpt lat="42.0845777" lon="13.6336228"><ele>1085.0</ele><time>2026-05-02T12:43:05.282Z</time></trkpt><trkpt lat="42.0846313" lon="13.6335037"><ele>1085.0</ele><time>2026-05-02T12:43:06.293Z</time></trkpt><trkpt lat="42.0846931" lon="13.6333527"><ele>1085.0</ele><time>2026-05-02T12:43:07.318Z</time></trkpt><trkpt lat="42.0847635" lon="13.6332207"><ele>1085.0</ele><time>2026-05-02T12:43:08.375Z</time></trkpt><trkpt lat="42.0848457" lon="13.6331017"><ele>1088.0</ele><time>2026-05-02T12:43:09.375Z</time></trkpt><trkpt lat="42.0849369" lon="13.632995"><ele>1091.0</ele><time>2026-05-02T12:43:10.386Z</time></trkpt><trkpt lat="42.085032" lon="13.6328971"><ele>1094.0</ele><time>2026-05-02T12:43:11.364Z</time></trkpt><trkpt lat="42.0851137" lon="13.6327994"><ele>1097.0</ele><time>2026-05-02T12:43:12.362Z</time></trkpt><trkpt lat="42.0851783" lon="13.632681"><ele>1097.8</ele><time>2026-05-02T12:43:13.364Z</time></trkpt><trkpt lat="42.0852203" lon="13.632557"><ele>1098.6</ele><time>2026-05-02T12:43:14.365Z</time></trkpt><trkpt lat="42.0852432" lon="13.63239"><ele>1099.3999999999999</ele><time>2026-05-02T12:43:15.372Z</time></trkpt><trkpt lat="42.0852381" lon="13.632258"><ele>1100.2</ele><time>2026-05-02T12:43:16.377Z</time></trkpt><trkpt lat="42.0852306" lon="13.6321345"><ele>1101.0</ele><time>2026-05-02T12:43:17.364Z</time></trkpt><trkpt lat="42.0852111" lon="13.631964"><ele>1101.8</ele><time>2026-05-02T12:43:18.362Z</time></trkpt><trkpt lat="42.0851935" lon="13.6318025"><ele>1102.6</ele><time>2026-05-02T12:43:19.274Z</time></trkpt><trkpt lat="42.0852148" lon="13.6316551"><ele>1103.4</ele><time>2026-05-02T12:43:20.275Z</time></trkpt><trkpt lat="42.0852678" lon="13.6315321"><ele>1104.2</ele><time>2026-05-02T12:43:21.282Z</time></trkpt><trkpt lat="42.0853332" lon="13.6314118"><ele>1105.0</ele><time>2026-05-02T12:43:22.291Z</time></trkpt><trkpt lat="42.0854152" lon="13.63129"><ele>1105.0</ele><time>2026-05-02T12:43:23.288Z</time></trkpt><trkpt lat="42.0854906" lon="13.6311868"><ele>1105.0</ele><time>2026-05-02T12:43:24.287Z</time></trkpt><trkpt lat="42.0855366" lon="13.6310924"><ele>1105.0</ele><time>2026-05-02T12:43:25.285Z</time></trkpt><trkpt lat="42.085554" lon="13.6309997"><ele>1105.0</ele><time>2026-05-02T12:43:26.295Z</time></trkpt><trkpt lat="42.08555" lon="13.6308943"><ele>1105.0</ele><time>2026-05-02T12:43:27.288Z</time></trkpt><trkpt lat="42.0855292" lon="13.630771"><ele>1105.0</ele><time>2026-05-02T12:43:28.292Z</time></trkpt><trkpt lat="42.085498" lon="13.630631"><ele>1106.25</ele><time>2026-05-02T12:43:29.293Z</time></trkpt><trkpt lat="42.0854882" lon="13.6304675"><ele>1107.5</ele><time>2026-05-02T12:43:30.294Z</time></trkpt><trkpt lat="42.0854794" lon="13.6302885"><ele>1108.75</ele><time>2026-05-02T12:43:31.296Z</time></trkpt><trkpt lat="42.085474" lon="13.6301009"><ele>1110.0</ele><time>2026-05-02T12:43:32.294Z</time></trkpt><trkpt lat="42.0854652" lon="13.6299069"><ele>1111.5</ele><time>2026-05-02T12:43:33.291Z</time></trkpt><trkpt lat="42.0854664" lon="13.629717"><ele>1113.0</ele><time>2026-05-02T12:43:34.302Z</time></trkpt><trkpt lat="42.0855042" lon="13.6295432"><ele>1114.5</ele><time>2026-05-02T12:43:35.297Z</time></trkpt><trkpt lat="42.0855367" lon="13.6293585"><ele>1116.0</ele><time>2026-05-02T12:43:36.302Z</time></trkpt><trkpt lat="42.0855755" lon="13.6291796"><ele>1116.75</ele><time>2026-05-02T12:43:37.292Z</time></trkpt><trkpt lat="42.0856127" lon="13.6289964"><ele>1117.5</ele><time>2026-05-02T12:43:38.301Z</time></trkpt><trkpt lat="42.0856518" lon="13.6288129"><ele>1118.25</ele><time>2026-05-02T12:43:39.295Z</time></trkpt><trkpt lat="42.0856849" lon="13.6286346"><ele>1119.0</ele><time>2026-05-02T12:43:40.291Z</time></trkpt><trkpt lat="42.0857146" lon="13.6284806"><ele>1119.8</ele><time>2026-05-02T12:43:41.284Z</time></trkpt><trkpt lat="42.0857412" lon="13.6283378"><ele>1120.6000000000001</ele><time>2026-05-02T12:43:42.297Z</time></trkpt><trkpt lat="42.085791" lon="13.628205"><ele>1121.4</ele><time>2026-05-02T12:43:43.296Z</time></trkpt><trkpt lat="42.0858646" lon="13.6281069"><ele>1122.2</ele><time>2026-05-02T12:43:44.291Z</time></trkpt><trkpt lat="42.0859533" lon="13.6280045"><ele>1123.0</ele><time>2026-05-02T12:43:45.298Z</time></trkpt><trkpt lat="42.0860253" lon="13.6278858"><ele>1126.5</ele><time>2026-05-02T12:43:46.301Z</time></trkpt><trkpt lat="42.0860783" lon="13.6277532"><ele>1130.0</ele><time>2026-05-02T12:43:47.303Z</time></trkpt><trkpt lat="42.0861158" lon="13.6275999"><ele>1133.5</ele><time>2026-05-02T12:43:48.29Z</time></trkpt><trkpt lat="42.086146" lon="13.6274298"><ele>1137.0</ele><time>2026-05-02T12:43:49.291Z</time></trkpt><trkpt lat="42.0861901" lon="13.627244"><ele>1137.0</ele><time>2026-05-02T12:43:50.295Z</time></trkpt><trkpt lat="42.086259" lon="13.6270737"><ele>1137.0</ele><time>2026-05-02T12:43:51.299Z</time></trkpt><trkpt lat="42.0863284" lon="13.626905"><ele>1137.0</ele><time>2026-05-02T12:43:52.293Z</time></trkpt><trkpt lat="42.0863825" lon="13.6267183"><ele>1137.0</ele><time>2026-05-02T12:43:53.293Z</time></trkpt><trkpt lat="42.0864264" lon="13.6265419"><ele>1137.75</ele><time>2026-05-02T12:43:54.285Z</time></trkpt><trkpt lat="42.0864393" lon="13.6263618"><ele>1138.5</ele><time>2026-05-02T12:43:55.28Z</time></trkpt><trkpt lat="42.0864335" lon="13.6261766"><ele>1139.25</ele><time>2026-05-02T12:43:56.292Z</time></trkpt><trkpt lat="42.0864157" lon="13.6259794"><ele>1140.0</ele><time>2026-05-02T12:43:57.289Z</time></trkpt><trkpt lat="42.0863819" lon="13.6257836"><ele>1141.6666666666667</ele><time>2026-05-02T12:43:58.287Z</time></trkpt><trkpt lat="42.086335" lon="13.625575"><ele>1143.3333333333335</ele><time>2026-05-02T12:43:59.288Z</time></trkpt><trkpt lat="42.0862848" lon="13.625351"><ele>1145.0</ele><time>2026-05-02T12:44:00.296Z</time></trkpt><trkpt lat="42.0862289" lon="13.6251378"><ele>1147.5</ele><time>2026-05-02T12:44:01.29Z</time></trkpt><trkpt lat="42.0861786" lon="13.6249231"><ele>1150.0</ele><time>2026-05-02T12:44:02.293Z</time></trkpt><trkpt lat="42.0861472" lon="13.6247324"><ele>1152.5</ele><time>2026-05-02T12:44:03.283Z</time></trkpt><trkpt lat="42.0861277" lon="13.6245696"><ele>1155.0</ele><time>2026-05-02T12:44:04.294Z</time></trkpt><trkpt lat="42.0861165" lon="13.6244101"><ele>1156.0</ele><time>2026-05-02T12:44:05.292Z</time></trkpt><trkpt lat="42.0861109" lon="13.6242453"><ele>1157.0</ele><time>2026-05-02T12:44:06.291Z</time></trkpt><trkpt lat="42.0860946" lon="13.6240553"><ele>1158.0</ele><time>2026-05-02T12:44:07.291Z</time></trkpt><trkpt lat="42.0860908" lon="13.6238837"><ele>1159.0</ele><time>2026-05-02T12:44:08.299Z</time></trkpt><trkpt lat="42.0860579" lon="13.6237097"><ele>1161.0</ele><time>2026-05-02T12:44:09.293Z</time></trkpt><trkpt lat="42.0860109" lon="13.6235516"><ele>1163.0</ele><time>2026-05-02T12:44:10.292Z</time></trkpt><trkpt lat="42.0859641" lon="13.6234157"><ele>1165.0</ele><time>2026-05-02T12:44:11.285Z</time></trkpt><trkpt lat="42.085919" lon="13.6233225"><ele>1167.0</ele><time>2026-05-02T12:44:12.299Z</time></trkpt><trkpt lat="42.0858759" lon="13.6232395"><ele>1169.0</ele><time>2026-05-02T12:44:13.292Z</time></trkpt><trkpt lat="42.0858321" lon="13.6231678"><ele>1169.0</ele><time>2026-05-02T12:44:14.295Z</time></trkpt><trkpt lat="42.0857779" lon="13.6231175"><ele>1169.0</ele><time>2026-05-02T12:44:15.285Z</time></trkpt><trkpt lat="42.0856544" lon="13.6230727"><ele>1169.0</ele><time>2026-05-02T12:44:17.29Z</time></trkpt><trkpt lat="42.0855748" lon="13.6230691"><ele>1169.0</ele><time>2026-05-02T12:44:18.298Z</time></trkpt><trkpt lat="42.0854958" lon="13.6230901"><ele>1169.0</ele><time>2026-05-02T12:44:19.295Z</time></trkpt><trkpt lat="42.0854194" lon="13.6231313"><ele>1169.0</ele><time>2026-05-02T12:44:20.291Z</time></trkpt><trkpt lat="42.0853407" lon="13.6231973"><ele>1169.75</ele><time>2026-05-02T12:44:21.291Z</time></trkpt><trkpt lat="42.0852504" lon="13.6232784"><ele>1170.5</ele><time>2026-05-02T12:44:22.306Z</time></trkpt><trkpt lat="42.0851509" lon="13.6233557"><ele>1171.25</ele><time>2026-05-02T12:44:23.299Z</time></trkpt><trkpt lat="42.0850458" lon="13.6234299"><ele>1172.0</ele><time>2026-05-02T12:44:24.299Z</time></trkpt><trkpt lat="42.0849376" lon="13.6235075"><ele>1171.25</ele><time>2026-05-02T12:44:25.3Z</time></trkpt><trkpt lat="42.0848302" lon="13.6235911"><ele>1170.5</ele><time>2026-05-02T12:44:26.299Z</time></trkpt><trkpt lat="42.0847198" lon="13.623668"><ele>1169.75</ele><time>2026-05-02T12:44:27.303Z</time></trkpt><trkpt lat="42.0846136" lon="13.6237462"><ele>1169.0</ele><time>2026-05-02T12:44:28.303Z</time></trkpt><trkpt lat="42.084525" lon="13.6238165"><ele>1169.0</ele><time>2026-05-02T12:44:29.301Z</time></trkpt><trkpt lat="42.084441" lon="13.6238793"><ele>1169.0</ele><time>2026-05-02T12:44:30.302Z</time></trkpt><trkpt lat="42.0843568" lon="13.6239319"><ele>1169.0</ele><time>2026-05-02T12:44:31.298Z</time></trkpt><trkpt lat="42.0842758" lon="13.6239852"><ele>1169.0</ele><time>2026-05-02T12:44:32.3Z</time></trkpt><trkpt lat="42.0842154" lon="13.6240379"><ele>1169.0</ele><time>2026-05-02T12:44:33.297Z</time></trkpt><trkpt lat="42.0841578" lon="13.6241049"><ele>1169.0</ele><time>2026-05-02T12:44:34.302Z</time></trkpt><trkpt lat="42.0840954" lon="13.6241869"><ele>1169.8333333333335</ele><time>2026-05-02T12:44:35.291Z</time></trkpt><trkpt lat="42.0840481" lon="13.6242791"><ele>1170.6666666666667</ele><time>2026-05-02T12:44:36.301Z</time></trkpt><trkpt lat="42.0840216" lon="13.6243761"><ele>1171.5</ele><time>2026-05-02T12:44:37.297Z</time></trkpt><trkpt lat="42.0840032" lon="13.6244739"><ele>1172.3333333333333</ele><time>2026-05-02T12:44:38.291Z</time></trkpt><trkpt lat="42.0839903" lon="13.6245638"><ele>1173.1666666666665</ele><time>2026-05-02T12:44:39.296Z</time></trkpt><trkpt lat="42.0839739" lon="13.6246973"><ele>1174.0</ele><time>2026-05-02T12:44:41.29Z</time></trkpt><trkpt lat="42.0839614" lon="13.6247949"><ele>1172.3333333333333</ele><time>2026-05-02T12:44:43.305Z</time></trkpt><trkpt lat="42.0839615" lon="13.6249055"><ele>1170.6666666666665</ele><time>2026-05-02T12:44:46.304Z</time></trkpt><trkpt lat="42.0839455" lon="13.6250233"><ele>1169.0</ele><time>2026-05-02T12:44:49.308Z</time></trkpt><trkpt lat="42.0839243" lon="13.6251269"><ele>1167.3333333333333</ele><time>2026-05-02T12:44:59.31Z</time></trkpt><trkpt lat="42.0839015" lon="13.6252162"><ele>1165.6666666666667</ele><time>2026-05-02T12:45:02.309Z</time></trkpt><trkpt lat="42.0838899" lon="13.6253197"><ele>1164.0</ele><time>2026-05-02T12:45:06.312Z</time></trkpt><trkpt lat="42.0838718" lon="13.6254272"><ele>1162.5</ele><time>2026-05-02T12:45:10.312Z</time></trkpt><trkpt lat="42.0838562" lon="13.6255396"><ele>1161.0</ele><time>2026-05-02T12:45:13.316Z</time></trkpt><trkpt lat="42.0838574" lon="13.6256357"><ele>1159.5</ele><time>2026-05-02T12:45:16.315Z</time></trkpt><trkpt lat="42.0838359" lon="13.6257264"><ele>1158.0</ele><time>2026-05-02T12:45:18.314Z</time></trkpt><trkpt lat="42.0838153" lon="13.6258206"><ele>1156.5</ele><time>2026-05-02T12:45:20.311Z</time></trkpt><trkpt lat="42.0838069" lon="13.6259408"><ele>1155.0</ele><time>2026-05-02T12:45:22.324Z</time></trkpt><trkpt lat="42.0837924" lon="13.6260653"><ele>1153.1666666666667</ele><time>2026-05-02T12:45:24.312Z</time></trkpt><trkpt lat="42.0837743" lon="13.6261691"><ele>1151.3333333333333</ele><time>2026-05-02T12:45:26.315Z</time></trkpt><trkpt lat="42.0837509" lon="13.6262726"><ele>1149.5</ele><time>2026-05-02T12:45:28.325Z</time></trkpt><trkpt lat="42.0837466" lon="13.6263648"><ele>1147.6666666666665</ele><time>2026-05-02T12:45:30.323Z</time></trkpt><trkpt lat="42.0837383" lon="13.6264767"><ele>1145.8333333333333</ele><time>2026-05-02T12:45:33.321Z</time></trkpt><trkpt lat="42.0837229" lon="13.6265866"><ele>1144.0</ele><time>2026-05-02T12:45:35.321Z</time></trkpt><trkpt lat="42.0837118" lon="13.6267097"><ele>1144.0</ele><time>2026-05-02T12:45:37.319Z</time></trkpt><trkpt lat="42.0836906" lon="13.6268249"><ele>1144.0</ele><time>2026-05-02T12:45:39.323Z</time></trkpt><trkpt lat="42.0836512" lon="13.6269191"><ele>1144.0</ele><time>2026-05-02T12:45:41.322Z</time></trkpt><trkpt lat="42.083615" lon="13.6270083"><ele>1144.0</ele><time>2026-05-02T12:45:43.326Z</time></trkpt><trkpt lat="42.0835845" lon="13.627105"><ele>1144.0</ele><time>2026-05-02T12:45:49.32Z</time></trkpt><trkpt lat="42.083598" lon="13.6271922"><ele>1144.0</ele><time>2026-05-02T12:45:52.326Z</time></trkpt><trkpt lat="42.0836046" lon="13.6273196"><ele>1142.6666666666665</ele><time>2026-05-02T12:45:55.322Z</time></trkpt><trkpt lat="42.083568" lon="13.6274099"><ele>1141.3333333333333</ele><time>2026-05-02T12:45:57.319Z</time></trkpt><trkpt lat="42.0835093" lon="13.6275115"><ele>1140.0</ele><time>2026-05-02T12:45:59.318Z</time></trkpt><trkpt lat="42.0834558" lon="13.6275902"><ele>1138.6666666666667</ele><time>2026-05-02T12:46:01.316Z</time></trkpt><trkpt lat="42.0833824" lon="13.6276597"><ele>1137.3333333333335</ele><time>2026-05-02T12:46:03.304Z</time></trkpt><trkpt lat="42.0833003" lon="13.6277192"><ele>1136.0</ele><time>2026-05-02T12:46:05.307Z</time></trkpt><trkpt lat="42.0832161" lon="13.6277774"><ele>1133.25</ele><time>2026-05-02T12:46:07.306Z</time></trkpt><trkpt lat="42.0831104" lon="13.6278446"><ele>1130.5</ele><time>2026-05-02T12:46:09.312Z</time></trkpt><trkpt lat="42.0830235" lon="13.6279207"><ele>1127.75</ele><time>2026-05-02T12:46:11.304Z</time></trkpt><trkpt lat="42.0829283" lon="13.6279934"><ele>1125.0</ele><time>2026-05-02T12:46:13.32Z</time></trkpt><trkpt lat="42.0828151" lon="13.628065"><ele>1125.0</ele><time>2026-05-02T12:46:15.317Z</time></trkpt><trkpt lat="42.0827552" lon="13.6281002"><ele>1125.0</ele><time>2026-05-02T12:46:16.318Z</time></trkpt><trkpt lat="42.0826389" lon="13.6281812"><ele>1125.0</ele><time>2026-05-02T12:46:18.314Z</time></trkpt><trkpt lat="42.0825758" lon="13.6282232"><ele>1125.0</ele><time>2026-05-02T12:46:19.315Z</time></trkpt><trkpt lat="42.0825097" lon="13.6282674"><ele>1125.0</ele><time>2026-05-02T12:46:20.319Z</time></trkpt><trkpt lat="42.0824475" lon="13.6283083"><ele>1125.0</ele><time>2026-05-02T12:46:21.317Z</time></trkpt><trkpt lat="42.0823872" lon="13.6283527"><ele>1123.6</ele><time>2026-05-02T12:46:22.322Z</time></trkpt><trkpt lat="42.0822837" lon="13.6284285"><ele>1122.2</ele><time>2026-05-02T12:46:24.315Z</time></trkpt><trkpt lat="42.0822233" lon="13.6284623"><ele>1120.8</ele><time>2026-05-02T12:46:25.316Z</time></trkpt><trkpt lat="42.0821139" lon="13.6285342"><ele>1119.4</ele><time>2026-05-02T12:46:27.315Z</time></trkpt><trkpt lat="42.0820024" lon="13.6285993"><ele>1118.0</ele><time>2026-05-02T12:46:29.316Z</time></trkpt><trkpt lat="42.081876" lon="13.6286078"><ele>1118.0</ele><time>2026-05-02T12:46:31.318Z</time></trkpt><trkpt lat="42.0818031" lon="13.6285982"><ele>1118.0</ele><time>2026-05-02T12:46:32.316Z</time></trkpt><trkpt lat="42.0817322" lon="13.6285832"><ele>1118.0</ele><time>2026-05-02T12:46:33.313Z</time></trkpt><trkpt lat="42.0816626" lon="13.6285503"><ele>1118.0</ele><time>2026-05-02T12:46:34.326Z</time></trkpt><trkpt lat="42.0815478" lon="13.6284944"><ele>1118.0</ele><time>2026-05-02T12:46:36.311Z</time></trkpt><trkpt lat="42.0814317" lon="13.6284418"><ele>1115.7142857142858</ele><time>2026-05-02T12:46:38.314Z</time></trkpt><trkpt lat="42.0813726" lon="13.6284122"><ele>1113.4285714285716</ele><time>2026-05-02T12:46:39.314Z</time></trkpt><trkpt lat="42.0813123" lon="13.6283848"><ele>1111.142857142857</ele><time>2026-05-02T12:46:40.319Z</time></trkpt><trkpt lat="42.081253" lon="13.6283447"><ele>1108.857142857143</ele><time>2026-05-02T12:46:41.314Z</time></trkpt><trkpt lat="42.081197" lon="13.6282955"><ele>1106.5714285714284</ele><time>2026-05-02T12:46:42.314Z</time></trkpt><trkpt lat="42.0811419" lon="13.6282413"><ele>1104.2857142857142</ele><time>2026-05-02T12:46:43.318Z</time></trkpt><trkpt lat="42.0810905" lon="13.6281796"><ele>1102.0</ele><time>2026-05-02T12:46:44.318Z</time></trkpt><trkpt lat="42.0810321" lon="13.6281146"><ele>1102.0</ele><time>2026-05-02T12:46:45.313Z</time></trkpt><trkpt lat="42.0809867" lon="13.6280488"><ele>1102.0</ele><time>2026-05-02T12:46:46.32Z</time></trkpt><trkpt lat="42.0809171" lon="13.6279518"><ele>1102.0</ele><time>2026-05-02T12:46:48.314Z</time></trkpt><trkpt lat="42.0808371" lon="13.6278587"><ele>1102.0</ele><time>2026-05-02T12:46:50.317Z</time></trkpt><trkpt lat="42.0807555" lon="13.6277325"><ele>1102.0</ele><time>2026-05-02T12:46:52.318Z</time></trkpt><trkpt lat="42.0807034" lon="13.6276542"><ele>1100.3333333333333</ele><time>2026-05-02T12:46:53.314Z</time></trkpt><trkpt lat="42.0806497" lon="13.6275739"><ele>1098.6666666666665</ele><time>2026-05-02T12:46:54.313Z</time></trkpt><trkpt lat="42.0805918" lon="13.6274795"><ele>1097.0</ele><time>2026-05-02T12:46:55.314Z</time></trkpt><trkpt lat="42.0805372" lon="13.6273937"><ele>1095.3333333333333</ele><time>2026-05-02T12:46:56.317Z</time></trkpt><trkpt lat="42.0804906" lon="13.6273021"><ele>1093.6666666666667</ele><time>2026-05-02T12:46:57.313Z</time></trkpt><trkpt lat="42.0804419" lon="13.6272141"><ele>1092.0</ele><time>2026-05-02T12:46:58.314Z</time></trkpt><trkpt lat="42.080393" lon="13.6271166"><ele>1092.0</ele><time>2026-05-02T12:46:59.313Z</time></trkpt><trkpt lat="42.0803636" lon="13.627017"><ele>1092.0</ele><time>2026-05-02T12:47:00.315Z</time></trkpt><trkpt lat="42.0803503" lon="13.6269009"><ele>1092.0</ele><time>2026-05-02T12:47:01.312Z</time></trkpt><trkpt lat="42.0803518" lon="13.6267926"><ele>1092.0</ele><time>2026-05-02T12:47:02.319Z</time></trkpt><trkpt lat="42.080357" lon="13.6266746"><ele>1092.0</ele><time>2026-05-02T12:47:03.311Z</time></trkpt><trkpt lat="42.0803734" lon="13.6265605"><ele>1092.0</ele><time>2026-05-02T12:47:04.318Z</time></trkpt><trkpt lat="42.080404" lon="13.6264423"><ele>1092.4</ele><time>2026-05-02T12:47:05.391Z</time></trkpt><trkpt lat="42.0804346" lon="13.6263183"><ele>1092.8000000000002</ele><time>2026-05-02T12:47:06.389Z</time></trkpt><trkpt lat="42.0804561" lon="13.6261908"><ele>1093.2</ele><time>2026-05-02T12:47:07.385Z</time></trkpt><trkpt lat="42.0804577" lon="13.6260382"><ele>1093.6000000000001</ele><time>2026-05-02T12:47:08.38Z</time></trkpt><trkpt lat="42.0804344" lon="13.6258768"><ele>1094.0</ele><time>2026-05-02T12:47:09.379Z</time></trkpt><trkpt lat="42.0803991" lon="13.6257688"><ele>1094.4</ele><time>2026-05-02T12:47:10.366Z</time></trkpt><trkpt lat="42.0803733" lon="13.6256715"><ele>1094.8000000000002</ele><time>2026-05-02T12:47:11.373Z</time></trkpt><trkpt lat="42.080358" lon="13.6255543"><ele>1095.1999999999998</ele><time>2026-05-02T12:47:12.369Z</time></trkpt><trkpt lat="42.0803482" lon="13.6254184"><ele>1095.6</ele><time>2026-05-02T12:47:13.37Z</time></trkpt><trkpt lat="42.080339" lon="13.6252811"><ele>1096.0</ele><time>2026-05-02T12:47:14.382Z</time></trkpt><trkpt lat="42.0803331" lon="13.625137"><ele>1096.6</ele><time>2026-05-02T12:47:15.394Z</time></trkpt><trkpt lat="42.0803492" lon="13.6249907"><ele>1097.1999999999998</ele><time>2026-05-02T12:47:16.392Z</time></trkpt><trkpt lat="42.0803585" lon="13.6248438"><ele>1097.8000000000002</ele><time>2026-05-02T12:47:17.383Z</time></trkpt><trkpt lat="42.0803653" lon="13.6246993"><ele>1098.4</ele><time>2026-05-02T12:47:18.384Z</time></trkpt><trkpt lat="42.0803778" lon="13.6245561"><ele>1099.0</ele><time>2026-05-02T12:47:19.385Z</time></trkpt><trkpt lat="42.0804042" lon="13.6244141"><ele>1099.0</ele><time>2026-05-02T12:47:20.374Z</time></trkpt><trkpt lat="42.0804416" lon="13.6242793"><ele>1099.0</ele><time>2026-05-02T12:47:21.387Z</time></trkpt><trkpt lat="42.0804725" lon="13.6241486"><ele>1099.0</ele><time>2026-05-02T12:47:22.373Z</time></trkpt><trkpt lat="42.0804752" lon="13.624013"><ele>1099.0</ele><time>2026-05-02T12:47:23.363Z</time></trkpt><trkpt lat="42.0804531" lon="13.6238753"><ele>1099.0</ele><time>2026-05-02T12:47:24.367Z</time></trkpt><trkpt lat="42.0804401" lon="13.6237379"><ele>1099.8</ele><time>2026-05-02T12:47:25.279Z</time></trkpt><trkpt lat="42.0804191" lon="13.6235905"><ele>1100.6000000000001</ele><time>2026-05-02T12:47:26.301Z</time></trkpt><trkpt lat="42.0804016" lon="13.6234294"><ele>1101.4</ele><time>2026-05-02T12:47:27.303Z</time></trkpt><trkpt lat="42.080388" lon="13.6232794"><ele>1102.2</ele><time>2026-05-02T12:47:28.301Z</time></trkpt><trkpt lat="42.0803883" lon="13.6231381"><ele>1103.0</ele><time>2026-05-02T12:47:29.293Z</time></trkpt><trkpt lat="42.0804077" lon="13.6229914"><ele>1103.0</ele><time>2026-05-02T12:47:30.301Z</time></trkpt><trkpt lat="42.0804291" lon="13.6228579"><ele>1103.0</ele><time>2026-05-02T12:47:31.298Z</time></trkpt><trkpt lat="42.0804484" lon="13.6227322"><ele>1103.0</ele><time>2026-05-02T12:47:32.301Z</time></trkpt><trkpt lat="42.0804654" lon="13.6226157"><ele>1103.0</ele><time>2026-05-02T12:47:33.305Z</time></trkpt><trkpt lat="42.0804791" lon="13.6225055"><ele>1103.0</ele><time>2026-05-02T12:47:34.3Z</time></trkpt><trkpt lat="42.0804963" lon="13.6223979"><ele>1103.0</ele><time>2026-05-02T12:47:35.302Z</time></trkpt><trkpt lat="42.0805304" lon="13.6222945"><ele>1102.6</ele><time>2026-05-02T12:47:36.298Z</time></trkpt><trkpt lat="42.0805768" lon="13.6221935"><ele>1102.1999999999998</ele><time>2026-05-02T12:47:37.294Z</time></trkpt><trkpt lat="42.0806381" lon="13.6220869"><ele>1101.8</ele><time>2026-05-02T12:47:38.303Z</time></trkpt><trkpt lat="42.0806952" lon="13.6219793"><ele>1101.3999999999999</ele><time>2026-05-02T12:47:39.295Z</time></trkpt><trkpt lat="42.0807558" lon="13.6218783"><ele>1101.0</ele><time>2026-05-02T12:47:40.301Z</time></trkpt><trkpt lat="42.0808169" lon="13.6217876"><ele>1103.3999999999999</ele><time>2026-05-02T12:47:41.295Z</time></trkpt><trkpt lat="42.0808911" lon="13.621714"><ele>1105.8</ele><time>2026-05-02T12:47:42.304Z</time></trkpt><trkpt lat="42.080953" lon="13.6216324"><ele>1108.1999999999998</ele><time>2026-05-02T12:47:43.298Z</time></trkpt><trkpt lat="42.0809905" lon="13.6215249"><ele>1110.6</ele><time>2026-05-02T12:47:44.298Z</time></trkpt><trkpt lat="42.081022" lon="13.6213901"><ele>1113.0</ele><time>2026-05-02T12:47:45.299Z</time></trkpt><trkpt lat="42.0810601" lon="13.6212563"><ele>1112.0</ele><time>2026-05-02T12:47:46.3Z</time></trkpt><trkpt lat="42.0811201" lon="13.6211201"><ele>1111.0</ele><time>2026-05-02T12:47:47.296Z</time></trkpt><trkpt lat="42.08118" lon="13.6209744"><ele>1110.0</ele><time>2026-05-02T12:47:48.302Z</time></trkpt><trkpt lat="42.0812269" lon="13.6208195"><ele>1109.0</ele><time>2026-05-02T12:47:49.298Z</time></trkpt><trkpt lat="42.0812698" lon="13.6206573"><ele>1109.0</ele><time>2026-05-02T12:47:50.295Z</time></trkpt><trkpt lat="42.0812956" lon="13.6205128"><ele>1109.0</ele><time>2026-05-02T12:47:51.303Z</time></trkpt><trkpt lat="42.0813193" lon="13.6203658"><ele>1109.0</ele><time>2026-05-02T12:47:52.307Z</time></trkpt><trkpt lat="42.0813565" lon="13.6202296"><ele>1109.0</ele><time>2026-05-02T12:47:53.304Z</time></trkpt><trkpt lat="42.0813937" lon="13.6201008"><ele>1109.0</ele><time>2026-05-02T12:47:54.303Z</time></trkpt><trkpt lat="42.0814293" lon="13.6199788"><ele>1107.6000000000001</ele><time>2026-05-02T12:47:55.302Z</time></trkpt><trkpt lat="42.0814567" lon="13.6198594"><ele>1106.2</ele><time>2026-05-02T12:47:56.301Z</time></trkpt><trkpt lat="42.0814906" lon="13.6197464"><ele>1104.8000000000002</ele><time>2026-05-02T12:47:57.298Z</time></trkpt><trkpt lat="42.0815198" lon="13.6196303"><ele>1103.4</ele><time>2026-05-02T12:47:58.305Z</time></trkpt><trkpt lat="42.0815548" lon="13.6195174"><ele>1102.0</ele><time>2026-05-02T12:47:59.3Z</time></trkpt><trkpt lat="42.0815935" lon="13.6193913"><ele>1103.4</ele><time>2026-05-02T12:48:00.305Z</time></trkpt><trkpt lat="42.0816307" lon="13.619263"><ele>1104.8000000000002</ele><time>2026-05-02T12:48:01.3Z</time></trkpt><trkpt lat="42.0816699" lon="13.6191405"><ele>1106.2</ele><time>2026-05-02T12:48:02.297Z</time></trkpt><trkpt lat="42.0816954" lon="13.6190176"><ele>1107.6000000000001</ele><time>2026-05-02T12:48:03.298Z</time></trkpt><trkpt lat="42.0817331" lon="13.6188768"><ele>1109.0</ele><time>2026-05-02T12:48:04.299Z</time></trkpt><trkpt lat="42.0817827" lon="13.618737"><ele>1106.8</ele><time>2026-05-02T12:48:05.302Z</time></trkpt><trkpt lat="42.0818257" lon="13.6186101"><ele>1104.6000000000001</ele><time>2026-05-02T12:48:06.3Z</time></trkpt><trkpt lat="42.0818624" lon="13.6184877"><ele>1102.4</ele><time>2026-05-02T12:48:07.302Z</time></trkpt><trkpt lat="42.0819022" lon="13.6183672"><ele>1100.2</ele><time>2026-05-02T12:48:08.297Z</time></trkpt><trkpt lat="42.08195" lon="13.6182346"><ele>1098.0</ele><time>2026-05-02T12:48:09.303Z</time></trkpt><trkpt lat="42.0819958" lon="13.6180878"><ele>1098.0</ele><time>2026-05-02T12:48:10.304Z</time></trkpt><trkpt lat="42.082037" lon="13.6179384"><ele>1098.0</ele><time>2026-05-02T12:48:11.299Z</time></trkpt><trkpt lat="42.0820764" lon="13.6177894"><ele>1098.0</ele><time>2026-05-02T12:48:12.303Z</time></trkpt><trkpt lat="42.082113" lon="13.6176271"><ele>1098.0</ele><time>2026-05-02T12:48:13.309Z</time></trkpt><trkpt lat="42.0821403" lon="13.617466"><ele>1095.8</ele><time>2026-05-02T12:48:14.302Z</time></trkpt><trkpt lat="42.0821623" lon="13.6173241"><ele>1093.6</ele><time>2026-05-02T12:48:15.304Z</time></trkpt><trkpt lat="42.0821852" lon="13.6171874"><ele>1091.4</ele><time>2026-05-02T12:48:16.303Z</time></trkpt><trkpt lat="42.0822149" lon="13.617056"><ele>1089.2</ele><time>2026-05-02T12:48:17.299Z</time></trkpt><trkpt lat="42.0822435" lon="13.6169346"><ele>1087.0</ele><time>2026-05-02T12:48:18.303Z</time></trkpt><trkpt lat="42.0822725" lon="13.6168177"><ele>1085.6</ele><time>2026-05-02T12:48:19.298Z</time></trkpt><trkpt lat="42.0822795" lon="13.6167036"><ele>1084.2</ele><time>2026-05-02T12:48:20.292Z</time></trkpt><trkpt lat="42.0822657" lon="13.6165799"><ele>1082.8</ele><time>2026-05-02T12:48:21.304Z</time></trkpt><trkpt lat="42.0822416" lon="13.6164537"><ele>1081.4</ele><time>2026-05-02T12:48:22.3Z</time></trkpt><trkpt lat="42.082226" lon="13.6163216"><ele>1080.0</ele><time>2026-05-02T12:48:23.303Z</time></trkpt><trkpt lat="42.0822186" lon="13.6161794"><ele>1078.4</ele><time>2026-05-02T12:48:24.306Z</time></trkpt><trkpt lat="42.0822162" lon="13.6160424"><ele>1076.8</ele><time>2026-05-02T12:48:25.304Z</time></trkpt><trkpt lat="42.0822247" lon="13.6158953"><ele>1075.2</ele><time>2026-05-02T12:48:26.304Z</time></trkpt><trkpt lat="42.0822286" lon="13.6157527"><ele>1073.6</ele><time>2026-05-02T12:48:27.301Z</time></trkpt><trkpt lat="42.0822306" lon="13.6156188"><ele>1072.0</ele><time>2026-05-02T12:48:28.305Z</time></trkpt><trkpt lat="42.0822261" lon="13.6154867"><ele>1072.0</ele><time>2026-05-02T12:48:29.306Z</time></trkpt><trkpt lat="42.0822192" lon="13.6153629"><ele>1072.0</ele><time>2026-05-02T12:48:30.305Z</time></trkpt><trkpt lat="42.0822117" lon="13.6152363"><ele>1072.0</ele><time>2026-05-02T12:48:31.295Z</time></trkpt><trkpt lat="42.0822099" lon="13.6150925"><ele>1072.0</ele><time>2026-05-02T12:48:32.297Z</time></trkpt><trkpt lat="42.0822087" lon="13.6149299"><ele>1072.0</ele><time>2026-05-02T12:48:33.302Z</time></trkpt><trkpt lat="42.0822049" lon="13.6147799"><ele>1070.5</ele><time>2026-05-02T12:48:34.307Z</time></trkpt><trkpt lat="42.0822028" lon="13.6146274"><ele>1069.0</ele><time>2026-05-02T12:48:35.3Z</time></trkpt><trkpt lat="42.0821994" lon="13.6144654"><ele>1067.5</ele><time>2026-05-02T12:48:36.303Z</time></trkpt><trkpt lat="42.0821925" lon="13.6143151"><ele>1066.0</ele><time>2026-05-02T12:48:37.298Z</time></trkpt><trkpt lat="42.0821829" lon="13.6141732"><ele>1064.6</ele><time>2026-05-02T12:48:38.302Z</time></trkpt><trkpt lat="42.0821792" lon="13.6140443"><ele>1063.1999999999998</ele><time>2026-05-02T12:48:39.299Z</time></trkpt><trkpt lat="42.0821753" lon="13.6139073"><ele>1061.8000000000002</ele><time>2026-05-02T12:48:40.301Z</time></trkpt><trkpt lat="42.0821641" lon="13.6137601"><ele>1060.4</ele><time>2026-05-02T12:48:41.298Z</time></trkpt><trkpt lat="42.0821504" lon="13.6136248"><ele>1059.0</ele><time>2026-05-02T12:48:42.3Z</time></trkpt><trkpt lat="42.0821358" lon="13.6134887"><ele>1057.75</ele><time>2026-05-02T12:48:43.301Z</time></trkpt><trkpt lat="42.0821229" lon="13.6133494"><ele>1056.5</ele><time>2026-05-02T12:48:44.304Z</time></trkpt><trkpt lat="42.0821167" lon="13.6131923"><ele>1055.25</ele><time>2026-05-02T12:48:45.305Z</time></trkpt><trkpt lat="42.0821153" lon="13.6130246"><ele>1054.0</ele><time>2026-05-02T12:48:46.302Z</time></trkpt><trkpt lat="42.0821096" lon="13.6128554"><ele>1053.0</ele><time>2026-05-02T12:48:47.301Z</time></trkpt><trkpt lat="42.082101" lon="13.6126948"><ele>1052.0</ele><time>2026-05-02T12:48:48.3Z</time></trkpt><trkpt lat="42.0821074" lon="13.6125414"><ele>1051.0</ele><time>2026-05-02T12:48:49.292Z</time></trkpt><trkpt lat="42.0820948" lon="13.6123989"><ele>1050.0</ele><time>2026-05-02T12:48:50.297Z</time></trkpt><trkpt lat="42.0820845" lon="13.6122657"><ele>1049.0</ele><time>2026-05-02T12:48:51.3Z</time></trkpt><trkpt lat="42.0820732" lon="13.6121309"><ele>1049.0</ele><time>2026-05-02T12:48:52.295Z</time></trkpt><trkpt lat="42.0820662" lon="13.611994"><ele>1049.0</ele><time>2026-05-02T12:48:53.295Z</time></trkpt><trkpt lat="42.0820656" lon="13.6118529"><ele>1049.0</ele><time>2026-05-02T12:48:54.304Z</time></trkpt><trkpt lat="42.0820617" lon="13.6117194"><ele>1049.0</ele><time>2026-05-02T12:48:55.305Z</time></trkpt><trkpt lat="42.0820582" lon="13.6115911"><ele>1049.0</ele><time>2026-05-02T12:48:56.3Z</time></trkpt><trkpt lat="42.0820513" lon="13.6114597"><ele>1047.8333333333335</ele><time>2026-05-02T12:48:57.304Z</time></trkpt><trkpt lat="42.082046" lon="13.6113232"><ele>1046.6666666666667</ele><time>2026-05-02T12:48:58.303Z</time></trkpt><trkpt lat="42.0820496" lon="13.6112018"><ele>1045.5</ele><time>2026-05-02T12:48:59.302Z</time></trkpt><trkpt lat="42.0820504" lon="13.6110843"><ele>1044.3333333333333</ele><time>2026-05-02T12:49:00.306Z</time></trkpt><trkpt lat="42.0820608" lon="13.6109752"><ele>1043.1666666666665</ele><time>2026-05-02T12:49:01.295Z</time></trkpt><trkpt lat="42.082074" lon="13.6108731"><ele>1042.0</ele><time>2026-05-02T12:49:02.3Z</time></trkpt><trkpt lat="42.0820992" lon="13.6107827"><ele>1042.8</ele><time>2026-05-02T12:49:03.299Z</time></trkpt><trkpt lat="42.0821285" lon="13.6106959"><ele>1043.6</ele><time>2026-05-02T12:49:04.3Z</time></trkpt><trkpt lat="42.0821589" lon="13.6106197"><ele>1044.3999999999999</ele><time>2026-05-02T12:49:05.3Z</time></trkpt><trkpt lat="42.0822447" lon="13.6105274"><ele>1045.2</ele><time>2026-05-02T12:49:07.298Z</time></trkpt><trkpt lat="42.0823231" lon="13.6104823"><ele>1046.0</ele><time>2026-05-02T12:49:09.309Z</time></trkpt><trkpt lat="42.0824486" lon="13.6104659"><ele>1046.0</ele><time>2026-05-02T12:49:11.298Z</time></trkpt><trkpt lat="42.0825164" lon="13.610461"><ele>1046.0</ele><time>2026-05-02T12:49:12.292Z</time></trkpt><trkpt lat="42.0826448" lon="13.6104471"><ele>1046.0</ele><time>2026-05-02T12:49:14.297Z</time></trkpt><trkpt lat="42.0827139" lon="13.6104245"><ele>1046.0</ele><time>2026-05-02T12:49:15.296Z</time></trkpt><trkpt lat="42.0827758" lon="13.6103919"><ele>1046.0</ele><time>2026-05-02T12:49:16.299Z</time></trkpt><trkpt lat="42.0828538" lon="13.610308"><ele>1046.0</ele><time>2026-05-02T12:49:18.3Z</time></trkpt><trkpt lat="42.0828925" lon="13.6102314"><ele>1044.1666666666667</ele><time>2026-05-02T12:49:20.305Z</time></trkpt><trkpt lat="42.0828456" lon="13.6101655"><ele>1042.3333333333335</ele><time>2026-05-02T12:49:35.303Z</time></trkpt><trkpt lat="42.0827733" lon="13.6101744"><ele>1040.5</ele><time>2026-05-02T12:49:37.296Z</time></trkpt><trkpt lat="42.0826831" lon="13.6100921"><ele>1038.6666666666667</ele><time>2026-05-02T12:49:39.306Z</time></trkpt><trkpt lat="42.0825676" lon="13.6100642"><ele>1036.8333333333333</ele><time>2026-05-02T12:49:41.297Z</time></trkpt><trkpt lat="42.0824944" lon="13.6100623"><ele>1035.0</ele><time>2026-05-02T12:49:42.299Z</time></trkpt><trkpt lat="42.0824188" lon="13.6100507"><ele>1032.2</ele><time>2026-05-02T12:49:43.301Z</time></trkpt><trkpt lat="42.0823377" lon="13.6100327"><ele>1029.4</ele><time>2026-05-02T12:49:44.296Z</time></trkpt><trkpt lat="42.082256" lon="13.6100209"><ele>1026.6</ele><time>2026-05-02T12:49:45.298Z</time></trkpt><trkpt lat="42.082179" lon="13.6100106"><ele>1023.8</ele><time>2026-05-02T12:49:46.297Z</time></trkpt><trkpt lat="42.0820659" lon="13.6099919"><ele>1021.0</ele><time>2026-05-02T12:49:48.295Z</time></trkpt><trkpt lat="42.0819603" lon="13.6100021"><ele>1021.0</ele><time>2026-05-02T12:49:50.293Z</time></trkpt><trkpt lat="42.0818605" lon="13.6100218"><ele>1020.9999999999999</ele><time>2026-05-02T12:49:52.303Z</time></trkpt><trkpt lat="42.0817502" lon="13.6100235"><ele>1020.9999999999999</ele><time>2026-05-02T12:49:54.308Z</time></trkpt><trkpt lat="42.0816311" lon="13.6100206"><ele>1021.0</ele><time>2026-05-02T12:49:56.298Z</time></trkpt><trkpt lat="42.0815677" lon="13.6100426"><ele>1021.0</ele><time>2026-05-02T12:49:57.283Z</time></trkpt><trkpt lat="42.0814581" lon="13.6100903"><ele>1018.5999999999999</ele><time>2026-05-02T12:49:59.299Z</time></trkpt><trkpt lat="42.0813468" lon="13.610157"><ele>1016.1999999999999</ele><time>2026-05-02T12:50:01.296Z</time></trkpt><trkpt lat="42.0812413" lon="13.6102451"><ele>1013.8000000000001</ele><time>2026-05-02T12:50:03.293Z</time></trkpt><trkpt lat="42.081142" lon="13.6102907"><ele>1011.4000000000001</ele><time>2026-05-02T12:50:05.293Z</time></trkpt><trkpt lat="42.0810588" lon="13.6102726"><ele>1009.0</ele><time>2026-05-02T12:50:07.309Z</time></trkpt><trkpt lat="42.0809557" lon="13.6102395"><ele>1008.9999999999999</ele><time>2026-05-02T12:50:09.293Z</time></trkpt><trkpt lat="42.0808458" lon="13.6102073"><ele>1009.0</ele><time>2026-05-02T12:50:11.296Z</time></trkpt><trkpt lat="42.0807818" lon="13.61021"><ele>1009.0</ele><time>2026-05-02T12:50:12.297Z</time></trkpt><trkpt lat="42.0806529" lon="13.6102273"><ele>1009.0</ele><time>2026-05-02T12:50:14.294Z</time></trkpt><trkpt lat="42.0805877" lon="13.6102389"><ele>1008.9999999999999</ele><time>2026-05-02T12:50:15.291Z</time></trkpt><trkpt lat="42.0805219" lon="13.6102626"><ele>1009.0</ele><time>2026-05-02T12:50:16.295Z</time></trkpt><trkpt lat="42.0804582" lon="13.6102812"><ele>1007.3333333333333</ele><time>2026-05-02T12:50:17.296Z</time></trkpt><trkpt lat="42.0803458" lon="13.610315"><ele>1005.6666666666666</ele><time>2026-05-02T12:50:19.297Z</time></trkpt><trkpt lat="42.0802833" lon="13.6103312"><ele>1004.0</ele><time>2026-05-02T12:50:20.296Z</time></trkpt><trkpt lat="42.0802165" lon="13.6103359"><ele>1002.3333333333333</ele><time>2026-05-02T12:50:21.298Z</time></trkpt><trkpt lat="42.0800871" lon="13.6103336"><ele>1000.6666666666666</ele><time>2026-05-02T12:50:23.294Z</time></trkpt><trkpt lat="42.0800159" lon="13.6103324"><ele>999.0</ele><time>2026-05-02T12:50:24.294Z</time></trkpt><trkpt lat="42.0799095" lon="13.6103627"><ele>996.4000000000001</ele><time>2026-05-02T12:50:26.293Z</time></trkpt><trkpt lat="42.0798038" lon="13.6103819"><ele>993.8000000000001</ele><time>2026-05-02T12:50:28.298Z</time></trkpt><trkpt lat="42.0796864" lon="13.6104171"><ele>991.1999999999999</ele><time>2026-05-02T12:50:30.296Z</time></trkpt><trkpt lat="42.0795666" lon="13.6104402"><ele>988.5999999999999</ele><time>2026-05-02T12:50:32.293Z</time></trkpt><trkpt lat="42.0795013" lon="13.6104274"><ele>986.0</ele><time>2026-05-02T12:50:33.293Z</time></trkpt><trkpt lat="42.0794337" lon="13.6103889"><ele>986.0000000000001</ele><time>2026-05-02T12:50:34.292Z</time></trkpt><trkpt lat="42.0793696" lon="13.6103448"><ele>986.0</ele><time>2026-05-02T12:50:35.295Z</time></trkpt><trkpt lat="42.0792937" lon="13.6103099"><ele>986.0</ele><time>2026-05-02T12:50:36.295Z</time></trkpt><trkpt lat="42.0792252" lon="13.6102895"><ele>986.0</ele><time>2026-05-02T12:50:37.288Z</time></trkpt><trkpt lat="42.0791524" lon="13.6102646"><ele>986.0000000000001</ele><time>2026-05-02T12:50:38.296Z</time></trkpt><trkpt lat="42.0790291" lon="13.6102415"><ele>986.0</ele><time>2026-05-02T12:50:40.296Z</time></trkpt><trkpt lat="42.0789652" lon="13.6102334"><ele>983.8571428571429</ele><time>2026-05-02T12:50:41.293Z</time></trkpt><trkpt lat="42.0789005" lon="13.6102337"><ele>981.7142857142858</ele><time>2026-05-02T12:50:42.296Z</time></trkpt><trkpt lat="42.0788353" lon="13.6102374"><ele>979.5714285714287</ele><time>2026-05-02T12:50:43.298Z</time></trkpt><trkpt lat="42.0787715" lon="13.6102496"><ele>977.4285714285714</ele><time>2026-05-02T12:50:44.29Z</time></trkpt><trkpt lat="42.0787034" lon="13.6102578"><ele>975.2857142857144</ele><time>2026-05-02T12:50:45.294Z</time></trkpt><trkpt lat="42.0786348" lon="13.6102654"><ele>973.1428571428572</ele><time>2026-05-02T12:50:46.294Z</time></trkpt><trkpt lat="42.078568" lon="13.6102521"><ele>971.0</ele><time>2026-05-02T12:50:47.294Z</time></trkpt><trkpt lat="42.0784427" lon="13.6102286"><ele>971.0000000000001</ele><time>2026-05-02T12:50:49.295Z</time></trkpt><trkpt lat="42.0783724" lon="13.6102157"><ele>971.0</ele><time>2026-05-02T12:50:50.294Z</time></trkpt><trkpt lat="42.0782972" lon="13.6102131"><ele>971.0</ele><time>2026-05-02T12:50:51.299Z</time></trkpt><trkpt lat="42.0782237" lon="13.6102206"><ele>971.0</ele><time>2026-05-02T12:50:52.295Z</time></trkpt><trkpt lat="42.0781477" lon="13.6102434"><ele>971.0000000000001</ele><time>2026-05-02T12:50:53.303Z</time></trkpt><trkpt lat="42.0780713" lon="13.6102789"><ele>971.0</ele><time>2026-05-02T12:50:54.299Z</time></trkpt><trkpt lat="42.0779963" lon="13.6102986"><ele>969.5714285714287</ele><time>2026-05-02T12:50:55.292Z</time></trkpt><trkpt lat="42.0779122" lon="13.6102979"><ele>968.1428571428572</ele><time>2026-05-02T12:50:56.288Z</time></trkpt><trkpt lat="42.07784" lon="13.6102884"><ele>966.7142857142858</ele><time>2026-05-02T12:50:57.293Z</time></trkpt><trkpt lat="42.0777727" lon="13.6102781"><ele>965.2857142857142</ele><time>2026-05-02T12:50:58.301Z</time></trkpt><trkpt lat="42.077708" lon="13.6102787"><ele>963.8571428571428</ele><time>2026-05-02T12:50:59.294Z</time></trkpt><trkpt lat="42.0776445" lon="13.6102839"><ele>962.4285714285713</ele><time>2026-05-02T12:51:00.299Z</time></trkpt><trkpt lat="42.0775818" lon="13.6103045"><ele>961.0</ele><time>2026-05-02T12:51:01.293Z</time></trkpt><trkpt lat="42.0774881" lon="13.6103363"><ele>958.1999999999999</ele><time>2026-05-02T12:51:03.285Z</time></trkpt><trkpt lat="42.0773973" lon="13.6103323"><ele>955.3999999999999</ele><time>2026-05-02T12:51:05.292Z</time></trkpt><trkpt lat="42.0772767" lon="13.6103549"><ele>952.6</ele><time>2026-05-02T12:51:07.295Z</time></trkpt><trkpt lat="42.0772084" lon="13.6103817"><ele>949.8</ele><time>2026-05-02T12:51:08.295Z</time></trkpt><trkpt lat="42.0771481" lon="13.6104084"><ele>947.0</ele><time>2026-05-02T12:51:09.295Z</time></trkpt><trkpt lat="42.0770336" lon="13.6104288"><ele>947.0</ele><time>2026-05-02T12:51:11.292Z</time></trkpt><trkpt lat="42.0769611" lon="13.6104105"><ele>946.9999999999999</ele><time>2026-05-02T12:51:12.292Z</time></trkpt><trkpt lat="42.076895" lon="13.6103843"><ele>947.0</ele><time>2026-05-02T12:51:13.292Z</time></trkpt><trkpt lat="42.0768197" lon="13.6103782"><ele>947.0</ele><time>2026-05-02T12:51:14.293Z</time></trkpt><trkpt lat="42.0767461" lon="13.6103834"><ele>946.9999999999999</ele><time>2026-05-02T12:51:15.292Z</time></trkpt><trkpt lat="42.0766719" lon="13.6103971"><ele>947.0</ele><time>2026-05-02T12:51:16.294Z</time></trkpt><trkpt lat="42.0765914" lon="13.6103954"><ele>947.0</ele><time>2026-05-02T12:51:17.291Z</time></trkpt><trkpt lat="42.0765141" lon="13.6104003"><ele>944.3333333333334</ele><time>2026-05-02T12:51:18.293Z</time></trkpt><trkpt lat="42.0764346" lon="13.6104029"><ele>941.6666666666667</ele><time>2026-05-02T12:51:19.293Z</time></trkpt><trkpt lat="42.0763573" lon="13.6104156"><ele>939.0</ele><time>2026-05-02T12:51:20.293Z</time></trkpt><trkpt lat="42.0762862" lon="13.610433"><ele>936.3333333333333</ele><time>2026-05-02T12:51:21.299Z</time></trkpt><trkpt lat="42.076209" lon="13.6104398"><ele>933.6666666666666</ele><time>2026-05-02T12:51:22.291Z</time></trkpt><trkpt lat="42.0761417" lon="13.6104688"><ele>931.0</ele><time>2026-05-02T12:51:23.291Z</time></trkpt><trkpt lat="42.0760412" lon="13.6105835"><ele>930.9999999999999</ele><time>2026-05-02T12:51:25.293Z</time></trkpt><trkpt lat="42.0759941" lon="13.6106507"><ele>931.0</ele><time>2026-05-02T12:51:26.291Z</time></trkpt><trkpt lat="42.0759408" lon="13.6107109"><ele>931.0</ele><time>2026-05-02T12:51:27.296Z</time></trkpt><trkpt lat="42.0758865" lon="13.6107624"><ele>931.0</ele><time>2026-05-02T12:51:28.299Z</time></trkpt><trkpt lat="42.0758217" lon="13.6108128"><ele>930.9999999999999</ele><time>2026-05-02T12:51:29.3Z</time></trkpt><trkpt lat="42.0757251" lon="13.610873"><ele>931.0</ele><time>2026-05-02T12:51:31.29Z</time></trkpt><trkpt lat="42.0756682" lon="13.6109222"><ele>928.9999999999999</ele><time>2026-05-02T12:51:35.305Z</time></trkpt><trkpt lat="42.0756034" lon="13.6109664"><ele>927.0</ele><time>2026-05-02T12:51:38.308Z</time></trkpt><trkpt lat="42.0755417" lon="13.6110057"><ele>925.0</ele><time>2026-05-02T12:51:40.305Z</time></trkpt><trkpt lat="42.0754642" lon="13.611044"><ele>923.0</ele><time>2026-05-02T12:51:44.302Z</time></trkpt><trkpt lat="42.0753766" lon="13.6110887"><ele>920.9999999999999</ele><time>2026-05-02T12:51:47.303Z</time></trkpt><trkpt lat="42.0753183" lon="13.6111214"><ele>919.0</ele><time>2026-05-02T12:51:49.309Z</time></trkpt><trkpt lat="42.0752273" lon="13.6111216"><ele>918.9999999999999</ele><time>2026-05-02T12:51:53.312Z</time></trkpt><trkpt lat="42.0751498" lon="13.6111619"><ele>919.0</ele><time>2026-05-02T12:51:56.311Z</time></trkpt><trkpt lat="42.0751697" lon="13.6112461"><ele>919.0</ele><time>2026-05-02T12:52:00.314Z</time></trkpt><trkpt lat="42.0752335" lon="13.6111997"><ele>919.0</ele><time>2026-05-02T12:52:02.308Z</time></trkpt><trkpt lat="42.0752898" lon="13.6111513"><ele>918.9999999999999</ele><time>2026-05-02T12:52:03.306Z</time></trkpt><trkpt lat="42.0753925" lon="13.6110924"><ele>919.0</ele><time>2026-05-02T12:52:05.304Z</time></trkpt><trkpt lat="42.0754879" lon="13.6110436"><ele>918.9999999999999</ele><time>2026-05-02T12:52:07.293Z</time></trkpt><trkpt lat="42.075596" lon="13.610984"><ele>919.0</ele><time>2026-05-02T12:52:09.285Z</time></trkpt><trkpt lat="42.0757088" lon="13.6109148"><ele>919.0</ele><time>2026-05-02T12:52:11.291Z</time></trkpt><trkpt lat="42.0757711" lon="13.6108842"><ele>919.0</ele><time>2026-05-02T12:52:14.302Z</time></trkpt><trkpt lat="42.0758023" lon="13.6109663"><ele>918.9999999999999</ele><time>2026-05-02T12:52:29.304Z</time></trkpt><trkpt lat="42.0757721" lon="13.6110506"><ele>919.0</ele><time>2026-05-02T12:52:33.305Z</time></trkpt><trkpt lat="42.0757129" lon="13.6111013"><ele>919.0</ele><time>2026-05-02T12:52:37.312Z</time></trkpt><trkpt lat="42.0756403" lon="13.6111058"><ele>918.9999999999999</ele><time>2026-05-02T12:52:42.311Z</time></trkpt><trkpt lat="42.075713" lon="13.6110859"><ele>919.0</ele><time>2026-05-02T12:52:50.305Z</time></trkpt><trkpt lat="42.0757556" lon="13.6110229"><ele>919.0</ele><time>2026-05-02T12:52:53.303Z</time></trkpt><trkpt lat="42.0758236" lon="13.6109997"><ele>918.9999999999999</ele><time>2026-05-02T13:27:14.313Z</time></trkpt><trkpt lat="42.0757986" lon="13.6109208"><ele>919.0</ele><time>2026-05-02T13:27:37.315Z</time></trkpt><trkpt lat="42.0757308" lon="13.6108647"><ele>919.0</ele><time>2026-05-02T13:27:41.314Z</time></trkpt><trkpt lat="42.075658" lon="13.6109161"><ele>919.0</ele><time>2026-05-02T13:27:43.332Z</time></trkpt><trkpt lat="42.0755612" lon="13.6110027"><ele>919.0</ele><time>2026-05-02T13:27:45.31Z</time></trkpt><trkpt lat="42.0754464" lon="13.6110486"><ele>919.0</ele><time>2026-05-02T13:27:47.306Z</time></trkpt><trkpt lat="42.075347" lon="13.6111011"><ele>919.0</ele><time>2026-05-02T13:27:49.301Z</time></trkpt><trkpt lat="42.0752589" lon="13.6111947"><ele>918.8333333333333</ele><time>2026-05-02T13:27:51.311Z</time></trkpt><trkpt lat="42.0751973" lon="13.6112593"><ele>918.6666666666666</ele><time>2026-05-02T13:27:53.331Z</time></trkpt><trkpt lat="42.0751226" lon="13.6112988"><ele>918.5</ele><time>2026-05-02T13:27:55.32Z</time></trkpt><trkpt lat="42.075009" lon="13.6113098"><ele>918.3333333333333</ele><time>2026-05-02T13:27:57.308Z</time></trkpt><trkpt lat="42.0749409" lon="13.6113141"><ele>918.1666666666666</ele><time>2026-05-02T13:27:58.31Z</time></trkpt><trkpt lat="42.0748682" lon="13.6113036"><ele>918.0</ele><time>2026-05-02T13:27:59.31Z</time></trkpt><trkpt lat="42.0747868" lon="13.6112835"><ele>916.6666666666666</ele><time>2026-05-02T13:28:00.314Z</time></trkpt><trkpt lat="42.0747058" lon="13.6112751"><ele>915.3333333333333</ele><time>2026-05-02T13:28:01.303Z</time></trkpt><trkpt lat="42.0746327" lon="13.6112583"><ele>914.0</ele><time>2026-05-02T13:28:02.306Z</time></trkpt><trkpt lat="42.0745251" lon="13.6112072"><ele>912.6666666666666</ele><time>2026-05-02T13:28:04.306Z</time></trkpt><trkpt lat="42.0744628" lon="13.6111758"><ele>911.3333333333333</ele><time>2026-05-02T13:28:06.317Z</time></trkpt><trkpt lat="42.0743857" lon="13.6111339"><ele>910.0</ele><time>2026-05-02T13:28:08.314Z</time></trkpt><trkpt lat="42.0743252" lon="13.6110929"><ele>909.8</ele><time>2026-05-02T13:28:09.307Z</time></trkpt><trkpt lat="42.0742447" lon="13.6110522"><ele>909.6</ele><time>2026-05-02T13:28:10.305Z</time></trkpt><trkpt lat="42.0741542" lon="13.611004"><ele>909.4000000000001</ele><time>2026-05-02T13:28:11.309Z</time></trkpt><trkpt lat="42.074058" lon="13.6109521"><ele>909.2</ele><time>2026-05-02T13:28:12.379Z</time></trkpt><trkpt lat="42.0739623" lon="13.6108923"><ele>909.0</ele><time>2026-05-02T13:28:13.384Z</time></trkpt><trkpt lat="42.0738717" lon="13.6108278"><ele>907.8333333333334</ele><time>2026-05-02T13:28:14.393Z</time></trkpt><trkpt lat="42.0737902" lon="13.6107705"><ele>906.6666666666667</ele><time>2026-05-02T13:28:15.381Z</time></trkpt><trkpt lat="42.0737186" lon="13.6107237"><ele>905.5</ele><time>2026-05-02T13:28:16.377Z</time></trkpt><trkpt lat="42.0736552" lon="13.6106791"><ele>904.3333333333334</ele><time>2026-05-02T13:28:17.378Z</time></trkpt><trkpt lat="42.0735913" lon="13.6106259"><ele>903.1666666666667</ele><time>2026-05-02T13:28:18.364Z</time></trkpt><trkpt lat="42.0735232" lon="13.6105675"><ele>902.0</ele><time>2026-05-02T13:28:19.374Z</time></trkpt><trkpt lat="42.0734553" lon="13.6104988"><ele>902.0</ele><time>2026-05-02T13:28:20.374Z</time></trkpt><trkpt lat="42.0733923" lon="13.6104275"><ele>902.0</ele><time>2026-05-02T13:28:21.383Z</time></trkpt><trkpt lat="42.0733188" lon="13.6103501"><ele>902.0</ele><time>2026-05-02T13:28:22.37Z</time></trkpt><trkpt lat="42.0732362" lon="13.610252"><ele>902.0</ele><time>2026-05-02T13:28:23.379Z</time></trkpt><trkpt lat="42.0731509" lon="13.610153"><ele>902.0</ele><time>2026-05-02T13:28:24.383Z</time></trkpt><trkpt lat="42.0730613" lon="13.6100523"><ele>899.25</ele><time>2026-05-02T13:28:25.383Z</time></trkpt><trkpt lat="42.0729689" lon="13.6099507"><ele>896.5</ele><time>2026-05-02T13:28:26.374Z</time></trkpt><trkpt lat="42.072877" lon="13.6098478"><ele>893.75</ele><time>2026-05-02T13:28:27.385Z</time></trkpt><trkpt lat="42.0727842" lon="13.6097407"><ele>891.0</ele><time>2026-05-02T13:28:28.395Z</time></trkpt><trkpt lat="42.0726916" lon="13.6096281"><ele>891.0</ele><time>2026-05-02T13:28:29.395Z</time></trkpt><trkpt lat="42.0725982" lon="13.609512"><ele>891.0</ele><time>2026-05-02T13:28:30.392Z</time></trkpt><trkpt lat="42.0725082" lon="13.6093941"><ele>891.0</ele><time>2026-05-02T13:28:31.38Z</time></trkpt><trkpt lat="42.0724185" lon="13.6092909"><ele>891.0</ele><time>2026-05-02T13:28:32.372Z</time></trkpt><trkpt lat="42.0723407" lon="13.6091933"><ele>888.5</ele><time>2026-05-02T13:28:33.378Z</time></trkpt><trkpt lat="42.0722693" lon="13.6090963"><ele>886.0</ele><time>2026-05-02T13:28:34.39Z</time></trkpt><trkpt lat="42.0721822" lon="13.6088787"><ele>883.5</ele><time>2026-05-02T13:28:36.287Z</time></trkpt><trkpt lat="42.0721645" lon="13.6087293"><ele>881.0</ele><time>2026-05-02T13:28:37.29Z</time></trkpt><trkpt lat="42.0721492" lon="13.6085793"><ele>880.25</ele><time>2026-05-02T13:28:38.291Z</time></trkpt><trkpt lat="42.0721322" lon="13.6084379"><ele>879.5</ele><time>2026-05-02T13:28:39.291Z</time></trkpt><trkpt lat="42.0721098" lon="13.6082879"><ele>878.75</ele><time>2026-05-02T13:28:40.297Z</time></trkpt><trkpt lat="42.072092" lon="13.6081286"><ele>878.0</ele><time>2026-05-02T13:28:41.293Z</time></trkpt><trkpt lat="42.0720807" lon="13.6079605"><ele>876.5</ele><time>2026-05-02T13:28:42.291Z</time></trkpt><trkpt lat="42.0720815" lon="13.6077821"><ele>875.0</ele><time>2026-05-02T13:28:43.295Z</time></trkpt><trkpt lat="42.072082" lon="13.6075971"><ele>873.5</ele><time>2026-05-02T13:28:44.295Z</time></trkpt><trkpt lat="42.0720804" lon="13.6074264"><ele>872.0</ele><time>2026-05-02T13:28:45.298Z</time></trkpt><trkpt lat="42.0720815" lon="13.6072512"><ele>872.0</ele><time>2026-05-02T13:28:46.296Z</time></trkpt><trkpt lat="42.072074" lon="13.6070824"><ele>872.0</ele><time>2026-05-02T13:28:47.292Z</time></trkpt><trkpt lat="42.0720543" lon="13.6069312"><ele>872.0</ele><time>2026-05-02T13:28:48.286Z</time></trkpt><trkpt lat="42.0720123" lon="13.6067824"><ele>872.0</ele><time>2026-05-02T13:28:49.288Z</time></trkpt><trkpt lat="42.0719492" lon="13.6066374"><ele>869.75</ele><time>2026-05-02T13:28:50.283Z</time></trkpt><trkpt lat="42.0718572" lon="13.6065071"><ele>867.5</ele><time>2026-05-02T13:28:51.284Z</time></trkpt><trkpt lat="42.0717582" lon="13.606394"><ele>865.25</ele><time>2026-05-02T13:28:52.291Z</time></trkpt><trkpt lat="42.0716578" lon="13.6062798"><ele>863.0</ele><time>2026-05-02T13:28:53.29Z</time></trkpt><trkpt lat="42.0715554" lon="13.6061797"><ele>859.25</ele><time>2026-05-02T13:28:54.294Z</time></trkpt><trkpt lat="42.071446" lon="13.6061074"><ele>855.5</ele><time>2026-05-02T13:28:55.289Z</time></trkpt><trkpt lat="42.0713334" lon="13.6060574"><ele>851.75</ele><time>2026-05-02T13:28:56.289Z</time></trkpt><trkpt lat="42.0712206" lon="13.6060114"><ele>848.0</ele><time>2026-05-02T13:28:57.287Z</time></trkpt><trkpt lat="42.0711094" lon="13.6059336"><ele>848.0</ele><time>2026-05-02T13:28:58.286Z</time></trkpt><trkpt lat="42.0709958" lon="13.6058395"><ele>848.0</ele><time>2026-05-02T13:28:59.292Z</time></trkpt><trkpt lat="42.0708871" lon="13.6057251"><ele>848.0</ele><time>2026-05-02T13:29:00.289Z</time></trkpt><trkpt lat="42.0707835" lon="13.6056155"><ele>848.0</ele><time>2026-05-02T13:29:01.292Z</time></trkpt><trkpt lat="42.0706807" lon="13.6055099"><ele>845.25</ele><time>2026-05-02T13:29:02.294Z</time></trkpt><trkpt lat="42.0705699" lon="13.6053996"><ele>842.5</ele><time>2026-05-02T13:29:03.287Z</time></trkpt><trkpt lat="42.0704537" lon="13.605303"><ele>839.75</ele><time>2026-05-02T13:29:04.29Z</time></trkpt><trkpt lat="42.0703363" lon="13.6052028"><ele>837.0</ele><time>2026-05-02T13:29:05.289Z</time></trkpt><trkpt lat="42.0702273" lon="13.6050911"><ele>835.75</ele><time>2026-05-02T13:29:06.281Z</time></trkpt><trkpt lat="42.0701179" lon="13.6049785"><ele>834.5</ele><time>2026-05-02T13:29:07.29Z</time></trkpt><trkpt lat="42.0700126" lon="13.6048686"><ele>833.25</ele><time>2026-05-02T13:29:08.291Z</time></trkpt><trkpt lat="42.0698993" lon="13.6047528"><ele>832.0</ele><time>2026-05-02T13:29:09.291Z</time></trkpt><trkpt lat="42.0697756" lon="13.6046443"><ele>828.0</ele><time>2026-05-02T13:29:10.293Z</time></trkpt><trkpt lat="42.0696442" lon="13.6045234"><ele>824.0</ele><time>2026-05-02T13:29:11.287Z</time></trkpt><trkpt lat="42.0695052" lon="13.6044052"><ele>820.0</ele><time>2026-05-02T13:29:12.29Z</time></trkpt><trkpt lat="42.0693664" lon="13.6042675"><ele>817.6666666666666</ele><time>2026-05-02T13:29:13.289Z</time></trkpt><trkpt lat="42.0692394" lon="13.6041369"><ele>815.3333333333333</ele><time>2026-05-02T13:29:14.29Z</time></trkpt><trkpt lat="42.0691151" lon="13.6040073"><ele>813.0</ele><time>2026-05-02T13:29:15.286Z</time></trkpt><trkpt lat="42.0690016" lon="13.6038741"><ele>811.75</ele><time>2026-05-02T13:29:16.297Z</time></trkpt><trkpt lat="42.0688955" lon="13.6037635"><ele>810.5</ele><time>2026-05-02T13:29:17.287Z</time></trkpt><trkpt lat="42.0687851" lon="13.6036465"><ele>809.25</ele><time>2026-05-02T13:29:18.289Z</time></trkpt><trkpt lat="42.0686897" lon="13.6035596"><ele>808.0</ele><time>2026-05-02T13:29:19.291Z</time></trkpt><trkpt lat="42.0686183" lon="13.6034749"><ele>807.9999999999999</ele><time>2026-05-02T13:29:20.282Z</time></trkpt><trkpt lat="42.0685478" lon="13.6033972"><ele>808.0</ele><time>2026-05-02T13:29:21.287Z</time></trkpt><trkpt lat="42.0684866" lon="13.6033507"><ele>808.0</ele><time>2026-05-02T13:29:22.282Z</time></trkpt><trkpt lat="42.0684178" lon="13.6033528"><ele>808.0</ele><time>2026-05-02T13:29:23.274Z</time></trkpt><trkpt lat="42.0683499" lon="13.6033646"><ele>807.9999999999999</ele><time>2026-05-02T13:29:24.285Z</time></trkpt><trkpt lat="42.0682878" lon="13.6034248"><ele>808.0</ele><time>2026-05-02T13:29:25.282Z</time></trkpt><trkpt lat="42.0682143" lon="13.60349"><ele>809.8</ele><time>2026-05-02T13:29:26.284Z</time></trkpt><trkpt lat="42.0681376" lon="13.603554"><ele>811.5999999999999</ele><time>2026-05-02T13:29:27.282Z</time></trkpt><trkpt lat="42.0680473" lon="13.6035858"><ele>813.4000000000001</ele><time>2026-05-02T13:29:28.273Z</time></trkpt><trkpt lat="42.0679413" lon="13.6035892"><ele>815.2</ele><time>2026-05-02T13:29:29.284Z</time></trkpt><trkpt lat="42.067842" lon="13.6035673"><ele>817.0</ele><time>2026-05-02T13:29:30.284Z</time></trkpt><trkpt lat="42.0677393" lon="13.6035439"><ele>817.0</ele><time>2026-05-02T13:29:31.281Z</time></trkpt><trkpt lat="42.0676255" lon="13.6035371"><ele>817.0</ele><time>2026-05-02T13:29:32.285Z</time></trkpt><trkpt lat="42.0675104" lon="13.6035234"><ele>817.0</ele><time>2026-05-02T13:29:33.287Z</time></trkpt><trkpt lat="42.0673878" lon="13.6035192"><ele>817.0</ele><time>2026-05-02T13:29:34.289Z</time></trkpt><trkpt lat="42.0672617" lon="13.603511"><ele>818.0</ele><time>2026-05-02T13:29:35.286Z</time></trkpt><trkpt lat="42.067134" lon="13.6035001"><ele>819.0</ele><time>2026-05-02T13:29:36.289Z</time></trkpt><trkpt lat="42.0670038" lon="13.603485"><ele>820.0</ele><time>2026-05-02T13:29:37.283Z</time></trkpt><trkpt lat="42.0668731" lon="13.6034542"><ele>821.0</ele><time>2026-05-02T13:29:38.282Z</time></trkpt><trkpt lat="42.0667425" lon="13.6034019"><ele>822.75</ele><time>2026-05-02T13:29:39.282Z</time></trkpt><trkpt lat="42.0666112" lon="13.6033575"><ele>824.5</ele><time>2026-05-02T13:29:40.288Z</time></trkpt><trkpt lat="42.0664841" lon="13.6033134"><ele>826.25</ele><time>2026-05-02T13:29:41.284Z</time></trkpt><trkpt lat="42.0663779" lon="13.6032824"><ele>828.0</ele><time>2026-05-02T13:29:42.276Z</time></trkpt><trkpt lat="42.066293" lon="13.6032716"><ele>828.0</ele><time>2026-05-02T13:29:43.281Z</time></trkpt><trkpt lat="42.0661909" lon="13.6032858"><ele>828.0</ele><time>2026-05-02T13:29:45.275Z</time></trkpt><trkpt lat="42.0661012" lon="13.6032732"><ele>828.0</ele><time>2026-05-02T13:29:47.287Z</time></trkpt><trkpt lat="42.0659692" lon="13.6033065"><ele>828.0</ele><time>2026-05-02T13:29:49.288Z</time></trkpt><trkpt lat="42.0658999" lon="13.6033266"><ele>828.0</ele><time>2026-05-02T13:29:50.288Z</time></trkpt><trkpt lat="42.0658045" lon="13.603325"><ele>828.1666666666666</ele><time>2026-05-02T13:29:52.293Z</time></trkpt><trkpt lat="42.0657424" lon="13.6032675"><ele>828.3333333333333</ele><time>2026-05-02T13:29:54.293Z</time></trkpt><trkpt lat="42.0657244" lon="13.603116"><ele>828.5</ele><time>2026-05-02T13:29:56.293Z</time></trkpt><trkpt lat="42.0657086" lon="13.6030154"><ele>828.6666666666666</ele><time>2026-05-02T13:29:57.285Z</time></trkpt><trkpt lat="42.0656859" lon="13.602904"><ele>828.8333333333333</ele><time>2026-05-02T13:29:58.289Z</time></trkpt><trkpt lat="42.0656732" lon="13.6027984"><ele>829.0</ele><time>2026-05-02T13:29:59.294Z</time></trkpt><trkpt lat="42.0656715" lon="13.602707"><ele>829.3333333333333</ele><time>2026-05-02T13:30:00.291Z</time></trkpt><trkpt lat="42.0657054" lon="13.6026305"><ele>829.6666666666666</ele><time>2026-05-02T13:30:01.283Z</time></trkpt><trkpt lat="42.0657545" lon="13.6025715"><ele>830.0</ele><time>2026-05-02T13:30:02.275Z</time></trkpt><trkpt lat="42.0658284" lon="13.6025127"><ele>830.3333333333333</ele><time>2026-05-02T13:30:04.296Z</time></trkpt><trkpt lat="42.0658607" lon="13.6023888"><ele>830.6666666666666</ele><time>2026-05-02T13:30:06.285Z</time></trkpt><trkpt lat="42.065878" lon="13.6022849"><ele>831.0</ele><time>2026-05-02T13:30:07.296Z</time></trkpt><trkpt lat="42.0658961" lon="13.602159"><ele>831.0</ele><time>2026-05-02T13:30:08.292Z</time></trkpt><trkpt lat="42.0659191" lon="13.6020257"><ele>831.0</ele><time>2026-05-02T13:30:09.288Z</time></trkpt><trkpt lat="42.0659535" lon="13.6018936"><ele>831.0</ele><time>2026-05-02T13:30:10.291Z</time></trkpt><trkpt lat="42.0659833" lon="13.6017565"><ele>831.0</ele><time>2026-05-02T13:30:11.294Z</time></trkpt><trkpt lat="42.0660062" lon="13.601615"><ele>831.0</ele><time>2026-05-02T13:30:12.299Z</time></trkpt><trkpt lat="42.0660299" lon="13.6014825"><ele>830.6666666666666</ele><time>2026-05-02T13:30:13.289Z</time></trkpt><trkpt lat="42.066046" lon="13.6013575"><ele>830.3333333333333</ele><time>2026-05-02T13:30:14.296Z</time></trkpt><trkpt lat="42.0660568" lon="13.601238"><ele>830.0</ele><time>2026-05-02T13:30:15.296Z</time></trkpt><trkpt lat="42.066056" lon="13.6011199"><ele>829.6666666666666</ele><time>2026-05-02T13:30:16.295Z</time></trkpt><trkpt lat="42.0660552" lon="13.6010055"><ele>829.3333333333333</ele><time>2026-05-02T13:30:17.294Z</time></trkpt><trkpt lat="42.0660604" lon="13.600896"><ele>829.0</ele><time>2026-05-02T13:30:18.295Z</time></trkpt><trkpt lat="42.0660702" lon="13.6008069"><ele>829.0</ele><time>2026-05-02T13:30:19.289Z</time></trkpt><trkpt lat="42.066082" lon="13.6007202"><ele>829.0</ele><time>2026-05-02T13:30:20.293Z</time></trkpt><trkpt lat="42.0661097" lon="13.60059"><ele>829.0</ele><time>2026-05-02T13:30:22.294Z</time></trkpt><trkpt lat="42.0661216" lon="13.6004684"><ele>829.0</ele><time>2026-05-02T13:30:24.29Z</time></trkpt><trkpt lat="42.0661454" lon="13.6003248"><ele>829.0</ele><time>2026-05-02T13:30:26.291Z</time></trkpt><trkpt lat="42.0660994" lon="13.6001976"><ele>828.8333333333333</ele><time>2026-05-02T13:30:28.287Z</time></trkpt><trkpt lat="42.0660299" lon="13.6001777"><ele>828.6666666666666</ele><time>2026-05-02T13:30:29.285Z</time></trkpt><trkpt lat="42.0659447" lon="13.6001783"><ele>828.5</ele><time>2026-05-02T13:30:30.291Z</time></trkpt><trkpt lat="42.0658589" lon="13.6001953"><ele>828.3333333333333</ele><time>2026-05-02T13:30:31.283Z</time></trkpt><trkpt lat="42.0657845" lon="13.6002008"><ele>828.1666666666666</ele><time>2026-05-02T13:30:32.292Z</time></trkpt><trkpt lat="42.0657158" lon="13.6001974"><ele>828.0</ele><time>2026-05-02T13:30:33.286Z</time></trkpt><trkpt lat="42.0655933" lon="13.6001761"><ele>826.5</ele><time>2026-05-02T13:30:35.285Z</time></trkpt><trkpt lat="42.06552" lon="13.6001582"><ele>825.0</ele><time>2026-05-02T13:30:36.286Z</time></trkpt><trkpt lat="42.065435" lon="13.6001615"><ele>823.5</ele><time>2026-05-02T13:30:37.29Z</time></trkpt><trkpt lat="42.0653459" lon="13.6001653"><ele>822.0</ele><time>2026-05-02T13:30:38.299Z</time></trkpt><trkpt lat="42.065255" lon="13.6001608"><ele>820.5</ele><time>2026-05-02T13:30:39.293Z</time></trkpt><trkpt lat="42.0651664" lon="13.6001557"><ele>819.0</ele><time>2026-05-02T13:30:40.298Z</time></trkpt><trkpt lat="42.0650801" lon="13.600158"><ele>819.0</ele><time>2026-05-02T13:30:41.289Z</time></trkpt><trkpt lat="42.0649998" lon="13.6001541"><ele>819.0</ele><time>2026-05-02T13:30:42.291Z</time></trkpt><trkpt lat="42.0649098" lon="13.6001467"><ele>819.0</ele><time>2026-05-02T13:30:43.295Z</time></trkpt><trkpt lat="42.0648196" lon="13.6001438"><ele>819.0</ele><time>2026-05-02T13:30:44.285Z</time></trkpt><trkpt lat="42.064735" lon="13.6001355"><ele>819.0</ele><time>2026-05-02T13:30:45.29Z</time></trkpt><trkpt lat="42.0646552" lon="13.600153"><ele>819.0</ele><time>2026-05-02T13:30:46.289Z</time></trkpt><trkpt lat="42.064577" lon="13.6001545"><ele>817.5</ele><time>2026-05-02T13:30:47.295Z</time></trkpt><trkpt lat="42.0645016" lon="13.6001578"><ele>816.0</ele><time>2026-05-02T13:30:48.294Z</time></trkpt><trkpt lat="42.0643966" lon="13.6001538"><ele>814.5</ele><time>2026-05-02T13:30:50.294Z</time></trkpt><trkpt lat="42.0643266" lon="13.600164"><ele>813.0</ele><time>2026-05-02T13:30:52.295Z</time></trkpt><trkpt lat="42.0642411" lon="13.600148"><ele>811.5</ele><time>2026-05-02T13:30:54.295Z</time></trkpt><trkpt lat="42.0641415" lon="13.600108"><ele>810.0</ele><time>2026-05-02T13:30:56.298Z</time></trkpt><trkpt lat="42.0640468" lon="13.6000728"><ele>808.8571428571428</ele><time>2026-05-02T13:30:58.299Z</time></trkpt><trkpt lat="42.0639693" lon="13.6000605"><ele>807.7142857142857</ele><time>2026-05-02T13:31:00.307Z</time></trkpt><trkpt lat="42.0638973" lon="13.6000365"><ele>806.5714285714286</ele><time>2026-05-02T13:31:02.295Z</time></trkpt><trkpt lat="42.0638283" lon="13.6000211"><ele>805.4285714285713</ele><time>2026-05-02T13:31:04.294Z</time></trkpt><trkpt lat="42.0637618" lon="13.6000083"><ele>804.2857142857143</ele><time>2026-05-02T13:31:06.294Z</time></trkpt><trkpt lat="42.0636843" lon="13.5999912"><ele>803.1428571428571</ele><time>2026-05-02T13:31:09.299Z</time></trkpt><trkpt lat="42.0636587" lon="13.5999024"><ele>802.0</ele><time>2026-05-02T13:31:11.297Z</time></trkpt><trkpt lat="42.0637334" lon="13.5997865"><ele>801.9999999999999</ele><time>2026-05-02T13:31:13.3Z</time></trkpt><trkpt lat="42.0638067" lon="13.599676"><ele>802.0</ele><time>2026-05-02T13:31:15.295Z</time></trkpt><trkpt lat="42.0638253" lon="13.5995618"><ele>802.0</ele><time>2026-05-02T13:31:16.28Z</time></trkpt><trkpt lat="42.0638654" lon="13.5994486"><ele>802.0</ele><time>2026-05-02T13:31:17.289Z</time></trkpt><trkpt lat="42.0638927" lon="13.5993425"><ele>801.9999999999999</ele><time>2026-05-02T13:31:18.287Z</time></trkpt><trkpt lat="42.0639216" lon="13.599248"><ele>802.0</ele><time>2026-05-02T13:31:19.294Z</time></trkpt><trkpt lat="42.0639626" lon="13.5991654"><ele>802.2857142857143</ele><time>2026-05-02T13:31:20.286Z</time></trkpt><trkpt lat="42.0640005" lon="13.5990877"><ele>802.5714285714287</ele><time>2026-05-02T13:31:21.29Z</time></trkpt><trkpt lat="42.0640405" lon="13.599002"><ele>802.8571428571429</ele><time>2026-05-02T13:31:23.285Z</time></trkpt><trkpt lat="42.064104" lon="13.5989503"><ele>803.1428571428571</ele><time>2026-05-02T13:31:25.287Z</time></trkpt><trkpt lat="42.0641668" lon="13.5989414"><ele>803.4285714285714</ele><time>2026-05-02T13:31:26.278Z</time></trkpt><trkpt lat="42.0642384" lon="13.5989524"><ele>803.7142857142857</ele><time>2026-05-02T13:31:27.278Z</time></trkpt><trkpt lat="42.0643221" lon="13.5989601"><ele>804.0</ele><time>2026-05-02T13:31:28.286Z</time></trkpt><trkpt lat="42.0644062" lon="13.5989664"><ele>804.0</ele><time>2026-05-02T13:31:29.29Z</time></trkpt><trkpt lat="42.0644938" lon="13.5989725"><ele>804.0</ele><time>2026-05-02T13:31:30.29Z</time></trkpt><trkpt lat="42.0645839" lon="13.5989904"><ele>804.0</ele><time>2026-05-02T13:31:31.279Z</time></trkpt><trkpt lat="42.0646884" lon="13.5989956"><ele>804.0</ele><time>2026-05-02T13:31:32.289Z</time></trkpt><trkpt lat="42.0647934" lon="13.5990015"><ele>804.0</ele><time>2026-05-02T13:31:33.283Z</time></trkpt><trkpt lat="42.0648932" lon="13.5990104"><ele>806.2</ele><time>2026-05-02T13:31:34.29Z</time></trkpt><trkpt lat="42.0649953" lon="13.5990059"><ele>808.4000000000001</ele><time>2026-05-02T13:31:35.284Z</time></trkpt><trkpt lat="42.065108" lon="13.5990187"><ele>810.6</ele><time>2026-05-02T13:31:36.285Z</time></trkpt><trkpt lat="42.065222" lon="13.5990285"><ele>812.8</ele><time>2026-05-02T13:31:37.286Z</time></trkpt><trkpt lat="42.0653338" lon="13.5990235"><ele>815.0</ele><time>2026-05-02T13:31:38.284Z</time></trkpt><trkpt lat="42.0654478" lon="13.5990236"><ele>815.0</ele><time>2026-05-02T13:31:39.28Z</time></trkpt><trkpt lat="42.0655599" lon="13.5990282"><ele>815.0</ele><time>2026-05-02T13:31:40.281Z</time></trkpt><trkpt lat="42.065674" lon="13.5990225"><ele>815.0</ele><time>2026-05-02T13:31:41.281Z</time></trkpt><trkpt lat="42.0657875" lon="13.5990189"><ele>815.0</ele><time>2026-05-02T13:31:42.286Z</time></trkpt><trkpt lat="42.0658992" lon="13.5990228"><ele>817.0</ele><time>2026-05-02T13:31:43.293Z</time></trkpt><trkpt lat="42.0660091" lon="13.599029"><ele>819.0</ele><time>2026-05-02T13:31:44.282Z</time></trkpt><trkpt lat="42.0661065" lon="13.5990375"><ele>821.0</ele><time>2026-05-02T13:31:45.291Z</time></trkpt><trkpt lat="42.0661848" lon="13.5990451"><ele>823.0</ele><time>2026-05-02T13:31:46.289Z</time></trkpt><trkpt lat="42.0662585" lon="13.5990543"><ele>825.0</ele><time>2026-05-02T13:31:47.277Z</time></trkpt><trkpt lat="42.066359" lon="13.5990726"><ele>825.0</ele><time>2026-05-02T13:31:49.281Z</time></trkpt><trkpt lat="42.066433" lon="13.5989809"><ele>825.0</ele><time>2026-05-02T13:31:52.31Z</time></trkpt><trkpt lat="42.0664677" lon="13.5988689"><ele>825.0</ele><time>2026-05-02T13:31:53.29Z</time></trkpt><trkpt lat="42.0664945" lon="13.5987503"><ele>825.0</ele><time>2026-05-02T13:31:54.292Z</time></trkpt><trkpt lat="42.0665276" lon="13.5986229"><ele>825.0</ele><time>2026-05-02T13:31:55.367Z</time></trkpt><trkpt lat="42.0665725" lon="13.5984914"><ele>825.6666666666666</ele><time>2026-05-02T13:31:56.374Z</time></trkpt><trkpt lat="42.0666234" lon="13.5983761"><ele>826.3333333333333</ele><time>2026-05-02T13:31:57.367Z</time></trkpt><trkpt lat="42.0666709" lon="13.5982772"><ele>827.0</ele><time>2026-05-02T13:31:58.357Z</time></trkpt><trkpt lat="42.0667142" lon="13.5981907"><ele>827.6666666666666</ele><time>2026-05-02T13:31:59.358Z</time></trkpt><trkpt lat="42.0667508" lon="13.5980972"><ele>828.3333333333333</ele><time>2026-05-02T13:32:00.361Z</time></trkpt><trkpt lat="42.0667748" lon="13.5980018"><ele>829.0</ele><time>2026-05-02T13:32:01.36Z</time></trkpt><trkpt lat="42.0668337" lon="13.5979548"><ele>829.0</ele><time>2026-05-02T13:32:02.283Z</time></trkpt><trkpt lat="42.0668882" lon="13.597888"><ele>829.0</ele><time>2026-05-02T13:32:04.29Z</time></trkpt><trkpt lat="42.0670302" lon="13.5978953"><ele>829.0</ele><time>2026-05-02T13:32:06.281Z</time></trkpt><trkpt lat="42.0671256" lon="13.5978928"><ele>829.0</ele><time>2026-05-02T13:32:07.278Z</time></trkpt><trkpt lat="42.0672244" lon="13.5978998"><ele>829.0</ele><time>2026-05-02T13:32:08.286Z</time></trkpt><trkpt lat="42.0673355" lon="13.5979123"><ele>831.75</ele><time>2026-05-02T13:32:09.282Z</time></trkpt><trkpt lat="42.0674452" lon="13.5979435"><ele>834.5</ele><time>2026-05-02T13:32:10.282Z</time></trkpt><trkpt lat="42.0675634" lon="13.5979856"><ele>837.25</ele><time>2026-05-02T13:32:11.288Z</time></trkpt><trkpt lat="42.0676839" lon="13.5980329"><ele>840.0</ele><time>2026-05-02T13:32:12.285Z</time></trkpt><trkpt lat="42.0678105" lon="13.5980856"><ele>840.0</ele><time>2026-05-02T13:32:13.284Z</time></trkpt><trkpt lat="42.0679316" lon="13.5981309"><ele>840.0</ele><time>2026-05-02T13:32:14.286Z</time></trkpt><trkpt lat="42.0680604" lon="13.5981764"><ele>840.0</ele><time>2026-05-02T13:32:15.288Z</time></trkpt><trkpt lat="42.0681887" lon="13.5982165"><ele>840.0</ele><time>2026-05-02T13:32:16.297Z</time></trkpt><trkpt lat="42.0683099" lon="13.5982576"><ele>842.0</ele><time>2026-05-02T13:32:17.292Z</time></trkpt><trkpt lat="42.0684443" lon="13.5982964"><ele>844.0</ele><time>2026-05-02T13:32:18.29Z</time></trkpt><trkpt lat="42.0685782" lon="13.5983212"><ele>846.0</ele><time>2026-05-02T13:32:19.29Z</time></trkpt><trkpt lat="42.0687093" lon="13.5983417"><ele>848.0</ele><time>2026-05-02T13:32:20.291Z</time></trkpt><trkpt lat="42.0688348" lon="13.5983649"><ele>848.0</ele><time>2026-05-02T13:32:21.295Z</time></trkpt><trkpt lat="42.0689558" lon="13.5983978"><ele>848.0</ele><time>2026-05-02T13:32:22.293Z</time></trkpt><trkpt lat="42.0690669" lon="13.5984257"><ele>848.0</ele><time>2026-05-02T13:32:23.289Z</time></trkpt><trkpt lat="42.0691621" lon="13.5984556"><ele>848.0</ele><time>2026-05-02T13:32:24.292Z</time></trkpt><trkpt lat="42.0692469" lon="13.5984716"><ele>848.0</ele><time>2026-05-02T13:32:25.283Z</time></trkpt><trkpt lat="42.0693138" lon="13.598498"><ele>850.5</ele><time>2026-05-02T13:32:26.285Z</time></trkpt><trkpt lat="42.0693657" lon="13.5986121"><ele>853.0</ele><time>2026-05-02T13:32:28.283Z</time></trkpt><trkpt lat="42.0693428" lon="13.5987978"><ele>855.5</ele><time>2026-05-02T13:32:30.286Z</time></trkpt><trkpt lat="42.0693131" lon="13.5989264"><ele>858.0</ele><time>2026-05-02T13:32:31.283Z</time></trkpt><trkpt lat="42.0692789" lon="13.5990867"><ele>858.5999999999999</ele><time>2026-05-02T13:32:32.279Z</time></trkpt><trkpt lat="42.0692718" lon="13.5992429"><ele>859.1999999999999</ele><time>2026-05-02T13:32:33.279Z</time></trkpt><trkpt lat="42.0692718" lon="13.5993834"><ele>859.8</ele><time>2026-05-02T13:32:34.289Z</time></trkpt><trkpt lat="42.0692827" lon="13.5995012"><ele>860.4</ele><time>2026-05-02T13:32:35.275Z</time></trkpt><trkpt lat="42.0693006" lon="13.5996091"><ele>861.0</ele><time>2026-05-02T13:32:36.272Z</time></trkpt><trkpt lat="42.0693283" lon="13.5996988"><ele>861.3333333333334</ele><time>2026-05-02T13:32:37.282Z</time></trkpt><trkpt lat="42.0693693" lon="13.5997772"><ele>861.6666666666667</ele><time>2026-05-02T13:32:38.284Z</time></trkpt><trkpt lat="42.0694424" lon="13.5998522"><ele>862.0</ele><time>2026-05-02T13:32:40.285Z</time></trkpt><trkpt lat="42.069537" lon="13.5998695"><ele>862.3333333333334</ele><time>2026-05-02T13:32:43.287Z</time></trkpt><trkpt lat="42.0696218" lon="13.5998525"><ele>862.6666666666667</ele><time>2026-05-02T13:32:44.287Z</time></trkpt><trkpt lat="42.0697122" lon="13.5998206"><ele>863.0</ele><time>2026-05-02T13:32:45.283Z</time></trkpt><trkpt lat="42.0698148" lon="13.5997879"><ele>863.0</ele><time>2026-05-02T13:32:46.283Z</time></trkpt><trkpt lat="42.0699206" lon="13.5997618"><ele>863.0</ele><time>2026-05-02T13:32:47.288Z</time></trkpt><trkpt lat="42.0700397" lon="13.5997466"><ele>863.0</ele><time>2026-05-02T13:32:48.291Z</time></trkpt><trkpt lat="42.070164" lon="13.5997431"><ele>863.0</ele><time>2026-05-02T13:32:49.286Z</time></trkpt><trkpt lat="42.0702874" lon="13.5997364"><ele>864.75</ele><time>2026-05-02T13:32:50.292Z</time></trkpt><trkpt lat="42.0704211" lon="13.5997208"><ele>866.5</ele><time>2026-05-02T13:32:51.289Z</time></trkpt><trkpt lat="42.0705572" lon="13.5996862"><ele>868.25</ele><time>2026-05-02T13:32:52.29Z</time></trkpt><trkpt lat="42.070698" lon="13.5996419"><ele>870.0</ele><time>2026-05-02T13:32:53.287Z</time></trkpt><trkpt lat="42.0708425" lon="13.5995744"><ele>870.0</ele><time>2026-05-02T13:32:54.292Z</time></trkpt><trkpt lat="42.0709798" lon="13.5995154"><ele>870.0</ele><time>2026-05-02T13:32:55.293Z</time></trkpt><trkpt lat="42.0711186" lon="13.5994475"><ele>870.0</ele><time>2026-05-02T13:32:56.295Z</time></trkpt><trkpt lat="42.0712698" lon="13.5993857"><ele>871.5</ele><time>2026-05-02T13:32:57.293Z</time></trkpt><trkpt lat="42.0714081" lon="13.5993261"><ele>873.0</ele><time>2026-05-02T13:32:58.287Z</time></trkpt><trkpt lat="42.0715424" lon="13.5992668"><ele>874.5</ele><time>2026-05-02T13:32:59.294Z</time></trkpt><trkpt lat="42.0716731" lon="13.5992123"><ele>876.0</ele><time>2026-05-02T13:33:00.293Z</time></trkpt><trkpt lat="42.0717805" lon="13.5991683"><ele>877.4</ele><time>2026-05-02T13:33:01.29Z</time></trkpt><trkpt lat="42.071876" lon="13.5991244"><ele>878.8</ele><time>2026-05-02T13:33:02.29Z</time></trkpt><trkpt lat="42.0719797" lon="13.5990775"><ele>880.1999999999999</ele><time>2026-05-02T13:33:03.288Z</time></trkpt><trkpt lat="42.0720816" lon="13.5990354"><ele>881.5999999999999</ele><time>2026-05-02T13:33:04.291Z</time></trkpt><trkpt lat="42.0721844" lon="13.5989924"><ele>883.0</ele><time>2026-05-02T13:33:05.294Z</time></trkpt><trkpt lat="42.0722866" lon="13.5989464"><ele>883.0</ele><time>2026-05-02T13:33:06.291Z</time></trkpt><trkpt lat="42.0723917" lon="13.5988907"><ele>883.0</ele><time>2026-05-02T13:33:07.294Z</time></trkpt><trkpt lat="42.072506" lon="13.5988319"><ele>883.0</ele><time>2026-05-02T13:33:08.292Z</time></trkpt><trkpt lat="42.072631" lon="13.5987792"><ele>883.0</ele><time>2026-05-02T13:33:09.291Z</time></trkpt><trkpt lat="42.0727566" lon="13.5987289"><ele>886.25</ele><time>2026-05-02T13:33:10.287Z</time></trkpt><trkpt lat="42.0728871" lon="13.5986671"><ele>889.5</ele><time>2026-05-02T13:33:11.288Z</time></trkpt><trkpt lat="42.0730301" lon="13.5986004"><ele>892.75</ele><time>2026-05-02T13:33:12.289Z</time></trkpt><trkpt lat="42.0731729" lon="13.5985474"><ele>896.0</ele><time>2026-05-02T13:33:13.284Z</time></trkpt><trkpt lat="42.0733189" lon="13.598478"><ele>898.6666666666667</ele><time>2026-05-02T13:33:14.289Z</time></trkpt><trkpt lat="42.0734681" lon="13.5984095"><ele>901.3333333333333</ele><time>2026-05-02T13:33:15.284Z</time></trkpt><trkpt lat="42.0736155" lon="13.5983316"><ele>904.0</ele><time>2026-05-02T13:33:16.292Z</time></trkpt><trkpt lat="42.0737698" lon="13.5982609"><ele>904.0</ele><time>2026-05-02T13:33:17.283Z</time></trkpt><trkpt lat="42.0739302" lon="13.5982009"><ele>904.0</ele><time>2026-05-02T13:33:18.294Z</time></trkpt><trkpt lat="42.0740889" lon="13.5981571"><ele>904.0</ele><time>2026-05-02T13:33:19.284Z</time></trkpt><trkpt lat="42.0742605" lon="13.5981389"><ele>907.0</ele><time>2026-05-02T13:33:20.288Z</time></trkpt><trkpt lat="42.0744295" lon="13.5981317"><ele>910.0</ele><time>2026-05-02T13:33:21.297Z</time></trkpt><trkpt lat="42.0745988" lon="13.5981474"><ele>913.0</ele><time>2026-05-02T13:33:22.303Z</time></trkpt><trkpt lat="42.0747592" lon="13.5981644"><ele>913.0</ele><time>2026-05-02T13:33:23.296Z</time></trkpt><trkpt lat="42.0749301" lon="13.5981798"><ele>913.0</ele><time>2026-05-02T13:33:24.3Z</time></trkpt><trkpt lat="42.0750833" lon="13.5981941"><ele>913.0</ele><time>2026-05-02T13:33:25.303Z</time></trkpt><trkpt lat="42.0752088" lon="13.5982006"><ele>915.2</ele><time>2026-05-02T13:33:26.299Z</time></trkpt><trkpt lat="42.0753249" lon="13.5982113"><ele>917.4</ele><time>2026-05-02T13:33:27.293Z</time></trkpt><trkpt lat="42.0754284" lon="13.5982269"><ele>919.6000000000001</ele><time>2026-05-02T13:33:28.299Z</time></trkpt><trkpt lat="42.0755185" lon="13.5982226"><ele>921.8000000000001</ele><time>2026-05-02T13:33:29.294Z</time></trkpt><trkpt lat="42.0755999" lon="13.5982264"><ele>924.0</ele><time>2026-05-02T13:33:30.302Z</time></trkpt><trkpt lat="42.0756688" lon="13.5982284"><ele>924.0</ele><time>2026-05-02T13:33:31.299Z</time></trkpt><trkpt lat="42.0757488" lon="13.5982215"><ele>924.0000000000001</ele><time>2026-05-02T13:33:32.3Z</time></trkpt><trkpt lat="42.0758484" lon="13.5982177"><ele>924.0000000000001</ele><time>2026-05-02T13:33:33.287Z</time></trkpt><trkpt lat="42.0759502" lon="13.5982119"><ele>924.0</ele><time>2026-05-02T13:33:34.282Z</time></trkpt><trkpt lat="42.0760683" lon="13.5981942"><ele>924.0</ele><time>2026-05-02T13:33:35.285Z</time></trkpt><trkpt lat="42.0761947" lon="13.5981597"><ele>926.0</ele><time>2026-05-02T13:33:36.281Z</time></trkpt><trkpt lat="42.0763109" lon="13.5981091"><ele>928.0000000000001</ele><time>2026-05-02T13:33:37.272Z</time></trkpt><trkpt lat="42.0763968" lon="13.5980543"><ele>930.0000000000001</ele><time>2026-05-02T13:33:38.271Z</time></trkpt><trkpt lat="42.0764677" lon="13.5979839"><ele>932.0</ele><time>2026-05-02T13:33:39.28Z</time></trkpt><trkpt lat="42.07653" lon="13.5978958"><ele>934.0</ele><time>2026-05-02T13:33:40.285Z</time></trkpt><trkpt lat="42.0765815" lon="13.5978041"><ele>936.8000000000001</ele><time>2026-05-02T13:33:41.286Z</time></trkpt><trkpt lat="42.076621" lon="13.5977309"><ele>939.6000000000001</ele><time>2026-05-02T13:33:42.281Z</time></trkpt><trkpt lat="42.0766704" lon="13.5976263"><ele>942.4</ele><time>2026-05-02T13:33:53.305Z</time></trkpt><trkpt lat="42.0767616" lon="13.5974874"><ele>945.2</ele><time>2026-05-02T13:33:55.298Z</time></trkpt><trkpt lat="42.0768268" lon="13.5973948"><ele>948.0</ele><time>2026-05-02T13:33:56.299Z</time></trkpt><trkpt lat="42.0768961" lon="13.5973351"><ele>948.0</ele><time>2026-05-02T13:33:57.293Z</time></trkpt><trkpt lat="42.0769816" lon="13.5972977"><ele>948.0</ele><time>2026-05-02T13:33:58.287Z</time></trkpt><trkpt lat="42.0770713" lon="13.5972831"><ele>948.0</ele><time>2026-05-02T13:33:59.293Z</time></trkpt><trkpt lat="42.0771675" lon="13.5972917"><ele>948.0</ele><time>2026-05-02T13:34:00.294Z</time></trkpt><trkpt lat="42.0772495" lon="13.5973346"><ele>948.0</ele><time>2026-05-02T13:34:01.279Z</time></trkpt><trkpt lat="42.0773046" lon="13.5974308"><ele>948.0</ele><time>2026-05-02T13:34:02.293Z</time></trkpt><trkpt lat="42.0773344" lon="13.5975773"><ele>948.0</ele><time>2026-05-02T13:34:03.297Z</time></trkpt><trkpt lat="42.0773543" lon="13.5977405"><ele>948.0</ele><time>2026-05-02T13:34:04.361Z</time></trkpt><trkpt lat="42.0774035" lon="13.5978574"><ele>948.0</ele><time>2026-05-02T13:34:05.366Z</time></trkpt><trkpt lat="42.0774645" lon="13.5979472"><ele>948.0</ele><time>2026-05-02T13:34:06.355Z</time></trkpt><trkpt lat="42.0775301" lon="13.5979918"><ele>949.4</ele><time>2026-05-02T13:34:07.354Z</time></trkpt><trkpt lat="42.0776107" lon="13.5980139"><ele>950.8</ele><time>2026-05-02T13:34:09.272Z</time></trkpt><trkpt lat="42.0776461" lon="13.5979083"><ele>952.2</ele><time>2026-05-02T13:34:10.273Z</time></trkpt><trkpt lat="42.0776438" lon="13.5977869"><ele>953.6</ele><time>2026-05-02T13:34:11.287Z</time></trkpt><trkpt lat="42.0776111" lon="13.5976679"><ele>955.0</ele><time>2026-05-02T13:34:12.283Z</time></trkpt><trkpt lat="42.07755" lon="13.597548"><ele>955.25</ele><time>2026-05-02T13:34:13.278Z</time></trkpt><trkpt lat="42.0774746" lon="13.5974237"><ele>955.5</ele><time>2026-05-02T13:34:14.284Z</time></trkpt><trkpt lat="42.0774119" lon="13.5972717"><ele>955.75</ele><time>2026-05-02T13:34:15.262Z</time></trkpt><trkpt lat="42.0773591" lon="13.5971015"><ele>956.0</ele><time>2026-05-02T13:34:16.276Z</time></trkpt><trkpt lat="42.0772932" lon="13.5969354"><ele>956.0</ele><time>2026-05-02T13:34:17.28Z</time></trkpt><trkpt lat="42.0772216" lon="13.5967548"><ele>956.0</ele><time>2026-05-02T13:34:18.277Z</time></trkpt><trkpt lat="42.0771587" lon="13.5965729"><ele>956.0</ele><time>2026-05-02T13:34:19.277Z</time></trkpt><trkpt lat="42.077094" lon="13.5964031"><ele>956.0</ele><time>2026-05-02T13:34:20.287Z</time></trkpt><trkpt lat="42.0770594" lon="13.5962316"><ele>955.75</ele><time>2026-05-02T13:34:21.274Z</time></trkpt><trkpt lat="42.0770505" lon="13.5960824"><ele>955.5</ele><time>2026-05-02T13:34:22.28Z</time></trkpt><trkpt lat="42.0770928" lon="13.595938"><ele>955.25</ele><time>2026-05-02T13:34:23.279Z</time></trkpt><trkpt lat="42.0771482" lon="13.5958075"><ele>955.0</ele><time>2026-05-02T13:34:24.281Z</time></trkpt><trkpt lat="42.0772202" lon="13.5956647"><ele>955.0</ele><time>2026-05-02T13:34:25.284Z</time></trkpt><trkpt lat="42.0773099" lon="13.5955416"><ele>955.0</ele><time>2026-05-02T13:34:26.286Z</time></trkpt><trkpt lat="42.0774265" lon="13.5954178"><ele>955.0</ele><time>2026-05-02T13:34:27.288Z</time></trkpt><trkpt lat="42.0775451" lon="13.5952979"><ele>955.0</ele><time>2026-05-02T13:34:28.286Z</time></trkpt><trkpt lat="42.077667" lon="13.595171"><ele>958.5</ele><time>2026-05-02T13:34:29.287Z</time></trkpt><trkpt lat="42.0777914" lon="13.5950552"><ele>962.0</ele><time>2026-05-02T13:34:30.286Z</time></trkpt><trkpt lat="42.0778898" lon="13.5949256"><ele>965.5</ele><time>2026-05-02T13:34:31.285Z</time></trkpt><trkpt lat="42.0779979" lon="13.5948048"><ele>969.0</ele><time>2026-05-02T13:34:32.285Z</time></trkpt><trkpt lat="42.0781038" lon="13.5947065"><ele>969.0</ele><time>2026-05-02T13:34:33.274Z</time></trkpt><trkpt lat="42.0782107" lon="13.5946316"><ele>969.0000000000001</ele><time>2026-05-02T13:34:34.283Z</time></trkpt><trkpt lat="42.0782894" lon="13.5945413"><ele>969.0000000000001</ele><time>2026-05-02T13:34:35.269Z</time></trkpt><trkpt lat="42.0783377" lon="13.5944382"><ele>969.0</ele><time>2026-05-02T13:34:36.275Z</time></trkpt><trkpt lat="42.0783665" lon="13.5943172"><ele>969.0</ele><time>2026-05-02T13:34:37.285Z</time></trkpt><trkpt lat="42.0783554" lon="13.5941716"><ele>970.75</ele><time>2026-05-02T13:34:38.28Z</time></trkpt><trkpt lat="42.0783159" lon="13.5940208"><ele>972.5</ele><time>2026-05-02T13:34:39.291Z</time></trkpt><trkpt lat="42.078301" lon="13.5938761"><ele>974.25</ele><time>2026-05-02T13:34:40.276Z</time></trkpt><trkpt lat="42.0783253" lon="13.5937331"><ele>976.0</ele><time>2026-05-02T13:34:41.284Z</time></trkpt><trkpt lat="42.0784051" lon="13.5936168"><ele>976.0</ele><time>2026-05-02T13:34:42.288Z</time></trkpt><trkpt lat="42.0785107" lon="13.5935274"><ele>976.0</ele><time>2026-05-02T13:34:43.285Z</time></trkpt><trkpt lat="42.0786187" lon="13.5934304"><ele>976.0</ele><time>2026-05-02T13:34:44.285Z</time></trkpt><trkpt lat="42.0787297" lon="13.5933268"><ele>976.0</ele><time>2026-05-02T13:34:45.291Z</time></trkpt><trkpt lat="42.0788424" lon="13.5932195"><ele>976.0</ele><time>2026-05-02T13:34:46.285Z</time></trkpt><trkpt lat="42.0789541" lon="13.593104"><ele>976.0</ele><time>2026-05-02T13:34:47.289Z</time></trkpt><trkpt lat="42.0790789" lon="13.5929837"><ele>976.0</ele><time>2026-05-02T13:34:48.282Z</time></trkpt><trkpt lat="42.0791981" lon="13.5928776"><ele>976.0</ele><time>2026-05-02T13:34:49.279Z</time></trkpt><trkpt lat="42.0793193" lon="13.5927741"><ele>979.5</ele><time>2026-05-02T13:34:50.28Z</time></trkpt><trkpt lat="42.0794346" lon="13.5926663"><ele>983.0</ele><time>2026-05-02T13:34:51.289Z</time></trkpt><trkpt lat="42.07956" lon="13.5925774"><ele>986.5</ele><time>2026-05-02T13:34:52.278Z</time></trkpt><trkpt lat="42.0796656" lon="13.5924761"><ele>990.0</ele><time>2026-05-02T13:34:53.275Z</time></trkpt><trkpt lat="42.0797717" lon="13.5923758"><ele>990.0</ele><time>2026-05-02T13:34:54.274Z</time></trkpt><trkpt lat="42.0798668" lon="13.5922713"><ele>990.0</ele><time>2026-05-02T13:34:55.274Z</time></trkpt><trkpt lat="42.0799557" lon="13.592179"><ele>990.0</ele><time>2026-05-02T13:34:56.272Z</time></trkpt><trkpt lat="42.0800478" lon="13.5921021"><ele>990.0</ele><time>2026-05-02T13:34:57.278Z</time></trkpt><trkpt lat="42.0801499" lon="13.5920208"><ele>993.5</ele><time>2026-05-02T13:34:58.285Z</time></trkpt><trkpt lat="42.0802549" lon="13.5919427"><ele>997.0</ele><time>2026-05-02T13:34:59.277Z</time></trkpt><trkpt lat="42.0803573" lon="13.5918555"><ele>1000.5</ele><time>2026-05-02T13:35:00.28Z</time></trkpt><trkpt lat="42.0804586" lon="13.5917795"><ele>1004.0</ele><time>2026-05-02T13:35:01.273Z</time></trkpt><trkpt lat="42.0805576" lon="13.5917253"><ele>1004.0</ele><time>2026-05-02T13:35:02.272Z</time></trkpt><trkpt lat="42.0806402" lon="13.5916614"><ele>1004.0000000000001</ele><time>2026-05-02T13:35:03.263Z</time></trkpt><trkpt lat="42.0806979" lon="13.5915786"><ele>1004.0000000000001</ele><time>2026-05-02T13:35:04.271Z</time></trkpt><trkpt lat="42.0807317" lon="13.5914823"><ele>1004.0</ele><time>2026-05-02T13:35:05.263Z</time></trkpt><trkpt lat="42.0807492" lon="13.5913345"><ele>1004.0</ele><time>2026-05-02T13:35:07.268Z</time></trkpt><trkpt lat="42.0807807" lon="13.5912174"><ele>1004.8333333333334</ele><time>2026-05-02T13:35:10.286Z</time></trkpt><trkpt lat="42.0807939" lon="13.5910854"><ele>1005.6666666666667</ele><time>2026-05-02T13:35:12.284Z</time></trkpt><trkpt lat="42.0807685" lon="13.5910016"><ele>1006.5</ele><time>2026-05-02T13:35:13.28Z</time></trkpt><trkpt lat="42.0807151" lon="13.5909271"><ele>1007.3333333333333</ele><time>2026-05-02T13:35:14.269Z</time></trkpt><trkpt lat="42.0806309" lon="13.590866"><ele>1008.1666666666666</ele><time>2026-05-02T13:35:15.274Z</time></trkpt><trkpt lat="42.0805379" lon="13.5908034"><ele>1009.0</ele><time>2026-05-02T13:35:16.281Z</time></trkpt><trkpt lat="42.0804447" lon="13.5907364"><ele>1008.9999999999999</ele><time>2026-05-02T13:35:17.282Z</time></trkpt><trkpt lat="42.0803567" lon="13.5906678"><ele>1009.0</ele><time>2026-05-02T13:35:18.281Z</time></trkpt><trkpt lat="42.0802752" lon="13.5906062"><ele>1009.0</ele><time>2026-05-02T13:35:19.284Z</time></trkpt><trkpt lat="42.080197" lon="13.5905464"><ele>1009.0</ele><time>2026-05-02T13:35:20.278Z</time></trkpt><trkpt lat="42.0801297" lon="13.5904771"><ele>1008.9999999999999</ele><time>2026-05-02T13:35:21.275Z</time></trkpt><trkpt lat="42.0800837" lon="13.590416"><ele>1009.0</ele><time>2026-05-02T13:35:22.276Z</time></trkpt><trkpt lat="42.0800835" lon="13.5902816"><ele>1008.9999999999999</ele><time>2026-05-02T13:35:24.288Z</time></trkpt><trkpt lat="42.0801431" lon="13.5902503"><ele>1009.0</ele><time>2026-05-02T13:35:37.296Z</time></trkpt><trkpt lat="42.0802085" lon="13.5902907"><ele>1009.0</ele><time>2026-05-02T13:35:43.293Z</time></trkpt><trkpt lat="42.0802764" lon="13.59033"><ele>1009.0</ele><time>2026-05-02T13:35:45.285Z</time></trkpt><trkpt lat="42.0803517" lon="13.5903644"><ele>1008.9999999999999</ele><time>2026-05-02T13:35:47.285Z</time></trkpt><trkpt lat="42.0804381" lon="13.5904078"><ele>1009.0</ele><time>2026-05-02T13:35:50.293Z</time></trkpt><trkpt lat="42.0805109" lon="13.5904432"><ele>1008.9999999999999</ele><time>2026-05-02T13:35:52.286Z</time></trkpt><trkpt lat="42.0805891" lon="13.5904671"><ele>1009.0</ele><time>2026-05-02T13:35:54.28Z</time></trkpt><trkpt lat="42.080679" lon="13.5905053"><ele>1009.0</ele><time>2026-05-02T13:35:56.284Z</time></trkpt><trkpt lat="42.0807879" lon="13.5905367"><ele>1009.0</ele><time>2026-05-02T13:35:58.27Z</time></trkpt><trkpt lat="42.0808499" lon="13.5905609"><ele>1008.9999999999999</ele><time>2026-05-02T13:35:59.276Z</time></trkpt><trkpt lat="42.080909" lon="13.5905916"><ele>1009.0</ele><time>2026-05-02T13:36:00.276Z</time></trkpt><trkpt lat="42.08098" lon="13.5906118"><ele>1011.2</ele><time>2026-05-02T13:36:01.273Z</time></trkpt><trkpt lat="42.0810426" lon="13.5906361"><ele>1013.4000000000001</ele><time>2026-05-02T13:36:02.278Z</time></trkpt><trkpt lat="42.0811375" lon="13.5906795"><ele>1015.6</ele><time>2026-05-02T13:36:04.275Z</time></trkpt><trkpt lat="42.0812305" lon="13.5906965"><ele>1017.8</ele><time>2026-05-02T13:36:06.27Z</time></trkpt><trkpt lat="42.0813035" lon="13.5906213"><ele>1020.0</ele><time>2026-05-02T13:36:08.277Z</time></trkpt><trkpt lat="42.0813423" lon="13.5904968"><ele>1020.0</ele><time>2026-05-02T13:36:10.284Z</time></trkpt><trkpt lat="42.0813682" lon="13.5904099"><ele>1020.0</ele><time>2026-05-02T13:36:12.286Z</time></trkpt><trkpt lat="42.0813745" lon="13.590287"><ele>1020.0</ele><time>2026-05-02T13:36:14.285Z</time></trkpt><trkpt lat="42.0813654" lon="13.5901854"><ele>1020.0</ele><time>2026-05-02T13:36:16.289Z</time></trkpt><trkpt lat="42.0814371" lon="13.5901223"><ele>1020.0</ele><time>2026-05-02T13:36:21.293Z</time></trkpt><trkpt lat="42.081506" lon="13.5901242"><ele>1020.0</ele><time>2026-05-02T13:36:22.277Z</time></trkpt><trkpt lat="42.0815699" lon="13.5901156"><ele>1020.8333333333334</ele><time>2026-05-02T13:36:23.274Z</time></trkpt><trkpt lat="42.0816783" lon="13.5900703"><ele>1021.6666666666667</ele><time>2026-05-02T13:36:25.267Z</time></trkpt><trkpt lat="42.0817269" lon="13.589999"><ele>1022.5</ele><time>2026-05-02T13:36:26.264Z</time></trkpt><trkpt lat="42.0817803" lon="13.5899264"><ele>1023.3333333333334</ele><time>2026-05-02T13:36:27.26Z</time></trkpt><trkpt lat="42.0818384" lon="13.5898697"><ele>1024.1666666666667</ele><time>2026-05-02T13:36:28.262Z</time></trkpt><trkpt lat="42.0818958" lon="13.5898166"><ele>1025.0</ele><time>2026-05-02T13:36:29.269Z</time></trkpt><trkpt lat="42.0819574" lon="13.589773"><ele>1025.0</ele><time>2026-05-02T13:36:30.268Z</time></trkpt><trkpt lat="42.0820187" lon="13.5897505"><ele>1025.0</ele><time>2026-05-02T13:36:31.259Z</time></trkpt><trkpt lat="42.082115" lon="13.5897481"><ele>1025.0</ele><time>2026-05-02T13:36:33.254Z</time></trkpt><trkpt lat="42.0822258" lon="13.5896959"><ele>1025.0</ele><time>2026-05-02T13:36:35.254Z</time></trkpt><trkpt lat="42.0823396" lon="13.5897295"><ele>1025.0</ele><time>2026-05-02T13:36:37.258Z</time></trkpt><trkpt lat="42.0824278" lon="13.589753"><ele>1025.6</ele><time>2026-05-02T13:36:39.258Z</time></trkpt><trkpt lat="42.0824928" lon="13.5897557"><ele>1026.2</ele><time>2026-05-02T13:36:41.268Z</time></trkpt><trkpt lat="42.0826225" lon="13.5897079"><ele>1026.8</ele><time>2026-05-02T13:36:43.263Z</time></trkpt><trkpt lat="42.0827425" lon="13.5897369"><ele>1027.4</ele><time>2026-05-02T13:36:45.288Z</time></trkpt><trkpt lat="42.0827983" lon="13.5898014"><ele>1028.0</ele><time>2026-05-02T13:36:47.288Z</time></trkpt><trkpt lat="42.0827827" lon="13.5897034"><ele>1028.0</ele><time>2026-05-02T13:36:54.303Z</time></trkpt><trkpt lat="42.0827018" lon="13.5896173"><ele>1028.0</ele><time>2026-05-02T13:36:56.295Z</time></trkpt><trkpt lat="42.0826906" lon="13.5894336"><ele>1028.0</ele><time>2026-05-02T13:36:58.289Z</time></trkpt><trkpt lat="42.0826871" lon="13.5893294"><ele>1028.0</ele><time>2026-05-02T13:36:59.287Z</time></trkpt><trkpt lat="42.0826663" lon="13.589206"><ele>1028.0</ele><time>2026-05-02T13:37:01.29Z</time></trkpt><trkpt lat="42.082634" lon="13.5890761"><ele>1024.6666666666667</ele><time>2026-05-02T13:37:04.296Z</time></trkpt><trkpt lat="42.0826094" lon="13.5889576"><ele>1021.3333333333334</ele><time>2026-05-02T13:37:06.298Z</time></trkpt><trkpt lat="42.0825881" lon="13.5888587"><ele>1018.0</ele><time>2026-05-02T13:37:08.293Z</time></trkpt><trkpt lat="42.082558" lon="13.5887628"><ele>1014.6666666666667</ele><time>2026-05-02T13:37:12.302Z</time></trkpt><trkpt lat="42.0825024" lon="13.588719"><ele>1011.3333333333334</ele><time>2026-05-02T13:37:15.305Z</time></trkpt><trkpt lat="42.082561" lon="13.5886665"><ele>1008.0</ele><time>2026-05-02T13:37:23.3Z</time></trkpt><trkpt lat="42.082663" lon="13.5886834"><ele>1008.0</ele><time>2026-05-02T13:37:25.293Z</time></trkpt><trkpt lat="42.0827493" lon="13.5887144"><ele>1008.0</ele><time>2026-05-02T13:37:26.304Z</time></trkpt><trkpt lat="42.0828419" lon="13.5887435"><ele>1008.0</ele><time>2026-05-02T13:37:27.293Z</time></trkpt><trkpt lat="42.0829322" lon="13.5887726"><ele>1008.0</ele><time>2026-05-02T13:37:28.297Z</time></trkpt><trkpt lat="42.0830137" lon="13.5887975"><ele>1008.0</ele><time>2026-05-02T13:37:29.301Z</time></trkpt><trkpt lat="42.0830901" lon="13.5888137"><ele>1008.0</ele><time>2026-05-02T13:37:30.299Z</time></trkpt><trkpt lat="42.08317" lon="13.588825"><ele>1008.0</ele><time>2026-05-02T13:37:31.297Z</time></trkpt><trkpt lat="42.0832532" lon="13.588844"><ele>1008.0</ele><time>2026-05-02T13:37:32.303Z</time></trkpt><trkpt lat="42.0833362" lon="13.5888573"><ele>1008.0</ele><time>2026-05-02T13:37:33.294Z</time></trkpt><trkpt lat="42.0834208" lon="13.5888721"><ele>1008.0</ele><time>2026-05-02T13:37:34.295Z</time></trkpt><trkpt lat="42.0835072" lon="13.5888786"><ele>1008.0</ele><time>2026-05-02T13:37:35.291Z</time></trkpt><trkpt lat="42.083598" lon="13.5888731"><ele>1008.0</ele><time>2026-05-02T13:37:36.29Z</time></trkpt><trkpt lat="42.083698" lon="13.5888729"><ele>1006.5</ele><time>2026-05-02T13:37:37.365Z</time></trkpt><trkpt lat="42.0837991" lon="13.5888706"><ele>1005.0</ele><time>2026-05-02T13:37:38.372Z</time></trkpt><trkpt lat="42.0838775" lon="13.5888867"><ele>1003.5</ele><time>2026-05-02T13:37:39.369Z</time></trkpt><trkpt lat="42.0839563" lon="13.5888996"><ele>1002.0</ele><time>2026-05-02T13:37:40.354Z</time></trkpt><trkpt lat="42.0840271" lon="13.5889067"><ele>1000.5</ele><time>2026-05-02T13:37:41.343Z</time></trkpt><trkpt lat="42.084093" lon="13.5888996"><ele>999.0</ele><time>2026-05-02T13:37:42.346Z</time></trkpt><trkpt lat="42.0841622" lon="13.5888809"><ele>997.3333333333334</ele><time>2026-05-02T13:37:44.372Z</time></trkpt><trkpt lat="42.0842576" lon="13.5888895"><ele>995.6666666666667</ele><time>2026-05-02T13:37:46.383Z</time></trkpt><trkpt lat="42.0843637" lon="13.5888941"><ele>994.0</ele><time>2026-05-02T13:37:48.347Z</time></trkpt><trkpt lat="42.0844559" lon="13.5888809"><ele>992.3333333333334</ele><time>2026-05-02T13:37:49.354Z</time></trkpt><trkpt lat="42.0845412" lon="13.5888705"><ele>990.6666666666667</ele><time>2026-05-02T13:37:50.351Z</time></trkpt><trkpt lat="42.0846103" lon="13.5888668"><ele>989.0</ele><time>2026-05-02T13:37:51.37Z</time></trkpt><trkpt lat="42.0846978" lon="13.5888701"><ele>989.0</ele><time>2026-05-02T13:37:53.363Z</time></trkpt><trkpt lat="42.0847773" lon="13.5887785"><ele>989.0000000000001</ele><time>2026-05-02T13:37:55.378Z</time></trkpt><trkpt lat="42.0847838" lon="13.5886414"><ele>989.0000000000001</ele><time>2026-05-02T13:37:57.282Z</time></trkpt><trkpt lat="42.0846821" lon="13.5886151"><ele>989.0</ele><time>2026-05-02T13:37:59.288Z</time></trkpt><trkpt lat="42.0846093" lon="13.588628"><ele>989.0</ele><time>2026-05-02T13:38:00.287Z</time></trkpt><trkpt lat="42.0845342" lon="13.5886297"><ele>985.5000000000001</ele><time>2026-05-02T13:38:01.28Z</time></trkpt><trkpt lat="42.0844572" lon="13.5885973"><ele>982.0</ele><time>2026-05-02T13:38:02.273Z</time></trkpt><trkpt lat="42.0843931" lon="13.5885197"><ele>978.5</ele><time>2026-05-02T13:38:03.281Z</time></trkpt><trkpt lat="42.0843358" lon="13.5884446"><ele>975.0</ele><time>2026-05-02T13:38:04.284Z</time></trkpt><trkpt lat="42.0842747" lon="13.5883818"><ele>971.5000000000001</ele><time>2026-05-02T13:38:05.282Z</time></trkpt><trkpt lat="42.0842173" lon="13.5883219"><ele>968.0</ele><time>2026-05-02T13:38:06.281Z</time></trkpt><trkpt lat="42.0841619" lon="13.5882338"><ele>968.0</ele><time>2026-05-02T13:38:08.27Z</time></trkpt><trkpt lat="42.084161" lon="13.5881275"><ele>968.0</ele><time>2026-05-02T13:38:10.292Z</time></trkpt><trkpt lat="42.0842072" lon="13.5880215"><ele>968.0</ele><time>2026-05-02T13:38:12.282Z</time></trkpt><trkpt lat="42.0842985" lon="13.5879656"><ele>968.0</ele><time>2026-05-02T13:38:14.287Z</time></trkpt><trkpt lat="42.0843988" lon="13.5878937"><ele>968.0</ele><time>2026-05-02T13:38:16.283Z</time></trkpt><trkpt lat="42.0844712" lon="13.5878086"><ele>965.8333333333334</ele><time>2026-05-02T13:38:18.29Z</time></trkpt><trkpt lat="42.0845498" lon="13.5876743"><ele>963.6666666666667</ele><time>2026-05-02T13:38:20.288Z</time></trkpt><trkpt lat="42.0845919" lon="13.5875843"><ele>961.5</ele><time>2026-05-02T13:38:21.289Z</time></trkpt><trkpt lat="42.0846399" lon="13.5875007"><ele>959.3333333333333</ele><time>2026-05-02T13:38:22.29Z</time></trkpt><trkpt lat="42.0846968" lon="13.5874297"><ele>957.1666666666666</ele><time>2026-05-02T13:38:23.29Z</time></trkpt><trkpt lat="42.084756" lon="13.587364"><ele>955.0</ele><time>2026-05-02T13:38:24.291Z</time></trkpt><trkpt lat="42.0848197" lon="13.5872921"><ele>954.9999999999999</ele><time>2026-05-02T13:38:25.284Z</time></trkpt><trkpt lat="42.0848882" lon="13.5872323"><ele>955.0</ele><time>2026-05-02T13:38:26.294Z</time></trkpt><trkpt lat="42.0849662" lon="13.5871828"><ele>955.0</ele><time>2026-05-02T13:38:27.296Z</time></trkpt><trkpt lat="42.0850468" lon="13.5871346"><ele>955.0</ele><time>2026-05-02T13:38:28.292Z</time></trkpt><trkpt lat="42.0851334" lon="13.5871006"><ele>954.9999999999999</ele><time>2026-05-02T13:38:29.284Z</time></trkpt><trkpt lat="42.0852216" lon="13.5870738"><ele>955.0</ele><time>2026-05-02T13:38:30.285Z</time></trkpt><trkpt lat="42.0853113" lon="13.5870473"><ele>954.3333333333333</ele><time>2026-05-02T13:38:31.279Z</time></trkpt><trkpt lat="42.0853935" lon="13.5870168"><ele>953.6666666666666</ele><time>2026-05-02T13:38:32.273Z</time></trkpt><trkpt lat="42.0854569" lon="13.5869689"><ele>953.0</ele><time>2026-05-02T13:38:33.271Z</time></trkpt><trkpt lat="42.0855154" lon="13.5868921"><ele>952.3333333333333</ele><time>2026-05-02T13:38:34.271Z</time></trkpt><trkpt lat="42.0855525" lon="13.5867863"><ele>951.6666666666666</ele><time>2026-05-02T13:38:35.271Z</time></trkpt><trkpt lat="42.0855612" lon="13.5866878"><ele>951.0</ele><time>2026-05-02T13:38:36.28Z</time></trkpt><trkpt lat="42.0855263" lon="13.5865885"><ele>949.8</ele><time>2026-05-02T13:38:37.277Z</time></trkpt><trkpt lat="42.0854762" lon="13.5864833"><ele>948.5999999999999</ele><time>2026-05-02T13:38:38.268Z</time></trkpt><trkpt lat="42.0854118" lon="13.5863713"><ele>947.4</ele><time>2026-05-02T13:38:39.28Z</time></trkpt><trkpt lat="42.0853697" lon="13.5862317"><ele>946.2</ele><time>2026-05-02T13:38:40.277Z</time></trkpt><trkpt lat="42.0853467" lon="13.5861031"><ele>945.0</ele><time>2026-05-02T13:38:41.282Z</time></trkpt><trkpt lat="42.0853384" lon="13.5859681"><ele>944.8333333333334</ele><time>2026-05-02T13:38:42.278Z</time></trkpt><trkpt lat="42.0853447" lon="13.5858428"><ele>944.6666666666667</ele><time>2026-05-02T13:38:43.265Z</time></trkpt><trkpt lat="42.0853637" lon="13.585739"><ele>944.5</ele><time>2026-05-02T13:38:44.275Z</time></trkpt><trkpt lat="42.0853929" lon="13.5856395"><ele>944.3333333333334</ele><time>2026-05-02T13:38:45.284Z</time></trkpt><trkpt lat="42.0854334" lon="13.5855396"><ele>944.1666666666667</ele><time>2026-05-02T13:38:46.282Z</time></trkpt><trkpt lat="42.0854734" lon="13.585448"><ele>944.0</ele><time>2026-05-02T13:38:47.279Z</time></trkpt><trkpt lat="42.0855203" lon="13.5853477"><ele>943.6</ele><time>2026-05-02T13:38:48.283Z</time></trkpt><trkpt lat="42.085567" lon="13.5852431"><ele>943.2</ele><time>2026-05-02T13:38:49.282Z</time></trkpt><trkpt lat="42.0856095" lon="13.5851286"><ele>942.8000000000001</ele><time>2026-05-02T13:38:50.282Z</time></trkpt><trkpt lat="42.0856461" lon="13.5850192"><ele>942.4000000000001</ele><time>2026-05-02T13:38:51.29Z</time></trkpt><trkpt lat="42.0856844" lon="13.584915"><ele>942.0</ele><time>2026-05-02T13:38:52.279Z</time></trkpt><trkpt lat="42.0857367" lon="13.5847888"><ele>945.1666666666666</ele><time>2026-05-02T13:38:53.289Z</time></trkpt><trkpt lat="42.085782" lon="13.5846647"><ele>948.3333333333333</ele><time>2026-05-02T13:38:54.281Z</time></trkpt><trkpt lat="42.085831" lon="13.5845549"><ele>951.5</ele><time>2026-05-02T13:38:55.277Z</time></trkpt><trkpt lat="42.0858826" lon="13.5844746"><ele>954.6666666666666</ele><time>2026-05-02T13:38:56.278Z</time></trkpt><trkpt lat="42.0859426" lon="13.5844025"><ele>957.8333333333333</ele><time>2026-05-02T13:38:57.277Z</time></trkpt><trkpt lat="42.086009" lon="13.5843454"><ele>961.0</ele><time>2026-05-02T13:38:58.278Z</time></trkpt><trkpt lat="42.0860723" lon="13.5843008"><ele>961.5999999999999</ele><time>2026-05-02T13:39:00.278Z</time></trkpt><trkpt lat="42.0861404" lon="13.5843155"><ele>962.1999999999999</ele><time>2026-05-02T13:39:03.288Z</time></trkpt><trkpt lat="42.0861352" lon="13.5841746"><ele>962.8000000000001</ele><time>2026-05-02T13:39:06.292Z</time></trkpt><trkpt lat="42.0861044" lon="13.5840384"><ele>963.4000000000001</ele><time>2026-05-02T13:39:07.28Z</time></trkpt><trkpt lat="42.0860691" lon="13.5839049"><ele>964.0</ele><time>2026-05-02T13:39:08.283Z</time></trkpt><trkpt lat="42.0860315" lon="13.5837626"><ele>964.75</ele><time>2026-05-02T13:39:09.274Z</time></trkpt><trkpt lat="42.0859857" lon="13.5836039"><ele>965.5</ele><time>2026-05-02T13:39:10.277Z</time></trkpt><trkpt lat="42.0859263" lon="13.5834467"><ele>966.25</ele><time>2026-05-02T13:39:11.278Z</time></trkpt><trkpt lat="42.0858622" lon="13.5832866"><ele>967.0</ele><time>2026-05-02T13:39:12.282Z</time></trkpt><trkpt lat="42.0857972" lon="13.5831454"><ele>965.6</ele><time>2026-05-02T13:39:13.279Z</time></trkpt><trkpt lat="42.0857299" lon="13.5830243"><ele>964.2</ele><time>2026-05-02T13:39:14.272Z</time></trkpt><trkpt lat="42.0856671" lon="13.5829214"><ele>962.8</ele><time>2026-05-02T13:39:15.279Z</time></trkpt><trkpt lat="42.0856081" lon="13.5828137"><ele>961.4</ele><time>2026-05-02T13:39:16.283Z</time></trkpt><trkpt lat="42.0855526" lon="13.5826963"><ele>960.0</ele><time>2026-05-02T13:39:17.276Z</time></trkpt><trkpt lat="42.0855025" lon="13.5825744"><ele>960.0</ele><time>2026-05-02T13:39:18.269Z</time></trkpt><trkpt lat="42.0854579" lon="13.5824216"><ele>960.0</ele><time>2026-05-02T13:39:19.273Z</time></trkpt><trkpt lat="42.0854083" lon="13.5822549"><ele>960.0</ele><time>2026-05-02T13:39:20.273Z</time></trkpt><trkpt lat="42.0853636" lon="13.5820881"><ele>960.0</ele><time>2026-05-02T13:39:21.284Z</time></trkpt><trkpt lat="42.0853206" lon="13.5819455"><ele>961.8</ele><time>2026-05-02T13:39:22.274Z</time></trkpt><trkpt lat="42.0852811" lon="13.5818126"><ele>963.6</ele><time>2026-05-02T13:39:23.281Z</time></trkpt><trkpt lat="42.0852401" lon="13.5816906"><ele>965.4000000000001</ele><time>2026-05-02T13:39:24.285Z</time></trkpt><trkpt lat="42.0852024" lon="13.5815675"><ele>967.2</ele><time>2026-05-02T13:39:25.277Z</time></trkpt><trkpt lat="42.0851556" lon="13.5814398"><ele>969.0</ele><time>2026-05-02T13:39:26.281Z</time></trkpt><trkpt lat="42.0851059" lon="13.5813171"><ele>969.0</ele><time>2026-05-02T13:39:27.285Z</time></trkpt><trkpt lat="42.0850573" lon="13.581189"><ele>969.0000000000001</ele><time>2026-05-02T13:39:28.279Z</time></trkpt><trkpt lat="42.0850141" lon="13.5810448"><ele>969.0000000000001</ele><time>2026-05-02T13:39:29.288Z</time></trkpt><trkpt lat="42.084972" lon="13.5808961"><ele>969.0</ele><time>2026-05-02T13:39:30.285Z</time></trkpt><trkpt lat="42.084936" lon="13.580774"><ele>969.0</ele><time>2026-05-02T13:39:31.275Z</time></trkpt><trkpt lat="42.0849096" lon="13.5806639"><ele>969.8571428571427</ele><time>2026-05-02T13:39:32.278Z</time></trkpt><trkpt lat="42.0848857" lon="13.5805718"><ele>970.7142857142857</ele><time>2026-05-02T13:39:33.281Z</time></trkpt><trkpt lat="42.0848658" lon="13.580487"><ele>971.5714285714284</ele><time>2026-05-02T13:39:34.281Z</time></trkpt><trkpt lat="42.0848537" lon="13.5803977"><ele>972.4285714285713</ele><time>2026-05-02T13:39:35.282Z</time></trkpt><trkpt lat="42.0848475" lon="13.5803066"><ele>973.2857142857142</ele><time>2026-05-02T13:39:36.281Z</time></trkpt><trkpt lat="42.0848413" lon="13.5802073"><ele>974.1428571428571</ele><time>2026-05-02T13:39:37.29Z</time></trkpt><trkpt lat="42.0848344" lon="13.580111"><ele>975.0</ele><time>2026-05-02T13:39:38.293Z</time></trkpt><trkpt lat="42.084834" lon="13.5800089"><ele>975.5</ele><time>2026-05-02T13:39:39.282Z</time></trkpt><trkpt lat="42.0848414" lon="13.5799159"><ele>976.0</ele><time>2026-05-02T13:39:40.289Z</time></trkpt><trkpt lat="42.0848537" lon="13.5798281"><ele>976.5</ele><time>2026-05-02T13:39:41.288Z</time></trkpt><trkpt lat="42.0848755" lon="13.5797416"><ele>977.0</ele><time>2026-05-02T13:39:42.288Z</time></trkpt><trkpt lat="42.0849361" lon="13.5795999"><ele>977.5</ele><time>2026-05-02T13:39:44.289Z</time></trkpt><trkpt lat="42.084975" lon="13.5795304"><ele>978.0</ele><time>2026-05-02T13:39:45.289Z</time></trkpt><trkpt lat="42.0850145" lon="13.5794622"><ele>975.6666666666666</ele><time>2026-05-02T13:39:46.291Z</time></trkpt><trkpt lat="42.0850642" lon="13.579387"><ele>973.3333333333333</ele><time>2026-05-02T13:39:47.288Z</time></trkpt><trkpt lat="42.0851068" lon="13.579321"><ele>971.0</ele><time>2026-05-02T13:39:48.29Z</time></trkpt><trkpt lat="42.0851587" lon="13.5792505"><ele>968.6666666666666</ele><time>2026-05-02T13:39:49.289Z</time></trkpt><trkpt lat="42.0852152" lon="13.579176"><ele>966.3333333333333</ele><time>2026-05-02T13:39:50.286Z</time></trkpt><trkpt lat="42.0852697" lon="13.5791059"><ele>964.0</ele><time>2026-05-02T13:39:51.291Z</time></trkpt><trkpt lat="42.0853294" lon="13.5790262"><ele>963.9999999999999</ele><time>2026-05-02T13:39:52.287Z</time></trkpt><trkpt lat="42.0853946" lon="13.5789603"><ele>964.0</ele><time>2026-05-02T13:39:53.288Z</time></trkpt><trkpt lat="42.0854492" lon="13.5788823"><ele>964.0</ele><time>2026-05-02T13:39:54.286Z</time></trkpt><trkpt lat="42.0854949" lon="13.578801"><ele>964.0</ele><time>2026-05-02T13:39:55.283Z</time></trkpt><trkpt lat="42.0855432" lon="13.5787185"><ele>963.9999999999999</ele><time>2026-05-02T13:39:56.286Z</time></trkpt><trkpt lat="42.0855959" lon="13.5786355"><ele>964.0</ele><time>2026-05-02T13:39:57.281Z</time></trkpt><trkpt lat="42.0856468" lon="13.5785615"><ele>963.6666666666666</ele><time>2026-05-02T13:39:58.284Z</time></trkpt><trkpt lat="42.0856924" lon="13.5784907"><ele>963.3333333333333</ele><time>2026-05-02T13:39:59.282Z</time></trkpt><trkpt lat="42.0857423" lon="13.5784205"><ele>963.0</ele><time>2026-05-02T13:40:00.287Z</time></trkpt><trkpt lat="42.085783" lon="13.5783288"><ele>962.6666666666667</ele><time>2026-05-02T13:40:01.276Z</time></trkpt><trkpt lat="42.08581" lon="13.5782372"><ele>962.3333333333334</ele><time>2026-05-02T13:40:02.274Z</time></trkpt><trkpt lat="42.0858494" lon="13.5781459"><ele>962.0</ele><time>2026-05-02T13:40:03.273Z</time></trkpt><trkpt lat="42.0858976" lon="13.5780644"><ele>962.0000000000001</ele><time>2026-05-02T13:40:04.272Z</time></trkpt><trkpt lat="42.0859376" lon="13.5779044"><ele>962.0</ele><time>2026-05-02T13:40:06.271Z</time></trkpt><trkpt lat="42.0859492" lon="13.5778096"><ele>962.0</ele><time>2026-05-02T13:40:07.273Z</time></trkpt><trkpt lat="42.0859591" lon="13.5777174"><ele>962.0</ele><time>2026-05-02T13:40:08.271Z</time></trkpt><trkpt lat="42.0859959" lon="13.5775837"><ele>962.0000000000001</ele><time>2026-05-02T13:40:10.263Z</time></trkpt><trkpt lat="42.086029" lon="13.5775049"><ele>962.0</ele><time>2026-05-02T13:40:17.286Z</time></trkpt><trkpt lat="42.0860367" lon="13.5774171"><ele>959.0</ele><time>2026-05-02T13:40:20.288Z</time></trkpt><trkpt lat="42.0859626" lon="13.5773548"><ele>956.0</ele><time>2026-05-02T13:40:23.28Z</time></trkpt><trkpt lat="42.0858399" lon="13.577341"><ele>953.0</ele><time>2026-05-02T13:40:25.272Z</time></trkpt><trkpt lat="42.0857536" lon="13.5773338"><ele>950.0</ele><time>2026-05-02T13:40:26.284Z</time></trkpt><trkpt lat="42.0856729" lon="13.5773327"><ele>947.0</ele><time>2026-05-02T13:40:27.283Z</time></trkpt><trkpt lat="42.0855957" lon="13.5773351"><ele>944.6666666666667</ele><time>2026-05-02T13:40:28.278Z</time></trkpt><trkpt lat="42.0855201" lon="13.5773278"><ele>942.3333333333334</ele><time>2026-05-02T13:40:29.279Z</time></trkpt><trkpt lat="42.0854486" lon="13.5773334"><ele>940.0</ele><time>2026-05-02T13:40:30.278Z</time></trkpt><trkpt lat="42.0853742" lon="13.5773262"><ele>937.6666666666667</ele><time>2026-05-02T13:40:31.286Z</time></trkpt><trkpt lat="42.0853088" lon="13.5773437"><ele>935.3333333333334</ele><time>2026-05-02T13:40:32.281Z</time></trkpt><trkpt lat="42.0851709" lon="13.5773382"><ele>933.0</ele><time>2026-05-02T13:40:34.282Z</time></trkpt><trkpt lat="42.0851078" lon="13.5773372"><ele>933.0</ele><time>2026-05-02T13:40:35.278Z</time></trkpt><trkpt lat="42.0850117" lon="13.5773279"><ele>933.0</ele><time>2026-05-02T13:40:37.279Z</time></trkpt><trkpt lat="42.0849572" lon="13.5771865"><ele>933.0</ele><time>2026-05-02T13:40:39.271Z</time></trkpt><trkpt lat="42.0850003" lon="13.5770399"><ele>933.0</ele><time>2026-05-02T13:40:41.277Z</time></trkpt><trkpt lat="42.0850899" lon="13.5769447"><ele>933.0</ele><time>2026-05-02T13:40:43.284Z</time></trkpt><trkpt lat="42.0851778" lon="13.5768686"><ele>930.5</ele><time>2026-05-02T13:40:45.282Z</time></trkpt><trkpt lat="42.0852412" lon="13.5767904"><ele>928.0</ele><time>2026-05-02T13:40:47.293Z</time></trkpt><trkpt lat="42.0852992" lon="13.5767303"><ele>925.5</ele><time>2026-05-02T13:40:49.292Z</time></trkpt><trkpt lat="42.0853609" lon="13.5766532"><ele>923.0</ele><time>2026-05-02T13:40:52.295Z</time></trkpt><trkpt lat="42.0854169" lon="13.5765414"><ele>920.5</ele><time>2026-05-02T13:40:54.29Z</time></trkpt><trkpt lat="42.0853688" lon="13.5764469"><ele>918.0</ele><time>2026-05-02T13:40:58.293Z</time></trkpt><trkpt lat="42.0852858" lon="13.5764399"><ele>918.0</ele><time>2026-05-02T13:41:00.296Z</time></trkpt><trkpt lat="42.0852086" lon="13.5764413"><ele>918.0</ele><time>2026-05-02T13:41:02.298Z</time></trkpt><trkpt lat="42.085118" lon="13.5764555"><ele>918.0</ele><time>2026-05-02T13:41:04.286Z</time></trkpt><trkpt lat="42.0850012" lon="13.5764095"><ele>918.0</ele><time>2026-05-02T13:41:06.273Z</time></trkpt><trkpt lat="42.084939" lon="13.5763541"><ele>918.0</ele><time>2026-05-02T13:41:07.27Z</time></trkpt><trkpt lat="42.0848746" lon="13.5763197"><ele>918.0</ele><time>2026-05-02T13:41:08.27Z</time></trkpt><trkpt lat="42.0847828" lon="13.5762931"><ele>916.5999999999999</ele><time>2026-05-02T13:41:10.273Z</time></trkpt><trkpt lat="42.0846835" lon="13.576255"><ele>915.1999999999999</ele><time>2026-05-02T13:41:12.276Z</time></trkpt><trkpt lat="42.0846229" lon="13.5762258"><ele>913.8</ele><time>2026-05-02T13:41:13.277Z</time></trkpt><trkpt lat="42.084511" lon="13.5762173"><ele>912.4</ele><time>2026-05-02T13:41:15.284Z</time></trkpt><trkpt lat="42.084406" lon="13.5762156"><ele>911.0</ele><time>2026-05-02T13:41:17.288Z</time></trkpt><trkpt lat="42.0842891" lon="13.5761872"><ele>908.0</ele><time>2026-05-02T13:41:19.278Z</time></trkpt><trkpt lat="42.0842082" lon="13.5761563"><ele>904.9999999999999</ele><time>2026-05-02T13:41:21.284Z</time></trkpt><trkpt lat="42.0841217" lon="13.5761308"><ele>901.9999999999999</ele><time>2026-05-02T13:41:23.294Z</time></trkpt><trkpt lat="42.0840211" lon="13.5761126"><ele>899.0</ele><time>2026-05-02T13:41:25.283Z</time></trkpt><trkpt lat="42.0839097" lon="13.5760739"><ele>896.0</ele><time>2026-05-02T13:41:27.283Z</time></trkpt><trkpt lat="42.0838054" lon="13.5760823"><ele>895.4</ele><time>2026-05-02T13:41:29.278Z</time></trkpt><trkpt lat="42.0836979" lon="13.5760906"><ele>894.8</ele><time>2026-05-02T13:41:31.279Z</time></trkpt><trkpt lat="42.0836019" lon="13.5760395"><ele>894.1999999999999</ele><time>2026-05-02T13:41:33.274Z</time></trkpt><trkpt lat="42.0835145" lon="13.5759363"><ele>893.5999999999999</ele><time>2026-05-02T13:41:35.268Z</time></trkpt><trkpt lat="42.083432" lon="13.5758147"><ele>893.0</ele><time>2026-05-02T13:41:37.283Z</time></trkpt><trkpt lat="42.083386" lon="13.5757545"><ele>893.0</ele><time>2026-05-02T13:41:38.275Z</time></trkpt><trkpt lat="42.0833247" lon="13.5756356"><ele>893.0</ele><time>2026-05-02T13:41:40.29Z</time></trkpt><trkpt lat="42.0832641" lon="13.5755177"><ele>893.0</ele><time>2026-05-02T13:41:42.275Z</time></trkpt><trkpt lat="42.0831772" lon="13.5753842"><ele>893.0</ele><time>2026-05-02T13:41:44.285Z</time></trkpt><trkpt lat="42.0831404" lon="13.5753088"><ele>893.0</ele><time>2026-05-02T13:41:45.272Z</time></trkpt><trkpt lat="42.0831067" lon="13.5752289"><ele>891.8571428571429</ele><time>2026-05-02T13:41:46.285Z</time></trkpt><trkpt lat="42.083079" lon="13.5751491"><ele>890.7142857142858</ele><time>2026-05-02T13:41:47.288Z</time></trkpt><trkpt lat="42.083056" lon="13.5750599"><ele>889.5714285714286</ele><time>2026-05-02T13:41:48.271Z</time></trkpt><trkpt lat="42.0830334" lon="13.5749628"><ele>888.4285714285714</ele><time>2026-05-02T13:41:49.284Z</time></trkpt><trkpt lat="42.0830036" lon="13.5748714"><ele>887.2857142857142</ele><time>2026-05-02T13:41:50.277Z</time></trkpt><trkpt lat="42.0829778" lon="13.5747843"><ele>886.1428571428571</ele><time>2026-05-02T13:41:51.287Z</time></trkpt><trkpt lat="42.0829541" lon="13.574694"><ele>885.0</ele><time>2026-05-02T13:41:52.285Z</time></trkpt><trkpt lat="42.0829229" lon="13.5745955"><ele>884.0</ele><time>2026-05-02T13:41:53.286Z</time></trkpt><trkpt lat="42.0828768" lon="13.5744907"><ele>883.0</ele><time>2026-05-02T13:41:54.278Z</time></trkpt><trkpt lat="42.0828285" lon="13.5743947"><ele>882.0</ele><time>2026-05-02T13:41:55.278Z</time></trkpt><trkpt lat="42.0827822" lon="13.5743105"><ele>881.0</ele><time>2026-05-02T13:41:56.281Z</time></trkpt><trkpt lat="42.0827493" lon="13.5742361"><ele>880.0</ele><time>2026-05-02T13:41:57.278Z</time></trkpt><trkpt lat="42.0827192" lon="13.574161"><ele>879.0</ele><time>2026-05-02T13:41:58.289Z</time></trkpt><trkpt lat="42.0826545" lon="13.5740468"><ele>879.0</ele><time>2026-05-02T13:42:00.279Z</time></trkpt><trkpt lat="42.0825962" lon="13.5739073"><ele>879.0</ele><time>2026-05-02T13:42:02.278Z</time></trkpt><trkpt lat="42.0825576" lon="13.5738383"><ele>879.0</ele><time>2026-05-02T13:42:03.27Z</time></trkpt><trkpt lat="42.0825073" lon="13.5737644"><ele>879.0</ele><time>2026-05-02T13:42:04.291Z</time></trkpt><trkpt lat="42.0824533" lon="13.5736958"><ele>879.0</ele><time>2026-05-02T13:42:05.28Z</time></trkpt><trkpt lat="42.0824089" lon="13.5736269"><ele>879.0</ele><time>2026-05-02T13:42:06.275Z</time></trkpt><trkpt lat="42.0823484" lon="13.5734988"><ele>878.0</ele><time>2026-05-02T13:42:08.279Z</time></trkpt><trkpt lat="42.0822898" lon="13.5733889"><ele>877.0</ele><time>2026-05-02T13:42:10.282Z</time></trkpt><trkpt lat="42.0822264" lon="13.5732679"><ele>876.0</ele><time>2026-05-02T13:42:12.273Z</time></trkpt><trkpt lat="42.0821389" lon="13.5731447"><ele>875.0</ele><time>2026-05-02T13:42:14.277Z</time></trkpt><trkpt lat="42.0820424" lon="13.5730548"><ele>875.0000000000001</ele><time>2026-05-02T13:42:16.275Z</time></trkpt><trkpt lat="42.0819438" lon="13.5729528"><ele>875.0</ele><time>2026-05-02T13:42:18.271Z</time></trkpt><trkpt lat="42.0818889" lon="13.5729105"><ele>875.0</ele><time>2026-05-02T13:42:19.28Z</time></trkpt><trkpt lat="42.0818358" lon="13.5728567"><ele>875.0</ele><time>2026-05-02T13:42:20.274Z</time></trkpt><trkpt lat="42.0817914" lon="13.5727908"><ele>875.0000000000001</ele><time>2026-05-02T13:42:21.282Z</time></trkpt><trkpt lat="42.0817434" lon="13.5727206"><ele>875.0</ele><time>2026-05-02T13:42:22.277Z</time></trkpt><trkpt lat="42.081698" lon="13.5726505"><ele>874.6</ele><time>2026-05-02T13:42:23.274Z</time></trkpt><trkpt lat="42.0816248" lon="13.5725116"><ele>874.2</ele><time>2026-05-02T13:42:25.275Z</time></trkpt><trkpt lat="42.0815783" lon="13.5724346"><ele>873.8</ele><time>2026-05-02T13:42:26.274Z</time></trkpt><trkpt lat="42.0815356" lon="13.572369"><ele>873.4</ele><time>2026-05-02T13:42:27.273Z</time></trkpt><trkpt lat="42.0814478" lon="13.5722636"><ele>873.0</ele><time>2026-05-02T13:42:29.286Z</time></trkpt><trkpt lat="42.0813868" lon="13.5721392"><ele>873.0</ele><time>2026-05-02T13:42:31.279Z</time></trkpt><trkpt lat="42.0814242" lon="13.5720317"><ele>873.0</ele><time>2026-05-02T13:42:33.283Z</time></trkpt><trkpt lat="42.0814947" lon="13.5719292"><ele>873.0</ele><time>2026-05-02T13:42:35.285Z</time></trkpt><trkpt lat="42.0814828" lon="13.5717903"><ele>873.0</ele><time>2026-05-02T13:42:38.29Z</time></trkpt><trkpt lat="42.0814119" lon="13.5716703"><ele>873.0</ele><time>2026-05-02T13:42:40.288Z</time></trkpt><trkpt lat="42.0813042" lon="13.5715779"><ele>871.4</ele><time>2026-05-02T13:42:42.283Z</time></trkpt><trkpt lat="42.0812002" lon="13.5714786"><ele>869.8</ele><time>2026-05-02T13:42:44.276Z</time></trkpt><trkpt lat="42.0811485" lon="13.5714199"><ele>868.2</ele><time>2026-05-02T13:42:45.274Z</time></trkpt><trkpt lat="42.0810527" lon="13.5713259"><ele>866.6</ele><time>2026-05-02T13:42:47.281Z</time></trkpt><trkpt lat="42.0809534" lon="13.571252"><ele>865.0</ele><time>2026-05-02T13:42:49.279Z</time></trkpt><trkpt lat="42.0808715" lon="13.571147"><ele>863.0</ele><time>2026-05-02T13:42:51.286Z</time></trkpt><trkpt lat="42.0808" lon="13.5710361"><ele>861.0</ele><time>2026-05-02T13:42:53.286Z</time></trkpt><trkpt lat="42.0807649" lon="13.5709637"><ele>859.0</ele><time>2026-05-02T13:42:54.277Z</time></trkpt><trkpt lat="42.0807284" lon="13.5708674"><ele>857.0</ele><time>2026-05-02T13:42:55.27Z</time></trkpt><trkpt lat="42.0806716" lon="13.5707488"><ele>855.0</ele><time>2026-05-02T13:42:56.28Z</time></trkpt><trkpt lat="42.0806226" lon="13.5706179"><ele>857.1666666666666</ele><time>2026-05-02T13:42:57.28Z</time></trkpt><trkpt lat="42.0805791" lon="13.5704982"><ele>859.3333333333333</ele><time>2026-05-02T13:42:58.272Z</time></trkpt><trkpt lat="42.0805515" lon="13.5703845"><ele>861.5</ele><time>2026-05-02T13:42:59.281Z</time></trkpt><trkpt lat="42.0805127" lon="13.5702863"><ele>863.6666666666666</ele><time>2026-05-02T13:43:00.288Z</time></trkpt><trkpt lat="42.0804704" lon="13.5701806"><ele>865.8333333333333</ele><time>2026-05-02T13:43:01.271Z</time></trkpt><trkpt lat="42.080441" lon="13.5700876"><ele>868.0</ele><time>2026-05-02T13:43:02.283Z</time></trkpt><trkpt lat="42.080407" lon="13.5699873"><ele>868.0</ele><time>2026-05-02T13:43:03.278Z</time></trkpt><trkpt lat="42.0803847" lon="13.5698692"><ele>868.0</ele><time>2026-05-02T13:43:04.279Z</time></trkpt><trkpt lat="42.0803742" lon="13.5697643"><ele>868.0</ele><time>2026-05-02T13:43:05.282Z</time></trkpt><trkpt lat="42.080345" lon="13.5696147"><ele>868.0</ele><time>2026-05-02T13:43:07.282Z</time></trkpt><trkpt lat="42.0803301" lon="13.5694305"><ele>868.0</ele><time>2026-05-02T13:43:09.281Z</time></trkpt><trkpt lat="42.0803341" lon="13.5693228"><ele>866.1666666666666</ele><time>2026-05-02T13:43:10.287Z</time></trkpt><trkpt lat="42.0803359" lon="13.569223"><ele>864.3333333333333</ele><time>2026-05-02T13:43:11.284Z</time></trkpt><trkpt lat="42.0803292" lon="13.5691303"><ele>862.5</ele><time>2026-05-02T13:43:12.272Z</time></trkpt><trkpt lat="42.0802949" lon="13.5690468"><ele>860.6666666666667</ele><time>2026-05-02T13:43:13.284Z</time></trkpt><trkpt lat="42.0802432" lon="13.5689592"><ele>858.8333333333334</ele><time>2026-05-02T13:43:14.271Z</time></trkpt><trkpt lat="42.0801947" lon="13.5688746"><ele>857.0</ele><time>2026-05-02T13:43:15.277Z</time></trkpt><trkpt lat="42.0801424" lon="13.5687923"><ele>854.8333333333334</ele><time>2026-05-02T13:43:16.276Z</time></trkpt><trkpt lat="42.0800902" lon="13.5686893"><ele>852.6666666666667</ele><time>2026-05-02T13:43:17.275Z</time></trkpt><trkpt lat="42.0800633" lon="13.5685935"><ele>850.5</ele><time>2026-05-02T13:43:18.272Z</time></trkpt><trkpt lat="42.0800497" lon="13.568494"><ele>848.3333333333333</ele><time>2026-05-02T13:43:19.263Z</time></trkpt><trkpt lat="42.0800375" lon="13.568378"><ele>846.1666666666666</ele><time>2026-05-02T13:43:20.273Z</time></trkpt><trkpt lat="42.0800264" lon="13.5682531"><ele>844.0</ele><time>2026-05-02T13:43:21.274Z</time></trkpt><trkpt lat="42.0800235" lon="13.5681396"><ele>843.9999999999999</ele><time>2026-05-02T13:43:22.276Z</time></trkpt><trkpt lat="42.0800179" lon="13.5680148"><ele>844.0</ele><time>2026-05-02T13:43:23.271Z</time></trkpt><trkpt lat="42.0800202" lon="13.5678902"><ele>844.0</ele><time>2026-05-02T13:43:24.266Z</time></trkpt><trkpt lat="42.0800365" lon="13.5677829"><ele>844.0</ele><time>2026-05-02T13:43:25.266Z</time></trkpt><trkpt lat="42.0800672" lon="13.5676822"><ele>843.9999999999999</ele><time>2026-05-02T13:43:26.277Z</time></trkpt><trkpt lat="42.0800979" lon="13.5675893"><ele>844.0</ele><time>2026-05-02T13:43:27.272Z</time></trkpt><trkpt lat="42.0801278" lon="13.5674956"><ele>842.9999999999999</ele><time>2026-05-02T13:43:28.275Z</time></trkpt><trkpt lat="42.0801664" lon="13.5673943"><ele>842.0</ele><time>2026-05-02T13:43:29.279Z</time></trkpt><trkpt lat="42.0802175" lon="13.5673051"><ele>841.0</ele><time>2026-05-02T13:43:30.281Z</time></trkpt><trkpt lat="42.0802635" lon="13.5672145"><ele>840.0</ele><time>2026-05-02T13:43:31.282Z</time></trkpt><trkpt lat="42.080319" lon="13.5671231"><ele>838.9999999999999</ele><time>2026-05-02T13:43:32.28Z</time></trkpt><trkpt lat="42.0803819" lon="13.5670305"><ele>838.0</ele><time>2026-05-02T13:43:33.286Z</time></trkpt><trkpt lat="42.0804502" lon="13.5669414"><ele>838.0</ele><time>2026-05-02T13:43:34.292Z</time></trkpt><trkpt lat="42.0805046" lon="13.566874"><ele>838.0</ele><time>2026-05-02T13:43:35.286Z</time></trkpt><trkpt lat="42.0805806" lon="13.5667785"><ele>838.0</ele><time>2026-05-02T13:43:37.282Z</time></trkpt><trkpt lat="42.0806136" lon="13.5666773"><ele>838.0</ele><time>2026-05-02T13:43:39.283Z</time></trkpt><trkpt lat="42.0805971" lon="13.5665289"><ele>838.0</ele><time>2026-05-02T13:43:41.291Z</time></trkpt><trkpt lat="42.0805478" lon="13.5664281"><ele>838.0</ele><time>2026-05-02T13:43:42.288Z</time></trkpt><trkpt lat="42.0805019" lon="13.5662986"><ele>838.0</ele><time>2026-05-02T13:43:43.282Z</time></trkpt><trkpt lat="42.0804644" lon="13.5661497"><ele>838.0</ele><time>2026-05-02T13:43:44.289Z</time></trkpt><trkpt lat="42.0804533" lon="13.5659923"><ele>838.0</ele><time>2026-05-02T13:43:45.278Z</time></trkpt><trkpt lat="42.0804585" lon="13.5658538"><ele>838.0</ele><time>2026-05-02T13:43:46.279Z</time></trkpt><trkpt lat="42.0804681" lon="13.5657461"><ele>837.9999999999999</ele><time>2026-05-02T13:43:47.275Z</time></trkpt><trkpt lat="42.0804668" lon="13.5656576"><ele>838.0</ele><time>2026-05-02T13:43:48.276Z</time></trkpt><trkpt lat="42.0804443" lon="13.5655721"><ele>838.0</ele><time>2026-05-02T13:43:49.275Z</time></trkpt><trkpt lat="42.0804049" lon="13.5654825"><ele>838.0</ele><time>2026-05-02T13:43:50.268Z</time></trkpt><trkpt lat="42.0803423" lon="13.5653736"><ele>837.9999999999999</ele><time>2026-05-02T13:43:51.283Z</time></trkpt><trkpt lat="42.0802742" lon="13.5652299"><ele>838.0</ele><time>2026-05-02T13:43:52.277Z</time></trkpt><trkpt lat="42.0802054" lon="13.5650782"><ele>835.5999999999999</ele><time>2026-05-02T13:43:53.271Z</time></trkpt><trkpt lat="42.0801498" lon="13.5649274"><ele>833.1999999999999</ele><time>2026-05-02T13:43:54.269Z</time></trkpt><trkpt lat="42.0801028" lon="13.5647915"><ele>830.8</ele><time>2026-05-02T13:43:55.272Z</time></trkpt><trkpt lat="42.0800691" lon="13.5646655"><ele>828.4</ele><time>2026-05-02T13:43:56.261Z</time></trkpt><trkpt lat="42.0800401" lon="13.564556"><ele>826.0</ele><time>2026-05-02T13:43:57.268Z</time></trkpt><trkpt lat="42.0800235" lon="13.5644446"><ele>824.4</ele><time>2026-05-02T13:43:58.268Z</time></trkpt><trkpt lat="42.0800184" lon="13.5643194"><ele>822.8</ele><time>2026-05-02T13:43:59.29Z</time></trkpt><trkpt lat="42.0800217" lon="13.5641827"><ele>821.1999999999999</ele><time>2026-05-02T13:44:00.279Z</time></trkpt><trkpt lat="42.0800261" lon="13.5640218"><ele>819.5999999999999</ele><time>2026-05-02T13:44:01.279Z</time></trkpt><trkpt lat="42.0800347" lon="13.5638592"><ele>818.0</ele><time>2026-05-02T13:44:02.28Z</time></trkpt><trkpt lat="42.0800409" lon="13.5637042"><ele>817.8</ele><time>2026-05-02T13:44:03.3Z</time></trkpt><trkpt lat="42.0800356" lon="13.563563"><ele>817.5999999999999</ele><time>2026-05-02T13:44:04.366Z</time></trkpt><trkpt lat="42.0800253" lon="13.5634206"><ele>817.4000000000001</ele><time>2026-05-02T13:44:05.365Z</time></trkpt><trkpt lat="42.0800147" lon="13.5632874"><ele>817.2</ele><time>2026-05-02T13:44:06.366Z</time></trkpt><trkpt lat="42.0800146" lon="13.5631624"><ele>817.0</ele><time>2026-05-02T13:44:07.368Z</time></trkpt><trkpt lat="42.0800268" lon="13.5630498"><ele>816.9999999999999</ele><time>2026-05-02T13:44:08.362Z</time></trkpt><trkpt lat="42.0800423" lon="13.5629423"><ele>817.0</ele><time>2026-05-02T13:44:09.365Z</time></trkpt><trkpt lat="42.0800588" lon="13.562842"><ele>817.0</ele><time>2026-05-02T13:44:10.349Z</time></trkpt><trkpt lat="42.0800726" lon="13.562747"><ele>817.0</ele><time>2026-05-02T13:44:11.352Z</time></trkpt><trkpt lat="42.0800784" lon="13.5626549"><ele>817.0</ele><time>2026-05-02T13:44:12.353Z</time></trkpt><trkpt lat="42.0800733" lon="13.5625681"><ele>816.9999999999999</ele><time>2026-05-02T13:44:13.352Z</time></trkpt><trkpt lat="42.0800544" lon="13.5624845"><ele>817.0</ele><time>2026-05-02T13:44:14.36Z</time></trkpt><trkpt lat="42.0800136" lon="13.5623843"><ele>815.7142857142857</ele><time>2026-05-02T13:44:15.364Z</time></trkpt><trkpt lat="42.0799801" lon="13.5622866"><ele>814.4285714285714</ele><time>2026-05-02T13:44:16.352Z</time></trkpt><trkpt lat="42.0799384" lon="13.5622093"><ele>813.1428571428571</ele><time>2026-05-02T13:44:17.353Z</time></trkpt><trkpt lat="42.0798958" lon="13.5621294"><ele>811.8571428571429</ele><time>2026-05-02T13:44:18.357Z</time></trkpt><trkpt lat="42.0798745" lon="13.5620429"><ele>810.5714285714286</ele><time>2026-05-02T13:44:19.348Z</time></trkpt><trkpt lat="42.0798624" lon="13.5619489"><ele>809.2857142857142</ele><time>2026-05-02T13:44:20.363Z</time></trkpt><trkpt lat="42.0798582" lon="13.5618384"><ele>808.0</ele><time>2026-05-02T13:44:21.36Z</time></trkpt><trkpt lat="42.0798566" lon="13.5617186"><ele>806.6666666666666</ele><time>2026-05-02T13:44:22.353Z</time></trkpt><trkpt lat="42.0798598" lon="13.5616113"><ele>805.3333333333333</ele><time>2026-05-02T13:44:23.347Z</time></trkpt><trkpt lat="42.0798735" lon="13.5615002"><ele>804.0</ele><time>2026-05-02T13:44:24.344Z</time></trkpt><trkpt lat="42.0798977" lon="13.5614034"><ele>802.6666666666667</ele><time>2026-05-02T13:44:25.35Z</time></trkpt><trkpt lat="42.0799419" lon="13.5613156"><ele>801.3333333333334</ele><time>2026-05-02T13:44:26.357Z</time></trkpt><trkpt lat="42.0800048" lon="13.5612281"><ele>800.0</ele><time>2026-05-02T13:44:27.356Z</time></trkpt><trkpt lat="42.0800571" lon="13.5611483"><ele>799.1428571428572</ele><time>2026-05-02T13:44:28.349Z</time></trkpt><trkpt lat="42.0800996" lon="13.5610646"><ele>798.2857142857143</ele><time>2026-05-02T13:44:29.35Z</time></trkpt><trkpt lat="42.0801232" lon="13.5609802"><ele>797.4285714285714</ele><time>2026-05-02T13:44:30.35Z</time></trkpt><trkpt lat="42.0801343" lon="13.5608908"><ele>796.5714285714287</ele><time>2026-05-02T13:44:31.351Z</time></trkpt><trkpt lat="42.0801305" lon="13.5607961"><ele>795.7142857142857</ele><time>2026-05-02T13:44:32.37Z</time></trkpt><trkpt lat="42.0801213" lon="13.5607065"><ele>794.8571428571429</ele><time>2026-05-02T13:44:33.369Z</time></trkpt><trkpt lat="42.0801035" lon="13.5606185"><ele>794.0</ele><time>2026-05-02T13:44:34.35Z</time></trkpt><trkpt lat="42.0800761" lon="13.5605263"><ele>794.0000000000001</ele><time>2026-05-02T13:44:35.338Z</time></trkpt><trkpt lat="42.0800378" lon="13.5604157"><ele>794.0</ele><time>2026-05-02T13:44:36.346Z</time></trkpt><trkpt lat="42.0799962" lon="13.5602985"><ele>794.0</ele><time>2026-05-02T13:44:37.336Z</time></trkpt><trkpt lat="42.0799548" lon="13.5601971"><ele>794.0</ele><time>2026-05-02T13:44:38.359Z</time></trkpt><trkpt lat="42.0799126" lon="13.5601118"><ele>794.0000000000001</ele><time>2026-05-02T13:44:39.35Z</time></trkpt><trkpt lat="42.0798724" lon="13.5600384"><ele>794.0</ele><time>2026-05-02T13:44:40.351Z</time></trkpt><trkpt lat="42.0798249" lon="13.5599653"><ele>796.0000000000001</ele><time>2026-05-02T13:44:41.346Z</time></trkpt><trkpt lat="42.0797724" lon="13.5598844"><ele>798.0</ele><time>2026-05-02T13:44:42.342Z</time></trkpt><trkpt lat="42.0797171" lon="13.5597966"><ele>800.0</ele><time>2026-05-02T13:44:43.345Z</time></trkpt><trkpt lat="42.0796651" lon="13.5597012"><ele>802.0</ele><time>2026-05-02T13:44:44.346Z</time></trkpt><trkpt lat="42.0796112" lon="13.5596029"><ele>804.0000000000001</ele><time>2026-05-02T13:44:45.355Z</time></trkpt><trkpt lat="42.0795581" lon="13.5595053"><ele>806.0</ele><time>2026-05-02T13:44:46.349Z</time></trkpt><trkpt lat="42.079502" lon="13.5594089"><ele>802.0000000000001</ele><time>2026-05-02T13:44:47.357Z</time></trkpt><trkpt lat="42.0794463" lon="13.559316"><ele>798.0</ele><time>2026-05-02T13:44:48.348Z</time></trkpt><trkpt lat="42.0793935" lon="13.5592155"><ele>794.0</ele><time>2026-05-02T13:44:49.358Z</time></trkpt><trkpt lat="42.0793507" lon="13.559116"><ele>790.0</ele><time>2026-05-02T13:44:50.356Z</time></trkpt><trkpt lat="42.0793098" lon="13.5590125"><ele>786.0000000000001</ele><time>2026-05-02T13:44:51.342Z</time></trkpt><trkpt lat="42.0792664" lon="13.5589174"><ele>782.0</ele><time>2026-05-02T13:44:52.34Z</time></trkpt><trkpt lat="42.0792164" lon="13.5588244"><ele>782.0</ele><time>2026-05-02T13:44:53.344Z</time></trkpt><trkpt lat="42.0791586" lon="13.5587308"><ele>782.0</ele><time>2026-05-02T13:44:54.335Z</time></trkpt><trkpt lat="42.0790982" lon="13.5586292"><ele>782.0</ele><time>2026-05-02T13:44:55.346Z</time></trkpt><trkpt lat="42.0790333" lon="13.5585196"><ele>782.0</ele><time>2026-05-02T13:44:56.353Z</time></trkpt><trkpt lat="42.0789698" lon="13.5584097"><ele>782.0</ele><time>2026-05-02T13:44:57.343Z</time></trkpt><trkpt lat="42.0789118" lon="13.558301"><ele>782.3333333333334</ele><time>2026-05-02T13:44:58.339Z</time></trkpt><trkpt lat="42.0788578" lon="13.5581942"><ele>782.6666666666667</ele><time>2026-05-02T13:44:59.349Z</time></trkpt><trkpt lat="42.0788069" lon="13.5580982"><ele>783.0</ele><time>2026-05-02T13:45:00.346Z</time></trkpt><trkpt lat="42.0787617" lon="13.5580036"><ele>783.3333333333333</ele><time>2026-05-02T13:45:01.352Z</time></trkpt><trkpt lat="42.0787147" lon="13.5579029"><ele>783.6666666666666</ele><time>2026-05-02T13:45:02.352Z</time></trkpt><trkpt lat="42.0786671" lon="13.5577966"><ele>784.0</ele><time>2026-05-02T13:45:03.358Z</time></trkpt><trkpt lat="42.078616" lon="13.5576845"><ele>780.0</ele><time>2026-05-02T13:45:04.361Z</time></trkpt><trkpt lat="42.0785652" lon="13.5575606"><ele>776.0</ele><time>2026-05-02T13:45:05.357Z</time></trkpt><trkpt lat="42.0785141" lon="13.5574282"><ele>772.0</ele><time>2026-05-02T13:45:06.345Z</time></trkpt><trkpt lat="42.0784652" lon="13.5573011"><ele>768.0</ele><time>2026-05-02T13:45:07.338Z</time></trkpt><trkpt lat="42.0784189" lon="13.5571784"><ele>764.0</ele><time>2026-05-02T13:45:08.337Z</time></trkpt><trkpt lat="42.0783746" lon="13.557071"><ele>762.3333333333333</ele><time>2026-05-02T13:45:09.338Z</time></trkpt><trkpt lat="42.0783354" lon="13.5569793"><ele>760.6666666666666</ele><time>2026-05-02T13:45:10.349Z</time></trkpt><trkpt lat="42.0782987" lon="13.5568947"><ele>759.0</ele><time>2026-05-02T13:45:11.347Z</time></trkpt><trkpt lat="42.0782672" lon="13.5568126"><ele>757.3333333333334</ele><time>2026-05-02T13:45:12.337Z</time></trkpt><trkpt lat="42.0782449" lon="13.5567255"><ele>755.6666666666667</ele><time>2026-05-02T13:45:13.338Z</time></trkpt><trkpt lat="42.0782327" lon="13.5566232"><ele>754.0</ele><time>2026-05-02T13:45:14.341Z</time></trkpt><trkpt lat="42.0782263" lon="13.5565041"><ele>757.8000000000001</ele><time>2026-05-02T13:45:15.344Z</time></trkpt><trkpt lat="42.0782165" lon="13.5563744"><ele>761.6</ele><time>2026-05-02T13:45:16.357Z</time></trkpt><trkpt lat="42.0781731" lon="13.5562463"><ele>765.4</ele><time>2026-05-02T13:45:17.273Z</time></trkpt><trkpt lat="42.078145" lon="13.5561208"><ele>769.2</ele><time>2026-05-02T13:45:18.278Z</time></trkpt><trkpt lat="42.0781199" lon="13.5560032"><ele>773.0</ele><time>2026-05-02T13:45:19.268Z</time></trkpt><trkpt lat="42.0780826" lon="13.5558941"><ele>773.0000000000001</ele><time>2026-05-02T13:45:20.278Z</time></trkpt><trkpt lat="42.0780286" lon="13.555783"><ele>773.0</ele><time>2026-05-02T13:45:21.268Z</time></trkpt><trkpt lat="42.0779757" lon="13.5556882"><ele>773.0</ele><time>2026-05-02T13:45:22.276Z</time></trkpt><trkpt lat="42.0779248" lon="13.5555956"><ele>773.0</ele><time>2026-05-02T13:45:23.272Z</time></trkpt><trkpt lat="42.0778714" lon="13.5554961"><ele>773.0000000000001</ele><time>2026-05-02T13:45:24.276Z</time></trkpt><trkpt lat="42.0778179" lon="13.5554072"><ele>773.0</ele><time>2026-05-02T13:45:25.266Z</time></trkpt><trkpt lat="42.077791" lon="13.5553134"><ele>770.5000000000001</ele><time>2026-05-02T13:45:26.274Z</time></trkpt><trkpt lat="42.0777889" lon="13.5552072"><ele>768.0</ele><time>2026-05-02T13:45:27.271Z</time></trkpt><trkpt lat="42.0777955" lon="13.5550958"><ele>765.5</ele><time>2026-05-02T13:45:28.277Z</time></trkpt><trkpt lat="42.0778008" lon="13.5549707"><ele>763.0</ele><time>2026-05-02T13:45:29.274Z</time></trkpt><trkpt lat="42.0777951" lon="13.5548335"><ele>760.5</ele><time>2026-05-02T13:45:30.277Z</time></trkpt><trkpt lat="42.0777684" lon="13.5547191"><ele>758.0</ele><time>2026-05-02T13:45:31.268Z</time></trkpt><trkpt lat="42.0777218" lon="13.5546201"><ele>758.8</ele><time>2026-05-02T13:45:32.268Z</time></trkpt><trkpt lat="42.0776591" lon="13.5545244"><ele>759.5999999999999</ele><time>2026-05-02T13:45:33.274Z</time></trkpt><trkpt lat="42.0775854" lon="13.5544284"><ele>760.4000000000001</ele><time>2026-05-02T13:45:34.272Z</time></trkpt><trkpt lat="42.0774979" lon="13.5543404"><ele>761.2</ele><time>2026-05-02T13:45:35.267Z</time></trkpt><trkpt lat="42.0774116" lon="13.5542588"><ele>762.0</ele><time>2026-05-02T13:45:36.266Z</time></trkpt><trkpt lat="42.077336" lon="13.5541929"><ele>762.0</ele><time>2026-05-02T13:45:37.267Z</time></trkpt><trkpt lat="42.0772717" lon="13.5541341"><ele>762.0</ele><time>2026-05-02T13:45:38.27Z</time></trkpt><trkpt lat="42.077218" lon="13.5540606"><ele>762.0</ele><time>2026-05-02T13:45:39.262Z</time></trkpt><trkpt lat="42.0771657" lon="13.553954"><ele>762.0</ele><time>2026-05-02T13:45:40.271Z</time></trkpt><trkpt lat="42.0771318" lon="13.5538541"><ele>762.0</ele><time>2026-05-02T13:45:41.268Z</time></trkpt><trkpt lat="42.0771157" lon="13.5537506"><ele>762.0</ele><time>2026-05-02T13:45:42.276Z</time></trkpt><trkpt lat="42.0771026" lon="13.5536582"><ele>759.1666666666666</ele><time>2026-05-02T13:45:43.277Z</time></trkpt><trkpt lat="42.0770528" lon="13.5535445"><ele>756.3333333333334</ele><time>2026-05-02T13:45:45.276Z</time></trkpt><trkpt lat="42.0770001" lon="13.5534697"><ele>753.5</ele><time>2026-05-02T13:45:47.277Z</time></trkpt><trkpt lat="42.0770107" lon="13.5533818"><ele>750.6666666666667</ele><time>2026-05-02T13:45:49.279Z</time></trkpt><trkpt lat="42.0771184" lon="13.5533057"><ele>747.8333333333334</ele><time>2026-05-02T13:45:51.301Z</time></trkpt><trkpt lat="42.0772036" lon="13.5532963"><ele>745.0</ele><time>2026-05-02T13:45:52.276Z</time></trkpt><trkpt lat="42.0772985" lon="13.5532789"><ele>745.0</ele><time>2026-05-02T13:45:53.279Z</time></trkpt><trkpt lat="42.0773827" lon="13.5532535"><ele>745.0</ele><time>2026-05-02T13:45:54.28Z</time></trkpt><trkpt lat="42.0774581" lon="13.5532147"><ele>745.0</ele><time>2026-05-02T13:45:55.281Z</time></trkpt><trkpt lat="42.0775255" lon="13.5531604"><ele>745.0</ele><time>2026-05-02T13:45:56.278Z</time></trkpt><trkpt lat="42.0775761" lon="13.5530784"><ele>745.0</ele><time>2026-05-02T13:45:57.28Z</time></trkpt><trkpt lat="42.0776022" lon="13.5529682"><ele>745.0</ele><time>2026-05-02T13:45:58.283Z</time></trkpt><trkpt lat="42.0776072" lon="13.5528473"><ele>746.8</ele><time>2026-05-02T13:45:59.276Z</time></trkpt><trkpt lat="42.0775977" lon="13.5527256"><ele>748.6</ele><time>2026-05-02T13:46:00.276Z</time></trkpt><trkpt lat="42.0775677" lon="13.5526054"><ele>750.4000000000001</ele><time>2026-05-02T13:46:01.272Z</time></trkpt><trkpt lat="42.0775231" lon="13.552491"><ele>752.2</ele><time>2026-05-02T13:46:02.272Z</time></trkpt><trkpt lat="42.0774826" lon="13.5523609"><ele>754.0</ele><time>2026-05-02T13:46:03.277Z</time></trkpt><trkpt lat="42.0774427" lon="13.5522287"><ele>752.25</ele><time>2026-05-02T13:46:04.271Z</time></trkpt><trkpt lat="42.0774016" lon="13.552083"><ele>750.5</ele><time>2026-05-02T13:46:05.281Z</time></trkpt><trkpt lat="42.0773616" lon="13.5519365"><ele>748.75</ele><time>2026-05-02T13:46:06.271Z</time></trkpt><trkpt lat="42.0773202" lon="13.5517849"><ele>747.0</ele><time>2026-05-02T13:46:07.276Z</time></trkpt><trkpt lat="42.0772707" lon="13.5516429"><ele>747.0</ele><time>2026-05-02T13:46:08.269Z</time></trkpt><trkpt lat="42.0772074" lon="13.5515104"><ele>747.0</ele><time>2026-05-02T13:46:09.266Z</time></trkpt><trkpt lat="42.0771251" lon="13.5513909"><ele>747.0</ele><time>2026-05-02T13:46:10.271Z</time></trkpt><trkpt lat="42.0770312" lon="13.5512627"><ele>747.0</ele><time>2026-05-02T13:46:11.269Z</time></trkpt><trkpt lat="42.0769277" lon="13.5511512"><ele>745.8</ele><time>2026-05-02T13:46:12.269Z</time></trkpt><trkpt lat="42.0768163" lon="13.55106"><ele>744.6</ele><time>2026-05-02T13:46:13.278Z</time></trkpt><trkpt lat="42.0767168" lon="13.5509879"><ele>743.4</ele><time>2026-05-02T13:46:14.278Z</time></trkpt><trkpt lat="42.076625" lon="13.5509294"><ele>742.1999999999999</ele><time>2026-05-02T13:46:15.277Z</time></trkpt><trkpt lat="42.0765541" lon="13.5508653"><ele>741.0</ele><time>2026-05-02T13:46:16.286Z</time></trkpt><trkpt lat="42.0765285" lon="13.5507631"><ele>741.0</ele><time>2026-05-02T13:46:17.264Z</time></trkpt><trkpt lat="42.0765253" lon="13.5506742"><ele>741.0</ele><time>2026-05-02T13:46:18.282Z</time></trkpt><trkpt lat="42.0766175" lon="13.550654"><ele>741.0</ele><time>2026-05-02T13:46:21.295Z</time></trkpt><trkpt lat="42.0767053" lon="13.5506917"><ele>741.0</ele><time>2026-05-02T13:46:23.278Z</time></trkpt><trkpt lat="42.0768254" lon="13.5506567"><ele>741.0</ele><time>2026-05-02T13:46:25.272Z</time></trkpt><trkpt lat="42.0768995" lon="13.5506205"><ele>743.8</ele><time>2026-05-02T13:46:26.271Z</time></trkpt><trkpt lat="42.0769797" lon="13.5505831"><ele>746.5999999999999</ele><time>2026-05-02T13:46:27.275Z</time></trkpt><trkpt lat="42.0770693" lon="13.550541"><ele>749.4</ele><time>2026-05-02T13:46:28.284Z</time></trkpt><trkpt lat="42.0771578" lon="13.550498"><ele>752.2</ele><time>2026-05-02T13:46:29.282Z</time></trkpt><trkpt lat="42.0772617" lon="13.5504583"><ele>755.0</ele><time>2026-05-02T13:46:30.287Z</time></trkpt><trkpt lat="42.0773741" lon="13.5504239"><ele>757.0</ele><time>2026-05-02T13:46:31.272Z</time></trkpt><trkpt lat="42.077491" lon="13.5503851"><ele>759.0</ele><time>2026-05-02T13:46:32.283Z</time></trkpt><trkpt lat="42.0776166" lon="13.5503333"><ele>761.0</ele><time>2026-05-02T13:46:33.271Z</time></trkpt><trkpt lat="42.0777318" lon="13.5502784"><ele>763.0</ele><time>2026-05-02T13:46:34.27Z</time></trkpt><trkpt lat="42.0778533" lon="13.5502284"><ele>763.0</ele><time>2026-05-02T13:46:35.269Z</time></trkpt><trkpt lat="42.0779797" lon="13.5501671"><ele>763.0</ele><time>2026-05-02T13:46:36.277Z</time></trkpt><trkpt lat="42.0781096" lon="13.5501144"><ele>763.0</ele><time>2026-05-02T13:46:37.268Z</time></trkpt><trkpt lat="42.0782382" lon="13.5500632"><ele>763.0</ele><time>2026-05-02T13:46:38.279Z</time></trkpt><trkpt lat="42.0783502" lon="13.5500156"><ele>766.5</ele><time>2026-05-02T13:46:39.265Z</time></trkpt><trkpt lat="42.0784715" lon="13.5499668"><ele>770.0</ele><time>2026-05-02T13:46:40.271Z</time></trkpt><trkpt lat="42.0785979" lon="13.5499183"><ele>773.5</ele><time>2026-05-02T13:46:41.276Z</time></trkpt><trkpt lat="42.0787278" lon="13.5498704"><ele>777.0</ele><time>2026-05-02T13:46:42.281Z</time></trkpt><trkpt lat="42.078857" lon="13.5498235"><ele>777.0</ele><time>2026-05-02T13:46:43.282Z</time></trkpt><trkpt lat="42.0789852" lon="13.5497681"><ele>777.0</ele><time>2026-05-02T13:46:44.273Z</time></trkpt><trkpt lat="42.079125" lon="13.5497102"><ele>777.0</ele><time>2026-05-02T13:46:45.267Z</time></trkpt><trkpt lat="42.0792544" lon="13.5496491"><ele>777.0</ele><time>2026-05-02T13:46:46.27Z</time></trkpt><trkpt lat="42.0793547" lon="13.5496083"><ele>777.5</ele><time>2026-05-02T13:46:47.269Z</time></trkpt><trkpt lat="42.0794304" lon="13.5495646"><ele>778.0</ele><time>2026-05-02T13:46:48.272Z</time></trkpt><trkpt lat="42.0794963" lon="13.5495396"><ele>778.5</ele><time>2026-05-02T13:46:49.266Z</time></trkpt><trkpt lat="42.0795761" lon="13.549541"><ele>779.0</ele><time>2026-05-02T13:46:57.272Z</time></trkpt><trkpt lat="42.0796585" lon="13.5494892"><ele>779.5</ele><time>2026-05-02T13:46:59.275Z</time></trkpt><trkpt lat="42.0797253" lon="13.5494243"><ele>780.0</ele><time>2026-05-02T13:47:00.262Z</time></trkpt><trkpt lat="42.079819" lon="13.5493286"><ele>780.0</ele><time>2026-05-02T13:47:01.264Z</time></trkpt><trkpt lat="42.0799162" lon="13.5492303"><ele>780.0</ele><time>2026-05-02T13:47:02.262Z</time></trkpt><trkpt lat="42.0800282" lon="13.5491111"><ele>780.0</ele><time>2026-05-02T13:47:03.265Z</time></trkpt><trkpt lat="42.0801231" lon="13.5489982"><ele>780.0</ele><time>2026-05-02T13:47:04.293Z</time></trkpt><trkpt lat="42.0802286" lon="13.5488937"><ele>779.75</ele><time>2026-05-02T13:47:05.284Z</time></trkpt><trkpt lat="42.0803734" lon="13.5487455"><ele>779.5</ele><time>2026-05-02T13:47:06.31Z</time></trkpt><trkpt lat="42.0804555" lon="13.5486667"><ele>779.25</ele><time>2026-05-02T13:47:07.367Z</time></trkpt><trkpt lat="42.0805423" lon="13.5485791"><ele>779.0</ele><time>2026-05-02T13:47:08.367Z</time></trkpt><trkpt lat="42.0806324" lon="13.5484848"><ele>779.0</ele><time>2026-05-02T13:47:09.359Z</time></trkpt><trkpt lat="42.0807208" lon="13.5483892"><ele>779.0</ele><time>2026-05-02T13:47:10.365Z</time></trkpt><trkpt lat="42.0808062" lon="13.5482935"><ele>779.0</ele><time>2026-05-02T13:47:11.369Z</time></trkpt><trkpt lat="42.0808907" lon="13.5482025"><ele>779.0</ele><time>2026-05-02T13:47:12.369Z</time></trkpt><trkpt lat="42.0809758" lon="13.5481148"><ele>779.0</ele><time>2026-05-02T13:47:13.373Z</time></trkpt><trkpt lat="42.0810594" lon="13.5480311"><ele>780.2</ele><time>2026-05-02T13:47:14.368Z</time></trkpt><trkpt lat="42.0811404" lon="13.5479491"><ele>781.4000000000001</ele><time>2026-05-02T13:47:15.367Z</time></trkpt><trkpt lat="42.0812215" lon="13.5478702"><ele>782.6</ele><time>2026-05-02T13:47:16.366Z</time></trkpt><trkpt lat="42.0812934" lon="13.5477853"><ele>783.8</ele><time>2026-05-02T13:47:17.376Z</time></trkpt><trkpt lat="42.0813784" lon="13.5477066"><ele>785.0</ele><time>2026-05-02T13:47:18.372Z</time></trkpt><trkpt lat="42.0814677" lon="13.5476224"><ele>782.0</ele><time>2026-05-02T13:47:19.368Z</time></trkpt><trkpt lat="42.0815631" lon="13.5475358"><ele>779.0</ele><time>2026-05-02T13:47:20.366Z</time></trkpt><trkpt lat="42.0816715" lon="13.547466"><ele>776.0</ele><time>2026-05-02T13:47:21.364Z</time></trkpt><trkpt lat="42.0817801" lon="13.5474052"><ele>773.0</ele><time>2026-05-02T13:47:22.363Z</time></trkpt><trkpt lat="42.0818869" lon="13.5473477"><ele>773.0</ele><time>2026-05-02T13:47:23.344Z</time></trkpt><trkpt lat="42.0819923" lon="13.5472898"><ele>773.0</ele><time>2026-05-02T13:47:24.34Z</time></trkpt><trkpt lat="42.0820972" lon="13.5472273"><ele>773.0</ele><time>2026-05-02T13:47:25.342Z</time></trkpt><trkpt lat="42.0821896" lon="13.5471499"><ele>773.0</ele><time>2026-05-02T13:47:26.349Z</time></trkpt><trkpt lat="42.0822686" lon="13.5470487"><ele>773.0</ele><time>2026-05-02T13:47:27.353Z</time></trkpt><trkpt lat="42.0823388" lon="13.5469307"><ele>773.5999999999999</ele><time>2026-05-02T13:47:28.354Z</time></trkpt><trkpt lat="42.0823932" lon="13.5468004"><ele>774.1999999999999</ele><time>2026-05-02T13:47:29.353Z</time></trkpt><trkpt lat="42.0824394" lon="13.5466621"><ele>774.8</ele><time>2026-05-02T13:47:30.343Z</time></trkpt><trkpt lat="42.0824759" lon="13.5465216"><ele>775.4</ele><time>2026-05-02T13:47:31.343Z</time></trkpt><trkpt lat="42.0825055" lon="13.5463785"><ele>776.0</ele><time>2026-05-02T13:47:32.349Z</time></trkpt><trkpt lat="42.0825315" lon="13.5462373"><ele>774.5</ele><time>2026-05-02T13:47:33.356Z</time></trkpt><trkpt lat="42.0825518" lon="13.5460924"><ele>773.0</ele><time>2026-05-02T13:47:34.361Z</time></trkpt><trkpt lat="42.082566" lon="13.5459403"><ele>771.5</ele><time>2026-05-02T13:47:35.363Z</time></trkpt><trkpt lat="42.0825721" lon="13.54578"><ele>770.0</ele><time>2026-05-02T13:47:36.363Z</time></trkpt><trkpt lat="42.0825716" lon="13.5456108"><ele>770.0</ele><time>2026-05-02T13:47:37.348Z</time></trkpt><trkpt lat="42.0825628" lon="13.5454387"><ele>770.0</ele><time>2026-05-02T13:47:38.352Z</time></trkpt><trkpt lat="42.0825436" lon="13.545266"><ele>770.0</ele><time>2026-05-02T13:47:39.341Z</time></trkpt><trkpt lat="42.0825137" lon="13.5450938"><ele>770.0</ele><time>2026-05-02T13:47:40.347Z</time></trkpt><trkpt lat="42.0824825" lon="13.5449282"><ele>769.5</ele><time>2026-05-02T13:47:41.354Z</time></trkpt><trkpt lat="42.0824537" lon="13.5447724"><ele>769.0</ele><time>2026-05-02T13:47:42.358Z</time></trkpt><trkpt lat="42.0824253" lon="13.544616"><ele>768.5</ele><time>2026-05-02T13:47:43.369Z</time></trkpt><trkpt lat="42.0823957" lon="13.5444662"><ele>768.0</ele><time>2026-05-02T13:47:44.358Z</time></trkpt><trkpt lat="42.0823753" lon="13.5443157"><ele>765.2</ele><time>2026-05-02T13:47:45.361Z</time></trkpt><trkpt lat="42.0823675" lon="13.5441724"><ele>762.4</ele><time>2026-05-02T13:47:46.354Z</time></trkpt><trkpt lat="42.0823671" lon="13.5440498"><ele>759.6</ele><time>2026-05-02T13:47:47.349Z</time></trkpt><trkpt lat="42.082366" lon="13.5439408"><ele>756.8000000000001</ele><time>2026-05-02T13:47:48.336Z</time></trkpt><trkpt lat="42.082363" lon="13.5438559"><ele>754.0</ele><time>2026-05-02T13:47:49.337Z</time></trkpt><trkpt lat="42.0823381" lon="13.5436932"><ele>753.5</ele><time>2026-05-02T13:47:51.343Z</time></trkpt><trkpt lat="42.0822739" lon="13.5435766"><ele>753.0</ele><time>2026-05-02T13:47:53.353Z</time></trkpt><trkpt lat="42.082178" lon="13.5435271"><ele>752.5</ele><time>2026-05-02T13:47:55.344Z</time></trkpt><trkpt lat="42.0821109" lon="13.5435301"><ele>752.0</ele><time>2026-05-02T13:47:56.346Z</time></trkpt><trkpt lat="42.082032" lon="13.5435296"><ele>751.5</ele><time>2026-05-02T13:47:57.344Z</time></trkpt><trkpt lat="42.0819413" lon="13.5435264"><ele>751.0</ele><time>2026-05-02T13:47:58.36Z</time></trkpt><trkpt lat="42.0818376" lon="13.5435163"><ele>751.0</ele><time>2026-05-02T13:47:59.359Z</time></trkpt><trkpt lat="42.0817248" lon="13.5435113"><ele>751.0</ele><time>2026-05-02T13:48:00.361Z</time></trkpt><trkpt lat="42.0816025" lon="13.543508"><ele>751.0</ele><time>2026-05-02T13:48:01.354Z</time></trkpt><trkpt lat="42.0814809" lon="13.5435043"><ele>751.0</ele><time>2026-05-02T13:48:02.347Z</time></trkpt><trkpt lat="42.0813665" lon="13.5434986"><ele>750.1999999999999</ele><time>2026-05-02T13:48:03.349Z</time></trkpt><trkpt lat="42.0812566" lon="13.5434935"><ele>749.4</ele><time>2026-05-02T13:48:04.35Z</time></trkpt><trkpt lat="42.0811515" lon="13.5434867"><ele>748.6</ele><time>2026-05-02T13:48:05.37Z</time></trkpt><trkpt lat="42.0810425" lon="13.5434829"><ele>747.8</ele><time>2026-05-02T13:48:06.368Z</time></trkpt><trkpt lat="42.0809286" lon="13.5434772"><ele>747.0</ele><time>2026-05-02T13:48:07.363Z</time></trkpt><trkpt lat="42.080806" lon="13.5434784"><ele>746.25</ele><time>2026-05-02T13:48:08.374Z</time></trkpt><trkpt lat="42.0806824" lon="13.5434825"><ele>745.5</ele><time>2026-05-02T13:48:09.367Z</time></trkpt><trkpt lat="42.0805526" lon="13.5434835"><ele>744.75</ele><time>2026-05-02T13:48:10.362Z</time></trkpt><trkpt lat="42.0804309" lon="13.5434782"><ele>744.0</ele><time>2026-05-02T13:48:11.353Z</time></trkpt><trkpt lat="42.0803216" lon="13.5434734"><ele>744.0</ele><time>2026-05-02T13:48:12.351Z</time></trkpt><trkpt lat="42.080223" lon="13.5434726"><ele>744.0</ele><time>2026-05-02T13:48:13.368Z</time></trkpt><trkpt lat="42.0801413" lon="13.5434711"><ele>744.0</ele><time>2026-05-02T13:48:14.368Z</time></trkpt><trkpt lat="42.0800546" lon="13.5434758"><ele>744.0</ele><time>2026-05-02T13:48:15.365Z</time></trkpt><trkpt lat="42.0799573" lon="13.5434827"><ele>744.0</ele><time>2026-05-02T13:48:16.365Z</time></trkpt><trkpt lat="42.0798763" lon="13.5434876"><ele>744.0</ele><time>2026-05-02T13:48:17.368Z</time></trkpt><trkpt lat="42.0797662" lon="13.5434723"><ele>743.3333333333334</ele><time>2026-05-02T13:48:19.276Z</time></trkpt><trkpt lat="42.0797206" lon="13.543315"><ele>742.6666666666666</ele><time>2026-05-02T13:48:21.278Z</time></trkpt><trkpt lat="42.0796943" lon="13.5432159"><ele>742.0</ele><time>2026-05-02T13:48:22.27Z</time></trkpt><trkpt lat="42.0796661" lon="13.5431089"><ele>741.3333333333333</ele><time>2026-05-02T13:48:23.276Z</time></trkpt><trkpt lat="42.0796419" lon="13.5430133"><ele>740.6666666666666</ele><time>2026-05-02T13:48:24.269Z</time></trkpt><trkpt lat="42.0796001" lon="13.5429445"><ele>740.0</ele><time>2026-05-02T13:48:25.266Z</time></trkpt><trkpt lat="42.0795058" lon="13.5428856"><ele>740.2</ele><time>2026-05-02T13:48:27.274Z</time></trkpt><trkpt lat="42.0794359" lon="13.5428665"><ele>740.4</ele><time>2026-05-02T13:48:28.282Z</time></trkpt><trkpt lat="42.0793583" lon="13.5428497"><ele>740.5999999999999</ele><time>2026-05-02T13:48:29.277Z</time></trkpt><trkpt lat="42.0792591" lon="13.542832"><ele>740.8</ele><time>2026-05-02T13:48:30.281Z</time></trkpt><trkpt lat="42.0791387" lon="13.5428006"><ele>741.0</ele><time>2026-05-02T13:48:31.271Z</time></trkpt><trkpt lat="42.0790323" lon="13.5427596"><ele>740.4</ele><time>2026-05-02T13:48:32.27Z</time></trkpt><trkpt lat="42.0789403" lon="13.5426892"><ele>739.8</ele><time>2026-05-02T13:48:33.273Z</time></trkpt><trkpt lat="42.0788601" lon="13.5425976"><ele>739.1999999999999</ele><time>2026-05-02T13:48:34.259Z</time></trkpt><trkpt lat="42.0787863" lon="13.5424973"><ele>738.5999999999999</ele><time>2026-05-02T13:48:35.263Z</time></trkpt><trkpt lat="42.0787161" lon="13.5423846"><ele>738.0</ele><time>2026-05-02T13:48:36.266Z</time></trkpt><trkpt lat="42.0786545" lon="13.5422837"><ele>738.0</ele><time>2026-05-02T13:48:37.269Z</time></trkpt><trkpt lat="42.0785904" lon="13.5422086"><ele>738.0</ele><time>2026-05-02T13:48:38.271Z</time></trkpt><trkpt lat="42.0785318" lon="13.5421405"><ele>738.0</ele><time>2026-05-02T13:48:39.271Z</time></trkpt><trkpt lat="42.0784834" lon="13.5420793"><ele>738.0</ele><time>2026-05-02T13:48:40.276Z</time></trkpt><trkpt lat="42.0783966" lon="13.5419703"><ele>738.0</ele><time>2026-05-02T13:48:42.265Z</time></trkpt><trkpt lat="42.0783503" lon="13.5418974"><ele>738.0</ele><time>2026-05-02T13:48:43.274Z</time></trkpt><trkpt lat="42.078312" lon="13.5417527"><ele>738.4</ele><time>2026-05-02T13:48:45.278Z</time></trkpt><trkpt lat="42.0783879" lon="13.5416077"><ele>738.8</ele><time>2026-05-02T13:48:47.27Z</time></trkpt><trkpt lat="42.0784278" lon="13.5415376"><ele>739.2</ele><time>2026-05-02T13:48:48.278Z</time></trkpt><trkpt lat="42.0784139" lon="13.5414014"><ele>739.6</ele><time>2026-05-02T13:48:50.267Z</time></trkpt><trkpt lat="42.078364" lon="13.5413309"><ele>740.0</ele><time>2026-05-02T13:48:51.275Z</time></trkpt><trkpt lat="42.0783128" lon="13.5412358"><ele>740.4</ele><time>2026-05-02T13:48:53.286Z</time></trkpt><trkpt lat="42.0783529" lon="13.541157"><ele>740.8</ele><time>2026-05-02T13:48:55.29Z</time></trkpt><trkpt lat="42.0784175" lon="13.5410899"><ele>741.2</ele><time>2026-05-02T13:48:57.283Z</time></trkpt><trkpt lat="42.0784171" lon="13.5409897"><ele>741.6</ele><time>2026-05-02T13:48:59.282Z</time></trkpt><trkpt lat="42.0783291" lon="13.540843"><ele>742.0</ele><time>2026-05-02T13:49:01.268Z</time></trkpt><trkpt lat="42.0782626" lon="13.5407433"><ele>740.2</ele><time>2026-05-02T13:49:02.265Z</time></trkpt><trkpt lat="42.0781832" lon="13.5406111"><ele>738.4000000000001</ele><time>2026-05-02T13:49:03.277Z</time></trkpt><trkpt lat="42.0781126" lon="13.5404741"><ele>736.5999999999999</ele><time>2026-05-02T13:49:04.269Z</time></trkpt><trkpt lat="42.0780356" lon="13.5403707"><ele>734.8</ele><time>2026-05-02T13:49:05.279Z</time></trkpt><trkpt lat="42.0779832" lon="13.5402963"><ele>733.0</ele><time>2026-05-02T13:49:06.283Z</time></trkpt><trkpt lat="42.077961" lon="13.5401505"><ele>733.0</ele><time>2026-05-02T13:49:08.278Z</time></trkpt><trkpt lat="42.0780374" lon="13.5400161"><ele>733.0</ele><time>2026-05-02T13:49:10.274Z</time></trkpt><trkpt lat="42.0781116" lon="13.539955"><ele>733.0</ele><time>2026-05-02T13:49:11.272Z</time></trkpt><trkpt lat="42.0781977" lon="13.5399159"><ele>733.0</ele><time>2026-05-02T13:49:12.279Z</time></trkpt><trkpt lat="42.0782614" lon="13.5398804"><ele>733.0</ele><time>2026-05-02T13:49:13.274Z</time></trkpt><trkpt lat="42.0783402" lon="13.5399225"><ele>734.6666666666667</ele><time>2026-05-02T13:49:33.293Z</time></trkpt><trkpt lat="42.0784084" lon="13.5399756"><ele>736.3333333333334</ele><time>2026-05-02T13:49:35.288Z</time></trkpt><trkpt lat="42.0784799" lon="13.5399844"><ele>738.0</ele><time>2026-05-02T13:49:36.288Z</time></trkpt><trkpt lat="42.0785512" lon="13.5399812"><ele>739.6666666666666</ele><time>2026-05-02T13:49:37.279Z</time></trkpt><trkpt lat="42.078634" lon="13.5399813"><ele>741.3333333333333</ele><time>2026-05-02T13:49:38.271Z</time></trkpt><trkpt lat="42.0787218" lon="13.5399846"><ele>743.0</ele><time>2026-05-02T13:49:39.266Z</time></trkpt><trkpt lat="42.0788003" lon="13.5399809"><ele>743.0</ele><time>2026-05-02T13:49:40.271Z</time></trkpt><trkpt lat="42.078876" lon="13.5399832"><ele>743.0</ele><time>2026-05-02T13:49:41.27Z</time></trkpt><trkpt lat="42.0789916" lon="13.5399906"><ele>743.0</ele><time>2026-05-02T13:49:43.279Z</time></trkpt><trkpt lat="42.0790873" lon="13.5399906"><ele>743.0</ele><time>2026-05-02T13:49:45.273Z</time></trkpt><trkpt lat="42.0791393" lon="13.5400816"><ele>743.0</ele><time>2026-05-02T13:49:47.285Z</time></trkpt><trkpt lat="42.0791558" lon="13.5401739"><ele>743.0</ele><time>2026-05-02T13:49:48.275Z</time></trkpt><trkpt lat="42.0791969" lon="13.5403255"><ele>743.0</ele><time>2026-05-02T13:49:50.273Z</time></trkpt><trkpt lat="42.079235" lon="13.5404323"><ele>743.0</ele><time>2026-05-02T13:49:52.277Z</time></trkpt><trkpt lat="42.0793362" lon="13.540369"><ele>743.0</ele><time>2026-05-02T13:49:55.288Z</time></trkpt><trkpt lat="42.0794442" lon="13.5403315"><ele>743.0</ele><time>2026-05-02T13:49:57.277Z</time></trkpt><trkpt lat="42.0795263" lon="13.5403233"><ele>743.0</ele><time>2026-05-02T13:49:59.288Z</time></trkpt><trkpt lat="42.0795842" lon="13.5403825"><ele>743.0</ele><time>2026-05-02T13:50:02.281Z</time></trkpt><trkpt lat="42.0796186" lon="13.5405255"><ele>743.0</ele><time>2026-05-02T13:50:04.268Z</time></trkpt><trkpt lat="42.0796469" lon="13.5406366"><ele>743.0</ele><time>2026-05-02T13:50:05.274Z</time></trkpt><trkpt lat="42.0796904" lon="13.540763"><ele>743.0</ele><time>2026-05-02T13:50:06.275Z</time></trkpt><trkpt lat="42.0797503" lon="13.540882"><ele>743.0</ele><time>2026-05-02T13:50:07.272Z</time></trkpt><trkpt lat="42.0798211" lon="13.5409786"><ele>743.0</ele><time>2026-05-02T13:50:08.276Z</time></trkpt><trkpt lat="42.0799137" lon="13.5410395"><ele>743.0</ele><time>2026-05-02T13:50:09.272Z</time></trkpt><trkpt lat="42.0800162" lon="13.5410737"><ele>743.0</ele><time>2026-05-02T13:50:10.277Z</time></trkpt><trkpt lat="42.0801209" lon="13.5410991"><ele>743.0</ele><time>2026-05-02T13:50:11.276Z</time></trkpt><trkpt lat="42.0802289" lon="13.5411119"><ele>743.0</ele><time>2026-05-02T13:50:12.282Z</time></trkpt><trkpt lat="42.0803357" lon="13.541099"><ele>743.25</ele><time>2026-05-02T13:50:13.281Z</time></trkpt><trkpt lat="42.0804541" lon="13.5410751"><ele>743.5</ele><time>2026-05-02T13:50:14.285Z</time></trkpt><trkpt lat="42.0805799" lon="13.5410584"><ele>743.75</ele><time>2026-05-02T13:50:15.28Z</time></trkpt><trkpt lat="42.0807081" lon="13.5410526"><ele>744.0</ele><time>2026-05-02T13:50:16.282Z</time></trkpt><trkpt lat="42.0808436" lon="13.5410449"><ele>744.25</ele><time>2026-05-02T13:50:17.273Z</time></trkpt><trkpt lat="42.0809731" lon="13.5410494"><ele>744.5</ele><time>2026-05-02T13:50:18.282Z</time></trkpt><trkpt lat="42.0810976" lon="13.5410573"><ele>744.75</ele><time>2026-05-02T13:50:19.272Z</time></trkpt><trkpt lat="42.0812109" lon="13.5410631"><ele>745.0</ele><time>2026-05-02T13:50:20.269Z</time></trkpt><trkpt lat="42.0813314" lon="13.5410742"><ele>745.0</ele><time>2026-05-02T13:50:21.28Z</time></trkpt><trkpt lat="42.0814498" lon="13.5410881"><ele>745.0</ele><time>2026-05-02T13:50:22.269Z</time></trkpt><trkpt lat="42.081576" lon="13.5411184"><ele>745.0</ele><time>2026-05-02T13:50:23.27Z</time></trkpt><trkpt lat="42.0816849" lon="13.5411564"><ele>745.0</ele><time>2026-05-02T13:50:24.264Z</time></trkpt><trkpt lat="42.0817799" lon="13.5411925"><ele>745.1666666666667</ele><time>2026-05-02T13:50:25.273Z</time></trkpt><trkpt lat="42.0818649" lon="13.5412521"><ele>745.3333333333334</ele><time>2026-05-02T13:50:26.272Z</time></trkpt><trkpt lat="42.0819294" lon="13.5413261"><ele>745.5</ele><time>2026-05-02T13:50:27.265Z</time></trkpt><trkpt lat="42.0819823" lon="13.541396"><ele>745.6666666666666</ele><time>2026-05-02T13:50:28.27Z</time></trkpt><trkpt lat="42.0820504" lon="13.5414935"><ele>745.8333333333333</ele><time>2026-05-02T13:50:30.277Z</time></trkpt><trkpt lat="42.0821013" lon="13.5415828"><ele>746.0</ele><time>2026-05-02T13:50:32.291Z</time></trkpt><trkpt lat="42.0821609" lon="13.5416477"><ele>746.0</ele><time>2026-05-02T13:50:34.284Z</time></trkpt><trkpt lat="42.0822104" lon="13.54159"><ele>746.0</ele><time>2026-05-02T13:50:38.301Z</time></trkpt><trkpt lat="42.0822516" lon="13.5415245"><ele>746.0</ele><time>2026-05-02T13:50:44.301Z</time></trkpt><trkpt lat="42.0822145" lon="13.541415"><ele>746.0</ele><time>2026-05-02T13:50:49.298Z</time></trkpt><trkpt lat="42.0822288" lon="13.5415145"><ele>746.0</ele><time>2026-05-02T13:54:51.309Z</time></trkpt><trkpt lat="42.0821762" lon="13.5415795"><ele>746.0</ele><time>2026-05-02T13:55:45.298Z</time></trkpt><trkpt lat="42.082112" lon="13.5415592"><ele>746.0</ele><time>2026-05-02T13:55:50.315Z</time></trkpt><trkpt lat="42.082085" lon="13.5414715"><ele>746.0</ele><time>2026-05-02T13:55:53.302Z</time></trkpt><trkpt lat="42.0821377" lon="13.5413901"><ele>746.0</ele><time>2026-05-02T13:55:55.306Z</time></trkpt><trkpt lat="42.082209" lon="13.5413649"><ele>746.0</ele><time>2026-05-02T13:55:58.311Z</time></trkpt><trkpt lat="42.0822707" lon="13.5414514"><ele>746.0</ele><time>2026-05-02T13:56:01.311Z</time></trkpt><trkpt lat="42.0823358" lon="13.5414368"><ele>746.0</ele><time>2026-05-02T13:56:05.307Z</time></trkpt><trkpt lat="42.0823932" lon="13.5413779"><ele>746.0</ele><time>2026-05-02T14:19:51.291Z</time></trkpt><trkpt lat="42.0823423" lon="13.5412886"><ele>746.0</ele><time>2026-05-02T14:19:53.285Z</time></trkpt><trkpt lat="42.0822654" lon="13.5412566"><ele>746.0</ele><time>2026-05-02T14:19:56.301Z</time></trkpt><trkpt lat="42.0822061" lon="13.5413082"><ele>746.0</ele><time>2026-05-02T14:21:37.311Z</time></trkpt><trkpt lat="42.0821578" lon="13.5413812"><ele>746.0</ele><time>2026-05-02T14:21:41.31Z</time></trkpt><trkpt lat="42.0821078" lon="13.541445"><ele>746.0</ele><time>2026-05-02T14:22:07.309Z</time></trkpt><trkpt lat="42.0820845" lon="13.5415367"><ele>746.0</ele><time>2026-05-02T14:22:10.295Z</time></trkpt><trkpt lat="42.0820986" lon="13.5416422"><ele>746.0</ele><time>2026-05-02T14:22:12.295Z</time></trkpt><trkpt lat="42.0821137" lon="13.5417375"><ele>746.0</ele><time>2026-05-02T14:22:14.297Z</time></trkpt><trkpt lat="42.0821562" lon="13.5418444"><ele>746.0</ele><time>2026-05-02T14:23:16.302Z</time></trkpt><trkpt lat="42.0822411" lon="13.5420071"><ele>746.0</ele><time>2026-05-02T14:23:18.288Z</time></trkpt><trkpt lat="42.0822832" lon="13.5421235"><ele>746.0</ele><time>2026-05-02T14:23:19.299Z</time></trkpt><trkpt lat="42.0823139" lon="13.5422187"><ele>746.0</ele><time>2026-05-02T14:23:20.294Z</time></trkpt><trkpt lat="42.0823495" lon="13.5422969"><ele>746.1666666666666</ele><time>2026-05-02T14:23:21.293Z</time></trkpt><trkpt lat="42.0823831" lon="13.5423808"><ele>746.3333333333333</ele><time>2026-05-02T14:23:22.297Z</time></trkpt><trkpt lat="42.0824299" lon="13.542487"><ele>746.5</ele><time>2026-05-02T14:23:24.296Z</time></trkpt><trkpt lat="42.0824724" lon="13.5425688"><ele>746.6666666666666</ele><time>2026-05-02T14:23:26.3Z</time></trkpt><trkpt lat="42.0824941" lon="13.5426526"><ele>746.8333333333334</ele><time>2026-05-02T14:23:28.302Z</time></trkpt><trkpt lat="42.0824337" lon="13.5427357"><ele>747.0</ele><time>2026-05-02T14:23:30.293Z</time></trkpt><trkpt lat="42.0823844" lon="13.5428095"><ele>747.5714285714286</ele><time>2026-05-02T14:23:31.293Z</time></trkpt><trkpt lat="42.0823473" lon="13.5428945"><ele>748.1428571428571</ele><time>2026-05-02T14:23:32.296Z</time></trkpt><trkpt lat="42.0823215" lon="13.5429947"><ele>748.7142857142858</ele><time>2026-05-02T14:23:33.284Z</time></trkpt><trkpt lat="42.0822996" lon="13.5430791"><ele>749.2857142857142</ele><time>2026-05-02T14:23:34.294Z</time></trkpt><trkpt lat="42.0822778" lon="13.5432011"><ele>749.8571428571429</ele><time>2026-05-02T14:23:36.287Z</time></trkpt><trkpt lat="42.0822899" lon="13.5432899"><ele>750.4285714285714</ele><time>2026-05-02T14:23:38.298Z</time></trkpt><trkpt lat="42.0823174" lon="13.5433721"><ele>751.0</ele><time>2026-05-02T14:23:40.295Z</time></trkpt><trkpt lat="42.0824065" lon="13.5433262"><ele>753.0</ele><time>2026-05-02T14:23:43.301Z</time></trkpt><trkpt lat="42.0824767" lon="13.5431838"><ele>755.0</ele><time>2026-05-02T14:23:45.287Z</time></trkpt><trkpt lat="42.0825178" lon="13.5431054"><ele>757.0</ele><time>2026-05-02T14:23:46.285Z</time></trkpt><trkpt lat="42.0825599" lon="13.543037"><ele>759.0</ele><time>2026-05-02T14:23:47.288Z</time></trkpt><trkpt lat="42.0826629" lon="13.542952"><ele>761.0</ele><time>2026-05-02T14:23:49.285Z</time></trkpt><trkpt lat="42.0827741" lon="13.542951"><ele>761.0</ele><time>2026-05-02T14:23:51.291Z</time></trkpt><trkpt lat="42.0828387" lon="13.5429666"><ele>761.0</ele><time>2026-05-02T14:23:52.286Z</time></trkpt><trkpt lat="42.082908" lon="13.542998"><ele>761.0</ele><time>2026-05-02T14:23:53.29Z</time></trkpt><trkpt lat="42.0829975" lon="13.5430178"><ele>761.0</ele><time>2026-05-02T14:23:54.29Z</time></trkpt><trkpt lat="42.0830945" lon="13.5430314"><ele>761.0</ele><time>2026-05-02T14:23:55.288Z</time></trkpt><trkpt lat="42.0831883" lon="13.5430364"><ele>761.0</ele><time>2026-05-02T14:23:56.286Z</time></trkpt><trkpt lat="42.0832831" lon="13.5430452"><ele>763.6666666666666</ele><time>2026-05-02T14:23:57.289Z</time></trkpt><trkpt lat="42.0833727" lon="13.543062"><ele>766.3333333333333</ele><time>2026-05-02T14:23:58.29Z</time></trkpt><trkpt lat="42.0834559" lon="13.543083"><ele>769.0</ele><time>2026-05-02T14:23:59.29Z</time></trkpt><trkpt lat="42.0835375" lon="13.5430917"><ele>771.6666666666666</ele><time>2026-05-02T14:24:00.29Z</time></trkpt><trkpt lat="42.0836161" lon="13.5430877"><ele>774.3333333333334</ele><time>2026-05-02T14:24:01.283Z</time></trkpt><trkpt lat="42.083692" lon="13.5430803"><ele>777.0</ele><time>2026-05-02T14:24:02.277Z</time></trkpt><trkpt lat="42.083766" lon="13.543074"><ele>777.0</ele><time>2026-05-02T14:24:03.279Z</time></trkpt><trkpt lat="42.0838403" lon="13.5430616"><ele>777.0</ele><time>2026-05-02T14:24:04.281Z</time></trkpt><trkpt lat="42.0839139" lon="13.543037"><ele>777.0</ele><time>2026-05-02T14:24:05.284Z</time></trkpt><trkpt lat="42.0839889" lon="13.5430082"><ele>777.0</ele><time>2026-05-02T14:24:06.285Z</time></trkpt><trkpt lat="42.0840618" lon="13.5429708"><ele>777.0</ele><time>2026-05-02T14:24:07.28Z</time></trkpt><trkpt lat="42.0841301" lon="13.5429543"><ele>777.0</ele><time>2026-05-02T14:24:08.287Z</time></trkpt><trkpt lat="42.0842039" lon="13.5429403"><ele>778.5</ele><time>2026-05-02T14:24:09.285Z</time></trkpt><trkpt lat="42.0842771" lon="13.5429307"><ele>780.0</ele><time>2026-05-02T14:24:10.29Z</time></trkpt><trkpt lat="42.084351" lon="13.5429329"><ele>781.5</ele><time>2026-05-02T14:24:11.285Z</time></trkpt><trkpt lat="42.0844257" lon="13.5429375"><ele>783.0</ele><time>2026-05-02T14:24:12.287Z</time></trkpt><trkpt lat="42.0845014" lon="13.5429433"><ele>784.5</ele><time>2026-05-02T14:24:13.281Z</time></trkpt><trkpt lat="42.0845761" lon="13.5429453"><ele>786.0</ele><time>2026-05-02T14:24:14.284Z</time></trkpt><trkpt lat="42.0846549" lon="13.5429458"><ele>786.0</ele><time>2026-05-02T14:24:15.289Z</time></trkpt><trkpt lat="42.084734" lon="13.5429536"><ele>786.0</ele><time>2026-05-02T14:24:16.29Z</time></trkpt><trkpt lat="42.0848121" lon="13.5429643"><ele>786.0</ele><time>2026-05-02T14:24:17.286Z</time></trkpt><trkpt lat="42.0848881" lon="13.5429769"><ele>786.0</ele><time>2026-05-02T14:24:18.289Z</time></trkpt><trkpt lat="42.0849655" lon="13.5429867"><ele>786.0</ele><time>2026-05-02T14:24:19.288Z</time></trkpt><trkpt lat="42.0850386" lon="13.5429979"><ele>786.0</ele><time>2026-05-02T14:24:20.295Z</time></trkpt><trkpt lat="42.0851094" lon="13.5429996"><ele>787.5</ele><time>2026-05-02T14:24:21.294Z</time></trkpt><trkpt lat="42.085173" lon="13.5430061"><ele>789.0</ele><time>2026-05-02T14:24:22.287Z</time></trkpt><trkpt lat="42.0852349" lon="13.5430314"><ele>790.5</ele><time>2026-05-02T14:24:23.286Z</time></trkpt><trkpt lat="42.0853242" lon="13.5430808"><ele>792.0</ele><time>2026-05-02T14:24:25.286Z</time></trkpt><trkpt lat="42.0853918" lon="13.5431088"><ele>793.5</ele><time>2026-05-02T14:24:33.295Z</time></trkpt><trkpt lat="42.085484" lon="13.5431679"><ele>795.0</ele><time>2026-05-02T14:24:35.3Z</time></trkpt><trkpt lat="42.085556" lon="13.54321"><ele>795.0</ele><time>2026-05-02T14:24:36.288Z</time></trkpt><trkpt lat="42.0856517" lon="13.5432511"><ele>795.0</ele><time>2026-05-02T14:24:37.286Z</time></trkpt><trkpt lat="42.0857424" lon="13.5432947"><ele>795.0</ele><time>2026-05-02T14:24:38.292Z</time></trkpt><trkpt lat="42.0858411" lon="13.5433427"><ele>795.0</ele><time>2026-05-02T14:24:39.285Z</time></trkpt><trkpt lat="42.085938" lon="13.5434125"><ele>795.0</ele><time>2026-05-02T14:24:40.29Z</time></trkpt><trkpt lat="42.0860407" lon="13.5434468"><ele>794.75</ele><time>2026-05-02T14:24:41.295Z</time></trkpt><trkpt lat="42.0861718" lon="13.5434722"><ele>794.5</ele><time>2026-05-02T14:24:42.305Z</time></trkpt><trkpt lat="42.086294" lon="13.5435115"><ele>794.25</ele><time>2026-05-02T14:24:43.3Z</time></trkpt><trkpt lat="42.0863958" lon="13.543546"><ele>794.0</ele><time>2026-05-02T14:24:44.301Z</time></trkpt><trkpt lat="42.0864954" lon="13.5435691"><ele>793.6</ele><time>2026-05-02T14:24:45.374Z</time></trkpt><trkpt lat="42.0865963" lon="13.5435866"><ele>793.2</ele><time>2026-05-02T14:24:46.376Z</time></trkpt><trkpt lat="42.086705" lon="13.5435962"><ele>792.8000000000001</ele><time>2026-05-02T14:24:47.374Z</time></trkpt><trkpt lat="42.0868101" lon="13.5435963"><ele>792.4000000000001</ele><time>2026-05-02T14:24:48.374Z</time></trkpt><trkpt lat="42.0869065" lon="13.5435802"><ele>792.0</ele><time>2026-05-02T14:24:49.371Z</time></trkpt><trkpt lat="42.0869988" lon="13.543547"><ele>792.0</ele><time>2026-05-02T14:24:50.373Z</time></trkpt><trkpt lat="42.0870852" lon="13.5434884"><ele>792.0</ele><time>2026-05-02T14:24:51.355Z</time></trkpt><trkpt lat="42.0871756" lon="13.5434119"><ele>792.0</ele><time>2026-05-02T14:24:52.369Z</time></trkpt><trkpt lat="42.0872532" lon="13.5433249"><ele>792.0</ele><time>2026-05-02T14:24:53.361Z</time></trkpt><trkpt lat="42.0873205" lon="13.5432423"><ele>792.0</ele><time>2026-05-02T14:24:54.359Z</time></trkpt><trkpt lat="42.0873647" lon="13.5431786"><ele>792.0</ele><time>2026-05-02T14:24:55.37Z</time></trkpt><trkpt lat="42.0874113" lon="13.5431135"><ele>792.0</ele><time>2026-05-02T14:24:57.386Z</time></trkpt><trkpt lat="42.0874771" lon="13.5430174"><ele>792.0</ele><time>2026-05-02T14:24:59.375Z</time></trkpt><trkpt lat="42.0875205" lon="13.5429457"><ele>792.0</ele><time>2026-05-02T14:25:00.379Z</time></trkpt><trkpt lat="42.0875606" lon="13.5428772"><ele>792.0</ele><time>2026-05-02T14:25:01.382Z</time></trkpt><trkpt lat="42.0875686" lon="13.5427231"><ele>792.0</ele><time>2026-05-02T14:25:02.386Z</time></trkpt><trkpt lat="42.0876184" lon="13.5426606"><ele>792.0</ele><time>2026-05-02T14:25:05.396Z</time></trkpt><trkpt lat="42.0876672" lon="13.5425956"><ele>792.0</ele><time>2026-05-02T14:25:11.303Z</time></trkpt><trkpt lat="42.0877316" lon="13.5424961"><ele>792.0</ele><time>2026-05-02T14:25:13.297Z</time></trkpt><trkpt lat="42.0877829" lon="13.5424106"><ele>792.0</ele><time>2026-05-02T14:25:14.298Z</time></trkpt><trkpt lat="42.0878338" lon="13.5423245"><ele>792.0</ele><time>2026-05-02T14:25:15.297Z</time></trkpt><trkpt lat="42.0879057" lon="13.5422482"><ele>792.0</ele><time>2026-05-02T14:25:16.305Z</time></trkpt><trkpt lat="42.0879808" lon="13.5421759"><ele>792.0</ele><time>2026-05-02T14:25:17.302Z</time></trkpt><trkpt lat="42.088064" lon="13.5421108"><ele>792.0</ele><time>2026-05-02T14:25:18.295Z</time></trkpt><trkpt lat="42.0881576" lon="13.5420487"><ele>792.0</ele><time>2026-05-02T14:25:19.301Z</time></trkpt><trkpt lat="42.0882558" lon="13.5419855"><ele>792.0</ele><time>2026-05-02T14:25:20.303Z</time></trkpt><trkpt lat="42.0883587" lon="13.5419328"><ele>792.0</ele><time>2026-05-02T14:25:21.302Z</time></trkpt><trkpt lat="42.0884535" lon="13.541883"><ele>792.8</ele><time>2026-05-02T14:25:22.302Z</time></trkpt><trkpt lat="42.0885389" lon="13.5418332"><ele>793.6</ele><time>2026-05-02T14:25:23.3Z</time></trkpt><trkpt lat="42.0886254" lon="13.5417763"><ele>794.4</ele><time>2026-05-02T14:25:24.294Z</time></trkpt><trkpt lat="42.088686" lon="13.5417042"><ele>795.1999999999999</ele><time>2026-05-02T14:25:25.289Z</time></trkpt><trkpt lat="42.0887144" lon="13.5415825"><ele>796.0</ele><time>2026-05-02T14:25:26.294Z</time></trkpt><trkpt lat="42.0887353" lon="13.5414668"><ele>796.0</ele><time>2026-05-02T14:25:27.293Z</time></trkpt><trkpt lat="42.0887225" lon="13.541331"><ele>796.0</ele><time>2026-05-02T14:25:28.294Z</time></trkpt><trkpt lat="42.088692" lon="13.5411807"><ele>796.0</ele><time>2026-05-02T14:25:29.287Z</time></trkpt><trkpt lat="42.0886509" lon="13.541031"><ele>796.0</ele><time>2026-05-02T14:25:30.294Z</time></trkpt><trkpt lat="42.0885871" lon="13.5408924"><ele>795.75</ele><time>2026-05-02T14:25:31.29Z</time></trkpt><trkpt lat="42.0885055" lon="13.5407722"><ele>795.5</ele><time>2026-05-02T14:25:32.283Z</time></trkpt><trkpt lat="42.0884289" lon="13.5406512"><ele>795.25</ele><time>2026-05-02T14:25:33.275Z</time></trkpt><trkpt lat="42.0883694" lon="13.5405392"><ele>795.0</ele><time>2026-05-02T14:25:34.279Z</time></trkpt><trkpt lat="42.0883255" lon="13.5403985"><ele>794.75</ele><time>2026-05-02T14:25:35.284Z</time></trkpt><trkpt lat="42.0883005" lon="13.5402289"><ele>794.5</ele><time>2026-05-02T14:25:36.277Z</time></trkpt><trkpt lat="42.0882951" lon="13.5400562"><ele>794.25</ele><time>2026-05-02T14:25:37.274Z</time></trkpt><trkpt lat="42.0882952" lon="13.5398818"><ele>794.0</ele><time>2026-05-02T14:25:38.285Z</time></trkpt><trkpt lat="42.0882983" lon="13.5397135"><ele>794.0</ele><time>2026-05-02T14:25:39.281Z</time></trkpt><trkpt lat="42.0883004" lon="13.5395544"><ele>794.0</ele><time>2026-05-02T14:25:40.289Z</time></trkpt><trkpt lat="42.088315" lon="13.5394188"><ele>794.0</ele><time>2026-05-02T14:25:41.28Z</time></trkpt><trkpt lat="42.0883376" lon="13.5392865"><ele>794.0</ele><time>2026-05-02T14:25:42.287Z</time></trkpt><trkpt lat="42.0883479" lon="13.5391647"><ele>794.0</ele><time>2026-05-02T14:25:43.282Z</time></trkpt><trkpt lat="42.0883618" lon="13.5390523"><ele>794.0000000000001</ele><time>2026-05-02T14:25:44.276Z</time></trkpt><trkpt lat="42.0883583" lon="13.5389545"><ele>794.0</ele><time>2026-05-02T14:25:45.285Z</time></trkpt><trkpt lat="42.0883449" lon="13.5387936"><ele>794.0</ele><time>2026-05-02T14:25:47.282Z</time></trkpt><trkpt lat="42.0883256" lon="13.5386734"><ele>794.0</ele><time>2026-05-02T14:25:49.278Z</time></trkpt><trkpt lat="42.0883251" lon="13.538586"><ele>794.0000000000001</ele><time>2026-05-02T14:25:51.291Z</time></trkpt><trkpt lat="42.0884004" lon="13.5385306"><ele>794.0</ele><time>2026-05-02T14:25:53.286Z</time></trkpt><trkpt lat="42.0885208" lon="13.5384697"><ele>794.0000000000001</ele><time>2026-05-02T14:25:55.275Z</time></trkpt><trkpt lat="42.0885969" lon="13.5384305"><ele>794.0</ele><time>2026-05-02T14:25:56.286Z</time></trkpt><trkpt lat="42.0886791" lon="13.5384027"><ele>794.0</ele><time>2026-05-02T14:25:57.281Z</time></trkpt><trkpt lat="42.0887667" lon="13.5383776"><ele>794.0</ele><time>2026-05-02T14:25:58.282Z</time></trkpt><trkpt lat="42.0888411" lon="13.5383484"><ele>794.0000000000001</ele><time>2026-05-02T14:25:59.275Z</time></trkpt><trkpt lat="42.0889078" lon="13.5383025"><ele>794.0</ele><time>2026-05-02T14:26:00.283Z</time></trkpt><trkpt lat="42.0889553" lon="13.5382405"><ele>794.0</ele><time>2026-05-02T14:26:01.277Z</time></trkpt><trkpt lat="42.0889929" lon="13.5381493"><ele>794.0</ele><time>2026-05-02T14:26:02.278Z</time></trkpt><trkpt lat="42.0890281" lon="13.5380459"><ele>794.0</ele><time>2026-05-02T14:26:03.279Z</time></trkpt><trkpt lat="42.0890731" lon="13.5379404"><ele>794.0</ele><time>2026-05-02T14:26:04.286Z</time></trkpt><trkpt lat="42.089117" lon="13.5378228"><ele>794.0</ele><time>2026-05-02T14:26:05.29Z</time></trkpt><trkpt lat="42.0891723" lon="13.5377044"><ele>795.8000000000001</ele><time>2026-05-02T14:26:06.285Z</time></trkpt><trkpt lat="42.0892402" lon="13.5375962"><ele>797.6</ele><time>2026-05-02T14:26:07.284Z</time></trkpt><trkpt lat="42.089318" lon="13.5375071"><ele>799.4</ele><time>2026-05-02T14:26:08.293Z</time></trkpt><trkpt lat="42.0894035" lon="13.5374112"><ele>801.2</ele><time>2026-05-02T14:26:09.286Z</time></trkpt><trkpt lat="42.0895011" lon="13.5373225"><ele>803.0</ele><time>2026-05-02T14:26:10.288Z</time></trkpt><trkpt lat="42.0895992" lon="13.5372312"><ele>803.0</ele><time>2026-05-02T14:26:11.287Z</time></trkpt><trkpt lat="42.0896888" lon="13.5371233"><ele>803.0</ele><time>2026-05-02T14:26:12.289Z</time></trkpt><trkpt lat="42.0897754" lon="13.5370203"><ele>803.0</ele><time>2026-05-02T14:26:13.291Z</time></trkpt><trkpt lat="42.0898638" lon="13.5369236"><ele>803.0</ele><time>2026-05-02T14:26:14.302Z</time></trkpt><trkpt lat="42.0899457" lon="13.5368204"><ele>804.5000000000001</ele><time>2026-05-02T14:26:15.289Z</time></trkpt><trkpt lat="42.0900174" lon="13.5367157"><ele>806.0</ele><time>2026-05-02T14:26:16.298Z</time></trkpt><trkpt lat="42.0900866" lon="13.5366271"><ele>807.5</ele><time>2026-05-02T14:26:17.291Z</time></trkpt><trkpt lat="42.0901431" lon="13.5365477"><ele>809.0</ele><time>2026-05-02T14:26:18.299Z</time></trkpt><trkpt lat="42.0901964" lon="13.536484"><ele>810.5000000000001</ele><time>2026-05-02T14:26:19.303Z</time></trkpt><trkpt lat="42.0902475" lon="13.5364313"><ele>812.0</ele><time>2026-05-02T14:26:20.299Z</time></trkpt><trkpt lat="42.0903158" lon="13.536316"><ele>811.2</ele><time>2026-05-02T14:26:22.295Z</time></trkpt><trkpt lat="42.0903196" lon="13.5361482"><ele>810.4000000000001</ele><time>2026-05-02T14:26:24.292Z</time></trkpt><trkpt lat="42.0903052" lon="13.5360372"><ele>809.5999999999999</ele><time>2026-05-02T14:26:25.291Z</time></trkpt><trkpt lat="42.0902776" lon="13.535923"><ele>808.8</ele><time>2026-05-02T14:26:26.294Z</time></trkpt><trkpt lat="42.090247" lon="13.5358112"><ele>808.0</ele><time>2026-05-02T14:26:27.293Z</time></trkpt><trkpt lat="42.0902262" lon="13.5357068"><ele>807.9999999999999</ele><time>2026-05-02T14:26:28.294Z</time></trkpt><trkpt lat="42.0902119" lon="13.5355947"><ele>808.0</ele><time>2026-05-02T14:26:29.288Z</time></trkpt><trkpt lat="42.0901985" lon="13.5354887"><ele>808.0</ele><time>2026-05-02T14:26:30.29Z</time></trkpt><trkpt lat="42.0901979" lon="13.5353782"><ele>808.0</ele><time>2026-05-02T14:26:31.287Z</time></trkpt><trkpt lat="42.0902093" lon="13.5352664"><ele>807.9999999999999</ele><time>2026-05-02T14:26:32.277Z</time></trkpt><trkpt lat="42.0902213" lon="13.5351502"><ele>808.0</ele><time>2026-05-02T14:26:33.294Z</time></trkpt><trkpt lat="42.0902382" lon="13.5350284"><ele>808.0</ele><time>2026-05-02T14:26:34.288Z</time></trkpt><trkpt lat="42.0902567" lon="13.5349179"><ele>808.0</ele><time>2026-05-02T14:26:35.289Z</time></trkpt><trkpt lat="42.0902719" lon="13.5348081"><ele>808.0</ele><time>2026-05-02T14:26:36.285Z</time></trkpt><trkpt lat="42.0902839" lon="13.5346844"><ele>808.0</ele><time>2026-05-02T14:26:37.284Z</time></trkpt><trkpt lat="42.0903205" lon="13.5345457"><ele>808.0</ele><time>2026-05-02T14:26:38.288Z</time></trkpt><trkpt lat="42.0903777" lon="13.5344105"><ele>808.0</ele><time>2026-05-02T14:26:39.283Z</time></trkpt><trkpt lat="42.0904573" lon="13.5342754"><ele>808.0</ele><time>2026-05-02T14:26:40.285Z</time></trkpt><trkpt lat="42.0905391" lon="13.5341481"><ele>808.0</ele><time>2026-05-02T14:26:41.286Z</time></trkpt><trkpt lat="42.0906323" lon="13.5340173"><ele>808.0</ele><time>2026-05-02T14:26:42.288Z</time></trkpt><trkpt lat="42.0907222" lon="13.5338707"><ele>809.5</ele><time>2026-05-02T14:26:43.287Z</time></trkpt><trkpt lat="42.0908061" lon="13.5337234"><ele>811.0</ele><time>2026-05-02T14:26:44.294Z</time></trkpt><trkpt lat="42.0908917" lon="13.5335707"><ele>812.5</ele><time>2026-05-02T14:26:45.292Z</time></trkpt><trkpt lat="42.0909833" lon="13.5334067"><ele>814.0</ele><time>2026-05-02T14:26:46.286Z</time></trkpt><trkpt lat="42.0910571" lon="13.5332503"><ele>814.0</ele><time>2026-05-02T14:26:47.303Z</time></trkpt><trkpt lat="42.0911225" lon="13.533093"><ele>814.0</ele><time>2026-05-02T14:26:48.293Z</time></trkpt><trkpt lat="42.0911868" lon="13.5329549"><ele>814.0</ele><time>2026-05-02T14:26:49.289Z</time></trkpt><trkpt lat="42.0912501" lon="13.532824"><ele>814.0</ele><time>2026-05-02T14:26:50.287Z</time></trkpt><trkpt lat="42.0913421" lon="13.5326993"><ele>814.25</ele><time>2026-05-02T14:26:51.283Z</time></trkpt><trkpt lat="42.0914428" lon="13.5325849"><ele>814.5</ele><time>2026-05-02T14:26:52.29Z</time></trkpt><trkpt lat="42.0915558" lon="13.532467"><ele>814.75</ele><time>2026-05-02T14:26:53.292Z</time></trkpt><trkpt lat="42.0916682" lon="13.5323367"><ele>815.0</ele><time>2026-05-02T14:26:54.294Z</time></trkpt><trkpt lat="42.0917626" lon="13.5321902"><ele>816.25</ele><time>2026-05-02T14:26:55.295Z</time></trkpt><trkpt lat="42.0918225" lon="13.5320387"><ele>817.5</ele><time>2026-05-02T14:26:56.297Z</time></trkpt><trkpt lat="42.0918899" lon="13.5318759"><ele>818.75</ele><time>2026-05-02T14:26:57.295Z</time></trkpt><trkpt lat="42.0919396" lon="13.5317154"><ele>820.0</ele><time>2026-05-02T14:26:58.291Z</time></trkpt><trkpt lat="42.0919812" lon="13.531572"><ele>820.0</ele><time>2026-05-02T14:26:59.284Z</time></trkpt><trkpt lat="42.0920102" lon="13.5314323"><ele>820.0</ele><time>2026-05-02T14:27:00.318Z</time></trkpt><trkpt lat="42.0920437" lon="13.5312866"><ele>820.0</ele><time>2026-05-02T14:27:01.378Z</time></trkpt><trkpt lat="42.0920776" lon="13.5311291"><ele>820.0</ele><time>2026-05-02T14:27:02.378Z</time></trkpt><trkpt lat="42.0921162" lon="13.5309617"><ele>819.5</ele><time>2026-05-02T14:27:03.38Z</time></trkpt><trkpt lat="42.0921581" lon="13.5307817"><ele>819.0</ele><time>2026-05-02T14:27:04.379Z</time></trkpt><trkpt lat="42.0922027" lon="13.5305987"><ele>818.5</ele><time>2026-05-02T14:27:05.385Z</time></trkpt><trkpt lat="42.09225" lon="13.5304163"><ele>818.0</ele><time>2026-05-02T14:27:06.375Z</time></trkpt><trkpt lat="42.0923052" lon="13.5302423"><ele>817.75</ele><time>2026-05-02T14:27:07.381Z</time></trkpt><trkpt lat="42.0923884" lon="13.5300904"><ele>817.5</ele><time>2026-05-02T14:27:08.38Z</time></trkpt><trkpt lat="42.0924595" lon="13.5299145"><ele>817.25</ele><time>2026-05-02T14:27:09.384Z</time></trkpt><trkpt lat="42.0925275" lon="13.5297394"><ele>817.0</ele><time>2026-05-02T14:27:10.362Z</time></trkpt><trkpt lat="42.0925909" lon="13.5295622"><ele>819.0</ele><time>2026-05-02T14:27:11.366Z</time></trkpt><trkpt lat="42.0926582" lon="13.5293918"><ele>821.0</ele><time>2026-05-02T14:27:12.365Z</time></trkpt><trkpt lat="42.0927193" lon="13.5292245"><ele>823.0</ele><time>2026-05-02T14:27:13.373Z</time></trkpt><trkpt lat="42.0927805" lon="13.5290528"><ele>825.0</ele><time>2026-05-02T14:27:14.388Z</time></trkpt><trkpt lat="42.092841" lon="13.5288851"><ele>824.0</ele><time>2026-05-02T14:27:15.389Z</time></trkpt><trkpt lat="42.092904" lon="13.5287183"><ele>823.0</ele><time>2026-05-02T14:27:16.386Z</time></trkpt><trkpt lat="42.0929647" lon="13.5285625"><ele>822.0</ele><time>2026-05-02T14:27:17.393Z</time></trkpt><trkpt lat="42.0930232" lon="13.5284217"><ele>821.0</ele><time>2026-05-02T14:27:18.378Z</time></trkpt><trkpt lat="42.0930765" lon="13.5283027"><ele>821.0</ele><time>2026-05-02T14:27:19.379Z</time></trkpt><trkpt lat="42.0931295" lon="13.5282057"><ele>821.0</ele><time>2026-05-02T14:27:20.381Z</time></trkpt><trkpt lat="42.0931885" lon="13.5281209"><ele>821.0</ele><time>2026-05-02T14:27:21.387Z</time></trkpt><trkpt lat="42.0932578" lon="13.5280334"><ele>821.0</ele><time>2026-05-02T14:27:22.366Z</time></trkpt><trkpt lat="42.0933374" lon="13.5279467"><ele>821.0</ele><time>2026-05-02T14:27:23.365Z</time></trkpt><trkpt lat="42.0934222" lon="13.5278567"><ele>822.1666666666667</ele><time>2026-05-02T14:27:24.367Z</time></trkpt><trkpt lat="42.0935132" lon="13.527769"><ele>823.3333333333334</ele><time>2026-05-02T14:27:25.366Z</time></trkpt><trkpt lat="42.0935945" lon="13.5276935"><ele>824.5</ele><time>2026-05-02T14:27:26.377Z</time></trkpt><trkpt lat="42.0936529" lon="13.5276412"><ele>825.6666666666667</ele><time>2026-05-02T14:27:27.372Z</time></trkpt><trkpt lat="42.0937159" lon="13.5276032"><ele>826.8333333333334</ele><time>2026-05-02T14:27:28.372Z</time></trkpt><trkpt lat="42.0937795" lon="13.5275492"><ele>828.0</ele><time>2026-05-02T14:27:30.385Z</time></trkpt><trkpt lat="42.0938453" lon="13.5274991"><ele>828.0</ele><time>2026-05-02T14:27:35.387Z</time></trkpt><trkpt lat="42.0937898" lon="13.5275605"><ele>828.0</ele><time>2026-05-02T14:27:45.385Z</time></trkpt><trkpt lat="42.0938102" lon="13.527464"><ele>828.0</ele><time>2026-05-02T14:27:47.395Z</time></trkpt><trkpt lat="42.0938871" lon="13.5272664"><ele>828.0</ele><time>2026-05-02T14:27:49.3Z</time></trkpt><trkpt lat="42.0938849" lon="13.5271624"><ele>828.0</ele><time>2026-05-02T14:27:51.305Z</time></trkpt><trkpt lat="42.0938822" lon="13.5270177"><ele>827.5999999999999</ele><time>2026-05-02T14:27:53.307Z</time></trkpt><trkpt lat="42.0938852" lon="13.5269312"><ele>827.1999999999999</ele><time>2026-05-02T14:27:54.295Z</time></trkpt><trkpt lat="42.0939208" lon="13.5267549"><ele>826.8</ele><time>2026-05-02T14:27:56.291Z</time></trkpt><trkpt lat="42.0939496" lon="13.5266446"><ele>826.4</ele><time>2026-05-02T14:27:57.291Z</time></trkpt><trkpt lat="42.0939793" lon="13.5265144"><ele>826.0</ele><time>2026-05-02T14:27:58.295Z</time></trkpt><trkpt lat="42.0940101" lon="13.5263938"><ele>825.9999999999999</ele><time>2026-05-02T14:27:59.294Z</time></trkpt><trkpt lat="42.0940225" lon="13.5262873"><ele>826.0</ele><time>2026-05-02T14:28:00.299Z</time></trkpt><trkpt lat="42.0940315" lon="13.5261674"><ele>826.0</ele><time>2026-05-02T14:28:01.299Z</time></trkpt><trkpt lat="42.0940475" lon="13.526065"><ele>826.0</ele><time>2026-05-02T14:28:02.296Z</time></trkpt><trkpt lat="42.0940641" lon="13.5259703"><ele>825.9999999999999</ele><time>2026-05-02T14:28:03.288Z</time></trkpt><trkpt lat="42.0940836" lon="13.5258744"><ele>826.0</ele><time>2026-05-02T14:28:04.294Z</time></trkpt><trkpt lat="42.094126" lon="13.5257742"><ele>827.0</ele><time>2026-05-02T14:28:05.288Z</time></trkpt><trkpt lat="42.0941699" lon="13.5256778"><ele>828.0</ele><time>2026-05-02T14:28:06.293Z</time></trkpt><trkpt lat="42.0941997" lon="13.5255918"><ele>829.0</ele><time>2026-05-02T14:28:07.288Z</time></trkpt><trkpt lat="42.0942156" lon="13.5254427"><ele>830.0</ele><time>2026-05-02T14:28:09.292Z</time></trkpt><trkpt lat="42.0942478" lon="13.5252773"><ele>831.0</ele><time>2026-05-02T14:28:11.292Z</time></trkpt><trkpt lat="42.0942929" lon="13.5251796"><ele>828.6666666666666</ele><time>2026-05-02T14:28:12.293Z</time></trkpt><trkpt lat="42.0943659" lon="13.5250986"><ele>826.3333333333333</ele><time>2026-05-02T14:28:13.296Z</time></trkpt><trkpt lat="42.094436" lon="13.5250334"><ele>824.0</ele><time>2026-05-02T14:28:14.294Z</time></trkpt><trkpt lat="42.0944994" lon="13.5249639"><ele>821.6666666666666</ele><time>2026-05-02T14:28:15.298Z</time></trkpt><trkpt lat="42.0945603" lon="13.5248935"><ele>819.3333333333333</ele><time>2026-05-02T14:28:16.3Z</time></trkpt><trkpt lat="42.0946196" lon="13.5248287"><ele>817.0</ele><time>2026-05-02T14:28:17.303Z</time></trkpt><trkpt lat="42.0946816" lon="13.5247674"><ele>817.0</ele><time>2026-05-02T14:28:18.306Z</time></trkpt><trkpt lat="42.0947474" lon="13.5246962"><ele>817.0</ele><time>2026-05-02T14:28:19.303Z</time></trkpt><trkpt lat="42.0948067" lon="13.5246271"><ele>817.0</ele><time>2026-05-02T14:28:20.303Z</time></trkpt><trkpt lat="42.0948507" lon="13.5245638"><ele>817.0</ele><time>2026-05-02T14:28:21.301Z</time></trkpt><trkpt lat="42.0949339" lon="13.5244599"><ele>817.0</ele><time>2026-05-02T14:28:23.289Z</time></trkpt><trkpt lat="42.0950504" lon="13.5243796"><ele>817.8</ele><time>2026-05-02T14:28:25.278Z</time></trkpt><trkpt lat="42.0951206" lon="13.5243193"><ele>818.6</ele><time>2026-05-02T14:28:26.286Z</time></trkpt><trkpt lat="42.0951926" lon="13.5242545"><ele>819.4</ele><time>2026-05-02T14:28:27.291Z</time></trkpt><trkpt lat="42.0952681" lon="13.5241769"><ele>820.1999999999999</ele><time>2026-05-02T14:28:28.29Z</time></trkpt><trkpt lat="42.0953529" lon="13.524098"><ele>821.0</ele><time>2026-05-02T14:28:29.291Z</time></trkpt><trkpt lat="42.0954226" lon="13.524022"><ele>821.0</ele><time>2026-05-02T14:28:30.291Z</time></trkpt><trkpt lat="42.0955042" lon="13.5239323"><ele>821.0</ele><time>2026-05-02T14:28:31.287Z</time></trkpt><trkpt lat="42.0955876" lon="13.5238554"><ele>821.0</ele><time>2026-05-02T14:28:32.289Z</time></trkpt><trkpt lat="42.0956488" lon="13.5238044"><ele>821.0</ele><time>2026-05-02T14:28:33.277Z</time></trkpt><trkpt lat="42.0957331" lon="13.5236802"><ele>821.0</ele><time>2026-05-02T14:28:35.28Z</time></trkpt><trkpt lat="42.0957642" lon="13.5235936"><ele>822.3333333333334</ele><time>2026-05-02T14:28:36.273Z</time></trkpt><trkpt lat="42.095786" lon="13.5234822"><ele>823.6666666666667</ele><time>2026-05-02T14:28:37.283Z</time></trkpt><trkpt lat="42.0958101" lon="13.523375"><ele>825.0</ele><time>2026-05-02T14:28:38.28Z</time></trkpt><trkpt lat="42.0958274" lon="13.523271"><ele>826.3333333333333</ele><time>2026-05-02T14:28:39.278Z</time></trkpt><trkpt lat="42.0958476" lon="13.5231877"><ele>827.6666666666666</ele><time>2026-05-02T14:28:40.274Z</time></trkpt><trkpt lat="42.0959066" lon="13.523024"><ele>829.0</ele><time>2026-05-02T14:28:42.274Z</time></trkpt><trkpt lat="42.095954" lon="13.5229191"><ele>829.8000000000001</ele><time>2026-05-02T14:28:43.271Z</time></trkpt><trkpt lat="42.0959958" lon="13.5228149"><ele>830.6</ele><time>2026-05-02T14:28:44.272Z</time></trkpt><trkpt lat="42.0960276" lon="13.5227245"><ele>831.4</ele><time>2026-05-02T14:28:45.268Z</time></trkpt><trkpt lat="42.0960525" lon="13.5226331"><ele>832.2</ele><time>2026-05-02T14:28:46.267Z</time></trkpt><trkpt lat="42.0961118" lon="13.5224823"><ele>833.0</ele><time>2026-05-02T14:28:48.275Z</time></trkpt><trkpt lat="42.0961633" lon="13.5223382"><ele>833.0</ele><time>2026-05-02T14:28:50.264Z</time></trkpt><trkpt lat="42.096192" lon="13.522256"><ele>833.0</ele><time>2026-05-02T14:28:51.262Z</time></trkpt><trkpt lat="42.0962302" lon="13.5221778"><ele>833.0</ele><time>2026-05-02T14:28:52.265Z</time></trkpt><trkpt lat="42.0962979" lon="13.5220597"><ele>833.0</ele><time>2026-05-02T14:28:54.266Z</time></trkpt><trkpt lat="42.0963747" lon="13.5219293"><ele>833.0</ele><time>2026-05-02T14:28:56.278Z</time></trkpt><trkpt lat="42.0964604" lon="13.5218762"><ele>833.3333333333334</ele><time>2026-05-02T14:28:58.282Z</time></trkpt><trkpt lat="42.0965359" lon="13.5218597"><ele>833.6666666666667</ele><time>2026-05-02T14:29:00.293Z</time></trkpt><trkpt lat="42.0966485" lon="13.5218471"><ele>834.0</ele><time>2026-05-02T14:29:02.281Z</time></trkpt><trkpt lat="42.0967201" lon="13.5218415"><ele>834.3333333333333</ele><time>2026-05-02T14:29:04.281Z</time></trkpt><trkpt lat="42.0967938" lon="13.5218177"><ele>834.6666666666666</ele><time>2026-05-02T14:29:07.281Z</time></trkpt><trkpt lat="42.0967115" lon="13.5218253"><ele>835.0</ele><time>2026-05-02T14:29:29.293Z</time></trkpt><trkpt lat="42.0966386" lon="13.5218185"><ele>834.9999999999999</ele><time>2026-05-02T14:29:32.293Z</time></trkpt><trkpt lat="42.0965607" lon="13.5218365"><ele>835.0</ele><time>2026-05-02T14:29:35.292Z</time></trkpt><trkpt lat="42.0964885" lon="13.5218519"><ele>835.0</ele><time>2026-05-02T14:29:38.295Z</time></trkpt><trkpt lat="42.0964071" lon="13.52185"><ele>835.0</ele><time>2026-05-02T14:29:44.298Z</time></trkpt><trkpt lat="42.0963279" lon="13.5218427"><ele>834.9999999999999</ele><time>2026-05-02T14:30:18.293Z</time></trkpt><trkpt lat="42.0962795" lon="13.5217694"><ele>835.0</ele><time>2026-05-02T14:30:21.296Z</time></trkpt><trkpt lat="42.0962995" lon="13.5216635"><ele>835.0</ele><time>2026-05-02T14:30:25.296Z</time></trkpt><trkpt lat="42.0963322" lon="13.521575"><ele>835.0</ele><time>2026-05-02T14:30:27.286Z</time></trkpt><trkpt lat="42.0963527" lon="13.5214469"><ele>835.0</ele><time>2026-05-02T14:30:29.294Z</time></trkpt><trkpt lat="42.0963644" lon="13.5213447"><ele>835.0</ele><time>2026-05-02T14:31:43.303Z</time></trkpt><trkpt lat="42.0964118" lon="13.5212244"><ele>835.0</ele><time>2026-05-02T14:31:53.305Z</time></trkpt><trkpt lat="42.0964605" lon="13.5211004"><ele>834.8333333333333</ele><time>2026-05-02T14:31:55.298Z</time></trkpt><trkpt lat="42.0964921" lon="13.521023"><ele>834.6666666666666</ele><time>2026-05-02T14:31:56.292Z</time></trkpt><trkpt lat="42.0965681" lon="13.5209096"><ele>834.5</ele><time>2026-05-02T14:31:58.293Z</time></trkpt><trkpt lat="42.0966184" lon="13.5208392"><ele>834.3333333333333</ele><time>2026-05-02T14:31:59.29Z</time></trkpt><trkpt lat="42.0966724" lon="13.5207601"><ele>834.1666666666666</ele><time>2026-05-02T14:32:00.293Z</time></trkpt><trkpt lat="42.0967178" lon="13.5206806"><ele>834.0</ele><time>2026-05-02T14:32:01.284Z</time></trkpt><trkpt lat="42.0967734" lon="13.5205899"><ele>835.3333333333334</ele><time>2026-05-02T14:32:02.289Z</time></trkpt><trkpt lat="42.0968163" lon="13.5205189"><ele>836.6666666666667</ele><time>2026-05-02T14:32:03.282Z</time></trkpt><trkpt lat="42.0968856" lon="13.520401"><ele>838.0</ele><time>2026-05-02T14:32:05.292Z</time></trkpt><trkpt lat="42.0969335" lon="13.5203367"><ele>839.3333333333334</ele><time>2026-05-02T14:32:07.295Z</time></trkpt><trkpt lat="42.0969816" lon="13.5202475"><ele>840.6666666666667</ele><time>2026-05-02T14:32:21.299Z</time></trkpt><trkpt lat="42.0970479" lon="13.5201756"><ele>842.0</ele><time>2026-05-02T14:32:23.301Z</time></trkpt><trkpt lat="42.0971043" lon="13.5201331"><ele>842.0000000000001</ele><time>2026-05-02T14:32:24.289Z</time></trkpt><trkpt lat="42.0971659" lon="13.5201061"><ele>842.0</ele><time>2026-05-02T14:32:25.287Z</time></trkpt><trkpt lat="42.0972852" lon="13.5200581"><ele>842.0</ele><time>2026-05-02T14:32:27.293Z</time></trkpt><trkpt lat="42.0973501" lon="13.5200453"><ele>842.0</ele><time>2026-05-02T14:32:28.292Z</time></trkpt><trkpt lat="42.0974329" lon="13.5199909"><ele>842.0000000000001</ele><time>2026-05-02T14:32:30.293Z</time></trkpt><trkpt lat="42.0974304" lon="13.5199008"><ele>842.0</ele><time>2026-05-02T14:32:32.293Z</time></trkpt><trkpt lat="42.0973928" lon="13.5197921"><ele>842.0</ele><time>2026-05-02T14:32:34.293Z</time></trkpt><trkpt lat="42.0973235" lon="13.5196372"><ele>842.0</ele><time>2026-05-02T14:32:37.287Z</time></trkpt><trkpt lat="42.0973242" lon="13.5194908"><ele>842.0</ele><time>2026-05-02T14:32:39.29Z</time></trkpt><trkpt lat="42.097322" lon="13.5193865"><ele>842.0</ele><time>2026-05-02T14:32:41.286Z</time></trkpt><trkpt lat="42.0972671" lon="13.5192796"><ele>842.0</ele><time>2026-05-02T14:32:45.291Z</time></trkpt><trkpt lat="42.0972155" lon="13.5191724"><ele>844.6</ele><time>2026-05-02T14:32:48.305Z</time></trkpt><trkpt lat="42.0971971" lon="13.5190563"><ele>847.2</ele><time>2026-05-02T14:32:50.303Z</time></trkpt><trkpt lat="42.0971906" lon="13.5189091"><ele>849.8</ele><time>2026-05-02T14:32:52.306Z</time></trkpt><trkpt lat="42.0972339" lon="13.5187449"><ele>852.4</ele><time>2026-05-02T14:32:54.299Z</time></trkpt><trkpt lat="42.0972707" lon="13.5186547"><ele>855.0</ele><time>2026-05-02T14:32:55.304Z</time></trkpt><trkpt lat="42.0973088" lon="13.518552"><ele>857.8</ele><time>2026-05-02T14:32:56.299Z</time></trkpt><trkpt lat="42.0973516" lon="13.5184389"><ele>860.6</ele><time>2026-05-02T14:32:57.299Z</time></trkpt><trkpt lat="42.0973926" lon="13.5183252"><ele>863.4000000000001</ele><time>2026-05-02T14:32:58.37Z</time></trkpt><trkpt lat="42.0974384" lon="13.518207"><ele>866.2</ele><time>2026-05-02T14:32:59.377Z</time></trkpt><trkpt lat="42.0974891" lon="13.5180869"><ele>869.0</ele><time>2026-05-02T14:33:00.383Z</time></trkpt><trkpt lat="42.0975388" lon="13.5179784"><ele>870.4000000000001</ele><time>2026-05-02T14:33:01.379Z</time></trkpt><trkpt lat="42.0975912" lon="13.517858"><ele>871.8000000000001</ele><time>2026-05-02T14:33:02.377Z</time></trkpt><trkpt lat="42.0976435" lon="13.5177406"><ele>873.1999999999999</ele><time>2026-05-02T14:33:03.378Z</time></trkpt><trkpt lat="42.097712" lon="13.5176187"><ele>874.5999999999999</ele><time>2026-05-02T14:33:04.371Z</time></trkpt><trkpt lat="42.0977713" lon="13.5174807"><ele>876.0</ele><time>2026-05-02T14:33:05.376Z</time></trkpt><trkpt lat="42.0978231" lon="13.5173544"><ele>876.0</ele><time>2026-05-02T14:33:06.383Z</time></trkpt><trkpt lat="42.097859" lon="13.5172501"><ele>876.0</ele><time>2026-05-02T14:33:07.373Z</time></trkpt><trkpt lat="42.0978922" lon="13.5171403"><ele>876.0</ele><time>2026-05-02T14:33:08.378Z</time></trkpt><trkpt lat="42.0979482" lon="13.517083"><ele>876.0</ele><time>2026-05-02T14:33:09.293Z</time></trkpt><trkpt lat="42.0979762" lon="13.5169921"><ele>876.0</ele><time>2026-05-02T14:33:10.295Z</time></trkpt><trkpt lat="42.097999" lon="13.5168941"><ele>876.0</ele><time>2026-05-02T14:33:11.292Z</time></trkpt><trkpt lat="42.0980128" lon="13.5167905"><ele>876.0</ele><time>2026-05-02T14:33:12.294Z</time></trkpt><trkpt lat="42.0980267" lon="13.5166885"><ele>876.0</ele><time>2026-05-02T14:33:13.293Z</time></trkpt><trkpt lat="42.0980452" lon="13.5165811"><ele>876.0</ele><time>2026-05-02T14:33:14.295Z</time></trkpt><trkpt lat="42.0980662" lon="13.5164842"><ele>876.0</ele><time>2026-05-02T14:33:15.29Z</time></trkpt><trkpt lat="42.0980891" lon="13.5163753"><ele>876.0</ele><time>2026-05-02T14:33:16.296Z</time></trkpt><trkpt lat="42.098108" lon="13.5162633"><ele>876.0</ele><time>2026-05-02T14:33:17.296Z</time></trkpt><trkpt lat="42.0981306" lon="13.5161503"><ele>877.3333333333334</ele><time>2026-05-02T14:33:18.295Z</time></trkpt><trkpt lat="42.098156" lon="13.5160379"><ele>878.6666666666667</ele><time>2026-05-02T14:33:19.295Z</time></trkpt><trkpt lat="42.098194" lon="13.5159182"><ele>880.0</ele><time>2026-05-02T14:33:20.291Z</time></trkpt><trkpt lat="42.0982349" lon="13.5158299"><ele>881.3333333333334</ele><time>2026-05-02T14:33:21.288Z</time></trkpt><trkpt lat="42.0982924" lon="13.5157489"><ele>882.6666666666667</ele><time>2026-05-02T14:33:22.29Z</time></trkpt><trkpt lat="42.0983633" lon="13.5156645"><ele>884.0</ele><time>2026-05-02T14:33:23.295Z</time></trkpt><trkpt lat="42.09843" lon="13.5155717"><ele>886.6666666666667</ele><time>2026-05-02T14:33:24.291Z</time></trkpt><trkpt lat="42.0984864" lon="13.5154875"><ele>889.3333333333334</ele><time>2026-05-02T14:33:25.293Z</time></trkpt><trkpt lat="42.0985351" lon="13.5153945"><ele>892.0</ele><time>2026-05-02T14:33:26.303Z</time></trkpt><trkpt lat="42.0985695" lon="13.5153059"><ele>894.6666666666667</ele><time>2026-05-02T14:33:27.297Z</time></trkpt><trkpt lat="42.0986178" lon="13.5152171"><ele>897.3333333333334</ele><time>2026-05-02T14:33:28.295Z</time></trkpt><trkpt lat="42.0986581" lon="13.5151319"><ele>900.0</ele><time>2026-05-02T14:33:29.294Z</time></trkpt><trkpt lat="42.0987065" lon="13.5150393"><ele>900.8333333333334</ele><time>2026-05-02T14:33:30.294Z</time></trkpt><trkpt lat="42.0987644" lon="13.5149373"><ele>901.6666666666667</ele><time>2026-05-02T14:33:31.292Z</time></trkpt><trkpt lat="42.0988121" lon="13.5148301"><ele>902.5</ele><time>2026-05-02T14:33:32.297Z</time></trkpt><trkpt lat="42.0988636" lon="13.51473"><ele>903.3333333333334</ele><time>2026-05-02T14:33:33.295Z</time></trkpt><trkpt lat="42.098902" lon="13.5146351"><ele>904.1666666666667</ele><time>2026-05-02T14:33:34.293Z</time></trkpt><trkpt lat="42.0989331" lon="13.5145319"><ele>905.0</ele><time>2026-05-02T14:33:35.294Z</time></trkpt><trkpt lat="42.098961" lon="13.5144456"><ele>905.8333333333334</ele><time>2026-05-02T14:33:36.293Z</time></trkpt><trkpt lat="42.0989906" lon="13.5143496"><ele>906.6666666666667</ele><time>2026-05-02T14:33:38.296Z</time></trkpt><trkpt lat="42.0989482" lon="13.5142785"><ele>907.5</ele><time>2026-05-02T14:34:22.313Z</time></trkpt><trkpt lat="42.0988985" lon="13.5142157"><ele>908.3333333333333</ele><time>2026-05-02T14:45:03.281Z</time></trkpt><trkpt lat="42.0988425" lon="13.5141226"><ele>909.1666666666666</ele><time>2026-05-02T14:45:05.282Z</time></trkpt><trkpt lat="42.0988093" lon="13.5140357"><ele>910.0</ele><time>2026-05-02T14:45:06.273Z</time></trkpt><trkpt lat="42.0987745" lon="13.5139332"><ele>909.9999999999999</ele><time>2026-05-02T14:45:07.274Z</time></trkpt><trkpt lat="42.0987414" lon="13.5138151"><ele>910.0</ele><time>2026-05-02T14:45:08.278Z</time></trkpt><trkpt lat="42.0987214" lon="13.5137224"><ele>910.0</ele><time>2026-05-02T14:45:09.273Z</time></trkpt><trkpt lat="42.0986981" lon="13.5136375"><ele>910.0</ele><time>2026-05-02T14:45:10.271Z</time></trkpt><trkpt lat="42.0986661" lon="13.5135453"><ele>909.9999999999999</ele><time>2026-05-02T14:45:11.272Z</time></trkpt><trkpt lat="42.0986347" lon="13.5134497"><ele>910.0</ele><time>2026-05-02T14:45:12.274Z</time></trkpt><trkpt lat="42.0986033" lon="13.5133617"><ele>911.8333333333333</ele><time>2026-05-02T14:45:13.269Z</time></trkpt><trkpt lat="42.0985742" lon="13.5132023"><ele>913.6666666666666</ele><time>2026-05-02T14:45:15.269Z</time></trkpt><trkpt lat="42.0985815" lon="13.5131061"><ele>915.5</ele><time>2026-05-02T14:45:16.269Z</time></trkpt><trkpt lat="42.0985798" lon="13.5130142"><ele>917.3333333333333</ele><time>2026-05-02T14:45:17.279Z</time></trkpt><trkpt lat="42.0985634" lon="13.5129147"><ele>919.1666666666666</ele><time>2026-05-02T14:45:18.27Z</time></trkpt><trkpt lat="42.0985324" lon="13.512817"><ele>921.0</ele><time>2026-05-02T14:45:19.27Z</time></trkpt><trkpt lat="42.0985028" lon="13.5127354"><ele>921.8</ele><time>2026-05-02T14:45:20.273Z</time></trkpt><trkpt lat="42.0984628" lon="13.5125669"><ele>922.5999999999999</ele><time>2026-05-02T14:45:22.273Z</time></trkpt><trkpt lat="42.0984609" lon="13.5124671"><ele>923.4</ele><time>2026-05-02T14:45:23.27Z</time></trkpt><trkpt lat="42.0984627" lon="13.5123548"><ele>924.2</ele><time>2026-05-02T14:45:24.266Z</time></trkpt><trkpt lat="42.098467" lon="13.5122278"><ele>925.0</ele><time>2026-05-02T14:45:25.263Z</time></trkpt><trkpt lat="42.0984634" lon="13.5121094"><ele>925.6666666666666</ele><time>2026-05-02T14:45:26.271Z</time></trkpt><trkpt lat="42.0984519" lon="13.5119948"><ele>926.3333333333333</ele><time>2026-05-02T14:45:27.271Z</time></trkpt><trkpt lat="42.0984595" lon="13.5118746"><ele>927.0</ele><time>2026-05-02T14:45:28.273Z</time></trkpt><trkpt lat="42.098473" lon="13.5117655"><ele>927.6666666666667</ele><time>2026-05-02T14:45:29.272Z</time></trkpt><trkpt lat="42.098483" lon="13.5116452"><ele>928.3333333333334</ele><time>2026-05-02T14:45:30.271Z</time></trkpt><trkpt lat="42.098495" lon="13.5115115"><ele>929.0</ele><time>2026-05-02T14:45:31.28Z</time></trkpt><trkpt lat="42.0984929" lon="13.5113929"><ele>929.0000000000001</ele><time>2026-05-02T14:45:32.275Z</time></trkpt><trkpt lat="42.0984676" lon="13.5112864"><ele>929.0</ele><time>2026-05-02T14:45:33.266Z</time></trkpt><trkpt lat="42.0984341" lon="13.5111943"><ele>929.0</ele><time>2026-05-02T14:45:34.266Z</time></trkpt><trkpt lat="42.0983843" lon="13.511107"><ele>929.0</ele><time>2026-05-02T14:45:35.262Z</time></trkpt><trkpt lat="42.0983236" lon="13.511011"><ele>929.0000000000001</ele><time>2026-05-02T14:45:36.267Z</time></trkpt><trkpt lat="42.0982539" lon="13.5109123"><ele>929.0</ele><time>2026-05-02T14:45:37.265Z</time></trkpt><trkpt lat="42.0981892" lon="13.5107988"><ele>925.6</ele><time>2026-05-02T14:45:38.265Z</time></trkpt><trkpt lat="42.0981296" lon="13.5106823"><ele>922.2</ele><time>2026-05-02T14:45:39.262Z</time></trkpt><trkpt lat="42.098091" lon="13.5105444"><ele>918.8000000000001</ele><time>2026-05-02T14:45:40.261Z</time></trkpt><trkpt lat="42.0980563" lon="13.5104105"><ele>915.4000000000001</ele><time>2026-05-02T14:45:41.259Z</time></trkpt><trkpt lat="42.0980126" lon="13.5102819"><ele>912.0</ele><time>2026-05-02T14:45:42.253Z</time></trkpt><trkpt lat="42.097945" lon="13.5101435"><ele>912.0</ele><time>2026-05-02T14:45:43.259Z</time></trkpt><trkpt lat="42.0978793" lon="13.5100191"><ele>912.0</ele><time>2026-05-02T14:45:44.268Z</time></trkpt><trkpt lat="42.0978231" lon="13.5098998"><ele>912.0</ele><time>2026-05-02T14:45:45.267Z</time></trkpt><trkpt lat="42.0977672" lon="13.5097993"><ele>912.0</ele><time>2026-05-02T14:45:46.269Z</time></trkpt><trkpt lat="42.0977307" lon="13.5096986"><ele>912.0</ele><time>2026-05-02T14:45:47.269Z</time></trkpt><trkpt lat="42.0977037" lon="13.509593"><ele>912.0</ele><time>2026-05-02T14:45:48.287Z</time></trkpt><trkpt lat="42.0976823" lon="13.5094838"><ele>912.0</ele><time>2026-05-02T14:45:49.285Z</time></trkpt><trkpt lat="42.0976591" lon="13.5093828"><ele>912.0</ele><time>2026-05-02T14:45:50.282Z</time></trkpt><trkpt lat="42.0976423" lon="13.5092868"><ele>912.0</ele><time>2026-05-02T14:45:51.281Z</time></trkpt><trkpt lat="42.0976502" lon="13.5091928"><ele>912.0</ele><time>2026-05-02T14:45:52.28Z</time></trkpt><trkpt lat="42.0976859" lon="13.5090935"><ele>912.0</ele><time>2026-05-02T14:45:53.282Z</time></trkpt><trkpt lat="42.0977303" lon="13.508972"><ele>912.0</ele><time>2026-05-02T14:45:54.284Z</time></trkpt><trkpt lat="42.0977786" lon="13.508834"><ele>912.0</ele><time>2026-05-02T14:45:55.282Z</time></trkpt><trkpt lat="42.0978069" lon="13.5086772"><ele>912.0</ele><time>2026-05-02T14:45:56.303Z</time></trkpt><trkpt lat="42.097828" lon="13.5085085"><ele>912.0</ele><time>2026-05-02T14:45:57.281Z</time></trkpt><trkpt lat="42.0978353" lon="13.5083423"><ele>912.0</ele><time>2026-05-02T14:45:58.291Z</time></trkpt><trkpt lat="42.0978468" lon="13.508169"><ele>912.0</ele><time>2026-05-02T14:45:59.283Z</time></trkpt><trkpt lat="42.09786" lon="13.5080095"><ele>912.0</ele><time>2026-05-02T14:46:00.287Z</time></trkpt><trkpt lat="42.0978865" lon="13.5078498"><ele>912.0</ele><time>2026-05-02T14:46:01.279Z</time></trkpt><trkpt lat="42.0979177" lon="13.5077039"><ele>912.2</ele><time>2026-05-02T14:46:02.282Z</time></trkpt><trkpt lat="42.097949" lon="13.5075633"><ele>912.4000000000001</ele><time>2026-05-02T14:46:03.278Z</time></trkpt><trkpt lat="42.0979811" lon="13.507435"><ele>912.5999999999999</ele><time>2026-05-02T14:46:04.272Z</time></trkpt><trkpt lat="42.0980264" lon="13.5073177"><ele>912.8</ele><time>2026-05-02T14:46:05.273Z</time></trkpt><trkpt lat="42.0980812" lon="13.5072085"><ele>913.0</ele><time>2026-05-02T14:46:06.271Z</time></trkpt><trkpt lat="42.0981492" lon="13.5071272"><ele>913.4</ele><time>2026-05-02T14:46:07.272Z</time></trkpt><trkpt lat="42.0982251" lon="13.5070529"><ele>913.8</ele><time>2026-05-02T14:46:08.276Z</time></trkpt><trkpt lat="42.0983136" lon="13.5069842"><ele>914.2</ele><time>2026-05-02T14:46:09.28Z</time></trkpt><trkpt lat="42.0984043" lon="13.5069049"><ele>914.6</ele><time>2026-05-02T14:46:10.274Z</time></trkpt><trkpt lat="42.0984691" lon="13.5068227"><ele>915.0</ele><time>2026-05-02T14:46:11.274Z</time></trkpt><trkpt lat="42.0985181" lon="13.5067278"><ele>915.0</ele><time>2026-05-02T14:46:12.283Z</time></trkpt><trkpt lat="42.0985607" lon="13.5066218"><ele>915.0</ele><time>2026-05-02T14:46:13.278Z</time></trkpt><trkpt lat="42.0986025" lon="13.5065108"><ele>915.0</ele><time>2026-05-02T14:46:14.277Z</time></trkpt><trkpt lat="42.0986345" lon="13.5063847"><ele>915.0</ele><time>2026-05-02T14:46:15.282Z</time></trkpt><trkpt lat="42.0986636" lon="13.5062561"><ele>915.0</ele><time>2026-05-02T14:46:16.281Z</time></trkpt><trkpt lat="42.0986935" lon="13.5061165"><ele>915.0</ele><time>2026-05-02T14:46:17.283Z</time></trkpt><trkpt lat="42.0987357" lon="13.5059755"><ele>915.0</ele><time>2026-05-02T14:46:18.281Z</time></trkpt><trkpt lat="42.0987848" lon="13.5058359"><ele>915.0</ele><time>2026-05-02T14:46:19.289Z</time></trkpt><trkpt lat="42.0988268" lon="13.505719"><ele>915.0</ele><time>2026-05-02T14:46:20.277Z</time></trkpt><trkpt lat="42.098858" lon="13.5056105"><ele>915.0</ele><time>2026-05-02T14:46:21.279Z</time></trkpt><trkpt lat="42.0988777" lon="13.5054999"><ele>915.8</ele><time>2026-05-02T14:46:22.279Z</time></trkpt><trkpt lat="42.0989209" lon="13.5053961"><ele>916.6</ele><time>2026-05-02T14:46:23.278Z</time></trkpt><trkpt lat="42.0989788" lon="13.5053056"><ele>917.4000000000001</ele><time>2026-05-02T14:46:24.271Z</time></trkpt><trkpt lat="42.0990434" lon="13.5052078"><ele>918.2</ele><time>2026-05-02T14:46:25.286Z</time></trkpt><trkpt lat="42.0991046" lon="13.5051108"><ele>919.0</ele><time>2026-05-02T14:46:26.28Z</time></trkpt><trkpt lat="42.0991853" lon="13.5050152"><ele>920.4000000000001</ele><time>2026-05-02T14:46:27.285Z</time></trkpt><trkpt lat="42.099266" lon="13.504929"><ele>921.8000000000001</ele><time>2026-05-02T14:46:28.276Z</time></trkpt><trkpt lat="42.0993401" lon="13.5048424"><ele>923.1999999999999</ele><time>2026-05-02T14:46:29.274Z</time></trkpt><trkpt lat="42.0994137" lon="13.5047371"><ele>924.5999999999999</ele><time>2026-05-02T14:46:30.281Z</time></trkpt><trkpt lat="42.0994763" lon="13.504631"><ele>926.0</ele><time>2026-05-02T14:46:31.281Z</time></trkpt><trkpt lat="42.0995331" lon="13.5045093"><ele>927.25</ele><time>2026-05-02T14:46:32.285Z</time></trkpt><trkpt lat="42.0995962" lon="13.5043946"><ele>928.5</ele><time>2026-05-02T14:46:33.28Z</time></trkpt><trkpt lat="42.0996616" lon="13.5042637"><ele>929.75</ele><time>2026-05-02T14:46:34.286Z</time></trkpt><trkpt lat="42.0997207" lon="13.5041338"><ele>931.0</ele><time>2026-05-02T14:46:35.284Z</time></trkpt><trkpt lat="42.0997832" lon="13.5039915"><ele>931.0</ele><time>2026-05-02T14:46:36.285Z</time></trkpt><trkpt lat="42.0998416" lon="13.5038545"><ele>931.0</ele><time>2026-05-02T14:46:37.286Z</time></trkpt><trkpt lat="42.0999062" lon="13.5037128"><ele>931.0</ele><time>2026-05-02T14:46:38.285Z</time></trkpt><trkpt lat="42.0999709" lon="13.5035715"><ele>931.0</ele><time>2026-05-02T14:46:39.29Z</time></trkpt><trkpt lat="42.1000254" lon="13.5034268"><ele>931.5</ele><time>2026-05-02T14:46:40.285Z</time></trkpt><trkpt lat="42.100081" lon="13.5032891"><ele>932.0</ele><time>2026-05-02T14:46:41.286Z</time></trkpt><trkpt lat="42.1001494" lon="13.5031524"><ele>932.5</ele><time>2026-05-02T14:46:42.285Z</time></trkpt><trkpt lat="42.100218" lon="13.5030078"><ele>933.0</ele><time>2026-05-02T14:46:43.288Z</time></trkpt><trkpt lat="42.1002903" lon="13.5028666"><ele>935.5</ele><time>2026-05-02T14:46:44.282Z</time></trkpt><trkpt lat="42.1003632" lon="13.5027336"><ele>938.0</ele><time>2026-05-02T14:46:45.306Z</time></trkpt><trkpt lat="42.1004374" lon="13.5025907"><ele>940.5</ele><time>2026-05-02T14:46:46.296Z</time></trkpt><trkpt lat="42.1005167" lon="13.5024434"><ele>943.0</ele><time>2026-05-02T14:46:47.296Z</time></trkpt><trkpt lat="42.1006026" lon="13.5023155"><ele>943.0</ele><time>2026-05-02T14:46:48.296Z</time></trkpt><trkpt lat="42.1006874" lon="13.5021953"><ele>943.0</ele><time>2026-05-02T14:46:49.291Z</time></trkpt><trkpt lat="42.1007805" lon="13.5020764"><ele>943.0</ele><time>2026-05-02T14:46:50.295Z</time></trkpt><trkpt lat="42.1008742" lon="13.5019597"><ele>943.0</ele><time>2026-05-02T14:46:51.29Z</time></trkpt><trkpt lat="42.1009708" lon="13.5018496"><ele>944.25</ele><time>2026-05-02T14:46:52.297Z</time></trkpt><trkpt lat="42.1010767" lon="13.5017315"><ele>945.5</ele><time>2026-05-02T14:46:53.297Z</time></trkpt><trkpt lat="42.1011702" lon="13.5016226"><ele>946.75</ele><time>2026-05-02T14:46:54.295Z</time></trkpt><trkpt lat="42.101239" lon="13.5015148"><ele>948.0</ele><time>2026-05-02T14:46:55.296Z</time></trkpt><trkpt lat="42.1013018" lon="13.5013938"><ele>948.0</ele><time>2026-05-02T14:46:56.294Z</time></trkpt><trkpt lat="42.101358" lon="13.5013043"><ele>948.0</ele><time>2026-05-02T14:46:57.296Z</time></trkpt><trkpt lat="42.1014013" lon="13.5012171"><ele>948.0</ele><time>2026-05-02T14:46:58.289Z</time></trkpt><trkpt lat="42.1014497" lon="13.5011067"><ele>948.0</ele><time>2026-05-02T14:47:00.295Z</time></trkpt><trkpt lat="42.1015352" lon="13.5010952"><ele>948.0</ele><time>2026-05-02T14:47:03.293Z</time></trkpt><trkpt lat="42.1015959" lon="13.5012483"><ele>949.25</ele><time>2026-05-02T14:47:05.28Z</time></trkpt><trkpt lat="42.1016272" lon="13.501383"><ele>950.5</ele><time>2026-05-02T14:47:06.282Z</time></trkpt><trkpt lat="42.1016497" lon="13.5015381"><ele>951.75</ele><time>2026-05-02T14:47:07.28Z</time></trkpt><trkpt lat="42.1016792" lon="13.5017227"><ele>953.0</ele><time>2026-05-02T14:47:08.287Z</time></trkpt><trkpt lat="42.1017162" lon="13.5018987"><ele>953.0</ele><time>2026-05-02T14:47:09.28Z</time></trkpt><trkpt lat="42.1017617" lon="13.5020775"><ele>953.0</ele><time>2026-05-02T14:47:10.287Z</time></trkpt><trkpt lat="42.1018029" lon="13.5022521"><ele>953.0</ele><time>2026-05-02T14:47:11.283Z</time></trkpt><trkpt lat="42.1018461" lon="13.5024066"><ele>953.0</ele><time>2026-05-02T14:47:12.284Z</time></trkpt><trkpt lat="42.1018927" lon="13.5025485"><ele>951.4</ele><time>2026-05-02T14:47:13.289Z</time></trkpt><trkpt lat="42.1019363" lon="13.5026749"><ele>949.8</ele><time>2026-05-02T14:47:14.293Z</time></trkpt><trkpt lat="42.1019866" lon="13.5027895"><ele>948.2</ele><time>2026-05-02T14:47:15.289Z</time></trkpt><trkpt lat="42.1020564" lon="13.5029056"><ele>946.6</ele><time>2026-05-02T14:47:16.296Z</time></trkpt><trkpt lat="42.1021283" lon="13.5029992"><ele>945.0</ele><time>2026-05-02T14:47:17.292Z</time></trkpt><trkpt lat="42.1021805" lon="13.503105"><ele>944.0</ele><time>2026-05-02T14:47:18.284Z</time></trkpt><trkpt lat="42.1022168" lon="13.503203"><ele>943.0</ele><time>2026-05-02T14:47:19.291Z</time></trkpt><trkpt lat="42.1022145" lon="13.5032971"><ele>942.0</ele><time>2026-05-02T14:47:20.285Z</time></trkpt><trkpt lat="42.1021888" lon="13.5034172"><ele>941.0</ele><time>2026-05-02T14:47:21.295Z</time></trkpt><trkpt lat="42.102134" lon="13.503543"><ele>940.0</ele><time>2026-05-02T14:47:22.287Z</time></trkpt><trkpt lat="42.1020646" lon="13.5036659"><ele>938.75</ele><time>2026-05-02T14:47:23.29Z</time></trkpt><trkpt lat="42.1019894" lon="13.5037869"><ele>937.5</ele><time>2026-05-02T14:47:24.29Z</time></trkpt><trkpt lat="42.1019277" lon="13.5039093"><ele>936.25</ele><time>2026-05-02T14:47:25.288Z</time></trkpt><trkpt lat="42.1018627" lon="13.5040598"><ele>935.0</ele><time>2026-05-02T14:47:26.294Z</time></trkpt><trkpt lat="42.1017927" lon="13.504216"><ele>935.0</ele><time>2026-05-02T14:47:27.295Z</time></trkpt><trkpt lat="42.1017318" lon="13.5043599"><ele>935.0</ele><time>2026-05-02T14:47:28.297Z</time></trkpt><trkpt lat="42.1016696" lon="13.5045103"><ele>935.0</ele><time>2026-05-02T14:47:29.297Z</time></trkpt><trkpt lat="42.1015986" lon="13.5046647"><ele>935.0</ele><time>2026-05-02T14:47:30.304Z</time></trkpt><trkpt lat="42.1015252" lon="13.5048246"><ele>933.6666666666667</ele><time>2026-05-02T14:47:31.295Z</time></trkpt><trkpt lat="42.1014594" lon="13.5049945"><ele>932.3333333333333</ele><time>2026-05-02T14:47:32.291Z</time></trkpt><trkpt lat="42.1014137" lon="13.5052012"><ele>931.0</ele><time>2026-05-02T14:47:33.3Z</time></trkpt><trkpt lat="42.1013586" lon="13.5054428"><ele>930.3333333333333</ele><time>2026-05-02T14:47:34.294Z</time></trkpt><trkpt lat="42.1013216" lon="13.5056769"><ele>929.6666666666667</ele><time>2026-05-02T14:47:35.303Z</time></trkpt><trkpt lat="42.1012821" lon="13.5058965"><ele>929.0</ele><time>2026-05-02T14:47:36.297Z</time></trkpt><trkpt lat="42.1012463" lon="13.5061146"><ele>929.6666666666667</ele><time>2026-05-02T14:47:37.303Z</time></trkpt><trkpt lat="42.1012131" lon="13.5063481"><ele>930.3333333333333</ele><time>2026-05-02T14:47:38.298Z</time></trkpt><trkpt lat="42.1011878" lon="13.5065784"><ele>931.0</ele><time>2026-05-02T14:47:39.296Z</time></trkpt><trkpt lat="42.1011653" lon="13.5068039"><ele>931.0</ele><time>2026-05-02T14:47:40.298Z</time></trkpt><trkpt lat="42.1011501" lon="13.5070095"><ele>931.0</ele><time>2026-05-02T14:47:41.298Z</time></trkpt><trkpt lat="42.1011586" lon="13.5072034"><ele>931.0</ele><time>2026-05-02T14:47:42.297Z</time></trkpt><trkpt lat="42.1011827" lon="13.507406"><ele>933.0</ele><time>2026-05-02T14:47:43.293Z</time></trkpt><trkpt lat="42.1012008" lon="13.5075859"><ele>935.0</ele><time>2026-05-02T14:47:44.302Z</time></trkpt><trkpt lat="42.1011895" lon="13.5077645"><ele>937.0</ele><time>2026-05-02T14:47:45.295Z</time></trkpt><trkpt lat="42.1011671" lon="13.5079418"><ele>939.0</ele><time>2026-05-02T14:47:46.297Z</time></trkpt><trkpt lat="42.1011269" lon="13.5081253"><ele>940.75</ele><time>2026-05-02T14:47:47.31Z</time></trkpt><trkpt lat="42.1010984" lon="13.5083069"><ele>942.5</ele><time>2026-05-02T14:47:48.307Z</time></trkpt><trkpt lat="42.1010865" lon="13.5084991"><ele>944.25</ele><time>2026-05-02T14:47:49.301Z</time></trkpt><trkpt lat="42.1010631" lon="13.5086773"><ele>946.0</ele><time>2026-05-02T14:47:50.301Z</time></trkpt><trkpt lat="42.1010363" lon="13.5088415"><ele>948.0</ele><time>2026-05-02T14:47:51.299Z</time></trkpt><trkpt lat="42.1009935" lon="13.5089896"><ele>949.9999999999999</ele><time>2026-05-02T14:47:52.306Z</time></trkpt><trkpt lat="42.1009551" lon="13.509143"><ele>951.9999999999999</ele><time>2026-05-02T14:47:53.294Z</time></trkpt><trkpt lat="42.1008932" lon="13.5092716"><ele>954.0</ele><time>2026-05-02T14:47:54.291Z</time></trkpt><trkpt lat="42.1008556" lon="13.5093882"><ele>956.0</ele><time>2026-05-02T14:47:55.292Z</time></trkpt><trkpt lat="42.100818" lon="13.5094672"><ele>956.0</ele><time>2026-05-02T14:47:56.288Z</time></trkpt><trkpt lat="42.1007633" lon="13.5095721"><ele>955.9999999999999</ele><time>2026-05-02T14:47:58.306Z</time></trkpt><trkpt lat="42.100742" lon="13.5096578"><ele>955.9999999999999</ele><time>2026-05-02T14:48:00.306Z</time></trkpt><trkpt lat="42.1008207" lon="13.5096491"><ele>956.0</ele><time>2026-05-02T14:48:03.308Z</time></trkpt><trkpt lat="42.1008756" lon="13.5095447"><ele>956.0</ele><time>2026-05-02T14:48:04.299Z</time></trkpt><trkpt lat="42.1009398" lon="13.5093987"><ele>956.0</ele><time>2026-05-02T14:48:05.294Z</time></trkpt><trkpt lat="42.1010112" lon="13.5092421"><ele>956.0</ele><time>2026-05-02T14:48:06.295Z</time></trkpt><trkpt lat="42.1011116" lon="13.5090895"><ele>956.0</ele><time>2026-05-02T14:48:07.299Z</time></trkpt><trkpt lat="42.1012419" lon="13.5089361"><ele>956.0</ele><time>2026-05-02T14:48:08.288Z</time></trkpt><trkpt lat="42.1013671" lon="13.5087694"><ele>956.0</ele><time>2026-05-02T14:48:09.3Z</time></trkpt><trkpt lat="42.1015069" lon="13.5085938"><ele>956.0</ele><time>2026-05-02T14:48:10.301Z</time></trkpt><trkpt lat="42.1016398" lon="13.5084184"><ele>955.0</ele><time>2026-05-02T14:48:11.302Z</time></trkpt><trkpt lat="42.1017984" lon="13.5082564"><ele>954.0</ele><time>2026-05-02T14:48:12.308Z</time></trkpt><trkpt lat="42.1019415" lon="13.5080809"><ele>953.0</ele><time>2026-05-02T14:48:13.304Z</time></trkpt><trkpt lat="42.1020865" lon="13.5078826"><ele>951.0</ele><time>2026-05-02T14:48:14.308Z</time></trkpt><trkpt lat="42.1022001" lon="13.5076846"><ele>949.0</ele><time>2026-05-02T14:48:15.299Z</time></trkpt><trkpt lat="42.1023048" lon="13.5074837"><ele>947.0</ele><time>2026-05-02T14:48:16.305Z</time></trkpt><trkpt lat="42.1024116" lon="13.5072756"><ele>951.0</ele><time>2026-05-02T14:48:17.319Z</time></trkpt><trkpt lat="42.1024985" lon="13.5070563"><ele>955.0</ele><time>2026-05-02T14:48:18.305Z</time></trkpt><trkpt lat="42.1025673" lon="13.506841"><ele>959.0</ele><time>2026-05-02T14:48:19.304Z</time></trkpt><trkpt lat="42.1026438" lon="13.5066154"><ele>959.0</ele><time>2026-05-02T14:48:20.304Z</time></trkpt><trkpt lat="42.1027174" lon="13.5064003"><ele>959.0</ele><time>2026-05-02T14:48:21.301Z</time></trkpt><trkpt lat="42.1027926" lon="13.5061724"><ele>959.0</ele><time>2026-05-02T14:48:22.298Z</time></trkpt><trkpt lat="42.1028556" lon="13.5059546"><ele>956.3333333333334</ele><time>2026-05-02T14:48:23.318Z</time></trkpt><trkpt lat="42.1029237" lon="13.50575"><ele>953.6666666666667</ele><time>2026-05-02T14:48:24.311Z</time></trkpt><trkpt lat="42.1029902" lon="13.5055413"><ele>951.0</ele><time>2026-05-02T14:48:25.313Z</time></trkpt><trkpt lat="42.1030553" lon="13.5053478"><ele>949.3333333333333</ele><time>2026-05-02T14:48:26.328Z</time></trkpt><trkpt lat="42.1031346" lon="13.5051679"><ele>947.6666666666666</ele><time>2026-05-02T14:48:27.398Z</time></trkpt><trkpt lat="42.1032336" lon="13.5050082"><ele>946.0</ele><time>2026-05-02T14:48:28.386Z</time></trkpt><trkpt lat="42.1033475" lon="13.5048746"><ele>948.5</ele><time>2026-05-02T14:48:29.386Z</time></trkpt><trkpt lat="42.1034675" lon="13.5047828"><ele>951.0</ele><time>2026-05-02T14:48:30.374Z</time></trkpt><trkpt lat="42.1035632" lon="13.5047355"><ele>953.5</ele><time>2026-05-02T14:48:31.376Z</time></trkpt><trkpt lat="42.1036418" lon="13.5046867"><ele>956.0</ele><time>2026-05-02T14:48:32.377Z</time></trkpt><trkpt lat="42.1039226" lon="13.504507"><ele>963.5</ele><time>2026-05-02T14:48:33.371Z</time></trkpt><trkpt lat="42.1041469" lon="13.5042701"><ele>971.0</ele><time>2026-05-02T14:48:35.382Z</time></trkpt><trkpt lat="42.104272" lon="13.5041054"><ele>971.0</ele><time>2026-05-02T14:48:36.368Z</time></trkpt><trkpt lat="42.1043265" lon="13.5040071"><ele>971.0</ele><time>2026-05-02T14:48:37.381Z</time></trkpt><trkpt lat="42.1044422" lon="13.5037987"><ele>971.0</ele><time>2026-05-02T14:48:38.381Z</time></trkpt><trkpt lat="42.1045448" lon="13.5036067"><ele>970.0</ele><time>2026-05-02T14:48:39.373Z</time></trkpt><trkpt lat="42.1046478" lon="13.5034214"><ele>969.0</ele><time>2026-05-02T14:48:40.389Z</time></trkpt><trkpt lat="42.1047441" lon="13.5032291"><ele>968.0</ele><time>2026-05-02T14:48:41.393Z</time></trkpt><trkpt lat="42.1048272" lon="13.5030191"><ele>968.3333333333334</ele><time>2026-05-02T14:48:42.399Z</time></trkpt><trkpt lat="42.1049106" lon="13.5027994"><ele>968.6666666666667</ele><time>2026-05-02T14:48:43.395Z</time></trkpt><trkpt lat="42.1049956" lon="13.5025218"><ele>969.0</ele><time>2026-05-02T14:48:44.402Z</time></trkpt><trkpt lat="42.1050654" lon="13.5022894"><ele>974.3333333333333</ele><time>2026-05-02T14:48:45.398Z</time></trkpt><trkpt lat="42.1051333" lon="13.5020633"><ele>979.6666666666666</ele><time>2026-05-02T14:48:46.404Z</time></trkpt><trkpt lat="42.1051961" lon="13.501833"><ele>985.0</ele><time>2026-05-02T14:48:47.405Z</time></trkpt><trkpt lat="42.1052549" lon="13.5015996"><ele>985.0</ele><time>2026-05-02T14:48:48.399Z</time></trkpt><trkpt lat="42.1053091" lon="13.5013696"><ele>985.0</ele><time>2026-05-02T14:48:49.397Z</time></trkpt><trkpt lat="42.1053538" lon="13.5011368"><ele>985.0</ele><time>2026-05-02T14:48:50.397Z</time></trkpt><trkpt lat="42.1053895" lon="13.5009181"><ele>984.6666666666666</ele><time>2026-05-02T14:48:51.388Z</time></trkpt><trkpt lat="42.1054146" lon="13.5006991"><ele>984.3333333333333</ele><time>2026-05-02T14:48:52.403Z</time></trkpt><trkpt lat="42.1054349" lon="13.5004851"><ele>984.0</ele><time>2026-05-02T14:48:53.378Z</time></trkpt><trkpt lat="42.1054407" lon="13.5002885"><ele>986.0</ele><time>2026-05-02T14:48:54.382Z</time></trkpt><trkpt lat="42.1054261" lon="13.5001003"><ele>988.0</ele><time>2026-05-02T14:48:55.363Z</time></trkpt><trkpt lat="42.1053873" lon="13.4999217"><ele>990.0</ele><time>2026-05-02T14:48:56.366Z</time></trkpt><trkpt lat="42.1053252" lon="13.499743"><ele>992.0</ele><time>2026-05-02T14:48:57.393Z</time></trkpt><trkpt lat="42.1052442" lon="13.499607"><ele>992.0</ele><time>2026-05-02T14:48:58.392Z</time></trkpt><trkpt lat="42.1051373" lon="13.4994599"><ele>992.0</ele><time>2026-05-02T14:48:59.373Z</time></trkpt><trkpt lat="42.1050359" lon="13.4993304"><ele>992.0</ele><time>2026-05-02T14:49:00.377Z</time></trkpt><trkpt lat="42.1049275" lon="13.4992048"><ele>992.0</ele><time>2026-05-02T14:49:01.376Z</time></trkpt><trkpt lat="42.1048192" lon="13.4990678"><ele>992.0</ele><time>2026-05-02T14:49:02.372Z</time></trkpt><trkpt lat="42.1047213" lon="13.4989192"><ele>992.0</ele><time>2026-05-02T14:49:03.388Z</time></trkpt><trkpt lat="42.1046257" lon="13.4987444"><ele>992.0</ele><time>2026-05-02T14:49:04.389Z</time></trkpt><trkpt lat="42.1045527" lon="13.498559"><ele>992.5</ele><time>2026-05-02T14:49:05.391Z</time></trkpt><trkpt lat="42.1045115" lon="13.4983681"><ele>993.0</ele><time>2026-05-02T14:49:06.375Z</time></trkpt><trkpt lat="42.1045102" lon="13.4981786"><ele>993.5</ele><time>2026-05-02T14:49:07.385Z</time></trkpt><trkpt lat="42.1045385" lon="13.49799"><ele>994.0</ele><time>2026-05-02T14:49:08.372Z</time></trkpt><trkpt lat="42.1046053" lon="13.4978338"><ele>994.0</ele><time>2026-05-02T14:49:09.375Z</time></trkpt><trkpt lat="42.104704" lon="13.4977375"><ele>994.0</ele><time>2026-05-02T14:49:10.386Z</time></trkpt><trkpt lat="42.1048014" lon="13.4976451"><ele>994.0</ele><time>2026-05-02T14:49:11.386Z</time></trkpt><trkpt lat="42.1049213" lon="13.4975261"><ele>994.0</ele><time>2026-05-02T14:49:12.369Z</time></trkpt><trkpt lat="42.1050436" lon="13.497424"><ele>996.3333333333333</ele><time>2026-05-02T14:49:13.377Z</time></trkpt><trkpt lat="42.1051686" lon="13.4973135"><ele>998.6666666666667</ele><time>2026-05-02T14:49:14.379Z</time></trkpt><trkpt lat="42.1053027" lon="13.4971973"><ele>1001.0</ele><time>2026-05-02T14:49:15.384Z</time></trkpt><trkpt lat="42.105447" lon="13.4970833"><ele>1001.0</ele><time>2026-05-02T14:49:16.4Z</time></trkpt><trkpt lat="42.1055944" lon="13.4969644"><ele>1001.0</ele><time>2026-05-02T14:49:17.402Z</time></trkpt><trkpt lat="42.1057451" lon="13.4968454"><ele>1001.0</ele><time>2026-05-02T14:49:18.411Z</time></trkpt><trkpt lat="42.1058932" lon="13.4967333"><ele>1004.0</ele><time>2026-05-02T14:49:19.4Z</time></trkpt><trkpt lat="42.10604" lon="13.4966187"><ele>1007.0</ele><time>2026-05-02T14:49:20.394Z</time></trkpt><trkpt lat="42.1061809" lon="13.4964976"><ele>1010.0</ele><time>2026-05-02T14:49:21.389Z</time></trkpt><trkpt lat="42.106316" lon="13.4963603"><ele>1009.0</ele><time>2026-05-02T14:49:22.389Z</time></trkpt><trkpt lat="42.1064402" lon="13.4962001"><ele>1008.0</ele><time>2026-05-02T14:49:23.39Z</time></trkpt><trkpt lat="42.1065412" lon="13.4960118"><ele>1007.0</ele><time>2026-05-02T14:49:24.372Z</time></trkpt><trkpt lat="42.106623" lon="13.4958066"><ele>1010.6666666666667</ele><time>2026-05-02T14:49:25.382Z</time></trkpt><trkpt lat="42.106682" lon="13.495582"><ele>1014.3333333333333</ele><time>2026-05-02T14:49:26.371Z</time></trkpt><trkpt lat="42.1067254" lon="13.4953516"><ele>1018.0</ele><time>2026-05-02T14:49:27.382Z</time></trkpt><trkpt lat="42.1067715" lon="13.4951136"><ele>1018.0</ele><time>2026-05-02T14:49:28.407Z</time></trkpt><trkpt lat="42.1068204" lon="13.4948783"><ele>1018.0</ele><time>2026-05-02T14:49:29.398Z</time></trkpt><trkpt lat="42.1068634" lon="13.4946611"><ele>1018.0</ele><time>2026-05-02T14:49:30.401Z</time></trkpt><trkpt lat="42.1069208" lon="13.494456"><ele>1017.3333333333333</ele><time>2026-05-02T14:49:31.386Z</time></trkpt><trkpt lat="42.1070054" lon="13.4942571"><ele>1016.6666666666667</ele><time>2026-05-02T14:49:32.386Z</time></trkpt><trkpt lat="42.1071116" lon="13.4940737"><ele>1016.0</ele><time>2026-05-02T14:49:33.382Z</time></trkpt><trkpt lat="42.1072342" lon="13.4939002"><ele>1015.0</ele><time>2026-05-02T14:49:34.368Z</time></trkpt><trkpt lat="42.1073606" lon="13.4937234"><ele>1014.0</ele><time>2026-05-02T14:49:35.378Z</time></trkpt><trkpt lat="42.1074785" lon="13.493553"><ele>1013.0</ele><time>2026-05-02T14:49:36.372Z</time></trkpt><trkpt lat="42.107578" lon="13.493395"><ele>1017.25</ele><time>2026-05-02T14:49:37.372Z</time></trkpt><trkpt lat="42.107641" lon="13.4932408"><ele>1021.5</ele><time>2026-05-02T14:49:38.392Z</time></trkpt><trkpt lat="42.1076729" lon="13.4930748"><ele>1025.75</ele><time>2026-05-02T14:49:39.381Z</time></trkpt><trkpt lat="42.1076657" lon="13.4928996"><ele>1030.0</ele><time>2026-05-02T14:49:40.369Z</time></trkpt><trkpt lat="42.1076343" lon="13.4927204"><ele>1032.0</ele><time>2026-05-02T14:49:41.365Z</time></trkpt><trkpt lat="42.1075912" lon="13.4925322"><ele>1034.0</ele><time>2026-05-02T14:49:42.357Z</time></trkpt><trkpt lat="42.1075567" lon="13.4923125"><ele>1036.0</ele><time>2026-05-02T14:49:43.274Z</time></trkpt><trkpt lat="42.1075137" lon="13.4921025"><ele>1039.3333333333333</ele><time>2026-05-02T14:49:44.287Z</time></trkpt><trkpt lat="42.1074858" lon="13.4919122"><ele>1042.6666666666667</ele><time>2026-05-02T14:49:45.287Z</time></trkpt><trkpt lat="42.1073954" lon="13.4917416"><ele>1046.0</ele><time>2026-05-02T14:49:46.286Z</time></trkpt><trkpt lat="42.1073049" lon="13.4915781"><ele>1041.75</ele><time>2026-05-02T14:49:47.289Z</time></trkpt><trkpt lat="42.1072139" lon="13.4914269"><ele>1037.5</ele><time>2026-05-02T14:49:48.287Z</time></trkpt><trkpt lat="42.1071494" lon="13.4912481"><ele>1033.25</ele><time>2026-05-02T14:49:49.296Z</time></trkpt><trkpt lat="42.1070992" lon="13.4910721"><ele>1029.0</ele><time>2026-05-02T14:49:50.29Z</time></trkpt><trkpt lat="42.1071111" lon="13.4908805"><ele>1029.0</ele><time>2026-05-02T14:49:51.287Z</time></trkpt><trkpt lat="42.1071288" lon="13.490681"><ele>1029.0</ele><time>2026-05-02T14:49:52.294Z</time></trkpt><trkpt lat="42.1071723" lon="13.4904764"><ele>1029.0</ele><time>2026-05-02T14:49:53.29Z</time></trkpt><trkpt lat="42.1072214" lon="13.4902698"><ele>1030.3333333333333</ele><time>2026-05-02T14:49:54.292Z</time></trkpt><trkpt lat="42.1072455" lon="13.4900522"><ele>1031.6666666666665</ele><time>2026-05-02T14:49:55.293Z</time></trkpt><trkpt lat="42.1072992" lon="13.489824"><ele>1033.0</ele><time>2026-05-02T14:49:56.283Z</time></trkpt><trkpt lat="42.1073349" lon="13.489589"><ele>1035.0</ele><time>2026-05-02T14:49:57.289Z</time></trkpt><trkpt lat="42.107375" lon="13.4893758"><ele>1037.0</ele><time>2026-05-02T14:49:58.293Z</time></trkpt><trkpt lat="42.1074186" lon="13.4891539"><ele>1039.0</ele><time>2026-05-02T14:49:59.297Z</time></trkpt><trkpt lat="42.1074886" lon="13.4889575"><ele>1041.6666666666665</ele><time>2026-05-02T14:50:00.296Z</time></trkpt><trkpt lat="42.1075808" lon="13.4887967"><ele>1044.3333333333333</ele><time>2026-05-02T14:50:01.289Z</time></trkpt><trkpt lat="42.1076919" lon="13.4886561"><ele>1047.0</ele><time>2026-05-02T14:50:02.287Z</time></trkpt><trkpt lat="42.10783" lon="13.4885483"><ele>1047.0</ele><time>2026-05-02T14:50:03.295Z</time></trkpt><trkpt lat="42.1079609" lon="13.4884745"><ele>1047.0</ele><time>2026-05-02T14:50:04.288Z</time></trkpt><trkpt lat="42.1081245" lon="13.4884274"><ele>1047.0</ele><time>2026-05-02T14:50:05.299Z</time></trkpt><trkpt lat="42.1082882" lon="13.4883533"><ele>1052.6666666666667</ele><time>2026-05-02T14:50:06.299Z</time></trkpt><trkpt lat="42.1084524" lon="13.4882606"><ele>1058.3333333333335</ele><time>2026-05-02T14:50:07.293Z</time></trkpt><trkpt lat="42.1086104" lon="13.4881312"><ele>1064.0</ele><time>2026-05-02T14:50:08.295Z</time></trkpt><trkpt lat="42.1087625" lon="13.4879793"><ele>1061.6666666666667</ele><time>2026-05-02T14:50:09.289Z</time></trkpt><trkpt lat="42.1088953" lon="13.4877922"><ele>1059.3333333333333</ele><time>2026-05-02T14:50:10.297Z</time></trkpt><trkpt lat="42.1090095" lon="13.4875926"><ele>1057.0</ele><time>2026-05-02T14:50:11.292Z</time></trkpt><trkpt lat="42.1091176" lon="13.4873868"><ele>1061.0</ele><time>2026-05-02T14:50:12.304Z</time></trkpt><trkpt lat="42.109225" lon="13.4871743"><ele>1065.0</ele><time>2026-05-02T14:50:13.303Z</time></trkpt><trkpt lat="42.1093216" lon="13.4869508"><ele>1069.0</ele><time>2026-05-02T14:50:14.298Z</time></trkpt><trkpt lat="42.1094323" lon="13.4867198"><ele>1069.0</ele><time>2026-05-02T14:50:15.299Z</time></trkpt><trkpt lat="42.1095418" lon="13.4865022"><ele>1069.0</ele><time>2026-05-02T14:50:16.306Z</time></trkpt><trkpt lat="42.1096379" lon="13.4862976"><ele>1069.0</ele><time>2026-05-02T14:50:17.304Z</time></trkpt><trkpt lat="42.1097382" lon="13.4860992"><ele>1067.3333333333333</ele><time>2026-05-02T14:50:18.306Z</time></trkpt><trkpt lat="42.109835" lon="13.4859038"><ele>1065.6666666666667</ele><time>2026-05-02T14:50:19.303Z</time></trkpt><trkpt lat="42.1099244" lon="13.4857052"><ele>1064.0</ele><time>2026-05-02T14:50:20.304Z</time></trkpt><trkpt lat="42.1100002" lon="13.4855063"><ele>1070.3333333333335</ele><time>2026-05-02T14:50:21.301Z</time></trkpt><trkpt lat="42.1100403" lon="13.4852929"><ele>1076.6666666666667</ele><time>2026-05-02T14:50:22.293Z</time></trkpt><trkpt lat="42.1100465" lon="13.4850592"><ele>1083.0</ele><time>2026-05-02T14:50:23.288Z</time></trkpt><trkpt lat="42.1100346" lon="13.4848091"><ele>1085.0</ele><time>2026-05-02T14:50:24.299Z</time></trkpt><trkpt lat="42.1100066" lon="13.4845826"><ele>1087.0</ele><time>2026-05-02T14:50:25.298Z</time></trkpt><trkpt lat="42.109991" lon="13.484359"><ele>1089.0</ele><time>2026-05-02T14:50:26.304Z</time></trkpt><trkpt lat="42.1099661" lon="13.4841421"><ele>1089.0</ele><time>2026-05-02T14:50:27.294Z</time></trkpt><trkpt lat="42.1099662" lon="13.4839246"><ele>1089.0</ele><time>2026-05-02T14:50:28.299Z</time></trkpt><trkpt lat="42.1099949" lon="13.483704"><ele>1089.0</ele><time>2026-05-02T14:50:29.29Z</time></trkpt><trkpt lat="42.11005" lon="13.4834608"><ele>1088.6666666666667</ele><time>2026-05-02T14:50:30.298Z</time></trkpt><trkpt lat="42.1101282" lon="13.483242"><ele>1088.3333333333335</ele><time>2026-05-02T14:50:31.294Z</time></trkpt><trkpt lat="42.1102367" lon="13.4830544"><ele>1088.0</ele><time>2026-05-02T14:50:32.281Z</time></trkpt><trkpt lat="42.1103425" lon="13.4828673"><ele>1085.6666666666667</ele><time>2026-05-02T14:50:33.278Z</time></trkpt><trkpt lat="42.110473" lon="13.4826983"><ele>1083.3333333333333</ele><time>2026-05-02T14:50:34.286Z</time></trkpt><trkpt lat="42.110623" lon="13.4825248"><ele>1081.0</ele><time>2026-05-02T14:50:35.279Z</time></trkpt><trkpt lat="42.110764" lon="13.4823597"><ele>1086.0</ele><time>2026-05-02T14:50:36.288Z</time></trkpt><trkpt lat="42.1108822" lon="13.4822002"><ele>1091.0</ele><time>2026-05-02T14:50:37.277Z</time></trkpt><trkpt lat="42.1109772" lon="13.4820195"><ele>1096.0</ele><time>2026-05-02T14:50:38.28Z</time></trkpt><trkpt lat="42.1110412" lon="13.4818133"><ele>1096.0</ele><time>2026-05-02T14:50:39.279Z</time></trkpt><trkpt lat="42.1111155" lon="13.4816019"><ele>1096.0</ele><time>2026-05-02T14:50:40.28Z</time></trkpt><trkpt lat="42.1111517" lon="13.4813481"><ele>1096.0</ele><time>2026-05-02T14:50:41.285Z</time></trkpt><trkpt lat="42.1111955" lon="13.4811011"><ele>1096.3333333333333</ele><time>2026-05-02T14:50:42.285Z</time></trkpt><trkpt lat="42.1112587" lon="13.4808508"><ele>1096.6666666666667</ele><time>2026-05-02T14:50:43.285Z</time></trkpt><trkpt lat="42.1113029" lon="13.4806073"><ele>1097.0</ele><time>2026-05-02T14:50:44.288Z</time></trkpt><trkpt lat="42.1113306" lon="13.4803788"><ele>1097.6666666666667</ele><time>2026-05-02T14:50:45.291Z</time></trkpt><trkpt lat="42.1113487" lon="13.4801912"><ele>1098.3333333333333</ele><time>2026-05-02T14:50:46.29Z</time></trkpt><trkpt lat="42.1113556" lon="13.4799761"><ele>1099.0</ele><time>2026-05-02T14:50:47.301Z</time></trkpt><trkpt lat="42.1113317" lon="13.4797424"><ele>1102.0</ele><time>2026-05-02T14:50:48.287Z</time></trkpt><trkpt lat="42.1113053" lon="13.4795133"><ele>1105.0</ele><time>2026-05-02T14:50:49.288Z</time></trkpt><trkpt lat="42.1112418" lon="13.4793114"><ele>1108.0</ele><time>2026-05-02T14:50:50.291Z</time></trkpt><trkpt lat="42.1111876" lon="13.4791086"><ele>1108.0</ele><time>2026-05-02T14:50:51.291Z</time></trkpt><trkpt lat="42.1111302" lon="13.4789066"><ele>1108.0</ele><time>2026-05-02T14:50:52.291Z</time></trkpt><trkpt lat="42.1110818" lon="13.4786938"><ele>1108.0</ele><time>2026-05-02T14:50:53.297Z</time></trkpt><trkpt lat="42.1110499" lon="13.4784712"><ele>1108.6666666666665</ele><time>2026-05-02T14:50:54.293Z</time></trkpt><trkpt lat="42.111003" lon="13.4782627"><ele>1109.3333333333333</ele><time>2026-05-02T14:50:55.288Z</time></trkpt><trkpt lat="42.1109914" lon="13.4780413"><ele>1110.0</ele><time>2026-05-02T14:50:56.294Z</time></trkpt><trkpt lat="42.1109871" lon="13.4778074"><ele>1110.0</ele><time>2026-05-02T14:50:57.299Z</time></trkpt><trkpt lat="42.1109684" lon="13.4775834"><ele>1110.0</ele><time>2026-05-02T14:50:58.291Z</time></trkpt><trkpt lat="42.1109245" lon="13.4773731"><ele>1110.0</ele><time>2026-05-02T14:50:59.289Z</time></trkpt><trkpt lat="42.1108554" lon="13.4771817"><ele>1112.3333333333333</ele><time>2026-05-02T14:51:00.293Z</time></trkpt><trkpt lat="42.1107743" lon="13.4769928"><ele>1114.6666666666665</ele><time>2026-05-02T14:51:01.291Z</time></trkpt><trkpt lat="42.110689" lon="13.4768015"><ele>1117.0</ele><time>2026-05-02T14:51:02.297Z</time></trkpt><trkpt lat="42.1105764" lon="13.4766071"><ele>1112.0</ele><time>2026-05-02T14:51:03.287Z</time></trkpt><trkpt lat="42.110472" lon="13.4764245"><ele>1107.0</ele><time>2026-05-02T14:51:04.293Z</time></trkpt><trkpt lat="42.1103789" lon="13.4762289"><ele>1102.0</ele><time>2026-05-02T14:51:05.287Z</time></trkpt><trkpt lat="42.1103056" lon="13.4760181"><ele>1102.0</ele><time>2026-05-02T14:51:06.288Z</time></trkpt><trkpt lat="42.1102494" lon="13.4757883"><ele>1102.0</ele><time>2026-05-02T14:51:07.292Z</time></trkpt><trkpt lat="42.1102104" lon="13.4755578"><ele>1102.0</ele><time>2026-05-02T14:51:08.292Z</time></trkpt><trkpt lat="42.1101774" lon="13.475323"><ele>1101.6666666666665</ele><time>2026-05-02T14:51:09.29Z</time></trkpt><trkpt lat="42.1101505" lon="13.4750901"><ele>1101.3333333333333</ele><time>2026-05-02T14:51:10.289Z</time></trkpt><trkpt lat="42.1100903" lon="13.4748556"><ele>1101.0</ele><time>2026-05-02T14:51:11.285Z</time></trkpt><trkpt lat="42.1100053" lon="13.4746267"><ele>1102.0</ele><time>2026-05-02T14:51:12.289Z</time></trkpt><trkpt lat="42.1099195" lon="13.4743911"><ele>1103.0</ele><time>2026-05-02T14:51:13.29Z</time></trkpt><trkpt lat="42.1098276" lon="13.4741616"><ele>1104.0</ele><time>2026-05-02T14:51:14.288Z</time></trkpt><trkpt lat="42.1097331" lon="13.4739312"><ele>1100.6666666666667</ele><time>2026-05-02T14:51:15.286Z</time></trkpt><trkpt lat="42.109641" lon="13.4737017"><ele>1097.3333333333335</ele><time>2026-05-02T14:51:16.285Z</time></trkpt><trkpt lat="42.1095425" lon="13.473487"><ele>1094.0</ele><time>2026-05-02T14:51:17.298Z</time></trkpt><trkpt lat="42.1094397" lon="13.4732777"><ele>1094.0</ele><time>2026-05-02T14:51:18.298Z</time></trkpt><trkpt lat="42.1093571" lon="13.4730617"><ele>1094.0</ele><time>2026-05-02T14:51:19.295Z</time></trkpt><trkpt lat="42.1092653" lon="13.4728407"><ele>1094.0</ele><time>2026-05-02T14:51:20.296Z</time></trkpt><trkpt lat="42.1091931" lon="13.472604"><ele>1095.0</ele><time>2026-05-02T14:51:21.3Z</time></trkpt><trkpt lat="42.109128" lon="13.4723791"><ele>1096.0</ele><time>2026-05-02T14:51:22.298Z</time></trkpt><trkpt lat="42.1090869" lon="13.4721643"><ele>1097.0</ele><time>2026-05-02T14:51:23.302Z</time></trkpt><trkpt lat="42.109029" lon="13.471959"><ele>1094.6666666666667</ele><time>2026-05-02T14:51:24.293Z</time></trkpt><trkpt lat="42.1089778" lon="13.4717402"><ele>1092.3333333333333</ele><time>2026-05-02T14:51:25.289Z</time></trkpt><trkpt lat="42.1089119" lon="13.471526"><ele>1090.0</ele><time>2026-05-02T14:51:26.301Z</time></trkpt><trkpt lat="42.1088751" lon="13.4713156"><ele>1090.3333333333333</ele><time>2026-05-02T14:51:27.294Z</time></trkpt><trkpt lat="42.1088499" lon="13.4710773"><ele>1090.6666666666667</ele><time>2026-05-02T14:51:28.3Z</time></trkpt><trkpt lat="42.1088485" lon="13.4708382"><ele>1091.0</ele><time>2026-05-02T14:51:29.31Z</time></trkpt><trkpt lat="42.1088458" lon="13.4706094"><ele>1089.6666666666667</ele><time>2026-05-02T14:51:30.302Z</time></trkpt><trkpt lat="42.1088757" lon="13.4703854"><ele>1088.3333333333333</ele><time>2026-05-02T14:51:31.29Z</time></trkpt><trkpt lat="42.1088675" lon="13.4701521"><ele>1087.0</ele><time>2026-05-02T14:51:32.292Z</time></trkpt><trkpt lat="42.1088507" lon="13.4699186"><ele>1087.0</ele><time>2026-05-02T14:51:33.284Z</time></trkpt><trkpt lat="42.1087935" lon="13.4696919"><ele>1087.0</ele><time>2026-05-02T14:51:34.288Z</time></trkpt><trkpt lat="42.108718" lon="13.4694443"><ele>1087.0</ele><time>2026-05-02T14:51:35.287Z</time></trkpt><trkpt lat="42.1086333" lon="13.4691827"><ele>1086.6666666666665</ele><time>2026-05-02T14:51:36.288Z</time></trkpt><trkpt lat="42.1085538" lon="13.4689424"><ele>1086.3333333333333</ele><time>2026-05-02T14:51:37.287Z</time></trkpt><trkpt lat="42.1084714" lon="13.468709"><ele>1086.0</ele><time>2026-05-02T14:51:38.288Z</time></trkpt><trkpt lat="42.1083797" lon="13.4684729"><ele>1086.6666666666667</ele><time>2026-05-02T14:51:39.287Z</time></trkpt><trkpt lat="42.1082937" lon="13.4682604"><ele>1087.3333333333335</ele><time>2026-05-02T14:51:40.29Z</time></trkpt><trkpt lat="42.1082211" lon="13.4680631"><ele>1088.0</ele><time>2026-05-02T14:51:41.288Z</time></trkpt><trkpt lat="42.1081473" lon="13.4678557"><ele>1088.0</ele><time>2026-05-02T14:51:42.294Z</time></trkpt><trkpt lat="42.1080792" lon="13.4676597"><ele>1088.0</ele><time>2026-05-02T14:51:43.295Z</time></trkpt><trkpt lat="42.1080011" lon="13.4674603"><ele>1088.0</ele><time>2026-05-02T14:51:44.289Z</time></trkpt><trkpt lat="42.1079326" lon="13.4672439"><ele>1089.6666666666667</ele><time>2026-05-02T14:51:45.291Z</time></trkpt><trkpt lat="42.1078555" lon="13.4670404"><ele>1091.3333333333333</ele><time>2026-05-02T14:51:46.293Z</time></trkpt><trkpt lat="42.1077782" lon="13.4668329"><ele>1093.0</ele><time>2026-05-02T14:51:47.296Z</time></trkpt><trkpt lat="42.1077042" lon="13.4666212"><ele>1093.0</ele><time>2026-05-02T14:51:48.292Z</time></trkpt><trkpt lat="42.1076313" lon="13.4664189"><ele>1093.0</ele><time>2026-05-02T14:51:49.289Z</time></trkpt><trkpt lat="42.1075538" lon="13.4662094"><ele>1093.0</ele><time>2026-05-02T14:51:50.294Z</time></trkpt><trkpt lat="42.1074916" lon="13.4660177"><ele>1094.0</ele><time>2026-05-02T14:51:51.295Z</time></trkpt><trkpt lat="42.1074305" lon="13.4658189"><ele>1095.0</ele><time>2026-05-02T14:51:52.289Z</time></trkpt><trkpt lat="42.1073993" lon="13.4656115"><ele>1096.0</ele><time>2026-05-02T14:51:53.293Z</time></trkpt><trkpt lat="42.1073894" lon="13.4654003"><ele>1098.6666666666665</ele><time>2026-05-02T14:51:54.29Z</time></trkpt><trkpt lat="42.1074136" lon="13.4652023"><ele>1101.3333333333333</ele><time>2026-05-02T14:51:55.286Z</time></trkpt><trkpt lat="42.1074485" lon="13.4650008"><ele>1104.0</ele><time>2026-05-02T14:51:56.285Z</time></trkpt><trkpt lat="42.1075136" lon="13.4647981"><ele>1102.3333333333333</ele><time>2026-05-02T14:51:57.292Z</time></trkpt><trkpt lat="42.1075951" lon="13.4646097"><ele>1100.6666666666665</ele><time>2026-05-02T14:51:58.29Z</time></trkpt><trkpt lat="42.1076933" lon="13.4644324"><ele>1099.0</ele><time>2026-05-02T14:51:59.289Z</time></trkpt><trkpt lat="42.1077992" lon="13.4642734"><ele>1099.0</ele><time>2026-05-02T14:52:00.302Z</time></trkpt><trkpt lat="42.1078902" lon="13.4640901"><ele>1099.0</ele><time>2026-05-02T14:52:01.298Z</time></trkpt><trkpt lat="42.1079888" lon="13.4638926"><ele>1099.0</ele><time>2026-05-02T14:52:02.293Z</time></trkpt><trkpt lat="42.1080916" lon="13.4636969"><ele>1099.0</ele><time>2026-05-02T14:52:03.293Z</time></trkpt><trkpt lat="42.1081975" lon="13.4634888"><ele>1099.0</ele><time>2026-05-02T14:52:04.295Z</time></trkpt><trkpt lat="42.1083011" lon="13.4632865"><ele>1099.0</ele><time>2026-05-02T14:52:05.311Z</time></trkpt><trkpt lat="42.1083918" lon="13.4630896"><ele>1102.0</ele><time>2026-05-02T14:52:06.378Z</time></trkpt><trkpt lat="42.1084728" lon="13.462902"><ele>1105.0</ele><time>2026-05-02T14:52:07.379Z</time></trkpt><trkpt lat="42.1085394" lon="13.4627354"><ele>1108.0</ele><time>2026-05-02T14:52:08.383Z</time></trkpt><trkpt lat="42.1085937" lon="13.4625701"><ele>1111.0</ele><time>2026-05-02T14:52:09.378Z</time></trkpt><trkpt lat="42.1086338" lon="13.4624304"><ele>1111.0</ele><time>2026-05-02T14:52:10.385Z</time></trkpt><trkpt lat="42.1086706" lon="13.4622977"><ele>1111.0</ele><time>2026-05-02T14:52:11.397Z</time></trkpt><trkpt lat="42.1086996" lon="13.4621812"><ele>1111.0</ele><time>2026-05-02T14:52:12.397Z</time></trkpt><trkpt lat="42.108722" lon="13.4620942"><ele>1111.0</ele><time>2026-05-02T14:52:13.378Z</time></trkpt><trkpt lat="42.1087564" lon="13.4619664"><ele>1111.0</ele><time>2026-05-02T14:52:15.381Z</time></trkpt><trkpt lat="42.1087641" lon="13.4618795"><ele>1111.0</ele><time>2026-05-02T14:52:17.397Z</time></trkpt><trkpt lat="42.1087635" lon="13.4617821"><ele>1111.1666666666665</ele><time>2026-05-02T14:52:19.397Z</time></trkpt><trkpt lat="42.1087667" lon="13.4616962"><ele>1111.3333333333333</ele><time>2026-05-02T14:52:23.308Z</time></trkpt><trkpt lat="42.1087553" lon="13.4615898"><ele>1111.5</ele><time>2026-05-02T14:52:28.313Z</time></trkpt><trkpt lat="42.10875" lon="13.4614922"><ele>1111.6666666666667</ele><time>2026-05-02T14:52:30.314Z</time></trkpt><trkpt lat="42.1087216" lon="13.4613873"><ele>1111.8333333333335</ele><time>2026-05-02T14:52:32.312Z</time></trkpt><trkpt lat="42.1086959" lon="13.4612739"><ele>1112.0</ele><time>2026-05-02T14:52:35.31Z</time></trkpt><trkpt lat="42.1086677" lon="13.4611784"><ele>1110.8333333333335</ele><time>2026-05-02T14:52:37.313Z</time></trkpt><trkpt lat="42.1086438" lon="13.4610657"><ele>1109.6666666666667</ele><time>2026-05-02T14:52:39.311Z</time></trkpt><trkpt lat="42.1086158" lon="13.4609588"><ele>1108.5</ele><time>2026-05-02T14:52:41.312Z</time></trkpt><trkpt lat="42.1085941" lon="13.4608464"><ele>1107.3333333333333</ele><time>2026-05-02T14:52:43.314Z</time></trkpt><trkpt lat="42.1085778" lon="13.4607276"><ele>1106.1666666666665</ele><time>2026-05-02T14:52:45.313Z</time></trkpt><trkpt lat="42.108564" lon="13.4606134"><ele>1105.0</ele><time>2026-05-02T14:52:47.312Z</time></trkpt><trkpt lat="42.108536" lon="13.4604702"><ele>1102.6</ele><time>2026-05-02T14:52:49.296Z</time></trkpt><trkpt lat="42.1084998" lon="13.4603534"><ele>1100.2</ele><time>2026-05-02T14:52:51.3Z</time></trkpt><trkpt lat="42.1084404" lon="13.4602276"><ele>1097.8</ele><time>2026-05-02T14:52:53.304Z</time></trkpt><trkpt lat="42.1084199" lon="13.4601069"><ele>1095.4</ele><time>2026-05-02T14:52:55.293Z</time></trkpt><trkpt lat="42.1085003" lon="13.4599919"><ele>1093.0</ele><time>2026-05-02T14:52:57.301Z</time></trkpt><trkpt lat="42.1085515" lon="13.4599323"><ele>1093.0</ele><time>2026-05-02T14:52:58.299Z</time></trkpt><trkpt lat="42.1086082" lon="13.4598015"><ele>1093.0</ele><time>2026-05-02T14:53:00.296Z</time></trkpt><trkpt lat="42.1085954" lon="13.4596464"><ele>1093.0</ele><time>2026-05-02T14:53:02.303Z</time></trkpt><trkpt lat="42.1085554" lon="13.4595092"><ele>1093.0</ele><time>2026-05-02T14:53:04.304Z</time></trkpt><trkpt lat="42.1085381" lon="13.4594239"><ele>1093.0</ele><time>2026-05-02T14:53:05.301Z</time></trkpt><trkpt lat="42.1085229" lon="13.4592703"><ele>1090.25</ele><time>2026-05-02T14:53:07.303Z</time></trkpt><trkpt lat="42.1085142" lon="13.4591235"><ele>1087.5</ele><time>2026-05-02T14:53:09.301Z</time></trkpt><trkpt lat="42.1085141" lon="13.458953"><ele>1084.75</ele><time>2026-05-02T14:53:11.303Z</time></trkpt><trkpt lat="42.1085168" lon="13.4587979"><ele>1082.0</ele><time>2026-05-02T14:53:13.305Z</time></trkpt><trkpt lat="42.1085365" lon="13.4586653"><ele>1079.75</ele><time>2026-05-02T14:53:15.302Z</time></trkpt><trkpt lat="42.1085591" lon="13.4585183"><ele>1077.5</ele><time>2026-05-02T14:53:17.305Z</time></trkpt><trkpt lat="42.1085645" lon="13.4583649"><ele>1075.25</ele><time>2026-05-02T14:53:19.296Z</time></trkpt><trkpt lat="42.1085811" lon="13.4582156"><ele>1073.0</ele><time>2026-05-02T14:53:21.305Z</time></trkpt><trkpt lat="42.1085699" lon="13.4580466"><ele>1071.5</ele><time>2026-05-02T14:53:23.303Z</time></trkpt><trkpt lat="42.1085748" lon="13.4579467"><ele>1070.0</ele><time>2026-05-02T14:53:24.297Z</time></trkpt><trkpt lat="42.1085971" lon="13.4578367"><ele>1068.5</ele><time>2026-05-02T14:53:25.298Z</time></trkpt><trkpt lat="42.1086288" lon="13.4577416"><ele>1067.0</ele><time>2026-05-02T14:53:26.302Z</time></trkpt><trkpt lat="42.1086706" lon="13.4576407"><ele>1065.5</ele><time>2026-05-02T14:53:27.302Z</time></trkpt><trkpt lat="42.1086888" lon="13.4575316"><ele>1064.0</ele><time>2026-05-02T14:53:28.294Z</time></trkpt><trkpt lat="42.1086919" lon="13.4574296"><ele>1064.0</ele><time>2026-05-02T14:53:29.289Z</time></trkpt><trkpt lat="42.1086816" lon="13.4573212"><ele>1064.0</ele><time>2026-05-02T14:53:30.301Z</time></trkpt><trkpt lat="42.1086712" lon="13.4572104"><ele>1064.0</ele><time>2026-05-02T14:53:31.298Z</time></trkpt><trkpt lat="42.10866" lon="13.4570885"><ele>1064.0</ele><time>2026-05-02T14:53:32.301Z</time></trkpt><trkpt lat="42.1086612" lon="13.4569659"><ele>1064.0</ele><time>2026-05-02T14:53:33.294Z</time></trkpt><trkpt lat="42.1086651" lon="13.456854"><ele>1064.0</ele><time>2026-05-02T14:53:34.298Z</time></trkpt><trkpt lat="42.10867" lon="13.456745"><ele>1062.3333333333335</ele><time>2026-05-02T14:53:35.295Z</time></trkpt><trkpt lat="42.1086723" lon="13.4566357"><ele>1060.6666666666667</ele><time>2026-05-02T14:53:36.301Z</time></trkpt><trkpt lat="42.1086701" lon="13.4565267"><ele>1059.0</ele><time>2026-05-02T14:53:37.299Z</time></trkpt><trkpt lat="42.1086659" lon="13.4564369"><ele>1057.3333333333333</ele><time>2026-05-02T14:53:38.297Z</time></trkpt><trkpt lat="42.1086426" lon="13.4562602"><ele>1055.6666666666665</ele><time>2026-05-02T14:53:40.295Z</time></trkpt><trkpt lat="42.1086321" lon="13.4561692"><ele>1054.0</ele><time>2026-05-02T14:53:41.294Z</time></trkpt><trkpt lat="42.1086009" lon="13.4560074"><ele>1052.8333333333333</ele><time>2026-05-02T14:53:43.293Z</time></trkpt><trkpt lat="42.1085716" lon="13.4559195"><ele>1051.6666666666665</ele><time>2026-05-02T14:53:44.298Z</time></trkpt><trkpt lat="42.1085358" lon="13.4558464"><ele>1050.5</ele><time>2026-05-02T14:53:45.301Z</time></trkpt><trkpt lat="42.1085019" lon="13.4557583"><ele>1049.3333333333333</ele><time>2026-05-02T14:53:46.3Z</time></trkpt><trkpt lat="42.1084783" lon="13.455619"><ele>1048.1666666666667</ele><time>2026-05-02T14:53:48.306Z</time></trkpt><trkpt lat="42.1084648" lon="13.4554513"><ele>1047.0</ele><time>2026-05-02T14:53:50.307Z</time></trkpt><trkpt lat="42.1084633" lon="13.4553619"><ele>1046.0</ele><time>2026-05-02T14:53:51.292Z</time></trkpt><trkpt lat="42.1084415" lon="13.4552771"><ele>1045.0</ele><time>2026-05-02T14:53:52.302Z</time></trkpt><trkpt lat="42.1084187" lon="13.4551866"><ele>1044.0</ele><time>2026-05-02T14:53:53.298Z</time></trkpt><trkpt lat="42.1084015" lon="13.4551037"><ele>1043.0</ele><time>2026-05-02T14:53:54.302Z</time></trkpt><trkpt lat="42.1083849" lon="13.4549345"><ele>1042.0</ele><time>2026-05-02T14:53:56.301Z</time></trkpt><trkpt lat="42.1083663" lon="13.4548461"><ele>1041.0</ele><time>2026-05-02T14:53:57.304Z</time></trkpt><trkpt lat="42.1083436" lon="13.4547535"><ele>1041.0</ele><time>2026-05-02T14:53:58.305Z</time></trkpt><trkpt lat="42.1083321" lon="13.4546584"><ele>1041.0</ele><time>2026-05-02T14:53:59.295Z</time></trkpt><trkpt lat="42.108321" lon="13.4545603"><ele>1041.0</ele><time>2026-05-02T14:54:00.305Z</time></trkpt><trkpt lat="42.1083186" lon="13.4544649"><ele>1041.0</ele><time>2026-05-02T14:54:01.3Z</time></trkpt><trkpt lat="42.1083113" lon="13.4543534"><ele>1041.0</ele><time>2026-05-02T14:54:02.302Z</time></trkpt><trkpt lat="42.1082859" lon="13.4542429"><ele>1041.0</ele><time>2026-05-02T14:54:03.301Z</time></trkpt><trkpt lat="42.1082719" lon="13.4541306"><ele>1040.1666666666667</ele><time>2026-05-02T14:54:04.301Z</time></trkpt><trkpt lat="42.1082616" lon="13.4540329"><ele>1039.3333333333333</ele><time>2026-05-02T14:54:05.304Z</time></trkpt><trkpt lat="42.1082631" lon="13.4539297"><ele>1038.5</ele><time>2026-05-02T14:54:06.301Z</time></trkpt><trkpt lat="42.1082572" lon="13.4537999"><ele>1037.6666666666665</ele><time>2026-05-02T14:54:07.298Z</time></trkpt><trkpt lat="42.1082533" lon="13.4536798"><ele>1036.8333333333333</ele><time>2026-05-02T14:54:08.301Z</time></trkpt><trkpt lat="42.108238" lon="13.4535617"><ele>1036.0</ele><time>2026-05-02T14:54:09.301Z</time></trkpt><trkpt lat="42.108218" lon="13.4534416"><ele>1032.8</ele><time>2026-05-02T14:54:10.294Z</time></trkpt><trkpt lat="42.1081894" lon="13.4533139"><ele>1029.6</ele><time>2026-05-02T14:54:11.296Z</time></trkpt><trkpt lat="42.1081552" lon="13.4531871"><ele>1026.4</ele><time>2026-05-02T14:54:12.301Z</time></trkpt><trkpt lat="42.1081181" lon="13.4530692"><ele>1023.2</ele><time>2026-05-02T14:54:13.304Z</time></trkpt><trkpt lat="42.1080862" lon="13.4529438"><ele>1020.0</ele><time>2026-05-02T14:54:14.298Z</time></trkpt><trkpt lat="42.1080563" lon="13.4528252"><ele>1018.8</ele><time>2026-05-02T14:54:15.302Z</time></trkpt><trkpt lat="42.1080478" lon="13.4527037"><ele>1017.6</ele><time>2026-05-02T14:54:16.294Z</time></trkpt><trkpt lat="42.1080523" lon="13.4525678"><ele>1016.4000000000001</ele><time>2026-05-02T14:54:17.306Z</time></trkpt><trkpt lat="42.1080559" lon="13.4524122"><ele>1015.2</ele><time>2026-05-02T14:54:18.302Z</time></trkpt><trkpt lat="42.1080582" lon="13.4522583"><ele>1014.0</ele><time>2026-05-02T14:54:19.302Z</time></trkpt><trkpt lat="42.1080616" lon="13.4521279"><ele>1014.0</ele><time>2026-05-02T14:54:20.298Z</time></trkpt><trkpt lat="42.1080596" lon="13.4520117"><ele>1014.0</ele><time>2026-05-02T14:54:21.307Z</time></trkpt><trkpt lat="42.108043" lon="13.4519037"><ele>1014.0</ele><time>2026-05-02T14:54:22.302Z</time></trkpt><trkpt lat="42.1080069" lon="13.4517965"><ele>1014.0</ele><time>2026-05-02T14:54:23.305Z</time></trkpt><trkpt lat="42.1079731" lon="13.4516863"><ele>1014.0</ele><time>2026-05-02T14:54:24.302Z</time></trkpt><trkpt lat="42.1079528" lon="13.4515796"><ele>1014.0</ele><time>2026-05-02T14:54:25.3Z</time></trkpt><trkpt lat="42.1079502" lon="13.451477"><ele>1014.0</ele><time>2026-05-02T14:54:26.301Z</time></trkpt><trkpt lat="42.1079317" lon="13.4513284"><ele>1014.0000000000001</ele><time>2026-05-02T14:54:28.302Z</time></trkpt><trkpt lat="42.1078687" lon="13.4511865"><ele>1014.0000000000001</ele><time>2026-05-02T14:54:30.294Z</time></trkpt><trkpt lat="42.1078317" lon="13.4510775"><ele>1014.0</ele><time>2026-05-02T14:54:31.292Z</time></trkpt><trkpt lat="42.1077862" lon="13.4509612"><ele>1014.0</ele><time>2026-05-02T14:54:32.293Z</time></trkpt><trkpt lat="42.1077373" lon="13.4508651"><ele>1013.8333333333334</ele><time>2026-05-02T14:54:33.289Z</time></trkpt><trkpt lat="42.1076984" lon="13.4507775"><ele>1013.6666666666667</ele><time>2026-05-02T14:54:34.294Z</time></trkpt><trkpt lat="42.1076616" lon="13.45069"><ele>1013.5</ele><time>2026-05-02T14:54:35.296Z</time></trkpt><trkpt lat="42.107618" lon="13.4505949"><ele>1013.3333333333334</ele><time>2026-05-02T14:54:36.293Z</time></trkpt><trkpt lat="42.1075786" lon="13.4504969"><ele>1013.1666666666667</ele><time>2026-05-02T14:54:37.293Z</time></trkpt><trkpt lat="42.1075316" lon="13.4503758"><ele>1013.0</ele><time>2026-05-02T14:54:38.301Z</time></trkpt><trkpt lat="42.1074857" lon="13.4502744"><ele>1012.3333333333334</ele><time>2026-05-02T14:54:39.288Z</time></trkpt><trkpt lat="42.1074366" lon="13.4501761"><ele>1011.6666666666667</ele><time>2026-05-02T14:54:40.287Z</time></trkpt><trkpt lat="42.1073892" lon="13.4500871"><ele>1011.0</ele><time>2026-05-02T14:54:41.302Z</time></trkpt><trkpt lat="42.1073396" lon="13.4500029"><ele>1010.3333333333333</ele><time>2026-05-02T14:54:42.3Z</time></trkpt><trkpt lat="42.1072969" lon="13.4499191"><ele>1009.6666666666666</ele><time>2026-05-02T14:54:43.303Z</time></trkpt><trkpt lat="42.1072577" lon="13.4498364"><ele>1009.0</ele><time>2026-05-02T14:54:44.303Z</time></trkpt><trkpt lat="42.1072167" lon="13.4497547"><ele>1008.3333333333333</ele><time>2026-05-02T14:54:45.3Z</time></trkpt><trkpt lat="42.1071795" lon="13.44967"><ele>1007.6666666666666</ele><time>2026-05-02T14:54:46.302Z</time></trkpt><trkpt lat="42.1071388" lon="13.4495911"><ele>1007.0</ele><time>2026-05-02T14:54:47.305Z</time></trkpt><trkpt lat="42.1070897" lon="13.4495171"><ele>1006.3333333333333</ele><time>2026-05-02T14:54:48.301Z</time></trkpt><trkpt lat="42.1070443" lon="13.4494335"><ele>1005.6666666666666</ele><time>2026-05-02T14:54:49.29Z</time></trkpt><trkpt lat="42.1069925" lon="13.4493244"><ele>1005.0</ele><time>2026-05-02T14:54:50.293Z</time></trkpt><trkpt lat="42.1069554" lon="13.4492158"><ele>1004.4</ele><time>2026-05-02T14:54:51.292Z</time></trkpt><trkpt lat="42.1069156" lon="13.4491079"><ele>1003.8</ele><time>2026-05-02T14:54:52.294Z</time></trkpt><trkpt lat="42.1068816" lon="13.4490061"><ele>1003.2</ele><time>2026-05-02T14:54:53.29Z</time></trkpt><trkpt lat="42.1068388" lon="13.4489057"><ele>1002.6</ele><time>2026-05-02T14:54:54.298Z</time></trkpt><trkpt lat="42.1067948" lon="13.4487964"><ele>1002.0</ele><time>2026-05-02T14:54:55.295Z</time></trkpt><trkpt lat="42.1067402" lon="13.4486632"><ele>1001.6</ele><time>2026-05-02T14:54:56.291Z</time></trkpt><trkpt lat="42.1066846" lon="13.4485232"><ele>1001.2</ele><time>2026-05-02T14:54:57.299Z</time></trkpt><trkpt lat="42.1066384" lon="13.448383"><ele>1000.8</ele><time>2026-05-02T14:54:58.3Z</time></trkpt><trkpt lat="42.1065967" lon="13.4482694"><ele>1000.4</ele><time>2026-05-02T14:54:59.302Z</time></trkpt><trkpt lat="42.1065456" lon="13.4481697"><ele>1000.0</ele><time>2026-05-02T14:55:00.299Z</time></trkpt><trkpt lat="42.1064955" lon="13.4480846"><ele>998.9999999999999</ele><time>2026-05-02T14:55:01.295Z</time></trkpt><trkpt lat="42.1064309" lon="13.4480493"><ele>998.0</ele><time>2026-05-02T14:55:02.286Z</time></trkpt><trkpt lat="42.106359" lon="13.4480251"><ele>997.0</ele><time>2026-05-02T14:55:03.294Z</time></trkpt><trkpt lat="42.1062738" lon="13.4480092"><ele>996.0</ele><time>2026-05-02T14:55:04.302Z</time></trkpt><trkpt lat="42.1061866" lon="13.4479935"><ele>994.9999999999999</ele><time>2026-05-02T14:55:05.304Z</time></trkpt><trkpt lat="42.1061054" lon="13.4479691"><ele>994.0</ele><time>2026-05-02T14:55:06.304Z</time></trkpt><trkpt lat="42.1060359" lon="13.4479402"><ele>993.6666666666666</ele><time>2026-05-02T14:55:07.3Z</time></trkpt><trkpt lat="42.1059726" lon="13.4478923"><ele>993.3333333333333</ele><time>2026-05-02T14:55:08.301Z</time></trkpt><trkpt lat="42.1059112" lon="13.4478139"><ele>993.0</ele><time>2026-05-02T14:55:10.296Z</time></trkpt><trkpt lat="42.1058838" lon="13.4476664"><ele>992.6666666666667</ele><time>2026-05-02T14:55:12.305Z</time></trkpt><trkpt lat="42.1058624" lon="13.4475734"><ele>992.3333333333334</ele><time>2026-05-02T14:55:13.297Z</time></trkpt><trkpt lat="42.1058247" lon="13.447457"><ele>992.0</ele><time>2026-05-02T14:55:14.299Z</time></trkpt><trkpt lat="42.1057963" lon="13.447324"><ele>992.0000000000001</ele><time>2026-05-02T14:55:15.307Z</time></trkpt><trkpt lat="42.1057646" lon="13.4471971"><ele>992.0</ele><time>2026-05-02T14:55:16.304Z</time></trkpt><trkpt lat="42.1057496" lon="13.4470872"><ele>992.0</ele><time>2026-05-02T14:55:17.302Z</time></trkpt><trkpt lat="42.1057324" lon="13.446996"><ele>992.0</ele><time>2026-05-02T14:55:18.307Z</time></trkpt><trkpt lat="42.1057222" lon="13.4469076"><ele>992.0000000000001</ele><time>2026-05-02T14:55:19.304Z</time></trkpt><trkpt lat="42.1057324" lon="13.44682"><ele>992.0</ele><time>2026-05-02T14:55:20.305Z</time></trkpt><trkpt lat="42.1057645" lon="13.4467424"><ele>991.0000000000001</ele><time>2026-05-02T14:55:21.302Z</time></trkpt><trkpt lat="42.1057988" lon="13.4466691"><ele>990.0</ele><time>2026-05-02T14:55:22.305Z</time></trkpt><trkpt lat="42.1058496" lon="13.4465351"><ele>989.0</ele><time>2026-05-02T14:55:24.307Z</time></trkpt><trkpt lat="42.1058496" lon="13.4463961"><ele>988.0</ele><time>2026-05-02T14:55:26.309Z</time></trkpt><trkpt lat="42.1058078" lon="13.4462653"><ele>987.0000000000001</ele><time>2026-05-02T14:55:28.303Z</time></trkpt><trkpt lat="42.1057678" lon="13.4461979"><ele>986.0</ele><time>2026-05-02T14:55:29.307Z</time></trkpt><trkpt lat="42.1056877" lon="13.4460667"><ele>984.5000000000001</ele><time>2026-05-02T14:55:31.305Z</time></trkpt><trkpt lat="42.1056342" lon="13.4459276"><ele>983.0</ele><time>2026-05-02T14:55:33.299Z</time></trkpt><trkpt lat="42.1056047" lon="13.4458389"><ele>981.5</ele><time>2026-05-02T14:55:34.305Z</time></trkpt><trkpt lat="42.1055676" lon="13.4457452"><ele>980.0</ele><time>2026-05-02T14:55:35.302Z</time></trkpt><trkpt lat="42.1055244" lon="13.4456528"><ele>978.5000000000001</ele><time>2026-05-02T14:55:36.305Z</time></trkpt><trkpt lat="42.105479" lon="13.4455641"><ele>977.0</ele><time>2026-05-02T14:55:37.304Z</time></trkpt><trkpt lat="42.1054395" lon="13.4454753"><ele>977.0</ele><time>2026-05-02T14:55:38.304Z</time></trkpt><trkpt lat="42.1053935" lon="13.4453588"><ele>977.0</ele><time>2026-05-02T14:55:39.297Z</time></trkpt><trkpt lat="42.1053544" lon="13.4452397"><ele>977.0</ele><time>2026-05-02T14:55:40.301Z</time></trkpt><trkpt lat="42.1053228" lon="13.4451185"><ele>977.0</ele><time>2026-05-02T14:55:41.313Z</time></trkpt><trkpt lat="42.105288" lon="13.4449938"><ele>977.0</ele><time>2026-05-02T14:55:42.309Z</time></trkpt><trkpt lat="42.1052388" lon="13.444874"><ele>977.0</ele><time>2026-05-02T14:55:43.313Z</time></trkpt><trkpt lat="42.1051891" lon="13.4447463"><ele>977.0</ele><time>2026-05-02T14:55:44.319Z</time></trkpt><trkpt lat="42.1051424" lon="13.4446131"><ele>977.0</ele><time>2026-05-02T14:55:45.312Z</time></trkpt><trkpt lat="42.1050937" lon="13.4444792"><ele>977.0</ele><time>2026-05-02T14:55:46.315Z</time></trkpt><trkpt lat="42.105041" lon="13.4443354"><ele>977.0</ele><time>2026-05-02T14:55:47.316Z</time></trkpt><trkpt lat="42.104988" lon="13.4441894"><ele>976.5</ele><time>2026-05-02T14:55:48.315Z</time></trkpt><trkpt lat="42.1049325" lon="13.4440444"><ele>976.0</ele><time>2026-05-02T14:55:49.316Z</time></trkpt><trkpt lat="42.1048741" lon="13.4439131"><ele>975.5</ele><time>2026-05-02T14:55:50.302Z</time></trkpt><trkpt lat="42.104804" lon="13.4437857"><ele>975.0</ele><time>2026-05-02T14:55:51.298Z</time></trkpt><trkpt lat="42.1047237" lon="13.443677"><ele>974.5</ele><time>2026-05-02T14:55:52.304Z</time></trkpt><trkpt lat="42.1046621" lon="13.4435821"><ele>974.0</ele><time>2026-05-02T14:55:53.298Z</time></trkpt><trkpt lat="42.1046158" lon="13.443458"><ele>973.5</ele><time>2026-05-02T14:55:54.296Z</time></trkpt><trkpt lat="42.1045716" lon="13.4433012"><ele>973.0</ele><time>2026-05-02T14:55:55.304Z</time></trkpt><trkpt lat="42.10451" lon="13.4431373"><ele>973.0</ele><time>2026-05-02T14:55:56.302Z</time></trkpt><trkpt lat="42.1044349" lon="13.4429857"><ele>973.0</ele><time>2026-05-02T14:55:57.296Z</time></trkpt><trkpt lat="42.1043533" lon="13.4428572"><ele>973.0</ele><time>2026-05-02T14:55:58.306Z</time></trkpt><trkpt lat="42.1042734" lon="13.442731"><ele>973.0</ele><time>2026-05-02T14:55:59.299Z</time></trkpt><trkpt lat="42.1041959" lon="13.4426072"><ele>973.0</ele><time>2026-05-02T14:56:00.309Z</time></trkpt><trkpt lat="42.1041358" lon="13.4424803"><ele>973.0</ele><time>2026-05-02T14:56:01.304Z</time></trkpt><trkpt lat="42.1040731" lon="13.4423378"><ele>973.0</ele><time>2026-05-02T14:56:02.303Z</time></trkpt><trkpt lat="42.1040195" lon="13.4421904"><ele>973.0</ele><time>2026-05-02T14:56:03.301Z</time></trkpt><trkpt lat="42.1039617" lon="13.442032"><ele>972.25</ele><time>2026-05-02T14:56:04.303Z</time></trkpt><trkpt lat="42.1039004" lon="13.4418649"><ele>971.5</ele><time>2026-05-02T14:56:05.299Z</time></trkpt><trkpt lat="42.103835" lon="13.4416951"><ele>970.75</ele><time>2026-05-02T14:56:06.299Z</time></trkpt><trkpt lat="42.1037572" lon="13.4415411"><ele>970.0</ele><time>2026-05-02T14:56:07.3Z</time></trkpt><trkpt lat="42.1036652" lon="13.4414064"><ele>970.75</ele><time>2026-05-02T14:56:08.299Z</time></trkpt><trkpt lat="42.1035649" lon="13.4412794"><ele>971.5</ele><time>2026-05-02T14:56:09.301Z</time></trkpt><trkpt lat="42.1034793" lon="13.4411601"><ele>972.25</ele><time>2026-05-02T14:56:10.292Z</time></trkpt><trkpt lat="42.1034196" lon="13.4410286"><ele>973.0</ele><time>2026-05-02T14:56:11.298Z</time></trkpt><trkpt lat="42.1033543" lon="13.4409219"><ele>973.0</ele><time>2026-05-02T14:56:12.3Z</time></trkpt><trkpt lat="42.1033051" lon="13.440815"><ele>973.0</ele><time>2026-05-02T14:56:13.299Z</time></trkpt><trkpt lat="42.1032616" lon="13.4407028"><ele>973.0</ele><time>2026-05-02T14:56:14.298Z</time></trkpt><trkpt lat="42.1032152" lon="13.4406107"><ele>973.0</ele><time>2026-05-02T14:56:15.304Z</time></trkpt><trkpt lat="42.1031599" lon="13.4405243"><ele>973.0</ele><time>2026-05-02T14:56:16.308Z</time></trkpt><trkpt lat="42.1030938" lon="13.440425"><ele>972.75</ele><time>2026-05-02T14:56:17.308Z</time></trkpt><trkpt lat="42.1030082" lon="13.4403223"><ele>972.5</ele><time>2026-05-02T14:56:18.314Z</time></trkpt><trkpt lat="42.1029176" lon="13.4402194"><ele>972.25</ele><time>2026-05-02T14:56:19.311Z</time></trkpt><trkpt lat="42.1028193" lon="13.4401261"><ele>972.0</ele><time>2026-05-02T14:56:20.306Z</time></trkpt><trkpt lat="42.1027146" lon="13.4400608"><ele>972.0</ele><time>2026-05-02T14:56:21.302Z</time></trkpt><trkpt lat="42.1026089" lon="13.4400253"><ele>972.0</ele><time>2026-05-02T14:56:22.299Z</time></trkpt><trkpt lat="42.1025168" lon="13.4399865"><ele>972.0</ele><time>2026-05-02T14:56:23.31Z</time></trkpt><trkpt lat="42.1024392" lon="13.4399315"><ele>972.0</ele><time>2026-05-02T14:56:24.298Z</time></trkpt><trkpt lat="42.1023626" lon="13.4398648"><ele>972.0</ele><time>2026-05-02T14:56:25.296Z</time></trkpt><trkpt lat="42.1022825" lon="13.4397669"><ele>971.75</ele><time>2026-05-02T14:56:26.301Z</time></trkpt><trkpt lat="42.1022008" lon="13.4396563"><ele>971.5</ele><time>2026-05-02T14:56:27.298Z</time></trkpt><trkpt lat="42.1021211" lon="13.4395255"><ele>971.25</ele><time>2026-05-02T14:56:28.306Z</time></trkpt><trkpt lat="42.1020383" lon="13.4393972"><ele>971.0</ele><time>2026-05-02T14:56:29.3Z</time></trkpt><trkpt lat="42.101958" lon="13.4392672"><ele>972.25</ele><time>2026-05-02T14:56:30.309Z</time></trkpt><trkpt lat="42.1018745" lon="13.4391476"><ele>973.5</ele><time>2026-05-02T14:56:31.3Z</time></trkpt><trkpt lat="42.1017827" lon="13.4390355"><ele>974.75</ele><time>2026-05-02T14:56:32.302Z</time></trkpt><trkpt lat="42.1016908" lon="13.4389113"><ele>976.0</ele><time>2026-05-02T14:56:33.299Z</time></trkpt><trkpt lat="42.1016042" lon="13.4387985"><ele>975.75</ele><time>2026-05-02T14:56:34.304Z</time></trkpt><trkpt lat="42.1015256" lon="13.4386714"><ele>975.5</ele><time>2026-05-02T14:56:35.301Z</time></trkpt><trkpt lat="42.1014465" lon="13.4385424"><ele>975.25</ele><time>2026-05-02T14:56:36.304Z</time></trkpt><trkpt lat="42.1013652" lon="13.438407"><ele>975.0</ele><time>2026-05-02T14:56:37.301Z</time></trkpt><trkpt lat="42.1012923" lon="13.4382647"><ele>975.0</ele><time>2026-05-02T14:56:38.307Z</time></trkpt><trkpt lat="42.1012203" lon="13.4381328"><ele>975.0</ele><time>2026-05-02T14:56:39.308Z</time></trkpt><trkpt lat="42.1011322" lon="13.4379984"><ele>975.0</ele><time>2026-05-02T14:56:40.305Z</time></trkpt><trkpt lat="42.1010455" lon="13.4378614"><ele>975.0</ele><time>2026-05-02T14:56:41.301Z</time></trkpt><trkpt lat="42.1009598" lon="13.4377215"><ele>975.0</ele><time>2026-05-02T14:56:42.301Z</time></trkpt><trkpt lat="42.1008898" lon="13.4375928"><ele>975.0</ele><time>2026-05-02T14:56:43.301Z</time></trkpt><trkpt lat="42.1008298" lon="13.4374889"><ele>975.0</ele><time>2026-05-02T14:56:44.294Z</time></trkpt><trkpt lat="42.1007819" lon="13.4374157"><ele>975.0</ele><time>2026-05-02T14:56:45.299Z</time></trkpt><trkpt lat="42.1007154" lon="13.4372942"><ele>975.0</ele><time>2026-05-02T14:56:47.309Z</time></trkpt><trkpt lat="42.1006418" lon="13.4371567"><ele>974.4</ele><time>2026-05-02T14:56:49.299Z</time></trkpt><trkpt lat="42.1005903" lon="13.4370578"><ele>973.8</ele><time>2026-05-02T14:56:50.297Z</time></trkpt><trkpt lat="42.1005358" lon="13.4369593"><ele>973.2</ele><time>2026-05-02T14:56:51.304Z</time></trkpt><trkpt lat="42.1004795" lon="13.43686"><ele>972.6</ele><time>2026-05-02T14:56:52.307Z</time></trkpt><trkpt lat="42.1004285" lon="13.4367623"><ele>972.0</ele><time>2026-05-02T14:56:53.305Z</time></trkpt><trkpt lat="42.1003879" lon="13.4366555"><ele>972.0</ele><time>2026-05-02T14:56:54.304Z</time></trkpt><trkpt lat="42.1003367" lon="13.4365487"><ele>972.0</ele><time>2026-05-02T14:56:55.301Z</time></trkpt><trkpt lat="42.1002806" lon="13.4364376"><ele>972.0</ele><time>2026-05-02T14:56:56.303Z</time></trkpt><trkpt lat="42.1002223" lon="13.4363225"><ele>972.0</ele><time>2026-05-02T14:56:57.311Z</time></trkpt><trkpt lat="42.1001607" lon="13.4362064"><ele>972.0</ele><time>2026-05-02T14:56:58.302Z</time></trkpt><trkpt lat="42.1001069" lon="13.4360815"><ele>972.0</ele><time>2026-05-02T14:56:59.3Z</time></trkpt><trkpt lat="42.1000552" lon="13.4359402"><ele>972.0</ele><time>2026-05-02T14:57:00.305Z</time></trkpt><trkpt lat="42.1000058" lon="13.4358017"><ele>972.0</ele><time>2026-05-02T14:57:01.296Z</time></trkpt><trkpt lat="42.0999541" lon="13.4356585"><ele>972.0</ele><time>2026-05-02T14:57:02.305Z</time></trkpt><trkpt lat="42.0999066" lon="13.4355246"><ele>972.4000000000001</ele><time>2026-05-02T14:57:03.301Z</time></trkpt><trkpt lat="42.0998611" lon="13.4354076"><ele>972.8000000000001</ele><time>2026-05-02T14:57:04.299Z</time></trkpt><trkpt lat="42.0998255" lon="13.4353019"><ele>973.2</ele><time>2026-05-02T14:57:05.301Z</time></trkpt><trkpt lat="42.0997905" lon="13.4352027"><ele>973.6</ele><time>2026-05-02T14:57:06.299Z</time></trkpt><trkpt lat="42.0997583" lon="13.4350905"><ele>974.0</ele><time>2026-05-02T14:57:07.298Z</time></trkpt><trkpt lat="42.0997223" lon="13.434969"><ele>974.0</ele><time>2026-05-02T14:57:08.303Z</time></trkpt><trkpt lat="42.099678" lon="13.4348529"><ele>974.0000000000001</ele><time>2026-05-02T14:57:09.298Z</time></trkpt><trkpt lat="42.0996364" lon="13.4347373"><ele>974.0000000000001</ele><time>2026-05-02T14:57:10.296Z</time></trkpt><trkpt lat="42.0995893" lon="13.4346237"><ele>974.0</ele><time>2026-05-02T14:57:11.295Z</time></trkpt><trkpt lat="42.0995332" lon="13.4345119"><ele>974.0</ele><time>2026-05-02T14:57:12.299Z</time></trkpt><trkpt lat="42.099483" lon="13.4344012"><ele>974.2</ele><time>2026-05-02T14:57:13.3Z</time></trkpt><trkpt lat="42.0994411" lon="13.4343044"><ele>974.4000000000001</ele><time>2026-05-02T14:57:14.305Z</time></trkpt><trkpt lat="42.0993962" lon="13.4341658"><ele>974.6</ele><time>2026-05-02T14:57:16.302Z</time></trkpt><trkpt lat="42.099385" lon="13.4340332"><ele>974.8</ele><time>2026-05-02T14:57:18.303Z</time></trkpt><trkpt lat="42.0993723" lon="13.4339307"><ele>975.0</ele><time>2026-05-02T14:57:20.31Z</time></trkpt><trkpt lat="42.0992861" lon="13.4337974"><ele>974.25</ele><time>2026-05-02T14:57:22.308Z</time></trkpt><trkpt lat="42.0992017" lon="13.4337071"><ele>973.5</ele><time>2026-05-02T14:57:23.308Z</time></trkpt><trkpt lat="42.0991075" lon="13.4336313"><ele>972.75</ele><time>2026-05-02T14:57:24.314Z</time></trkpt><trkpt lat="42.0990118" lon="13.4335307"><ele>972.0</ele><time>2026-05-02T14:57:25.31Z</time></trkpt><trkpt lat="42.098903" lon="13.4334186"><ele>972.0</ele><time>2026-05-02T14:57:26.314Z</time></trkpt><trkpt lat="42.0987874" lon="13.4333141"><ele>972.0</ele><time>2026-05-02T14:57:27.317Z</time></trkpt><trkpt lat="42.0986738" lon="13.4332081"><ele>972.0</ele><time>2026-05-02T14:57:28.321Z</time></trkpt><trkpt lat="42.098567" lon="13.4330925"><ele>972.0</ele><time>2026-05-02T14:57:29.313Z</time></trkpt><trkpt lat="42.0984659" lon="13.4329836"><ele>971.4000000000001</ele><time>2026-05-02T14:57:30.321Z</time></trkpt><trkpt lat="42.0983755" lon="13.4328926"><ele>970.8000000000001</ele><time>2026-05-02T14:57:31.312Z</time></trkpt><trkpt lat="42.0982888" lon="13.4328152"><ele>970.2</ele><time>2026-05-02T14:57:32.318Z</time></trkpt><trkpt lat="42.0982124" lon="13.4327388"><ele>969.6</ele><time>2026-05-02T14:57:33.318Z</time></trkpt><trkpt lat="42.0981419" lon="13.4326693"><ele>969.0</ele><time>2026-05-02T14:57:34.318Z</time></trkpt><trkpt lat="42.0980801" lon="13.4326046"><ele>969.0</ele><time>2026-05-02T14:57:35.318Z</time></trkpt><trkpt lat="42.0980215" lon="13.4325468"><ele>969.0</ele><time>2026-05-02T14:57:36.313Z</time></trkpt><trkpt lat="42.0979591" lon="13.4324916"><ele>969.0</ele><time>2026-05-02T14:57:37.314Z</time></trkpt><trkpt lat="42.0978972" lon="13.432396"><ele>969.0</ele><time>2026-05-02T14:57:39.319Z</time></trkpt><trkpt lat="42.0979355" lon="13.4323208"><ele>969.0</ele><time>2026-05-02T14:57:41.326Z</time></trkpt><trkpt lat="42.0980107" lon="13.4322514"><ele>969.0</ele><time>2026-05-02T14:57:44.319Z</time></trkpt><trkpt lat="42.0981276" lon="13.4322747"><ele>969.0</ele><time>2026-05-02T14:57:46.312Z</time></trkpt><trkpt lat="42.0981999" lon="13.4323217"><ele>969.0</ele><time>2026-05-02T14:57:47.307Z</time></trkpt><trkpt lat="42.0982697" lon="13.4323873"><ele>969.0</ele><time>2026-05-02T14:57:48.312Z</time></trkpt><trkpt lat="42.0983418" lon="13.4324558"><ele>969.0</ele><time>2026-05-02T14:57:49.313Z</time></trkpt><trkpt lat="42.0984103" lon="13.4325162"><ele>969.0</ele><time>2026-05-02T14:57:50.315Z</time></trkpt><trkpt lat="42.0984758" lon="13.4325742"><ele>969.0</ele><time>2026-05-02T14:57:51.319Z</time></trkpt><trkpt lat="42.0985449" lon="13.4326266"><ele>968.0</ele><time>2026-05-02T14:57:52.316Z</time></trkpt><trkpt lat="42.0986063" lon="13.4326817"><ele>967.0</ele><time>2026-05-02T14:57:53.313Z</time></trkpt><trkpt lat="42.0986675" lon="13.4327521"><ele>966.0</ele><time>2026-05-02T14:57:54.313Z</time></trkpt><trkpt lat="42.0987409" lon="13.4328162"><ele>965.0</ele><time>2026-05-02T14:57:55.318Z</time></trkpt><trkpt lat="42.09883" lon="13.4328647"><ele>964.0</ele><time>2026-05-02T14:57:56.315Z</time></trkpt><trkpt lat="42.0989238" lon="13.4329111"><ele>963.0</ele><time>2026-05-02T14:57:57.312Z</time></trkpt><trkpt lat="42.0990129" lon="13.4329523"><ele>964.0</ele><time>2026-05-02T14:57:58.31Z</time></trkpt><trkpt lat="42.0990979" lon="13.4329697"><ele>965.0</ele><time>2026-05-02T14:57:59.315Z</time></trkpt><trkpt lat="42.0991646" lon="13.4329793"><ele>966.0</ele><time>2026-05-02T14:58:00.31Z</time></trkpt><trkpt lat="42.0992285" lon="13.4329911"><ele>967.0</ele><time>2026-05-02T14:58:01.31Z</time></trkpt><trkpt lat="42.0993247" lon="13.4330436"><ele>968.0</ele><time>2026-05-02T14:58:03.316Z</time></trkpt><trkpt lat="42.0993985" lon="13.4331003"><ele>969.0</ele><time>2026-05-02T14:58:05.317Z</time></trkpt><trkpt lat="42.0994906" lon="13.4330866"><ele>969.0</ele><time>2026-05-02T14:58:07.326Z</time></trkpt><trkpt lat="42.0995562" lon="13.4330528"><ele>969.0</ele><time>2026-05-02T14:58:09.323Z</time></trkpt><trkpt lat="42.0996502" lon="13.4330004"><ele>969.0</ele><time>2026-05-02T14:58:12.323Z</time></trkpt><trkpt lat="42.0997387" lon="13.432949"><ele>969.0</ele><time>2026-05-02T14:58:14.319Z</time></trkpt><trkpt lat="42.0998176" lon="13.4329064"><ele>969.0</ele><time>2026-05-02T14:58:16.315Z</time></trkpt><trkpt lat="42.0998735" lon="13.4328664"><ele>969.0</ele><time>2026-05-02T14:58:18.315Z</time></trkpt><trkpt lat="42.0999449" lon="13.4328019"><ele>965.8333333333334</ele><time>2026-05-02T14:58:20.313Z</time></trkpt><trkpt lat="42.1000187" lon="13.4327073"><ele>962.6666666666667</ele><time>2026-05-02T14:58:22.299Z</time></trkpt><trkpt lat="42.1000978" lon="13.4325936"><ele>959.5</ele><time>2026-05-02T14:58:24.307Z</time></trkpt><trkpt lat="42.1001557" lon="13.4324958"><ele>956.3333333333334</ele><time>2026-05-02T14:58:26.299Z</time></trkpt><trkpt lat="42.1001879" lon="13.4324136"><ele>953.1666666666667</ele><time>2026-05-02T15:00:12.304Z</time></trkpt><trkpt lat="42.1002188" lon="13.4323382"><ele>950.0</ele><time>2026-05-02T15:00:17.306Z</time></trkpt><trkpt lat="42.1002513" lon="13.4322621"><ele>950.0</ele><time>2026-05-02T15:00:22.303Z</time></trkpt><trkpt lat="42.1002995" lon="13.4321948"><ele>950.0000000000001</ele><time>2026-05-02T15:00:55.301Z</time></trkpt><trkpt lat="42.1003406" lon="13.432119"><ele>950.0</ele><time>2026-05-02T15:01:03.307Z</time></trkpt><trkpt lat="42.1002857" lon="13.4320545"><ele>950.0</ele><time>2026-05-02T15:01:30.332Z</time></trkpt><trkpt lat="42.1002174" lon="13.4320192"><ele>950.0000000000001</ele><time>2026-05-02T15:01:37.313Z</time></trkpt><trkpt lat="42.1001573" lon="13.4319428"><ele>950.0</ele><time>2026-05-02T15:01:40.312Z</time></trkpt><trkpt lat="42.1001156" lon="13.4318657"><ele>950.0</ele><time>2026-05-02T15:01:43.308Z</time></trkpt><trkpt lat="42.1002857" lon="13.4320545"><ele>949.3333333333334</ele><time>2026-05-02T15:01:30.332Z</time></trkpt><trkpt lat="42.1002174" lon="13.4320192"><ele>948.6666666666667</ele><time>2026-05-02T15:01:37.313Z</time></trkpt><trkpt lat="42.1001573" lon="13.4319428"><ele>948.0</ele><time>2026-05-02T15:01:40.312Z</time></trkpt><trkpt lat="42.1001156" lon="13.4318657"><ele>947.3333333333333</ele><time>2026-05-02T15:01:43.308Z</time></trkpt><trkpt lat="42.1000358" lon="13.43188"><ele>946.6666666666666</ele><time>2026-05-02T15:01:59.31Z</time></trkpt><trkpt lat="42.0999678" lon="13.431919"><ele>946.0</ele><time>2026-05-02T15:02:01.302Z</time></trkpt><trkpt lat="42.0999064" lon="13.431968"><ele>944.8333333333333</ele><time>2026-05-02T15:02:03.299Z</time></trkpt><trkpt lat="42.0998385" lon="13.4319956"><ele>943.6666666666666</ele><time>2026-05-02T15:02:06.3Z</time></trkpt><trkpt lat="42.0997662" lon="13.4320506"><ele>942.5</ele><time>2026-05-02T15:02:25.318Z</time></trkpt><trkpt lat="42.0997049" lon="13.4320986"><ele>941.3333333333333</ele><time>2026-05-02T15:02:27.317Z</time></trkpt><trkpt lat="42.0996374" lon="13.4321039"><ele>940.1666666666666</ele><time>2026-05-02T15:02:34.313Z</time></trkpt><trkpt lat="42.0995733" lon="13.4321048"><ele>939.0</ele><time>2026-05-02T15:02:36.301Z</time></trkpt><trkpt lat="42.0994519" lon="13.4320917"><ele>939.0</ele><time>2026-05-02T15:02:38.313Z</time></trkpt><trkpt lat="42.0993907" lon="13.4320658"><ele>939.0</ele><time>2026-05-02T15:02:39.3Z</time></trkpt><trkpt lat="42.0993235" lon="13.4320287"><ele>939.0</ele><time>2026-05-02T15:02:40.298Z</time></trkpt><trkpt lat="42.0992383" lon="13.4319796"><ele>939.0</ele><time>2026-05-02T15:02:41.29Z</time></trkpt><trkpt lat="42.0991438" lon="13.4319328"><ele>939.0</ele><time>2026-05-02T15:02:42.308Z</time></trkpt><trkpt lat="42.0990651" lon="13.43187"><ele>939.0</ele><time>2026-05-02T15:02:43.379Z</time></trkpt><trkpt lat="42.0989861" lon="13.4317879"><ele>940.5</ele><time>2026-05-02T15:02:44.369Z</time></trkpt><trkpt lat="42.0989036" lon="13.4316926"><ele>942.0</ele><time>2026-05-02T15:02:45.372Z</time></trkpt><trkpt lat="42.0988185" lon="13.4315906"><ele>943.5</ele><time>2026-05-02T15:02:46.367Z</time></trkpt><trkpt lat="42.098728" lon="13.4314838"><ele>945.0</ele><time>2026-05-02T15:02:47.363Z</time></trkpt><trkpt lat="42.0986354" lon="13.431373"><ele>943.0</ele><time>2026-05-02T15:02:48.373Z</time></trkpt><trkpt lat="42.0985332" lon="13.4312627"><ele>941.0</ele><time>2026-05-02T15:02:49.365Z</time></trkpt><trkpt lat="42.098439" lon="13.4311628"><ele>939.0</ele><time>2026-05-02T15:02:50.375Z</time></trkpt><trkpt lat="42.0983681" lon="13.4310239"><ele>937.0</ele><time>2026-05-02T15:02:51.291Z</time></trkpt><trkpt lat="42.0982897" lon="13.4309338"><ele>937.4999999999999</ele><time>2026-05-02T15:02:52.292Z</time></trkpt><trkpt lat="42.0982324" lon="13.4308378"><ele>938.0</ele><time>2026-05-02T15:02:53.29Z</time></trkpt><trkpt lat="42.0981838" lon="13.4307415"><ele>938.5</ele><time>2026-05-02T15:02:54.287Z</time></trkpt><trkpt lat="42.0981303" lon="13.4306439"><ele>939.0</ele><time>2026-05-02T15:02:55.292Z</time></trkpt><trkpt lat="42.0980662" lon="13.430572"><ele>939.4999999999999</ele><time>2026-05-02T15:02:56.292Z</time></trkpt><trkpt lat="42.0980085" lon="13.430481"><ele>940.0</ele><time>2026-05-02T15:02:57.292Z</time></trkpt><trkpt lat="42.0979535" lon="13.4303849"><ele>940.0</ele><time>2026-05-02T15:02:58.291Z</time></trkpt><trkpt lat="42.097904" lon="13.4302618"><ele>940.0</ele><time>2026-05-02T15:02:59.295Z</time></trkpt><trkpt lat="42.0978484" lon="13.4301442"><ele>940.0</ele><time>2026-05-02T15:03:00.295Z</time></trkpt><trkpt lat="42.0977882" lon="13.4300184"><ele>940.0</ele><time>2026-05-02T15:03:01.294Z</time></trkpt><trkpt lat="42.0977379" lon="13.4298836"><ele>940.0</ele><time>2026-05-02T15:03:02.293Z</time></trkpt><trkpt lat="42.0976925" lon="13.4297311"><ele>938.25</ele><time>2026-05-02T15:03:03.302Z</time></trkpt><trkpt lat="42.0976434" lon="13.429587"><ele>936.5</ele><time>2026-05-02T15:03:04.3Z</time></trkpt><trkpt lat="42.0975939" lon="13.4294406"><ele>934.75</ele><time>2026-05-02T15:03:05.294Z</time></trkpt><trkpt lat="42.0975579" lon="13.4292918"><ele>933.0</ele><time>2026-05-02T15:03:06.299Z</time></trkpt><trkpt lat="42.0975272" lon="13.4291373"><ele>933.0</ele><time>2026-05-02T15:03:07.291Z</time></trkpt><trkpt lat="42.0974985" lon="13.4289828"><ele>933.0</ele><time>2026-05-02T15:03:08.295Z</time></trkpt><trkpt lat="42.0974684" lon="13.4288206"><ele>933.0</ele><time>2026-05-02T15:03:09.299Z</time></trkpt><trkpt lat="42.0974308" lon="13.4286608"><ele>933.0</ele><time>2026-05-02T15:03:10.296Z</time></trkpt><trkpt lat="42.0973898" lon="13.4285106"><ele>933.1666666666666</ele><time>2026-05-02T15:03:11.291Z</time></trkpt><trkpt lat="42.0973552" lon="13.4283867"><ele>933.3333333333333</ele><time>2026-05-02T15:03:12.297Z</time></trkpt><trkpt lat="42.0973146" lon="13.4282811"><ele>933.5</ele><time>2026-05-02T15:03:13.305Z</time></trkpt><trkpt lat="42.0972847" lon="13.4281739"><ele>933.6666666666666</ele><time>2026-05-02T15:03:14.308Z</time></trkpt><trkpt lat="42.0972552" lon="13.4280709"><ele>933.8333333333333</ele><time>2026-05-02T15:03:15.295Z</time></trkpt><trkpt lat="42.0972378" lon="13.4279702"><ele>934.0</ele><time>2026-05-02T15:03:16.296Z</time></trkpt><trkpt lat="42.0972191" lon="13.4278711"><ele>934.0</ele><time>2026-05-02T15:03:17.298Z</time></trkpt><trkpt lat="42.0971955" lon="13.4277684"><ele>934.0000000000001</ele><time>2026-05-02T15:03:18.296Z</time></trkpt><trkpt lat="42.0971643" lon="13.4276433"><ele>934.0000000000001</ele><time>2026-05-02T15:03:19.299Z</time></trkpt><trkpt lat="42.0971542" lon="13.4275116"><ele>934.0</ele><time>2026-05-02T15:03:20.3Z</time></trkpt><trkpt lat="42.0971352" lon="13.4273738"><ele>934.0</ele><time>2026-05-02T15:03:21.297Z</time></trkpt><trkpt lat="42.0971143" lon="13.4272574"><ele>934.0</ele><time>2026-05-02T15:03:22.295Z</time></trkpt><trkpt lat="42.0970796" lon="13.4271482"><ele>934.0000000000001</ele><time>2026-05-02T15:03:23.291Z</time></trkpt><trkpt lat="42.0970538" lon="13.4270392"><ele>934.0000000000001</ele><time>2026-05-02T15:03:24.296Z</time></trkpt><trkpt lat="42.0970388" lon="13.4269132"><ele>934.0</ele><time>2026-05-02T15:03:25.293Z</time></trkpt><trkpt lat="42.0970101" lon="13.4267773"><ele>934.0</ele><time>2026-05-02T15:03:26.299Z</time></trkpt><trkpt lat="42.0969901" lon="13.4266282"><ele>932.6</ele><time>2026-05-02T15:03:27.303Z</time></trkpt><trkpt lat="42.0969754" lon="13.4264805"><ele>931.2</ele><time>2026-05-02T15:03:28.305Z</time></trkpt><trkpt lat="42.0969494" lon="13.4263421"><ele>929.8000000000001</ele><time>2026-05-02T15:03:29.295Z</time></trkpt><trkpt lat="42.0969353" lon="13.4261965"><ele>928.4000000000001</ele><time>2026-05-02T15:03:30.298Z</time></trkpt><trkpt lat="42.0969263" lon="13.4260654"><ele>927.0</ele><time>2026-05-02T15:03:31.289Z</time></trkpt><trkpt lat="42.0968946" lon="13.425936"><ele>926.0</ele><time>2026-05-02T15:03:32.291Z</time></trkpt><trkpt lat="42.096862" lon="13.4257964"><ele>925.0</ele><time>2026-05-02T15:03:33.288Z</time></trkpt><trkpt lat="42.0968288" lon="13.425638"><ele>924.0</ele><time>2026-05-02T15:03:34.291Z</time></trkpt><trkpt lat="42.0968017" lon="13.4254939"><ele>923.0</ele><time>2026-05-02T15:03:35.293Z</time></trkpt><trkpt lat="42.0967713" lon="13.4253534"><ele>922.0</ele><time>2026-05-02T15:03:36.291Z</time></trkpt><trkpt lat="42.0967205" lon="13.4252068"><ele>921.0</ele><time>2026-05-02T15:03:37.292Z</time></trkpt><trkpt lat="42.0966797" lon="13.4250453"><ele>920.0</ele><time>2026-05-02T15:03:38.292Z</time></trkpt><trkpt lat="42.0966363" lon="13.4248889"><ele>919.0</ele><time>2026-05-02T15:03:39.293Z</time></trkpt><trkpt lat="42.0965956" lon="13.4247415"><ele>919.5</ele><time>2026-05-02T15:03:40.297Z</time></trkpt><trkpt lat="42.0965357" lon="13.4245989"><ele>920.0</ele><time>2026-05-02T15:03:41.298Z</time></trkpt><trkpt lat="42.0964671" lon="13.4244529"><ele>920.5</ele><time>2026-05-02T15:03:42.3Z</time></trkpt><trkpt lat="42.096401" lon="13.4243102"><ele>921.0</ele><time>2026-05-02T15:03:43.297Z</time></trkpt><trkpt lat="42.0963331" lon="13.424189"><ele>921.0</ele><time>2026-05-02T15:03:44.295Z</time></trkpt><trkpt lat="42.0962587" lon="13.4240724"><ele>920.9999999999999</ele><time>2026-05-02T15:03:45.301Z</time></trkpt><trkpt lat="42.0961872" lon="13.423958"><ele>920.9999999999999</ele><time>2026-05-02T15:03:46.298Z</time></trkpt><trkpt lat="42.0961262" lon="13.4238535"><ele>921.0</ele><time>2026-05-02T15:03:47.307Z</time></trkpt><trkpt lat="42.0960597" lon="13.4237442"><ele>921.0</ele><time>2026-05-02T15:03:48.302Z</time></trkpt><trkpt lat="42.0960001" lon="13.4236313"><ele>922.1999999999999</ele><time>2026-05-02T15:03:49.301Z</time></trkpt><trkpt lat="42.095945" lon="13.4235197"><ele>923.3999999999999</ele><time>2026-05-02T15:03:50.302Z</time></trkpt><trkpt lat="42.0958911" lon="13.4233907"><ele>924.6</ele><time>2026-05-02T15:03:51.305Z</time></trkpt><trkpt lat="42.0958385" lon="13.423255"><ele>925.8</ele><time>2026-05-02T15:03:52.299Z</time></trkpt><trkpt lat="42.0957953" lon="13.4231224"><ele>927.0</ele><time>2026-05-02T15:03:53.3Z</time></trkpt><trkpt lat="42.0957496" lon="13.4229755"><ele>927.0</ele><time>2026-05-02T15:03:54.291Z</time></trkpt><trkpt lat="42.0957104" lon="13.4228555"><ele>927.0</ele><time>2026-05-02T15:03:55.299Z</time></trkpt><trkpt lat="42.095668" lon="13.4227375"><ele>927.0</ele><time>2026-05-02T15:03:56.299Z</time></trkpt><trkpt lat="42.0956456" lon="13.4226169"><ele>927.0</ele><time>2026-05-02T15:03:57.309Z</time></trkpt><trkpt lat="42.0956321" lon="13.42249"><ele>927.0</ele><time>2026-05-02T15:03:58.3Z</time></trkpt><trkpt lat="42.0956266" lon="13.4223403"><ele>927.0</ele><time>2026-05-02T15:03:59.298Z</time></trkpt><trkpt lat="42.0956123" lon="13.4221881"><ele>927.0</ele><time>2026-05-02T15:04:00.301Z</time></trkpt><trkpt lat="42.095612" lon="13.42202"><ele>927.0</ele><time>2026-05-02T15:04:01.296Z</time></trkpt><trkpt lat="42.0956033" lon="13.4218493"><ele>927.0</ele><time>2026-05-02T15:04:02.295Z</time></trkpt><trkpt lat="42.0955919" lon="13.4216818"><ele>925.75</ele><time>2026-05-02T15:04:03.298Z</time></trkpt><trkpt lat="42.0955874" lon="13.4214995"><ele>924.5</ele><time>2026-05-02T15:04:04.297Z</time></trkpt><trkpt lat="42.0955907" lon="13.4213237"><ele>923.25</ele><time>2026-05-02T15:04:05.297Z</time></trkpt><trkpt lat="42.0955792" lon="13.4211721"><ele>922.0</ele><time>2026-05-02T15:04:06.301Z</time></trkpt><trkpt lat="42.0955683" lon="13.4210129"><ele>920.0</ele><time>2026-05-02T15:04:07.317Z</time></trkpt><trkpt lat="42.0955628" lon="13.4208507"><ele>918.0</ele><time>2026-05-02T15:04:08.295Z</time></trkpt><trkpt lat="42.0955638" lon="13.4206816"><ele>916.0</ele><time>2026-05-02T15:04:09.303Z</time></trkpt><trkpt lat="42.0955655" lon="13.4205148"><ele>914.0</ele><time>2026-05-02T15:04:10.3Z</time></trkpt><trkpt lat="42.0955701" lon="13.4203601"><ele>913.8000000000001</ele><time>2026-05-02T15:04:11.309Z</time></trkpt><trkpt lat="42.0955615" lon="13.4202177"><ele>913.6000000000001</ele><time>2026-05-02T15:04:12.31Z</time></trkpt><trkpt lat="42.0955385" lon="13.4200773"><ele>913.4</ele><time>2026-05-02T15:04:13.307Z</time></trkpt><trkpt lat="42.0955172" lon="13.4199312"><ele>913.2</ele><time>2026-05-02T15:04:14.306Z</time></trkpt><trkpt lat="42.0954945" lon="13.4197904"><ele>913.0</ele><time>2026-05-02T15:04:15.298Z</time></trkpt><trkpt lat="42.0954882" lon="13.4196572"><ele>912.2</ele><time>2026-05-02T15:04:16.3Z</time></trkpt><trkpt lat="42.0954894" lon="13.4195265"><ele>911.4</ele><time>2026-05-02T15:04:17.307Z</time></trkpt><trkpt lat="42.0954867" lon="13.4193935"><ele>910.6000000000001</ele><time>2026-05-02T15:04:18.309Z</time></trkpt><trkpt lat="42.0954939" lon="13.4192494"><ele>909.8000000000001</ele><time>2026-05-02T15:04:19.304Z</time></trkpt><trkpt lat="42.0954994" lon="13.4191005"><ele>909.0</ele><time>2026-05-02T15:04:20.306Z</time></trkpt><trkpt lat="42.0955034" lon="13.4189527"><ele>908.0</ele><time>2026-05-02T15:04:21.311Z</time></trkpt><trkpt lat="42.0955068" lon="13.4188136"><ele>907.0000000000001</ele><time>2026-05-02T15:04:22.302Z</time></trkpt><trkpt lat="42.0955016" lon="13.4186927"><ele>906.0000000000001</ele><time>2026-05-02T15:04:23.305Z</time></trkpt><trkpt lat="42.0954959" lon="13.418578"><ele>905.0</ele><time>2026-05-02T15:04:24.302Z</time></trkpt><trkpt lat="42.0954925" lon="13.4184637"><ele>904.0</ele><time>2026-05-02T15:04:25.307Z</time></trkpt><trkpt lat="42.0954831" lon="13.4183426"><ele>904.0</ele><time>2026-05-02T15:04:26.303Z</time></trkpt><trkpt lat="42.0954788" lon="13.418192"><ele>904.0000000000001</ele><time>2026-05-02T15:04:27.309Z</time></trkpt><trkpt lat="42.0954797" lon="13.4180373"><ele>904.0000000000001</ele><time>2026-05-02T15:04:28.326Z</time></trkpt><trkpt lat="42.095482" lon="13.4178783"><ele>904.0</ele><time>2026-05-02T15:04:29.311Z</time></trkpt><trkpt lat="42.0954762" lon="13.4177397"><ele>904.0</ele><time>2026-05-02T15:04:30.302Z</time></trkpt><trkpt lat="42.095443" lon="13.4176181"><ele>903.0</ele><time>2026-05-02T15:04:31.293Z</time></trkpt><trkpt lat="42.0954019" lon="13.4174758"><ele>902.0000000000001</ele><time>2026-05-02T15:04:32.304Z</time></trkpt><trkpt lat="42.095362" lon="13.4173356"><ele>901.0000000000001</ele><time>2026-05-02T15:04:33.297Z</time></trkpt><trkpt lat="42.0953339" lon="13.4172131"><ele>900.0</ele><time>2026-05-02T15:04:34.309Z</time></trkpt><trkpt lat="42.0953082" lon="13.4170762"><ele>899.0</ele><time>2026-05-02T15:04:35.298Z</time></trkpt><trkpt lat="42.0952829" lon="13.4169371"><ele>898.0000000000001</ele><time>2026-05-02T15:04:36.308Z</time></trkpt><trkpt lat="42.095261" lon="13.4168062"><ele>897.0</ele><time>2026-05-02T15:04:37.297Z</time></trkpt><trkpt lat="42.0952398" lon="13.4166971"><ele>896.0</ele><time>2026-05-02T15:04:38.311Z</time></trkpt><trkpt lat="42.0952262" lon="13.4166106"><ele>895.0</ele><time>2026-05-02T15:04:39.299Z</time></trkpt><trkpt lat="42.095193" lon="13.4165159"><ele>894.0000000000001</ele><time>2026-05-02T15:04:42.303Z</time></trkpt><trkpt lat="42.0952418" lon="13.4164532"><ele>893.0</ele><time>2026-05-02T15:04:45.298Z</time></trkpt><trkpt lat="42.0953474" lon="13.4164372"><ele>893.0000000000001</ele><time>2026-05-02T15:04:47.301Z</time></trkpt><trkpt lat="42.0954151" lon="13.4164087"><ele>893.0</ele><time>2026-05-02T15:04:48.299Z</time></trkpt><trkpt lat="42.0954774" lon="13.4163449"><ele>893.0</ele><time>2026-05-02T15:04:49.286Z</time></trkpt><trkpt lat="42.0955342" lon="13.4162662"><ele>893.0</ele><time>2026-05-02T15:04:50.294Z</time></trkpt><trkpt lat="42.0955889" lon="13.416171"><ele>893.0000000000001</ele><time>2026-05-02T15:04:51.297Z</time></trkpt><trkpt lat="42.0956326" lon="13.4160697"><ele>893.0</ele><time>2026-05-02T15:04:52.301Z</time></trkpt><trkpt lat="42.0956599" lon="13.4159583"><ele>893.3333333333334</ele><time>2026-05-02T15:04:53.29Z</time></trkpt><trkpt lat="42.0956692" lon="13.4158398"><ele>893.6666666666667</ele><time>2026-05-02T15:04:54.292Z</time></trkpt><trkpt lat="42.0956676" lon="13.4157129"><ele>894.0</ele><time>2026-05-02T15:04:55.297Z</time></trkpt><trkpt lat="42.0956677" lon="13.4155936"><ele>894.3333333333333</ele><time>2026-05-02T15:04:56.291Z</time></trkpt><trkpt lat="42.0956786" lon="13.4154992"><ele>894.6666666666666</ele><time>2026-05-02T15:04:57.294Z</time></trkpt><trkpt lat="42.0957172" lon="13.4154195"><ele>895.0</ele><time>2026-05-02T15:04:58.303Z</time></trkpt><trkpt lat="42.0957735" lon="13.4153408"><ele>895.0</ele><time>2026-05-02T15:04:59.29Z</time></trkpt><trkpt lat="42.09584" lon="13.4152467"><ele>895.0</ele><time>2026-05-02T15:05:00.298Z</time></trkpt><trkpt lat="42.0959209" lon="13.4151547"><ele>895.0</ele><time>2026-05-02T15:05:01.293Z</time></trkpt><trkpt lat="42.0959964" lon="13.4150536"><ele>895.0</ele><time>2026-05-02T15:05:02.287Z</time></trkpt><trkpt lat="42.0960594" lon="13.4149768"><ele>895.0</ele><time>2026-05-02T15:05:03.292Z</time></trkpt><trkpt lat="42.096125" lon="13.4149064"><ele>895.0</ele><time>2026-05-02T15:05:04.296Z</time></trkpt><trkpt lat="42.0961973" lon="13.4148471"><ele>895.0</ele><time>2026-05-02T15:05:05.295Z</time></trkpt><trkpt lat="42.0962764" lon="13.4147959"><ele>895.0</ele><time>2026-05-02T15:05:06.296Z</time></trkpt><trkpt lat="42.0963617" lon="13.4147468"><ele>895.0</ele><time>2026-05-02T15:05:07.296Z</time></trkpt><trkpt lat="42.0964521" lon="13.4146937"><ele>895.0</ele><time>2026-05-02T15:05:08.307Z</time></trkpt><trkpt lat="42.0965468" lon="13.4146249"><ele>895.8</ele><time>2026-05-02T15:05:09.303Z</time></trkpt><trkpt lat="42.0966387" lon="13.4145582"><ele>896.6</ele><time>2026-05-02T15:05:10.298Z</time></trkpt><trkpt lat="42.0967311" lon="13.4145023"><ele>897.4000000000001</ele><time>2026-05-02T15:05:11.297Z</time></trkpt><trkpt lat="42.0968253" lon="13.4144553"><ele>898.2</ele><time>2026-05-02T15:05:12.294Z</time></trkpt><trkpt lat="42.0969158" lon="13.414406"><ele>899.0</ele><time>2026-05-02T15:05:13.297Z</time></trkpt><trkpt lat="42.0970139" lon="13.4143628"><ele>899.0</ele><time>2026-05-02T15:05:14.296Z</time></trkpt><trkpt lat="42.0971165" lon="13.4143303"><ele>899.0000000000001</ele><time>2026-05-02T15:05:15.299Z</time></trkpt><trkpt lat="42.0972094" lon="13.4142825"><ele>899.0000000000001</ele><time>2026-05-02T15:05:16.294Z</time></trkpt><trkpt lat="42.0972868" lon="13.4142169"><ele>899.0</ele><time>2026-05-02T15:05:17.286Z</time></trkpt><trkpt lat="42.0973634" lon="13.4141159"><ele>899.0</ele><time>2026-05-02T15:05:18.295Z</time></trkpt><trkpt lat="42.097425" lon="13.414012"><ele>898.6666666666667</ele><time>2026-05-02T15:05:19.299Z</time></trkpt><trkpt lat="42.097485" lon="13.4139315"><ele>898.3333333333334</ele><time>2026-05-02T15:05:20.298Z</time></trkpt><trkpt lat="42.0975695" lon="13.4138703"><ele>898.0</ele><time>2026-05-02T15:05:21.29Z</time></trkpt><trkpt lat="42.0976433" lon="13.4138387"><ele>897.6666666666667</ele><time>2026-05-02T15:05:22.297Z</time></trkpt><trkpt lat="42.0977115" lon="13.4138084"><ele>897.3333333333334</ele><time>2026-05-02T15:05:23.301Z</time></trkpt><trkpt lat="42.0977949" lon="13.4137855"><ele>897.0</ele><time>2026-05-02T15:05:24.298Z</time></trkpt><trkpt lat="42.0978865" lon="13.4137555"><ele>897.0</ele><time>2026-05-02T15:05:25.299Z</time></trkpt><trkpt lat="42.097973" lon="13.4137288"><ele>897.0</ele><time>2026-05-02T15:05:26.297Z</time></trkpt><trkpt lat="42.0980527" lon="13.4137217"><ele>897.0</ele><time>2026-05-02T15:05:27.298Z</time></trkpt><trkpt lat="42.0981238" lon="13.4137131"><ele>897.0</ele><time>2026-05-02T15:05:28.298Z</time></trkpt><trkpt lat="42.0981895" lon="13.4137279"><ele>897.0</ele><time>2026-05-02T15:05:29.291Z</time></trkpt><trkpt lat="42.0982637" lon="13.4137595"><ele>897.0</ele><time>2026-05-02T15:05:30.292Z</time></trkpt><trkpt lat="42.0983543" lon="13.4138041"><ele>897.8333333333334</ele><time>2026-05-02T15:05:31.293Z</time></trkpt><trkpt lat="42.0984423" lon="13.4138556"><ele>898.6666666666667</ele><time>2026-05-02T15:05:32.297Z</time></trkpt><trkpt lat="42.0985367" lon="13.4139099"><ele>899.5</ele><time>2026-05-02T15:05:33.293Z</time></trkpt><trkpt lat="42.098618" lon="13.4139599"><ele>900.3333333333334</ele><time>2026-05-02T15:05:34.293Z</time></trkpt><trkpt lat="42.0986942" lon="13.4139994"><ele>901.1666666666667</ele><time>2026-05-02T15:05:35.293Z</time></trkpt><trkpt lat="42.098763" lon="13.4140402"><ele>902.0</ele><time>2026-05-02T15:05:36.294Z</time></trkpt><trkpt lat="42.0988269" lon="13.4140878"><ele>902.0</ele><time>2026-05-02T15:05:37.292Z</time></trkpt><trkpt lat="42.0988847" lon="13.4141246"><ele>902.0</ele><time>2026-05-02T15:05:38.291Z</time></trkpt><trkpt lat="42.0989757" lon="13.4142032"><ele>902.0</ele><time>2026-05-02T15:05:40.297Z</time></trkpt><trkpt lat="42.0990628" lon="13.4143283"><ele>902.0</ele><time>2026-05-02T15:05:42.292Z</time></trkpt><trkpt lat="42.0991163" lon="13.4144061"><ele>902.0</ele><time>2026-05-02T15:05:43.297Z</time></trkpt><trkpt lat="42.0991657" lon="13.4144923"><ele>902.0000000000001</ele><time>2026-05-02T15:05:44.295Z</time></trkpt><trkpt lat="42.0992013" lon="13.4145655"><ele>902.0</ele><time>2026-05-02T15:05:45.288Z</time></trkpt><trkpt lat="42.0992372" lon="13.4146473"><ele>902.0</ele><time>2026-05-02T15:05:47.289Z</time></trkpt><trkpt lat="42.0993099" lon="13.4146358"><ele>902.0</ele><time>2026-05-02T15:05:51.293Z</time></trkpt><trkpt lat="42.0992622" lon="13.4145231"><ele>902.0000000000001</ele><time>2026-05-02T15:05:54.302Z</time></trkpt><trkpt lat="42.0991671" lon="13.4144556"><ele>902.0</ele><time>2026-05-02T15:05:56.305Z</time></trkpt><trkpt lat="42.099097" lon="13.4143853"><ele>902.0000000000001</ele><time>2026-05-02T15:05:58.306Z</time></trkpt><trkpt lat="42.0990513" lon="13.4143114"><ele>902.0</ele><time>2026-05-02T15:06:00.307Z</time></trkpt><trkpt lat="42.0989917" lon="13.4142225"><ele>902.0</ele><time>2026-05-02T15:06:03.304Z</time></trkpt><trkpt lat="42.0989301" lon="13.4141549"><ele>902.0</ele><time>2026-05-02T15:06:05.303Z</time></trkpt><trkpt lat="42.09886" lon="13.4140991"><ele>902.0000000000001</ele><time>2026-05-02T15:06:07.303Z</time></trkpt><trkpt lat="42.0987572" lon="13.4140373"><ele>902.0</ele><time>2026-05-02T15:06:09.296Z</time></trkpt><trkpt lat="42.0986918" lon="13.4139927"><ele>902.0</ele><time>2026-05-02T15:06:10.293Z</time></trkpt><trkpt lat="42.0986154" lon="13.4139427"><ele>902.0</ele><time>2026-05-02T15:06:11.302Z</time></trkpt><trkpt lat="42.0985307" lon="13.4138941"><ele>902.0</ele><time>2026-05-02T15:06:12.293Z</time></trkpt><trkpt lat="42.0984368" lon="13.4138429"><ele>902.0</ele><time>2026-05-02T15:06:13.299Z</time></trkpt><trkpt lat="42.0983462" lon="13.4137977"><ele>902.0</ele><time>2026-05-02T15:06:14.298Z</time></trkpt><trkpt lat="42.0982794" lon="13.4137484"><ele>901.2</ele><time>2026-05-02T15:06:15.284Z</time></trkpt><trkpt lat="42.0982134" lon="13.4136883"><ele>900.4000000000001</ele><time>2026-05-02T15:06:17.287Z</time></trkpt><trkpt lat="42.0982388" lon="13.413572"><ele>899.5999999999999</ele><time>2026-05-02T15:06:20.309Z</time></trkpt><trkpt lat="42.0982969" lon="13.4134671"><ele>898.8</ele><time>2026-05-02T15:06:22.295Z</time></trkpt><trkpt lat="42.0983884" lon="13.4134055"><ele>898.0</ele><time>2026-05-02T15:06:24.294Z</time></trkpt><trkpt lat="42.0984978" lon="13.4133504"><ele>897.9999999999999</ele><time>2026-05-02T15:06:26.29Z</time></trkpt><trkpt lat="42.0985752" lon="13.4132913"><ele>898.0</ele><time>2026-05-02T15:06:27.298Z</time></trkpt><trkpt lat="42.0986475" lon="13.4132312"><ele>898.0</ele><time>2026-05-02T15:06:28.298Z</time></trkpt><trkpt lat="42.0987018" lon="13.4131685"><ele>898.0</ele><time>2026-05-02T15:06:29.298Z</time></trkpt><trkpt lat="42.0987601" lon="13.4130963"><ele>897.9999999999999</ele><time>2026-05-02T15:06:30.301Z</time></trkpt><trkpt lat="42.0988053" lon="13.4130237"><ele>898.0</ele><time>2026-05-02T15:06:31.306Z</time></trkpt><trkpt lat="42.0988513" lon="13.4129649"><ele>897.4999999999999</ele><time>2026-05-02T15:06:32.296Z</time></trkpt><trkpt lat="42.0988972" lon="13.4128992"><ele>897.0</ele><time>2026-05-02T15:06:33.296Z</time></trkpt><trkpt lat="42.0989512" lon="13.4128284"><ele>896.5</ele><time>2026-05-02T15:06:34.296Z</time></trkpt><trkpt lat="42.0990233" lon="13.4127444"><ele>896.0</ele><time>2026-05-02T15:06:35.296Z</time></trkpt><trkpt lat="42.0990823" lon="13.4126523"><ele>895.4999999999999</ele><time>2026-05-02T15:06:36.296Z</time></trkpt><trkpt lat="42.0991365" lon="13.4125508"><ele>895.0</ele><time>2026-05-02T15:06:37.302Z</time></trkpt><trkpt lat="42.0991984" lon="13.4124446"><ele>894.8</ele><time>2026-05-02T15:06:38.293Z</time></trkpt><trkpt lat="42.0992616" lon="13.4123162"><ele>894.6</ele><time>2026-05-02T15:06:39.295Z</time></trkpt><trkpt lat="42.0993198" lon="13.4121902"><ele>894.4000000000001</ele><time>2026-05-02T15:06:40.299Z</time></trkpt><trkpt lat="42.0993553" lon="13.4120646"><ele>894.2</ele><time>2026-05-02T15:06:41.309Z</time></trkpt><trkpt lat="42.0993961" lon="13.4119411"><ele>894.0</ele><time>2026-05-02T15:06:42.295Z</time></trkpt><trkpt lat="42.0994641" lon="13.4118281"><ele>893.0</ele><time>2026-05-02T15:06:43.296Z</time></trkpt><trkpt lat="42.099546" lon="13.4117152"><ele>892.0000000000001</ele><time>2026-05-02T15:06:44.293Z</time></trkpt><trkpt lat="42.099616" lon="13.4116093"><ele>891.0000000000001</ele><time>2026-05-02T15:06:45.296Z</time></trkpt><trkpt lat="42.0996714" lon="13.4115142"><ele>890.0</ele><time>2026-05-02T15:06:46.289Z</time></trkpt><trkpt lat="42.0997214" lon="13.4114426"><ele>889.0</ele><time>2026-05-02T15:06:47.295Z</time></trkpt><trkpt lat="42.0997839" lon="13.4113929"><ele>888.9999999999999</ele><time>2026-05-02T15:06:48.279Z</time></trkpt><trkpt lat="42.0998595" lon="13.411369"><ele>889.0</ele><time>2026-05-02T15:06:49.294Z</time></trkpt><trkpt lat="42.0999309" lon="13.4113431"><ele>889.0</ele><time>2026-05-02T15:06:50.289Z</time></trkpt><trkpt lat="42.0999996" lon="13.4112966"><ele>889.0</ele><time>2026-05-02T15:06:51.292Z</time></trkpt><trkpt lat="42.1000508" lon="13.4112399"><ele>888.9999999999999</ele><time>2026-05-02T15:06:52.303Z</time></trkpt><trkpt lat="42.1000932" lon="13.4111581"><ele>889.0</ele><time>2026-05-02T15:06:53.293Z</time></trkpt><trkpt lat="42.1001446" lon="13.41107"><ele>888.3333333333333</ele><time>2026-05-02T15:06:54.298Z</time></trkpt><trkpt lat="42.100198" lon="13.4109981"><ele>887.6666666666666</ele><time>2026-05-02T15:06:55.297Z</time></trkpt><trkpt lat="42.1002499" lon="13.4109136"><ele>887.0</ele><time>2026-05-02T15:06:56.29Z</time></trkpt><trkpt lat="42.1002979" lon="13.4108065"><ele>886.3333333333333</ele><time>2026-05-02T15:06:57.294Z</time></trkpt><trkpt lat="42.100356" lon="13.4107046"><ele>885.6666666666666</ele><time>2026-05-02T15:06:58.297Z</time></trkpt><trkpt lat="42.1004163" lon="13.4106116"><ele>885.0</ele><time>2026-05-02T15:06:59.293Z</time></trkpt><trkpt lat="42.100461" lon="13.4105209"><ele>884.2</ele><time>2026-05-02T15:07:00.297Z</time></trkpt><trkpt lat="42.1005216" lon="13.4104325"><ele>883.4</ele><time>2026-05-02T15:07:01.293Z</time></trkpt><trkpt lat="42.1005859" lon="13.4103325"><ele>882.5999999999999</ele><time>2026-05-02T15:07:02.302Z</time></trkpt><trkpt lat="42.1006443" lon="13.4102134"><ele>881.8</ele><time>2026-05-02T15:07:03.296Z</time></trkpt><trkpt lat="42.1006931" lon="13.410088"><ele>881.0</ele><time>2026-05-02T15:07:04.298Z</time></trkpt><trkpt lat="42.1007313" lon="13.4099656"><ele>880.8</ele><time>2026-05-02T15:07:05.297Z</time></trkpt><trkpt lat="42.1007729" lon="13.4098546"><ele>880.5999999999999</ele><time>2026-05-02T15:07:06.298Z</time></trkpt><trkpt lat="42.1008126" lon="13.4097338"><ele>880.4</ele><time>2026-05-02T15:07:07.296Z</time></trkpt><trkpt lat="42.1008619" lon="13.4096064"><ele>880.2</ele><time>2026-05-02T15:07:08.293Z</time></trkpt><trkpt lat="42.1008985" lon="13.4094751"><ele>880.0</ele><time>2026-05-02T15:07:09.295Z</time></trkpt><trkpt lat="42.1009456" lon="13.4093391"><ele>879.0</ele><time>2026-05-02T15:07:10.292Z</time></trkpt><trkpt lat="42.1009959" lon="13.4091967"><ele>878.0</ele><time>2026-05-02T15:07:11.298Z</time></trkpt><trkpt lat="42.1010373" lon="13.4090681"><ele>877.0</ele><time>2026-05-02T15:07:12.306Z</time></trkpt><trkpt lat="42.10108" lon="13.4089538"><ele>876.0</ele><time>2026-05-02T15:07:13.296Z</time></trkpt><trkpt lat="42.1011324" lon="13.4088371"><ele>875.0</ele><time>2026-05-02T15:07:14.297Z</time></trkpt><trkpt lat="42.1011838" lon="13.4087101"><ele>874.0</ele><time>2026-05-02T15:07:15.294Z</time></trkpt><trkpt lat="42.101235" lon="13.4085728"><ele>873.0</ele><time>2026-05-02T15:07:16.299Z</time></trkpt><trkpt lat="42.1012846" lon="13.4084297"><ele>872.0</ele><time>2026-05-02T15:07:17.299Z</time></trkpt><trkpt lat="42.1013238" lon="13.4082935"><ele>871.0</ele><time>2026-05-02T15:07:18.299Z</time></trkpt><trkpt lat="42.101358" lon="13.4081663"><ele>870.0</ele><time>2026-05-02T15:07:19.299Z</time></trkpt><trkpt lat="42.1013949" lon="13.4080384"><ele>869.6</ele><time>2026-05-02T15:07:20.296Z</time></trkpt><trkpt lat="42.1014117" lon="13.4079089"><ele>869.2</ele><time>2026-05-02T15:07:21.304Z</time></trkpt><trkpt lat="42.1014408" lon="13.4077635"><ele>868.8</ele><time>2026-05-02T15:07:22.31Z</time></trkpt><trkpt lat="42.1014811" lon="13.4076206"><ele>868.4</ele><time>2026-05-02T15:07:23.284Z</time></trkpt><trkpt lat="42.1015434" lon="13.4074787"><ele>868.0</ele><time>2026-05-02T15:07:24.295Z</time></trkpt><trkpt lat="42.1016081" lon="13.4073467"><ele>867.5999999999999</ele><time>2026-05-02T15:07:25.296Z</time></trkpt><trkpt lat="42.1016659" lon="13.4072274"><ele>867.1999999999999</ele><time>2026-05-02T15:07:26.295Z</time></trkpt><trkpt lat="42.1017112" lon="13.4071241"><ele>866.8</ele><time>2026-05-02T15:07:27.298Z</time></trkpt><trkpt lat="42.1017538" lon="13.4070198"><ele>866.4</ele><time>2026-05-02T15:07:28.313Z</time></trkpt><trkpt lat="42.1017941" lon="13.4069176"><ele>866.0</ele><time>2026-05-02T15:07:29.305Z</time></trkpt><trkpt lat="42.1018336" lon="13.406815"><ele>864.8</ele><time>2026-05-02T15:07:30.309Z</time></trkpt><trkpt lat="42.1018806" lon="13.4067237"><ele>863.5999999999999</ele><time>2026-05-02T15:07:31.302Z</time></trkpt><trkpt lat="42.1019417" lon="13.4066367"><ele>862.4</ele><time>2026-05-02T15:07:32.319Z</time></trkpt><trkpt lat="42.10201" lon="13.4065467"><ele>861.2</ele><time>2026-05-02T15:07:33.311Z</time></trkpt><trkpt lat="42.1020989" lon="13.4064656"><ele>860.0</ele><time>2026-05-02T15:07:34.388Z</time></trkpt><trkpt lat="42.1021876" lon="13.4063864"><ele>859.0</ele><time>2026-05-02T15:07:35.392Z</time></trkpt><trkpt lat="42.1022672" lon="13.4062993"><ele>858.0</ele><time>2026-05-02T15:07:36.374Z</time></trkpt><trkpt lat="42.1023432" lon="13.4062032"><ele>857.0</ele><time>2026-05-02T15:07:37.375Z</time></trkpt><trkpt lat="42.1024141" lon="13.4060973"><ele>856.0</ele><time>2026-05-02T15:07:38.377Z</time></trkpt><trkpt lat="42.1024742" lon="13.4059853"><ele>855.0</ele><time>2026-05-02T15:07:39.359Z</time></trkpt><trkpt lat="42.1025164" lon="13.4058879"><ele>854.8333333333334</ele><time>2026-05-02T15:07:40.366Z</time></trkpt><trkpt lat="42.1025507" lon="13.4057922"><ele>854.6666666666667</ele><time>2026-05-02T15:07:41.362Z</time></trkpt><trkpt lat="42.1025751" lon="13.405702"><ele>854.5</ele><time>2026-05-02T15:07:42.377Z</time></trkpt><trkpt lat="42.1025937" lon="13.4056162"><ele>854.3333333333334</ele><time>2026-05-02T15:07:43.381Z</time></trkpt><trkpt lat="42.1026134" lon="13.4055089"><ele>854.1666666666667</ele><time>2026-05-02T15:07:45.381Z</time></trkpt><trkpt lat="42.1025717" lon="13.405435"><ele>854.0</ele><time>2026-05-02T15:07:52.406Z</time></trkpt><trkpt lat="42.1026532" lon="13.4055503"><ele>853.4000000000001</ele><time>2026-05-02T15:08:15.394Z</time></trkpt><trkpt lat="42.1026922" lon="13.4054517"><ele>852.8000000000001</ele><time>2026-05-02T15:08:23.4Z</time></trkpt><trkpt lat="42.1027251" lon="13.4053581"><ele>852.2</ele><time>2026-05-02T15:08:24.385Z</time></trkpt><trkpt lat="42.102771" lon="13.4052327"><ele>851.5999999999999</ele><time>2026-05-02T15:08:25.375Z</time></trkpt><trkpt lat="42.1028331" lon="13.4050634"><ele>851.0</ele><time>2026-05-02T15:08:26.382Z</time></trkpt><trkpt lat="42.1028914" lon="13.4048996"><ele>851.0</ele><time>2026-05-02T15:08:27.382Z</time></trkpt><trkpt lat="42.1029438" lon="13.4047411"><ele>851.0</ele><time>2026-05-02T15:08:28.385Z</time></trkpt><trkpt lat="42.1029885" lon="13.4045793"><ele>851.0</ele><time>2026-05-02T15:08:29.382Z</time></trkpt><trkpt lat="42.1030331" lon="13.4044045"><ele>851.0</ele><time>2026-05-02T15:08:30.385Z</time></trkpt><trkpt lat="42.1030807" lon="13.4042437"><ele>850.4</ele><time>2026-05-02T15:08:31.378Z</time></trkpt><trkpt lat="42.1031305" lon="13.4040918"><ele>849.8</ele><time>2026-05-02T15:08:32.398Z</time></trkpt><trkpt lat="42.1031846" lon="13.4039497"><ele>849.1999999999999</ele><time>2026-05-02T15:08:33.362Z</time></trkpt><trkpt lat="42.1032336" lon="13.403826"><ele>848.5999999999999</ele><time>2026-05-02T15:08:34.371Z</time></trkpt><trkpt lat="42.1032866" lon="13.4037081"><ele>848.0</ele><time>2026-05-02T15:08:35.364Z</time></trkpt><trkpt lat="42.103341" lon="13.4035878"><ele>847.2</ele><time>2026-05-02T15:08:36.363Z</time></trkpt><trkpt lat="42.1034083" lon="13.4034655"><ele>846.4</ele><time>2026-05-02T15:08:37.365Z</time></trkpt><trkpt lat="42.1034687" lon="13.403337"><ele>845.6</ele><time>2026-05-02T15:08:38.383Z</time></trkpt><trkpt lat="42.1035246" lon="13.4032046"><ele>844.8000000000001</ele><time>2026-05-02T15:08:39.362Z</time></trkpt><trkpt lat="42.103568" lon="13.4030843"><ele>844.0</ele><time>2026-05-02T15:08:40.372Z</time></trkpt><trkpt lat="42.1036143" lon="13.4029597"><ele>843.0</ele><time>2026-05-02T15:08:41.362Z</time></trkpt><trkpt lat="42.1036678" lon="13.4028391"><ele>842.0</ele><time>2026-05-02T15:08:42.362Z</time></trkpt><trkpt lat="42.1037307" lon="13.4027107"><ele>841.0</ele><time>2026-05-02T15:08:43.382Z</time></trkpt><trkpt lat="42.103808" lon="13.402586"><ele>840.0</ele><time>2026-05-02T15:08:44.377Z</time></trkpt><trkpt lat="42.1039274" lon="13.4024626"><ele>840.0</ele><time>2026-05-02T15:08:45.295Z</time></trkpt><trkpt lat="42.1040117" lon="13.4023587"><ele>840.0</ele><time>2026-05-02T15:08:46.302Z</time></trkpt><trkpt lat="42.1040953" lon="13.4022553"><ele>840.0</ele><time>2026-05-02T15:08:47.297Z</time></trkpt><trkpt lat="42.1041821" lon="13.4021461"><ele>840.0</ele><time>2026-05-02T15:08:48.298Z</time></trkpt><trkpt lat="42.1042759" lon="13.4020268"><ele>839.75</ele><time>2026-05-02T15:08:49.292Z</time></trkpt><trkpt lat="42.104357" lon="13.4018981"><ele>839.5</ele><time>2026-05-02T15:08:50.292Z</time></trkpt><trkpt lat="42.104431" lon="13.4017508"><ele>839.25</ele><time>2026-05-02T15:08:51.285Z</time></trkpt><trkpt lat="42.1045051" lon="13.4015953"><ele>839.0</ele><time>2026-05-02T15:08:52.289Z</time></trkpt><trkpt lat="42.1045666" lon="13.4014505"><ele>838.25</ele><time>2026-05-02T15:08:53.29Z</time></trkpt><trkpt lat="42.1046438" lon="13.4013163"><ele>837.5</ele><time>2026-05-02T15:08:54.298Z</time></trkpt><trkpt lat="42.1047152" lon="13.4011717"><ele>836.75</ele><time>2026-05-02T15:08:55.29Z</time></trkpt><trkpt lat="42.1048004" lon="13.4010424"><ele>836.0</ele><time>2026-05-02T15:08:56.29Z</time></trkpt><trkpt lat="42.1048785" lon="13.4009142"><ele>836.4</ele><time>2026-05-02T15:08:57.29Z</time></trkpt><trkpt lat="42.1049403" lon="13.4007961"><ele>836.8</ele><time>2026-05-02T15:08:58.289Z</time></trkpt><trkpt lat="42.1050077" lon="13.4006763"><ele>837.1999999999999</ele><time>2026-05-02T15:08:59.288Z</time></trkpt><trkpt lat="42.1050604" lon="13.4005592"><ele>837.5999999999999</ele><time>2026-05-02T15:09:00.291Z</time></trkpt><trkpt lat="42.105121" lon="13.4004426"><ele>838.0</ele><time>2026-05-02T15:09:01.29Z</time></trkpt><trkpt lat="42.105183" lon="13.4003316"><ele>837.0</ele><time>2026-05-02T15:09:02.294Z</time></trkpt><trkpt lat="42.1052546" lon="13.4002063"><ele>836.0</ele><time>2026-05-02T15:09:03.291Z</time></trkpt><trkpt lat="42.1053326" lon="13.4000667"><ele>835.0</ele><time>2026-05-02T15:09:04.293Z</time></trkpt><trkpt lat="42.1054111" lon="13.3999157"><ele>834.0</ele><time>2026-05-02T15:09:05.289Z</time></trkpt><trkpt lat="42.10548" lon="13.3997605"><ele>833.8000000000001</ele><time>2026-05-02T15:09:06.29Z</time></trkpt><trkpt lat="42.1055402" lon="13.3996197"><ele>833.6</ele><time>2026-05-02T15:09:07.288Z</time></trkpt><trkpt lat="42.1055859" lon="13.3994875"><ele>833.4</ele><time>2026-05-02T15:09:08.291Z</time></trkpt><trkpt lat="42.1056218" lon="13.3993724"><ele>833.2</ele><time>2026-05-02T15:09:09.288Z</time></trkpt><trkpt lat="42.1056468" lon="13.399251"><ele>833.0</ele><time>2026-05-02T15:09:10.279Z</time></trkpt><trkpt lat="42.1056589" lon="13.3991392"><ele>833.0000000000001</ele><time>2026-05-02T15:09:11.287Z</time></trkpt><trkpt lat="42.1056699" lon="13.3990404"><ele>833.0</ele><time>2026-05-02T15:09:12.285Z</time></trkpt><trkpt lat="42.1056692" lon="13.3989507"><ele>833.0</ele><time>2026-05-02T15:09:13.291Z</time></trkpt><trkpt lat="42.1056459" lon="13.3988408"><ele>833.0</ele><time>2026-05-02T15:09:15.289Z</time></trkpt><trkpt lat="42.1056891" lon="13.398716"><ele>833.0000000000001</ele><time>2026-05-02T15:09:17.29Z</time></trkpt><trkpt lat="42.105726" lon="13.3986291"><ele>833.0</ele><time>2026-05-02T15:09:18.289Z</time></trkpt><trkpt lat="42.1057789" lon="13.3985538"><ele>833.0</ele><time>2026-05-02T15:09:19.292Z</time></trkpt><trkpt lat="42.1058422" lon="13.3984779"><ele>833.0</ele><time>2026-05-02T15:09:20.29Z</time></trkpt><trkpt lat="42.1059144" lon="13.3984239"><ele>833.0</ele><time>2026-05-02T15:09:21.287Z</time></trkpt><trkpt lat="42.1060029" lon="13.3983645"><ele>833.0</ele><time>2026-05-02T15:09:22.298Z</time></trkpt><trkpt lat="42.1060946" lon="13.39829"><ele>833.0</ele><time>2026-05-02T15:09:23.294Z</time></trkpt><trkpt lat="42.1061948" lon="13.3982162"><ele>833.0</ele><time>2026-05-02T15:09:24.295Z</time></trkpt><trkpt lat="42.1062998" lon="13.3981396"><ele>833.0</ele><time>2026-05-02T15:09:25.294Z</time></trkpt><trkpt lat="42.1064039" lon="13.3980718"><ele>833.0</ele><time>2026-05-02T15:09:26.293Z</time></trkpt><trkpt lat="42.1065162" lon="13.3979881"><ele>833.0</ele><time>2026-05-02T15:09:27.294Z</time></trkpt><trkpt lat="42.1066332" lon="13.397882"><ele>834.0</ele><time>2026-05-02T15:09:28.294Z</time></trkpt><trkpt lat="42.1067474" lon="13.3977647"><ele>835.0</ele><time>2026-05-02T15:09:29.286Z</time></trkpt><trkpt lat="42.1068445" lon="13.3976104"><ele>836.0</ele><time>2026-05-02T15:09:30.293Z</time></trkpt><trkpt lat="42.1069295" lon="13.3974598"><ele>837.0</ele><time>2026-05-02T15:09:31.293Z</time></trkpt><trkpt lat="42.1070135" lon="13.3973245"><ele>837.0</ele><time>2026-05-02T15:09:32.289Z</time></trkpt><trkpt lat="42.1070842" lon="13.3971984"><ele>837.0</ele><time>2026-05-02T15:09:33.286Z</time></trkpt><trkpt lat="42.1071415" lon="13.3970701"><ele>837.0</ele><time>2026-05-02T15:09:34.285Z</time></trkpt><trkpt lat="42.1071866" lon="13.3969603"><ele>837.0</ele><time>2026-05-02T15:09:35.285Z</time></trkpt><trkpt lat="42.1072126" lon="13.3967939"><ele>837.0</ele><time>2026-05-02T15:09:37.283Z</time></trkpt><trkpt lat="42.1071634" lon="13.3966336"><ele>837.4000000000001</ele><time>2026-05-02T15:09:39.291Z</time></trkpt><trkpt lat="42.1071105" lon="13.3965299"><ele>837.8000000000001</ele><time>2026-05-02T15:09:40.288Z</time></trkpt><trkpt lat="42.1070642" lon="13.3964133"><ele>838.2</ele><time>2026-05-02T15:09:41.28Z</time></trkpt><trkpt lat="42.1070092" lon="13.3962985"><ele>838.6</ele><time>2026-05-02T15:09:42.29Z</time></trkpt><trkpt lat="42.1069474" lon="13.3961864"><ele>839.0</ele><time>2026-05-02T15:09:43.284Z</time></trkpt><trkpt lat="42.1068922" lon="13.3960779"><ele>839.8000000000001</ele><time>2026-05-02T15:09:44.285Z</time></trkpt><trkpt lat="42.1068305" lon="13.3959621"><ele>840.6</ele><time>2026-05-02T15:09:45.289Z</time></trkpt><trkpt lat="42.106775" lon="13.3958511"><ele>841.4</ele><time>2026-05-02T15:09:46.274Z</time></trkpt><trkpt lat="42.1067193" lon="13.395726"><ele>842.2</ele><time>2026-05-02T15:09:47.277Z</time></trkpt><trkpt lat="42.1066678" lon="13.3956058"><ele>843.0</ele><time>2026-05-02T15:09:48.273Z</time></trkpt><trkpt lat="42.1066149" lon="13.3954807"><ele>842.75</ele><time>2026-05-02T15:09:49.276Z</time></trkpt><trkpt lat="42.1065598" lon="13.395351"><ele>842.5</ele><time>2026-05-02T15:09:50.283Z</time></trkpt><trkpt lat="42.106499" lon="13.3952133"><ele>842.25</ele><time>2026-05-02T15:09:51.287Z</time></trkpt><trkpt lat="42.1064379" lon="13.3950752"><ele>842.0</ele><time>2026-05-02T15:09:52.286Z</time></trkpt><trkpt lat="42.1063714" lon="13.3949209"><ele>842.0</ele><time>2026-05-02T15:09:53.291Z</time></trkpt><trkpt lat="42.1063085" lon="13.3947829"><ele>842.0</ele><time>2026-05-02T15:09:54.288Z</time></trkpt><trkpt lat="42.1062494" lon="13.3946594"><ele>842.0</ele><time>2026-05-02T15:09:55.286Z</time></trkpt><trkpt lat="42.1061911" lon="13.3945429"><ele>842.0</ele><time>2026-05-02T15:09:56.288Z</time></trkpt><trkpt lat="42.1061402" lon="13.3944374"><ele>842.0</ele><time>2026-05-02T15:09:57.289Z</time></trkpt><trkpt lat="42.1060979" lon="13.3943443"><ele>842.1666666666667</ele><time>2026-05-02T15:09:58.283Z</time></trkpt><trkpt lat="42.1060547" lon="13.3942451"><ele>842.3333333333334</ele><time>2026-05-02T15:10:00.282Z</time></trkpt><trkpt lat="42.1059947" lon="13.3941904"><ele>842.5</ele><time>2026-05-02T15:10:03.289Z</time></trkpt><trkpt lat="42.1058855" lon="13.3941273"><ele>842.6666666666667</ele><time>2026-05-02T15:10:05.278Z</time></trkpt><trkpt lat="42.1058134" lon="13.3941042"><ele>842.8333333333334</ele><time>2026-05-02T15:10:06.287Z</time></trkpt><trkpt lat="42.1057503" lon="13.3940684"><ele>843.0</ele><time>2026-05-02T15:10:07.284Z</time></trkpt><trkpt lat="42.1056907" lon="13.3940344"><ele>841.2</ele><time>2026-05-02T15:10:08.285Z</time></trkpt><trkpt lat="42.1055715" lon="13.393978"><ele>839.4</ele><time>2026-05-02T15:10:10.288Z</time></trkpt><trkpt lat="42.1055144" lon="13.3939415"><ele>837.6</ele><time>2026-05-02T15:10:11.29Z</time></trkpt><trkpt lat="42.1054239" lon="13.3938615"><ele>835.8000000000001</ele><time>2026-05-02T15:10:13.286Z</time></trkpt><trkpt lat="42.1054217" lon="13.3937363"><ele>834.0</ele><time>2026-05-02T15:10:15.282Z</time></trkpt><trkpt lat="42.105517" lon="13.3936335"><ele>833.3333333333334</ele><time>2026-05-02T15:10:17.295Z</time></trkpt><trkpt lat="42.1055704" lon="13.3935871"><ele>832.6666666666667</ele><time>2026-05-02T15:10:18.297Z</time></trkpt><trkpt lat="42.1056282" lon="13.393514"><ele>832.0</ele><time>2026-05-02T15:10:20.286Z</time></trkpt><trkpt lat="42.1055433" lon="13.3936101"><ele>831.3333333333334</ele><time>2026-05-02T15:10:37.289Z</time></trkpt><trkpt lat="42.1055019" lon="13.3936772"><ele>830.6666666666667</ele><time>2026-05-02T15:10:38.285Z</time></trkpt><trkpt lat="42.1054479" lon="13.3937393"><ele>830.0</ele><time>2026-05-02T15:10:39.281Z</time></trkpt><trkpt lat="42.1054029" lon="13.3938063"><ele>830.8</ele><time>2026-05-02T15:10:40.279Z</time></trkpt><trkpt lat="42.1053323" lon="13.3939265"><ele>831.6</ele><time>2026-05-02T15:10:42.281Z</time></trkpt><trkpt lat="42.1052635" lon="13.3940344"><ele>832.4000000000001</ele><time>2026-05-02T15:10:44.29Z</time></trkpt><trkpt lat="42.1051642" lon="13.3941323"><ele>833.2</ele><time>2026-05-02T15:10:46.288Z</time></trkpt><trkpt lat="42.1050957" lon="13.39419"><ele>834.0</ele><time>2026-05-02T15:10:48.295Z</time></trkpt><trkpt lat="42.1050497" lon="13.3942556"><ele>834.0</ele><time>2026-05-02T15:10:50.308Z</time></trkpt><trkpt lat="42.1050161" lon="13.3943377"><ele>834.0</ele><time>2026-05-02T15:10:53.298Z</time></trkpt><trkpt lat="42.1049519" lon="13.3942833"><ele>834.0</ele><time>2026-05-02T15:10:55.292Z</time></trkpt><trkpt lat="42.1049316" lon="13.394168"><ele>834.0</ele><time>2026-05-02T15:10:57.298Z</time></trkpt><trkpt lat="42.1049459" lon="13.3940789"><ele>834.0</ele><time>2026-05-02T15:10:58.29Z</time></trkpt><trkpt lat="42.1049595" lon="13.3939913"><ele>834.0</ele><time>2026-05-02T15:10:59.289Z</time></trkpt><trkpt lat="42.1049681" lon="13.393889"><ele>834.0</ele><time>2026-05-02T15:11:00.295Z</time></trkpt><trkpt lat="42.1049817" lon="13.393792"><ele>833.2</ele><time>2026-05-02T15:11:01.291Z</time></trkpt><trkpt lat="42.1050074" lon="13.3936676"><ele>832.4000000000001</ele><time>2026-05-02T15:11:02.292Z</time></trkpt><trkpt lat="42.105039" lon="13.3935327"><ele>831.6</ele><time>2026-05-02T15:11:03.293Z</time></trkpt><trkpt lat="42.1050729" lon="13.3934045"><ele>830.8</ele><time>2026-05-02T15:11:04.294Z</time></trkpt><trkpt lat="42.1051096" lon="13.3932775"><ele>830.0</ele><time>2026-05-02T15:11:05.296Z</time></trkpt><trkpt lat="42.1051625" lon="13.3931535"><ele>830.0</ele><time>2026-05-02T15:11:06.293Z</time></trkpt><trkpt lat="42.1051953" lon="13.3930188"><ele>830.0</ele><time>2026-05-02T15:11:07.287Z</time></trkpt><trkpt lat="42.1052182" lon="13.3928805"><ele>830.0</ele><time>2026-05-02T15:11:08.291Z</time></trkpt><trkpt lat="42.1052319" lon="13.3927509"><ele>830.0</ele><time>2026-05-02T15:11:09.284Z</time></trkpt><trkpt lat="42.105229" lon="13.3926195"><ele>830.0</ele><time>2026-05-02T15:11:10.273Z</time></trkpt><trkpt lat="42.1052116" lon="13.3924996"><ele>829.2</ele><time>2026-05-02T15:11:11.28Z</time></trkpt><trkpt lat="42.1051707" lon="13.3923848"><ele>828.4</ele><time>2026-05-02T15:11:12.29Z</time></trkpt><trkpt lat="42.1051204" lon="13.3922782"><ele>827.5999999999999</ele><time>2026-05-02T15:11:13.292Z</time></trkpt><trkpt lat="42.1050685" lon="13.3921683"><ele>826.8</ele><time>2026-05-02T15:11:14.286Z</time></trkpt><trkpt lat="42.1050173" lon="13.3920482"><ele>826.0</ele><time>2026-05-02T15:11:15.294Z</time></trkpt><trkpt lat="42.1049659" lon="13.3919337"><ele>825.9999999999999</ele><time>2026-05-02T15:11:16.286Z</time></trkpt><trkpt lat="42.1049183" lon="13.3918321"><ele>826.0</ele><time>2026-05-02T15:11:17.288Z</time></trkpt><trkpt lat="42.104884" lon="13.3917469"><ele>826.0</ele><time>2026-05-02T15:11:18.289Z</time></trkpt><trkpt lat="42.1048542" lon="13.3916602"><ele>826.0</ele><time>2026-05-02T15:11:19.313Z</time></trkpt><trkpt lat="42.1048305" lon="13.3915589"><ele>825.9999999999999</ele><time>2026-05-02T15:11:20.304Z</time></trkpt><trkpt lat="42.1048" lon="13.3914482"><ele>826.0</ele><time>2026-05-02T15:11:21.308Z</time></trkpt><trkpt lat="42.1047704" lon="13.391337"><ele>826.3333333333333</ele><time>2026-05-02T15:11:22.308Z</time></trkpt><trkpt lat="42.1047494" lon="13.3912418"><ele>826.6666666666666</ele><time>2026-05-02T15:11:23.304Z</time></trkpt><trkpt lat="42.1047219" lon="13.3911488"><ele>827.0</ele><time>2026-05-02T15:11:24.304Z</time></trkpt><trkpt lat="42.1046982" lon="13.3910546"><ele>827.3333333333333</ele><time>2026-05-02T15:11:25.31Z</time></trkpt><trkpt lat="42.1046798" lon="13.3909582"><ele>827.6666666666666</ele><time>2026-05-02T15:11:26.306Z</time></trkpt><trkpt lat="42.1046492" lon="13.3908089"><ele>828.0</ele><time>2026-05-02T15:11:28.307Z</time></trkpt><trkpt lat="42.104622" lon="13.390648"><ele>828.0</ele><time>2026-05-02T15:11:30.308Z</time></trkpt><trkpt lat="42.1046016" lon="13.3905562"><ele>828.0</ele><time>2026-05-02T15:11:31.301Z</time></trkpt><trkpt lat="42.1045744" lon="13.3904661"><ele>828.0</ele><time>2026-05-02T15:11:32.301Z</time></trkpt><trkpt lat="42.1045447" lon="13.3903564"><ele>828.0</ele><time>2026-05-02T15:11:33.297Z</time></trkpt><trkpt lat="42.104515" lon="13.3902324"><ele>828.0</ele><time>2026-05-02T15:11:34.302Z</time></trkpt><trkpt lat="42.1044882" lon="13.3901176"><ele>828.0</ele><time>2026-05-02T15:11:35.3Z</time></trkpt><trkpt lat="42.1044656" lon="13.3900213"><ele>828.5</ele><time>2026-05-02T15:11:36.298Z</time></trkpt><trkpt lat="42.1044483" lon="13.3898844"><ele>829.0</ele><time>2026-05-02T15:11:38.301Z</time></trkpt><trkpt lat="42.1044518" lon="13.3897815"><ele>829.5</ele><time>2026-05-02T15:11:40.307Z</time></trkpt><trkpt lat="42.1044375" lon="13.3896984"><ele>830.0</ele><time>2026-05-02T15:11:48.319Z</time></trkpt><trkpt lat="42.1043892" lon="13.3896195"><ele>830.5</ele><time>2026-05-02T15:11:53.313Z</time></trkpt><trkpt lat="42.1043179" lon="13.389588"><ele>831.0</ele><time>2026-05-02T15:11:55.31Z</time></trkpt><trkpt lat="42.1042549" lon="13.3895794"><ele>831.1666666666666</ele><time>2026-05-02T15:11:56.308Z</time></trkpt><trkpt lat="42.1041713" lon="13.3895652"><ele>831.3333333333333</ele><time>2026-05-02T15:11:57.305Z</time></trkpt><trkpt lat="42.104091" lon="13.3895491"><ele>831.5</ele><time>2026-05-02T15:11:58.304Z</time></trkpt><trkpt lat="42.1040002" lon="13.3895238"><ele>831.6666666666666</ele><time>2026-05-02T15:11:59.303Z</time></trkpt><trkpt lat="42.1039204" lon="13.3894936"><ele>831.8333333333333</ele><time>2026-05-02T15:12:00.303Z</time></trkpt><trkpt lat="42.1038324" lon="13.3894742"><ele>832.0</ele><time>2026-05-02T15:12:01.286Z</time></trkpt><trkpt lat="42.1037547" lon="13.3894534"><ele>831.4999999999999</ele><time>2026-05-02T15:12:02.309Z</time></trkpt><trkpt lat="42.1036907" lon="13.3894276"><ele>831.0</ele><time>2026-05-02T15:12:03.299Z</time></trkpt><trkpt lat="42.1036324" lon="13.3893712"><ele>830.5</ele><time>2026-05-02T15:12:04.302Z</time></trkpt><trkpt lat="42.103577" lon="13.3892907"><ele>830.0</ele><time>2026-05-02T15:12:05.306Z</time></trkpt><trkpt lat="42.1035247" lon="13.3891645"><ele>829.4999999999999</ele><time>2026-05-02T15:12:06.306Z</time></trkpt><trkpt lat="42.1034721" lon="13.3890313"><ele>829.0</ele><time>2026-05-02T15:12:07.383Z</time></trkpt><trkpt lat="42.1034185" lon="13.3888948"><ele>828.8000000000001</ele><time>2026-05-02T15:12:08.384Z</time></trkpt><trkpt lat="42.1033641" lon="13.3887552"><ele>828.6</ele><time>2026-05-02T15:12:09.373Z</time></trkpt><trkpt lat="42.1033096" lon="13.3886222"><ele>828.4</ele><time>2026-05-02T15:12:10.365Z</time></trkpt><trkpt lat="42.1032553" lon="13.388502"><ele>828.2</ele><time>2026-05-02T15:12:11.373Z</time></trkpt><trkpt lat="42.1032013" lon="13.3883982"><ele>828.0</ele><time>2026-05-02T15:12:12.371Z</time></trkpt><trkpt lat="42.1031558" lon="13.388316"><ele>827.4</ele><time>2026-05-02T15:12:13.365Z</time></trkpt><trkpt lat="42.1031111" lon="13.3881567"><ele>826.8</ele><time>2026-05-02T15:12:15.275Z</time></trkpt><trkpt lat="42.1031479" lon="13.388022"><ele>826.2</ele><time>2026-05-02T15:12:17.281Z</time></trkpt><trkpt lat="42.1031947" lon="13.387956"><ele>825.6</ele><time>2026-05-02T15:12:18.289Z</time></trkpt><trkpt lat="42.1032089" lon="13.3878065"><ele>825.0</ele><time>2026-05-02T15:12:20.288Z</time></trkpt><trkpt lat="42.1031881" lon="13.3877066"><ele>825.0</ele><time>2026-05-02T15:12:21.286Z</time></trkpt><trkpt lat="42.1031483" lon="13.3876196"><ele>825.0</ele><time>2026-05-02T15:12:22.285Z</time></trkpt><trkpt lat="42.103108" lon="13.3875452"><ele>825.0</ele><time>2026-05-02T15:12:23.288Z</time></trkpt><trkpt lat="42.1030695" lon="13.3874655"><ele>825.0</ele><time>2026-05-02T15:12:24.287Z</time></trkpt><trkpt lat="42.1030193" lon="13.3873432"><ele>825.0</ele><time>2026-05-02T15:12:26.285Z</time></trkpt><trkpt lat="42.1029807" lon="13.3872154"><ele>825.0</ele><time>2026-05-02T15:12:28.285Z</time></trkpt><trkpt lat="42.1029329" lon="13.3870728"><ele>825.0</ele><time>2026-05-02T15:12:30.278Z</time></trkpt><trkpt lat="42.102965" lon="13.3869835"><ele>825.0</ele><time>2026-05-02T15:12:32.293Z</time></trkpt><trkpt lat="42.1029871" lon="13.3868578"><ele>825.0</ele><time>2026-05-02T15:12:34.294Z</time></trkpt><trkpt lat="42.1029694" lon="13.3867038"><ele>825.0</ele><time>2026-05-02T15:12:36.283Z</time></trkpt><trkpt lat="42.1029342" lon="13.3866207"><ele>825.0</ele><time>2026-05-02T15:12:37.281Z</time></trkpt><trkpt lat="42.1028749" lon="13.3865243"><ele>825.0</ele><time>2026-05-02T15:12:38.286Z</time></trkpt><trkpt lat="42.1028289" lon="13.3864153"><ele>825.1666666666666</ele><time>2026-05-02T15:12:39.283Z</time></trkpt><trkpt lat="42.1027773" lon="13.3863115"><ele>825.3333333333333</ele><time>2026-05-02T15:12:40.286Z</time></trkpt><trkpt lat="42.1027317" lon="13.3862118"><ele>825.5</ele><time>2026-05-02T15:12:41.283Z</time></trkpt><trkpt lat="42.1026917" lon="13.3861286"><ele>825.6666666666666</ele><time>2026-05-02T15:12:42.291Z</time></trkpt><trkpt lat="42.1026454" lon="13.3860331"><ele>825.8333333333333</ele><time>2026-05-02T15:12:43.287Z</time></trkpt><trkpt lat="42.1025956" lon="13.3859278"><ele>826.0</ele><time>2026-05-02T15:12:44.29Z</time></trkpt><trkpt lat="42.1025465" lon="13.3858329"><ele>825.9999999999999</ele><time>2026-05-02T15:12:45.281Z</time></trkpt><trkpt lat="42.1024922" lon="13.3857381"><ele>826.0</ele><time>2026-05-02T15:12:46.286Z</time></trkpt><trkpt lat="42.1024433" lon="13.3856463"><ele>826.0</ele><time>2026-05-02T15:12:47.287Z</time></trkpt><trkpt lat="42.1023978" lon="13.3855633"><ele>826.0</ele><time>2026-05-02T15:12:48.287Z</time></trkpt><trkpt lat="42.102332" lon="13.3854753"><ele>825.9999999999999</ele><time>2026-05-02T15:12:50.278Z</time></trkpt><trkpt lat="42.1023165" lon="13.3853606"><ele>826.0</ele><time>2026-05-02T15:12:56.298Z</time></trkpt><trkpt lat="42.1023368" lon="13.3852539"><ele>826.3333333333333</ele><time>2026-05-02T15:12:58.299Z</time></trkpt><trkpt lat="42.1023975" lon="13.38513"><ele>826.6666666666666</ele><time>2026-05-02T15:13:00.289Z</time></trkpt><trkpt lat="42.1024456" lon="13.3850696"><ele>827.0</ele><time>2026-05-02T15:13:01.284Z</time></trkpt><trkpt lat="42.1024958" lon="13.3850056"><ele>827.3333333333333</ele><time>2026-05-02T15:13:02.284Z</time></trkpt><trkpt lat="42.1025424" lon="13.3849377"><ele>827.6666666666666</ele><time>2026-05-02T15:13:03.281Z</time></trkpt><trkpt lat="42.1026044" lon="13.3848676"><ele>828.0</ele><time>2026-05-02T15:13:04.284Z</time></trkpt><trkpt lat="42.1026689" lon="13.3847947"><ele>828.0</ele><time>2026-05-02T15:13:05.283Z</time></trkpt><trkpt lat="42.1027329" lon="13.3847287"><ele>828.0</ele><time>2026-05-02T15:13:06.279Z</time></trkpt><trkpt lat="42.1027971" lon="13.3846761"><ele>828.0</ele><time>2026-05-02T15:13:07.284Z</time></trkpt><trkpt lat="42.1028633" lon="13.3846421"><ele>828.0</ele><time>2026-05-02T15:13:08.28Z</time></trkpt><trkpt lat="42.1029257" lon="13.3845944"><ele>828.0</ele><time>2026-05-02T15:13:09.278Z</time></trkpt><trkpt lat="42.1029894" lon="13.3845344"><ele>828.0</ele><time>2026-05-02T15:13:10.275Z</time></trkpt><trkpt lat="42.1030548" lon="13.3844497"><ele>828.2</ele><time>2026-05-02T15:13:11.275Z</time></trkpt><trkpt lat="42.1031203" lon="13.3843529"><ele>828.4</ele><time>2026-05-02T15:13:12.28Z</time></trkpt><trkpt lat="42.1031881" lon="13.3842609"><ele>828.6</ele><time>2026-05-02T15:13:13.279Z</time></trkpt><trkpt lat="42.1032522" lon="13.3841648"><ele>828.8000000000001</ele><time>2026-05-02T15:13:14.28Z</time></trkpt><trkpt lat="42.1033115" lon="13.3840707"><ele>829.0</ele><time>2026-05-02T15:13:15.281Z</time></trkpt><trkpt lat="42.1033615" lon="13.3839627"><ele>829.9999999999999</ele><time>2026-05-02T15:13:16.28Z</time></trkpt><trkpt lat="42.1034129" lon="13.3838499"><ele>831.0</ele><time>2026-05-02T15:13:17.28Z</time></trkpt><trkpt lat="42.10347" lon="13.3837513"><ele>832.0</ele><time>2026-05-02T15:13:18.285Z</time></trkpt><trkpt lat="42.1035246" lon="13.3836648"><ele>833.0</ele><time>2026-05-02T15:13:19.272Z</time></trkpt><trkpt lat="42.1035898" lon="13.3835996"><ele>833.9999999999999</ele><time>2026-05-02T15:13:20.275Z</time></trkpt><trkpt lat="42.1036695" lon="13.3835427"><ele>835.0</ele><time>2026-05-02T15:13:21.274Z</time></trkpt><trkpt lat="42.1037482" lon="13.3834832"><ele>835.0</ele><time>2026-05-02T15:13:22.285Z</time></trkpt><trkpt lat="42.1038253" lon="13.383407"><ele>835.0</ele><time>2026-05-02T15:13:23.28Z</time></trkpt><trkpt lat="42.1039082" lon="13.383333"><ele>835.0</ele><time>2026-05-02T15:13:24.28Z</time></trkpt><trkpt lat="42.1039823" lon="13.3832562"><ele>835.0</ele><time>2026-05-02T15:13:25.284Z</time></trkpt><trkpt lat="42.1040525" lon="13.3831897"><ele>835.0</ele><time>2026-05-02T15:13:26.284Z</time></trkpt><trkpt lat="42.1041321" lon="13.3831451"><ele>836.8</ele><time>2026-05-02T15:13:27.285Z</time></trkpt><trkpt lat="42.1042182" lon="13.3831139"><ele>838.6</ele><time>2026-05-02T15:13:28.285Z</time></trkpt><trkpt lat="42.1043122" lon="13.3830781"><ele>840.4000000000001</ele><time>2026-05-02T15:13:29.285Z</time></trkpt><trkpt lat="42.1044135" lon="13.3830245"><ele>842.2</ele><time>2026-05-02T15:13:30.287Z</time></trkpt><trkpt lat="42.1045181" lon="13.3829627"><ele>844.0</ele><time>2026-05-02T15:13:31.287Z</time></trkpt><trkpt lat="42.104626" lon="13.3829156"><ele>844.0</ele><time>2026-05-02T15:13:32.286Z</time></trkpt><trkpt lat="42.1047333" lon="13.3828709"><ele>844.0</ele><time>2026-05-02T15:13:33.289Z</time></trkpt><trkpt lat="42.1048361" lon="13.3828234"><ele>844.0</ele><time>2026-05-02T15:13:34.285Z</time></trkpt><trkpt lat="42.1049333" lon="13.3827805"><ele>844.0</ele><time>2026-05-02T15:13:35.281Z</time></trkpt><trkpt lat="42.1050149" lon="13.3827596"><ele>844.0</ele><time>2026-05-02T15:13:36.282Z</time></trkpt><trkpt lat="42.1050906" lon="13.382754"><ele>845.2</ele><time>2026-05-02T15:13:37.28Z</time></trkpt><trkpt lat="42.1051784" lon="13.3827618"><ele>846.4000000000001</ele><time>2026-05-02T15:13:38.279Z</time></trkpt><trkpt lat="42.1052817" lon="13.3827965"><ele>847.6</ele><time>2026-05-02T15:13:39.284Z</time></trkpt><trkpt lat="42.1053888" lon="13.3828225"><ele>848.8</ele><time>2026-05-02T15:13:40.283Z</time></trkpt><trkpt lat="42.1054961" lon="13.3828149"><ele>850.0</ele><time>2026-05-02T15:13:41.28Z</time></trkpt><trkpt lat="42.1056035" lon="13.3828085"><ele>850.0</ele><time>2026-05-02T15:13:42.287Z</time></trkpt><trkpt lat="42.1057065" lon="13.3828181"><ele>850.0</ele><time>2026-05-02T15:13:43.285Z</time></trkpt><trkpt lat="42.1058134" lon="13.3828428"><ele>850.0</ele><time>2026-05-02T15:13:44.292Z</time></trkpt><trkpt lat="42.1059188" lon="13.3828532"><ele>850.0</ele><time>2026-05-02T15:13:45.288Z</time></trkpt><trkpt lat="42.1060182" lon="13.3828475"><ele>850.0</ele><time>2026-05-02T15:13:46.281Z</time></trkpt><trkpt lat="42.1061179" lon="13.3828379"><ele>851.4</ele><time>2026-05-02T15:13:47.286Z</time></trkpt><trkpt lat="42.1062259" lon="13.3828323"><ele>852.8</ele><time>2026-05-02T15:13:48.284Z</time></trkpt><trkpt lat="42.1063247" lon="13.3828263"><ele>854.2</ele><time>2026-05-02T15:13:49.282Z</time></trkpt><trkpt lat="42.1064129" lon="13.3828215"><ele>855.6</ele><time>2026-05-02T15:13:50.284Z</time></trkpt><trkpt lat="42.1064855" lon="13.3828297"><ele>857.0</ele><time>2026-05-02T15:13:51.284Z</time></trkpt><trkpt lat="42.1065932" lon="13.3828837"><ele>858.3333333333334</ele><time>2026-05-02T15:13:53.282Z</time></trkpt><trkpt lat="42.1066368" lon="13.3829491"><ele>859.6666666666667</ele><time>2026-05-02T15:13:54.279Z</time></trkpt><trkpt lat="42.1067072" lon="13.3830863"><ele>861.0</ele><time>2026-05-02T15:13:56.278Z</time></trkpt><trkpt lat="42.1067728" lon="13.3831587"><ele>862.3333333333333</ele><time>2026-05-02T15:13:58.278Z</time></trkpt><trkpt lat="42.1068417" lon="13.3831598"><ele>863.6666666666666</ele><time>2026-05-02T15:14:00.281Z</time></trkpt><trkpt lat="42.1068976" lon="13.3832613"><ele>865.0</ele><time>2026-05-02T15:14:02.272Z</time></trkpt><trkpt lat="42.106929" lon="13.383341"><ele>865.0</ele><time>2026-05-02T15:14:03.271Z</time></trkpt><trkpt lat="42.1069724" lon="13.383479"><ele>865.0</ele><time>2026-05-02T15:14:05.275Z</time></trkpt><trkpt lat="42.1070428" lon="13.3835089"><ele>865.0</ele><time>2026-05-02T15:14:07.287Z</time></trkpt><trkpt lat="42.1071093" lon="13.3833872"><ele>865.0</ele><time>2026-05-02T15:14:09.29Z</time></trkpt><trkpt lat="42.1071967" lon="13.3832726"><ele>865.0</ele><time>2026-05-02T15:14:11.29Z</time></trkpt><trkpt lat="42.10725" lon="13.3832013"><ele>864.9999999999999</ele><time>2026-05-02T15:14:13.291Z</time></trkpt><trkpt lat="42.1073151" lon="13.3831675"><ele>865.0</ele><time>2026-05-02T15:14:15.29Z</time></trkpt><trkpt lat="42.1074126" lon="13.3831071"><ele>865.0</ele><time>2026-05-02T15:14:17.298Z</time></trkpt><trkpt lat="42.1074756" lon="13.3830693"><ele>865.0</ele><time>2026-05-02T15:14:18.278Z</time></trkpt><trkpt lat="42.1075378" lon="13.3830209"><ele>864.9999999999999</ele><time>2026-05-02T15:14:19.283Z</time></trkpt><trkpt lat="42.1075984" lon="13.3829607"><ele>865.0</ele><time>2026-05-02T15:14:20.285Z</time></trkpt><trkpt lat="42.1076653" lon="13.3829081"><ele>866.6666666666666</ele><time>2026-05-02T15:14:21.278Z</time></trkpt><trkpt lat="42.107735" lon="13.3828921"><ele>868.3333333333333</ele><time>2026-05-02T15:14:22.282Z</time></trkpt><trkpt lat="42.1078153" lon="13.3828764"><ele>870.0</ele><time>2026-05-02T15:14:23.289Z</time></trkpt><trkpt lat="42.1079052" lon="13.3828655"><ele>871.6666666666667</ele><time>2026-05-02T15:14:24.285Z</time></trkpt><trkpt lat="42.1079998" lon="13.3828502"><ele>873.3333333333334</ele><time>2026-05-02T15:14:25.281Z</time></trkpt><trkpt lat="42.1080863" lon="13.3828235"><ele>875.0</ele><time>2026-05-02T15:14:26.286Z</time></trkpt><trkpt lat="42.1081684" lon="13.3828094"><ele>875.6666666666667</ele><time>2026-05-02T15:14:27.279Z</time></trkpt><trkpt lat="42.1082488" lon="13.3828036"><ele>876.3333333333334</ele><time>2026-05-02T15:14:28.283Z</time></trkpt><trkpt lat="42.1083378" lon="13.382791"><ele>877.0</ele><time>2026-05-02T15:14:29.289Z</time></trkpt><trkpt lat="42.1084253" lon="13.3827659"><ele>877.6666666666667</ele><time>2026-05-02T15:14:30.294Z</time></trkpt><trkpt lat="42.1085125" lon="13.3827512"><ele>878.3333333333334</ele><time>2026-05-02T15:14:31.299Z</time></trkpt><trkpt lat="42.1086035" lon="13.3827358"><ele>879.0</ele><time>2026-05-02T15:14:32.294Z</time></trkpt><trkpt lat="42.1086914" lon="13.3827096"><ele>879.0</ele><time>2026-05-02T15:14:33.274Z</time></trkpt><trkpt lat="42.1087687" lon="13.3826585"><ele>879.0</ele><time>2026-05-02T15:14:34.282Z</time></trkpt><trkpt lat="42.1088411" lon="13.3826063"><ele>879.0</ele><time>2026-05-02T15:14:35.284Z</time></trkpt><trkpt lat="42.1089265" lon="13.3825617"><ele>879.0</ele><time>2026-05-02T15:14:36.278Z</time></trkpt><trkpt lat="42.1090086" lon="13.3825058"><ele>879.0</ele><time>2026-05-02T15:14:37.283Z</time></trkpt><trkpt lat="42.1090949" lon="13.3824554"><ele>879.0</ele><time>2026-05-02T15:14:38.28Z</time></trkpt><trkpt lat="42.1091812" lon="13.3824127"><ele>880.2</ele><time>2026-05-02T15:14:39.281Z</time></trkpt><trkpt lat="42.1092648" lon="13.382368"><ele>881.4000000000001</ele><time>2026-05-02T15:14:40.286Z</time></trkpt><trkpt lat="42.109359" lon="13.3823227"><ele>882.6</ele><time>2026-05-02T15:14:41.285Z</time></trkpt><trkpt lat="42.109448" lon="13.3822692"><ele>883.8</ele><time>2026-05-02T15:14:42.286Z</time></trkpt><trkpt lat="42.1095387" lon="13.3822228"><ele>885.0</ele><time>2026-05-02T15:14:43.283Z</time></trkpt><trkpt lat="42.1096222" lon="13.3821826"><ele>885.1666666666666</ele><time>2026-05-02T15:14:44.278Z</time></trkpt><trkpt lat="42.1096971" lon="13.3821414"><ele>885.3333333333333</ele><time>2026-05-02T15:14:45.279Z</time></trkpt><trkpt lat="42.1097548" lon="13.3820842"><ele>885.5</ele><time>2026-05-02T15:14:46.297Z</time></trkpt><trkpt lat="42.1098284" lon="13.3820152"><ele>885.6666666666666</ele><time>2026-05-02T15:14:48.289Z</time></trkpt><trkpt lat="42.109782" lon="13.3819545"><ele>885.8333333333333</ele><time>2026-05-02T15:14:52.298Z</time></trkpt><trkpt lat="42.1097324" lon="13.3818763"><ele>886.0</ele><time>2026-05-02T15:14:54.307Z</time></trkpt><trkpt lat="42.1096722" lon="13.3818229"><ele>885.9999999999999</ele><time>2026-05-02T15:15:00.306Z</time></trkpt><trkpt lat="42.1096326" lon="13.3817444"><ele>886.0</ele><time>2026-05-02T15:15:02.295Z</time></trkpt><trkpt lat="42.1095877" lon="13.3816472"><ele>886.0</ele><time>2026-05-02T15:15:04.285Z</time></trkpt><trkpt lat="42.1096307" lon="13.3817546"><ele>886.0</ele><time>2026-05-02T15:15:08.287Z</time></trkpt><trkpt lat="42.1097258" lon="13.3818609"><ele>885.9999999999999</ele><time>2026-05-02T15:15:10.288Z</time></trkpt><trkpt lat="42.1097793" lon="13.3819313"><ele>886.0</ele><time>2026-05-02T15:15:11.294Z</time></trkpt><trkpt lat="42.1098407" lon="13.3820162"><ele>887.1999999999999</ele><time>2026-05-02T15:15:12.287Z</time></trkpt><trkpt lat="42.1099137" lon="13.3820754"><ele>888.3999999999999</ele><time>2026-05-02T15:15:13.285Z</time></trkpt><trkpt lat="42.1099938" lon="13.3821242"><ele>889.6</ele><time>2026-05-02T15:15:14.28Z</time></trkpt><trkpt lat="42.1100769" lon="13.3821572"><ele>890.8</ele><time>2026-05-02T15:15:15.275Z</time></trkpt><trkpt lat="42.1101768" lon="13.3821553"><ele>892.0</ele><time>2026-05-02T15:15:16.285Z</time></trkpt><trkpt lat="42.1102692" lon="13.3821341"><ele>891.9999999999999</ele><time>2026-05-02T15:15:17.29Z</time></trkpt><trkpt lat="42.1103524" lon="13.3820983"><ele>892.0</ele><time>2026-05-02T15:15:18.293Z</time></trkpt><trkpt lat="42.1104167" lon="13.3820658"><ele>892.0</ele><time>2026-05-02T15:15:19.292Z</time></trkpt><trkpt lat="42.1105011" lon="13.3820176"><ele>892.0</ele><time>2026-05-02T15:15:21.295Z</time></trkpt><trkpt lat="42.1105626" lon="13.3819452"><ele>891.9999999999999</ele><time>2026-05-02T15:15:24.296Z</time></trkpt><trkpt lat="42.1105422" lon="13.3817904"><ele>892.0</ele><time>2026-05-02T15:15:26.292Z</time></trkpt><trkpt lat="42.1105334" lon="13.3816827"><ele>892.0</ele><time>2026-05-02T15:15:27.29Z</time></trkpt><trkpt lat="42.110529" lon="13.3815669"><ele>892.0</ele><time>2026-05-02T15:15:28.293Z</time></trkpt><trkpt lat="42.1105285" lon="13.3814324"><ele>892.0</ele><time>2026-05-02T15:15:29.293Z</time></trkpt><trkpt lat="42.1105279" lon="13.3813082"><ele>892.0</ele><time>2026-05-02T15:15:30.366Z</time></trkpt><trkpt lat="42.1105264" lon="13.3811887"><ele>892.0</ele><time>2026-05-02T15:15:31.369Z</time></trkpt><trkpt lat="42.1105289" lon="13.381074"><ele>892.3333333333333</ele><time>2026-05-02T15:15:32.371Z</time></trkpt><trkpt lat="42.1105285" lon="13.3809688"><ele>892.6666666666666</ele><time>2026-05-02T15:15:33.359Z</time></trkpt><trkpt lat="42.1105365" lon="13.3808494"><ele>893.0</ele><time>2026-05-02T15:15:34.359Z</time></trkpt><trkpt lat="42.1105314" lon="13.380735"><ele>893.3333333333333</ele><time>2026-05-02T15:15:35.359Z</time></trkpt><trkpt lat="42.1105227" lon="13.3806118"><ele>893.6666666666666</ele><time>2026-05-02T15:15:36.358Z</time></trkpt><trkpt lat="42.1105115" lon="13.3805067"><ele>894.0</ele><time>2026-05-02T15:15:37.352Z</time></trkpt><trkpt lat="42.1105006" lon="13.3803837"><ele>894.1666666666666</ele><time>2026-05-02T15:15:39.351Z</time></trkpt><trkpt lat="42.1104866" lon="13.3802958"><ele>894.3333333333333</ele><time>2026-05-02T15:15:41.356Z</time></trkpt><trkpt lat="42.1105168" lon="13.3802041"><ele>894.5</ele><time>2026-05-02T15:15:47.376Z</time></trkpt><trkpt lat="42.1105495" lon="13.3800968"><ele>894.6666666666666</ele><time>2026-05-02T15:15:51.369Z</time></trkpt><trkpt lat="42.1105432" lon="13.3799811"><ele>894.8333333333333</ele><time>2026-05-02T15:15:53.374Z</time></trkpt><trkpt lat="42.1105001" lon="13.3798107"><ele>895.0</ele><time>2026-05-02T15:15:55.357Z</time></trkpt><trkpt lat="42.1104687" lon="13.379715"><ele>896.3333333333333</ele><time>2026-05-02T15:15:56.349Z</time></trkpt><trkpt lat="42.1104036" lon="13.3796157"><ele>897.6666666666666</ele><time>2026-05-02T15:15:57.348Z</time></trkpt><trkpt lat="42.110353" lon="13.3795256"><ele>899.0</ele><time>2026-05-02T15:15:58.348Z</time></trkpt><trkpt lat="42.1103062" lon="13.3794318"><ele>900.3333333333333</ele><time>2026-05-02T15:15:59.348Z</time></trkpt><trkpt lat="42.1102502" lon="13.3793767"><ele>901.6666666666666</ele><time>2026-05-02T15:16:00.364Z</time></trkpt><trkpt lat="42.1101833" lon="13.3793676"><ele>903.0</ele><time>2026-05-02T15:16:01.354Z</time></trkpt><trkpt lat="42.1101129" lon="13.3793476"><ele>903.0</ele><time>2026-05-02T15:16:02.349Z</time></trkpt><trkpt lat="42.1100196" lon="13.3793313"><ele>903.0</ele><time>2026-05-02T15:16:03.347Z</time></trkpt><trkpt lat="42.1099468" lon="13.3793177"><ele>903.0</ele><time>2026-05-02T15:16:04.338Z</time></trkpt><trkpt lat="42.1098735" lon="13.3793019"><ele>903.0</ele><time>2026-05-02T15:16:05.344Z</time></trkpt><trkpt lat="42.1097901" lon="13.3792755"><ele>903.0</ele><time>2026-05-02T15:16:06.356Z</time></trkpt><trkpt lat="42.1097131" lon="13.3792595"><ele>903.0</ele><time>2026-05-02T15:16:07.369Z</time></trkpt><trkpt lat="42.1096258" lon="13.3792322"><ele>901.8333333333334</ele><time>2026-05-02T15:16:08.346Z</time></trkpt><trkpt lat="42.1095511" lon="13.379209"><ele>900.6666666666667</ele><time>2026-05-02T15:16:09.349Z</time></trkpt><trkpt lat="42.1094777" lon="13.3791762"><ele>899.5</ele><time>2026-05-02T15:16:10.346Z</time></trkpt><trkpt lat="42.1094175" lon="13.3791501"><ele>898.3333333333334</ele><time>2026-05-02T15:16:11.347Z</time></trkpt><trkpt lat="42.1093287" lon="13.3791095"><ele>897.1666666666667</ele><time>2026-05-02T15:16:13.363Z</time></trkpt><trkpt lat="42.1092692" lon="13.3790453"><ele>896.0</ele><time>2026-05-02T15:16:15.374Z</time></trkpt><trkpt lat="42.109241" lon="13.378956"><ele>896.5999999999999</ele><time>2026-05-02T15:16:17.365Z</time></trkpt><trkpt lat="42.1092148" lon="13.3787887"><ele>897.1999999999999</ele><time>2026-05-02T15:16:19.353Z</time></trkpt><trkpt lat="42.1091802" lon="13.378681"><ele>897.8000000000001</ele><time>2026-05-02T15:16:20.356Z</time></trkpt><trkpt lat="42.109138" lon="13.3785601"><ele>898.4000000000001</ele><time>2026-05-02T15:16:21.357Z</time></trkpt><trkpt lat="42.1090914" lon="13.3784319"><ele>899.0</ele><time>2026-05-02T15:16:22.349Z</time></trkpt><trkpt lat="42.1090361" lon="13.3782912"><ele>899.0</ele><time>2026-05-02T15:16:23.351Z</time></trkpt><trkpt lat="42.1089735" lon="13.3781571"><ele>899.0</ele><time>2026-05-02T15:16:24.346Z</time></trkpt><trkpt lat="42.1088981" lon="13.3780418"><ele>899.0</ele><time>2026-05-02T15:16:25.347Z</time></trkpt><trkpt lat="42.1088136" lon="13.3779385"><ele>899.0</ele><time>2026-05-02T15:16:26.363Z</time></trkpt><trkpt lat="42.1087307" lon="13.3778538"><ele>901.6</ele><time>2026-05-02T15:16:27.37Z</time></trkpt><trkpt lat="42.1086411" lon="13.3777687"><ele>904.2</ele><time>2026-05-02T15:16:28.356Z</time></trkpt><trkpt lat="42.1085517" lon="13.3777011"><ele>906.8000000000001</ele><time>2026-05-02T15:16:29.346Z</time></trkpt><trkpt lat="42.1084524" lon="13.3776383"><ele>909.4000000000001</ele><time>2026-05-02T15:16:30.354Z</time></trkpt><trkpt lat="42.1083563" lon="13.3776011"><ele>912.0</ele><time>2026-05-02T15:16:31.349Z</time></trkpt><trkpt lat="42.1082547" lon="13.377568"><ele>911.8333333333334</ele><time>2026-05-02T15:16:32.358Z</time></trkpt><trkpt lat="42.1081653" lon="13.3775321"><ele>911.6666666666667</ele><time>2026-05-02T15:16:33.36Z</time></trkpt><trkpt lat="42.1080822" lon="13.3775137"><ele>911.5</ele><time>2026-05-02T15:16:34.347Z</time></trkpt><trkpt lat="42.1080137" lon="13.3774939"><ele>911.3333333333334</ele><time>2026-05-02T15:16:35.342Z</time></trkpt><trkpt lat="42.1079061" lon="13.3774416"><ele>911.1666666666667</ele><time>2026-05-02T15:16:37.343Z</time></trkpt><trkpt lat="42.1078404" lon="13.3774389"><ele>911.0</ele><time>2026-05-02T15:16:38.274Z</time></trkpt><trkpt lat="42.1077619" lon="13.3773602"><ele>911.0000000000001</ele><time>2026-05-02T15:16:40.274Z</time></trkpt><trkpt lat="42.1076934" lon="13.3772906"><ele>911.0</ele><time>2026-05-02T15:16:42.273Z</time></trkpt><trkpt lat="42.1076509" lon="13.3772229"><ele>911.0</ele><time>2026-05-02T15:17:06.297Z</time></trkpt><trkpt lat="42.107583" lon="13.3771792"><ele>911.0</ele><time>2026-05-02T15:17:09.291Z</time></trkpt><trkpt lat="42.1074998" lon="13.3771402"><ele>911.0000000000001</ele><time>2026-05-02T15:17:11.267Z</time></trkpt><trkpt lat="42.1074234" lon="13.3770917"><ele>911.0</ele><time>2026-05-02T15:17:14.292Z</time></trkpt><trkpt lat="42.1073509" lon="13.3770837"><ele>910.1999999999999</ele><time>2026-05-02T15:17:36.282Z</time></trkpt><trkpt lat="42.1072771" lon="13.3771404"><ele>909.3999999999999</ele><time>2026-05-02T15:17:39.277Z</time></trkpt><trkpt lat="42.1072039" lon="13.3771276"><ele>908.6</ele><time>2026-05-02T15:17:41.285Z</time></trkpt><trkpt lat="42.1071072" lon="13.3770786"><ele>907.8</ele><time>2026-05-02T15:17:43.284Z</time></trkpt><trkpt lat="42.1070081" lon="13.3770181"><ele>907.0</ele><time>2026-05-02T15:17:45.288Z</time></trkpt><trkpt lat="42.1069281" lon="13.3769477"><ele>906.9999999999999</ele><time>2026-05-02T15:17:46.293Z</time></trkpt><trkpt lat="42.1068507" lon="13.3768662"><ele>907.0</ele><time>2026-05-02T15:17:47.284Z</time></trkpt><trkpt lat="42.10679" lon="13.376809"><ele>907.0</ele><time>2026-05-02T15:17:48.294Z</time></trkpt><trkpt lat="42.1067195" lon="13.3767569"><ele>907.0</ele><time>2026-05-02T15:17:49.285Z</time></trkpt><trkpt lat="42.1066689" lon="13.3767057"><ele>906.9999999999999</ele><time>2026-05-02T15:17:50.282Z</time></trkpt><trkpt lat="42.1066075" lon="13.376655"><ele>907.0</ele><time>2026-05-02T15:17:51.288Z</time></trkpt><trkpt lat="42.1065398" lon="13.3766279"><ele>905.5714285714287</ele><time>2026-05-02T15:17:52.288Z</time></trkpt><trkpt lat="42.1064705" lon="13.376609"><ele>904.1428571428571</ele><time>2026-05-02T15:17:53.289Z</time></trkpt><trkpt lat="42.1064011" lon="13.37658"><ele>902.7142857142858</ele><time>2026-05-02T15:17:54.286Z</time></trkpt><trkpt lat="42.1063338" lon="13.3765548"><ele>901.2857142857143</ele><time>2026-05-02T15:17:55.29Z</time></trkpt><trkpt lat="42.1062622" lon="13.3765366"><ele>899.8571428571429</ele><time>2026-05-02T15:17:56.289Z</time></trkpt><trkpt lat="42.1061991" lon="13.3765245"><ele>898.4285714285714</ele><time>2026-05-02T15:17:57.289Z</time></trkpt><trkpt lat="42.1061376" lon="13.3765026"><ele>897.0</ele><time>2026-05-02T15:17:58.289Z</time></trkpt><trkpt lat="42.1060728" lon="13.3764777"><ele>897.0</ele><time>2026-05-02T15:17:59.285Z</time></trkpt><trkpt lat="42.106017" lon="13.3764311"><ele>897.0</ele><time>2026-05-02T15:18:00.289Z</time></trkpt><trkpt lat="42.1059414" lon="13.3763048"><ele>897.0</ele><time>2026-05-02T15:18:02.28Z</time></trkpt><trkpt lat="42.1058678" lon="13.3761784"><ele>897.0</ele><time>2026-05-02T15:18:04.28Z</time></trkpt><trkpt lat="42.105778" lon="13.3760714"><ele>897.0</ele><time>2026-05-02T15:18:06.292Z</time></trkpt><trkpt lat="42.1057199" lon="13.3759897"><ele>894.0</ele><time>2026-05-02T15:18:07.286Z</time></trkpt><trkpt lat="42.1056717" lon="13.3759143"><ele>891.0</ele><time>2026-05-02T15:18:08.289Z</time></trkpt><trkpt lat="42.1056124" lon="13.3758481"><ele>888.0</ele><time>2026-05-02T15:18:09.292Z</time></trkpt><trkpt lat="42.1055478" lon="13.3758048"><ele>885.0</ele><time>2026-05-02T15:18:10.294Z</time></trkpt><trkpt lat="42.1054897" lon="13.3757354"><ele>882.0</ele><time>2026-05-02T15:18:11.289Z</time></trkpt><trkpt lat="42.1054263" lon="13.3756409"><ele>879.0</ele><time>2026-05-02T15:18:12.283Z</time></trkpt><trkpt lat="42.1053622" lon="13.3755607"><ele>879.8000000000001</ele><time>2026-05-02T15:18:13.287Z</time></trkpt><trkpt lat="42.1053116" lon="13.375496"><ele>880.6000000000001</ele><time>2026-05-02T15:18:14.282Z</time></trkpt><trkpt lat="42.1052335" lon="13.3753722"><ele>881.4</ele><time>2026-05-02T15:18:16.296Z</time></trkpt><trkpt lat="42.1051833" lon="13.3753088"><ele>882.2</ele><time>2026-05-02T15:18:17.287Z</time></trkpt><trkpt lat="42.1050852" lon="13.3752117"><ele>883.0</ele><time>2026-05-02T15:18:19.292Z</time></trkpt><trkpt lat="42.1050061" lon="13.3751439"><ele>882.9999999999999</ele><time>2026-05-02T15:18:21.286Z</time></trkpt><trkpt lat="42.1050152" lon="13.3750562"><ele>883.0</ele><time>2026-05-02T15:18:23.295Z</time></trkpt><trkpt lat="42.1049971" lon="13.3749662"><ele>883.0</ele><time>2026-05-02T15:18:25.285Z</time></trkpt><trkpt lat="42.1049384" lon="13.3748882"><ele>883.0</ele><time>2026-05-02T15:18:27.291Z</time></trkpt><trkpt lat="42.1048908" lon="13.3748241"><ele>882.9999999999999</ele><time>2026-05-02T15:18:28.281Z</time></trkpt><trkpt lat="42.1048353" lon="13.3747533"><ele>883.0</ele><time>2026-05-02T15:18:29.277Z</time></trkpt><trkpt lat="42.1047797" lon="13.3745851"><ele>881.1666666666666</ele><time>2026-05-02T15:18:31.283Z</time></trkpt><trkpt lat="42.1047484" lon="13.3744429"><ele>879.3333333333333</ele><time>2026-05-02T15:18:33.279Z</time></trkpt><trkpt lat="42.1047063" lon="13.3743459"><ele>877.5</ele><time>2026-05-02T15:18:35.292Z</time></trkpt><trkpt lat="42.104633" lon="13.374313"><ele>875.6666666666667</ele><time>2026-05-02T15:18:37.298Z</time></trkpt><trkpt lat="42.1045691" lon="13.3743034"><ele>873.8333333333334</ele><time>2026-05-02T15:18:39.288Z</time></trkpt><trkpt lat="42.1044858" lon="13.3742155"><ele>872.0</ele><time>2026-05-02T15:18:41.292Z</time></trkpt><trkpt lat="42.1044433" lon="13.3741227"><ele>872.0</ele><time>2026-05-02T15:18:42.283Z</time></trkpt><trkpt lat="42.1043967" lon="13.3740051"><ele>872.0</ele><time>2026-05-02T15:18:43.277Z</time></trkpt><trkpt lat="42.1043397" lon="13.3738981"><ele>872.0</ele><time>2026-05-02T15:18:44.28Z</time></trkpt><trkpt lat="42.104272" lon="13.3738078"><ele>872.0</ele><time>2026-05-02T15:18:45.279Z</time></trkpt><trkpt lat="42.1042097" lon="13.3737203"><ele>872.0</ele><time>2026-05-02T15:18:46.287Z</time></trkpt><trkpt lat="42.1041573" lon="13.3736413"><ele>872.8333333333334</ele><time>2026-05-02T15:18:47.287Z</time></trkpt><trkpt lat="42.1041004" lon="13.3735706"><ele>873.6666666666667</ele><time>2026-05-02T15:18:48.285Z</time></trkpt><trkpt lat="42.1040431" lon="13.3735034"><ele>874.5</ele><time>2026-05-02T15:18:49.283Z</time></trkpt><trkpt lat="42.103984" lon="13.3734215"><ele>875.3333333333333</ele><time>2026-05-02T15:18:50.283Z</time></trkpt><trkpt lat="42.103938" lon="13.3733304"><ele>876.1666666666666</ele><time>2026-05-02T15:18:51.283Z</time></trkpt><trkpt lat="42.1038986" lon="13.3732535"><ele>877.0</ele><time>2026-05-02T15:18:52.279Z</time></trkpt><trkpt lat="42.1038455" lon="13.3731916"><ele>876.9999999999999</ele><time>2026-05-02T15:18:53.286Z</time></trkpt><trkpt lat="42.1037843" lon="13.3731293"><ele>877.0</ele><time>2026-05-02T15:18:54.284Z</time></trkpt><trkpt lat="42.1037176" lon="13.3730543"><ele>877.0</ele><time>2026-05-02T15:18:55.287Z</time></trkpt><trkpt lat="42.1036413" lon="13.3729702"><ele>877.0</ele><time>2026-05-02T15:18:56.284Z</time></trkpt><trkpt lat="42.1035781" lon="13.3728904"><ele>876.9999999999999</ele><time>2026-05-02T15:18:57.278Z</time></trkpt><trkpt lat="42.1035296" lon="13.3728047"><ele>877.0</ele><time>2026-05-02T15:18:58.291Z</time></trkpt><trkpt lat="42.10348" lon="13.3727294"><ele>876.9999999999999</ele><time>2026-05-02T15:18:59.282Z</time></trkpt><trkpt lat="42.1034064" lon="13.3726046"><ele>877.0</ele><time>2026-05-02T15:19:01.274Z</time></trkpt><trkpt lat="42.1033494" lon="13.3725499"><ele>877.0</ele><time>2026-05-02T15:19:02.284Z</time></trkpt><trkpt lat="42.1032902" lon="13.3724533"><ele>877.0</ele><time>2026-05-02T15:19:04.28Z</time></trkpt><trkpt lat="42.1032929" lon="13.3723542"><ele>876.9999999999999</ele><time>2026-05-02T15:19:06.291Z</time></trkpt><trkpt lat="42.1032796" lon="13.3722392"><ele>877.0</ele><time>2026-05-02T15:19:08.288Z</time></trkpt><trkpt lat="42.1031896" lon="13.3721417"><ele>874.8</ele><time>2026-05-02T15:19:10.268Z</time></trkpt><trkpt lat="42.1031315" lon="13.3720903"><ele>872.6</ele><time>2026-05-02T15:19:11.282Z</time></trkpt><trkpt lat="42.1030794" lon="13.3720405"><ele>870.3999999999999</ele><time>2026-05-02T15:19:12.28Z</time></trkpt><trkpt lat="42.1029896" lon="13.3719327"><ele>868.1999999999999</ele><time>2026-05-02T15:19:14.282Z</time></trkpt><trkpt lat="42.1028903" lon="13.3718712"><ele>866.0</ele><time>2026-05-02T15:19:16.291Z</time></trkpt><trkpt lat="42.1027911" lon="13.3717726"><ele>866.0000000000001</ele><time>2026-05-02T15:19:18.292Z</time></trkpt><trkpt lat="42.1027103" lon="13.3716387"><ele>866.0</ele><time>2026-05-02T15:19:20.294Z</time></trkpt><trkpt lat="42.1026717" lon="13.3715595"><ele>866.0</ele><time>2026-05-02T15:19:21.288Z</time></trkpt><trkpt lat="42.1026313" lon="13.3714757"><ele>866.0</ele><time>2026-05-02T15:19:22.281Z</time></trkpt><trkpt lat="42.1025945" lon="13.3713753"><ele>866.0000000000001</ele><time>2026-05-02T15:19:23.283Z</time></trkpt><trkpt lat="42.1025521" lon="13.371309"><ele>866.0</ele><time>2026-05-02T15:19:24.278Z</time></trkpt><trkpt lat="42.1024551" lon="13.3712382"><ele>862.8</ele><time>2026-05-02T15:19:26.288Z</time></trkpt><trkpt lat="42.1023659" lon="13.371145"><ele>859.5999999999999</ele><time>2026-05-02T15:19:28.289Z</time></trkpt><trkpt lat="42.1022752" lon="13.371054"><ele>856.4</ele><time>2026-05-02T15:19:30.288Z</time></trkpt><trkpt lat="42.1021741" lon="13.3709916"><ele>853.2</ele><time>2026-05-02T15:19:32.29Z</time></trkpt><trkpt lat="42.1021056" lon="13.3709069"><ele>850.0</ele><time>2026-05-02T15:19:34.293Z</time></trkpt><trkpt lat="42.1020273" lon="13.3708594"><ele>850.0</ele><time>2026-05-02T15:19:36.291Z</time></trkpt><trkpt lat="42.1019657" lon="13.370816"><ele>850.0</ele><time>2026-05-02T15:19:38.304Z</time></trkpt><trkpt lat="42.1019032" lon="13.3707689"><ele>850.0</ele><time>2026-05-02T15:19:40.3Z</time></trkpt><trkpt lat="42.1018455" lon="13.3707019"><ele>850.0</ele><time>2026-05-02T15:19:42.3Z</time></trkpt><trkpt lat="42.1017762" lon="13.370676"><ele>850.0</ele><time>2026-05-02T15:19:44.294Z</time></trkpt><trkpt lat="42.1017049" lon="13.3706149"><ele>850.0</ele><time>2026-05-02T15:19:47.297Z</time></trkpt><trkpt lat="42.1016542" lon="13.3705425"><ele>850.0</ele><time>2026-05-02T15:19:49.289Z</time></trkpt><trkpt lat="42.1015752" lon="13.3705043"><ele>846.8571428571429</ele><time>2026-05-02T15:19:51.293Z</time></trkpt><trkpt lat="42.1015092" lon="13.3705331"><ele>843.7142857142857</ele><time>2026-05-02T15:19:53.291Z</time></trkpt><trkpt lat="42.1014443" lon="13.3705362"><ele>840.5714285714287</ele><time>2026-05-02T15:19:55.295Z</time></trkpt><trkpt lat="42.101371" lon="13.3704995"><ele>837.4285714285714</ele><time>2026-05-02T15:19:57.296Z</time></trkpt><trkpt lat="42.1012989" lon="13.3704843"><ele>834.2857142857143</ele><time>2026-05-02T15:19:59.296Z</time></trkpt><trkpt lat="42.1012315" lon="13.3704769"><ele>831.1428571428572</ele><time>2026-05-02T15:20:02.295Z</time></trkpt><trkpt lat="42.1011503" lon="13.3705144"><ele>828.0</ele><time>2026-05-02T15:20:05.288Z</time></trkpt><trkpt lat="42.1010795" lon="13.3705656"><ele>828.0</ele><time>2026-05-02T15:20:08.3Z</time></trkpt><trkpt lat="42.1010106" lon="13.3706277"><ele>828.0</ele><time>2026-05-02T15:20:19.278Z</time></trkpt><trkpt lat="42.100943" lon="13.370706"><ele>828.0</ele><time>2026-05-02T15:20:22.291Z</time></trkpt><trkpt lat="42.1008723" lon="13.3706862"><ele>828.0</ele><time>2026-05-02T15:20:25.294Z</time></trkpt><trkpt lat="42.1007663" lon="13.370622"><ele>828.0</ele><time>2026-05-02T15:20:27.295Z</time></trkpt><trkpt lat="42.1007049" lon="13.3705811"><ele>828.0</ele><time>2026-05-02T15:20:28.285Z</time></trkpt><trkpt lat="42.1006358" lon="13.3705428"><ele>825.8</ele><time>2026-05-02T15:20:29.275Z</time></trkpt><trkpt lat="42.1005297" lon="13.3704583"><ele>823.5999999999999</ele><time>2026-05-02T15:20:31.276Z</time></trkpt><trkpt lat="42.1004336" lon="13.3704334"><ele>821.4000000000001</ele><time>2026-05-02T15:20:33.286Z</time></trkpt><trkpt lat="42.1003495" lon="13.3704611"><ele>819.2</ele><time>2026-05-02T15:20:35.294Z</time></trkpt><trkpt lat="42.1002994" lon="13.3705254"><ele>817.0</ele><time>2026-05-02T15:20:37.294Z</time></trkpt><trkpt lat="42.1002187" lon="13.3705641"><ele>817.0</ele><time>2026-05-02T15:20:41.291Z</time></trkpt><trkpt lat="42.1001046" lon="13.3705016"><ele>817.0</ele><time>2026-05-02T15:20:43.282Z</time></trkpt><trkpt lat="42.1000209" lon="13.3704358"><ele>817.0</ele><time>2026-05-02T15:20:44.282Z</time></trkpt><trkpt lat="42.0999427" lon="13.3703675"><ele>817.0</ele><time>2026-05-02T15:20:45.298Z</time></trkpt><trkpt lat="42.0998741" lon="13.3703238"><ele>817.0</ele><time>2026-05-02T15:20:46.292Z</time></trkpt><trkpt lat="42.0997767" lon="13.3702401"><ele>813.6</ele><time>2026-05-02T15:20:48.295Z</time></trkpt><trkpt lat="42.0996875" lon="13.3701479"><ele>810.2</ele><time>2026-05-02T15:20:50.292Z</time></trkpt><trkpt lat="42.0995868" lon="13.370047"><ele>806.8</ele><time>2026-05-02T15:20:52.295Z</time></trkpt><trkpt lat="42.0995361" lon="13.3699842"><ele>803.4</ele><time>2026-05-02T15:20:53.294Z</time></trkpt><trkpt lat="42.0994834" lon="13.3699067"><ele>800.0</ele><time>2026-05-02T15:20:54.296Z</time></trkpt><trkpt lat="42.0994258" lon="13.3698319"><ele>800.0000000000001</ele><time>2026-05-02T15:20:55.295Z</time></trkpt><trkpt lat="42.0993739" lon="13.3697528"><ele>800.0</ele><time>2026-05-02T15:20:56.305Z</time></trkpt><trkpt lat="42.0993293" lon="13.3696734"><ele>800.0</ele><time>2026-05-02T15:20:57.302Z</time></trkpt><trkpt lat="42.0992789" lon="13.3695976"><ele>800.0</ele><time>2026-05-02T15:20:58.31Z</time></trkpt><trkpt lat="42.0992218" lon="13.3695306"><ele>800.0000000000001</ele><time>2026-05-02T15:20:59.296Z</time></trkpt><trkpt lat="42.0991552" lon="13.3694671"><ele>800.0</ele><time>2026-05-02T15:21:00.305Z</time></trkpt><trkpt lat="42.0990866" lon="13.3694062"><ele>798.3333333333334</ele><time>2026-05-02T15:21:01.31Z</time></trkpt><trkpt lat="42.0990244" lon="13.3693326"><ele>796.6666666666667</ele><time>2026-05-02T15:21:02.306Z</time></trkpt><trkpt lat="42.0989601" lon="13.3692568"><ele>795.0</ele><time>2026-05-02T15:21:03.306Z</time></trkpt><trkpt lat="42.0988962" lon="13.3691872"><ele>793.3333333333333</ele><time>2026-05-02T15:21:04.308Z</time></trkpt><trkpt lat="42.0988299" lon="13.3691235"><ele>791.6666666666666</ele><time>2026-05-02T15:21:05.302Z</time></trkpt><trkpt lat="42.0987729" lon="13.3690632"><ele>790.0</ele><time>2026-05-02T15:21:06.305Z</time></trkpt><trkpt lat="42.0987171" lon="13.3689987"><ele>789.9999999999999</ele><time>2026-05-02T15:21:07.291Z</time></trkpt><trkpt lat="42.0986517" lon="13.3689504"><ele>790.0</ele><time>2026-05-02T15:21:08.298Z</time></trkpt><trkpt lat="42.0985858" lon="13.3689124"><ele>790.0</ele><time>2026-05-02T15:21:09.296Z</time></trkpt><trkpt lat="42.0985166" lon="13.3688668"><ele>790.0</ele><time>2026-05-02T15:21:10.3Z</time></trkpt><trkpt lat="42.0984381" lon="13.3688157"><ele>789.9999999999999</ele><time>2026-05-02T15:21:11.294Z</time></trkpt><trkpt lat="42.0983646" lon="13.3687628"><ele>790.0</ele><time>2026-05-02T15:21:12.297Z</time></trkpt><trkpt lat="42.098293" lon="13.3687222"><ele>789.3333333333333</ele><time>2026-05-02T15:21:13.292Z</time></trkpt><trkpt lat="42.0982231" lon="13.3686847"><ele>788.6666666666666</ele><time>2026-05-02T15:21:14.298Z</time></trkpt><trkpt lat="42.0981503" lon="13.3686426"><ele>788.0</ele><time>2026-05-02T15:21:15.297Z</time></trkpt><trkpt lat="42.0980765" lon="13.3686114"><ele>787.3333333333333</ele><time>2026-05-02T15:21:16.295Z</time></trkpt><trkpt lat="42.0980019" lon="13.3685769"><ele>786.6666666666666</ele><time>2026-05-02T15:21:17.299Z</time></trkpt><trkpt lat="42.0979205" lon="13.3685411"><ele>786.0</ele><time>2026-05-02T15:21:18.292Z</time></trkpt><trkpt lat="42.097846" lon="13.3685095"><ele>786.0000000000001</ele><time>2026-05-02T15:21:19.296Z</time></trkpt><trkpt lat="42.0977745" lon="13.3684754"><ele>786.0</ele><time>2026-05-02T15:21:20.29Z</time></trkpt><trkpt lat="42.0977096" lon="13.3684406"><ele>786.0</ele><time>2026-05-02T15:21:21.298Z</time></trkpt><trkpt lat="42.0976464" lon="13.3684106"><ele>786.0</ele><time>2026-05-02T15:21:22.309Z</time></trkpt><trkpt lat="42.0975788" lon="13.368392"><ele>786.0</ele><time>2026-05-02T15:21:23.305Z</time></trkpt><trkpt lat="42.0975051" lon="13.3683602"><ele>786.0000000000001</ele><time>2026-05-02T15:21:24.301Z</time></trkpt><trkpt lat="42.0974306" lon="13.3683353"><ele>786.0</ele><time>2026-05-02T15:21:25.306Z</time></trkpt><trkpt lat="42.0973663" lon="13.3683166"><ele>783.3333333333334</ele><time>2026-05-02T15:21:26.304Z</time></trkpt><trkpt lat="42.0973008" lon="13.3683004"><ele>780.6666666666667</ele><time>2026-05-02T15:21:27.295Z</time></trkpt><trkpt lat="42.0971824" lon="13.3682738"><ele>778.0</ele><time>2026-05-02T15:21:29.3Z</time></trkpt><trkpt lat="42.0971149" lon="13.3682561"><ele>775.3333333333334</ele><time>2026-05-02T15:21:30.298Z</time></trkpt><trkpt lat="42.0970461" lon="13.368226"><ele>772.6666666666667</ele><time>2026-05-02T15:21:31.295Z</time></trkpt><trkpt lat="42.0969769" lon="13.3681708"><ele>770.0</ele><time>2026-05-02T15:21:32.289Z</time></trkpt><trkpt lat="42.0969097" lon="13.3681157"><ele>770.0000000000001</ele><time>2026-05-02T15:21:33.299Z</time></trkpt><trkpt lat="42.0968414" lon="13.3680589"><ele>770.0</ele><time>2026-05-02T15:21:34.295Z</time></trkpt><trkpt lat="42.096774" lon="13.3680054"><ele>770.0</ele><time>2026-05-02T15:21:35.293Z</time></trkpt><trkpt lat="42.0967139" lon="13.3679466"><ele>770.0</ele><time>2026-05-02T15:21:36.285Z</time></trkpt><trkpt lat="42.0966601" lon="13.3678938"><ele>770.0000000000001</ele><time>2026-05-02T15:21:37.29Z</time></trkpt><trkpt lat="42.0965651" lon="13.3677739"><ele>770.0</ele><time>2026-05-02T15:21:39.295Z</time></trkpt><trkpt lat="42.0964706" lon="13.3676767"><ele>766.6</ele><time>2026-05-02T15:21:41.297Z</time></trkpt><trkpt lat="42.0963949" lon="13.3675776"><ele>763.2</ele><time>2026-05-02T15:21:43.299Z</time></trkpt><trkpt lat="42.0963144" lon="13.3674756"><ele>759.8</ele><time>2026-05-02T15:21:45.288Z</time></trkpt><trkpt lat="42.0962253" lon="13.3673696"><ele>756.4</ele><time>2026-05-02T15:21:47.294Z</time></trkpt><trkpt lat="42.0961454" lon="13.3672715"><ele>753.0</ele><time>2026-05-02T15:21:49.296Z</time></trkpt><trkpt lat="42.0960445" lon="13.3672042"><ele>750.8333333333334</ele><time>2026-05-02T15:21:51.293Z</time></trkpt><trkpt lat="42.0959803" lon="13.3671754"><ele>748.6666666666666</ele><time>2026-05-02T15:21:52.291Z</time></trkpt><trkpt lat="42.0959142" lon="13.3671465"><ele>746.5</ele><time>2026-05-02T15:21:53.294Z</time></trkpt><trkpt lat="42.0958421" lon="13.3671182"><ele>744.3333333333333</ele><time>2026-05-02T15:21:54.292Z</time></trkpt><trkpt lat="42.0957677" lon="13.3670888"><ele>742.1666666666666</ele><time>2026-05-02T15:21:55.298Z</time></trkpt><trkpt lat="42.0956842" lon="13.3670545"><ele>740.0</ele><time>2026-05-02T15:21:56.29Z</time></trkpt><trkpt lat="42.0955922" lon="13.3670121"><ele>739.0</ele><time>2026-05-02T15:21:57.296Z</time></trkpt><trkpt lat="42.0955023" lon="13.3669797"><ele>738.0</ele><time>2026-05-02T15:21:58.298Z</time></trkpt><trkpt lat="42.0954157" lon="13.3669373"><ele>737.0</ele><time>2026-05-02T15:21:59.294Z</time></trkpt><trkpt lat="42.0953312" lon="13.3668956"><ele>736.0</ele><time>2026-05-02T15:22:00.298Z</time></trkpt><trkpt lat="42.0952511" lon="13.3668536"><ele>735.0</ele><time>2026-05-02T15:22:01.297Z</time></trkpt><trkpt lat="42.0951684" lon="13.3668088"><ele>735.0</ele><time>2026-05-02T15:22:02.293Z</time></trkpt><trkpt lat="42.0950926" lon="13.366769"><ele>735.0</ele><time>2026-05-02T15:22:03.295Z</time></trkpt><trkpt lat="42.0950199" lon="13.3667386"><ele>735.0</ele><time>2026-05-02T15:22:04.293Z</time></trkpt><trkpt lat="42.0949482" lon="13.3666848"><ele>735.0</ele><time>2026-05-02T15:22:05.293Z</time></trkpt><trkpt lat="42.0948719" lon="13.3666454"><ele>735.0</ele><time>2026-05-02T15:22:06.297Z</time></trkpt><trkpt lat="42.0947928" lon="13.3666229"><ele>735.0</ele><time>2026-05-02T15:22:07.297Z</time></trkpt><trkpt lat="42.0947203" lon="13.3666142"><ele>734.8333333333334</ele><time>2026-05-02T15:22:08.294Z</time></trkpt><trkpt lat="42.094635" lon="13.3666033"><ele>734.6666666666666</ele><time>2026-05-02T15:22:10.29Z</time></trkpt><trkpt lat="42.0945813" lon="13.3665526"><ele>734.5</ele><time>2026-05-02T15:23:36.31Z</time></trkpt><trkpt lat="42.0945077" lon="13.3665079"><ele>734.3333333333333</ele><time>2026-05-02T15:23:39.308Z</time></trkpt><trkpt lat="42.0944044" lon="13.3663884"><ele>734.1666666666666</ele><time>2026-05-02T15:23:41.305Z</time></trkpt><trkpt lat="42.0943566" lon="13.3663153"><ele>734.0</ele><time>2026-05-02T15:23:42.3Z</time></trkpt><trkpt lat="42.0943292" lon="13.366236"><ele>733.4000000000001</ele><time>2026-05-02T15:23:43.294Z</time></trkpt><trkpt lat="42.0943663" lon="13.3660638"><ele>732.8</ele><time>2026-05-02T15:23:45.292Z</time></trkpt><trkpt lat="42.0944219" lon="13.3659744"><ele>732.2</ele><time>2026-05-02T15:23:46.294Z</time></trkpt><trkpt lat="42.0944916" lon="13.3658914"><ele>731.5999999999999</ele><time>2026-05-02T15:23:47.308Z</time></trkpt><trkpt lat="42.0945642" lon="13.3657871"><ele>731.0</ele><time>2026-05-02T15:23:48.385Z</time></trkpt><trkpt lat="42.0946395" lon="13.3656788"><ele>731.0</ele><time>2026-05-02T15:23:49.382Z</time></trkpt><trkpt lat="42.0947162" lon="13.365563"><ele>731.0</ele><time>2026-05-02T15:23:50.38Z</time></trkpt><trkpt lat="42.094796" lon="13.365446"><ele>731.0</ele><time>2026-05-02T15:23:51.388Z</time></trkpt><trkpt lat="42.094877" lon="13.36533"><ele>731.0</ele><time>2026-05-02T15:23:52.388Z</time></trkpt><trkpt lat="42.0949651" lon="13.3652043"><ele>730.5</ele><time>2026-05-02T15:23:53.385Z</time></trkpt><trkpt lat="42.0950558" lon="13.3650682"><ele>730.0</ele><time>2026-05-02T15:23:54.386Z</time></trkpt><trkpt lat="42.0951511" lon="13.3649267"><ele>729.5</ele><time>2026-05-02T15:23:55.381Z</time></trkpt><trkpt lat="42.0952443" lon="13.3647945"><ele>729.0</ele><time>2026-05-02T15:23:56.379Z</time></trkpt><trkpt lat="42.0953353" lon="13.3646764"><ele>728.75</ele><time>2026-05-02T15:23:57.382Z</time></trkpt><trkpt lat="42.0954332" lon="13.3645585"><ele>728.5</ele><time>2026-05-02T15:23:58.386Z</time></trkpt><trkpt lat="42.0955502" lon="13.3644305"><ele>728.25</ele><time>2026-05-02T15:23:59.38Z</time></trkpt><trkpt lat="42.095649" lon="13.3643128"><ele>728.0</ele><time>2026-05-02T15:24:00.384Z</time></trkpt><trkpt lat="42.0957492" lon="13.364184"><ele>727.0</ele><time>2026-05-02T15:24:01.381Z</time></trkpt><trkpt lat="42.0958505" lon="13.3640457"><ele>726.0</ele><time>2026-05-02T15:24:02.382Z</time></trkpt><trkpt lat="42.0959551" lon="13.3638923"><ele>725.0</ele><time>2026-05-02T15:24:03.386Z</time></trkpt><trkpt lat="42.0960618" lon="13.3637361"><ele>724.0</ele><time>2026-05-02T15:24:04.383Z</time></trkpt><trkpt lat="42.0961689" lon="13.3635789"><ele>723.0</ele><time>2026-05-02T15:24:05.383Z</time></trkpt><trkpt lat="42.0962695" lon="13.3634269"><ele>722.0</ele><time>2026-05-02T15:24:06.388Z</time></trkpt><trkpt lat="42.0963648" lon="13.3632784"><ele>722.0</ele><time>2026-05-02T15:24:07.385Z</time></trkpt><trkpt lat="42.0964596" lon="13.3631262"><ele>722.0</ele><time>2026-05-02T15:24:08.387Z</time></trkpt><trkpt lat="42.0965597" lon="13.3629712"><ele>722.0</ele><time>2026-05-02T15:24:09.382Z</time></trkpt><trkpt lat="42.0966648" lon="13.3628139"><ele>720.0</ele><time>2026-05-02T15:24:10.388Z</time></trkpt><trkpt lat="42.0967692" lon="13.3626594"><ele>718.0</ele><time>2026-05-02T15:24:11.395Z</time></trkpt><trkpt lat="42.0968676" lon="13.3625081"><ele>716.0</ele><time>2026-05-02T15:24:12.401Z</time></trkpt><trkpt lat="42.0969651" lon="13.3623577"><ele>716.0</ele><time>2026-05-02T15:24:13.381Z</time></trkpt><trkpt lat="42.0970589" lon="13.362203"><ele>716.0</ele><time>2026-05-02T15:24:14.382Z</time></trkpt><trkpt lat="42.0971525" lon="13.3620546"><ele>716.0</ele><time>2026-05-02T15:24:15.388Z</time></trkpt><trkpt lat="42.0972441" lon="13.3619144"><ele>716.0</ele><time>2026-05-02T15:24:16.39Z</time></trkpt><trkpt lat="42.0973396" lon="13.3617719"><ele>715.5</ele><time>2026-05-02T15:24:17.39Z</time></trkpt><trkpt lat="42.0974369" lon="13.361628"><ele>715.0</ele><time>2026-05-02T15:24:18.385Z</time></trkpt><trkpt lat="42.0975355" lon="13.3614786"><ele>714.5</ele><time>2026-05-02T15:24:19.39Z</time></trkpt><trkpt lat="42.0976316" lon="13.3613324"><ele>714.0</ele><time>2026-05-02T15:24:20.39Z</time></trkpt><trkpt lat="42.0977248" lon="13.3611819"><ele>714.0</ele><time>2026-05-02T15:24:21.388Z</time></trkpt><trkpt lat="42.0978191" lon="13.3610298"><ele>714.0</ele><time>2026-05-02T15:24:22.389Z</time></trkpt><trkpt lat="42.0979076" lon="13.3608824"><ele>714.0</ele><time>2026-05-02T15:24:23.386Z</time></trkpt><trkpt lat="42.0979957" lon="13.3607446"><ele>714.0</ele><time>2026-05-02T15:24:24.38Z</time></trkpt><trkpt lat="42.0980925" lon="13.3606147"><ele>712.75</ele><time>2026-05-02T15:24:25.384Z</time></trkpt><trkpt lat="42.0981936" lon="13.3604877"><ele>711.5</ele><time>2026-05-02T15:24:26.384Z</time></trkpt><trkpt lat="42.0983036" lon="13.3603533"><ele>710.25</ele><time>2026-05-02T15:24:27.388Z</time></trkpt><trkpt lat="42.0984204" lon="13.3602184"><ele>709.0</ele><time>2026-05-02T15:24:28.392Z</time></trkpt><trkpt lat="42.0985341" lon="13.3600814"><ele>709.0</ele><time>2026-05-02T15:24:29.387Z</time></trkpt><trkpt lat="42.0986504" lon="13.3599457"><ele>709.0</ele><time>2026-05-02T15:24:30.394Z</time></trkpt><trkpt lat="42.0987698" lon="13.3598134"><ele>709.0</ele><time>2026-05-02T15:24:31.386Z</time></trkpt><trkpt lat="42.0988912" lon="13.3596765"><ele>708.6666666666667</ele><time>2026-05-02T15:24:32.389Z</time></trkpt><trkpt lat="42.0990137" lon="13.359534"><ele>708.3333333333334</ele><time>2026-05-02T15:24:33.387Z</time></trkpt><trkpt lat="42.0991345" lon="13.3593878"><ele>708.0</ele><time>2026-05-02T15:24:34.388Z</time></trkpt><trkpt lat="42.0992554" lon="13.3592416"><ele>708.0</ele><time>2026-05-02T15:24:35.388Z</time></trkpt><trkpt lat="42.0993763" lon="13.3590955"><ele>708.0</ele><time>2026-05-02T15:24:36.384Z</time></trkpt><trkpt lat="42.0994859" lon="13.3589571"><ele>708.0</ele><time>2026-05-02T15:24:37.384Z</time></trkpt><trkpt lat="42.0995936" lon="13.3588188"><ele>708.0</ele><time>2026-05-02T15:24:38.385Z</time></trkpt><trkpt lat="42.0997024" lon="13.3586761"><ele>708.0</ele><time>2026-05-02T15:24:39.386Z</time></trkpt><trkpt lat="42.0998128" lon="13.3585304"><ele>708.0</ele><time>2026-05-02T15:24:40.385Z</time></trkpt><trkpt lat="42.0999243" lon="13.3583945"><ele>708.3333333333334</ele><time>2026-05-02T15:24:41.384Z</time></trkpt><trkpt lat="42.1000402" lon="13.3582617"><ele>708.6666666666667</ele><time>2026-05-02T15:24:42.384Z</time></trkpt><trkpt lat="42.1001587" lon="13.3581314"><ele>709.0</ele><time>2026-05-02T15:24:43.389Z</time></trkpt><trkpt lat="42.1002759" lon="13.3580021"><ele>709.0</ele><time>2026-05-02T15:24:44.386Z</time></trkpt><trkpt lat="42.1003948" lon="13.3578754"><ele>709.0</ele><time>2026-05-02T15:24:45.381Z</time></trkpt><trkpt lat="42.100513" lon="13.3577534"><ele>709.0</ele><time>2026-05-02T15:24:46.385Z</time></trkpt><trkpt lat="42.1006291" lon="13.357626"><ele>709.0</ele><time>2026-05-02T15:24:47.381Z</time></trkpt><trkpt lat="42.100738" lon="13.3574965"><ele>709.0</ele><time>2026-05-02T15:24:48.378Z</time></trkpt><trkpt lat="42.1008456" lon="13.3573597"><ele>709.0</ele><time>2026-05-02T15:24:49.375Z</time></trkpt><trkpt lat="42.1009597" lon="13.3572299"><ele>709.0</ele><time>2026-05-02T15:24:50.368Z</time></trkpt><trkpt lat="42.1010872" lon="13.3571197"><ele>709.3333333333334</ele><time>2026-05-02T15:24:51.371Z</time></trkpt><trkpt lat="42.101226" lon="13.3570185"><ele>709.6666666666666</ele><time>2026-05-02T15:24:52.363Z</time></trkpt><trkpt lat="42.101365" lon="13.3569074"><ele>710.0</ele><time>2026-05-02T15:24:53.362Z</time></trkpt><trkpt lat="42.1014975" lon="13.3567921"><ele>711.6666666666666</ele><time>2026-05-02T15:24:54.355Z</time></trkpt><trkpt lat="42.1016141" lon="13.3566604"><ele>713.3333333333334</ele><time>2026-05-02T15:24:55.361Z</time></trkpt><trkpt lat="42.1017288" lon="13.3565222"><ele>715.0</ele><time>2026-05-02T15:24:56.362Z</time></trkpt><trkpt lat="42.1018424" lon="13.3563825"><ele>714.3333333333334</ele><time>2026-05-02T15:24:57.378Z</time></trkpt><trkpt lat="42.1019582" lon="13.356235"><ele>713.6666666666666</ele><time>2026-05-02T15:24:58.375Z</time></trkpt><trkpt lat="42.1020744" lon="13.3560812"><ele>713.0</ele><time>2026-05-02T15:24:59.374Z</time></trkpt><trkpt lat="42.1021937" lon="13.3559293"><ele>713.0</ele><time>2026-05-02T15:25:00.379Z</time></trkpt><trkpt lat="42.1023113" lon="13.3557756"><ele>713.0</ele><time>2026-05-02T15:25:01.375Z</time></trkpt><trkpt lat="42.1024308" lon="13.3556193"><ele>713.0</ele><time>2026-05-02T15:25:02.373Z</time></trkpt><trkpt lat="42.1025499" lon="13.3554666"><ele>713.0</ele><time>2026-05-02T15:25:03.376Z</time></trkpt><trkpt lat="42.1026682" lon="13.3553213"><ele>713.0</ele><time>2026-05-02T15:25:04.379Z</time></trkpt><trkpt lat="42.1027861" lon="13.3551744"><ele>713.0</ele><time>2026-05-02T15:25:05.378Z</time></trkpt><trkpt lat="42.1029028" lon="13.3550242"><ele>713.0</ele><time>2026-05-02T15:25:06.378Z</time></trkpt><trkpt lat="42.1030181" lon="13.3548735"><ele>713.0</ele><time>2026-05-02T15:25:07.378Z</time></trkpt><trkpt lat="42.1031415" lon="13.354722"><ele>713.0</ele><time>2026-05-02T15:25:08.379Z</time></trkpt><trkpt lat="42.103263" lon="13.3545732"><ele>716.3333333333333</ele><time>2026-05-02T15:25:09.378Z</time></trkpt><trkpt lat="42.1033844" lon="13.3544209"><ele>719.6666666666666</ele><time>2026-05-02T15:25:10.385Z</time></trkpt><trkpt lat="42.103506" lon="13.3542669"><ele>723.0</ele><time>2026-05-02T15:25:11.382Z</time></trkpt><trkpt lat="42.1036249" lon="13.3541119"><ele>723.0</ele><time>2026-05-02T15:25:12.381Z</time></trkpt><trkpt lat="42.1037403" lon="13.353955"><ele>723.0</ele><time>2026-05-02T15:25:13.384Z</time></trkpt><trkpt lat="42.1038542" lon="13.3538042"><ele>723.0</ele><time>2026-05-02T15:25:14.381Z</time></trkpt><trkpt lat="42.103964" lon="13.3536553"><ele>724.6666666666666</ele><time>2026-05-02T15:25:15.379Z</time></trkpt><trkpt lat="42.104071" lon="13.3535132"><ele>726.3333333333333</ele><time>2026-05-02T15:25:16.378Z</time></trkpt><trkpt lat="42.1041839" lon="13.3533782"><ele>728.0</ele><time>2026-05-02T15:25:17.377Z</time></trkpt><trkpt lat="42.104303" lon="13.3532562"><ele>728.6666666666666</ele><time>2026-05-02T15:25:18.38Z</time></trkpt><trkpt lat="42.1044293" lon="13.3531449"><ele>729.3333333333334</ele><time>2026-05-02T15:25:19.377Z</time></trkpt><trkpt lat="42.1045591" lon="13.3530435"><ele>730.0</ele><time>2026-05-02T15:25:20.364Z</time></trkpt><trkpt lat="42.1046915" lon="13.3529392"><ele>730.75</ele><time>2026-05-02T15:25:21.363Z</time></trkpt><trkpt lat="42.1048216" lon="13.3528349"><ele>731.5</ele><time>2026-05-02T15:25:22.36Z</time></trkpt><trkpt lat="42.1049452" lon="13.3527289"><ele>732.25</ele><time>2026-05-02T15:25:23.355Z</time></trkpt><trkpt lat="42.1050656" lon="13.3526281"><ele>733.0</ele><time>2026-05-02T15:25:24.379Z</time></trkpt><trkpt lat="42.1051752" lon="13.3525392"><ele>734.2</ele><time>2026-05-02T15:25:25.376Z</time></trkpt><trkpt lat="42.1052738" lon="13.352461"><ele>735.4</ele><time>2026-05-02T15:25:26.376Z</time></trkpt><trkpt lat="42.1053617" lon="13.3523921"><ele>736.6</ele><time>2026-05-02T15:25:27.375Z</time></trkpt><trkpt lat="42.1054391" lon="13.3523278"><ele>737.8000000000001</ele><time>2026-05-02T15:25:28.378Z</time></trkpt><trkpt lat="42.1055168" lon="13.3522672"><ele>739.0</ele><time>2026-05-02T15:25:29.377Z</time></trkpt><trkpt lat="42.1055991" lon="13.3522006"><ele>739.0</ele><time>2026-05-02T15:25:30.382Z</time></trkpt><trkpt lat="42.1056849" lon="13.3521279"><ele>739.0</ele><time>2026-05-02T15:25:31.38Z</time></trkpt><trkpt lat="42.1057641" lon="13.3520597"><ele>739.0</ele><time>2026-05-02T15:25:32.382Z</time></trkpt><trkpt lat="42.1058377" lon="13.3519971"><ele>739.0</ele><time>2026-05-02T15:25:33.375Z</time></trkpt><trkpt lat="42.105909" lon="13.3519353"><ele>739.0</ele><time>2026-05-02T15:25:34.377Z</time></trkpt><trkpt lat="42.1059889" lon="13.3518664"><ele>739.8333333333334</ele><time>2026-05-02T15:25:35.375Z</time></trkpt><trkpt lat="42.106067" lon="13.351803"><ele>740.6666666666667</ele><time>2026-05-02T15:25:36.377Z</time></trkpt><trkpt lat="42.1061371" lon="13.3517472"><ele>741.5</ele><time>2026-05-02T15:25:37.376Z</time></trkpt><trkpt lat="42.1062018" lon="13.3516949"><ele>742.3333333333334</ele><time>2026-05-02T15:25:38.371Z</time></trkpt><trkpt lat="42.1062657" lon="13.3516415"><ele>743.1666666666666</ele><time>2026-05-02T15:25:39.371Z</time></trkpt><trkpt lat="42.1063301" lon="13.3515799"><ele>744.0</ele><time>2026-05-02T15:25:40.377Z</time></trkpt><trkpt lat="42.1063991" lon="13.3515225"><ele>744.0</ele><time>2026-05-02T15:25:41.369Z</time></trkpt><trkpt lat="42.1064763" lon="13.3514765"><ele>744.0</ele><time>2026-05-02T15:25:42.36Z</time></trkpt><trkpt lat="42.1065538" lon="13.3514367"><ele>744.0</ele><time>2026-05-02T15:25:43.365Z</time></trkpt><trkpt lat="42.1066364" lon="13.3513991"><ele>744.0</ele><time>2026-05-02T15:25:44.358Z</time></trkpt><trkpt lat="42.1067173" lon="13.3513633"><ele>744.0</ele><time>2026-05-02T15:25:45.361Z</time></trkpt><trkpt lat="42.1068019" lon="13.3513331"><ele>744.0</ele><time>2026-05-02T15:25:46.374Z</time></trkpt><trkpt lat="42.1068712" lon="13.3513095"><ele>744.6</ele><time>2026-05-02T15:25:47.378Z</time></trkpt><trkpt lat="42.1069409" lon="13.3512845"><ele>745.2</ele><time>2026-05-02T15:25:50.379Z</time></trkpt><trkpt lat="42.1069874" lon="13.3511935"><ele>745.8000000000001</ele><time>2026-05-02T15:26:12.289Z</time></trkpt><trkpt lat="42.1070169" lon="13.3510465"><ele>746.4000000000001</ele><time>2026-05-02T15:26:14.284Z</time></trkpt><trkpt lat="42.1070307" lon="13.3509209"><ele>747.0</ele><time>2026-05-02T15:26:15.287Z</time></trkpt><trkpt lat="42.1070465" lon="13.3507855"><ele>747.0</ele><time>2026-05-02T15:26:16.288Z</time></trkpt><trkpt lat="42.1070686" lon="13.350647"><ele>747.0</ele><time>2026-05-02T15:26:17.287Z</time></trkpt><trkpt lat="42.1070977" lon="13.3505206"><ele>747.0</ele><time>2026-05-02T15:26:18.286Z</time></trkpt><trkpt lat="42.1071138" lon="13.35039"><ele>747.0</ele><time>2026-05-02T15:26:19.285Z</time></trkpt><trkpt lat="42.1071343" lon="13.3502545"><ele>747.0</ele><time>2026-05-02T15:26:20.282Z</time></trkpt><trkpt lat="42.1071584" lon="13.3501287"><ele>747.4000000000001</ele><time>2026-05-02T15:26:21.283Z</time></trkpt><trkpt lat="42.1072046" lon="13.3500097"><ele>747.8000000000001</ele><time>2026-05-02T15:26:22.274Z</time></trkpt><trkpt lat="42.1072676" lon="13.3499025"><ele>748.2</ele><time>2026-05-02T15:26:23.277Z</time></trkpt><trkpt lat="42.1073484" lon="13.3497995"><ele>748.6</ele><time>2026-05-02T15:26:24.28Z</time></trkpt><trkpt lat="42.1074276" lon="13.3497045"><ele>749.0</ele><time>2026-05-02T15:26:25.277Z</time></trkpt><trkpt lat="42.1074968" lon="13.349627"><ele>749.3333333333333</ele><time>2026-05-02T15:26:26.28Z</time></trkpt><trkpt lat="42.1075551" lon="13.3495546"><ele>749.6666666666666</ele><time>2026-05-02T15:26:27.274Z</time></trkpt><trkpt lat="42.1076013" lon="13.3494901"><ele>750.0</ele><time>2026-05-02T15:26:28.271Z</time></trkpt><trkpt lat="42.107656" lon="13.349407"><ele>750.3333333333334</ele><time>2026-05-02T15:26:30.277Z</time></trkpt><trkpt lat="42.1077099" lon="13.3493013"><ele>750.6666666666667</ele><time>2026-05-02T15:26:38.295Z</time></trkpt><trkpt lat="42.1077444" lon="13.3492293"><ele>751.0</ele><time>2026-05-02T15:26:39.282Z</time></trkpt><trkpt lat="42.1077789" lon="13.3491203"><ele>751.0</ele><time>2026-05-02T15:26:40.27Z</time></trkpt><trkpt lat="42.1078004" lon="13.3489714"><ele>751.0</ele><time>2026-05-02T15:26:41.272Z</time></trkpt><trkpt lat="42.1078231" lon="13.3488024"><ele>751.0</ele><time>2026-05-02T15:26:42.282Z</time></trkpt><trkpt lat="42.107846" lon="13.3486376"><ele>751.0</ele><time>2026-05-02T15:26:43.279Z</time></trkpt><trkpt lat="42.1078618" lon="13.3484761"><ele>751.0</ele><time>2026-05-02T15:26:44.277Z</time></trkpt><trkpt lat="42.1078851" lon="13.3483126"><ele>751.0</ele><time>2026-05-02T15:26:45.279Z</time></trkpt><trkpt lat="42.1079081" lon="13.3481565"><ele>751.0</ele><time>2026-05-02T15:26:46.283Z</time></trkpt><trkpt lat="42.1079335" lon="13.3480239"><ele>751.0</ele><time>2026-05-02T15:26:47.278Z</time></trkpt><trkpt lat="42.1079433" lon="13.3479032"><ele>751.0</ele><time>2026-05-02T15:26:48.278Z</time></trkpt><trkpt lat="42.1079478" lon="13.347791"><ele>751.4</ele><time>2026-05-02T15:26:50.271Z</time></trkpt><trkpt lat="42.1080218" lon="13.3476944"><ele>751.8</ele><time>2026-05-02T15:27:19.286Z</time></trkpt><trkpt lat="42.1080884" lon="13.3476524"><ele>752.1999999999999</ele><time>2026-05-02T15:27:20.27Z</time></trkpt><trkpt lat="42.1081995" lon="13.3476191"><ele>752.5999999999999</ele><time>2026-05-02T15:27:21.274Z</time></trkpt><trkpt lat="42.1083087" lon="13.3475801"><ele>753.0</ele><time>2026-05-02T15:27:22.282Z</time></trkpt><trkpt lat="42.1084105" lon="13.347538"><ele>754.25</ele><time>2026-05-02T15:27:23.279Z</time></trkpt><trkpt lat="42.1085122" lon="13.3474884"><ele>755.5</ele><time>2026-05-02T15:27:24.28Z</time></trkpt><trkpt lat="42.1086207" lon="13.3474372"><ele>756.75</ele><time>2026-05-02T15:27:25.281Z</time></trkpt><trkpt lat="42.1087259" lon="13.347389"><ele>758.0</ele><time>2026-05-02T15:27:26.283Z</time></trkpt><trkpt lat="42.1088439" lon="13.3473516"><ele>758.0</ele><time>2026-05-02T15:27:27.279Z</time></trkpt><trkpt lat="42.1089675" lon="13.3473138"><ele>758.0</ele><time>2026-05-02T15:27:28.282Z</time></trkpt><trkpt lat="42.1090933" lon="13.3472799"><ele>758.0</ele><time>2026-05-02T15:27:29.275Z</time></trkpt><trkpt lat="42.1092221" lon="13.3472488"><ele>758.0</ele><time>2026-05-02T15:27:30.282Z</time></trkpt><trkpt lat="42.1093542" lon="13.3472178"><ele>759.4</ele><time>2026-05-02T15:27:31.267Z</time></trkpt><trkpt lat="42.1094467" lon="13.3471899"><ele>760.8</ele><time>2026-05-02T15:27:32.282Z</time></trkpt><trkpt lat="42.109546" lon="13.3471545"><ele>762.2</ele><time>2026-05-02T15:27:34.276Z</time></trkpt><trkpt lat="42.1096641" lon="13.3471253"><ele>763.6</ele><time>2026-05-02T15:27:36.278Z</time></trkpt><trkpt lat="42.1097495" lon="13.3471073"><ele>765.0</ele><time>2026-05-02T15:27:37.279Z</time></trkpt><trkpt lat="42.1098395" lon="13.34708"><ele>766.6</ele><time>2026-05-02T15:27:38.278Z</time></trkpt><trkpt lat="42.1099221" lon="13.3470559"><ele>768.2</ele><time>2026-05-02T15:27:39.273Z</time></trkpt><trkpt lat="42.1100109" lon="13.3470214"><ele>769.8</ele><time>2026-05-02T15:27:40.282Z</time></trkpt><trkpt lat="42.1101247" lon="13.3469841"><ele>771.4</ele><time>2026-05-02T15:27:41.276Z</time></trkpt><trkpt lat="42.1102379" lon="13.3469488"><ele>773.0</ele><time>2026-05-02T15:27:42.279Z</time></trkpt><trkpt lat="42.1103558" lon="13.3469123"><ele>773.0</ele><time>2026-05-02T15:27:43.279Z</time></trkpt><trkpt lat="42.1104871" lon="13.3468683"><ele>773.0</ele><time>2026-05-02T15:27:44.298Z</time></trkpt><trkpt lat="42.1106114" lon="13.3468184"><ele>773.0</ele><time>2026-05-02T15:27:45.366Z</time></trkpt><trkpt lat="42.1107412" lon="13.346767"><ele>773.0</ele><time>2026-05-02T15:27:46.363Z</time></trkpt><trkpt lat="42.1108744" lon="13.3467156"><ele>774.25</ele><time>2026-05-02T15:27:47.36Z</time></trkpt><trkpt lat="42.1110103" lon="13.3466595"><ele>775.5</ele><time>2026-05-02T15:27:48.36Z</time></trkpt><trkpt lat="42.111141" lon="13.3466057"><ele>776.75</ele><time>2026-05-02T15:27:49.354Z</time></trkpt><trkpt lat="42.1112768" lon="13.3465478"><ele>778.0</ele><time>2026-05-02T15:27:50.359Z</time></trkpt><trkpt lat="42.1114353" lon="13.3464877"><ele>780.0</ele><time>2026-05-02T15:27:51.358Z</time></trkpt><trkpt lat="42.111576" lon="13.3464247"><ele>782.0</ele><time>2026-05-02T15:27:52.361Z</time></trkpt><trkpt lat="42.1117193" lon="13.3463595"><ele>784.0</ele><time>2026-05-02T15:27:53.359Z</time></trkpt><trkpt lat="42.1118677" lon="13.3462889"><ele>784.3333333333333</ele><time>2026-05-02T15:27:54.365Z</time></trkpt><trkpt lat="42.112013" lon="13.3462147"><ele>784.6666666666667</ele><time>2026-05-02T15:27:55.364Z</time></trkpt><trkpt lat="42.1121618" lon="13.3461218"><ele>785.0</ele><time>2026-05-02T15:27:56.366Z</time></trkpt><trkpt lat="42.1123065" lon="13.3460419"><ele>787.6666666666667</ele><time>2026-05-02T15:27:57.364Z</time></trkpt><trkpt lat="42.1124511" lon="13.345949"><ele>790.3333333333333</ele><time>2026-05-02T15:27:58.364Z</time></trkpt><trkpt lat="42.1125926" lon="13.3458457"><ele>793.0</ele><time>2026-05-02T15:27:59.365Z</time></trkpt><trkpt lat="42.1127359" lon="13.3457422"><ele>793.0</ele><time>2026-05-02T15:28:00.37Z</time></trkpt><trkpt lat="42.1128796" lon="13.3456421"><ele>793.0</ele><time>2026-05-02T15:28:01.363Z</time></trkpt><trkpt lat="42.1130247" lon="13.3455461"><ele>793.0</ele><time>2026-05-02T15:28:02.367Z</time></trkpt><trkpt lat="42.1131704" lon="13.3454513"><ele>794.6666666666666</ele><time>2026-05-02T15:28:03.37Z</time></trkpt><trkpt lat="42.1133165" lon="13.3453507"><ele>796.3333333333333</ele><time>2026-05-02T15:28:04.373Z</time></trkpt><trkpt lat="42.113459" lon="13.3452426"><ele>798.0</ele><time>2026-05-02T15:28:05.371Z</time></trkpt><trkpt lat="42.1136031" lon="13.3451337"><ele>798.0</ele><time>2026-05-02T15:28:06.373Z</time></trkpt><trkpt lat="42.1137472" lon="13.3450257"><ele>798.0</ele><time>2026-05-02T15:28:07.364Z</time></trkpt><trkpt lat="42.1138882" lon="13.344918"><ele>798.0</ele><time>2026-05-02T15:28:08.368Z</time></trkpt><trkpt lat="42.1140377" lon="13.3448149"><ele>800.0</ele><time>2026-05-02T15:28:09.368Z</time></trkpt><trkpt lat="42.1141943" lon="13.3447263"><ele>802.0</ele><time>2026-05-02T15:28:10.368Z</time></trkpt><trkpt lat="42.1143533" lon="13.3446495"><ele>804.0</ele><time>2026-05-02T15:28:11.373Z</time></trkpt><trkpt lat="42.1145121" lon="13.3445878"><ele>804.0</ele><time>2026-05-02T15:28:12.372Z</time></trkpt><trkpt lat="42.114673" lon="13.3445482"><ele>804.0</ele><time>2026-05-02T15:28:13.362Z</time></trkpt><trkpt lat="42.1148416" lon="13.344525"><ele>804.0</ele><time>2026-05-02T15:28:14.365Z</time></trkpt><trkpt lat="42.1150106" lon="13.3445017"><ele>805.3333333333333</ele><time>2026-05-02T15:28:15.36Z</time></trkpt><trkpt lat="42.115184" lon="13.3444794"><ele>806.6666666666666</ele><time>2026-05-02T15:28:16.358Z</time></trkpt><trkpt lat="42.1153562" lon="13.3444569"><ele>808.0</ele><time>2026-05-02T15:28:17.355Z</time></trkpt><trkpt lat="42.1155314" lon="13.344433"><ele>808.0</ele><time>2026-05-02T15:28:18.362Z</time></trkpt><trkpt lat="42.1157059" lon="13.344413"><ele>808.0</ele><time>2026-05-02T15:28:19.376Z</time></trkpt><trkpt lat="42.1158859" lon="13.3443921"><ele>808.0</ele><time>2026-05-02T15:28:20.372Z</time></trkpt><trkpt lat="42.1160652" lon="13.3443687"><ele>808.6666666666666</ele><time>2026-05-02T15:28:21.37Z</time></trkpt><trkpt lat="42.1162441" lon="13.3443451"><ele>809.3333333333333</ele><time>2026-05-02T15:28:22.369Z</time></trkpt><trkpt lat="42.116422" lon="13.3443217"><ele>810.0</ele><time>2026-05-02T15:28:23.362Z</time></trkpt><trkpt lat="42.1165983" lon="13.3442965"><ele>813.0</ele><time>2026-05-02T15:28:24.368Z</time></trkpt><trkpt lat="42.1167733" lon="13.3442696"><ele>816.0</ele><time>2026-05-02T15:28:25.365Z</time></trkpt><trkpt lat="42.1169512" lon="13.3442461"><ele>819.0</ele><time>2026-05-02T15:28:26.364Z</time></trkpt><trkpt lat="42.117126" lon="13.3442258"><ele>819.0</ele><time>2026-05-02T15:28:27.37Z</time></trkpt><trkpt lat="42.1172984" lon="13.3442082"><ele>819.0</ele><time>2026-05-02T15:28:28.371Z</time></trkpt><trkpt lat="42.1174675" lon="13.3441906"><ele>819.0</ele><time>2026-05-02T15:28:29.365Z</time></trkpt><trkpt lat="42.1176379" lon="13.3441706"><ele>821.3333333333333</ele><time>2026-05-02T15:28:30.378Z</time></trkpt><trkpt lat="42.1178028" lon="13.3441515"><ele>823.6666666666666</ele><time>2026-05-02T15:28:31.37Z</time></trkpt><trkpt lat="42.117961" lon="13.3441377"><ele>826.0</ele><time>2026-05-02T15:28:32.367Z</time></trkpt><trkpt lat="42.1181117" lon="13.3441338"><ele>827.3333333333333</ele><time>2026-05-02T15:28:33.368Z</time></trkpt><trkpt lat="42.118267" lon="13.344146"><ele>828.6666666666667</ele><time>2026-05-02T15:28:34.369Z</time></trkpt><trkpt lat="42.1184231" lon="13.344168"><ele>830.0</ele><time>2026-05-02T15:28:35.37Z</time></trkpt><trkpt lat="42.1185812" lon="13.3441939"><ele>830.0</ele><time>2026-05-02T15:28:36.371Z</time></trkpt><trkpt lat="42.1187357" lon="13.3442197"><ele>830.0</ele><time>2026-05-02T15:28:37.371Z</time></trkpt><trkpt lat="42.1188881" lon="13.3442424"><ele>830.0</ele><time>2026-05-02T15:28:38.369Z</time></trkpt><trkpt lat="42.1190394" lon="13.3442641"><ele>833.0</ele><time>2026-05-02T15:28:39.363Z</time></trkpt><trkpt lat="42.1191908" lon="13.3442807"><ele>836.0</ele><time>2026-05-02T15:28:40.366Z</time></trkpt><trkpt lat="42.1193449" lon="13.3442875"><ele>839.0</ele><time>2026-05-02T15:28:41.368Z</time></trkpt><trkpt lat="42.1195033" lon="13.3442901"><ele>839.0</ele><time>2026-05-02T15:28:42.372Z</time></trkpt><trkpt lat="42.119661" lon="13.3442852"><ele>839.0</ele><time>2026-05-02T15:28:43.367Z</time></trkpt><trkpt lat="42.1198219" lon="13.3442671"><ele>839.0</ele><time>2026-05-02T15:28:44.371Z</time></trkpt><trkpt lat="42.1199825" lon="13.3442362"><ele>841.3333333333334</ele><time>2026-05-02T15:28:45.371Z</time></trkpt><trkpt lat="42.1201402" lon="13.3441985"><ele>843.6666666666667</ele><time>2026-05-02T15:28:46.376Z</time></trkpt><trkpt lat="42.1202989" lon="13.3441497"><ele>846.0</ele><time>2026-05-02T15:28:47.372Z</time></trkpt><trkpt lat="42.1204568" lon="13.3440926"><ele>846.0</ele><time>2026-05-02T15:28:48.378Z</time></trkpt><trkpt lat="42.1206112" lon="13.3440353"><ele>846.0</ele><time>2026-05-02T15:28:49.373Z</time></trkpt><trkpt lat="42.1207624" lon="13.3439826"><ele>846.0</ele><time>2026-05-02T15:28:50.374Z</time></trkpt><trkpt lat="42.1209107" lon="13.3439311"><ele>848.3333333333333</ele><time>2026-05-02T15:28:51.369Z</time></trkpt><trkpt lat="42.121059" lon="13.3438813"><ele>850.6666666666666</ele><time>2026-05-02T15:28:52.372Z</time></trkpt><trkpt lat="42.1212052" lon="13.3438162"><ele>853.0</ele><time>2026-05-02T15:28:53.363Z</time></trkpt><trkpt lat="42.1213409" lon="13.3437347"><ele>853.5</ele><time>2026-05-02T15:28:54.359Z</time></trkpt><trkpt lat="42.1214622" lon="13.3436414"><ele>854.0</ele><time>2026-05-02T15:28:55.364Z</time></trkpt><trkpt lat="42.1215589" lon="13.3435399"><ele>854.5</ele><time>2026-05-02T15:28:56.342Z</time></trkpt><trkpt lat="42.1216291" lon="13.3434211"><ele>855.0</ele><time>2026-05-02T15:28:57.348Z</time></trkpt><trkpt lat="42.1216699" lon="13.3432816"><ele>857.5</ele><time>2026-05-02T15:28:58.345Z</time></trkpt><trkpt lat="42.1216879" lon="13.3431195"><ele>860.0</ele><time>2026-05-02T15:28:59.348Z</time></trkpt><trkpt lat="42.1216824" lon="13.3429527"><ele>862.5</ele><time>2026-05-02T15:29:00.361Z</time></trkpt><trkpt lat="42.1216594" lon="13.3427728"><ele>865.0</ele><time>2026-05-02T15:29:01.29Z</time></trkpt><trkpt lat="42.1216494" lon="13.3426058"><ele>864.25</ele><time>2026-05-02T15:29:02.288Z</time></trkpt><trkpt lat="42.1216378" lon="13.3424404"><ele>863.5</ele><time>2026-05-02T15:29:03.281Z</time></trkpt><trkpt lat="42.121615" lon="13.3422744"><ele>862.75</ele><time>2026-05-02T15:29:04.28Z</time></trkpt><trkpt lat="42.121583" lon="13.3421076"><ele>862.0</ele><time>2026-05-02T15:29:05.281Z</time></trkpt><trkpt lat="42.1215433" lon="13.3419421"><ele>862.0</ele><time>2026-05-02T15:29:06.282Z</time></trkpt><trkpt lat="42.1215109" lon="13.3417758"><ele>862.0</ele><time>2026-05-02T15:29:07.28Z</time></trkpt><trkpt lat="42.1214847" lon="13.3415941"><ele>862.0</ele><time>2026-05-02T15:29:08.278Z</time></trkpt><trkpt lat="42.1214701" lon="13.3413989"><ele>862.0</ele><time>2026-05-02T15:29:09.277Z</time></trkpt><trkpt lat="42.1214831" lon="13.3411922"><ele>863.0</ele><time>2026-05-02T15:29:10.28Z</time></trkpt><trkpt lat="42.1214806" lon="13.340993"><ele>864.0</ele><time>2026-05-02T15:29:11.28Z</time></trkpt><trkpt lat="42.1214714" lon="13.3407851"><ele>865.0</ele><time>2026-05-02T15:29:12.283Z</time></trkpt><trkpt lat="42.1214666" lon="13.3405807"><ele>867.5</ele><time>2026-05-02T15:29:13.282Z</time></trkpt><trkpt lat="42.1214658" lon="13.3403857"><ele>870.0</ele><time>2026-05-02T15:29:14.278Z</time></trkpt><trkpt lat="42.1214539" lon="13.340218"><ele>872.5</ele><time>2026-05-02T15:29:15.279Z</time></trkpt><trkpt lat="42.1214387" lon="13.340053"><ele>875.0</ele><time>2026-05-02T15:29:16.281Z</time></trkpt><trkpt lat="42.1214079" lon="13.339882"><ele>878.75</ele><time>2026-05-02T15:29:17.285Z</time></trkpt><trkpt lat="42.1213633" lon="13.3397153"><ele>882.5</ele><time>2026-05-02T15:29:18.284Z</time></trkpt><trkpt lat="42.1213072" lon="13.3395314"><ele>886.25</ele><time>2026-05-02T15:29:19.282Z</time></trkpt><trkpt lat="42.121243" lon="13.3393609"><ele>890.0</ele><time>2026-05-02T15:29:20.277Z</time></trkpt><trkpt lat="42.1211797" lon="13.3391986"><ele>890.0</ele><time>2026-05-02T15:29:21.279Z</time></trkpt><trkpt lat="42.1211188" lon="13.3390523"><ele>890.0</ele><time>2026-05-02T15:29:22.273Z</time></trkpt><trkpt lat="42.1210692" lon="13.3389407"><ele>890.0</ele><time>2026-05-02T15:29:23.27Z</time></trkpt><trkpt lat="42.1210253" lon="13.3388403"><ele>890.0</ele><time>2026-05-02T15:29:24.274Z</time></trkpt><trkpt lat="42.120975" lon="13.338734"><ele>890.0</ele><time>2026-05-02T15:29:25.272Z</time></trkpt><trkpt lat="42.1209205" lon="13.3386523"><ele>892.8</ele><time>2026-05-02T15:29:26.276Z</time></trkpt><trkpt lat="42.1208754" lon="13.3385857"><ele>895.6</ele><time>2026-05-02T15:29:27.266Z</time></trkpt><trkpt lat="42.1207577" lon="13.3385526"><ele>898.4000000000001</ele><time>2026-05-02T15:29:29.286Z</time></trkpt><trkpt lat="42.1206912" lon="13.3386017"><ele>901.2</ele><time>2026-05-02T15:29:30.29Z</time></trkpt><trkpt lat="42.1206384" lon="13.3386973"><ele>904.0</ele><time>2026-05-02T15:29:31.275Z</time></trkpt><trkpt lat="42.1205785" lon="13.3388115"><ele>903.0</ele><time>2026-05-02T15:29:32.277Z</time></trkpt><trkpt lat="42.1205171" lon="13.3389127"><ele>902.0000000000001</ele><time>2026-05-02T15:29:33.269Z</time></trkpt><trkpt lat="42.1204509" lon="13.3390178"><ele>901.0000000000001</ele><time>2026-05-02T15:29:34.269Z</time></trkpt><trkpt lat="42.1203687" lon="13.3391108"><ele>900.0</ele><time>2026-05-02T15:29:35.268Z</time></trkpt><trkpt lat="42.1202878" lon="13.3391865"><ele>899.0</ele><time>2026-05-02T15:29:36.27Z</time></trkpt><trkpt lat="42.1202108" lon="13.3392486"><ele>899.0000000000001</ele><time>2026-05-02T15:29:37.268Z</time></trkpt><trkpt lat="42.1201318" lon="13.3392819"><ele>899.0</ele><time>2026-05-02T15:29:38.273Z</time></trkpt><trkpt lat="42.1200405" lon="13.3393027"><ele>899.0</ele><time>2026-05-02T15:29:39.272Z</time></trkpt><trkpt lat="42.119957" lon="13.3393017"><ele>899.0</ele><time>2026-05-02T15:29:40.269Z</time></trkpt><trkpt lat="42.1198909" lon="13.3392857"><ele>899.0000000000001</ele><time>2026-05-02T15:29:41.266Z</time></trkpt><trkpt lat="42.119772" lon="13.3392493"><ele>899.0</ele><time>2026-05-02T15:29:43.273Z</time></trkpt><trkpt lat="42.119702" lon="13.3392325"><ele>899.8000000000001</ele><time>2026-05-02T15:29:44.278Z</time></trkpt><trkpt lat="42.1196213" lon="13.3392183"><ele>900.6000000000001</ele><time>2026-05-02T15:29:45.271Z</time></trkpt><trkpt lat="42.1195315" lon="13.3391978"><ele>901.4</ele><time>2026-05-02T15:29:46.274Z</time></trkpt><trkpt lat="42.1194294" lon="13.3391792"><ele>902.2</ele><time>2026-05-02T15:29:47.279Z</time></trkpt><trkpt lat="42.1193119" lon="13.3391636"><ele>903.0</ele><time>2026-05-02T15:29:48.278Z</time></trkpt><trkpt lat="42.1192002" lon="13.3391447"><ele>903.0</ele><time>2026-05-02T15:29:49.278Z</time></trkpt><trkpt lat="42.1190955" lon="13.3391237"><ele>903.0</ele><time>2026-05-02T15:29:50.275Z</time></trkpt><trkpt lat="42.1190091" lon="13.3391096"><ele>903.0</ele><time>2026-05-02T15:29:51.269Z</time></trkpt><trkpt lat="42.1189197" lon="13.3391161"><ele>903.0</ele><time>2026-05-02T15:29:52.28Z</time></trkpt><trkpt lat="42.118831" lon="13.3391272"><ele>903.0</ele><time>2026-05-02T15:29:53.272Z</time></trkpt><trkpt lat="42.1187538" lon="13.3391394"><ele>903.0</ele><time>2026-05-02T15:29:54.265Z</time></trkpt><trkpt lat="42.1186878" lon="13.3391412"><ele>903.1666666666666</ele><time>2026-05-02T15:29:55.274Z</time></trkpt><trkpt lat="42.1185765" lon="13.3391488"><ele>903.3333333333333</ele><time>2026-05-02T15:29:57.268Z</time></trkpt><trkpt lat="42.1184985" lon="13.3391383"><ele>903.5</ele><time>2026-05-02T15:29:59.284Z</time></trkpt><trkpt lat="42.118426" lon="13.3391499"><ele>903.6666666666666</ele><time>2026-05-02T15:30:01.273Z</time></trkpt><trkpt lat="42.1183434" lon="13.3391472"><ele>903.8333333333333</ele><time>2026-05-02T15:30:03.278Z</time></trkpt><trkpt lat="42.1182508" lon="13.339152"><ele>904.0</ele><time>2026-05-02T15:30:05.269Z</time></trkpt><trkpt lat="42.1181836" lon="13.3391309"><ele>903.9999999999999</ele><time>2026-05-02T15:30:06.273Z</time></trkpt><trkpt lat="42.1180841" lon="13.3391055"><ele>904.0</ele><time>2026-05-02T15:30:08.272Z</time></trkpt><trkpt lat="42.1180446" lon="13.3390176"><ele>904.0</ele><time>2026-05-02T15:30:11.28Z</time></trkpt><trkpt lat="42.118058" lon="13.3389326"><ele>904.0</ele><time>2026-05-02T15:30:15.297Z</time></trkpt><trkpt lat="42.1180653" lon="13.3388391"><ele>903.9999999999999</ele><time>2026-05-02T15:30:22.289Z</time></trkpt><trkpt lat="42.1180763" lon="13.3387421"><ele>904.0</ele><time>2026-05-02T15:30:24.284Z</time></trkpt><trkpt lat="42.1180891" lon="13.3386023"><ele>902.1666666666666</ele><time>2026-05-02T15:30:26.281Z</time></trkpt><trkpt lat="42.1181176" lon="13.3384549"><ele>900.3333333333333</ele><time>2026-05-02T15:30:28.283Z</time></trkpt><trkpt lat="42.1181158" lon="13.338352"><ele>898.5</ele><time>2026-05-02T15:30:30.292Z</time></trkpt><trkpt lat="42.118097" lon="13.3382469"><ele>896.6666666666667</ele><time>2026-05-02T15:30:32.29Z</time></trkpt><trkpt lat="42.118117" lon="13.3381176"><ele>894.8333333333334</ele><time>2026-05-02T15:30:34.281Z</time></trkpt><trkpt lat="42.1181628" lon="13.3380461"><ele>893.0</ele><time>2026-05-02T15:30:35.272Z</time></trkpt><trkpt lat="42.118207" lon="13.3379757"><ele>896.0000000000001</ele><time>2026-05-02T15:30:36.278Z</time></trkpt><trkpt lat="42.118252" lon="13.3379056"><ele>899.0</ele><time>2026-05-02T15:30:37.276Z</time></trkpt><trkpt lat="42.1182961" lon="13.3378282"><ele>902.0</ele><time>2026-05-02T15:30:38.281Z</time></trkpt><trkpt lat="42.1183409" lon="13.337742"><ele>905.0</ele><time>2026-05-02T15:30:39.28Z</time></trkpt><trkpt lat="42.1183879" lon="13.3376515"><ele>908.0000000000001</ele><time>2026-05-02T15:30:40.275Z</time></trkpt><trkpt lat="42.1184483" lon="13.3375696"><ele>911.0</ele><time>2026-05-02T15:30:41.281Z</time></trkpt><trkpt lat="42.1185146" lon="13.3374875"><ele>911.0</ele><time>2026-05-02T15:30:42.283Z</time></trkpt><trkpt lat="42.1185798" lon="13.3374075"><ele>910.9999999999999</ele><time>2026-05-02T15:30:43.284Z</time></trkpt><trkpt lat="42.1186496" lon="13.3373325"><ele>910.9999999999999</ele><time>2026-05-02T15:30:44.284Z</time></trkpt><trkpt lat="42.1187189" lon="13.3372466"><ele>911.0</ele><time>2026-05-02T15:30:45.281Z</time></trkpt><trkpt lat="42.1187987" lon="13.3371695"><ele>911.0</ele><time>2026-05-02T15:30:46.285Z</time></trkpt><trkpt lat="42.1188751" lon="13.3370889"><ele>913.1999999999999</ele><time>2026-05-02T15:30:47.285Z</time></trkpt><trkpt lat="42.1189576" lon="13.3370042"><ele>915.3999999999999</ele><time>2026-05-02T15:30:48.285Z</time></trkpt><trkpt lat="42.1190363" lon="13.3369221"><ele>917.6</ele><time>2026-05-02T15:30:49.283Z</time></trkpt><trkpt lat="42.1191068" lon="13.3368311"><ele>919.8</ele><time>2026-05-02T15:30:50.281Z</time></trkpt><trkpt lat="42.1191857" lon="13.336737"><ele>922.0</ele><time>2026-05-02T15:30:51.279Z</time></trkpt><trkpt lat="42.1192587" lon="13.3366322"><ele>922.0</ele><time>2026-05-02T15:30:52.286Z</time></trkpt><trkpt lat="42.1193258" lon="13.3365318"><ele>922.0</ele><time>2026-05-02T15:30:53.283Z</time></trkpt><trkpt lat="42.1193991" lon="13.3364461"><ele>922.0</ele><time>2026-05-02T15:30:54.291Z</time></trkpt><trkpt lat="42.1194741" lon="13.3363558"><ele>922.0</ele><time>2026-05-02T15:30:55.287Z</time></trkpt><trkpt lat="42.1195566" lon="13.3362846"><ele>922.0</ele><time>2026-05-02T15:30:56.284Z</time></trkpt><trkpt lat="42.1196472" lon="13.3362106"><ele>925.0</ele><time>2026-05-02T15:30:57.284Z</time></trkpt><trkpt lat="42.1197512" lon="13.3361553"><ele>928.0</ele><time>2026-05-02T15:30:58.285Z</time></trkpt><trkpt lat="42.1198586" lon="13.3361004"><ele>931.0</ele><time>2026-05-02T15:30:59.285Z</time></trkpt><trkpt lat="42.1199598" lon="13.3360269"><ele>934.0</ele><time>2026-05-02T15:31:00.29Z</time></trkpt><trkpt lat="42.120053" lon="13.3359496"><ele>934.0</ele><time>2026-05-02T15:31:01.283Z</time></trkpt><trkpt lat="42.1201342" lon="13.3358566"><ele>934.0000000000001</ele><time>2026-05-02T15:31:02.287Z</time></trkpt><trkpt lat="42.1202084" lon="13.3357601"><ele>934.0000000000001</ele><time>2026-05-02T15:31:03.286Z</time></trkpt><trkpt lat="42.120287" lon="13.3356686"><ele>934.0</ele><time>2026-05-02T15:31:04.286Z</time></trkpt><trkpt lat="42.120368" lon="13.3355738"><ele>934.0</ele><time>2026-05-02T15:31:05.285Z</time></trkpt><trkpt lat="42.1204563" lon="13.3355056"><ele>931.9999999999999</ele><time>2026-05-02T15:31:06.286Z</time></trkpt><trkpt lat="42.1205334" lon="13.3354548"><ele>930.0</ele><time>2026-05-02T15:31:07.275Z</time></trkpt><trkpt lat="42.1205949" lon="13.3354218"><ele>928.0</ele><time>2026-05-02T15:31:08.298Z</time></trkpt><trkpt lat="42.1206688" lon="13.3353606"><ele>926.0</ele><time>2026-05-02T15:31:10.316Z</time></trkpt><trkpt lat="42.120731" lon="13.3352389"><ele>923.9999999999999</ele><time>2026-05-02T15:31:12.315Z</time></trkpt><trkpt lat="42.1207709" lon="13.3351533"><ele>922.0</ele><time>2026-05-02T15:31:13.314Z</time></trkpt><trkpt lat="42.1208172" lon="13.3350492"><ele>926.6666666666666</ele><time>2026-05-02T15:31:14.317Z</time></trkpt><trkpt lat="42.1208679" lon="13.3349409"><ele>931.3333333333333</ele><time>2026-05-02T15:31:15.39Z</time></trkpt><trkpt lat="42.1209183" lon="13.3348395"><ele>936.0</ele><time>2026-05-02T15:31:16.388Z</time></trkpt><trkpt lat="42.1209637" lon="13.3347429"><ele>940.6666666666667</ele><time>2026-05-02T15:31:17.388Z</time></trkpt><trkpt lat="42.1210125" lon="13.3346456"><ele>945.3333333333334</ele><time>2026-05-02T15:31:18.388Z</time></trkpt><trkpt lat="42.1210564" lon="13.334562"><ele>950.0</ele><time>2026-05-02T15:31:19.377Z</time></trkpt><trkpt lat="42.1210953" lon="13.3344842"><ele>950.0</ele><time>2026-05-02T15:31:20.388Z</time></trkpt><trkpt lat="42.1211536" lon="13.3343384"><ele>950.0</ele><time>2026-05-02T15:31:22.383Z</time></trkpt><trkpt lat="42.1211812" lon="13.334184"><ele>950.0</ele><time>2026-05-02T15:31:24.377Z</time></trkpt><trkpt lat="42.1212019" lon="13.3341019"><ele>950.0</ele><time>2026-05-02T15:31:25.367Z</time></trkpt><trkpt lat="42.1211941" lon="13.3339514"><ele>950.0</ele><time>2026-05-02T15:31:27.361Z</time></trkpt><trkpt lat="42.1211438" lon="13.333781"><ele>949.8333333333334</ele><time>2026-05-02T15:31:29.35Z</time></trkpt><trkpt lat="42.1210931" lon="13.3336994"><ele>949.6666666666667</ele><time>2026-05-02T15:31:30.365Z</time></trkpt><trkpt lat="42.1210293" lon="13.3336183"><ele>949.5</ele><time>2026-05-02T15:31:31.359Z</time></trkpt><trkpt lat="42.1209666" lon="13.3335608"><ele>949.3333333333333</ele><time>2026-05-02T15:31:32.349Z</time></trkpt><trkpt lat="42.120899" lon="13.3335251"><ele>949.1666666666666</ele><time>2026-05-02T15:31:33.345Z</time></trkpt><trkpt lat="42.1208197" lon="13.3335025"><ele>949.0</ele><time>2026-05-02T15:31:34.347Z</time></trkpt><trkpt lat="42.1207299" lon="13.3335116"><ele>949.0</ele><time>2026-05-02T15:31:35.341Z</time></trkpt><trkpt lat="42.1206334" lon="13.3335312"><ele>949.0000000000001</ele><time>2026-05-02T15:31:36.36Z</time></trkpt><trkpt lat="42.12055" lon="13.3335653"><ele>949.0000000000001</ele><time>2026-05-02T15:31:37.354Z</time></trkpt><trkpt lat="42.1204723" lon="13.3335996"><ele>949.0</ele><time>2026-05-02T15:31:38.348Z</time></trkpt><trkpt lat="42.1203575" lon="13.3336026"><ele>949.0</ele><time>2026-05-02T15:31:40.346Z</time></trkpt><trkpt lat="42.120268" lon="13.3334871"><ele>948.9999999999999</ele><time>2026-05-02T15:31:42.282Z</time></trkpt><trkpt lat="42.1202772" lon="13.3334009"><ele>949.0</ele><time>2026-05-02T15:31:43.291Z</time></trkpt><trkpt lat="42.1202905" lon="13.3332926"><ele>949.0</ele><time>2026-05-02T15:31:44.287Z</time></trkpt><trkpt lat="42.1203089" lon="13.3331773"><ele>949.0</ele><time>2026-05-02T15:31:45.286Z</time></trkpt><trkpt lat="42.1203201" lon="13.3330571"><ele>948.9999999999999</ele><time>2026-05-02T15:31:46.294Z</time></trkpt><trkpt lat="42.1203309" lon="13.3329329"><ele>949.0</ele><time>2026-05-02T15:31:47.289Z</time></trkpt><trkpt lat="42.1203328" lon="13.3327973"><ele>952.2</ele><time>2026-05-02T15:31:48.286Z</time></trkpt><trkpt lat="42.1203308" lon="13.3326548"><ele>955.4000000000001</ele><time>2026-05-02T15:31:49.285Z</time></trkpt><trkpt lat="42.1203326" lon="13.3325202"><ele>958.6</ele><time>2026-05-02T15:31:50.286Z</time></trkpt><trkpt lat="42.1203281" lon="13.3323812"><ele>961.8</ele><time>2026-05-02T15:31:51.289Z</time></trkpt><trkpt lat="42.1203028" lon="13.3322549"><ele>965.0</ele><time>2026-05-02T15:31:52.286Z</time></trkpt><trkpt lat="42.1202762" lon="13.3321362"><ele>966.5000000000001</ele><time>2026-05-02T15:31:53.283Z</time></trkpt><trkpt lat="42.1202342" lon="13.3320244"><ele>968.0</ele><time>2026-05-02T15:31:54.286Z</time></trkpt><trkpt lat="42.1201847" lon="13.3319178"><ele>969.5</ele><time>2026-05-02T15:31:55.283Z</time></trkpt><trkpt lat="42.120149" lon="13.331812"><ele>971.0</ele><time>2026-05-02T15:31:56.286Z</time></trkpt><trkpt lat="42.1201262" lon="13.3317007"><ele>972.5000000000001</ele><time>2026-05-02T15:31:57.281Z</time></trkpt><trkpt lat="42.1201189" lon="13.3316063"><ele>974.0</ele><time>2026-05-02T15:31:58.282Z</time></trkpt><trkpt lat="42.1201336" lon="13.3315119"><ele>974.0000000000001</ele><time>2026-05-02T15:31:59.275Z</time></trkpt><trkpt lat="42.120176" lon="13.3314359"><ele>974.0</ele><time>2026-05-02T15:32:00.291Z</time></trkpt><trkpt lat="42.1202428" lon="13.3313822"><ele>974.0</ele><time>2026-05-02T15:32:01.282Z</time></trkpt><trkpt lat="42.1203241" lon="13.3313488"><ele>974.0</ele><time>2026-05-02T15:32:02.281Z</time></trkpt><trkpt lat="42.1204112" lon="13.3313289"><ele>974.0000000000001</ele><time>2026-05-02T15:32:03.289Z</time></trkpt><trkpt lat="42.120505" lon="13.3313168"><ele>974.0</ele><time>2026-05-02T15:32:04.291Z</time></trkpt><trkpt lat="42.1205908" lon="13.3313061"><ele>974.3333333333334</ele><time>2026-05-02T15:32:05.289Z</time></trkpt><trkpt lat="42.1206618" lon="13.3312895"><ele>974.6666666666667</ele><time>2026-05-02T15:32:06.292Z</time></trkpt><trkpt lat="42.1207425" lon="13.3312604"><ele>975.0</ele><time>2026-05-02T15:32:07.286Z</time></trkpt><trkpt lat="42.1208322" lon="13.3312251"><ele>975.3333333333333</ele><time>2026-05-02T15:32:08.288Z</time></trkpt><trkpt lat="42.1209201" lon="13.3311772"><ele>975.6666666666666</ele><time>2026-05-02T15:32:09.293Z</time></trkpt><trkpt lat="42.1210138" lon="13.3311335"><ele>976.0</ele><time>2026-05-02T15:32:10.294Z</time></trkpt><trkpt lat="42.1211121" lon="13.3310826"><ele>977.1999999999999</ele><time>2026-05-02T15:32:11.294Z</time></trkpt><trkpt lat="42.1212154" lon="13.3310415"><ele>978.3999999999999</ele><time>2026-05-02T15:32:12.295Z</time></trkpt><trkpt lat="42.1213181" lon="13.3310054"><ele>979.6</ele><time>2026-05-02T15:32:13.295Z</time></trkpt><trkpt lat="42.1214191" lon="13.3309707"><ele>980.8</ele><time>2026-05-02T15:32:14.294Z</time></trkpt><trkpt lat="42.1215217" lon="13.330925"><ele>982.0</ele><time>2026-05-02T15:32:15.294Z</time></trkpt><trkpt lat="42.1216206" lon="13.3308722"><ele>983.6</ele><time>2026-05-02T15:32:16.3Z</time></trkpt><trkpt lat="42.1217152" lon="13.3308366"><ele>985.2</ele><time>2026-05-02T15:32:17.297Z</time></trkpt><trkpt lat="42.1218193" lon="13.3308245"><ele>986.8</ele><time>2026-05-02T15:32:18.291Z</time></trkpt><trkpt lat="42.1219256" lon="13.3308133"><ele>988.4</ele><time>2026-05-02T15:32:19.295Z</time></trkpt><trkpt lat="42.1220445" lon="13.3308056"><ele>990.0</ele><time>2026-05-02T15:32:20.295Z</time></trkpt><trkpt lat="42.1221569" lon="13.3307919"><ele>990.0</ele><time>2026-05-02T15:32:21.296Z</time></trkpt><trkpt lat="42.1222725" lon="13.3307795"><ele>990.0</ele><time>2026-05-02T15:32:22.294Z</time></trkpt><trkpt lat="42.1223911" lon="13.3307372"><ele>990.0</ele><time>2026-05-02T15:32:23.291Z</time></trkpt><trkpt lat="42.1224915" lon="13.3306855"><ele>990.0</ele><time>2026-05-02T15:32:24.293Z</time></trkpt><trkpt lat="42.1225822" lon="13.3306303"><ele>990.0</ele><time>2026-05-02T15:32:25.28Z</time></trkpt><trkpt lat="42.1226506" lon="13.3305532"><ele>992.0</ele><time>2026-05-02T15:32:26.291Z</time></trkpt><trkpt lat="42.1227268" lon="13.3304648"><ele>994.0</ele><time>2026-05-02T15:32:27.291Z</time></trkpt><trkpt lat="42.1228043" lon="13.3303757"><ele>996.0</ele><time>2026-05-02T15:32:28.297Z</time></trkpt><trkpt lat="42.1228866" lon="13.3302959"><ele>998.0</ele><time>2026-05-02T15:32:29.289Z</time></trkpt><trkpt lat="42.1229792" lon="13.3302252"><ele>1000.0</ele><time>2026-05-02T15:32:30.297Z</time></trkpt><trkpt lat="42.1230767" lon="13.3301532"><ele>1000.0</ele><time>2026-05-02T15:32:31.293Z</time></trkpt><trkpt lat="42.1231733" lon="13.3300931"><ele>1000.0</ele><time>2026-05-02T15:32:32.296Z</time></trkpt><trkpt lat="42.1232731" lon="13.330026"><ele>1000.0</ele><time>2026-05-02T15:32:33.291Z</time></trkpt><trkpt lat="42.1233778" lon="13.3299736"><ele>1000.0</ele><time>2026-05-02T15:32:34.296Z</time></trkpt><trkpt lat="42.1234886" lon="13.3299334"><ele>1000.0</ele><time>2026-05-02T15:32:35.293Z</time></trkpt><trkpt lat="42.1236103" lon="13.3299031"><ele>1000.6</ele><time>2026-05-02T15:32:36.292Z</time></trkpt><trkpt lat="42.1237252" lon="13.3298608"><ele>1001.2</ele><time>2026-05-02T15:32:37.29Z</time></trkpt><trkpt lat="42.1238273" lon="13.3298093"><ele>1001.8</ele><time>2026-05-02T15:32:38.292Z</time></trkpt><trkpt lat="42.1239279" lon="13.3297515"><ele>1002.4</ele><time>2026-05-02T15:32:39.289Z</time></trkpt><trkpt lat="42.1240208" lon="13.3296902"><ele>1003.0</ele><time>2026-05-02T15:32:40.29Z</time></trkpt><trkpt lat="42.1241167" lon="13.3296302"><ele>1005.8</ele><time>2026-05-02T15:32:41.289Z</time></trkpt><trkpt lat="42.1242011" lon="13.3295504"><ele>1008.5999999999999</ele><time>2026-05-02T15:32:42.279Z</time></trkpt><trkpt lat="42.1242769" lon="13.3294447"><ele>1011.4000000000001</ele><time>2026-05-02T15:32:43.289Z</time></trkpt><trkpt lat="42.1243479" lon="13.3293276"><ele>1014.2</ele><time>2026-05-02T15:32:44.294Z</time></trkpt><trkpt lat="42.1244026" lon="13.3292298"><ele>1017.0</ele><time>2026-05-02T15:32:45.289Z</time></trkpt><trkpt lat="42.1244621" lon="13.3291575"><ele>1017.0</ele><time>2026-05-02T15:32:46.292Z</time></trkpt><trkpt lat="42.1245335" lon="13.3290891"><ele>1017.0</ele><time>2026-05-02T15:32:47.294Z</time></trkpt><trkpt lat="42.1246111" lon="13.3290374"><ele>1017.0</ele><time>2026-05-02T15:32:48.292Z</time></trkpt><trkpt lat="42.124694" lon="13.3290192"><ele>1017.0</ele><time>2026-05-02T15:32:49.292Z</time></trkpt><trkpt lat="42.1247725" lon="13.3290124"><ele>1017.0</ele><time>2026-05-02T15:32:50.293Z</time></trkpt><trkpt lat="42.1248569" lon="13.3290324"><ele>1017.0</ele><time>2026-05-02T15:32:51.288Z</time></trkpt><trkpt lat="42.1249326" lon="13.329054"><ele>1019.3333333333334</ele><time>2026-05-02T15:32:52.291Z</time></trkpt><trkpt lat="42.12501" lon="13.3290744"><ele>1021.6666666666667</ele><time>2026-05-02T15:32:53.294Z</time></trkpt><trkpt lat="42.1250893" lon="13.3290843"><ele>1024.0</ele><time>2026-05-02T15:32:54.289Z</time></trkpt><trkpt lat="42.1251641" lon="13.3291059"><ele>1026.3333333333335</ele><time>2026-05-02T15:32:55.291Z</time></trkpt><trkpt lat="42.125232" lon="13.3291325"><ele>1028.6666666666667</ele><time>2026-05-02T15:32:56.294Z</time></trkpt><trkpt lat="42.1253021" lon="13.3291747"><ele>1031.0</ele><time>2026-05-02T15:32:57.293Z</time></trkpt><trkpt lat="42.1253793" lon="13.3292129"><ele>1031.0</ele><time>2026-05-02T15:32:58.292Z</time></trkpt><trkpt lat="42.1254459" lon="13.3292436"><ele>1031.0</ele><time>2026-05-02T15:32:59.29Z</time></trkpt><trkpt lat="42.1255194" lon="13.3292935"><ele>1031.0</ele><time>2026-05-02T15:33:00.297Z</time></trkpt><trkpt lat="42.1255839" lon="13.3293449"><ele>1031.0</ele><time>2026-05-02T15:33:01.285Z</time></trkpt><trkpt lat="42.1256485" lon="13.3293927"><ele>1031.0</ele><time>2026-05-02T15:33:02.292Z</time></trkpt><trkpt lat="42.1257096" lon="13.3294487"><ele>1031.0</ele><time>2026-05-02T15:33:03.293Z</time></trkpt><trkpt lat="42.1257791" lon="13.3295002"><ele>1033.142857142857</ele><time>2026-05-02T15:33:04.292Z</time></trkpt><trkpt lat="42.1258453" lon="13.3295369"><ele>1035.2857142857142</ele><time>2026-05-02T15:33:05.287Z</time></trkpt><trkpt lat="42.1259065" lon="13.3295911"><ele>1037.4285714285713</ele><time>2026-05-02T15:33:06.286Z</time></trkpt><trkpt lat="42.1259681" lon="13.3296476"><ele>1039.5714285714284</ele><time>2026-05-02T15:33:07.283Z</time></trkpt><trkpt lat="42.1260322" lon="13.3296969"><ele>1041.7142857142858</ele><time>2026-05-02T15:33:08.285Z</time></trkpt><trkpt lat="42.1260974" lon="13.3297359"><ele>1043.8571428571427</ele><time>2026-05-02T15:33:09.286Z</time></trkpt><trkpt lat="42.1261774" lon="13.3297629"><ele>1046.0</ele><time>2026-05-02T15:33:10.288Z</time></trkpt><trkpt lat="42.1262536" lon="13.3297861"><ele>1047.3333333333335</ele><time>2026-05-02T15:33:11.286Z</time></trkpt><trkpt lat="42.1263405" lon="13.3297839"><ele>1048.6666666666667</ele><time>2026-05-02T15:33:12.282Z</time></trkpt><trkpt lat="42.1264261" lon="13.3297763"><ele>1050.0</ele><time>2026-05-02T15:33:13.284Z</time></trkpt><trkpt lat="42.1265015" lon="13.3297698"><ele>1051.3333333333333</ele><time>2026-05-02T15:33:14.28Z</time></trkpt><trkpt lat="42.1265743" lon="13.3297482"><ele>1052.6666666666665</ele><time>2026-05-02T15:33:15.277Z</time></trkpt><trkpt lat="42.1266456" lon="13.3297469"><ele>1054.0</ele><time>2026-05-02T15:33:16.286Z</time></trkpt><trkpt lat="42.1267199" lon="13.3297642"><ele>1055.4285714285716</ele><time>2026-05-02T15:33:17.279Z</time></trkpt><trkpt lat="42.1267829" lon="13.3298017"><ele>1056.857142857143</ele><time>2026-05-02T15:33:18.284Z</time></trkpt><trkpt lat="42.1268497" lon="13.3298265"><ele>1058.2857142857142</ele><time>2026-05-02T15:33:19.286Z</time></trkpt><trkpt lat="42.1269291" lon="13.3298302"><ele>1059.7142857142858</ele><time>2026-05-02T15:33:20.287Z</time></trkpt><trkpt lat="42.1270009" lon="13.3298483"><ele>1061.142857142857</ele><time>2026-05-02T15:33:21.285Z</time></trkpt><trkpt lat="42.1270669" lon="13.3298645"><ele>1062.5714285714287</ele><time>2026-05-02T15:33:22.284Z</time></trkpt><trkpt lat="42.1271393" lon="13.3299133"><ele>1064.0</ele><time>2026-05-02T15:33:23.285Z</time></trkpt><trkpt lat="42.1272146" lon="13.3299671"><ele>1064.0</ele><time>2026-05-02T15:33:24.286Z</time></trkpt><trkpt lat="42.1273014" lon="13.3300072"><ele>1064.0</ele><time>2026-05-02T15:33:25.285Z</time></trkpt><trkpt lat="42.1273855" lon="13.3300466"><ele>1064.0</ele><time>2026-05-02T15:33:26.282Z</time></trkpt><trkpt lat="42.1274644" lon="13.3300845"><ele>1064.0</ele><time>2026-05-02T15:33:27.284Z</time></trkpt><trkpt lat="42.1275345" lon="13.3301298"><ele>1064.0</ele><time>2026-05-02T15:33:28.288Z</time></trkpt><trkpt lat="42.1275972" lon="13.3301743"><ele>1064.0</ele><time>2026-05-02T15:33:29.276Z</time></trkpt><trkpt lat="42.1276775" lon="13.3302178"><ele>1065.3333333333335</ele><time>2026-05-02T15:33:31.285Z</time></trkpt><trkpt lat="42.1277416" lon="13.3302362"><ele>1066.6666666666667</ele><time>2026-05-02T15:33:34.299Z</time></trkpt><trkpt lat="42.1278135" lon="13.3302445"><ele>1068.0</ele><time>2026-05-02T15:33:38.301Z</time></trkpt><trkpt lat="42.1279184" lon="13.3302348"><ele>1069.3333333333333</ele><time>2026-05-02T15:35:41.291Z</time></trkpt><trkpt lat="42.1279885" lon="13.3302186"><ele>1070.6666666666665</ele><time>2026-05-02T15:35:42.284Z</time></trkpt><trkpt lat="42.1280802" lon="13.3301801"><ele>1072.0</ele><time>2026-05-02T15:35:43.282Z</time></trkpt><trkpt lat="42.128162" lon="13.3301465"><ele>1071.3333333333333</ele><time>2026-05-02T15:35:44.282Z</time></trkpt><trkpt lat="42.1282504" lon="13.3301076"><ele>1070.6666666666665</ele><time>2026-05-02T15:35:45.284Z</time></trkpt><trkpt lat="42.1283407" lon="13.3300645"><ele>1070.0</ele><time>2026-05-02T15:35:46.284Z</time></trkpt><trkpt lat="42.1284194" lon="13.3300195"><ele>1069.3333333333333</ele><time>2026-05-02T15:35:47.283Z</time></trkpt><trkpt lat="42.1284873" lon="13.3299749"><ele>1068.6666666666667</ele><time>2026-05-02T15:35:48.273Z</time></trkpt><trkpt lat="42.1285526" lon="13.3299375"><ele>1068.0</ele><time>2026-05-02T15:35:49.279Z</time></trkpt><trkpt lat="42.1286522" lon="13.3298887"><ele>1068.0</ele><time>2026-05-02T15:35:51.277Z</time></trkpt><trkpt lat="42.1287331" lon="13.3298337"><ele>1068.0</ele><time>2026-05-02T15:35:53.279Z</time></trkpt><trkpt lat="42.128798" lon="13.3297885"><ele>1068.0</ele><time>2026-05-02T15:35:55.298Z</time></trkpt><trkpt lat="42.1288647" lon="13.3297537"><ele>1068.0</ele><time>2026-05-02T15:35:57.304Z</time></trkpt><trkpt lat="42.1289262" lon="13.3297019"><ele>1068.0</ele><time>2026-05-02T15:35:59.302Z</time></trkpt><trkpt lat="42.1289816" lon="13.3296382"><ele>1068.0</ele><time>2026-05-02T15:36:18.3Z</time></trkpt><trkpt lat="42.1290969" lon="13.3295507"><ele>1067.2</ele><time>2026-05-02T15:36:20.286Z</time></trkpt><trkpt lat="42.12919" lon="13.3294922"><ele>1066.4</ele><time>2026-05-02T15:36:21.288Z</time></trkpt><trkpt lat="42.1292801" lon="13.3294282"><ele>1065.6000000000001</ele><time>2026-05-02T15:36:22.292Z</time></trkpt><trkpt lat="42.1293688" lon="13.3293555"><ele>1064.8</ele><time>2026-05-02T15:36:23.309Z</time></trkpt><trkpt lat="42.1294572" lon="13.3292725"><ele>1064.0</ele><time>2026-05-02T15:36:24.379Z</time></trkpt><trkpt lat="42.1295417" lon="13.3291804"><ele>1064.0</ele><time>2026-05-02T15:36:25.373Z</time></trkpt><trkpt lat="42.1296232" lon="13.3290843"><ele>1064.0</ele><time>2026-05-02T15:36:26.379Z</time></trkpt><trkpt lat="42.1297016" lon="13.3289877"><ele>1064.0</ele><time>2026-05-02T15:36:27.38Z</time></trkpt><trkpt lat="42.1297807" lon="13.3288866"><ele>1064.0</ele><time>2026-05-02T15:36:28.377Z</time></trkpt><trkpt lat="42.1298506" lon="13.3287826"><ele>1064.0</ele><time>2026-05-02T15:36:29.378Z</time></trkpt><trkpt lat="42.1299101" lon="13.3286864"><ele>1063.7142857142858</ele><time>2026-05-02T15:36:30.384Z</time></trkpt><trkpt lat="42.129962" lon="13.328605"><ele>1063.4285714285716</ele><time>2026-05-02T15:36:31.374Z</time></trkpt><trkpt lat="42.1300099" lon="13.3285283"><ele>1063.142857142857</ele><time>2026-05-02T15:36:32.378Z</time></trkpt><trkpt lat="42.1300563" lon="13.328457"><ele>1062.857142857143</ele><time>2026-05-02T15:36:33.377Z</time></trkpt><trkpt lat="42.1301076" lon="13.3283788"><ele>1062.5714285714287</ele><time>2026-05-02T15:36:34.376Z</time></trkpt><trkpt lat="42.1301414" lon="13.328304"><ele>1062.2857142857142</ele><time>2026-05-02T15:36:35.372Z</time></trkpt><trkpt lat="42.1301873" lon="13.3282261"><ele>1062.0</ele><time>2026-05-02T15:36:36.375Z</time></trkpt><trkpt lat="42.1302318" lon="13.3281389"><ele>1062.2857142857142</ele><time>2026-05-02T15:36:37.372Z</time></trkpt><trkpt lat="42.1302703" lon="13.328052"><ele>1062.5714285714287</ele><time>2026-05-02T15:36:38.365Z</time></trkpt><trkpt lat="42.1302992" lon="13.3279703"><ele>1062.857142857143</ele><time>2026-05-02T15:36:39.358Z</time></trkpt><trkpt lat="42.1303307" lon="13.3278856"><ele>1063.142857142857</ele><time>2026-05-02T15:36:40.36Z</time></trkpt><trkpt lat="42.1303648" lon="13.3277954"><ele>1063.4285714285716</ele><time>2026-05-02T15:36:41.356Z</time></trkpt><trkpt lat="42.130394" lon="13.3277005"><ele>1063.7142857142858</ele><time>2026-05-02T15:36:42.374Z</time></trkpt><trkpt lat="42.1304123" lon="13.3276038"><ele>1064.0</ele><time>2026-05-02T15:36:43.374Z</time></trkpt><trkpt lat="42.1304174" lon="13.3275074"><ele>1064.0</ele><time>2026-05-02T15:36:44.361Z</time></trkpt><trkpt lat="42.1304221" lon="13.3273928"><ele>1064.0</ele><time>2026-05-02T15:36:45.359Z</time></trkpt><trkpt lat="42.1304216" lon="13.3272685"><ele>1064.0</ele><time>2026-05-02T15:36:46.36Z</time></trkpt><trkpt lat="42.13043" lon="13.327141"><ele>1064.0</ele><time>2026-05-02T15:36:47.358Z</time></trkpt><trkpt lat="42.130442" lon="13.327004"><ele>1064.0</ele><time>2026-05-02T15:36:48.372Z</time></trkpt><trkpt lat="42.1304625" lon="13.3268677"><ele>1065.2</ele><time>2026-05-02T15:36:49.368Z</time></trkpt><trkpt lat="42.130495" lon="13.3267352"><ele>1066.4</ele><time>2026-05-02T15:36:50.367Z</time></trkpt><trkpt lat="42.1305179" lon="13.3266055"><ele>1067.6</ele><time>2026-05-02T15:36:51.368Z</time></trkpt><trkpt lat="42.1305349" lon="13.3264719"><ele>1068.8</ele><time>2026-05-02T15:36:52.372Z</time></trkpt><trkpt lat="42.1305473" lon="13.3263351"><ele>1070.0</ele><time>2026-05-02T15:36:53.363Z</time></trkpt><trkpt lat="42.1305582" lon="13.3261897"><ele>1071.8</ele><time>2026-05-02T15:36:54.371Z</time></trkpt><trkpt lat="42.130568" lon="13.3260477"><ele>1073.6</ele><time>2026-05-02T15:36:55.373Z</time></trkpt><trkpt lat="42.1305727" lon="13.3259103"><ele>1075.4</ele><time>2026-05-02T15:36:56.368Z</time></trkpt><trkpt lat="42.1305701" lon="13.3257795"><ele>1077.2</ele><time>2026-05-02T15:36:57.369Z</time></trkpt><trkpt lat="42.1305664" lon="13.3256383"><ele>1079.0</ele><time>2026-05-02T15:36:58.376Z</time></trkpt><trkpt lat="42.1305732" lon="13.3255104"><ele>1080.0</ele><time>2026-05-02T15:36:59.363Z</time></trkpt><trkpt lat="42.1305859" lon="13.3253941"><ele>1081.0</ele><time>2026-05-02T15:37:00.372Z</time></trkpt><trkpt lat="42.1305963" lon="13.3252907"><ele>1082.0</ele><time>2026-05-02T15:37:01.369Z</time></trkpt><trkpt lat="42.130586" lon="13.3251138"><ele>1083.0</ele><time>2026-05-02T15:37:03.361Z</time></trkpt><trkpt lat="42.1305616" lon="13.3250061"><ele>1084.0</ele><time>2026-05-02T15:37:04.366Z</time></trkpt><trkpt lat="42.1305388" lon="13.3249126"><ele>1084.0</ele><time>2026-05-02T15:37:05.348Z</time></trkpt><trkpt lat="42.1305203" lon="13.3248059"><ele>1084.0</ele><time>2026-05-02T15:37:06.351Z</time></trkpt><trkpt lat="42.1305131" lon="13.3247031"><ele>1084.0</ele><time>2026-05-02T15:37:07.262Z</time></trkpt><trkpt lat="42.1305345" lon="13.3246053"><ele>1084.0</ele><time>2026-05-02T15:37:08.265Z</time></trkpt><trkpt lat="42.1305679" lon="13.3245207"><ele>1084.0</ele><time>2026-05-02T15:37:09.275Z</time></trkpt><trkpt lat="42.130653" lon="13.324398"><ele>1084.0</ele><time>2026-05-02T15:37:11.277Z</time></trkpt><trkpt lat="42.1307078" lon="13.3243549"><ele>1084.8</ele><time>2026-05-02T15:37:12.282Z</time></trkpt><trkpt lat="42.1307668" lon="13.3242587"><ele>1085.6000000000001</ele><time>2026-05-02T15:37:14.291Z</time></trkpt><trkpt lat="42.1307758" lon="13.3240702"><ele>1086.4</ele><time>2026-05-02T15:37:16.291Z</time></trkpt><trkpt lat="42.1307526" lon="13.3239634"><ele>1087.2</ele><time>2026-05-02T15:37:17.295Z</time></trkpt><trkpt lat="42.1307302" lon="13.323875"><ele>1088.0</ele><time>2026-05-02T15:37:18.295Z</time></trkpt><trkpt lat="42.1307168" lon="13.3237696"><ele>1088.0</ele><time>2026-05-02T15:37:19.286Z</time></trkpt><trkpt lat="42.1307187" lon="13.323661"><ele>1088.0</ele><time>2026-05-02T15:37:20.287Z</time></trkpt><trkpt lat="42.1307306" lon="13.3235449"><ele>1088.0</ele><time>2026-05-02T15:37:21.289Z</time></trkpt><trkpt lat="42.130762" lon="13.3234234"><ele>1088.0</ele><time>2026-05-02T15:37:22.295Z</time></trkpt><trkpt lat="42.1307848" lon="13.3233051"><ele>1088.0</ele><time>2026-05-02T15:37:23.286Z</time></trkpt><trkpt lat="42.1308061" lon="13.3231998"><ele>1088.0</ele><time>2026-05-02T15:37:24.287Z</time></trkpt><trkpt lat="42.1308255" lon="13.3230992"><ele>1086.1666666666667</ele><time>2026-05-02T15:37:25.29Z</time></trkpt><trkpt lat="42.1308468" lon="13.3229989"><ele>1084.3333333333335</ele><time>2026-05-02T15:37:26.29Z</time></trkpt><trkpt lat="42.1308642" lon="13.3229141"><ele>1082.5</ele><time>2026-05-02T15:37:27.29Z</time></trkpt><trkpt lat="42.1308874" lon="13.3228205"><ele>1080.6666666666667</ele><time>2026-05-02T15:37:28.298Z</time></trkpt><trkpt lat="42.1309141" lon="13.3227275"><ele>1078.8333333333333</ele><time>2026-05-02T15:37:29.29Z</time></trkpt><trkpt lat="42.1309411" lon="13.3225713"><ele>1077.0</ele><time>2026-05-02T15:37:31.286Z</time></trkpt><trkpt lat="42.130971" lon="13.3224189"><ele>1077.0</ele><time>2026-05-02T15:37:33.291Z</time></trkpt><trkpt lat="42.1309774" lon="13.3223276"><ele>1077.0</ele><time>2026-05-02T15:37:34.287Z</time></trkpt><trkpt lat="42.1309837" lon="13.3222212"><ele>1077.0</ele><time>2026-05-02T15:37:35.293Z</time></trkpt><trkpt lat="42.1309804" lon="13.3221174"><ele>1077.0</ele><time>2026-05-02T15:37:36.291Z</time></trkpt><trkpt lat="42.1309759" lon="13.3220198"><ele>1077.0</ele><time>2026-05-02T15:37:37.292Z</time></trkpt><trkpt lat="42.130966" lon="13.3219336"><ele>1077.0</ele><time>2026-05-02T15:37:38.292Z</time></trkpt><trkpt lat="42.1309502" lon="13.3218341"><ele>1077.0</ele><time>2026-05-02T15:37:39.288Z</time></trkpt><trkpt lat="42.1309298" lon="13.3217139"><ele>1077.0</ele><time>2026-05-02T15:37:40.293Z</time></trkpt><trkpt lat="42.1309195" lon="13.3215891"><ele>1077.0</ele><time>2026-05-02T15:37:41.285Z</time></trkpt><trkpt lat="42.130917" lon="13.3214494"><ele>1077.0</ele><time>2026-05-02T15:37:42.293Z</time></trkpt><trkpt lat="42.1309105" lon="13.3213173"><ele>1077.0</ele><time>2026-05-02T15:37:43.296Z</time></trkpt><trkpt lat="42.1309102" lon="13.3211979"><ele>1077.0</ele><time>2026-05-02T15:37:44.288Z</time></trkpt><trkpt lat="42.1308988" lon="13.3210848"><ele>1076.6</ele><time>2026-05-02T15:37:45.289Z</time></trkpt><trkpt lat="42.1308897" lon="13.3209698"><ele>1076.2</ele><time>2026-05-02T15:37:46.298Z</time></trkpt><trkpt lat="42.1308859" lon="13.3208598"><ele>1075.8</ele><time>2026-05-02T15:37:47.293Z</time></trkpt><trkpt lat="42.1308791" lon="13.3207709"><ele>1075.4</ele><time>2026-05-02T15:37:48.294Z</time></trkpt><trkpt lat="42.1308672" lon="13.320622"><ele>1075.0</ele><time>2026-05-02T15:37:50.29Z</time></trkpt><trkpt lat="42.1308557" lon="13.3204651"><ele>1075.0</ele><time>2026-05-02T15:37:52.291Z</time></trkpt><trkpt lat="42.1308684" lon="13.3203361"><ele>1075.0</ele><time>2026-05-02T15:37:54.29Z</time></trkpt><trkpt lat="42.1309248" lon="13.3202208"><ele>1075.0</ele><time>2026-05-02T15:37:56.286Z</time></trkpt><trkpt lat="42.1309878" lon="13.3201284"><ele>1075.0</ele><time>2026-05-02T15:37:58.29Z</time></trkpt><trkpt lat="42.1309976" lon="13.3200355"><ele>1075.0</ele><time>2026-05-02T15:38:01.288Z</time></trkpt><trkpt lat="42.1309747" lon="13.3199382"><ele>1075.0</ele><time>2026-05-02T15:38:04.289Z</time></trkpt><trkpt lat="42.1309784" lon="13.3198458"><ele>1075.3333333333333</ele><time>2026-05-02T15:38:06.284Z</time></trkpt><trkpt lat="42.1310045" lon="13.3197329"><ele>1075.6666666666665</ele><time>2026-05-02T15:38:08.291Z</time></trkpt><trkpt lat="42.1310204" lon="13.319614"><ele>1076.0</ele><time>2026-05-02T15:38:10.29Z</time></trkpt><trkpt lat="42.1310486" lon="13.3195054"><ele>1076.3333333333333</ele><time>2026-05-02T15:38:12.289Z</time></trkpt><trkpt lat="42.1310954" lon="13.319403"><ele>1076.6666666666667</ele><time>2026-05-02T15:38:14.285Z</time></trkpt><trkpt lat="42.1311454" lon="13.3193402"><ele>1077.0</ele><time>2026-05-02T15:38:15.291Z</time></trkpt><trkpt lat="42.1311949" lon="13.3192823"><ele>1077.0</ele><time>2026-05-02T15:38:16.301Z</time></trkpt><trkpt lat="42.1312477" lon="13.3192127"><ele>1077.0</ele><time>2026-05-02T15:38:17.298Z</time></trkpt><trkpt lat="42.1312961" lon="13.3191444"><ele>1077.0</ele><time>2026-05-02T15:38:18.294Z</time></trkpt><trkpt lat="42.1313276" lon="13.3190575"><ele>1077.0</ele><time>2026-05-02T15:38:19.283Z</time></trkpt><trkpt lat="42.1313564" lon="13.3189685"><ele>1077.0</ele><time>2026-05-02T15:38:20.285Z</time></trkpt><trkpt lat="42.1313766" lon="13.3188736"><ele>1077.0</ele><time>2026-05-02T15:38:21.291Z</time></trkpt><trkpt lat="42.1314058" lon="13.318797"><ele>1077.0</ele><time>2026-05-02T15:38:22.284Z</time></trkpt><trkpt lat="42.1314461" lon="13.3186416"><ele>1075.8</ele><time>2026-05-02T15:38:24.293Z</time></trkpt><trkpt lat="42.1314754" lon="13.3184874"><ele>1074.6</ele><time>2026-05-02T15:38:26.295Z</time></trkpt><trkpt lat="42.1315523" lon="13.3183578"><ele>1073.3999999999999</ele><time>2026-05-02T15:38:28.294Z</time></trkpt><trkpt lat="42.1316046" lon="13.318292"><ele>1072.2</ele><time>2026-05-02T15:38:29.29Z</time></trkpt><trkpt lat="42.1316662" lon="13.3182321"><ele>1071.0</ele><time>2026-05-02T15:38:30.295Z</time></trkpt><trkpt lat="42.1317372" lon="13.318164"><ele>1069.2</ele><time>2026-05-02T15:38:31.289Z</time></trkpt><trkpt lat="42.1318014" lon="13.3180964"><ele>1067.3999999999999</ele><time>2026-05-02T15:38:32.287Z</time></trkpt><trkpt lat="42.1318528" lon="13.3180309"><ele>1065.6</ele><time>2026-05-02T15:38:33.287Z</time></trkpt><trkpt lat="42.1319246" lon="13.3179084"><ele>1063.8</ele><time>2026-05-02T15:38:35.287Z</time></trkpt><trkpt lat="42.1319395" lon="13.3177503"><ele>1062.0</ele><time>2026-05-02T15:38:37.291Z</time></trkpt><trkpt lat="42.1319742" lon="13.3175912"><ele>1061.0</ele><time>2026-05-02T15:38:39.286Z</time></trkpt><trkpt lat="42.132013" lon="13.3175185"><ele>1060.0</ele><time>2026-05-02T15:38:40.289Z</time></trkpt><trkpt lat="42.1320443" lon="13.3174362"><ele>1059.0</ele><time>2026-05-02T15:38:41.294Z</time></trkpt><trkpt lat="42.1320766" lon="13.3173588"><ele>1058.0</ele><time>2026-05-02T15:38:42.296Z</time></trkpt><trkpt lat="42.1321252" lon="13.3172781"><ele>1057.0</ele><time>2026-05-02T15:38:43.293Z</time></trkpt><trkpt lat="42.1321878" lon="13.317201"><ele>1056.0</ele><time>2026-05-02T15:38:44.291Z</time></trkpt><trkpt lat="42.1322586" lon="13.3171281"><ele>1055.6666666666667</ele><time>2026-05-02T15:38:45.296Z</time></trkpt><trkpt lat="42.1323151" lon="13.3170386"><ele>1055.3333333333333</ele><time>2026-05-02T15:38:46.299Z</time></trkpt><trkpt lat="42.1323712" lon="13.3169479"><ele>1055.0</ele><time>2026-05-02T15:38:47.297Z</time></trkpt><trkpt lat="42.1324289" lon="13.316873"><ele>1054.6666666666665</ele><time>2026-05-02T15:38:48.3Z</time></trkpt><trkpt lat="42.1324922" lon="13.3168073"><ele>1054.3333333333333</ele><time>2026-05-02T15:38:49.296Z</time></trkpt><trkpt lat="42.1325556" lon="13.3167323"><ele>1054.0</ele><time>2026-05-02T15:38:50.297Z</time></trkpt><trkpt lat="42.1326094" lon="13.3166469"><ele>1054.0</ele><time>2026-05-02T15:38:51.294Z</time></trkpt><trkpt lat="42.1326562" lon="13.3165591"><ele>1054.0</ele><time>2026-05-02T15:38:52.299Z</time></trkpt><trkpt lat="42.1327105" lon="13.3164664"><ele>1054.0</ele><time>2026-05-02T15:38:53.297Z</time></trkpt><trkpt lat="42.1327796" lon="13.3163819"><ele>1054.0</ele><time>2026-05-02T15:38:54.299Z</time></trkpt><trkpt lat="42.132844" lon="13.316291"><ele>1054.0</ele><time>2026-05-02T15:38:55.298Z</time></trkpt><trkpt lat="42.1329051" lon="13.3162079"><ele>1054.0</ele><time>2026-05-02T15:38:56.298Z</time></trkpt><trkpt lat="42.1329507" lon="13.3161369"><ele>1053.3333333333333</ele><time>2026-05-02T15:38:57.291Z</time></trkpt><trkpt lat="42.1329961" lon="13.3160711"><ele>1052.6666666666665</ele><time>2026-05-02T15:38:58.298Z</time></trkpt><trkpt lat="42.1330422" lon="13.3160042"><ele>1052.0</ele><time>2026-05-02T15:38:59.289Z</time></trkpt><trkpt lat="42.1330972" lon="13.3158762"><ele>1051.3333333333333</ele><time>2026-05-02T15:39:01.289Z</time></trkpt><trkpt lat="42.1331075" lon="13.3157399"><ele>1050.6666666666667</ele><time>2026-05-02T15:39:03.29Z</time></trkpt><trkpt lat="42.1331021" lon="13.3156357"><ele>1050.0</ele><time>2026-05-02T15:39:06.305Z</time></trkpt><trkpt lat="42.1330323" lon="13.3155665"><ele>1049.6666666666667</ele><time>2026-05-02T15:39:09.297Z</time></trkpt><trkpt lat="42.132943" lon="13.3155296"><ele>1049.3333333333333</ele><time>2026-05-02T15:39:11.292Z</time></trkpt><trkpt lat="42.1328653" lon="13.3155052"><ele>1049.0</ele><time>2026-05-02T15:39:12.294Z</time></trkpt><trkpt lat="42.1327862" lon="13.3154584"><ele>1048.6666666666665</ele><time>2026-05-02T15:39:13.28Z</time></trkpt><trkpt lat="42.1327113" lon="13.3153973"><ele>1048.3333333333333</ele><time>2026-05-02T15:39:14.283Z</time></trkpt><trkpt lat="42.1326519" lon="13.3153042"><ele>1048.0</ele><time>2026-05-02T15:39:15.291Z</time></trkpt><trkpt lat="42.1326014" lon="13.3152097"><ele>1048.0</ele><time>2026-05-02T15:39:16.291Z</time></trkpt><trkpt lat="42.1325602" lon="13.3151146"><ele>1048.0</ele><time>2026-05-02T15:39:17.291Z</time></trkpt><trkpt lat="42.1325243" lon="13.3150334"><ele>1048.0</ele><time>2026-05-02T15:39:18.282Z</time></trkpt><trkpt lat="42.1324883" lon="13.3149319"><ele>1048.0</ele><time>2026-05-02T15:39:19.296Z</time></trkpt><trkpt lat="42.1324615" lon="13.3148328"><ele>1048.0</ele><time>2026-05-02T15:39:20.286Z</time></trkpt><trkpt lat="42.1324207" lon="13.3147184"><ele>1048.0</ele><time>2026-05-02T15:39:21.292Z</time></trkpt><trkpt lat="42.1323868" lon="13.3146254"><ele>1048.2</ele><time>2026-05-02T15:39:22.285Z</time></trkpt><trkpt lat="42.1323441" lon="13.3145271"><ele>1048.4</ele><time>2026-05-02T15:39:23.274Z</time></trkpt><trkpt lat="42.1322847" lon="13.3144355"><ele>1048.6000000000001</ele><time>2026-05-02T15:39:24.273Z</time></trkpt><trkpt lat="42.1322224" lon="13.3143617"><ele>1048.8</ele><time>2026-05-02T15:39:25.272Z</time></trkpt><trkpt lat="42.1321354" lon="13.3142779"><ele>1049.0</ele><time>2026-05-02T15:39:26.276Z</time></trkpt><trkpt lat="42.132061" lon="13.3141804"><ele>1049.0</ele><time>2026-05-02T15:39:27.293Z</time></trkpt><trkpt lat="42.1319901" lon="13.3140932"><ele>1049.0</ele><time>2026-05-02T15:39:28.281Z</time></trkpt><trkpt lat="42.1319319" lon="13.3140126"><ele>1049.0</ele><time>2026-05-02T15:39:29.281Z</time></trkpt><trkpt lat="42.1318811" lon="13.3139321"><ele>1049.0</ele><time>2026-05-02T15:39:30.289Z</time></trkpt><trkpt lat="42.1318165" lon="13.3137811"><ele>1049.0</ele><time>2026-05-02T15:39:32.277Z</time></trkpt><trkpt lat="42.1318001" lon="13.3136794"><ele>1049.6000000000001</ele><time>2026-05-02T15:39:33.28Z</time></trkpt><trkpt lat="42.1318031" lon="13.3135588"><ele>1050.2</ele><time>2026-05-02T15:39:34.277Z</time></trkpt><trkpt lat="42.1318121" lon="13.313432"><ele>1050.8000000000002</ele><time>2026-05-02T15:39:35.278Z</time></trkpt><trkpt lat="42.1318193" lon="13.3133001"><ele>1051.4</ele><time>2026-05-02T15:39:36.285Z</time></trkpt><trkpt lat="42.1318171" lon="13.3131759"><ele>1052.0</ele><time>2026-05-02T15:39:37.283Z</time></trkpt><trkpt lat="42.13182" lon="13.3130583"><ele>1052.5</ele><time>2026-05-02T15:39:38.288Z</time></trkpt><trkpt lat="42.1318293" lon="13.3129488"><ele>1053.0</ele><time>2026-05-02T15:39:39.285Z</time></trkpt><trkpt lat="42.1318369" lon="13.3128489"><ele>1053.5</ele><time>2026-05-02T15:39:40.286Z</time></trkpt><trkpt lat="42.1318618" lon="13.3127497"><ele>1054.0</ele><time>2026-05-02T15:39:41.283Z</time></trkpt><trkpt lat="42.1318872" lon="13.312659"><ele>1054.5</ele><time>2026-05-02T15:39:42.283Z</time></trkpt><trkpt lat="42.1319202" lon="13.312575"><ele>1055.0</ele><time>2026-05-02T15:39:43.283Z</time></trkpt><trkpt lat="42.1319663" lon="13.3124944"><ele>1055.0</ele><time>2026-05-02T15:39:44.283Z</time></trkpt><trkpt lat="42.1320233" lon="13.3124293"><ele>1055.0</ele><time>2026-05-02T15:39:45.279Z</time></trkpt><trkpt lat="42.1320715" lon="13.3123673"><ele>1055.0</ele><time>2026-05-02T15:39:46.282Z</time></trkpt><trkpt lat="42.1321457" lon="13.3122799"><ele>1055.0</ele><time>2026-05-02T15:39:48.279Z</time></trkpt><trkpt lat="42.1321858" lon="13.3121746"><ele>1055.0</ele><time>2026-05-02T15:39:50.274Z</time></trkpt><trkpt lat="42.1322362" lon="13.3120431"><ele>1055.0</ele><time>2026-05-02T15:39:52.269Z</time></trkpt><trkpt lat="42.1323248" lon="13.3119552"><ele>1056.6666666666667</ele><time>2026-05-02T15:39:54.271Z</time></trkpt><trkpt lat="42.1323646" lon="13.3118743"><ele>1058.3333333333335</ele><time>2026-05-02T15:39:56.28Z</time></trkpt><trkpt lat="42.1324135" lon="13.3117815"><ele>1060.0</ele><time>2026-05-02T15:39:58.282Z</time></trkpt><trkpt lat="42.1325171" lon="13.3117066"><ele>1061.6666666666667</ele><time>2026-05-02T15:40:00.27Z</time></trkpt><trkpt lat="42.1325744" lon="13.3116679"><ele>1063.3333333333333</ele><time>2026-05-02T15:40:01.27Z</time></trkpt><trkpt lat="42.1326775" lon="13.3116172"><ele>1065.0</ele><time>2026-05-02T15:40:03.27Z</time></trkpt><trkpt lat="42.1327538" lon="13.3115141"><ele>1061.8</ele><time>2026-05-02T15:40:05.269Z</time></trkpt><trkpt lat="42.1328194" lon="13.3113914"><ele>1058.6</ele><time>2026-05-02T15:40:07.274Z</time></trkpt><trkpt lat="42.1329003" lon="13.3112699"><ele>1055.4</ele><time>2026-05-02T15:40:09.268Z</time></trkpt><trkpt lat="42.1330059" lon="13.3111849"><ele>1052.2</ele><time>2026-05-02T15:40:11.271Z</time></trkpt><trkpt lat="42.1330696" lon="13.3111608"><ele>1049.0</ele><time>2026-05-02T15:40:12.276Z</time></trkpt><trkpt lat="42.1331319" lon="13.3111359"><ele>1045.4</ele><time>2026-05-02T15:40:13.272Z</time></trkpt><trkpt lat="42.1332227" lon="13.3110909"><ele>1041.8000000000002</ele><time>2026-05-02T15:40:15.274Z</time></trkpt><trkpt lat="42.1332486" lon="13.3109764"><ele>1038.1999999999998</ele><time>2026-05-02T15:40:17.288Z</time></trkpt><trkpt lat="42.1332785" lon="13.3108361"><ele>1034.6</ele><time>2026-05-02T15:40:19.271Z</time></trkpt><trkpt lat="42.1333248" lon="13.3107219"><ele>1031.0</ele><time>2026-05-02T15:40:21.273Z</time></trkpt><trkpt lat="42.1334095" lon="13.3106577"><ele>1031.0</ele><time>2026-05-02T15:40:24.284Z</time></trkpt><trkpt lat="42.1334715" lon="13.3106007"><ele>1031.0</ele><time>2026-05-02T15:40:26.283Z</time></trkpt><trkpt lat="42.1335173" lon="13.3105246"><ele>1031.0</ele><time>2026-05-02T15:40:28.29Z</time></trkpt><trkpt lat="42.1335848" lon="13.3104383"><ele>1031.0</ele><time>2026-05-02T15:40:30.289Z</time></trkpt><trkpt lat="42.1336239" lon="13.310351"><ele>1031.0</ele><time>2026-05-02T15:40:32.283Z</time></trkpt><trkpt lat="42.1336685" lon="13.310256"><ele>1031.0</ele><time>2026-05-02T15:40:34.287Z</time></trkpt><trkpt lat="42.1337209" lon="13.3101512"><ele>1032.3333333333335</ele><time>2026-05-02T15:40:36.28Z</time></trkpt><trkpt lat="42.1337738" lon="13.3100728"><ele>1033.6666666666667</ele><time>2026-05-02T15:40:38.28Z</time></trkpt><trkpt lat="42.1338436" lon="13.3100336"><ele>1035.0</ele><time>2026-05-02T15:40:40.283Z</time></trkpt><trkpt lat="42.1339307" lon="13.3099999"><ele>1036.3333333333333</ele><time>2026-05-02T15:40:42.285Z</time></trkpt><trkpt lat="42.1340143" lon="13.3099793"><ele>1037.6666666666665</ele><time>2026-05-02T15:40:44.281Z</time></trkpt><trkpt lat="42.1340596" lon="13.3098907"><ele>1039.0</ele><time>2026-05-02T15:40:46.285Z</time></trkpt><trkpt lat="42.1341001" lon="13.3097824"><ele>1035.3333333333333</ele><time>2026-05-02T15:40:48.287Z</time></trkpt><trkpt lat="42.1341385" lon="13.3096938"><ele>1031.6666666666665</ele><time>2026-05-02T15:40:50.279Z</time></trkpt><trkpt lat="42.134137" lon="13.3095912"><ele>1028.0</ele><time>2026-05-02T15:40:52.279Z</time></trkpt><trkpt lat="42.134149" lon="13.3094838"><ele>1024.3333333333333</ele><time>2026-05-02T15:40:54.277Z</time></trkpt><trkpt lat="42.1342136" lon="13.3093689"><ele>1020.6666666666666</ele><time>2026-05-02T15:40:56.286Z</time></trkpt><trkpt lat="42.1342757" lon="13.3092634"><ele>1017.0</ele><time>2026-05-02T15:40:58.28Z</time></trkpt><trkpt lat="42.1343245" lon="13.3091462"><ele>1017.0</ele><time>2026-05-02T15:41:00.281Z</time></trkpt><trkpt lat="42.1343752" lon="13.3090385"><ele>1017.0</ele><time>2026-05-02T15:41:02.282Z</time></trkpt><trkpt lat="42.1344405" lon="13.3089533"><ele>1017.0</ele><time>2026-05-02T15:41:04.275Z</time></trkpt><trkpt lat="42.1344879" lon="13.3088935"><ele>1017.0</ele><time>2026-05-02T15:41:05.275Z</time></trkpt><trkpt lat="42.134545" lon="13.308815"><ele>1017.0</ele><time>2026-05-02T15:41:06.269Z</time></trkpt><trkpt lat="42.13461" lon="13.3087646"><ele>1017.0</ele><time>2026-05-02T15:41:07.267Z</time></trkpt><trkpt lat="42.1346962" lon="13.3087133"><ele>1017.0</ele><time>2026-05-02T15:41:09.276Z</time></trkpt><trkpt lat="42.1346996" lon="13.3086041"><ele>1017.0</ele><time>2026-05-02T15:41:11.277Z</time></trkpt><trkpt lat="42.1346928" lon="13.3084533"><ele>1017.0</ele><time>2026-05-02T15:41:13.285Z</time></trkpt><trkpt lat="42.1346815" lon="13.308299"><ele>1017.0</ele><time>2026-05-02T15:41:15.272Z</time></trkpt><trkpt lat="42.1346943" lon="13.3082072"><ele>1017.0</ele><time>2026-05-02T15:41:16.282Z</time></trkpt><trkpt lat="42.1346906" lon="13.308121"><ele>1017.0</ele><time>2026-05-02T15:41:17.28Z</time></trkpt><trkpt lat="42.1346955" lon="13.3079655"><ele>1015.0</ele><time>2026-05-02T15:41:19.28Z</time></trkpt><trkpt lat="42.134724" lon="13.3077967"><ele>1013.0</ele><time>2026-05-02T15:41:21.278Z</time></trkpt><trkpt lat="42.134795" lon="13.3076728"><ele>1011.0</ele><time>2026-05-02T15:41:23.284Z</time></trkpt><trkpt lat="42.134841" lon="13.3075998"><ele>1009.0</ele><time>2026-05-02T15:41:24.285Z</time></trkpt><trkpt lat="42.1348741" lon="13.3075189"><ele>1007.0</ele><time>2026-05-02T15:41:25.275Z</time></trkpt><trkpt lat="42.1348385" lon="13.3073758"><ele>1007.0</ele><time>2026-05-02T15:41:27.285Z</time></trkpt><trkpt lat="42.1347862" lon="13.3073006"><ele>1007.0</ele><time>2026-05-02T15:41:28.305Z</time></trkpt><trkpt lat="42.1347241" lon="13.3072062"><ele>1007.0</ele><time>2026-05-02T15:41:29.29Z</time></trkpt><trkpt lat="42.1346762" lon="13.3071276"><ele>1007.0</ele><time>2026-05-02T15:41:30.301Z</time></trkpt><trkpt lat="42.1346098" lon="13.3069983"><ele>1007.0</ele><time>2026-05-02T15:41:32.299Z</time></trkpt><trkpt lat="42.134567" lon="13.3068691"><ele>1004.0</ele><time>2026-05-02T15:41:34.294Z</time></trkpt><trkpt lat="42.1345718" lon="13.3067204"><ele>1001.0</ele><time>2026-05-02T15:41:36.3Z</time></trkpt><trkpt lat="42.1345499" lon="13.3065531"><ele>998.0</ele><time>2026-05-02T15:41:38.295Z</time></trkpt><trkpt lat="42.1345447" lon="13.3063816"><ele>995.0</ele><time>2026-05-02T15:41:40.282Z</time></trkpt><trkpt lat="42.1345495" lon="13.3062832"><ele>992.0</ele><time>2026-05-02T15:41:41.296Z</time></trkpt><trkpt lat="42.1345498" lon="13.3061972"><ele>989.4000000000001</ele><time>2026-05-02T15:41:42.288Z</time></trkpt><trkpt lat="42.1345004" lon="13.3060678"><ele>986.8000000000001</ele><time>2026-05-02T15:41:44.292Z</time></trkpt><trkpt lat="42.1344213" lon="13.3059755"><ele>984.2</ele><time>2026-05-02T15:41:46.294Z</time></trkpt><trkpt lat="42.1343999" lon="13.3058059"><ele>981.6</ele><time>2026-05-02T15:41:48.292Z</time></trkpt><trkpt lat="42.1343925" lon="13.3057092"><ele>979.0</ele><time>2026-05-02T15:41:49.298Z</time></trkpt><trkpt lat="42.134375" lon="13.3056064"><ele>977.4999999999999</ele><time>2026-05-02T15:41:50.299Z</time></trkpt><trkpt lat="42.1343671" lon="13.3055036"><ele>976.0</ele><time>2026-05-02T15:41:51.299Z</time></trkpt><trkpt lat="42.1343625" lon="13.3053965"><ele>974.5</ele><time>2026-05-02T15:41:52.299Z</time></trkpt><trkpt lat="42.1343558" lon="13.3052894"><ele>973.0</ele><time>2026-05-02T15:41:53.297Z</time></trkpt><trkpt lat="42.1343457" lon="13.3051824"><ele>971.4999999999999</ele><time>2026-05-02T15:41:54.294Z</time></trkpt><trkpt lat="42.1343301" lon="13.3050749"><ele>970.0</ele><time>2026-05-02T15:41:55.293Z</time></trkpt><trkpt lat="42.1343107" lon="13.3049729"><ele>969.9999999999999</ele><time>2026-05-02T15:41:56.293Z</time></trkpt><trkpt lat="42.1342818" lon="13.304871"><ele>970.0</ele><time>2026-05-02T15:41:57.301Z</time></trkpt><trkpt lat="42.1342537" lon="13.3047922"><ele>970.0</ele><time>2026-05-02T15:41:58.297Z</time></trkpt><trkpt lat="42.134235" lon="13.304622"><ele>970.0</ele><time>2026-05-02T15:42:00.293Z</time></trkpt><trkpt lat="42.1342465" lon="13.3045143"><ele>969.9999999999999</ele><time>2026-05-02T15:42:01.29Z</time></trkpt><trkpt lat="42.1342545" lon="13.3044049"><ele>970.0</ele><time>2026-05-02T15:42:02.3Z</time></trkpt><trkpt lat="42.1342484" lon="13.304284"><ele>968.4</ele><time>2026-05-02T15:42:03.294Z</time></trkpt><trkpt lat="42.1342323" lon="13.3041523"><ele>966.8</ele><time>2026-05-02T15:42:04.364Z</time></trkpt><trkpt lat="42.1342121" lon="13.3040208"><ele>965.2</ele><time>2026-05-02T15:42:05.373Z</time></trkpt><trkpt lat="42.1341905" lon="13.3039001"><ele>963.6</ele><time>2026-05-02T15:42:06.367Z</time></trkpt><trkpt lat="42.13417" lon="13.3037781"><ele>962.0</ele><time>2026-05-02T15:42:07.372Z</time></trkpt><trkpt lat="42.1341473" lon="13.3036666"><ele>961.6666666666667</ele><time>2026-05-02T15:42:08.372Z</time></trkpt><trkpt lat="42.1341441" lon="13.3035702"><ele>961.3333333333334</ele><time>2026-05-02T15:42:09.372Z</time></trkpt><trkpt lat="42.1341601" lon="13.3034766"><ele>961.0</ele><time>2026-05-02T15:42:10.375Z</time></trkpt><trkpt lat="42.1341895" lon="13.3033883"><ele>960.6666666666667</ele><time>2026-05-02T15:42:11.349Z</time></trkpt><trkpt lat="42.1342242" lon="13.3032926"><ele>960.3333333333334</ele><time>2026-05-02T15:42:12.355Z</time></trkpt><trkpt lat="42.134265" lon="13.3031804"><ele>960.0</ele><time>2026-05-02T15:42:13.361Z</time></trkpt><trkpt lat="42.1343119" lon="13.303078"><ele>961.0</ele><time>2026-05-02T15:42:14.358Z</time></trkpt><trkpt lat="42.1343589" lon="13.3029619"><ele>962.0</ele><time>2026-05-02T15:42:15.373Z</time></trkpt><trkpt lat="42.134411" lon="13.3028459"><ele>963.0</ele><time>2026-05-02T15:42:16.376Z</time></trkpt><trkpt lat="42.1344611" lon="13.30273"><ele>964.0</ele><time>2026-05-02T15:42:17.372Z</time></trkpt><trkpt lat="42.1345023" lon="13.3026198"><ele>965.0</ele><time>2026-05-02T15:42:18.373Z</time></trkpt><trkpt lat="42.1345377" lon="13.3025194"><ele>965.0000000000001</ele><time>2026-05-02T15:42:19.374Z</time></trkpt><trkpt lat="42.1345672" lon="13.3024215"><ele>965.0</ele><time>2026-05-02T15:42:20.371Z</time></trkpt><trkpt lat="42.134583" lon="13.3023297"><ele>965.0</ele><time>2026-05-02T15:42:21.366Z</time></trkpt><trkpt lat="42.1345671" lon="13.3022129"><ele>965.0</ele><time>2026-05-02T15:42:23.351Z</time></trkpt><trkpt lat="42.1346371" lon="13.3021243"><ele>965.0000000000001</ele><time>2026-05-02T15:42:27.365Z</time></trkpt><trkpt lat="42.1346906" lon="13.3020468"><ele>965.0</ele><time>2026-05-02T15:42:29.385Z</time></trkpt><trkpt lat="42.1347381" lon="13.3019523"><ele>966.0000000000001</ele><time>2026-05-02T15:42:31.377Z</time></trkpt><trkpt lat="42.1347764" lon="13.3018147"><ele>967.0</ele><time>2026-05-02T15:42:33.379Z</time></trkpt><trkpt lat="42.1348065" lon="13.3017303"><ele>968.0</ele><time>2026-05-02T15:42:34.356Z</time></trkpt><trkpt lat="42.1348428" lon="13.3016544"><ele>969.0</ele><time>2026-05-02T15:42:35.351Z</time></trkpt><trkpt lat="42.1348938" lon="13.3015819"><ele>970.0000000000001</ele><time>2026-05-02T15:42:36.357Z</time></trkpt><trkpt lat="42.1349609" lon="13.3015147"><ele>971.0</ele><time>2026-05-02T15:42:37.354Z</time></trkpt><trkpt lat="42.1350339" lon="13.3014382"><ele>965.8</ele><time>2026-05-02T15:42:38.377Z</time></trkpt><trkpt lat="42.1350977" lon="13.3013578"><ele>960.5999999999999</ele><time>2026-05-02T15:42:39.366Z</time></trkpt><trkpt lat="42.135159" lon="13.3012607"><ele>955.4</ele><time>2026-05-02T15:42:40.377Z</time></trkpt><trkpt lat="42.135228" lon="13.3011377"><ele>950.2</ele><time>2026-05-02T15:42:41.297Z</time></trkpt><trkpt lat="42.1352758" lon="13.3010478"><ele>945.0</ele><time>2026-05-02T15:42:42.295Z</time></trkpt><trkpt lat="42.135327" lon="13.3009726"><ele>945.0</ele><time>2026-05-02T15:42:43.29Z</time></trkpt><trkpt lat="42.135385" lon="13.3009218"><ele>945.0</ele><time>2026-05-02T15:42:44.289Z</time></trkpt><trkpt lat="42.1354424" lon="13.3008783"><ele>945.0</ele><time>2026-05-02T15:42:45.289Z</time></trkpt><trkpt lat="42.1355576" lon="13.3008393"><ele>945.0</ele><time>2026-05-02T15:42:47.289Z</time></trkpt><trkpt lat="42.1356586" lon="13.3007769"><ele>945.0</ele><time>2026-05-02T15:42:49.286Z</time></trkpt><trkpt lat="42.1357264" lon="13.3006612"><ele>944.8</ele><time>2026-05-02T15:42:51.288Z</time></trkpt><trkpt lat="42.1358134" lon="13.3006579"><ele>944.6</ele><time>2026-05-02T15:42:53.287Z</time></trkpt><trkpt lat="42.1359092" lon="13.3006741"><ele>944.4000000000001</ele><time>2026-05-02T15:42:55.286Z</time></trkpt><trkpt lat="42.1360358" lon="13.3006723"><ele>944.2</ele><time>2026-05-02T15:42:57.29Z</time></trkpt><trkpt lat="42.1361097" lon="13.3006366"><ele>944.0</ele><time>2026-05-02T15:42:58.287Z</time></trkpt><trkpt lat="42.1361752" lon="13.3005939"><ele>942.0000000000001</ele><time>2026-05-02T15:42:59.292Z</time></trkpt><trkpt lat="42.1362441" lon="13.3005393"><ele>940.0</ele><time>2026-05-02T15:43:00.281Z</time></trkpt><trkpt lat="42.1363068" lon="13.3004771"><ele>938.0</ele><time>2026-05-02T15:43:01.278Z</time></trkpt><trkpt lat="42.1363461" lon="13.3004106"><ele>936.0</ele><time>2026-05-02T15:43:02.275Z</time></trkpt><trkpt lat="42.1364191" lon="13.3002659"><ele>934.0000000000001</ele><time>2026-05-02T15:43:04.274Z</time></trkpt><trkpt lat="42.1364527" lon="13.3001816"><ele>932.0</ele><time>2026-05-02T15:43:05.28Z</time></trkpt><trkpt lat="42.1365009" lon="13.3001037"><ele>932.0</ele><time>2026-05-02T15:43:06.285Z</time></trkpt><trkpt lat="42.1365604" lon="13.3000139"><ele>932.0</ele><time>2026-05-02T15:43:07.281Z</time></trkpt><trkpt lat="42.1366259" lon="13.2999044"><ele>932.0</ele><time>2026-05-02T15:43:08.284Z</time></trkpt><trkpt lat="42.1366861" lon="13.2997865"><ele>932.0</ele><time>2026-05-02T15:43:09.28Z</time></trkpt><trkpt lat="42.1367363" lon="13.2996757"><ele>932.0</ele><time>2026-05-02T15:43:10.285Z</time></trkpt><trkpt lat="42.1367647" lon="13.2995678"><ele>932.0000000000001</ele><time>2026-05-02T15:43:11.284Z</time></trkpt><trkpt lat="42.1367816" lon="13.2994511"><ele>932.0</ele><time>2026-05-02T15:43:12.285Z</time></trkpt><trkpt lat="42.1367992" lon="13.2993362"><ele>932.0</ele><time>2026-05-02T15:43:13.285Z</time></trkpt><trkpt lat="42.1368109" lon="13.2992215"><ele>932.0</ele><time>2026-05-02T15:43:14.286Z</time></trkpt><trkpt lat="42.1368238" lon="13.2991024"><ele>932.0000000000001</ele><time>2026-05-02T15:43:15.289Z</time></trkpt><trkpt lat="42.1368491" lon="13.2989987"><ele>932.0</ele><time>2026-05-02T15:43:16.288Z</time></trkpt><trkpt lat="42.1368797" lon="13.2988727"><ele>931.3333333333334</ele><time>2026-05-02T15:43:17.285Z</time></trkpt><trkpt lat="42.1369025" lon="13.2987553"><ele>930.6666666666667</ele><time>2026-05-02T15:43:18.286Z</time></trkpt><trkpt lat="42.1369205" lon="13.2986533"><ele>930.0</ele><time>2026-05-02T15:43:19.286Z</time></trkpt><trkpt lat="42.1369431" lon="13.298546"><ele>929.3333333333333</ele><time>2026-05-02T15:43:20.286Z</time></trkpt><trkpt lat="42.1369712" lon="13.2984477"><ele>928.6666666666666</ele><time>2026-05-02T15:43:21.284Z</time></trkpt><trkpt lat="42.137003" lon="13.2983517"><ele>928.0</ele><time>2026-05-02T15:43:22.288Z</time></trkpt><trkpt lat="42.1370196" lon="13.298267"><ele>928.0</ele><time>2026-05-02T15:43:23.281Z</time></trkpt><trkpt lat="42.1369896" lon="13.2981269"><ele>928.0</ele><time>2026-05-02T15:43:25.277Z</time></trkpt><trkpt lat="42.1369145" lon="13.2980711"><ele>928.0</ele><time>2026-05-02T15:43:27.295Z</time></trkpt><trkpt lat="42.1368527" lon="13.2981246"><ele>928.0</ele><time>2026-05-02T15:43:29.283Z</time></trkpt><trkpt lat="42.1367559" lon="13.2981282"><ele>928.0</ele><time>2026-05-02T15:43:31.289Z</time></trkpt><trkpt lat="42.1366429" lon="13.2980716"><ele>928.8</ele><time>2026-05-02T15:43:33.282Z</time></trkpt><trkpt lat="42.1365656" lon="13.2979831"><ele>929.5999999999999</ele><time>2026-05-02T15:43:35.279Z</time></trkpt><trkpt lat="42.1365364" lon="13.2978474"><ele>930.4000000000001</ele><time>2026-05-02T15:43:37.27Z</time></trkpt><trkpt lat="42.1365765" lon="13.297691"><ele>931.2</ele><time>2026-05-02T15:43:39.271Z</time></trkpt><trkpt lat="42.1366323" lon="13.2976094"><ele>932.0</ele><time>2026-05-02T15:43:40.284Z</time></trkpt><trkpt lat="42.1366753" lon="13.2975317"><ele>932.0</ele><time>2026-05-02T15:43:41.279Z</time></trkpt><trkpt lat="42.1367026" lon="13.2974551"><ele>932.0</ele><time>2026-05-02T15:43:42.28Z</time></trkpt><trkpt lat="42.13672" lon="13.2973602"><ele>932.0</ele><time>2026-05-02T15:43:43.281Z</time></trkpt><trkpt lat="42.1367178" lon="13.2972584"><ele>932.0</ele><time>2026-05-02T15:43:44.282Z</time></trkpt><trkpt lat="42.1367033" lon="13.2971591"><ele>932.0</ele><time>2026-05-02T15:43:45.278Z</time></trkpt><trkpt lat="42.1366985" lon="13.2970554"><ele>932.0</ele><time>2026-05-02T15:43:46.286Z</time></trkpt><trkpt lat="42.1366828" lon="13.2969508"><ele>932.0</ele><time>2026-05-02T15:43:47.282Z</time></trkpt><trkpt lat="42.1366846" lon="13.2968356"><ele>931.2</ele><time>2026-05-02T15:43:48.284Z</time></trkpt><trkpt lat="42.1366985" lon="13.2967152"><ele>930.4000000000001</ele><time>2026-05-02T15:43:49.282Z</time></trkpt><trkpt lat="42.1367202" lon="13.2965882"><ele>929.5999999999999</ele><time>2026-05-02T15:43:50.283Z</time></trkpt><trkpt lat="42.1367304" lon="13.2964668"><ele>928.8</ele><time>2026-05-02T15:43:51.274Z</time></trkpt><trkpt lat="42.1367258" lon="13.2963204"><ele>928.0</ele><time>2026-05-02T15:43:52.276Z</time></trkpt><trkpt lat="42.1367095" lon="13.2961587"><ele>927.0</ele><time>2026-05-02T15:43:53.28Z</time></trkpt><trkpt lat="42.1366898" lon="13.2960115"><ele>926.0</ele><time>2026-05-02T15:43:54.28Z</time></trkpt><trkpt lat="42.1366747" lon="13.2958744"><ele>925.0</ele><time>2026-05-02T15:43:55.281Z</time></trkpt><trkpt lat="42.1366635" lon="13.2957484"><ele>924.0</ele><time>2026-05-02T15:43:56.274Z</time></trkpt><trkpt lat="42.1366694" lon="13.295613"><ele>923.0</ele><time>2026-05-02T15:43:57.285Z</time></trkpt><trkpt lat="42.1366778" lon="13.295458"><ele>922.0</ele><time>2026-05-02T15:43:58.286Z</time></trkpt><trkpt lat="42.1366849" lon="13.2952963"><ele>921.0</ele><time>2026-05-02T15:43:59.277Z</time></trkpt><trkpt lat="42.1366767" lon="13.2951598"><ele>920.0</ele><time>2026-05-02T15:44:00.286Z</time></trkpt><trkpt lat="42.1366508" lon="13.2950301"><ele>919.0</ele><time>2026-05-02T15:44:01.281Z</time></trkpt><trkpt lat="42.1366268" lon="13.2948877"><ele>918.0</ele><time>2026-05-02T15:44:02.279Z</time></trkpt><trkpt lat="42.136608" lon="13.2947491"><ele>917.5999999999999</ele><time>2026-05-02T15:44:03.276Z</time></trkpt><trkpt lat="42.136581" lon="13.2946217"><ele>917.1999999999999</ele><time>2026-05-02T15:44:04.278Z</time></trkpt><trkpt lat="42.1365538" lon="13.2944821"><ele>916.8</ele><time>2026-05-02T15:44:05.276Z</time></trkpt><trkpt lat="42.1365414" lon="13.2943611"><ele>916.4</ele><time>2026-05-02T15:44:06.281Z</time></trkpt><trkpt lat="42.1365178" lon="13.294256"><ele>916.0</ele><time>2026-05-02T15:44:07.278Z</time></trkpt><trkpt lat="42.1365035" lon="13.294147"><ele>914.8333333333333</ele><time>2026-05-02T15:44:08.281Z</time></trkpt><trkpt lat="42.1364973" lon="13.2940473"><ele>913.6666666666666</ele><time>2026-05-02T15:44:09.277Z</time></trkpt><trkpt lat="42.1364997" lon="13.2939542"><ele>912.5</ele><time>2026-05-02T15:44:10.277Z</time></trkpt><trkpt lat="42.1365045" lon="13.2938211"><ele>911.3333333333333</ele><time>2026-05-02T15:44:12.278Z</time></trkpt><trkpt lat="42.1364562" lon="13.2937294"><ele>910.1666666666666</ele><time>2026-05-02T15:44:14.291Z</time></trkpt><trkpt lat="42.1363701" lon="13.2936211"><ele>909.0</ele><time>2026-05-02T15:44:16.278Z</time></trkpt><trkpt lat="42.1363432" lon="13.2935407"><ele>909.0</ele><time>2026-05-02T15:44:17.274Z</time></trkpt><trkpt lat="42.1363425" lon="13.293374"><ele>909.0</ele><time>2026-05-02T15:44:19.282Z</time></trkpt><trkpt lat="42.1363421" lon="13.293286"><ele>909.0</ele><time>2026-05-02T15:44:20.282Z</time></trkpt><trkpt lat="42.1363217" lon="13.2932002"><ele>909.0</ele><time>2026-05-02T15:44:21.277Z</time></trkpt><trkpt lat="42.1362848" lon="13.2931"><ele>909.0</ele><time>2026-05-02T15:44:22.282Z</time></trkpt><trkpt lat="42.1362473" lon="13.292991"><ele>909.0</ele><time>2026-05-02T15:44:23.285Z</time></trkpt><trkpt lat="42.1362123" lon="13.2928936"><ele>908.6666666666666</ele><time>2026-05-02T15:44:24.284Z</time></trkpt><trkpt lat="42.136181" lon="13.2927926"><ele>908.3333333333333</ele><time>2026-05-02T15:44:25.279Z</time></trkpt><trkpt lat="42.1361758" lon="13.2927032"><ele>908.0</ele><time>2026-05-02T15:44:26.284Z</time></trkpt><trkpt lat="42.1361907" lon="13.292606"><ele>907.6666666666666</ele><time>2026-05-02T15:44:27.281Z</time></trkpt><trkpt lat="42.1362103" lon="13.2925108"><ele>907.3333333333333</ele><time>2026-05-02T15:44:28.288Z</time></trkpt><trkpt lat="42.1362321" lon="13.2924123"><ele>907.0</ele><time>2026-05-02T15:44:29.279Z</time></trkpt><trkpt lat="42.136236" lon="13.2922955"><ele>905.4999999999999</ele><time>2026-05-02T15:44:30.292Z</time></trkpt><trkpt lat="42.1362519" lon="13.2921716"><ele>904.0</ele><time>2026-05-02T15:44:31.284Z</time></trkpt><trkpt lat="42.1362685" lon="13.2920498"><ele>902.5</ele><time>2026-05-02T15:44:32.285Z</time></trkpt><trkpt lat="42.1362787" lon="13.291938"><ele>901.0</ele><time>2026-05-02T15:44:33.287Z</time></trkpt><trkpt lat="42.1362874" lon="13.2918289"><ele>899.4999999999999</ele><time>2026-05-02T15:44:34.288Z</time></trkpt><trkpt lat="42.1362966" lon="13.2917244"><ele>898.0</ele><time>2026-05-02T15:44:35.281Z</time></trkpt><trkpt lat="42.1362854" lon="13.2915839"><ele>897.9999999999999</ele><time>2026-05-02T15:44:37.282Z</time></trkpt><trkpt lat="42.1363203" lon="13.291459"><ele>898.0</ele><time>2026-05-02T15:44:40.292Z</time></trkpt><trkpt lat="42.136406" lon="13.291363"><ele>898.0</ele><time>2026-05-02T15:44:42.287Z</time></trkpt><trkpt lat="42.1364596" lon="13.2912916"><ele>898.0</ele><time>2026-05-02T15:44:43.283Z</time></trkpt><trkpt lat="42.1365002" lon="13.2912116"><ele>897.9999999999999</ele><time>2026-05-02T15:44:44.281Z</time></trkpt><trkpt lat="42.1365307" lon="13.2911222"><ele>898.0</ele><time>2026-05-02T15:44:45.278Z</time></trkpt><trkpt lat="42.1365348" lon="13.2910351"><ele>896.8</ele><time>2026-05-02T15:44:46.288Z</time></trkpt><trkpt lat="42.136551" lon="13.2908827"><ele>895.5999999999999</ele><time>2026-05-02T15:44:48.29Z</time></trkpt><trkpt lat="42.136625" lon="13.2907845"><ele>894.4000000000001</ele><time>2026-05-02T15:44:50.285Z</time></trkpt><trkpt lat="42.1367503" lon="13.2907651"><ele>893.2</ele><time>2026-05-02T15:44:52.282Z</time></trkpt><trkpt lat="42.1368252" lon="13.2907559"><ele>892.0</ele><time>2026-05-02T15:44:53.277Z</time></trkpt><trkpt lat="42.1369207" lon="13.2907621"><ele>891.9999999999999</ele><time>2026-05-02T15:44:54.285Z</time></trkpt><trkpt lat="42.1370161" lon="13.2907655"><ele>892.0</ele><time>2026-05-02T15:44:55.284Z</time></trkpt><trkpt lat="42.1371071" lon="13.2907682"><ele>892.0</ele><time>2026-05-02T15:44:56.281Z</time></trkpt><trkpt lat="42.1371775" lon="13.2907614"><ele>892.0</ele><time>2026-05-02T15:44:57.278Z</time></trkpt><trkpt lat="42.1372445" lon="13.2907247"><ele>891.9999999999999</ele><time>2026-05-02T15:44:59.285Z</time></trkpt><trkpt lat="42.1372693" lon="13.2906456"><ele>892.0</ele><time>2026-05-02T15:45:01.286Z</time></trkpt><trkpt lat="42.137234" lon="13.2905477"><ele>889.4999999999999</ele><time>2026-05-02T15:45:05.294Z</time></trkpt><trkpt lat="42.13717" lon="13.2905154"><ele>887.0</ele><time>2026-05-02T15:45:08.293Z</time></trkpt><trkpt lat="42.1370836" lon="13.2904824"><ele>884.5</ele><time>2026-05-02T15:45:11.298Z</time></trkpt><trkpt lat="42.1370025" lon="13.2904478"><ele>882.0</ele><time>2026-05-02T15:45:13.296Z</time></trkpt><trkpt lat="42.13692" lon="13.2904183"><ele>879.4999999999999</ele><time>2026-05-02T15:45:15.314Z</time></trkpt><trkpt lat="42.1368448" lon="13.2903734"><ele>877.0</ele><time>2026-05-02T15:45:17.306Z</time></trkpt><trkpt lat="42.1368316" lon="13.2902584"><ele>876.9999999999999</ele><time>2026-05-02T15:45:20.304Z</time></trkpt><trkpt lat="42.1368896" lon="13.2901695"><ele>877.0</ele><time>2026-05-02T15:45:22.311Z</time></trkpt><trkpt lat="42.1369437" lon="13.2901068"><ele>877.0</ele><time>2026-05-02T15:45:23.293Z</time></trkpt><trkpt lat="42.1369973" lon="13.2900308"><ele>877.0</ele><time>2026-05-02T15:45:24.298Z</time></trkpt><trkpt lat="42.1370605" lon="13.2899569"><ele>876.9999999999999</ele><time>2026-05-02T15:45:25.291Z</time></trkpt><trkpt lat="42.1371142" lon="13.2898725"><ele>877.0</ele><time>2026-05-02T15:45:26.292Z</time></trkpt><trkpt lat="42.1371488" lon="13.2897764"><ele>874.2</ele><time>2026-05-02T15:45:27.29Z</time></trkpt><trkpt lat="42.1371701" lon="13.2896808"><ele>871.4000000000001</ele><time>2026-05-02T15:45:28.294Z</time></trkpt><trkpt lat="42.1371858" lon="13.2895933"><ele>868.5999999999999</ele><time>2026-05-02T15:45:29.285Z</time></trkpt><trkpt lat="42.1371896" lon="13.289443"><ele>865.8</ele><time>2026-05-02T15:45:31.286Z</time></trkpt><trkpt lat="42.1371208" lon="13.289319"><ele>863.0</ele><time>2026-05-02T15:45:33.296Z</time></trkpt><trkpt lat="42.1370606" lon="13.2891953"><ele>863.0000000000001</ele><time>2026-05-02T15:45:35.297Z</time></trkpt><trkpt lat="42.1370884" lon="13.2891011"><ele>863.0</ele><time>2026-05-02T15:45:37.302Z</time></trkpt><trkpt lat="42.1371659" lon="13.2890414"><ele>863.0</ele><time>2026-05-02T15:45:39.31Z</time></trkpt><trkpt lat="42.1372391" lon="13.2889281"><ele>863.0</ele><time>2026-05-02T15:45:41.3Z</time></trkpt><trkpt lat="42.1372305" lon="13.2888349"><ele>863.0000000000001</ele><time>2026-05-02T15:45:42.287Z</time></trkpt><trkpt lat="42.1371838" lon="13.2887276"><ele>863.0</ele><time>2026-05-02T15:45:43.289Z</time></trkpt><trkpt lat="42.1371205" lon="13.2885957"><ele>861.0</ele><time>2026-05-02T15:45:44.294Z</time></trkpt><trkpt lat="42.1370749" lon="13.288459"><ele>859.0</ele><time>2026-05-02T15:45:45.37Z</time></trkpt><trkpt lat="42.1370284" lon="13.288305"><ele>857.0</ele><time>2026-05-02T15:45:46.369Z</time></trkpt><trkpt lat="42.1369943" lon="13.2881231"><ele>855.0</ele><time>2026-05-02T15:45:47.366Z</time></trkpt><trkpt lat="42.1370054" lon="13.2879536"><ele>855.0</ele><time>2026-05-02T15:45:48.358Z</time></trkpt><trkpt lat="42.1369968" lon="13.2877451"><ele>855.0</ele><time>2026-05-02T15:45:49.335Z</time></trkpt><trkpt lat="42.1370189" lon="13.2879716"><ele>855.0</ele><time>2026-05-02T15:45:50.339Z</time></trkpt><trkpt lat="42.1370889" lon="13.2880199"><ele>855.0</ele><time>2026-05-02T15:45:52.335Z</time></trkpt><trkpt lat="42.1371101" lon="13.2881017"><ele>855.0</ele><time>2026-05-02T15:45:54.368Z</time></trkpt><trkpt lat="42.1371773" lon="13.2881412"><ele>855.0</ele><time>2026-05-02T15:45:55.364Z</time></trkpt><trkpt lat="42.1372663" lon="13.2882101"><ele>855.0</ele><time>2026-05-02T15:45:57.278Z</time></trkpt><trkpt lat="42.1373592" lon="13.2882795"><ele>855.0</ele><time>2026-05-02T15:45:59.291Z</time></trkpt><trkpt lat="42.1374217" lon="13.2883312"><ele>855.0</ele><time>2026-05-02T15:46:00.29Z</time></trkpt><trkpt lat="42.1374873" lon="13.2883825"><ele>855.0</ele><time>2026-05-02T15:46:01.287Z</time></trkpt><trkpt lat="42.1375706" lon="13.2884416"><ele>855.3333333333334</ele><time>2026-05-02T15:46:02.281Z</time></trkpt><trkpt lat="42.1376458" lon="13.2885068"><ele>855.6666666666667</ele><time>2026-05-02T15:46:03.281Z</time></trkpt><trkpt lat="42.1377207" lon="13.2885618"><ele>856.0</ele><time>2026-05-02T15:46:04.273Z</time></trkpt><trkpt lat="42.1377839" lon="13.2885724"><ele>856.3333333333334</ele><time>2026-05-02T15:46:05.277Z</time></trkpt><trkpt lat="42.1378488" lon="13.2885473"><ele>856.6666666666667</ele><time>2026-05-02T15:46:06.278Z</time></trkpt><trkpt lat="42.1379065" lon="13.2884989"><ele>857.0</ele><time>2026-05-02T15:46:07.279Z</time></trkpt><trkpt lat="42.1379396" lon="13.2884028"><ele>857.0</ele><time>2026-05-02T15:46:08.284Z</time></trkpt><trkpt lat="42.1379561" lon="13.2882945"><ele>857.0</ele><time>2026-05-02T15:46:09.274Z</time></trkpt><trkpt lat="42.1379564" lon="13.2881668"><ele>857.0</ele><time>2026-05-02T15:46:10.277Z</time></trkpt><trkpt lat="42.1379331" lon="13.2880437"><ele>857.0</ele><time>2026-05-02T15:46:11.287Z</time></trkpt><trkpt lat="42.137891" lon="13.2879056"><ele>857.0</ele><time>2026-05-02T15:46:12.291Z</time></trkpt><trkpt lat="42.1378407" lon="13.2877641"><ele>855.4000000000001</ele><time>2026-05-02T15:46:13.294Z</time></trkpt><trkpt lat="42.1377987" lon="13.2876354"><ele>853.8000000000001</ele><time>2026-05-02T15:46:14.291Z</time></trkpt><trkpt lat="42.1377687" lon="13.2875215"><ele>852.2</ele><time>2026-05-02T15:46:15.284Z</time></trkpt><trkpt lat="42.1377429" lon="13.2873983"><ele>850.6</ele><time>2026-05-02T15:46:16.284Z</time></trkpt><trkpt lat="42.1377281" lon="13.2872618"><ele>849.0</ele><time>2026-05-02T15:46:17.289Z</time></trkpt><trkpt lat="42.1377244" lon="13.2871167"><ele>847.6666666666666</ele><time>2026-05-02T15:46:18.285Z</time></trkpt><trkpt lat="42.1377164" lon="13.286982"><ele>846.3333333333333</ele><time>2026-05-02T15:46:19.279Z</time></trkpt><trkpt lat="42.1377088" lon="13.2868673"><ele>845.0</ele><time>2026-05-02T15:46:20.285Z</time></trkpt><trkpt lat="42.1376967" lon="13.2867563"><ele>843.6666666666666</ele><time>2026-05-02T15:46:21.282Z</time></trkpt><trkpt lat="42.1376905" lon="13.2866634"><ele>842.3333333333333</ele><time>2026-05-02T15:46:22.286Z</time></trkpt><trkpt lat="42.13768" lon="13.2865409"><ele>841.0</ele><time>2026-05-02T15:46:23.289Z</time></trkpt><trkpt lat="42.1376699" lon="13.2864199"><ele>840.6666666666666</ele><time>2026-05-02T15:46:24.286Z</time></trkpt><trkpt lat="42.1376575" lon="13.2863197"><ele>840.3333333333333</ele><time>2026-05-02T15:46:25.286Z</time></trkpt><trkpt lat="42.1376435" lon="13.2862293"><ele>840.0</ele><time>2026-05-02T15:46:26.289Z</time></trkpt><trkpt lat="42.1376268" lon="13.286087"><ele>839.6666666666667</ele><time>2026-05-02T15:46:28.289Z</time></trkpt><trkpt lat="42.1376009" lon="13.2859811"><ele>839.3333333333334</ele><time>2026-05-02T15:46:30.302Z</time></trkpt><trkpt lat="42.1375937" lon="13.285888"><ele>839.0</ele><time>2026-05-02T15:46:33.287Z</time></trkpt><trkpt lat="42.1376592" lon="13.285932"><ele>839.0</ele><time>2026-05-02T15:46:37.297Z</time></trkpt><trkpt lat="42.1377219" lon="13.2860069"><ele>839.0</ele><time>2026-05-02T15:46:40.288Z</time></trkpt><trkpt lat="42.1377937" lon="13.2860427"><ele>839.0</ele><time>2026-05-02T15:46:42.297Z</time></trkpt><trkpt lat="42.1378939" lon="13.2860482"><ele>839.0</ele><time>2026-05-02T15:46:44.295Z</time></trkpt><trkpt lat="42.1380194" lon="13.2860379"><ele>839.0</ele><time>2026-05-02T15:46:46.296Z</time></trkpt><trkpt lat="42.1381244" lon="13.2860133"><ele>839.0000000000001</ele><time>2026-05-02T15:46:48.302Z</time></trkpt><trkpt lat="42.1381889" lon="13.285997"><ele>839.0</ele><time>2026-05-02T15:46:50.297Z</time></trkpt><trkpt lat="42.1382642" lon="13.2859682"><ele>839.0</ele><time>2026-05-02T15:46:52.295Z</time></trkpt><trkpt lat="42.138348" lon="13.2859427"><ele>839.0</ele><time>2026-05-02T15:46:54.295Z</time></trkpt><trkpt lat="42.138415" lon="13.2859066"><ele>839.0000000000001</ele><time>2026-05-02T15:47:05.289Z</time></trkpt><trkpt lat="42.1385076" lon="13.2858863"><ele>839.0</ele><time>2026-05-02T15:47:07.285Z</time></trkpt><trkpt lat="42.1385994" lon="13.2858723"><ele>839.1666666666667</ele><time>2026-05-02T15:47:08.271Z</time></trkpt><trkpt lat="42.1386821" lon="13.2858547"><ele>839.3333333333334</ele><time>2026-05-02T15:47:09.276Z</time></trkpt><trkpt lat="42.1387507" lon="13.2858382"><ele>839.5</ele><time>2026-05-02T15:47:10.272Z</time></trkpt><trkpt lat="42.1388184" lon="13.2858247"><ele>839.6666666666667</ele><time>2026-05-02T15:47:11.275Z</time></trkpt><trkpt lat="42.1389173" lon="13.2858412"><ele>839.8333333333334</ele><time>2026-05-02T15:47:13.28Z</time></trkpt><trkpt lat="42.1390255" lon="13.2858942"><ele>840.0</ele><time>2026-05-02T15:47:15.282Z</time></trkpt><trkpt lat="42.1390949" lon="13.2858946"><ele>839.4</ele><time>2026-05-02T15:47:16.284Z</time></trkpt><trkpt lat="42.139171" lon="13.2858939"><ele>838.8</ele><time>2026-05-02T15:47:17.281Z</time></trkpt><trkpt lat="42.1392621" lon="13.2858931"><ele>838.2</ele><time>2026-05-02T15:47:18.282Z</time></trkpt><trkpt lat="42.1393619" lon="13.2858977"><ele>837.6</ele><time>2026-05-02T15:47:19.281Z</time></trkpt><trkpt lat="42.1394642" lon="13.2859078"><ele>837.0</ele><time>2026-05-02T15:47:20.282Z</time></trkpt><trkpt lat="42.1395648" lon="13.2859223"><ele>837.0</ele><time>2026-05-02T15:47:21.28Z</time></trkpt><trkpt lat="42.1396624" lon="13.2859244"><ele>837.0</ele><time>2026-05-02T15:47:22.283Z</time></trkpt><trkpt lat="42.1397533" lon="13.285918"><ele>837.0</ele><time>2026-05-02T15:47:23.273Z</time></trkpt><trkpt lat="42.1398523" lon="13.2858993"><ele>837.0</ele><time>2026-05-02T15:47:24.275Z</time></trkpt><trkpt lat="42.1399612" lon="13.2858942"><ele>837.0</ele><time>2026-05-02T15:47:25.28Z</time></trkpt><trkpt lat="42.1400651" lon="13.2859043"><ele>835.0</ele><time>2026-05-02T15:47:26.271Z</time></trkpt><trkpt lat="42.1401725" lon="13.2859192"><ele>833.0</ele><time>2026-05-02T15:47:27.28Z</time></trkpt><trkpt lat="42.1402721" lon="13.2859301"><ele>831.0</ele><time>2026-05-02T15:47:28.275Z</time></trkpt><trkpt lat="42.1403624" lon="13.2859515"><ele>829.0</ele><time>2026-05-02T15:47:29.275Z</time></trkpt><trkpt lat="42.1404398" lon="13.2859789"><ele>827.0</ele><time>2026-05-02T15:47:30.29Z</time></trkpt><trkpt lat="42.1405123" lon="13.2859913"><ele>827.0000000000001</ele><time>2026-05-02T15:47:31.278Z</time></trkpt><trkpt lat="42.1405938" lon="13.2860004"><ele>827.0</ele><time>2026-05-02T15:47:32.272Z</time></trkpt><trkpt lat="42.1406732" lon="13.2860046"><ele>827.0</ele><time>2026-05-02T15:47:33.274Z</time></trkpt><trkpt lat="42.1407535" lon="13.2860159"><ele>827.0</ele><time>2026-05-02T15:47:34.284Z</time></trkpt><trkpt lat="42.140829" lon="13.2860071"><ele>827.0000000000001</ele><time>2026-05-02T15:47:35.283Z</time></trkpt><trkpt lat="42.1408949" lon="13.2859952"><ele>827.0</ele><time>2026-05-02T15:47:36.28Z</time></trkpt><trkpt lat="42.1409984" lon="13.2860076"><ele>825.6666666666667</ele><time>2026-05-02T15:47:38.278Z</time></trkpt><trkpt lat="42.1410877" lon="13.2860917"><ele>824.3333333333334</ele><time>2026-05-02T15:47:40.277Z</time></trkpt><trkpt lat="42.1411548" lon="13.2861223"><ele>823.0</ele><time>2026-05-02T15:47:41.276Z</time></trkpt><trkpt lat="42.1412391" lon="13.2861371"><ele>821.6666666666667</ele><time>2026-05-02T15:47:42.275Z</time></trkpt><trkpt lat="42.1413157" lon="13.2861238"><ele>820.3333333333334</ele><time>2026-05-02T15:47:43.28Z</time></trkpt><trkpt lat="42.1413901" lon="13.2860743"><ele>819.0</ele><time>2026-05-02T15:47:44.279Z</time></trkpt><trkpt lat="42.1414727" lon="13.2860289"><ele>815.0</ele><time>2026-05-02T15:47:45.303Z</time></trkpt><trkpt lat="42.141563" lon="13.2859927"><ele>811.0</ele><time>2026-05-02T15:47:46.295Z</time></trkpt><trkpt lat="42.1416617" lon="13.2859693"><ele>807.0</ele><time>2026-05-02T15:47:47.294Z</time></trkpt><trkpt lat="42.1417688" lon="13.2859639"><ele>803.0</ele><time>2026-05-02T15:47:48.358Z</time></trkpt><trkpt lat="42.141878" lon="13.2859558"><ele>799.0</ele><time>2026-05-02T15:47:49.371Z</time></trkpt><trkpt lat="42.1419729" lon="13.2859539"><ele>799.0</ele><time>2026-05-02T15:47:50.376Z</time></trkpt><trkpt lat="42.1420609" lon="13.2859548"><ele>799.0</ele><time>2026-05-02T15:47:51.374Z</time></trkpt><trkpt lat="42.1421461" lon="13.2859611"><ele>799.0</ele><time>2026-05-02T15:47:52.377Z</time></trkpt><trkpt lat="42.1422142" lon="13.2859702"><ele>799.0</ele><time>2026-05-02T15:47:53.372Z</time></trkpt><trkpt lat="42.1423256" lon="13.2859475"><ele>799.0</ele><time>2026-05-02T15:47:55.364Z</time></trkpt><trkpt lat="42.1424205" lon="13.2859301"><ele>795.0</ele><time>2026-05-02T15:47:57.354Z</time></trkpt><trkpt lat="42.1425148" lon="13.2859694"><ele>791.0</ele><time>2026-05-02T15:47:59.349Z</time></trkpt><trkpt lat="42.14255" lon="13.2860544"><ele>787.0</ele><time>2026-05-02T15:48:01.363Z</time></trkpt><trkpt lat="42.1425816" lon="13.2861705"><ele>783.0</ele><time>2026-05-02T15:48:03.358Z</time></trkpt><trkpt lat="42.1426465" lon="13.2862635"><ele>779.0</ele><time>2026-05-02T15:48:05.382Z</time></trkpt><trkpt lat="42.1427381" lon="13.2863369"><ele>779.0000000000001</ele><time>2026-05-02T15:48:07.367Z</time></trkpt><trkpt lat="42.142816" lon="13.2863778"><ele>779.0</ele><time>2026-05-02T15:48:08.277Z</time></trkpt><trkpt lat="42.1428813" lon="13.2864"><ele>779.0</ele><time>2026-05-02T15:48:09.273Z</time></trkpt><trkpt lat="42.1429482" lon="13.2864674"><ele>779.0</ele><time>2026-05-02T15:48:10.271Z</time></trkpt><trkpt lat="42.143029" lon="13.2865323"><ele>779.0000000000001</ele><time>2026-05-02T15:48:11.289Z</time></trkpt><trkpt lat="42.1430954" lon="13.2866134"><ele>779.0</ele><time>2026-05-02T15:48:12.274Z</time></trkpt><trkpt lat="42.1431526" lon="13.2867232"><ele>779.6</ele><time>2026-05-02T15:48:13.279Z</time></trkpt><trkpt lat="42.1432022" lon="13.286838"><ele>780.2</ele><time>2026-05-02T15:48:14.279Z</time></trkpt><trkpt lat="42.1432449" lon="13.2869542"><ele>780.8000000000001</ele><time>2026-05-02T15:48:15.282Z</time></trkpt><trkpt lat="42.143276" lon="13.2870849"><ele>781.4000000000001</ele><time>2026-05-02T15:48:16.288Z</time></trkpt><trkpt lat="42.1433092" lon="13.2872135"><ele>782.0</ele><time>2026-05-02T15:48:17.286Z</time></trkpt><trkpt lat="42.1433381" lon="13.2873382"><ele>782.0</ele><time>2026-05-02T15:48:18.273Z</time></trkpt><trkpt lat="42.1433381" lon="13.2874666"><ele>782.0</ele><time>2026-05-02T15:48:19.275Z</time></trkpt><trkpt lat="42.1433444" lon="13.2875943"><ele>782.0</ele><time>2026-05-02T15:48:20.269Z</time></trkpt><trkpt lat="42.1433482" lon="13.2876945"><ele>782.0</ele><time>2026-05-02T15:48:21.269Z</time></trkpt><trkpt lat="42.1433818" lon="13.2878224"><ele>782.0</ele><time>2026-05-02T15:48:23.259Z</time></trkpt><trkpt lat="42.1434843" lon="13.2878443"><ele>782.0</ele><time>2026-05-02T15:48:25.278Z</time></trkpt><trkpt lat="42.1435776" lon="13.2878802"><ele>782.0</ele><time>2026-05-02T15:48:27.274Z</time></trkpt><trkpt lat="42.1436435" lon="13.2879066"><ele>782.0</ele><time>2026-05-02T15:48:28.265Z</time></trkpt><trkpt lat="42.1437567" lon="13.2878745"><ele>782.0</ele><time>2026-05-02T15:48:30.281Z</time></trkpt><trkpt lat="42.1438276" lon="13.2877986"><ele>782.0</ele><time>2026-05-02T15:48:31.272Z</time></trkpt><trkpt lat="42.1438812" lon="13.2876982"><ele>782.0000000000001</ele><time>2026-05-02T15:48:32.284Z</time></trkpt><trkpt lat="42.1439382" lon="13.2875995"><ele>782.0</ele><time>2026-05-02T15:48:33.288Z</time></trkpt><trkpt lat="42.1439935" lon="13.2875266"><ele>782.0</ele><time>2026-05-02T15:48:34.287Z</time></trkpt><trkpt lat="42.1440636" lon="13.2874603"><ele>782.0</ele><time>2026-05-02T15:48:35.291Z</time></trkpt><trkpt lat="42.1441317" lon="13.2874077"><ele>782.0000000000001</ele><time>2026-05-02T15:48:36.29Z</time></trkpt><trkpt lat="42.1442407" lon="13.2873625"><ele>782.0</ele><time>2026-05-02T15:48:38.284Z</time></trkpt><trkpt lat="42.1443191" lon="13.2873671"><ele>783.0000000000001</ele><time>2026-05-02T15:48:39.294Z</time></trkpt><trkpt lat="42.1443973" lon="13.287374"><ele>784.0</ele><time>2026-05-02T15:48:40.287Z</time></trkpt><trkpt lat="42.144475" lon="13.2873706"><ele>785.0</ele><time>2026-05-02T15:48:41.29Z</time></trkpt><trkpt lat="42.1445571" lon="13.2873643"><ele>786.0</ele><time>2026-05-02T15:48:42.287Z</time></trkpt><trkpt lat="42.1446475" lon="13.2873602"><ele>787.0000000000001</ele><time>2026-05-02T15:48:43.294Z</time></trkpt><trkpt lat="42.1447387" lon="13.287358"><ele>788.0</ele><time>2026-05-02T15:48:44.289Z</time></trkpt><trkpt lat="42.1448246" lon="13.2873611"><ele>789.5999999999999</ele><time>2026-05-02T15:48:45.292Z</time></trkpt><trkpt lat="42.1449263" lon="13.287416"><ele>791.1999999999999</ele><time>2026-05-02T15:48:47.282Z</time></trkpt><trkpt lat="42.1450082" lon="13.2875076"><ele>792.8</ele><time>2026-05-02T15:48:49.288Z</time></trkpt><trkpt lat="42.1450615" lon="13.2876001"><ele>794.4</ele><time>2026-05-02T15:48:51.302Z</time></trkpt><trkpt lat="42.1450896" lon="13.2877023"><ele>796.0</ele><time>2026-05-02T15:48:53.301Z</time></trkpt><trkpt lat="42.1450676" lon="13.28787"><ele>796.0</ele><time>2026-05-02T15:48:55.292Z</time></trkpt><trkpt lat="42.1450514" lon="13.2879847"><ele>796.0</ele><time>2026-05-02T15:48:56.285Z</time></trkpt><trkpt lat="42.1450334" lon="13.2881151"><ele>796.0</ele><time>2026-05-02T15:48:57.294Z</time></trkpt><trkpt lat="42.1450118" lon="13.2882574"><ele>796.0</ele><time>2026-05-02T15:48:58.29Z</time></trkpt><trkpt lat="42.144991" lon="13.2883998"><ele>796.0</ele><time>2026-05-02T15:48:59.278Z</time></trkpt><trkpt lat="42.1449726" lon="13.2885476"><ele>796.1999999999999</ele><time>2026-05-02T15:49:00.287Z</time></trkpt><trkpt lat="42.1449654" lon="13.2886808"><ele>796.4</ele><time>2026-05-02T15:49:01.29Z</time></trkpt><trkpt lat="42.1449658" lon="13.2888053"><ele>796.6</ele><time>2026-05-02T15:49:02.282Z</time></trkpt><trkpt lat="42.1449602" lon="13.2889323"><ele>796.8</ele><time>2026-05-02T15:49:03.275Z</time></trkpt><trkpt lat="42.1449579" lon="13.289065"><ele>797.0</ele><time>2026-05-02T15:49:04.28Z</time></trkpt><trkpt lat="42.1449685" lon="13.2891964"><ele>797.1666666666667</ele><time>2026-05-02T15:49:05.279Z</time></trkpt><trkpt lat="42.144976" lon="13.2893155"><ele>797.3333333333334</ele><time>2026-05-02T15:49:06.274Z</time></trkpt><trkpt lat="42.1449805" lon="13.2894433"><ele>797.5</ele><time>2026-05-02T15:49:07.264Z</time></trkpt><trkpt lat="42.1449799" lon="13.2895496"><ele>797.6666666666667</ele><time>2026-05-02T15:49:08.274Z</time></trkpt><trkpt lat="42.1449917" lon="13.2896512"><ele>797.8333333333334</ele><time>2026-05-02T15:49:09.272Z</time></trkpt><trkpt lat="42.1450202" lon="13.2897602"><ele>798.0</ele><time>2026-05-02T15:49:10.278Z</time></trkpt><trkpt lat="42.1450629" lon="13.2898675"><ele>798.0</ele><time>2026-05-02T15:49:11.271Z</time></trkpt><trkpt lat="42.1451212" lon="13.2899756"><ele>798.0</ele><time>2026-05-02T15:49:12.282Z</time></trkpt><trkpt lat="42.1451845" lon="13.2900871"><ele>798.0</ele><time>2026-05-02T15:49:13.281Z</time></trkpt><trkpt lat="42.145256" lon="13.2902125"><ele>798.0</ele><time>2026-05-02T15:49:14.287Z</time></trkpt><trkpt lat="42.1453286" lon="13.2903407"><ele>798.0</ele><time>2026-05-02T15:49:15.281Z</time></trkpt><trkpt lat="42.1454021" lon="13.2904426"><ele>798.0</ele><time>2026-05-02T15:49:16.286Z</time></trkpt><trkpt lat="42.1454801" lon="13.2905483"><ele>798.0</ele><time>2026-05-02T15:49:17.293Z</time></trkpt><trkpt lat="42.1455481" lon="13.290633"><ele>798.0</ele><time>2026-05-02T15:49:18.289Z</time></trkpt><trkpt lat="42.1456126" lon="13.2907211"><ele>798.0</ele><time>2026-05-02T15:49:19.285Z</time></trkpt><trkpt lat="42.1456796" lon="13.290792"><ele>798.0</ele><time>2026-05-02T15:49:20.281Z</time></trkpt><trkpt lat="42.1457642" lon="13.2908627"><ele>796.3333333333334</ele><time>2026-05-02T15:49:21.278Z</time></trkpt><trkpt lat="42.1458596" lon="13.2909415"><ele>794.6666666666667</ele><time>2026-05-02T15:49:22.286Z</time></trkpt><trkpt lat="42.1459309" lon="13.2909979"><ele>793.0</ele><time>2026-05-02T15:49:23.282Z</time></trkpt><trkpt lat="42.1459892" lon="13.2910608"><ele>791.3333333333334</ele><time>2026-05-02T15:49:24.282Z</time></trkpt><trkpt lat="42.1460378" lon="13.2911226"><ele>789.6666666666667</ele><time>2026-05-02T15:49:25.276Z</time></trkpt><trkpt lat="42.1460888" lon="13.2911873"><ele>788.0</ele><time>2026-05-02T15:49:27.288Z</time></trkpt><trkpt lat="42.1461394" lon="13.2912485"><ele>788.0000000000001</ele><time>2026-05-02T15:49:31.3Z</time></trkpt><trkpt lat="42.1461968" lon="13.2913212"><ele>788.0</ele><time>2026-05-02T15:49:34.302Z</time></trkpt><trkpt lat="42.1462632" lon="13.2914328"><ele>788.0</ele><time>2026-05-02T15:49:36.305Z</time></trkpt><trkpt lat="42.146322" lon="13.2914941"><ele>788.0</ele><time>2026-05-02T15:49:38.303Z</time></trkpt><trkpt lat="42.14637" lon="13.2915588"><ele>788.0000000000001</ele><time>2026-05-02T15:49:41.301Z</time></trkpt><trkpt lat="42.1464306" lon="13.2916385"><ele>788.0</ele><time>2026-05-02T15:49:44.295Z</time></trkpt><trkpt lat="42.1465075" lon="13.2917315"><ele>786.6666666666667</ele><time>2026-05-02T15:49:46.3Z</time></trkpt><trkpt lat="42.1465739" lon="13.291817"><ele>785.3333333333334</ele><time>2026-05-02T15:49:48.292Z</time></trkpt><trkpt lat="42.1466425" lon="13.2918761"><ele>784.0</ele><time>2026-05-02T15:49:50.302Z</time></trkpt><trkpt lat="42.1467289" lon="13.2918968"><ele>782.6666666666667</ele><time>2026-05-02T15:49:52.288Z</time></trkpt><trkpt lat="42.1467856" lon="13.2918508"><ele>781.3333333333334</ele><time>2026-05-02T15:49:53.286Z</time></trkpt><trkpt lat="42.1468456" lon="13.2917928"><ele>780.0</ele><time>2026-05-02T15:49:54.308Z</time></trkpt><trkpt lat="42.1468972" lon="13.2917259"><ele>780.0</ele><time>2026-05-02T15:49:55.298Z</time></trkpt><trkpt lat="42.1469556" lon="13.2916609"><ele>780.0</ele><time>2026-05-02T15:49:56.292Z</time></trkpt><trkpt lat="42.1470075" lon="13.2916071"><ele>780.0</ele><time>2026-05-02T15:49:57.301Z</time></trkpt><trkpt lat="42.1471134" lon="13.2915393"><ele>780.0</ele><time>2026-05-02T15:49:59.295Z</time></trkpt><trkpt lat="42.1472146" lon="13.291513"><ele>780.0</ele><time>2026-05-02T15:50:01.294Z</time></trkpt><trkpt lat="42.1472972" lon="13.2915"><ele>780.0</ele><time>2026-05-02T15:50:03.301Z</time></trkpt><trkpt lat="42.1474061" lon="13.2915358"><ele>777.1666666666666</ele><time>2026-05-02T15:50:06.306Z</time></trkpt><trkpt lat="42.1474942" lon="13.2916277"><ele>774.3333333333334</ele><time>2026-05-02T15:50:08.292Z</time></trkpt><trkpt lat="42.1475676" lon="13.2916045"><ele>771.5</ele><time>2026-05-02T15:50:10.296Z</time></trkpt><trkpt lat="42.1475733" lon="13.2915085"><ele>768.6666666666667</ele><time>2026-05-02T15:50:12.29Z</time></trkpt><trkpt lat="42.1475493" lon="13.2914297"><ele>765.8333333333334</ele><time>2026-05-02T15:50:13.287Z</time></trkpt><trkpt lat="42.1475105" lon="13.2913436"><ele>763.0</ele><time>2026-05-02T15:50:14.281Z</time></trkpt><trkpt lat="42.1474701" lon="13.2912613"><ele>760.5999999999999</ele><time>2026-05-02T15:50:15.278Z</time></trkpt><trkpt lat="42.1474281" lon="13.291182"><ele>758.1999999999999</ele><time>2026-05-02T15:50:16.288Z</time></trkpt><trkpt lat="42.1473834" lon="13.2910932"><ele>755.8</ele><time>2026-05-02T15:50:18.288Z</time></trkpt><trkpt lat="42.1474299" lon="13.2909469"><ele>753.4</ele><time>2026-05-02T15:50:21.309Z</time></trkpt><trkpt lat="42.1474821" lon="13.2908577"><ele>751.0</ele><time>2026-05-02T15:50:22.283Z</time></trkpt><trkpt lat="42.1475509" lon="13.2907614"><ele>751.0</ele><time>2026-05-02T15:50:23.279Z</time></trkpt><trkpt lat="42.1476179" lon="13.2906675"><ele>751.0</ele><time>2026-05-02T15:50:24.283Z</time></trkpt><trkpt lat="42.1476789" lon="13.2905743"><ele>751.0</ele><time>2026-05-02T15:50:25.285Z</time></trkpt><trkpt lat="42.1477297" lon="13.2904886"><ele>751.0</ele><time>2026-05-02T15:50:26.281Z</time></trkpt><trkpt lat="42.1477806" lon="13.2904124"><ele>751.0</ele><time>2026-05-02T15:50:27.278Z</time></trkpt><trkpt lat="42.1478477" lon="13.2903481"><ele>751.0</ele><time>2026-05-02T15:50:28.28Z</time></trkpt><trkpt lat="42.1479422" lon="13.2902845"><ele>751.5</ele><time>2026-05-02T15:50:29.28Z</time></trkpt><trkpt lat="42.1480641" lon="13.2902115"><ele>752.0</ele><time>2026-05-02T15:50:30.283Z</time></trkpt><trkpt lat="42.1481841" lon="13.2901349"><ele>752.5</ele><time>2026-05-02T15:50:31.288Z</time></trkpt><trkpt lat="42.14831" lon="13.2900573"><ele>753.0</ele><time>2026-05-02T15:50:32.29Z</time></trkpt><trkpt lat="42.1484337" lon="13.2899801"><ele>749.5</ele><time>2026-05-02T15:50:33.287Z</time></trkpt><trkpt lat="42.1485522" lon="13.2898871"><ele>746.0</ele><time>2026-05-02T15:50:34.292Z</time></trkpt><trkpt lat="42.14866" lon="13.2897803"><ele>742.5</ele><time>2026-05-02T15:50:35.287Z</time></trkpt><trkpt lat="42.1487911" lon="13.289686"><ele>739.0</ele><time>2026-05-02T15:50:36.286Z</time></trkpt><trkpt lat="42.1489115" lon="13.289584"><ele>739.25</ele><time>2026-05-02T15:50:37.286Z</time></trkpt><trkpt lat="42.1490197" lon="13.2894907"><ele>739.5</ele><time>2026-05-02T15:50:38.286Z</time></trkpt><trkpt lat="42.1490931" lon="13.2893769"><ele>739.75</ele><time>2026-05-02T15:50:39.292Z</time></trkpt><trkpt lat="42.1491782" lon="13.2892425"><ele>740.0</ele><time>2026-05-02T15:50:40.289Z</time></trkpt><trkpt lat="42.14926" lon="13.2890964"><ele>740.0</ele><time>2026-05-02T15:50:41.284Z</time></trkpt><trkpt lat="42.1493311" lon="13.2889814"><ele>740.0</ele><time>2026-05-02T15:50:42.29Z</time></trkpt><trkpt lat="42.1494123" lon="13.2888861"><ele>740.0</ele><time>2026-05-02T15:50:43.29Z</time></trkpt><trkpt lat="42.1494839" lon="13.2888007"><ele>740.0</ele><time>2026-05-02T15:50:44.285Z</time></trkpt><trkpt lat="42.1495669" lon="13.2887258"><ele>740.0</ele><time>2026-05-02T15:50:45.284Z</time></trkpt><trkpt lat="42.1496599" lon="13.2886341"><ele>740.75</ele><time>2026-05-02T15:50:46.284Z</time></trkpt><trkpt lat="42.1497502" lon="13.2885369"><ele>741.5</ele><time>2026-05-02T15:50:47.294Z</time></trkpt><trkpt lat="42.1498575" lon="13.2884162"><ele>742.25</ele><time>2026-05-02T15:50:48.282Z</time></trkpt><trkpt lat="42.1499528" lon="13.2882891"><ele>743.0</ele><time>2026-05-02T15:50:49.283Z</time></trkpt><trkpt lat="42.1500453" lon="13.2881426"><ele>740.5</ele><time>2026-05-02T15:50:50.285Z</time></trkpt><trkpt lat="42.1501217" lon="13.2879769"><ele>738.0</ele><time>2026-05-02T15:50:51.289Z</time></trkpt><trkpt lat="42.1501917" lon="13.2878548"><ele>735.5</ele><time>2026-05-02T15:50:52.287Z</time></trkpt><trkpt lat="42.1502509" lon="13.2877724"><ele>733.0</ele><time>2026-05-02T15:50:53.276Z</time></trkpt><trkpt lat="42.1503222" lon="13.2876207"><ele>733.0</ele><time>2026-05-02T15:50:55.287Z</time></trkpt><trkpt lat="42.1503751" lon="13.287505"><ele>733.0</ele><time>2026-05-02T15:50:56.289Z</time></trkpt><trkpt lat="42.1504265" lon="13.2874164"><ele>733.0</ele><time>2026-05-02T15:50:57.29Z</time></trkpt><trkpt lat="42.1504724" lon="13.2873246"><ele>733.0</ele><time>2026-05-02T15:50:58.294Z</time></trkpt><trkpt lat="42.1505256" lon="13.2872272"><ele>733.0</ele><time>2026-05-02T15:50:59.294Z</time></trkpt><trkpt lat="42.1505813" lon="13.2871307"><ele>733.0</ele><time>2026-05-02T15:51:00.295Z</time></trkpt><trkpt lat="42.1506374" lon="13.2870372"><ele>732.8</ele><time>2026-05-02T15:51:01.287Z</time></trkpt><trkpt lat="42.150703" lon="13.2869653"><ele>732.5999999999999</ele><time>2026-05-02T15:51:02.284Z</time></trkpt><trkpt lat="42.1507831" lon="13.2868837"><ele>732.4000000000001</ele><time>2026-05-02T15:51:04.279Z</time></trkpt><trkpt lat="42.1508755" lon="13.2868339"><ele>732.2</ele><time>2026-05-02T15:51:07.297Z</time></trkpt><trkpt lat="42.1509549" lon="13.2867423"><ele>732.0</ele><time>2026-05-02T15:51:09.285Z</time></trkpt><trkpt lat="42.151009" lon="13.2866856"><ele>731.6</ele><time>2026-05-02T15:51:12.304Z</time></trkpt><trkpt lat="42.151071" lon="13.2866095"><ele>731.2</ele><time>2026-05-02T15:51:24.29Z</time></trkpt><trkpt lat="42.1511241" lon="13.2865416"><ele>730.8</ele><time>2026-05-02T15:51:25.279Z</time></trkpt><trkpt lat="42.1511884" lon="13.2864498"><ele>730.4</ele><time>2026-05-02T15:51:26.293Z</time></trkpt><trkpt lat="42.1512629" lon="13.2863295"><ele>730.0</ele><time>2026-05-02T15:51:27.29Z</time></trkpt><trkpt lat="42.151335" lon="13.2861941"><ele>729.6</ele><time>2026-05-02T15:51:28.295Z</time></trkpt><trkpt lat="42.1514125" lon="13.2860703"><ele>729.2</ele><time>2026-05-02T15:51:29.291Z</time></trkpt><trkpt lat="42.1514806" lon="13.2859657"><ele>728.8</ele><time>2026-05-02T15:51:30.3Z</time></trkpt><trkpt lat="42.1515505" lon="13.2858664"><ele>728.4</ele><time>2026-05-02T15:51:31.286Z</time></trkpt><trkpt lat="42.1516267" lon="13.2857807"><ele>728.0</ele><time>2026-05-02T15:51:32.294Z</time></trkpt><trkpt lat="42.1517171" lon="13.2857059"><ele>727.5</ele><time>2026-05-02T15:51:33.288Z</time></trkpt><trkpt lat="42.1517964" lon="13.2856301"><ele>727.0</ele><time>2026-05-02T15:51:34.289Z</time></trkpt><trkpt lat="42.1518787" lon="13.2855327"><ele>726.5</ele><time>2026-05-02T15:51:35.287Z</time></trkpt><trkpt lat="42.1519746" lon="13.2854302"><ele>726.0</ele><time>2026-05-02T15:51:36.293Z</time></trkpt><trkpt lat="42.1520708" lon="13.2853265"><ele>726.0</ele><time>2026-05-02T15:51:37.29Z</time></trkpt><trkpt lat="42.1521737" lon="13.285215"><ele>726.0</ele><time>2026-05-02T15:51:38.29Z</time></trkpt><trkpt lat="42.1522717" lon="13.2851013"><ele>726.0</ele><time>2026-05-02T15:51:39.282Z</time></trkpt><trkpt lat="42.1523759" lon="13.284988"><ele>726.0</ele><time>2026-05-02T15:51:40.293Z</time></trkpt><trkpt lat="42.1524922" lon="13.284875"><ele>726.0</ele><time>2026-05-02T15:51:41.293Z</time></trkpt><trkpt lat="42.1526107" lon="13.2847677"><ele>726.0</ele><time>2026-05-02T15:51:42.293Z</time></trkpt><trkpt lat="42.1527128" lon="13.284651"><ele>726.0</ele><time>2026-05-02T15:51:43.29Z</time></trkpt><trkpt lat="42.1527967" lon="13.2845378"><ele>726.0</ele><time>2026-05-02T15:51:44.29Z</time></trkpt><trkpt lat="42.1528853" lon="13.284413"><ele>726.25</ele><time>2026-05-02T15:51:45.292Z</time></trkpt><trkpt lat="42.1529898" lon="13.2842792"><ele>726.5</ele><time>2026-05-02T15:51:46.292Z</time></trkpt><trkpt lat="42.153082" lon="13.2841263"><ele>726.75</ele><time>2026-05-02T15:51:47.292Z</time></trkpt><trkpt lat="42.1531815" lon="13.2839761"><ele>727.0</ele><time>2026-05-02T15:51:48.293Z</time></trkpt><trkpt lat="42.1532776" lon="13.2838196"><ele>727.0</ele><time>2026-05-02T15:51:49.293Z</time></trkpt><trkpt lat="42.1533679" lon="13.2836817"><ele>727.0</ele><time>2026-05-02T15:51:50.294Z</time></trkpt><trkpt lat="42.1534606" lon="13.2835347"><ele>727.0</ele><time>2026-05-02T15:51:51.293Z</time></trkpt><trkpt lat="42.1535383" lon="13.2833804"><ele>727.0</ele><time>2026-05-02T15:51:52.299Z</time></trkpt><trkpt lat="42.1536216" lon="13.283236"><ele>727.0</ele><time>2026-05-02T15:51:53.288Z</time></trkpt><trkpt lat="42.1537192" lon="13.2830869"><ele>727.0</ele><time>2026-05-02T15:51:54.292Z</time></trkpt><trkpt lat="42.1538202" lon="13.2829458"><ele>727.0</ele><time>2026-05-02T15:51:55.291Z</time></trkpt><trkpt lat="42.1539216" lon="13.2827996"><ele>727.0</ele><time>2026-05-02T15:51:56.291Z</time></trkpt><trkpt lat="42.1540336" lon="13.2826504"><ele>727.3333333333334</ele><time>2026-05-02T15:51:57.316Z</time></trkpt><trkpt lat="42.1541497" lon="13.2825009"><ele>727.6666666666666</ele><time>2026-05-02T15:51:58.378Z</time></trkpt><trkpt lat="42.1542619" lon="13.2823568"><ele>728.0</ele><time>2026-05-02T15:51:59.382Z</time></trkpt><trkpt lat="42.154367" lon="13.2822236"><ele>728.25</ele><time>2026-05-02T15:52:00.386Z</time></trkpt><trkpt lat="42.1544745" lon="13.2820986"><ele>728.5</ele><time>2026-05-02T15:52:01.38Z</time></trkpt><trkpt lat="42.1545928" lon="13.282007"><ele>728.75</ele><time>2026-05-02T15:52:02.372Z</time></trkpt><trkpt lat="42.1547232" lon="13.2818938"><ele>729.0</ele><time>2026-05-02T15:52:03.375Z</time></trkpt><trkpt lat="42.1548552" lon="13.2817816"><ele>730.0</ele><time>2026-05-02T15:52:04.361Z</time></trkpt><trkpt lat="42.1549936" lon="13.2816719"><ele>731.0</ele><time>2026-05-02T15:52:05.359Z</time></trkpt><trkpt lat="42.1551423" lon="13.2815837"><ele>732.0</ele><time>2026-05-02T15:52:06.361Z</time></trkpt><trkpt lat="42.1552714" lon="13.2814528"><ele>731.3333333333334</ele><time>2026-05-02T15:52:07.359Z</time></trkpt><trkpt lat="42.1554094" lon="13.2813488"><ele>730.6666666666667</ele><time>2026-05-02T15:52:08.378Z</time></trkpt><trkpt lat="42.1555365" lon="13.281223"><ele>730.0</ele><time>2026-05-02T15:52:09.38Z</time></trkpt><trkpt lat="42.155661" lon="13.2810917"><ele>731.3333333333334</ele><time>2026-05-02T15:52:10.363Z</time></trkpt><trkpt lat="42.1557831" lon="13.2809669"><ele>732.6666666666666</ele><time>2026-05-02T15:52:11.361Z</time></trkpt><trkpt lat="42.1559088" lon="13.2808485"><ele>734.0</ele><time>2026-05-02T15:52:12.366Z</time></trkpt><trkpt lat="42.1560413" lon="13.2807346"><ele>734.0</ele><time>2026-05-02T15:52:13.364Z</time></trkpt><trkpt lat="42.1561784" lon="13.2806351"><ele>734.0</ele><time>2026-05-02T15:52:14.38Z</time></trkpt><trkpt lat="42.156316" lon="13.2805303"><ele>734.0</ele><time>2026-05-02T15:52:15.379Z</time></trkpt><trkpt lat="42.1564507" lon="13.2804185"><ele>735.0</ele><time>2026-05-02T15:52:16.383Z</time></trkpt><trkpt lat="42.1565768" lon="13.2803013"><ele>736.0</ele><time>2026-05-02T15:52:17.38Z</time></trkpt><trkpt lat="42.1566943" lon="13.2801937"><ele>737.0</ele><time>2026-05-02T15:52:18.374Z</time></trkpt><trkpt lat="42.156819" lon="13.2801005"><ele>738.0</ele><time>2026-05-02T15:52:19.377Z</time></trkpt><trkpt lat="42.1569487" lon="13.2800013"><ele>738.0</ele><time>2026-05-02T15:52:20.375Z</time></trkpt><trkpt lat="42.1570923" lon="13.2799222"><ele>738.0</ele><time>2026-05-02T15:52:21.377Z</time></trkpt><trkpt lat="42.1572343" lon="13.2798469"><ele>738.0</ele><time>2026-05-02T15:52:22.377Z</time></trkpt><trkpt lat="42.1573857" lon="13.2797794"><ele>738.3333333333334</ele><time>2026-05-02T15:52:23.378Z</time></trkpt><trkpt lat="42.1575417" lon="13.2797139"><ele>738.6666666666667</ele><time>2026-05-02T15:52:24.377Z</time></trkpt><trkpt lat="42.1576953" lon="13.2796573"><ele>739.0</ele><time>2026-05-02T15:52:25.377Z</time></trkpt><trkpt lat="42.1578542" lon="13.2796044"><ele>739.0</ele><time>2026-05-02T15:52:26.379Z</time></trkpt><trkpt lat="42.1580136" lon="13.2795596"><ele>739.0</ele><time>2026-05-02T15:52:27.38Z</time></trkpt><trkpt lat="42.1581728" lon="13.2795298"><ele>739.0</ele><time>2026-05-02T15:52:28.38Z</time></trkpt><trkpt lat="42.158324" lon="13.2795058"><ele>740.3333333333334</ele><time>2026-05-02T15:52:29.376Z</time></trkpt><trkpt lat="42.1584747" lon="13.2794899"><ele>741.6666666666666</ele><time>2026-05-02T15:52:30.386Z</time></trkpt><trkpt lat="42.1586264" lon="13.2794753"><ele>743.0</ele><time>2026-05-02T15:52:31.375Z</time></trkpt><trkpt lat="42.1587761" lon="13.279453"><ele>743.0</ele><time>2026-05-02T15:52:32.375Z</time></trkpt><trkpt lat="42.1589297" lon="13.2794288"><ele>743.0</ele><time>2026-05-02T15:52:33.377Z</time></trkpt><trkpt lat="42.1590864" lon="13.2793989"><ele>743.0</ele><time>2026-05-02T15:52:34.37Z</time></trkpt><trkpt lat="42.1592505" lon="13.2793551"><ele>744.6666666666666</ele><time>2026-05-02T15:52:35.373Z</time></trkpt><trkpt lat="42.1594202" lon="13.2793093"><ele>746.3333333333334</ele><time>2026-05-02T15:52:36.381Z</time></trkpt><trkpt lat="42.1595878" lon="13.279268"><ele>748.0</ele><time>2026-05-02T15:52:37.37Z</time></trkpt><trkpt lat="42.1597574" lon="13.2792284"><ele>749.0</ele><time>2026-05-02T15:52:38.371Z</time></trkpt><trkpt lat="42.1599259" lon="13.2791917"><ele>750.0</ele><time>2026-05-02T15:52:39.375Z</time></trkpt><trkpt lat="42.1600883" lon="13.2791499"><ele>751.0</ele><time>2026-05-02T15:52:40.372Z</time></trkpt><trkpt lat="42.1602522" lon="13.279105"><ele>751.0</ele><time>2026-05-02T15:52:41.376Z</time></trkpt><trkpt lat="42.1604112" lon="13.2790578"><ele>751.0</ele><time>2026-05-02T15:52:42.371Z</time></trkpt><trkpt lat="42.1605681" lon="13.2790081"><ele>751.0</ele><time>2026-05-02T15:52:43.374Z</time></trkpt><trkpt lat="42.1607272" lon="13.2789561"><ele>752.0</ele><time>2026-05-02T15:52:44.373Z</time></trkpt><trkpt lat="42.1608871" lon="13.2788988"><ele>753.0</ele><time>2026-05-02T15:52:45.375Z</time></trkpt><trkpt lat="42.1610459" lon="13.2788494"><ele>754.0</ele><time>2026-05-02T15:52:46.377Z</time></trkpt><trkpt lat="42.1612039" lon="13.2788024"><ele>754.0</ele><time>2026-05-02T15:52:47.38Z</time></trkpt><trkpt lat="42.1613637" lon="13.2787584"><ele>754.0</ele><time>2026-05-02T15:52:48.377Z</time></trkpt><trkpt lat="42.1615218" lon="13.2787125"><ele>754.0</ele><time>2026-05-02T15:52:49.367Z</time></trkpt><trkpt lat="42.1616822" lon="13.2786642"><ele>755.0</ele><time>2026-05-02T15:52:50.375Z</time></trkpt><trkpt lat="42.1618425" lon="13.2786115"><ele>756.0</ele><time>2026-05-02T15:52:51.377Z</time></trkpt><trkpt lat="42.1620018" lon="13.2785581"><ele>757.0</ele><time>2026-05-02T15:52:52.371Z</time></trkpt><trkpt lat="42.1621583" lon="13.2784978"><ele>757.0</ele><time>2026-05-02T15:52:53.375Z</time></trkpt><trkpt lat="42.1623151" lon="13.2784381"><ele>757.0</ele><time>2026-05-02T15:52:54.377Z</time></trkpt><trkpt lat="42.1624701" lon="13.2783774"><ele>757.0</ele><time>2026-05-02T15:52:55.379Z</time></trkpt><trkpt lat="42.162625" lon="13.2783201"><ele>758.3333333333334</ele><time>2026-05-02T15:52:56.378Z</time></trkpt><trkpt lat="42.1627804" lon="13.2782706"><ele>759.6666666666666</ele><time>2026-05-02T15:52:57.375Z</time></trkpt><trkpt lat="42.1629349" lon="13.2782273"><ele>761.0</ele><time>2026-05-02T15:52:58.374Z</time></trkpt><trkpt lat="42.1630783" lon="13.2781879"><ele>762.0</ele><time>2026-05-02T15:52:59.377Z</time></trkpt><trkpt lat="42.1632219" lon="13.2781442"><ele>763.0</ele><time>2026-05-02T15:53:00.398Z</time></trkpt><trkpt lat="42.1633666" lon="13.2780903"><ele>764.0</ele><time>2026-05-02T15:53:01.383Z</time></trkpt><trkpt lat="42.1635085" lon="13.2780263"><ele>765.0</ele><time>2026-05-02T15:53:02.382Z</time></trkpt><trkpt lat="42.1636478" lon="13.2779454"><ele>765.0</ele><time>2026-05-02T15:53:03.393Z</time></trkpt><trkpt lat="42.1637743" lon="13.2778569"><ele>765.0</ele><time>2026-05-02T15:53:04.39Z</time></trkpt><trkpt lat="42.1638832" lon="13.2777647"><ele>765.0</ele><time>2026-05-02T15:53:05.373Z</time></trkpt><trkpt lat="42.1639837" lon="13.2776775"><ele>765.0</ele><time>2026-05-02T15:53:06.373Z</time></trkpt><trkpt lat="42.1640795" lon="13.2776084"><ele>765.0</ele><time>2026-05-02T15:53:07.367Z</time></trkpt><trkpt lat="42.1641776" lon="13.2775601"><ele>765.0</ele><time>2026-05-02T15:53:08.374Z</time></trkpt><trkpt lat="42.1642684" lon="13.2775239"><ele>765.0</ele><time>2026-05-02T15:53:09.386Z</time></trkpt><trkpt lat="42.1643663" lon="13.2775052"><ele>765.0</ele><time>2026-05-02T15:53:10.384Z</time></trkpt><trkpt lat="42.1644804" lon="13.2774995"><ele>765.0</ele><time>2026-05-02T15:53:11.36Z</time></trkpt><trkpt lat="42.1646083" lon="13.2774962"><ele>765.0</ele><time>2026-05-02T15:53:12.366Z</time></trkpt><trkpt lat="42.1647425" lon="13.2775019"><ele>765.0</ele><time>2026-05-02T15:53:13.373Z</time></trkpt><trkpt lat="42.1648753" lon="13.2775091"><ele>765.0</ele><time>2026-05-02T15:53:14.369Z</time></trkpt><trkpt lat="42.1649937" lon="13.2775074"><ele>765.0</ele><time>2026-05-02T15:53:15.375Z</time></trkpt><trkpt lat="42.1651048" lon="13.2775014"><ele>764.6</ele><time>2026-05-02T15:53:16.377Z</time></trkpt><trkpt lat="42.1652112" lon="13.2774894"><ele>764.2</ele><time>2026-05-02T15:53:17.378Z</time></trkpt><trkpt lat="42.165308" lon="13.2774753"><ele>763.8</ele><time>2026-05-02T15:53:18.379Z</time></trkpt><trkpt lat="42.1654172" lon="13.277467"><ele>763.4</ele><time>2026-05-02T15:53:19.373Z</time></trkpt><trkpt lat="42.1655225" lon="13.2774681"><ele>763.0</ele><time>2026-05-02T15:53:20.378Z</time></trkpt><trkpt lat="42.1656392" lon="13.2774682"><ele>762.5</ele><time>2026-05-02T15:53:21.375Z</time></trkpt><trkpt lat="42.1657568" lon="13.2774606"><ele>762.0</ele><time>2026-05-02T15:53:22.373Z</time></trkpt><trkpt lat="42.1658733" lon="13.2774403"><ele>761.5</ele><time>2026-05-02T15:53:23.361Z</time></trkpt><trkpt lat="42.1659957" lon="13.2774022"><ele>761.0</ele><time>2026-05-02T15:53:24.346Z</time></trkpt><trkpt lat="42.1661192" lon="13.277356"><ele>761.0</ele><time>2026-05-02T15:53:25.355Z</time></trkpt><trkpt lat="42.1662485" lon="13.2773047"><ele>761.0</ele><time>2026-05-02T15:53:26.352Z</time></trkpt><trkpt lat="42.1663727" lon="13.2772564"><ele>761.0</ele><time>2026-05-02T15:53:27.359Z</time></trkpt><trkpt lat="42.1664935" lon="13.2772037"><ele>761.0</ele><time>2026-05-02T15:53:28.375Z</time></trkpt><trkpt lat="42.1666039" lon="13.2771462"><ele>762.0</ele><time>2026-05-02T15:53:29.365Z</time></trkpt><trkpt lat="42.1667092" lon="13.2770876"><ele>763.0</ele><time>2026-05-02T15:53:30.372Z</time></trkpt><trkpt lat="42.1668075" lon="13.2770326"><ele>764.0</ele><time>2026-05-02T15:53:31.372Z</time></trkpt><trkpt lat="42.166902" lon="13.2769903"><ele>765.0</ele><time>2026-05-02T15:53:32.359Z</time></trkpt><trkpt lat="42.1669973" lon="13.2769553"><ele>766.0</ele><time>2026-05-02T15:53:33.356Z</time></trkpt><trkpt lat="42.1670796" lon="13.276937"><ele>766.0</ele><time>2026-05-02T15:53:34.357Z</time></trkpt><trkpt lat="42.1671677" lon="13.2769326"><ele>766.0</ele><time>2026-05-02T15:53:35.358Z</time></trkpt><trkpt lat="42.1672584" lon="13.2769291"><ele>766.0</ele><time>2026-05-02T15:53:36.376Z</time></trkpt><trkpt lat="42.1673382" lon="13.2769203"><ele>766.0</ele><time>2026-05-02T15:53:37.367Z</time></trkpt><trkpt lat="42.1674014" lon="13.2769065"><ele>766.0</ele><time>2026-05-02T15:53:38.367Z</time></trkpt><trkpt lat="42.167466" lon="13.2768724"><ele>766.0</ele><time>2026-05-02T15:53:40.366Z</time></trkpt><trkpt lat="42.1674843" lon="13.2767681"><ele>768.1999999999999</ele><time>2026-05-02T15:53:43.373Z</time></trkpt><trkpt lat="42.1675078" lon="13.2766539"><ele>770.4</ele><time>2026-05-02T15:53:46.339Z</time></trkpt><trkpt lat="42.167536" lon="13.2765507"><ele>772.6</ele><time>2026-05-02T15:53:48.329Z</time></trkpt><trkpt lat="42.1676146" lon="13.2763645"><ele>774.8</ele><time>2026-05-02T15:53:50.277Z</time></trkpt><trkpt lat="42.1676519" lon="13.2762904"><ele>777.0</ele><time>2026-05-02T15:53:51.294Z</time></trkpt><trkpt lat="42.1676996" lon="13.2762286"><ele>778.0</ele><time>2026-05-02T15:53:52.278Z</time></trkpt><trkpt lat="42.1678024" lon="13.2761943"><ele>779.0</ele><time>2026-05-02T15:53:54.291Z</time></trkpt><trkpt lat="42.1679072" lon="13.2762309"><ele>780.0</ele><time>2026-05-02T15:53:56.298Z</time></trkpt><trkpt lat="42.1679774" lon="13.2762615"><ele>781.0</ele><time>2026-05-02T15:53:57.3Z</time></trkpt><trkpt lat="42.1680565" lon="13.276291"><ele>782.0</ele><time>2026-05-02T15:53:58.302Z</time></trkpt><trkpt lat="42.1681468" lon="13.2763027"><ele>782.0</ele><time>2026-05-02T15:53:59.293Z</time></trkpt><trkpt lat="42.1682441" lon="13.2763012"><ele>782.0</ele><time>2026-05-02T15:54:00.301Z</time></trkpt><trkpt lat="42.1683482" lon="13.2762949"><ele>782.0</ele><time>2026-05-02T15:54:01.3Z</time></trkpt><trkpt lat="42.1684556" lon="13.2762749"><ele>782.0</ele><time>2026-05-02T15:54:02.293Z</time></trkpt><trkpt lat="42.1685727" lon="13.2762457"><ele>782.0</ele><time>2026-05-02T15:54:03.299Z</time></trkpt><trkpt lat="42.1686955" lon="13.2762116"><ele>782.0</ele><time>2026-05-02T15:54:04.296Z</time></trkpt><trkpt lat="42.1688171" lon="13.2761694"><ele>782.0</ele><time>2026-05-02T15:54:05.303Z</time></trkpt><trkpt lat="42.16894" lon="13.2761316"><ele>782.0</ele><time>2026-05-02T15:54:06.298Z</time></trkpt><trkpt lat="42.1690781" lon="13.2760949"><ele>782.0</ele><time>2026-05-02T15:54:07.303Z</time></trkpt><trkpt lat="42.1692253" lon="13.2760491"><ele>784.3333333333334</ele><time>2026-05-02T15:54:08.298Z</time></trkpt><trkpt lat="42.1693782" lon="13.2760071"><ele>786.6666666666667</ele><time>2026-05-02T15:54:09.299Z</time></trkpt><trkpt lat="42.1695308" lon="13.2759693"><ele>789.0</ele><time>2026-05-02T15:54:10.3Z</time></trkpt><trkpt lat="42.1696705" lon="13.275932"><ele>789.0</ele><time>2026-05-02T15:54:11.297Z</time></trkpt><trkpt lat="42.1698106" lon="13.2758842"><ele>789.0</ele><time>2026-05-02T15:54:12.301Z</time></trkpt><trkpt lat="42.1699357" lon="13.2758381"><ele>789.0</ele><time>2026-05-02T15:54:13.296Z</time></trkpt><trkpt lat="42.1700431" lon="13.2757972"><ele>789.0</ele><time>2026-05-02T15:54:14.294Z</time></trkpt><trkpt lat="42.1701641" lon="13.2757644"><ele>790.0</ele><time>2026-05-02T15:54:15.298Z</time></trkpt><trkpt lat="42.1702708" lon="13.2757404"><ele>791.0</ele><time>2026-05-02T15:54:16.302Z</time></trkpt><trkpt lat="42.1703662" lon="13.275714"><ele>792.0</ele><time>2026-05-02T15:54:17.298Z</time></trkpt><trkpt lat="42.170468" lon="13.2757009"><ele>793.0</ele><time>2026-05-02T15:54:18.299Z</time></trkpt><trkpt lat="42.1705518" lon="13.2756987"><ele>794.0</ele><time>2026-05-02T15:54:19.3Z</time></trkpt><trkpt lat="42.170622" lon="13.2756843"><ele>795.0000000000001</ele><time>2026-05-02T15:54:20.296Z</time></trkpt><trkpt lat="42.1707249" lon="13.2756645"><ele>796.0</ele><time>2026-05-02T15:54:22.298Z</time></trkpt><trkpt lat="42.1707889" lon="13.2756455"><ele>797.0</ele><time>2026-05-02T15:54:24.311Z</time></trkpt><trkpt lat="42.1708849" lon="13.275618"><ele>798.0</ele><time>2026-05-02T15:54:27.306Z</time></trkpt><trkpt lat="42.1709565" lon="13.2756146"><ele>799.0000000000001</ele><time>2026-05-02T15:54:28.29Z</time></trkpt><trkpt lat="42.1710454" lon="13.275615"><ele>800.0</ele><time>2026-05-02T15:54:29.296Z</time></trkpt><trkpt lat="42.1711387" lon="13.2756228"><ele>800.0</ele><time>2026-05-02T15:54:30.3Z</time></trkpt><trkpt lat="42.1712498" lon="13.2756464"><ele>800.0</ele><time>2026-05-02T15:54:31.293Z</time></trkpt><trkpt lat="42.1713632" lon="13.2756742"><ele>800.0</ele><time>2026-05-02T15:54:32.303Z</time></trkpt><trkpt lat="42.1714839" lon="13.2757087"><ele>800.0</ele><time>2026-05-02T15:54:33.297Z</time></trkpt><trkpt lat="42.1716154" lon="13.2757517"><ele>800.25</ele><time>2026-05-02T15:54:34.293Z</time></trkpt><trkpt lat="42.1717302" lon="13.2758181"><ele>800.5</ele><time>2026-05-02T15:54:35.295Z</time></trkpt><trkpt lat="42.1718359" lon="13.2759025"><ele>800.75</ele><time>2026-05-02T15:54:36.302Z</time></trkpt><trkpt lat="42.1719481" lon="13.2759762"><ele>801.0</ele><time>2026-05-02T15:54:37.291Z</time></trkpt><trkpt lat="42.1720657" lon="13.2760297"><ele>801.0</ele><time>2026-05-02T15:54:38.298Z</time></trkpt><trkpt lat="42.1721826" lon="13.2760699"><ele>801.0</ele><time>2026-05-02T15:54:39.296Z</time></trkpt><trkpt lat="42.1723004" lon="13.2761148"><ele>801.0</ele><time>2026-05-02T15:54:40.295Z</time></trkpt><trkpt lat="42.1724171" lon="13.2761647"><ele>801.0</ele><time>2026-05-02T15:54:41.295Z</time></trkpt><trkpt lat="42.1725261" lon="13.2762186"><ele>801.25</ele><time>2026-05-02T15:54:42.298Z</time></trkpt><trkpt lat="42.1726348" lon="13.276264"><ele>801.5</ele><time>2026-05-02T15:54:43.294Z</time></trkpt><trkpt lat="42.1727529" lon="13.2763142"><ele>801.75</ele><time>2026-05-02T15:54:44.294Z</time></trkpt><trkpt lat="42.1728639" lon="13.2763558"><ele>802.0</ele><time>2026-05-02T15:54:45.301Z</time></trkpt><trkpt lat="42.1729788" lon="13.2763882"><ele>802.0</ele><time>2026-05-02T15:54:46.29Z</time></trkpt><trkpt lat="42.1730857" lon="13.2763986"><ele>802.0</ele><time>2026-05-02T15:54:47.306Z</time></trkpt><trkpt lat="42.1731831" lon="13.2764169"><ele>802.0</ele><time>2026-05-02T15:54:48.298Z</time></trkpt><trkpt lat="42.1732701" lon="13.2764022"><ele>802.0</ele><time>2026-05-02T15:54:49.293Z</time></trkpt><trkpt lat="42.1733651" lon="13.2763569"><ele>802.0</ele><time>2026-05-02T15:54:50.287Z</time></trkpt><trkpt lat="42.1734437" lon="13.276297"><ele>804.0</ele><time>2026-05-02T15:54:51.3Z</time></trkpt><trkpt lat="42.1735189" lon="13.2762526"><ele>806.0</ele><time>2026-05-02T15:54:52.303Z</time></trkpt><trkpt lat="42.1736058" lon="13.2762241"><ele>808.0</ele><time>2026-05-02T15:54:53.294Z</time></trkpt><trkpt lat="42.1737037" lon="13.27619"><ele>810.0</ele><time>2026-05-02T15:54:54.304Z</time></trkpt><trkpt lat="42.1737993" lon="13.2761493"><ele>812.0</ele><time>2026-05-02T15:54:55.302Z</time></trkpt><trkpt lat="42.1738921" lon="13.2761241"><ele>812.0000000000001</ele><time>2026-05-02T15:54:56.309Z</time></trkpt><trkpt lat="42.1739679" lon="13.2760982"><ele>812.0</ele><time>2026-05-02T15:54:57.3Z</time></trkpt><trkpt lat="42.1740307" lon="13.2760917"><ele>812.0</ele><time>2026-05-02T15:54:58.305Z</time></trkpt><trkpt lat="42.1741191" lon="13.2761152"><ele>812.0</ele><time>2026-05-02T15:55:00.307Z</time></trkpt><trkpt lat="42.1742153" lon="13.2762023"><ele>812.0000000000001</ele><time>2026-05-02T15:55:02.303Z</time></trkpt><trkpt lat="42.1742627" lon="13.276264"><ele>812.0</ele><time>2026-05-02T15:55:03.313Z</time></trkpt><trkpt lat="42.1743147" lon="13.2763204"><ele>813.8333333333334</ele><time>2026-05-02T15:55:04.304Z</time></trkpt><trkpt lat="42.1743702" lon="13.2763747"><ele>815.6666666666667</ele><time>2026-05-02T15:55:05.302Z</time></trkpt><trkpt lat="42.1744326" lon="13.2764278"><ele>817.5</ele><time>2026-05-02T15:55:06.302Z</time></trkpt><trkpt lat="42.1744907" lon="13.2764792"><ele>819.3333333333333</ele><time>2026-05-02T15:55:07.311Z</time></trkpt><trkpt lat="42.1745581" lon="13.276542"><ele>821.1666666666666</ele><time>2026-05-02T15:55:08.303Z</time></trkpt><trkpt lat="42.1746302" lon="13.2765886"><ele>823.0</ele><time>2026-05-02T15:55:09.307Z</time></trkpt><trkpt lat="42.1747052" lon="13.2766187"><ele>823.3333333333333</ele><time>2026-05-02T15:55:10.311Z</time></trkpt><trkpt lat="42.1747914" lon="13.2766381"><ele>823.6666666666666</ele><time>2026-05-02T15:55:11.3Z</time></trkpt><trkpt lat="42.1748855" lon="13.2766501"><ele>824.0</ele><time>2026-05-02T15:55:12.311Z</time></trkpt><trkpt lat="42.1749707" lon="13.2766276"><ele>824.3333333333333</ele><time>2026-05-02T15:55:13.311Z</time></trkpt><trkpt lat="42.1750487" lon="13.276587"><ele>824.6666666666666</ele><time>2026-05-02T15:55:14.306Z</time></trkpt><trkpt lat="42.1751156" lon="13.2765324"><ele>825.0</ele><time>2026-05-02T15:55:15.315Z</time></trkpt><trkpt lat="42.1751784" lon="13.2764676"><ele>825.8333333333334</ele><time>2026-05-02T15:55:16.313Z</time></trkpt><trkpt lat="42.1752392" lon="13.2763788"><ele>826.6666666666667</ele><time>2026-05-02T15:55:17.312Z</time></trkpt><trkpt lat="42.1752865" lon="13.2762798"><ele>827.5</ele><time>2026-05-02T15:55:18.313Z</time></trkpt><trkpt lat="42.1753268" lon="13.2761976"><ele>828.3333333333334</ele><time>2026-05-02T15:55:19.303Z</time></trkpt><trkpt lat="42.1753647" lon="13.2761281"><ele>829.1666666666667</ele><time>2026-05-02T15:55:20.315Z</time></trkpt><trkpt lat="42.1754261" lon="13.2759932"><ele>830.0</ele><time>2026-05-02T15:55:22.306Z</time></trkpt><trkpt lat="42.1754617" lon="13.2758954"><ele>830.0</ele><time>2026-05-02T15:55:24.303Z</time></trkpt><trkpt lat="42.1754894" lon="13.2758168"><ele>830.0</ele><time>2026-05-02T15:55:26.318Z</time></trkpt><trkpt lat="42.1755334" lon="13.2757213"><ele>830.0</ele><time>2026-05-02T15:55:28.325Z</time></trkpt><trkpt lat="42.1756116" lon="13.2755811"><ele>830.0</ele><time>2026-05-02T15:55:30.312Z</time></trkpt><trkpt lat="42.1756657" lon="13.2754863"><ele>830.0</ele><time>2026-05-02T15:55:31.297Z</time></trkpt><trkpt lat="42.1757403" lon="13.2754083"><ele>830.0</ele><time>2026-05-02T15:55:32.302Z</time></trkpt><trkpt lat="42.1758469" lon="13.2753642"><ele>830.0</ele><time>2026-05-02T15:55:33.301Z</time></trkpt><trkpt lat="42.1759711" lon="13.2753501"><ele>830.0</ele><time>2026-05-02T15:55:34.303Z</time></trkpt><trkpt lat="42.1761074" lon="13.275313"><ele>830.0</ele><time>2026-05-02T15:55:35.309Z</time></trkpt><trkpt lat="42.1762328" lon="13.2752746"><ele>830.0</ele><time>2026-05-02T15:55:36.313Z</time></trkpt><trkpt lat="42.1763506" lon="13.2752421"><ele>830.0</ele><time>2026-05-02T15:55:37.308Z</time></trkpt><trkpt lat="42.176461" lon="13.2752133"><ele>830.0</ele><time>2026-05-02T15:55:38.307Z</time></trkpt><trkpt lat="42.1765693" lon="13.2751871"><ele>830.0</ele><time>2026-05-02T15:55:39.304Z</time></trkpt><trkpt lat="42.1766743" lon="13.275153"><ele>828.4</ele><time>2026-05-02T15:55:40.304Z</time></trkpt><trkpt lat="42.1767756" lon="13.275122"><ele>826.8</ele><time>2026-05-02T15:55:41.313Z</time></trkpt><trkpt lat="42.1768763" lon="13.2750907"><ele>825.2</ele><time>2026-05-02T15:55:42.308Z</time></trkpt><trkpt lat="42.1769718" lon="13.2750536"><ele>823.6</ele><time>2026-05-02T15:55:43.319Z</time></trkpt><trkpt lat="42.1770616" lon="13.2750229"><ele>822.0</ele><time>2026-05-02T15:55:44.307Z</time></trkpt><trkpt lat="42.1771297" lon="13.2750006"><ele>822.0</ele><time>2026-05-02T15:55:45.303Z</time></trkpt><trkpt lat="42.1772237" lon="13.2750061"><ele>822.0</ele><time>2026-05-02T15:55:47.303Z</time></trkpt><trkpt lat="42.1772951" lon="13.2750583"><ele>822.0</ele><time>2026-05-02T15:55:50.316Z</time></trkpt><trkpt lat="42.1773859" lon="13.2750653"><ele>822.0</ele><time>2026-05-02T15:55:54.322Z</time></trkpt><trkpt lat="42.1775014" lon="13.275086"><ele>822.0</ele><time>2026-05-02T15:55:56.314Z</time></trkpt><trkpt lat="42.1775592" lon="13.2752241"><ele>821.6</ele><time>2026-05-02T15:55:58.299Z</time></trkpt><trkpt lat="42.1775678" lon="13.2753227"><ele>821.2</ele><time>2026-05-02T15:55:59.295Z</time></trkpt><trkpt lat="42.1775488" lon="13.2754476"><ele>820.8</ele><time>2026-05-02T15:56:00.308Z</time></trkpt><trkpt lat="42.1775332" lon="13.2755884"><ele>820.4</ele><time>2026-05-02T15:56:01.3Z</time></trkpt><trkpt lat="42.1775371" lon="13.275727"><ele>820.0</ele><time>2026-05-02T15:56:02.294Z</time></trkpt><trkpt lat="42.1775682" lon="13.2758403"><ele>820.0</ele><time>2026-05-02T15:56:03.31Z</time></trkpt><trkpt lat="42.1776226" lon="13.275927"><ele>820.0</ele><time>2026-05-02T15:56:05.308Z</time></trkpt><trkpt lat="42.1776642" lon="13.27603"><ele>820.0</ele><time>2026-05-02T15:56:07.313Z</time></trkpt><trkpt lat="42.1776841" lon="13.276111"><ele>820.0</ele><time>2026-05-02T15:56:08.31Z</time></trkpt><trkpt lat="42.1776989" lon="13.276285"><ele>820.0</ele><time>2026-05-02T15:56:10.304Z</time></trkpt><trkpt lat="42.1776982" lon="13.2764088"><ele>820.4</ele><time>2026-05-02T15:56:11.305Z</time></trkpt><trkpt lat="42.1776885" lon="13.2765438"><ele>820.8</ele><time>2026-05-02T15:56:12.31Z</time></trkpt><trkpt lat="42.1776665" lon="13.2766771"><ele>821.2</ele><time>2026-05-02T15:56:13.308Z</time></trkpt><trkpt lat="42.1776376" lon="13.2768286"><ele>821.6</ele><time>2026-05-02T15:56:14.318Z</time></trkpt><trkpt lat="42.1776088" lon="13.2769756"><ele>822.0</ele><time>2026-05-02T15:56:15.31Z</time></trkpt><trkpt lat="42.1775914" lon="13.277129"><ele>822.5</ele><time>2026-05-02T15:56:16.313Z</time></trkpt><trkpt lat="42.177581" lon="13.2772842"><ele>823.0</ele><time>2026-05-02T15:56:17.311Z</time></trkpt><trkpt lat="42.1775721" lon="13.2774424"><ele>823.5</ele><time>2026-05-02T15:56:18.312Z</time></trkpt><trkpt lat="42.177566" lon="13.2776051"><ele>824.0</ele><time>2026-05-02T15:56:19.313Z</time></trkpt><trkpt lat="42.1775643" lon="13.2777518"><ele>824.0</ele><time>2026-05-02T15:56:20.316Z</time></trkpt><trkpt lat="42.1775539" lon="13.2779077"><ele>824.0</ele><time>2026-05-02T15:56:21.306Z</time></trkpt><trkpt lat="42.1775283" lon="13.2780404"><ele>824.0</ele><time>2026-05-02T15:56:22.296Z</time></trkpt><trkpt lat="42.1774943" lon="13.2781506"><ele>824.0</ele><time>2026-05-02T15:56:23.301Z</time></trkpt><trkpt lat="42.1774587" lon="13.2782463"><ele>824.0</ele><time>2026-05-02T15:56:24.306Z</time></trkpt><trkpt lat="42.1774018" lon="13.2783381"><ele>825.8000000000001</ele><time>2026-05-02T15:56:25.295Z</time></trkpt><trkpt lat="42.1773214" lon="13.2784313"><ele>827.6</ele><time>2026-05-02T15:56:26.311Z</time></trkpt><trkpt lat="42.1772308" lon="13.2785192"><ele>829.4</ele><time>2026-05-02T15:56:27.304Z</time></trkpt><trkpt lat="42.1771588" lon="13.2786195"><ele>831.2</ele><time>2026-05-02T15:56:28.299Z</time></trkpt><trkpt lat="42.1771181" lon="13.2787159"><ele>833.0</ele><time>2026-05-02T15:56:29.306Z</time></trkpt><trkpt lat="42.177062" lon="13.2788495"><ele>833.0</ele><time>2026-05-02T15:56:31.289Z</time></trkpt><trkpt lat="42.1770083" lon="13.2789222"><ele>833.0</ele><time>2026-05-02T15:56:32.292Z</time></trkpt><trkpt lat="42.1769294" lon="13.2790118"><ele>833.0</ele><time>2026-05-02T15:56:34.303Z</time></trkpt><trkpt lat="42.1769546" lon="13.2790965"><ele>833.0</ele><time>2026-05-02T15:56:36.312Z</time></trkpt><trkpt lat="42.1770124" lon="13.2791899"><ele>833.0</ele><time>2026-05-02T15:56:38.308Z</time></trkpt><trkpt lat="42.1770744" lon="13.2793435"><ele>833.3333333333334</ele><time>2026-05-02T15:56:40.286Z</time></trkpt><trkpt lat="42.1771051" lon="13.2794441"><ele>833.6666666666667</ele><time>2026-05-02T15:56:41.299Z</time></trkpt><trkpt lat="42.1771217" lon="13.2795359"><ele>834.0</ele><time>2026-05-02T15:56:42.296Z</time></trkpt><trkpt lat="42.1771493" lon="13.2796521"><ele>834.3333333333333</ele><time>2026-05-02T15:56:43.299Z</time></trkpt><trkpt lat="42.1771901" lon="13.2797533"><ele>834.6666666666666</ele><time>2026-05-02T15:56:44.301Z</time></trkpt><trkpt lat="42.1772392" lon="13.2798471"><ele>835.0</ele><time>2026-05-02T15:56:45.307Z</time></trkpt><trkpt lat="42.1772966" lon="13.2799386"><ele>835.2</ele><time>2026-05-02T15:56:46.304Z</time></trkpt><trkpt lat="42.1773568" lon="13.2800366"><ele>835.4</ele><time>2026-05-02T15:56:47.303Z</time></trkpt><trkpt lat="42.1774183" lon="13.2801512"><ele>835.5999999999999</ele><time>2026-05-02T15:56:48.301Z</time></trkpt><trkpt lat="42.1774867" lon="13.2802781"><ele>835.8</ele><time>2026-05-02T15:56:49.309Z</time></trkpt><trkpt lat="42.1775519" lon="13.2803999"><ele>836.0</ele><time>2026-05-02T15:56:50.3Z</time></trkpt><trkpt lat="42.1776137" lon="13.2805187"><ele>836.75</ele><time>2026-05-02T15:56:51.307Z</time></trkpt><trkpt lat="42.1776862" lon="13.2806285"><ele>837.5</ele><time>2026-05-02T15:56:52.314Z</time></trkpt><trkpt lat="42.17776" lon="13.2807519"><ele>838.25</ele><time>2026-05-02T15:56:53.305Z</time></trkpt><trkpt lat="42.1778259" lon="13.280882"><ele>839.0</ele><time>2026-05-02T15:56:54.304Z</time></trkpt><trkpt lat="42.1778895" lon="13.2810115"><ele>839.0</ele><time>2026-05-02T15:56:55.313Z</time></trkpt><trkpt lat="42.1779523" lon="13.2811239"><ele>839.0</ele><time>2026-05-02T15:56:56.311Z</time></trkpt><trkpt lat="42.1780146" lon="13.2812426"><ele>839.0</ele><time>2026-05-02T15:56:57.323Z</time></trkpt><trkpt lat="42.1780642" lon="13.2813682"><ele>839.0</ele><time>2026-05-02T15:56:58.314Z</time></trkpt><trkpt lat="42.1781204" lon="13.2814827"><ele>839.0</ele><time>2026-05-02T15:56:59.303Z</time></trkpt><trkpt lat="42.1781921" lon="13.2815671"><ele>839.4000000000001</ele><time>2026-05-02T15:57:00.313Z</time></trkpt><trkpt lat="42.1782797" lon="13.2816471"><ele>839.8</ele><time>2026-05-02T15:57:01.295Z</time></trkpt><trkpt lat="42.1783724" lon="13.2817256"><ele>840.2</ele><time>2026-05-02T15:57:02.307Z</time></trkpt><trkpt lat="42.1784485" lon="13.2817844"><ele>840.5999999999999</ele><time>2026-05-02T15:57:03.306Z</time></trkpt><trkpt lat="42.1785272" lon="13.2818263"><ele>841.0</ele><time>2026-05-02T15:57:04.307Z</time></trkpt><trkpt lat="42.1786046" lon="13.2818369"><ele>841.0</ele><time>2026-05-02T15:57:05.295Z</time></trkpt><trkpt lat="42.1786695" lon="13.2818237"><ele>841.0</ele><time>2026-05-02T15:57:06.305Z</time></trkpt><trkpt lat="42.178733" lon="13.2817967"><ele>841.0</ele><time>2026-05-02T15:57:07.31Z</time></trkpt><trkpt lat="42.178793" lon="13.2817602"><ele>841.0</ele><time>2026-05-02T15:57:08.303Z</time></trkpt><trkpt lat="42.1788562" lon="13.2817132"><ele>841.0</ele><time>2026-05-02T15:57:09.308Z</time></trkpt><trkpt lat="42.1789142" lon="13.2816527"><ele>841.0</ele><time>2026-05-02T15:57:10.304Z</time></trkpt><trkpt lat="42.1789652" lon="13.2815992"><ele>841.0</ele><time>2026-05-02T15:57:11.304Z</time></trkpt><trkpt lat="42.1790595" lon="13.2815476"><ele>839.8333333333333</ele><time>2026-05-02T15:57:13.306Z</time></trkpt><trkpt lat="42.179146" lon="13.2815622"><ele>838.6666666666666</ele><time>2026-05-02T15:57:15.318Z</time></trkpt><trkpt lat="42.1792111" lon="13.281625"><ele>837.5</ele><time>2026-05-02T15:57:17.319Z</time></trkpt><trkpt lat="42.1792482" lon="13.2817226"><ele>836.3333333333333</ele><time>2026-05-02T15:57:19.325Z</time></trkpt><trkpt lat="42.1793126" lon="13.2818221"><ele>835.1666666666666</ele><time>2026-05-02T15:57:21.307Z</time></trkpt><trkpt lat="42.1793901" lon="13.2817962"><ele>834.0</ele><time>2026-05-02T15:57:23.308Z</time></trkpt><trkpt lat="42.1794392" lon="13.2816742"><ele>834.0</ele><time>2026-05-02T15:57:25.304Z</time></trkpt><trkpt lat="42.1794611" lon="13.2815753"><ele>834.0</ele><time>2026-05-02T15:57:26.302Z</time></trkpt><trkpt lat="42.1795041" lon="13.2814768"><ele>834.0</ele><time>2026-05-02T15:57:27.312Z</time></trkpt><trkpt lat="42.1795626" lon="13.2813713"><ele>834.0</ele><time>2026-05-02T15:57:28.311Z</time></trkpt><trkpt lat="42.1796351" lon="13.2812643"><ele>834.0</ele><time>2026-05-02T15:57:29.307Z</time></trkpt><trkpt lat="42.1797005" lon="13.2811328"><ele>833.0</ele><time>2026-05-02T15:57:30.315Z</time></trkpt><trkpt lat="42.179764" lon="13.2809847"><ele>832.0</ele><time>2026-05-02T15:57:31.308Z</time></trkpt><trkpt lat="42.1798313" lon="13.2808197"><ele>831.0</ele><time>2026-05-02T15:57:32.31Z</time></trkpt><trkpt lat="42.1799136" lon="13.2806527"><ele>830.0</ele><time>2026-05-02T15:57:33.318Z</time></trkpt><trkpt lat="42.1799955" lon="13.2804806"><ele>828.75</ele><time>2026-05-02T15:57:34.312Z</time></trkpt><trkpt lat="42.1800838" lon="13.2803352"><ele>827.5</ele><time>2026-05-02T15:57:35.31Z</time></trkpt><trkpt lat="42.1801689" lon="13.2801953"><ele>826.25</ele><time>2026-05-02T15:57:36.31Z</time></trkpt><trkpt lat="42.1802688" lon="13.2800814"><ele>825.0</ele><time>2026-05-02T15:57:37.312Z</time></trkpt><trkpt lat="42.1803822" lon="13.2799738"><ele>825.0</ele><time>2026-05-02T15:57:38.317Z</time></trkpt><trkpt lat="42.1804925" lon="13.2798796"><ele>825.0</ele><time>2026-05-02T15:57:39.312Z</time></trkpt><trkpt lat="42.1805852" lon="13.2797824"><ele>825.0</ele><time>2026-05-02T15:57:40.311Z</time></trkpt><trkpt lat="42.1806593" lon="13.2796774"><ele>825.0</ele><time>2026-05-02T15:57:41.315Z</time></trkpt><trkpt lat="42.1807066" lon="13.2795478"><ele>824.2</ele><time>2026-05-02T15:57:42.312Z</time></trkpt><trkpt lat="42.1807194" lon="13.2794296"><ele>823.4</ele><time>2026-05-02T15:57:43.319Z</time></trkpt><trkpt lat="42.1806899" lon="13.2793146"><ele>822.5999999999999</ele><time>2026-05-02T15:57:44.311Z</time></trkpt><trkpt lat="42.1806425" lon="13.2791981"><ele>821.8</ele><time>2026-05-02T15:57:45.305Z</time></trkpt><trkpt lat="42.1805982" lon="13.2790624"><ele>821.0</ele><time>2026-05-02T15:57:46.303Z</time></trkpt><trkpt lat="42.1805675" lon="13.2789134"><ele>820.5</ele><time>2026-05-02T15:57:47.309Z</time></trkpt><trkpt lat="42.1805616" lon="13.2787692"><ele>820.0</ele><time>2026-05-02T15:57:48.302Z</time></trkpt><trkpt lat="42.1805744" lon="13.2786127"><ele>819.5</ele><time>2026-05-02T15:57:49.311Z</time></trkpt><trkpt lat="42.1806022" lon="13.278444"><ele>819.0</ele><time>2026-05-02T15:57:50.308Z</time></trkpt><trkpt lat="42.1806309" lon="13.2782663"><ele>818.75</ele><time>2026-05-02T15:57:51.313Z</time></trkpt><trkpt lat="42.1806653" lon="13.2780821"><ele>818.5</ele><time>2026-05-02T15:57:52.311Z</time></trkpt><trkpt lat="42.1807022" lon="13.2778829"><ele>818.25</ele><time>2026-05-02T15:57:53.305Z</time></trkpt><trkpt lat="42.1807333" lon="13.2776934"><ele>818.0</ele><time>2026-05-02T15:57:54.304Z</time></trkpt><trkpt lat="42.1807534" lon="13.2774872"><ele>817.0</ele><time>2026-05-02T15:57:55.299Z</time></trkpt><trkpt lat="42.180775" lon="13.2772745"><ele>816.0</ele><time>2026-05-02T15:57:56.31Z</time></trkpt><trkpt lat="42.1808111" lon="13.277066"><ele>815.0</ele><time>2026-05-02T15:57:57.322Z</time></trkpt><trkpt lat="42.1808416" lon="13.2768568"><ele>814.3333333333334</ele><time>2026-05-02T15:57:58.315Z</time></trkpt><trkpt lat="42.1808737" lon="13.2766383"><ele>813.6666666666667</ele><time>2026-05-02T15:57:59.386Z</time></trkpt><trkpt lat="42.1809052" lon="13.2764329"><ele>813.0</ele><time>2026-05-02T15:58:00.391Z</time></trkpt><trkpt lat="42.1809319" lon="13.2762299"><ele>812.3333333333333</ele><time>2026-05-02T15:58:01.395Z</time></trkpt><trkpt lat="42.1809627" lon="13.2760242"><ele>811.6666666666666</ele><time>2026-05-02T15:58:02.391Z</time></trkpt><trkpt lat="42.1809986" lon="13.2758198"><ele>811.0</ele><time>2026-05-02T15:58:03.397Z</time></trkpt><trkpt lat="42.1810389" lon="13.2756129"><ele>810.5</ele><time>2026-05-02T15:58:04.392Z</time></trkpt><trkpt lat="42.1810797" lon="13.2754156"><ele>810.0</ele><time>2026-05-02T15:58:05.39Z</time></trkpt><trkpt lat="42.1811171" lon="13.2752255"><ele>809.5</ele><time>2026-05-02T15:58:06.392Z</time></trkpt><trkpt lat="42.181149" lon="13.2750492"><ele>809.0</ele><time>2026-05-02T15:58:07.392Z</time></trkpt><trkpt lat="42.1811801" lon="13.274883"><ele>808.3333333333334</ele><time>2026-05-02T15:58:08.387Z</time></trkpt><trkpt lat="42.1812035" lon="13.274769"><ele>807.6666666666667</ele><time>2026-05-02T15:58:09.392Z</time></trkpt><trkpt lat="42.1812536" lon="13.2746138"><ele>807.0</ele><time>2026-05-02T15:58:11.385Z</time></trkpt><trkpt lat="42.1812688" lon="13.2745292"><ele>806.3333333333333</ele><time>2026-05-02T15:58:12.387Z</time></trkpt><trkpt lat="42.1812871" lon="13.2744366"><ele>805.6666666666666</ele><time>2026-05-02T15:58:13.38Z</time></trkpt><trkpt lat="42.1813118" lon="13.2743386"><ele>805.0</ele><time>2026-05-02T15:58:14.386Z</time></trkpt><trkpt lat="42.1813396" lon="13.2742442"><ele>804.9999999999999</ele><time>2026-05-02T15:58:15.387Z</time></trkpt><trkpt lat="42.1813685" lon="13.274147"><ele>805.0</ele><time>2026-05-02T15:58:16.371Z</time></trkpt><trkpt lat="42.1813945" lon="13.2740583"><ele>805.0</ele><time>2026-05-02T15:58:17.377Z</time></trkpt><trkpt lat="42.1814245" lon="13.2739638"><ele>805.0</ele><time>2026-05-02T15:58:19.366Z</time></trkpt><trkpt lat="42.1814437" lon="13.2738477"><ele>804.9999999999999</ele><time>2026-05-02T15:58:33.399Z</time></trkpt><trkpt lat="42.1814829" lon="13.2737318"><ele>805.0</ele><time>2026-05-02T15:58:35.397Z</time></trkpt><trkpt lat="42.1815958" lon="13.273639"><ele>804.6</ele><time>2026-05-02T15:58:37.371Z</time></trkpt><trkpt lat="42.1816593" lon="13.2735652"><ele>804.2</ele><time>2026-05-02T15:58:38.367Z</time></trkpt><trkpt lat="42.1817222" lon="13.2734684"><ele>803.8</ele><time>2026-05-02T15:58:39.381Z</time></trkpt><trkpt lat="42.1817878" lon="13.2733702"><ele>803.4</ele><time>2026-05-02T15:58:40.393Z</time></trkpt><trkpt lat="42.1818551" lon="13.2732843"><ele>803.0</ele><time>2026-05-02T15:58:41.387Z</time></trkpt><trkpt lat="42.1819171" lon="13.2732024"><ele>803.0</ele><time>2026-05-02T15:58:42.39Z</time></trkpt><trkpt lat="42.1819696" lon="13.2731172"><ele>803.0</ele><time>2026-05-02T15:58:43.387Z</time></trkpt><trkpt lat="42.1820208" lon="13.2730274"><ele>803.0</ele><time>2026-05-02T15:58:44.396Z</time></trkpt><trkpt lat="42.1820809" lon="13.2729392"><ele>803.0</ele><time>2026-05-02T15:58:45.388Z</time></trkpt><trkpt lat="42.182147" lon="13.2728445"><ele>803.0</ele><time>2026-05-02T15:58:46.383Z</time></trkpt><trkpt lat="42.1822247" lon="13.2727545"><ele>802.75</ele><time>2026-05-02T15:58:47.388Z</time></trkpt><trkpt lat="42.1823166" lon="13.2726769"><ele>802.5</ele><time>2026-05-02T15:58:48.384Z</time></trkpt><trkpt lat="42.1824161" lon="13.2725891"><ele>802.25</ele><time>2026-05-02T15:58:49.372Z</time></trkpt><trkpt lat="42.1825123" lon="13.272483"><ele>802.0</ele><time>2026-05-02T15:58:50.376Z</time></trkpt><trkpt lat="42.1825867" lon="13.2723672"><ele>802.0</ele><time>2026-05-02T15:58:51.376Z</time></trkpt><trkpt lat="42.1826782" lon="13.2722447"><ele>802.0</ele><time>2026-05-02T15:58:52.296Z</time></trkpt><trkpt lat="42.1827649" lon="13.2721232"><ele>802.0</ele><time>2026-05-02T15:58:53.311Z</time></trkpt><trkpt lat="42.1828518" lon="13.2720154"><ele>802.0</ele><time>2026-05-02T15:58:54.305Z</time></trkpt><trkpt lat="42.1829194" lon="13.2718928"><ele>802.0</ele><time>2026-05-02T15:58:55.306Z</time></trkpt><trkpt lat="42.1829825" lon="13.2717709"><ele>802.0</ele><time>2026-05-02T15:58:56.301Z</time></trkpt><trkpt lat="42.1830374" lon="13.2716506"><ele>802.0</ele><time>2026-05-02T15:58:57.306Z</time></trkpt><trkpt lat="42.1830941" lon="13.2715232"><ele>802.0</ele><time>2026-05-02T15:58:58.303Z</time></trkpt><trkpt lat="42.1831421" lon="13.271402"><ele>802.0</ele><time>2026-05-02T15:58:59.302Z</time></trkpt><trkpt lat="42.1831817" lon="13.2712805"><ele>801.6</ele><time>2026-05-02T15:59:00.313Z</time></trkpt><trkpt lat="42.183242" lon="13.2711626"><ele>801.2</ele><time>2026-05-02T15:59:01.303Z</time></trkpt><trkpt lat="42.1833022" lon="13.2710611"><ele>800.8</ele><time>2026-05-02T15:59:02.307Z</time></trkpt><trkpt lat="42.1833686" lon="13.2709836"><ele>800.4</ele><time>2026-05-02T15:59:03.308Z</time></trkpt><trkpt lat="42.1834372" lon="13.2709348"><ele>800.0</ele><time>2026-05-02T15:59:04.295Z</time></trkpt><trkpt lat="42.1835173" lon="13.270911"><ele>800.0</ele><time>2026-05-02T15:59:05.301Z</time></trkpt><trkpt lat="42.1836026" lon="13.2709156"><ele>800.0</ele><time>2026-05-02T15:59:06.299Z</time></trkpt><trkpt lat="42.1837098" lon="13.2709305"><ele>800.0</ele><time>2026-05-02T15:59:07.292Z</time></trkpt><trkpt lat="42.183816" lon="13.270944"><ele>800.0</ele><time>2026-05-02T15:59:08.298Z</time></trkpt><trkpt lat="42.1839269" lon="13.2709417"><ele>800.0</ele><time>2026-05-02T15:59:09.296Z</time></trkpt><trkpt lat="42.1840358" lon="13.2709289"><ele>800.0</ele><time>2026-05-02T15:59:10.303Z</time></trkpt><trkpt lat="42.1841603" lon="13.2709248"><ele>800.0</ele><time>2026-05-02T15:59:11.303Z</time></trkpt><trkpt lat="42.1842805" lon="13.2708969"><ele>800.0</ele><time>2026-05-02T15:59:12.301Z</time></trkpt><trkpt lat="42.1843961" lon="13.2708517"><ele>800.0</ele><time>2026-05-02T15:59:13.291Z</time></trkpt><trkpt lat="42.1845067" lon="13.2707742"><ele>800.0</ele><time>2026-05-02T15:59:14.295Z</time></trkpt><trkpt lat="42.1846124" lon="13.2706856"><ele>800.0</ele><time>2026-05-02T15:59:15.304Z</time></trkpt><trkpt lat="42.1847264" lon="13.2705781"><ele>800.0</ele><time>2026-05-02T15:59:16.307Z</time></trkpt><trkpt lat="42.1848335" lon="13.2704616"><ele>800.0</ele><time>2026-05-02T15:59:17.298Z</time></trkpt><trkpt lat="42.1849417" lon="13.2703491"><ele>800.5</ele><time>2026-05-02T15:59:18.303Z</time></trkpt><trkpt lat="42.1850458" lon="13.2702379"><ele>801.0</ele><time>2026-05-02T15:59:19.307Z</time></trkpt><trkpt lat="42.1851558" lon="13.2701381"><ele>801.5</ele><time>2026-05-02T15:59:20.307Z</time></trkpt><trkpt lat="42.1852643" lon="13.2700431"><ele>802.0</ele><time>2026-05-02T15:59:21.31Z</time></trkpt><trkpt lat="42.1853811" lon="13.2699628"><ele>802.0</ele><time>2026-05-02T15:59:22.313Z</time></trkpt><trkpt lat="42.1855005" lon="13.2698771"><ele>802.0</ele><time>2026-05-02T15:59:23.315Z</time></trkpt><trkpt lat="42.1856276" lon="13.2697939"><ele>802.0</ele><time>2026-05-02T15:59:24.313Z</time></trkpt><trkpt lat="42.1857477" lon="13.2697012"><ele>802.0</ele><time>2026-05-02T15:59:25.315Z</time></trkpt><trkpt lat="42.1858699" lon="13.2696228"><ele>802.25</ele><time>2026-05-02T15:59:26.311Z</time></trkpt><trkpt lat="42.1859835" lon="13.2695557"><ele>802.5</ele><time>2026-05-02T15:59:27.314Z</time></trkpt><trkpt lat="42.1861061" lon="13.2694817"><ele>802.75</ele><time>2026-05-02T15:59:28.31Z</time></trkpt><trkpt lat="42.1862311" lon="13.2694028"><ele>803.0</ele><time>2026-05-02T15:59:29.312Z</time></trkpt><trkpt lat="42.1863471" lon="13.2693235"><ele>803.0</ele><time>2026-05-02T15:59:30.318Z</time></trkpt><trkpt lat="42.1864634" lon="13.2692663"><ele>803.0</ele><time>2026-05-02T15:59:31.322Z</time></trkpt><trkpt lat="42.1865675" lon="13.2691959"><ele>803.0</ele><time>2026-05-02T15:59:32.323Z</time></trkpt><trkpt lat="42.1866783" lon="13.2691294"><ele>803.0</ele><time>2026-05-02T15:59:33.328Z</time></trkpt><trkpt lat="42.1867841" lon="13.2690703"><ele>803.0</ele><time>2026-05-02T15:59:34.319Z</time></trkpt><trkpt lat="42.186891" lon="13.2689882"><ele>803.0</ele><time>2026-05-02T15:59:35.316Z</time></trkpt><trkpt lat="42.1869983" lon="13.2688878"><ele>803.0</ele><time>2026-05-02T15:59:36.324Z</time></trkpt><trkpt lat="42.1871012" lon="13.2687809"><ele>803.0</ele><time>2026-05-02T15:59:37.317Z</time></trkpt><trkpt lat="42.1872036" lon="13.2686884"><ele>802.75</ele><time>2026-05-02T15:59:38.326Z</time></trkpt><trkpt lat="42.187302" lon="13.2686006"><ele>802.5</ele><time>2026-05-02T15:59:39.326Z</time></trkpt><trkpt lat="42.1874035" lon="13.2685262"><ele>802.25</ele><time>2026-05-02T15:59:40.322Z</time></trkpt><trkpt lat="42.1875067" lon="13.2684443"><ele>802.0</ele><time>2026-05-02T15:59:41.319Z</time></trkpt><trkpt lat="42.1876085" lon="13.2683583"><ele>802.0</ele><time>2026-05-02T15:59:42.325Z</time></trkpt><trkpt lat="42.1877215" lon="13.2682676"><ele>802.0</ele><time>2026-05-02T15:59:43.309Z</time></trkpt><trkpt lat="42.187825" lon="13.268178"><ele>802.0</ele><time>2026-05-02T15:59:44.308Z</time></trkpt><trkpt lat="42.1879136" lon="13.2681048"><ele>802.0</ele><time>2026-05-02T15:59:45.311Z</time></trkpt><trkpt lat="42.1879919" lon="13.2680402"><ele>801.9999999999999</ele><time>2026-05-02T15:59:46.31Z</time></trkpt><trkpt lat="42.1880604" lon="13.2679823"><ele>802.0</ele><time>2026-05-02T15:59:47.314Z</time></trkpt><trkpt lat="42.1881229" lon="13.2679305"><ele>802.0</ele><time>2026-05-02T15:59:48.321Z</time></trkpt><trkpt lat="42.1881842" lon="13.2678853"><ele>802.0</ele><time>2026-05-02T15:59:49.314Z</time></trkpt><trkpt lat="42.1882639" lon="13.2678554"><ele>801.9999999999999</ele><time>2026-05-02T15:59:50.314Z</time></trkpt><trkpt lat="42.1883661" lon="13.2678317"><ele>802.0</ele><time>2026-05-02T15:59:51.316Z</time></trkpt><trkpt lat="42.1884846" lon="13.2678001"><ele>802.75</ele><time>2026-05-02T15:59:52.32Z</time></trkpt><trkpt lat="42.1886038" lon="13.2677573"><ele>803.5</ele><time>2026-05-02T15:59:53.317Z</time></trkpt><trkpt lat="42.18872" lon="13.2677081"><ele>804.25</ele><time>2026-05-02T15:59:54.315Z</time></trkpt><trkpt lat="42.1888311" lon="13.2676506"><ele>805.0</ele><time>2026-05-02T15:59:55.312Z</time></trkpt><trkpt lat="42.1889307" lon="13.2675842"><ele>805.2</ele><time>2026-05-02T15:59:56.302Z</time></trkpt><trkpt lat="42.1890123" lon="13.2675198"><ele>805.4</ele><time>2026-05-02T15:59:57.314Z</time></trkpt><trkpt lat="42.1890812" lon="13.2674636"><ele>805.5999999999999</ele><time>2026-05-02T15:59:58.316Z</time></trkpt><trkpt lat="42.1891589" lon="13.267403"><ele>805.8</ele><time>2026-05-02T15:59:59.312Z</time></trkpt><trkpt lat="42.1892474" lon="13.2673423"><ele>806.0</ele><time>2026-05-02T16:00:00.318Z</time></trkpt><trkpt lat="42.1893387" lon="13.2672702"><ele>805.5</ele><time>2026-05-02T16:00:01.305Z</time></trkpt><trkpt lat="42.1894316" lon="13.2671876"><ele>805.0</ele><time>2026-05-02T16:00:02.301Z</time></trkpt><trkpt lat="42.1895245" lon="13.2670899"><ele>804.5</ele><time>2026-05-02T16:00:03.311Z</time></trkpt><trkpt lat="42.189613" lon="13.2669898"><ele>804.0</ele><time>2026-05-02T16:00:04.307Z</time></trkpt><trkpt lat="42.1897045" lon="13.2668859"><ele>804.0</ele><time>2026-05-02T16:00:05.302Z</time></trkpt><trkpt lat="42.1898043" lon="13.2667839"><ele>804.0</ele><time>2026-05-02T16:00:06.307Z</time></trkpt><trkpt lat="42.1899128" lon="13.2666959"><ele>804.0</ele><time>2026-05-02T16:00:07.306Z</time></trkpt><trkpt lat="42.186891" lon="13.2689882"><ele>803.5</ele><time>2026-05-02T15:59:35.316Z</time></trkpt><trkpt lat="42.1869983" lon="13.2688878"><ele>803.0</ele><time>2026-05-02T15:59:36.324Z</time></trkpt><trkpt lat="42.1871012" lon="13.2687809"><ele>802.5</ele><time>2026-05-02T15:59:37.317Z</time></trkpt><trkpt lat="42.1872036" lon="13.2686884"><ele>802.0</ele><time>2026-05-02T15:59:38.326Z</time></trkpt><trkpt lat="42.187302" lon="13.2686006"><ele>802.0</ele><time>2026-05-02T15:59:39.326Z</time></trkpt><trkpt lat="42.1874035" lon="13.2685262"><ele>802.0</ele><time>2026-05-02T15:59:40.322Z</time></trkpt><trkpt lat="42.1875067" lon="13.2684443"><ele>802.0</ele><time>2026-05-02T15:59:41.319Z</time></trkpt><trkpt lat="42.1876085" lon="13.2683583"><ele>802.0</ele><time>2026-05-02T15:59:42.325Z</time></trkpt><trkpt lat="42.1877215" lon="13.2682676"><ele>802.0</ele><time>2026-05-02T15:59:43.309Z</time></trkpt><trkpt lat="42.187825" lon="13.268178"><ele>802.0</ele><time>2026-05-02T15:59:44.308Z</time></trkpt><trkpt lat="42.1879136" lon="13.2681048"><ele>802.0</ele><time>2026-05-02T15:59:45.311Z</time></trkpt><trkpt lat="42.1879919" lon="13.2680402"><ele>802.0</ele><time>2026-05-02T15:59:46.31Z</time></trkpt><trkpt lat="42.1880604" lon="13.2679823"><ele>802.0</ele><time>2026-05-02T15:59:47.314Z</time></trkpt><trkpt lat="42.1881229" lon="13.2679305"><ele>802.6</ele><time>2026-05-02T15:59:48.321Z</time></trkpt><trkpt lat="42.1881842" lon="13.2678853"><ele>803.2</ele><time>2026-05-02T15:59:49.314Z</time></trkpt><trkpt lat="42.1882639" lon="13.2678554"><ele>803.8</ele><time>2026-05-02T15:59:50.314Z</time></trkpt><trkpt lat="42.1883661" lon="13.2678317"><ele>804.4</ele><time>2026-05-02T15:59:51.316Z</time></trkpt><trkpt lat="42.1884846" lon="13.2678001"><ele>805.0</ele><time>2026-05-02T15:59:52.32Z</time></trkpt><trkpt lat="42.1886038" lon="13.2677573"><ele>805.0</ele><time>2026-05-02T15:59:53.317Z</time></trkpt><trkpt lat="42.18872" lon="13.2677081"><ele>805.0</ele><time>2026-05-02T15:59:54.315Z</time></trkpt><trkpt lat="42.1888311" lon="13.2676506"><ele>805.0</ele><time>2026-05-02T15:59:55.312Z</time></trkpt><trkpt lat="42.1889307" lon="13.2675842"><ele>805.0</ele><time>2026-05-02T15:59:56.302Z</time></trkpt><trkpt lat="42.1890123" lon="13.2675198"><ele>805.0</ele><time>2026-05-02T15:59:57.314Z</time></trkpt><trkpt lat="42.1890812" lon="13.2674636"><ele>805.2</ele><time>2026-05-02T15:59:58.316Z</time></trkpt><trkpt lat="42.1891589" lon="13.267403"><ele>805.4</ele><time>2026-05-02T15:59:59.312Z</time></trkpt><trkpt lat="42.1892474" lon="13.2673423"><ele>805.5999999999999</ele><time>2026-05-02T16:00:00.318Z</time></trkpt><trkpt lat="42.1893387" lon="13.2672702"><ele>805.8</ele><time>2026-05-02T16:00:01.305Z</time></trkpt><trkpt lat="42.1894316" lon="13.2671876"><ele>806.0</ele><time>2026-05-02T16:00:02.301Z</time></trkpt><trkpt lat="42.1895245" lon="13.2670899"><ele>805.5</ele><time>2026-05-02T16:00:03.311Z</time></trkpt><trkpt lat="42.189613" lon="13.2669898"><ele>805.0</ele><time>2026-05-02T16:00:04.307Z</time></trkpt><trkpt lat="42.1897045" lon="13.2668859"><ele>804.5</ele><time>2026-05-02T16:00:05.302Z</time></trkpt><trkpt lat="42.1898043" lon="13.2667839"><ele>804.0</ele><time>2026-05-02T16:00:06.307Z</time></trkpt><trkpt lat="42.1899128" lon="13.2666959"><ele>804.4000000000001</ele><time>2026-05-02T16:00:07.306Z</time></trkpt><trkpt lat="42.1900222" lon="13.2666258"><ele>804.8</ele><time>2026-05-02T16:00:08.29Z</time></trkpt><trkpt lat="42.1901238" lon="13.2665654"><ele>805.2</ele><time>2026-05-02T16:00:09.304Z</time></trkpt><trkpt lat="42.1902226" lon="13.2665149"><ele>805.5999999999999</ele><time>2026-05-02T16:00:10.297Z</time></trkpt><trkpt lat="42.1903153" lon="13.2664718"><ele>806.0</ele><time>2026-05-02T16:00:11.304Z</time></trkpt><trkpt lat="42.1904012" lon="13.2664104"><ele>806.0</ele><time>2026-05-02T16:00:12.309Z</time></trkpt><trkpt lat="42.1904787" lon="13.266319"><ele>806.0</ele><time>2026-05-02T16:00:13.297Z</time></trkpt><trkpt lat="42.1905595" lon="13.2662154"><ele>806.0</ele><time>2026-05-02T16:00:14.304Z</time></trkpt><trkpt lat="42.1906512" lon="13.2661176"><ele>806.0</ele><time>2026-05-02T16:00:15.307Z</time></trkpt><trkpt lat="42.1907513" lon="13.2660253"><ele>806.25</ele><time>2026-05-02T16:00:16.308Z</time></trkpt><trkpt lat="42.1908474" lon="13.2659131"><ele>806.5</ele><time>2026-05-02T16:00:17.309Z</time></trkpt><trkpt lat="42.1909387" lon="13.265785"><ele>806.75</ele><time>2026-05-02T16:00:18.305Z</time></trkpt><trkpt lat="42.1910238" lon="13.2656598"><ele>807.0</ele><time>2026-05-02T16:00:19.297Z</time></trkpt><trkpt lat="42.1911072" lon="13.2655361"><ele>807.0</ele><time>2026-05-02T16:00:20.305Z</time></trkpt><trkpt lat="42.191205" lon="13.2654175"><ele>807.0</ele><time>2026-05-02T16:00:21.299Z</time></trkpt><trkpt lat="42.1913079" lon="13.2653044"><ele>807.0</ele><time>2026-05-02T16:00:22.316Z</time></trkpt><trkpt lat="42.1913982" lon="13.2651852"><ele>807.0</ele><time>2026-05-02T16:00:23.305Z</time></trkpt><trkpt lat="42.1914701" lon="13.2650609"><ele>807.5</ele><time>2026-05-02T16:00:24.309Z</time></trkpt><trkpt lat="42.191544" lon="13.2649303"><ele>808.0</ele><time>2026-05-02T16:00:25.301Z</time></trkpt><trkpt lat="42.1916182" lon="13.2648039"><ele>808.5</ele><time>2026-05-02T16:00:26.311Z</time></trkpt><trkpt lat="42.1916967" lon="13.2646997"><ele>809.0</ele><time>2026-05-02T16:00:27.3Z</time></trkpt><trkpt lat="42.1917868" lon="13.2646157"><ele>809.0</ele><time>2026-05-02T16:00:28.302Z</time></trkpt><trkpt lat="42.1918954" lon="13.2645468"><ele>809.0</ele><time>2026-05-02T16:00:29.303Z</time></trkpt><trkpt lat="42.1920141" lon="13.2644765"><ele>809.0</ele><time>2026-05-02T16:00:30.312Z</time></trkpt><trkpt lat="42.1921298" lon="13.2644033"><ele>809.0</ele><time>2026-05-02T16:00:31.305Z</time></trkpt><trkpt lat="42.1922476" lon="13.2643484"><ele>810.0</ele><time>2026-05-02T16:00:32.297Z</time></trkpt><trkpt lat="42.1923697" lon="13.2642952"><ele>811.0</ele><time>2026-05-02T16:00:33.302Z</time></trkpt><trkpt lat="42.1924936" lon="13.2642432"><ele>812.0</ele><time>2026-05-02T16:00:34.303Z</time></trkpt><trkpt lat="42.1926196" lon="13.2641814"><ele>813.0</ele><time>2026-05-02T16:00:35.295Z</time></trkpt><trkpt lat="42.1927397" lon="13.2641096"><ele>813.0</ele><time>2026-05-02T16:00:36.294Z</time></trkpt><trkpt lat="42.192853" lon="13.2640391"><ele>813.0</ele><time>2026-05-02T16:00:37.291Z</time></trkpt><trkpt lat="42.1929613" lon="13.2639753"><ele>813.0</ele><time>2026-05-02T16:00:38.295Z</time></trkpt><trkpt lat="42.1930673" lon="13.2639173"><ele>813.0</ele><time>2026-05-02T16:00:39.299Z</time></trkpt><trkpt lat="42.1931749" lon="13.2638593"><ele>813.25</ele><time>2026-05-02T16:00:40.294Z</time></trkpt><trkpt lat="42.1932891" lon="13.2637817"><ele>813.5</ele><time>2026-05-02T16:00:41.291Z</time></trkpt><trkpt lat="42.1934067" lon="13.26369"><ele>813.75</ele><time>2026-05-02T16:00:42.297Z</time></trkpt><trkpt lat="42.1935265" lon="13.2635995"><ele>814.0</ele><time>2026-05-02T16:00:43.299Z</time></trkpt><trkpt lat="42.1936378" lon="13.2635017"><ele>814.0</ele><time>2026-05-02T16:00:44.294Z</time></trkpt><trkpt lat="42.1937538" lon="13.2633972"><ele>814.0</ele><time>2026-05-02T16:00:45.299Z</time></trkpt><trkpt lat="42.1938667" lon="13.2632971"><ele>814.0</ele><time>2026-05-02T16:00:46.302Z</time></trkpt><trkpt lat="42.1939708" lon="13.2632096"><ele>814.0</ele><time>2026-05-02T16:00:47.299Z</time></trkpt><trkpt lat="42.1940661" lon="13.2631442"><ele>814.1666666666666</ele><time>2026-05-02T16:00:48.3Z</time></trkpt><trkpt lat="42.1941523" lon="13.2630836"><ele>814.3333333333333</ele><time>2026-05-02T16:00:49.293Z</time></trkpt><trkpt lat="42.1942302" lon="13.2630268"><ele>814.5</ele><time>2026-05-02T16:00:50.299Z</time></trkpt><trkpt lat="42.1943034" lon="13.2629812"><ele>814.6666666666667</ele><time>2026-05-02T16:00:51.298Z</time></trkpt><trkpt lat="42.1943793" lon="13.2629601"><ele>814.8333333333334</ele><time>2026-05-02T16:00:52.302Z</time></trkpt><trkpt lat="42.194461" lon="13.2629554"><ele>815.0</ele><time>2026-05-02T16:00:53.296Z</time></trkpt><trkpt lat="42.1945594" lon="13.2629377"><ele>815.0</ele><time>2026-05-02T16:00:54.302Z</time></trkpt><trkpt lat="42.1946611" lon="13.2629098"><ele>815.0</ele><time>2026-05-02T16:00:55.288Z</time></trkpt><trkpt lat="42.1947556" lon="13.2628721"><ele>815.0</ele><time>2026-05-02T16:00:56.298Z</time></trkpt><trkpt lat="42.1948437" lon="13.2628437"><ele>815.0</ele><time>2026-05-02T16:00:57.296Z</time></trkpt><trkpt lat="42.1949268" lon="13.2628268"><ele>815.0</ele><time>2026-05-02T16:00:58.298Z</time></trkpt><trkpt lat="42.1950049" lon="13.2628241"><ele>815.0000000000001</ele><time>2026-05-02T16:00:59.296Z</time></trkpt><trkpt lat="42.1950876" lon="13.2628391"><ele>815.0</ele><time>2026-05-02T16:01:00.296Z</time></trkpt><trkpt lat="42.1951703" lon="13.2628712"><ele>815.0</ele><time>2026-05-02T16:01:01.302Z</time></trkpt><trkpt lat="42.1952557" lon="13.2629194"><ele>815.0</ele><time>2026-05-02T16:01:02.288Z</time></trkpt><trkpt lat="42.1953211" lon="13.2629666"><ele>815.0000000000001</ele><time>2026-05-02T16:01:03.295Z</time></trkpt><trkpt lat="42.1953822" lon="13.2630049"><ele>815.0</ele><time>2026-05-02T16:01:04.286Z</time></trkpt><trkpt lat="42.1954606" lon="13.263005"><ele>815.0</ele><time>2026-05-02T16:01:06.289Z</time></trkpt><trkpt lat="42.195514" lon="13.2629255"><ele>815.0</ele><time>2026-05-02T16:01:08.297Z</time></trkpt><trkpt lat="42.1955962" lon="13.2627587"><ele>815.0</ele><time>2026-05-02T16:01:10.288Z</time></trkpt><trkpt lat="42.1956399" lon="13.2626477"><ele>815.0</ele><time>2026-05-02T16:01:11.291Z</time></trkpt><trkpt lat="42.1956889" lon="13.2625226"><ele>815.0</ele><time>2026-05-02T16:01:12.313Z</time></trkpt><trkpt lat="42.1957354" lon="13.2623853"><ele>815.0</ele><time>2026-05-02T16:01:13.375Z</time></trkpt><trkpt lat="42.1957795" lon="13.262249"><ele>815.0</ele><time>2026-05-02T16:01:14.389Z</time></trkpt><trkpt lat="42.1958308" lon="13.2621236"><ele>815.0</ele><time>2026-05-02T16:01:15.373Z</time></trkpt><trkpt lat="42.1958816" lon="13.2619889"><ele>815.0</ele><time>2026-05-02T16:01:16.36Z</time></trkpt><trkpt lat="42.1959336" lon="13.2618369"><ele>815.0</ele><time>2026-05-02T16:01:17.368Z</time></trkpt><trkpt lat="42.1959702" lon="13.2616914"><ele>815.0</ele><time>2026-05-02T16:01:18.371Z</time></trkpt><trkpt lat="42.1960088" lon="13.261552"><ele>815.0</ele><time>2026-05-02T16:01:19.359Z</time></trkpt><trkpt lat="42.1960417" lon="13.2614299"><ele>815.0</ele><time>2026-05-02T16:01:20.375Z</time></trkpt><trkpt lat="42.19608" lon="13.2613088"><ele>815.0</ele><time>2026-05-02T16:01:21.38Z</time></trkpt><trkpt lat="42.1961125" lon="13.2611748"><ele>814.8</ele><time>2026-05-02T16:01:22.376Z</time></trkpt><trkpt lat="42.196133" lon="13.2610466"><ele>814.6</ele><time>2026-05-02T16:01:23.378Z</time></trkpt><trkpt lat="42.1961553" lon="13.2609247"><ele>814.4000000000001</ele><time>2026-05-02T16:01:24.37Z</time></trkpt><trkpt lat="42.1961792" lon="13.2607941"><ele>814.2</ele><time>2026-05-02T16:01:25.36Z</time></trkpt><trkpt lat="42.1962106" lon="13.2606583"><ele>814.0</ele><time>2026-05-02T16:01:26.358Z</time></trkpt><trkpt lat="42.1962422" lon="13.2605458"><ele>813.4999999999999</ele><time>2026-05-02T16:01:27.366Z</time></trkpt><trkpt lat="42.1962851" lon="13.2604716"><ele>813.0</ele><time>2026-05-02T16:01:28.378Z</time></trkpt><trkpt lat="42.1963381" lon="13.2604167"><ele>812.5</ele><time>2026-05-02T16:01:29.372Z</time></trkpt><trkpt lat="42.1964045" lon="13.2603784"><ele>812.0</ele><time>2026-05-02T16:01:30.362Z</time></trkpt><trkpt lat="42.1964756" lon="13.2603496"><ele>811.4999999999999</ele><time>2026-05-02T16:01:31.359Z</time></trkpt><trkpt lat="42.1965542" lon="13.2603334"><ele>811.0</ele><time>2026-05-02T16:01:32.358Z</time></trkpt><trkpt lat="42.1966518" lon="13.2603234"><ele>810.5</ele><time>2026-05-02T16:01:33.355Z</time></trkpt><trkpt lat="42.1967689" lon="13.2603053"><ele>810.0</ele><time>2026-05-02T16:01:34.377Z</time></trkpt><trkpt lat="42.1969009" lon="13.2602861"><ele>809.5</ele><time>2026-05-02T16:01:35.366Z</time></trkpt><trkpt lat="42.1970481" lon="13.260271"><ele>809.0</ele><time>2026-05-02T16:01:36.279Z</time></trkpt><trkpt lat="42.1971929" lon="13.2602347"><ele>809.0</ele><time>2026-05-02T16:01:37.274Z</time></trkpt><trkpt lat="42.1973107" lon="13.2601901"><ele>809.0</ele><time>2026-05-02T16:01:38.277Z</time></trkpt><trkpt lat="42.1974338" lon="13.2601342"><ele>809.0</ele><time>2026-05-02T16:01:39.271Z</time></trkpt><trkpt lat="42.19755" lon="13.2600508"><ele>809.0</ele><time>2026-05-02T16:01:40.29Z</time></trkpt><trkpt lat="42.19766" lon="13.259958"><ele>808.75</ele><time>2026-05-02T16:01:41.292Z</time></trkpt><trkpt lat="42.1977764" lon="13.2598543"><ele>808.5</ele><time>2026-05-02T16:01:42.276Z</time></trkpt><trkpt lat="42.1978823" lon="13.2597392"><ele>808.25</ele><time>2026-05-02T16:01:43.29Z</time></trkpt><trkpt lat="42.1979801" lon="13.2596478"><ele>808.0</ele><time>2026-05-02T16:01:44.289Z</time></trkpt><trkpt lat="42.1980698" lon="13.2595599"><ele>807.9999999999999</ele><time>2026-05-02T16:01:45.292Z</time></trkpt><trkpt lat="42.1981445" lon="13.2594849"><ele>808.0</ele><time>2026-05-02T16:01:46.291Z</time></trkpt><trkpt lat="42.1982072" lon="13.259425"><ele>808.0</ele><time>2026-05-02T16:01:47.288Z</time></trkpt><trkpt lat="42.1982687" lon="13.2593894"><ele>808.0</ele><time>2026-05-02T16:01:48.286Z</time></trkpt><trkpt lat="42.1983362" lon="13.2593773"><ele>807.9999999999999</ele><time>2026-05-02T16:01:49.28Z</time></trkpt><trkpt lat="42.1984228" lon="13.2593919"><ele>808.0</ele><time>2026-05-02T16:01:50.282Z</time></trkpt><trkpt lat="42.1985334" lon="13.2594079"><ele>809.25</ele><time>2026-05-02T16:01:51.281Z</time></trkpt><trkpt lat="42.198658" lon="13.2593916"><ele>810.5</ele><time>2026-05-02T16:01:52.285Z</time></trkpt><trkpt lat="42.1987732" lon="13.2593439"><ele>811.75</ele><time>2026-05-02T16:01:53.285Z</time></trkpt><trkpt lat="42.1988878" lon="13.2592729"><ele>813.0</ele><time>2026-05-02T16:01:54.284Z</time></trkpt><trkpt lat="42.199006" lon="13.2592019"><ele>813.5999999999999</ele><time>2026-05-02T16:01:55.292Z</time></trkpt><trkpt lat="42.1991122" lon="13.2591309"><ele>814.1999999999999</ele><time>2026-05-02T16:01:56.289Z</time></trkpt><trkpt lat="42.199203" lon="13.259064"><ele>814.8</ele><time>2026-05-02T16:01:57.287Z</time></trkpt><trkpt lat="42.1992852" lon="13.2590079"><ele>815.4</ele><time>2026-05-02T16:01:58.284Z</time></trkpt><trkpt lat="42.1993666" lon="13.258981"><ele>816.0</ele><time>2026-05-02T16:01:59.28Z</time></trkpt><trkpt lat="42.199444" lon="13.2589845"><ele>816.0</ele><time>2026-05-02T16:02:00.302Z</time></trkpt><trkpt lat="42.1995244" lon="13.2590242"><ele>816.0</ele><time>2026-05-02T16:02:01.283Z</time></trkpt><trkpt lat="42.1996188" lon="13.2590752"><ele>816.0</ele><time>2026-05-02T16:02:02.282Z</time></trkpt><trkpt lat="42.1997093" lon="13.2591233"><ele>816.0</ele><time>2026-05-02T16:02:03.287Z</time></trkpt><trkpt lat="42.1997826" lon="13.2591758"><ele>816.0</ele><time>2026-05-02T16:02:04.281Z</time></trkpt><trkpt lat="42.1998346" lon="13.2592317"><ele>816.0</ele><time>2026-05-02T16:02:05.284Z</time></trkpt><trkpt lat="42.1998919" lon="13.2592977"><ele>815.8</ele><time>2026-05-02T16:02:07.289Z</time></trkpt><trkpt lat="42.1999136" lon="13.2592073"><ele>815.5999999999999</ele><time>2026-05-02T16:02:11.295Z</time></trkpt><trkpt lat="42.1999076" lon="13.2590572"><ele>815.4</ele><time>2026-05-02T16:02:13.293Z</time></trkpt><trkpt lat="42.1998729" lon="13.2589517"><ele>815.2</ele><time>2026-05-02T16:02:14.288Z</time></trkpt><trkpt lat="42.1998338" lon="13.2588421"><ele>815.0</ele><time>2026-05-02T16:02:15.287Z</time></trkpt><trkpt lat="42.1998049" lon="13.2587233"><ele>815.0000000000001</ele><time>2026-05-02T16:02:16.291Z</time></trkpt><trkpt lat="42.199772" lon="13.258598"><ele>815.0</ele><time>2026-05-02T16:02:17.287Z</time></trkpt><trkpt lat="42.1997336" lon="13.2584873"><ele>815.0</ele><time>2026-05-02T16:02:18.286Z</time></trkpt><trkpt lat="42.1996992" lon="13.258392"><ele>815.0</ele><time>2026-05-02T16:02:19.283Z</time></trkpt><trkpt lat="42.1996707" lon="13.2582989"><ele>815.0000000000001</ele><time>2026-05-02T16:02:20.286Z</time></trkpt><trkpt lat="42.1996436" lon="13.2581944"><ele>815.0</ele><time>2026-05-02T16:02:21.293Z</time></trkpt><trkpt lat="42.1996037" lon="13.258102"><ele>815.3333333333334</ele><time>2026-05-02T16:02:22.292Z</time></trkpt><trkpt lat="42.1995716" lon="13.2580197"><ele>815.6666666666667</ele><time>2026-05-02T16:02:23.289Z</time></trkpt><trkpt lat="42.1995432" lon="13.2578744"><ele>816.0</ele><time>2026-05-02T16:02:25.291Z</time></trkpt><trkpt lat="42.199554" lon="13.2577901"><ele>816.3333333333333</ele><time>2026-05-02T16:02:26.285Z</time></trkpt><trkpt lat="42.1995812" lon="13.2576872"><ele>816.6666666666666</ele><time>2026-05-02T16:02:27.282Z</time></trkpt><trkpt lat="42.1996143" lon="13.2575735"><ele>817.0</ele><time>2026-05-02T16:02:28.282Z</time></trkpt><trkpt lat="42.1996576" lon="13.2574631"><ele>817.0</ele><time>2026-05-02T16:02:29.287Z</time></trkpt><trkpt lat="42.1996975" lon="13.2573685"><ele>817.0</ele><time>2026-05-02T16:02:30.277Z</time></trkpt><trkpt lat="42.1997389" lon="13.2572841"><ele>817.0</ele><time>2026-05-02T16:02:31.277Z</time></trkpt><trkpt lat="42.1998343" lon="13.2572188"><ele>817.0</ele><time>2026-05-02T16:02:33.274Z</time></trkpt><trkpt lat="42.1999111" lon="13.2572299"><ele>817.0</ele><time>2026-05-02T16:02:46.296Z</time></trkpt><trkpt lat="42.2000427" lon="13.2573231"><ele>818.3333333333333</ele><time>2026-05-02T16:02:48.289Z</time></trkpt><trkpt lat="42.2001267" lon="13.2573785"><ele>819.6666666666666</ele><time>2026-05-02T16:02:49.281Z</time></trkpt><trkpt lat="42.2002041" lon="13.2574292"><ele>821.0</ele><time>2026-05-02T16:02:50.279Z</time></trkpt><trkpt lat="42.2002801" lon="13.2574792"><ele>822.3333333333333</ele><time>2026-05-02T16:02:51.278Z</time></trkpt><trkpt lat="42.2003468" lon="13.2575166"><ele>823.6666666666666</ele><time>2026-05-02T16:02:52.281Z</time></trkpt><trkpt lat="42.200417" lon="13.2575792"><ele>825.0</ele><time>2026-05-02T16:02:54.285Z</time></trkpt><trkpt lat="42.200365" lon="13.257522"><ele>825.0</ele><time>2026-05-02T16:03:08.294Z</time></trkpt><trkpt lat="42.2002988" lon="13.2574889"><ele>825.0</ele><time>2026-05-02T16:03:09.284Z</time></trkpt><trkpt lat="42.2002216" lon="13.2574442"><ele>825.0</ele><time>2026-05-02T16:03:10.292Z</time></trkpt><trkpt lat="42.2001341" lon="13.2573866"><ele>825.0</ele><time>2026-05-02T16:03:12.287Z</time></trkpt><trkpt lat="42.2000646" lon="13.2573538"><ele>825.0</ele><time>2026-05-02T16:03:14.297Z</time></trkpt><trkpt lat="42.2000062" lon="13.2573135"><ele>825.0</ele><time>2026-05-02T16:03:17.305Z</time></trkpt><trkpt lat="42.1999413" lon="13.2572843"><ele>825.0</ele><time>2026-05-02T16:03:19.299Z</time></trkpt><trkpt lat="42.200022" lon="13.2572282"><ele>825.0</ele><time>2026-05-02T16:03:30.295Z</time></trkpt><trkpt lat="42.2001155" lon="13.2572565"><ele>825.0</ele><time>2026-05-02T16:03:32.288Z</time></trkpt><trkpt lat="42.2001807" lon="13.2573062"><ele>825.0</ele><time>2026-05-02T16:03:35.29Z</time></trkpt><trkpt lat="42.2002517" lon="13.2573449"><ele>825.0</ele><time>2026-05-02T16:03:38.293Z</time></trkpt><trkpt lat="42.2001548" lon="13.2572889"><ele>825.0</ele><time>2026-05-02T16:03:43.288Z</time></trkpt><trkpt lat="42.2000696" lon="13.2572386"><ele>824.5</ele><time>2026-05-02T16:03:44.284Z</time></trkpt><trkpt lat="42.2000052" lon="13.257215"><ele>824.0</ele><time>2026-05-02T16:03:45.287Z</time></trkpt><trkpt lat="42.1999214" lon="13.2571874"><ele>823.5</ele><time>2026-05-02T16:03:47.284Z</time></trkpt><trkpt lat="42.1998508" lon="13.2571364"><ele>823.0</ele><time>2026-05-02T16:03:50.296Z</time></trkpt><trkpt lat="42.1998046" lon="13.257055"><ele>822.5</ele><time>2026-05-02T16:03:52.292Z</time></trkpt><trkpt lat="42.1997207" lon="13.2569329"><ele>822.0</ele><time>2026-05-02T16:03:54.305Z</time></trkpt><trkpt lat="42.1996561" lon="13.2568441"><ele>822.0</ele><time>2026-05-02T16:03:56.294Z</time></trkpt><trkpt lat="42.1996102" lon="13.2567527"><ele>822.0</ele><time>2026-05-02T16:03:59.3Z</time></trkpt><trkpt lat="42.199704" lon="13.2567071"><ele>822.0</ele><time>2026-05-02T16:04:02.307Z</time></trkpt><trkpt lat="42.1997628" lon="13.2567524"><ele>822.0</ele><time>2026-05-02T16:04:03.295Z</time></trkpt><trkpt lat="42.1998343" lon="13.2568043"><ele>822.0</ele><time>2026-05-02T16:04:04.287Z</time></trkpt><trkpt lat="42.1999101" lon="13.2568607"><ele>822.0</ele><time>2026-05-02T16:04:05.29Z</time></trkpt><trkpt lat="42.1999878" lon="13.2569146"><ele>824.5</ele><time>2026-05-02T16:04:06.297Z</time></trkpt><trkpt lat="42.2000655" lon="13.2569455"><ele>827.0</ele><time>2026-05-02T16:04:07.296Z</time></trkpt><trkpt lat="42.2001446" lon="13.2569498"><ele>829.5</ele><time>2026-05-02T16:04:08.288Z</time></trkpt><trkpt lat="42.2002253" lon="13.2569596"><ele>832.0</ele><time>2026-05-02T16:04:09.291Z</time></trkpt><trkpt lat="42.2003091" lon="13.2569739"><ele>834.5</ele><time>2026-05-02T16:04:10.293Z</time></trkpt><trkpt lat="42.2003849" lon="13.2569844"><ele>837.0</ele><time>2026-05-02T16:04:11.295Z</time></trkpt><trkpt lat="42.2004542" lon="13.2569961"><ele>837.0</ele><time>2026-05-02T16:04:12.294Z</time></trkpt><trkpt lat="42.2005807" lon="13.257021"><ele>837.0</ele><time>2026-05-02T16:04:14.291Z</time></trkpt><trkpt lat="42.2006555" lon="13.2570376"><ele>837.0</ele><time>2026-05-02T16:04:15.283Z</time></trkpt><trkpt lat="42.2007402" lon="13.2570563"><ele>837.0</ele><time>2026-05-02T16:04:16.289Z</time></trkpt><trkpt lat="42.2008434" lon="13.2570608"><ele>837.0</ele><time>2026-05-02T16:04:18.283Z</time></trkpt><trkpt lat="42.2009112" lon="13.2570882"><ele>839.6666666666666</ele><time>2026-05-02T16:04:21.301Z</time></trkpt><trkpt lat="42.2009077" lon="13.2570005"><ele>842.3333333333333</ele><time>2026-05-02T16:04:33.306Z</time></trkpt><trkpt lat="42.200879" lon="13.2569077"><ele>845.0</ele><time>2026-05-02T16:04:35.297Z</time></trkpt><trkpt lat="42.2009587" lon="13.2568645"><ele>847.6666666666666</ele><time>2026-05-02T16:04:38.297Z</time></trkpt><trkpt lat="42.2010845" lon="13.2568616"><ele>850.3333333333333</ele><time>2026-05-02T16:04:40.287Z</time></trkpt><trkpt lat="42.2011531" lon="13.2568698"><ele>853.0</ele><time>2026-05-02T16:04:41.291Z</time></trkpt><trkpt lat="42.2012298" lon="13.2568705"><ele>853.0</ele><time>2026-05-02T16:04:42.29Z</time></trkpt><trkpt lat="42.2012987" lon="13.2568747"><ele>853.0</ele><time>2026-05-02T16:04:43.285Z</time></trkpt><trkpt lat="42.2013636" lon="13.2568654"><ele>853.0</ele><time>2026-05-02T16:04:44.288Z</time></trkpt><trkpt lat="42.2014315" lon="13.2568413"><ele>853.0</ele><time>2026-05-02T16:04:45.286Z</time></trkpt><trkpt lat="42.2015069" lon="13.2568345"><ele>853.0</ele><time>2026-05-02T16:04:46.289Z</time></trkpt><trkpt lat="42.2015851" lon="13.2568319"><ele>853.0</ele><time>2026-05-02T16:04:47.289Z</time></trkpt><trkpt lat="42.2016614" lon="13.2568307"><ele>853.0</ele><time>2026-05-02T16:04:48.292Z</time></trkpt><trkpt lat="42.2017349" lon="13.2568328"><ele>855.8333333333333</ele><time>2026-05-02T16:04:49.285Z</time></trkpt><trkpt lat="42.2018049" lon="13.2568319"><ele>858.6666666666666</ele><time>2026-05-02T16:04:50.285Z</time></trkpt><trkpt lat="42.2018875" lon="13.2568391"><ele>861.5</ele><time>2026-05-02T16:04:51.287Z</time></trkpt><trkpt lat="42.2019611" lon="13.2568421"><ele>864.3333333333333</ele><time>2026-05-02T16:04:52.289Z</time></trkpt><trkpt lat="42.202044" lon="13.2568366"><ele>867.1666666666666</ele><time>2026-05-02T16:04:53.284Z</time></trkpt><trkpt lat="42.202122" lon="13.2568347"><ele>870.0</ele><time>2026-05-02T16:04:54.288Z</time></trkpt><trkpt lat="42.2021982" lon="13.2568388"><ele>870.0000000000001</ele><time>2026-05-02T16:04:55.285Z</time></trkpt><trkpt lat="42.2022731" lon="13.2568203"><ele>870.0</ele><time>2026-05-02T16:04:56.283Z</time></trkpt><trkpt lat="42.2023413" lon="13.2567975"><ele>870.0</ele><time>2026-05-02T16:04:57.289Z</time></trkpt><trkpt lat="42.2024139" lon="13.2567729"><ele>870.0</ele><time>2026-05-02T16:04:58.284Z</time></trkpt><trkpt lat="42.2024854" lon="13.2567399"><ele>870.0</ele><time>2026-05-02T16:04:59.287Z</time></trkpt><trkpt lat="42.2025532" lon="13.2567166"><ele>870.0000000000001</ele><time>2026-05-02T16:05:00.294Z</time></trkpt><trkpt lat="42.2026286" lon="13.2567052"><ele>870.0</ele><time>2026-05-02T16:05:01.286Z</time></trkpt><trkpt lat="42.2027069" lon="13.256679"><ele>871.1666666666666</ele><time>2026-05-02T16:05:02.287Z</time></trkpt><trkpt lat="42.2027962" lon="13.2566526"><ele>872.3333333333333</ele><time>2026-05-02T16:05:04.285Z</time></trkpt><trkpt lat="42.20287" lon="13.2565783"><ele>873.5</ele><time>2026-05-02T16:05:15.296Z</time></trkpt><trkpt lat="42.2029097" lon="13.2564998"><ele>874.6666666666666</ele><time>2026-05-02T16:05:21.296Z</time></trkpt><trkpt lat="42.2029637" lon="13.2563992"><ele>875.8333333333333</ele><time>2026-05-02T16:05:23.297Z</time></trkpt><trkpt lat="42.2029923" lon="13.2563195"><ele>877.0</ele><time>2026-05-02T16:05:24.287Z</time></trkpt><trkpt lat="42.2030322" lon="13.2561637"><ele>878.2</ele><time>2026-05-02T16:05:26.284Z</time></trkpt><trkpt lat="42.2030909" lon="13.2560357"><ele>879.4000000000001</ele><time>2026-05-02T16:05:28.288Z</time></trkpt><trkpt lat="42.2031638" lon="13.255891"><ele>880.5999999999999</ele><time>2026-05-02T16:05:30.29Z</time></trkpt><trkpt lat="42.2032233" lon="13.2558208"><ele>881.8</ele><time>2026-05-02T16:05:31.288Z</time></trkpt><trkpt lat="42.2032694" lon="13.2557519"><ele>883.0</ele><time>2026-05-02T16:05:32.288Z</time></trkpt><trkpt lat="42.2033408" lon="13.2556056"><ele>884.8333333333333</ele><time>2026-05-02T16:05:34.287Z</time></trkpt><trkpt lat="42.2033488" lon="13.2554447"><ele>886.6666666666666</ele><time>2026-05-02T16:05:36.28Z</time></trkpt><trkpt lat="42.2033087" lon="13.2553692"><ele>888.5</ele><time>2026-05-02T16:05:37.28Z</time></trkpt><trkpt lat="42.203276" lon="13.2552743"><ele>890.3333333333333</ele><time>2026-05-02T16:05:38.285Z</time></trkpt><trkpt lat="42.2032529" lon="13.2551746"><ele>892.1666666666666</ele><time>2026-05-02T16:05:39.281Z</time></trkpt><trkpt lat="42.2032419" lon="13.2550857"><ele>894.0</ele><time>2026-05-02T16:05:40.285Z</time></trkpt><trkpt lat="42.2032484" lon="13.2549644"><ele>893.9999999999999</ele><time>2026-05-02T16:05:42.278Z</time></trkpt><trkpt lat="42.2033144" lon="13.2549152"><ele>894.0</ele><time>2026-05-02T16:05:45.286Z</time></trkpt><trkpt lat="42.2033993" lon="13.2549899"><ele>894.0</ele><time>2026-05-02T16:05:47.291Z</time></trkpt><trkpt lat="42.2034506" lon="13.2550458"><ele>894.0</ele><time>2026-05-02T16:05:48.299Z</time></trkpt><trkpt lat="42.2035096" lon="13.2550831"><ele>894.0</ele><time>2026-05-02T16:05:49.293Z</time></trkpt><trkpt lat="42.2035705" lon="13.2551306"><ele>893.9999999999999</ele><time>2026-05-02T16:05:50.29Z</time></trkpt><trkpt lat="42.2036308" lon="13.2551722"><ele>894.0</ele><time>2026-05-02T16:05:51.285Z</time></trkpt><trkpt lat="42.2036901" lon="13.2552178"><ele>894.0</ele><time>2026-05-02T16:05:52.292Z</time></trkpt><trkpt lat="42.2037482" lon="13.2552746"><ele>894.0</ele><time>2026-05-02T16:05:53.286Z</time></trkpt><trkpt lat="42.2038034" lon="13.2553404"><ele>894.0</ele><time>2026-05-02T16:05:54.292Z</time></trkpt><trkpt lat="42.2038626" lon="13.2554053"><ele>894.0</ele><time>2026-05-02T16:05:55.288Z</time></trkpt><trkpt lat="42.2039371" lon="13.255476"><ele>894.0</ele><time>2026-05-02T16:05:56.288Z</time></trkpt><trkpt lat="42.2040088" lon="13.2555712"><ele>894.0</ele><time>2026-05-02T16:05:57.288Z</time></trkpt><trkpt lat="42.2040704" lon="13.2556645"><ele>895.2</ele><time>2026-05-02T16:05:58.362Z</time></trkpt><trkpt lat="42.2041387" lon="13.2557548"><ele>896.4000000000001</ele><time>2026-05-02T16:05:59.365Z</time></trkpt><trkpt lat="42.2042185" lon="13.2558399"><ele>897.6</ele><time>2026-05-02T16:06:00.365Z</time></trkpt><trkpt lat="42.204313" lon="13.2559161"><ele>898.8</ele><time>2026-05-02T16:06:01.354Z</time></trkpt><trkpt lat="42.2044199" lon="13.2559895"><ele>900.0</ele><time>2026-05-02T16:06:02.349Z</time></trkpt><trkpt lat="42.2045361" lon="13.2560602"><ele>900.0</ele><time>2026-05-02T16:06:03.346Z</time></trkpt><trkpt lat="42.2046551" lon="13.2561303"><ele>900.0</ele><time>2026-05-02T16:06:04.35Z</time></trkpt><trkpt lat="42.2047851" lon="13.2562434"><ele>900.0</ele><time>2026-05-02T16:06:05.258Z</time></trkpt><trkpt lat="42.204886" lon="13.2563403"><ele>900.0</ele><time>2026-05-02T16:06:06.27Z</time></trkpt><trkpt lat="42.2049899" lon="13.2564592"><ele>903.3333333333333</ele><time>2026-05-02T16:06:07.267Z</time></trkpt><trkpt lat="42.205091" lon="13.2566073"><ele>906.6666666666666</ele><time>2026-05-02T16:06:08.263Z</time></trkpt><trkpt lat="42.2051756" lon="13.2568089"><ele>910.0</ele><time>2026-05-02T16:06:09.265Z</time></trkpt><trkpt lat="42.205258" lon="13.2569872"><ele>910.0</ele><time>2026-05-02T16:06:10.268Z</time></trkpt><trkpt lat="42.2053223" lon="13.257161"><ele>910.0</ele><time>2026-05-02T16:06:11.273Z</time></trkpt><trkpt lat="42.2053971" lon="13.2573468"><ele>910.0</ele><time>2026-05-02T16:06:12.273Z</time></trkpt><trkpt lat="42.2054774" lon="13.2575166"><ele>907.6</ele><time>2026-05-02T16:06:13.261Z</time></trkpt><trkpt lat="42.2055242" lon="13.2576754"><ele>905.2</ele><time>2026-05-02T16:06:14.264Z</time></trkpt><trkpt lat="42.2055917" lon="13.2578018"><ele>902.8</ele><time>2026-05-02T16:06:15.269Z</time></trkpt><trkpt lat="42.2056793" lon="13.2578712"><ele>900.4</ele><time>2026-05-02T16:06:16.269Z</time></trkpt><trkpt lat="42.2057651" lon="13.2579304"><ele>898.0</ele><time>2026-05-02T16:06:17.27Z</time></trkpt><trkpt lat="42.2058647" lon="13.2579674"><ele>901.8</ele><time>2026-05-02T16:06:18.269Z</time></trkpt><trkpt lat="42.2059611" lon="13.2579989"><ele>905.5999999999999</ele><time>2026-05-02T16:06:19.277Z</time></trkpt><trkpt lat="42.2060556" lon="13.2580746"><ele>909.4000000000001</ele><time>2026-05-02T16:06:20.273Z</time></trkpt><trkpt lat="42.2061385" lon="13.2581586"><ele>913.2</ele><time>2026-05-02T16:06:21.263Z</time></trkpt><trkpt lat="42.2062105" lon="13.2582423"><ele>917.0</ele><time>2026-05-02T16:06:22.267Z</time></trkpt><trkpt lat="42.2062615" lon="13.2583507"><ele>917.0</ele><time>2026-05-02T16:06:23.273Z</time></trkpt><trkpt lat="42.2062768" lon="13.2584533"><ele>917.0</ele><time>2026-05-02T16:06:24.262Z</time></trkpt><trkpt lat="42.2062672" lon="13.2585974"><ele>917.0</ele><time>2026-05-02T16:06:25.265Z</time></trkpt><trkpt lat="42.206239" lon="13.2587683"><ele>917.0</ele><time>2026-05-02T16:06:26.271Z</time></trkpt><trkpt lat="42.206226" lon="13.2589469"><ele>917.0</ele><time>2026-05-02T16:06:27.27Z</time></trkpt><trkpt lat="42.2062071" lon="13.2591416"><ele>915.5</ele><time>2026-05-02T16:06:28.264Z</time></trkpt><trkpt lat="42.2061912" lon="13.2593194"><ele>914.0</ele><time>2026-05-02T16:06:29.271Z</time></trkpt><trkpt lat="42.20619" lon="13.2595009"><ele>912.5</ele><time>2026-05-02T16:06:30.273Z</time></trkpt><trkpt lat="42.2061977" lon="13.2596604"><ele>911.0</ele><time>2026-05-02T16:06:31.275Z</time></trkpt><trkpt lat="42.2062286" lon="13.2597958"><ele>909.5</ele><time>2026-05-02T16:06:32.274Z</time></trkpt><trkpt lat="42.2062725" lon="13.259931"><ele>908.0</ele><time>2026-05-02T16:06:33.262Z</time></trkpt><trkpt lat="42.2063451" lon="13.2600581"><ele>906.5</ele><time>2026-05-02T16:06:34.269Z</time></trkpt><trkpt lat="42.2064324" lon="13.2601694"><ele>905.0</ele><time>2026-05-02T16:06:35.265Z</time></trkpt><trkpt lat="42.2065349" lon="13.2602879"><ele>910.25</ele><time>2026-05-02T16:06:36.271Z</time></trkpt><trkpt lat="42.2066458" lon="13.2604099"><ele>915.5</ele><time>2026-05-02T16:06:37.269Z</time></trkpt><trkpt lat="42.2067383" lon="13.2605403"><ele>920.75</ele><time>2026-05-02T16:06:38.273Z</time></trkpt><trkpt lat="42.2068352" lon="13.2606715"><ele>926.0</ele><time>2026-05-02T16:06:39.273Z</time></trkpt><trkpt lat="42.2069429" lon="13.2608298"><ele>926.0</ele><time>2026-05-02T16:06:40.277Z</time></trkpt><trkpt lat="42.2070372" lon="13.2609862"><ele>926.0</ele><time>2026-05-02T16:06:41.274Z</time></trkpt><trkpt lat="42.2071234" lon="13.2611537"><ele>926.0</ele><time>2026-05-02T16:06:42.273Z</time></trkpt><trkpt lat="42.2071914" lon="13.2612993"><ele>926.0</ele><time>2026-05-02T16:06:43.276Z</time></trkpt><trkpt lat="42.2072823" lon="13.2614415"><ele>930.25</ele><time>2026-05-02T16:06:44.274Z</time></trkpt><trkpt lat="42.2073507" lon="13.2615722"><ele>934.5</ele><time>2026-05-02T16:06:45.271Z</time></trkpt><trkpt lat="42.2074458" lon="13.2617087"><ele>938.75</ele><time>2026-05-02T16:06:46.27Z</time></trkpt><trkpt lat="42.2075162" lon="13.2618154"><ele>943.0</ele><time>2026-05-02T16:06:47.275Z</time></trkpt><trkpt lat="42.207606" lon="13.26188"><ele>943.0</ele><time>2026-05-02T16:06:48.271Z</time></trkpt><trkpt lat="42.2077294" lon="13.261868"><ele>943.0</ele><time>2026-05-02T16:06:50.278Z</time></trkpt><trkpt lat="42.2077826" lon="13.261818"><ele>943.0</ele><time>2026-05-02T16:06:51.271Z</time></trkpt><trkpt lat="42.2078432" lon="13.261753"><ele>943.0</ele><time>2026-05-02T16:06:52.274Z</time></trkpt><trkpt lat="42.2079072" lon="13.2616418"><ele>943.0</ele><time>2026-05-02T16:06:54.28Z</time></trkpt><trkpt lat="42.2078573" lon="13.2615556"><ele>943.0</ele><time>2026-05-02T16:06:56.272Z</time></trkpt><trkpt lat="42.2077614" lon="13.2615869"><ele>943.0</ele><time>2026-05-02T16:06:58.286Z</time></trkpt><trkpt lat="42.207699" lon="13.2616116"><ele>943.0</ele><time>2026-05-02T16:06:59.27Z</time></trkpt><trkpt lat="42.2076212" lon="13.2615341"><ele>943.0</ele><time>2026-05-02T16:07:01.27Z</time></trkpt><trkpt lat="42.2075724" lon="13.2613718"><ele>943.0</ele><time>2026-05-02T16:07:03.275Z</time></trkpt><trkpt lat="42.2075369" lon="13.2612644"><ele>938.75</ele><time>2026-05-02T16:07:04.269Z</time></trkpt><trkpt lat="42.207487" lon="13.2611376"><ele>934.5</ele><time>2026-05-02T16:07:05.272Z</time></trkpt><trkpt lat="42.2074264" lon="13.2610074"><ele>930.25</ele><time>2026-05-02T16:07:06.274Z</time></trkpt><trkpt lat="42.207356" lon="13.2608744"><ele>926.0</ele><time>2026-05-02T16:07:07.27Z</time></trkpt><trkpt lat="42.2072808" lon="13.2607381"><ele>930.25</ele><time>2026-05-02T16:07:08.269Z</time></trkpt><trkpt lat="42.2072039" lon="13.2605893"><ele>934.5</ele><time>2026-05-02T16:07:09.269Z</time></trkpt><trkpt lat="42.2071367" lon="13.2604467"><ele>938.75</ele><time>2026-05-02T16:07:10.27Z</time></trkpt><trkpt lat="42.2070658" lon="13.2602982"><ele>943.0</ele><time>2026-05-02T16:07:11.279Z</time></trkpt><trkpt lat="42.2070028" lon="13.2601424"><ele>943.0</ele><time>2026-05-02T16:07:12.277Z</time></trkpt><trkpt lat="42.2069446" lon="13.259993"><ele>943.0</ele><time>2026-05-02T16:07:13.274Z</time></trkpt><trkpt lat="42.2069093" lon="13.2598362"><ele>943.0</ele><time>2026-05-02T16:07:14.277Z</time></trkpt><trkpt lat="42.2068865" lon="13.2597023"><ele>943.0</ele><time>2026-05-02T16:07:15.279Z</time></trkpt><trkpt lat="42.2068647" lon="13.2595936"><ele>943.0</ele><time>2026-05-02T16:07:16.28Z</time></trkpt><trkpt lat="42.2068638" lon="13.2594775"><ele>944.5999999999999</ele><time>2026-05-02T16:07:17.274Z</time></trkpt><trkpt lat="42.2068827" lon="13.2593786"><ele>946.1999999999999</ele><time>2026-05-02T16:07:18.28Z</time></trkpt><trkpt lat="42.206924" lon="13.259272"><ele>947.8</ele><time>2026-05-02T16:07:19.275Z</time></trkpt><trkpt lat="42.2069683" lon="13.2591482"><ele>949.4</ele><time>2026-05-02T16:07:20.277Z</time></trkpt><trkpt lat="42.2070231" lon="13.2590163"><ele>951.0</ele><time>2026-05-02T16:07:21.279Z</time></trkpt><trkpt lat="42.2070961" lon="13.2588777"><ele>951.0</ele><time>2026-05-02T16:07:22.274Z</time></trkpt><trkpt lat="42.2071735" lon="13.2587169"><ele>951.0</ele><time>2026-05-02T16:07:23.275Z</time></trkpt><trkpt lat="42.2072314" lon="13.258546"><ele>951.0</ele><time>2026-05-02T16:07:24.275Z</time></trkpt><trkpt lat="42.2072625" lon="13.2583737"><ele>951.0</ele><time>2026-05-02T16:07:25.278Z</time></trkpt><trkpt lat="42.2072875" lon="13.2581882"><ele>954.0</ele><time>2026-05-02T16:07:26.27Z</time></trkpt><trkpt lat="42.2073038" lon="13.2580247"><ele>956.9999999999999</ele><time>2026-05-02T16:07:27.268Z</time></trkpt><trkpt lat="42.2073092" lon="13.2578863"><ele>959.9999999999999</ele><time>2026-05-02T16:07:28.266Z</time></trkpt><trkpt lat="42.2072874" lon="13.2577643"><ele>963.0</ele><time>2026-05-02T16:07:29.265Z</time></trkpt><trkpt lat="42.2072467" lon="13.2576503"><ele>966.0</ele><time>2026-05-02T16:07:30.266Z</time></trkpt><trkpt lat="42.2071813" lon="13.257546"><ele>966.0</ele><time>2026-05-02T16:07:31.271Z</time></trkpt><trkpt lat="42.2070957" lon="13.2574474"><ele>966.0</ele><time>2026-05-02T16:07:32.274Z</time></trkpt><trkpt lat="42.2070075" lon="13.2573383"><ele>966.0</ele><time>2026-05-02T16:07:33.277Z</time></trkpt><trkpt lat="42.2069147" lon="13.257213"><ele>966.0</ele><time>2026-05-02T16:07:34.274Z</time></trkpt><trkpt lat="42.2068249" lon="13.2570904"><ele>971.25</ele><time>2026-05-02T16:07:35.268Z</time></trkpt><trkpt lat="42.2067267" lon="13.2569673"><ele>976.5</ele><time>2026-05-02T16:07:36.272Z</time></trkpt><trkpt lat="42.2066445" lon="13.256848"><ele>981.75</ele><time>2026-05-02T16:07:37.266Z</time></trkpt><trkpt lat="42.2065879" lon="13.2567292"><ele>987.0</ele><time>2026-05-02T16:07:38.265Z</time></trkpt><trkpt lat="42.2065406" lon="13.2566098"><ele>987.0</ele><time>2026-05-02T16:07:39.276Z</time></trkpt><trkpt lat="42.2065083" lon="13.256472"><ele>987.0</ele><time>2026-05-02T16:07:40.276Z</time></trkpt><trkpt lat="42.2064731" lon="13.2563251"><ele>987.0</ele><time>2026-05-02T16:07:41.275Z</time></trkpt><trkpt lat="42.2064451" lon="13.2561671"><ele>987.0</ele><time>2026-05-02T16:07:42.272Z</time></trkpt><trkpt lat="42.2064214" lon="13.2560085"><ele>984.0</ele><time>2026-05-02T16:07:43.271Z</time></trkpt><trkpt lat="42.2064032" lon="13.2558574"><ele>981.0</ele><time>2026-05-02T16:07:44.277Z</time></trkpt><trkpt lat="42.206386" lon="13.2556921"><ele>978.0</ele><time>2026-05-02T16:07:45.277Z</time></trkpt><trkpt lat="42.206401" lon="13.2555247"><ele>975.0</ele><time>2026-05-02T16:07:46.27Z</time></trkpt><trkpt lat="42.2064254" lon="13.2553588"><ele>975.0</ele><time>2026-05-02T16:07:47.269Z</time></trkpt><trkpt lat="42.2064523" lon="13.2551959"><ele>975.0</ele><time>2026-05-02T16:07:48.275Z</time></trkpt><trkpt lat="42.206459" lon="13.255028"><ele>975.0</ele><time>2026-05-02T16:07:49.276Z</time></trkpt><trkpt lat="42.2064421" lon="13.254874"><ele>975.0</ele><time>2026-05-02T16:07:50.274Z</time></trkpt><trkpt lat="42.2064201" lon="13.2547208"><ele>975.8</ele><time>2026-05-02T16:07:51.277Z</time></trkpt><trkpt lat="42.2064011" lon="13.2545679"><ele>976.6</ele><time>2026-05-02T16:07:52.277Z</time></trkpt><trkpt lat="42.2063818" lon="13.2544318"><ele>977.4000000000001</ele><time>2026-05-02T16:07:53.279Z</time></trkpt><trkpt lat="42.2063609" lon="13.2542956"><ele>978.2</ele><time>2026-05-02T16:07:54.277Z</time></trkpt><trkpt lat="42.2063611" lon="13.2541604"><ele>979.0</ele><time>2026-05-02T16:07:55.274Z</time></trkpt><trkpt lat="42.2063729" lon="13.2540142"><ele>978.0</ele><time>2026-05-02T16:07:56.282Z</time></trkpt><trkpt lat="42.2063919" lon="13.2538637"><ele>977.0000000000001</ele><time>2026-05-02T16:07:57.284Z</time></trkpt><trkpt lat="42.2064233" lon="13.2537158"><ele>976.0000000000001</ele><time>2026-05-02T16:07:58.278Z</time></trkpt><trkpt lat="42.2064616" lon="13.253583"><ele>975.0</ele><time>2026-05-02T16:07:59.272Z</time></trkpt><trkpt lat="42.2065117" lon="13.2534565"><ele>974.0</ele><time>2026-05-02T16:08:00.276Z</time></trkpt><trkpt lat="42.2065583" lon="13.25332"><ele>979.8000000000001</ele><time>2026-05-02T16:08:01.274Z</time></trkpt><trkpt lat="42.2066129" lon="13.2531918"><ele>985.6000000000001</ele><time>2026-05-02T16:08:02.281Z</time></trkpt><trkpt lat="42.2066719" lon="13.2530659"><ele>991.4</ele><time>2026-05-02T16:08:03.278Z</time></trkpt><trkpt lat="42.2067197" lon="13.2529458"><ele>997.2</ele><time>2026-05-02T16:08:04.271Z</time></trkpt><trkpt lat="42.2067582" lon="13.2528418"><ele>1003.0</ele><time>2026-05-02T16:08:05.273Z</time></trkpt><trkpt lat="42.2067925" lon="13.2527501"><ele>1002.9999999999999</ele><time>2026-05-02T16:08:06.272Z</time></trkpt><trkpt lat="42.2068166" lon="13.2526566"><ele>1003.0</ele><time>2026-05-02T16:08:08.278Z</time></trkpt><trkpt lat="42.2068815" lon="13.25275"><ele>1003.0</ele><time>2026-05-02T16:08:12.284Z</time></trkpt><trkpt lat="42.2068675" lon="13.2529076"><ele>1003.0</ele><time>2026-05-02T16:08:14.269Z</time></trkpt><trkpt lat="42.206845" lon="13.2529885"><ele>1002.9999999999999</ele><time>2026-05-02T16:08:15.272Z</time></trkpt><trkpt lat="42.2068268" lon="13.2530957"><ele>1003.0</ele><time>2026-05-02T16:08:16.278Z</time></trkpt><trkpt lat="42.2068183" lon="13.2532208"><ele>1004.0</ele><time>2026-05-02T16:08:17.281Z</time></trkpt><trkpt lat="42.2068112" lon="13.2533688"><ele>1005.0</ele><time>2026-05-02T16:08:18.28Z</time></trkpt><trkpt lat="42.206814" lon="13.2535154"><ele>1006.0</ele><time>2026-05-02T16:08:19.27Z</time></trkpt><trkpt lat="42.2068361" lon="13.2536463"><ele>1007.0</ele><time>2026-05-02T16:08:20.276Z</time></trkpt><trkpt lat="42.2068574" lon="13.2537531"><ele>1008.0</ele><time>2026-05-02T16:08:21.275Z</time></trkpt><trkpt lat="42.2068695" lon="13.2538451"><ele>1008.5</ele><time>2026-05-02T16:08:22.279Z</time></trkpt><trkpt lat="42.2069102" lon="13.2539971"><ele>1009.0</ele><time>2026-05-02T16:08:24.271Z</time></trkpt><trkpt lat="42.2069437" lon="13.2540805"><ele>1009.5</ele><time>2026-05-02T16:08:25.277Z</time></trkpt><trkpt lat="42.2069854" lon="13.2541611"><ele>1010.0</ele><time>2026-05-02T16:08:26.272Z</time></trkpt><trkpt lat="42.2070266" lon="13.2542506"><ele>1010.5</ele><time>2026-05-02T16:08:27.279Z</time></trkpt><trkpt lat="42.2070619" lon="13.2543696"><ele>1011.0</ele><time>2026-05-02T16:08:28.278Z</time></trkpt><trkpt lat="42.2070924" lon="13.2544828"><ele>1011.0</ele><time>2026-05-02T16:08:29.275Z</time></trkpt><trkpt lat="42.2071166" lon="13.2546087"><ele>1010.9999999999999</ele><time>2026-05-02T16:08:30.279Z</time></trkpt><trkpt lat="42.2071433" lon="13.2547365"><ele>1010.9999999999999</ele><time>2026-05-02T16:08:31.277Z</time></trkpt><trkpt lat="42.2071767" lon="13.2548497"><ele>1011.0</ele><time>2026-05-02T16:08:32.279Z</time></trkpt><trkpt lat="42.2072079" lon="13.2549783"><ele>1011.0</ele><time>2026-05-02T16:08:33.28Z</time></trkpt><trkpt lat="42.2072447" lon="13.2551223"><ele>1010.0</ele><time>2026-05-02T16:08:34.278Z</time></trkpt><trkpt lat="42.2072676" lon="13.2552683"><ele>1008.9999999999999</ele><time>2026-05-02T16:08:35.278Z</time></trkpt><trkpt lat="42.2072847" lon="13.2554125"><ele>1007.9999999999999</ele><time>2026-05-02T16:08:36.277Z</time></trkpt><trkpt lat="42.2073087" lon="13.2555603"><ele>1007.0</ele><time>2026-05-02T16:08:37.277Z</time></trkpt><trkpt lat="42.2073416" lon="13.2557056"><ele>1006.0</ele><time>2026-05-02T16:08:38.279Z</time></trkpt><trkpt lat="42.2073754" lon="13.2558509"><ele>1012.1999999999999</ele><time>2026-05-02T16:08:39.277Z</time></trkpt><trkpt lat="42.2074091" lon="13.2559948"><ele>1018.3999999999999</ele><time>2026-05-02T16:08:40.278Z</time></trkpt><trkpt lat="42.2074497" lon="13.2561277"><ele>1024.6</ele><time>2026-05-02T16:08:41.27Z</time></trkpt><trkpt lat="42.2074927" lon="13.2562404"><ele>1030.8</ele><time>2026-05-02T16:08:42.277Z</time></trkpt><trkpt lat="42.2075334" lon="13.2563484"><ele>1037.0</ele><time>2026-05-02T16:08:43.274Z</time></trkpt><trkpt lat="42.2075962" lon="13.256442"><ele>1034.0</ele><time>2026-05-02T16:08:44.273Z</time></trkpt><trkpt lat="42.2076653" lon="13.2565183"><ele>1031.0</ele><time>2026-05-02T16:08:45.273Z</time></trkpt><trkpt lat="42.207745" lon="13.256603"><ele>1028.0</ele><time>2026-05-02T16:08:46.279Z</time></trkpt><trkpt lat="42.2078293" lon="13.2566864"><ele>1025.0</ele><time>2026-05-02T16:08:47.282Z</time></trkpt><trkpt lat="42.2079156" lon="13.2567762"><ele>1022.0</ele><time>2026-05-02T16:08:48.274Z</time></trkpt><trkpt lat="42.2079936" lon="13.2568705"><ele>1022.0</ele><time>2026-05-02T16:08:49.277Z</time></trkpt><trkpt lat="42.2080789" lon="13.2569718"><ele>1022.0</ele><time>2026-05-02T16:08:50.273Z</time></trkpt><trkpt lat="42.2081535" lon="13.2570923"><ele>1022.0</ele><time>2026-05-02T16:08:51.27Z</time></trkpt><trkpt lat="42.2082309" lon="13.2572302"><ele>1022.0</ele><time>2026-05-02T16:08:52.268Z</time></trkpt><trkpt lat="42.2082885" lon="13.2573559"><ele>1026.8</ele><time>2026-05-02T16:08:53.274Z</time></trkpt><trkpt lat="42.2083346" lon="13.2574688"><ele>1031.6</ele><time>2026-05-02T16:08:54.272Z</time></trkpt><trkpt lat="42.2083726" lon="13.2575971"><ele>1036.3999999999999</ele><time>2026-05-02T16:08:55.273Z</time></trkpt><trkpt lat="42.2083994" lon="13.2577371"><ele>1041.2</ele><time>2026-05-02T16:08:56.274Z</time></trkpt><trkpt lat="42.2084191" lon="13.2578904"><ele>1046.0</ele><time>2026-05-02T16:08:57.273Z</time></trkpt><trkpt lat="42.208429" lon="13.2580441"><ele>1044.25</ele><time>2026-05-02T16:08:58.273Z</time></trkpt><trkpt lat="42.2084308" lon="13.2582091"><ele>1042.5</ele><time>2026-05-02T16:08:59.264Z</time></trkpt><trkpt lat="42.2084368" lon="13.2583771"><ele>1040.75</ele><time>2026-05-02T16:09:00.276Z</time></trkpt><trkpt lat="42.2084549" lon="13.2585397"><ele>1039.0</ele><time>2026-05-02T16:09:01.266Z</time></trkpt><trkpt lat="42.2084793" lon="13.258687"><ele>1039.0</ele><time>2026-05-02T16:09:02.263Z</time></trkpt><trkpt lat="42.2085097" lon="13.2588154"><ele>1039.0</ele><time>2026-05-02T16:09:03.263Z</time></trkpt><trkpt lat="42.2085399" lon="13.2589181"><ele>1039.0</ele><time>2026-05-02T16:09:04.264Z</time></trkpt><trkpt lat="42.2085707" lon="13.2589957"><ele>1039.0</ele><time>2026-05-02T16:09:05.265Z</time></trkpt><trkpt lat="42.2086221" lon="13.2590497"><ele>1039.0</ele><time>2026-05-02T16:09:06.266Z</time></trkpt><trkpt lat="42.2086833" lon="13.2590916"><ele>1039.0</ele><time>2026-05-02T16:09:07.27Z</time></trkpt><trkpt lat="42.2087555" lon="13.2591187"><ele>1037.6000000000001</ele><time>2026-05-02T16:09:08.272Z</time></trkpt><trkpt lat="42.2088383" lon="13.2591311"><ele>1036.2</ele><time>2026-05-02T16:09:09.27Z</time></trkpt><trkpt lat="42.2089384" lon="13.2591465"><ele>1034.8000000000002</ele><time>2026-05-02T16:09:10.27Z</time></trkpt><trkpt lat="42.2090339" lon="13.2591647"><ele>1033.4</ele><time>2026-05-02T16:09:11.269Z</time></trkpt><trkpt lat="42.2091368" lon="13.2591852"><ele>1032.0</ele><time>2026-05-02T16:09:12.276Z</time></trkpt><trkpt lat="42.2092396" lon="13.2592151"><ele>1037.6</ele><time>2026-05-02T16:09:13.271Z</time></trkpt><trkpt lat="42.2093465" lon="13.2592388"><ele>1043.2</ele><time>2026-05-02T16:09:14.271Z</time></trkpt><trkpt lat="42.2094536" lon="13.2592591"><ele>1048.8</ele><time>2026-05-02T16:09:15.265Z</time></trkpt><trkpt lat="42.2095664" lon="13.2592806"><ele>1054.4</ele><time>2026-05-02T16:09:16.268Z</time></trkpt><trkpt lat="42.209669" lon="13.2593095"><ele>1060.0</ele><time>2026-05-02T16:09:17.268Z</time></trkpt><trkpt lat="42.2097738" lon="13.259346"><ele>1066.25</ele><time>2026-05-02T16:09:18.27Z</time></trkpt><trkpt lat="42.2098848" lon="13.2593886"><ele>1072.5</ele><time>2026-05-02T16:09:19.267Z</time></trkpt><trkpt lat="42.2099947" lon="13.2594397"><ele>1078.75</ele><time>2026-05-02T16:09:20.268Z</time></trkpt><trkpt lat="42.2101017" lon="13.2595132"><ele>1085.0</ele><time>2026-05-02T16:09:21.269Z</time></trkpt><trkpt lat="42.2102052" lon="13.2596065"><ele>1085.0</ele><time>2026-05-02T16:09:22.271Z</time></trkpt><trkpt lat="42.2102977" lon="13.2597113"><ele>1085.0</ele><time>2026-05-02T16:09:23.27Z</time></trkpt><trkpt lat="42.210392" lon="13.2598239"><ele>1085.0</ele><time>2026-05-02T16:09:24.272Z</time></trkpt><trkpt lat="42.2104704" lon="13.2599304"><ele>1085.0</ele><time>2026-05-02T16:09:25.266Z</time></trkpt><trkpt lat="42.2105516" lon="13.2600403"><ele>1087.0</ele><time>2026-05-02T16:09:26.266Z</time></trkpt><trkpt lat="42.2106268" lon="13.2601546"><ele>1089.0</ele><time>2026-05-02T16:09:27.268Z</time></trkpt><trkpt lat="42.2106956" lon="13.2602816"><ele>1091.0</ele><time>2026-05-02T16:09:28.273Z</time></trkpt><trkpt lat="42.210764" lon="13.2604096"><ele>1093.0</ele><time>2026-05-02T16:09:29.27Z</time></trkpt><trkpt lat="42.2108365" lon="13.260524"><ele>1093.0</ele><time>2026-05-02T16:09:30.261Z</time></trkpt><trkpt lat="42.2109041" lon="13.2606097"><ele>1093.0</ele><time>2026-05-02T16:09:31.266Z</time></trkpt><trkpt lat="42.2109598" lon="13.2606856"><ele>1093.0</ele><time>2026-05-02T16:09:32.263Z</time></trkpt><trkpt lat="42.2110268" lon="13.2607475"><ele>1093.0</ele><time>2026-05-02T16:09:33.268Z</time></trkpt><trkpt lat="42.2111082" lon="13.2608078"><ele>1093.0</ele><time>2026-05-02T16:09:34.272Z</time></trkpt><trkpt lat="42.2112063" lon="13.2608584"><ele>1094.6</ele><time>2026-05-02T16:09:35.266Z</time></trkpt><trkpt lat="42.2113096" lon="13.26091"><ele>1096.1999999999998</ele><time>2026-05-02T16:09:36.267Z</time></trkpt><trkpt lat="42.2114077" lon="13.2609481"><ele>1097.8</ele><time>2026-05-02T16:09:37.271Z</time></trkpt><trkpt lat="42.2115056" lon="13.2609811"><ele>1099.3999999999999</ele><time>2026-05-02T16:09:38.27Z</time></trkpt><trkpt lat="42.2116123" lon="13.2610002"><ele>1101.0</ele><time>2026-05-02T16:09:39.262Z</time></trkpt><trkpt lat="42.211699" lon="13.2610329"><ele>1101.0</ele><time>2026-05-02T16:09:40.265Z</time></trkpt><trkpt lat="42.2117711" lon="13.2610848"><ele>1101.0</ele><time>2026-05-02T16:09:41.267Z</time></trkpt><trkpt lat="42.2118441" lon="13.2611458"><ele>1101.0</ele><time>2026-05-02T16:09:42.27Z</time></trkpt><trkpt lat="42.2119283" lon="13.2612148"><ele>1101.0</ele><time>2026-05-02T16:09:43.271Z</time></trkpt><trkpt lat="42.2120113" lon="13.261267"><ele>1101.0</ele><time>2026-05-02T16:09:44.268Z</time></trkpt><trkpt lat="42.2120907" lon="13.2612881"><ele>1101.0</ele><time>2026-05-02T16:09:45.269Z</time></trkpt><trkpt lat="42.2121785" lon="13.2612899"><ele>1101.0</ele><time>2026-05-02T16:09:46.273Z</time></trkpt><trkpt lat="42.2122721" lon="13.2612942"><ele>1101.0</ele><time>2026-05-02T16:09:47.263Z</time></trkpt><trkpt lat="42.2123668" lon="13.2612933"><ele>1101.0</ele><time>2026-05-02T16:09:48.268Z</time></trkpt><trkpt lat="42.2124484" lon="13.2612785"><ele>1101.0</ele><time>2026-05-02T16:09:49.256Z</time></trkpt><trkpt lat="42.2125577" lon="13.2612763"><ele>1101.0</ele><time>2026-05-02T16:09:51.258Z</time></trkpt><trkpt lat="42.2126411" lon="13.2613348"><ele>1100.6666666666667</ele><time>2026-05-02T16:09:53.251Z</time></trkpt><trkpt lat="42.2126887" lon="13.2614192"><ele>1100.3333333333333</ele><time>2026-05-02T16:09:54.263Z</time></trkpt><trkpt lat="42.2127157" lon="13.2615263"><ele>1100.0</ele><time>2026-05-02T16:09:55.264Z</time></trkpt><trkpt lat="42.2127625" lon="13.2616461"><ele>1099.6666666666665</ele><time>2026-05-02T16:09:56.263Z</time></trkpt><trkpt lat="42.2128151" lon="13.2617461"><ele>1099.3333333333333</ele><time>2026-05-02T16:09:57.271Z</time></trkpt><trkpt lat="42.212868" lon="13.2618331"><ele>1099.0</ele><time>2026-05-02T16:09:58.267Z</time></trkpt><trkpt lat="42.2129304" lon="13.2619262"><ele>1099.0</ele><time>2026-05-02T16:09:59.267Z</time></trkpt><trkpt lat="42.2130045" lon="13.2620193"><ele>1099.0</ele><time>2026-05-02T16:10:00.268Z</time></trkpt><trkpt lat="42.2130817" lon="13.2621176"><ele>1099.0</ele><time>2026-05-02T16:10:01.279Z</time></trkpt><trkpt lat="42.2131611" lon="13.2622309"><ele>1099.0</ele><time>2026-05-02T16:10:02.275Z</time></trkpt><trkpt lat="42.2132434" lon="13.2623352"><ele>1099.0</ele><time>2026-05-02T16:10:03.277Z</time></trkpt><trkpt lat="42.213335" lon="13.2624473"><ele>1101.0</ele><time>2026-05-02T16:10:04.277Z</time></trkpt><trkpt lat="42.2134279" lon="13.2625609"><ele>1103.0</ele><time>2026-05-02T16:10:05.282Z</time></trkpt><trkpt lat="42.2135138" lon="13.2626657"><ele>1105.0</ele><time>2026-05-02T16:10:06.269Z</time></trkpt><trkpt lat="42.2135948" lon="13.2627659"><ele>1107.0</ele><time>2026-05-02T16:10:07.277Z</time></trkpt><trkpt lat="42.2136812" lon="13.2628635"><ele>1107.0</ele><time>2026-05-02T16:10:08.273Z</time></trkpt><trkpt lat="42.2137653" lon="13.2629542"><ele>1107.0</ele><time>2026-05-02T16:10:09.273Z</time></trkpt><trkpt lat="42.2138547" lon="13.2630323"><ele>1107.0</ele><time>2026-05-02T16:10:10.274Z</time></trkpt><trkpt lat="42.2139465" lon="13.2630894"><ele>1107.0</ele><time>2026-05-02T16:10:11.278Z</time></trkpt><trkpt lat="42.2140338" lon="13.2631307"><ele>1107.0</ele><time>2026-05-02T16:10:12.279Z</time></trkpt><trkpt lat="42.2141337" lon="13.2631722"><ele>1105.8</ele><time>2026-05-02T16:10:13.273Z</time></trkpt><trkpt lat="42.2142353" lon="13.2632045"><ele>1104.6</ele><time>2026-05-02T16:10:14.278Z</time></trkpt><trkpt lat="42.2143497" lon="13.2632257"><ele>1103.3999999999999</ele><time>2026-05-02T16:10:15.278Z</time></trkpt><trkpt lat="42.2144665" lon="13.2632294"><ele>1102.2</ele><time>2026-05-02T16:10:16.283Z</time></trkpt><trkpt lat="42.2145778" lon="13.263213"><ele>1101.0</ele><time>2026-05-02T16:10:17.286Z</time></trkpt><trkpt lat="42.2146779" lon="13.263192"><ele>1101.0</ele><time>2026-05-02T16:10:18.277Z</time></trkpt><trkpt lat="42.214772" lon="13.2631662"><ele>1101.0</ele><time>2026-05-02T16:10:19.282Z</time></trkpt><trkpt lat="42.2148735" lon="13.2631396"><ele>1101.0</ele><time>2026-05-02T16:10:20.283Z</time></trkpt><trkpt lat="42.214963" lon="13.2631137"><ele>1101.0</ele><time>2026-05-02T16:10:21.28Z</time></trkpt><trkpt lat="42.2150659" lon="13.2631265"><ele>1101.0</ele><time>2026-05-02T16:10:22.282Z</time></trkpt><trkpt lat="42.2151708" lon="13.2631488"><ele>1100.3999999999999</ele><time>2026-05-02T16:10:23.272Z</time></trkpt><trkpt lat="42.2152713" lon="13.2631746"><ele>1099.8</ele><time>2026-05-02T16:10:24.275Z</time></trkpt><trkpt lat="42.2153626" lon="13.2632478"><ele>1099.1999999999998</ele><time>2026-05-02T16:10:25.268Z</time></trkpt><trkpt lat="42.2154481" lon="13.2633435"><ele>1098.6</ele><time>2026-05-02T16:10:26.275Z</time></trkpt><trkpt lat="42.215525" lon="13.2634522"><ele>1098.0</ele><time>2026-05-02T16:10:27.278Z</time></trkpt><trkpt lat="42.2155853" lon="13.263565"><ele>1098.0</ele><time>2026-05-02T16:10:28.282Z</time></trkpt><trkpt lat="42.2156212" lon="13.2636519"><ele>1098.0</ele><time>2026-05-02T16:10:29.269Z</time></trkpt><trkpt lat="42.2156235" lon="13.2637469"><ele>1098.0</ele><time>2026-05-02T16:10:32.287Z</time></trkpt><trkpt lat="42.2155282" lon="13.2638356"><ele>1098.0</ele><time>2026-05-02T16:10:34.288Z</time></trkpt><trkpt lat="42.2154758" lon="13.2639047"><ele>1098.0</ele><time>2026-05-02T16:10:35.279Z</time></trkpt><trkpt lat="42.215403" lon="13.2640086"><ele>1098.0</ele><time>2026-05-02T16:10:37.283Z</time></trkpt><trkpt lat="42.2154841" lon="13.2641063"><ele>1098.0</ele><time>2026-05-02T16:10:40.293Z</time></trkpt><trkpt lat="42.2155525" lon="13.264156"><ele>1098.0</ele><time>2026-05-02T16:10:41.276Z</time></trkpt><trkpt lat="42.2156321" lon="13.2642134"><ele>1098.0</ele><time>2026-05-02T16:10:42.271Z</time></trkpt><trkpt lat="42.2157186" lon="13.2642899"><ele>1098.0</ele><time>2026-05-02T16:10:43.272Z</time></trkpt><trkpt lat="42.2158069" lon="13.2643253"><ele>1098.0</ele><time>2026-05-02T16:10:44.273Z</time></trkpt><trkpt lat="42.2158884" lon="13.2643358"><ele>1098.0</ele><time>2026-05-02T16:10:45.271Z</time></trkpt><trkpt lat="42.215963" lon="13.2643257"><ele>1100.5</ele><time>2026-05-02T16:10:46.276Z</time></trkpt><trkpt lat="42.2160641" lon="13.2643343"><ele>1103.0</ele><time>2026-05-02T16:10:48.278Z</time></trkpt><trkpt lat="42.2161274" lon="13.2644161"><ele>1105.5</ele><time>2026-05-02T16:10:50.286Z</time></trkpt><trkpt lat="42.2161495" lon="13.2644973"><ele>1108.0</ele><time>2026-05-02T16:10:51.281Z</time></trkpt><trkpt lat="42.2161605" lon="13.2645888"><ele>1110.5</ele><time>2026-05-02T16:10:52.288Z</time></trkpt><trkpt lat="42.2161814" lon="13.2646931"><ele>1113.0</ele><time>2026-05-02T16:10:53.276Z</time></trkpt><trkpt lat="42.2161943" lon="13.2647997"><ele>1114.5</ele><time>2026-05-02T16:10:54.271Z</time></trkpt><trkpt lat="42.2161788" lon="13.2649128"><ele>1116.0</ele><time>2026-05-02T16:10:55.275Z</time></trkpt><trkpt lat="42.2161474" lon="13.2650182"><ele>1117.5</ele><time>2026-05-02T16:10:56.276Z</time></trkpt><trkpt lat="42.2161175" lon="13.2651138"><ele>1119.0</ele><time>2026-05-02T16:10:57.283Z</time></trkpt><trkpt lat="42.2161244" lon="13.2651998"><ele>1120.5</ele><time>2026-05-02T16:10:58.272Z</time></trkpt><trkpt lat="42.2161641" lon="13.2652856"><ele>1122.0</ele><time>2026-05-02T16:10:59.274Z</time></trkpt><trkpt lat="42.2162146" lon="13.2653511"><ele>1122.0</ele><time>2026-05-02T16:11:00.281Z</time></trkpt><trkpt lat="42.216282" lon="13.2654201"><ele>1122.0</ele><time>2026-05-02T16:11:01.276Z</time></trkpt><trkpt lat="42.2163571" lon="13.265491"><ele>1122.0</ele><time>2026-05-02T16:11:02.275Z</time></trkpt><trkpt lat="42.2164253" lon="13.2655749"><ele>1122.0</ele><time>2026-05-02T16:11:03.271Z</time></trkpt><trkpt lat="42.2164682" lon="13.2656867"><ele>1122.0</ele><time>2026-05-02T16:11:04.28Z</time></trkpt><trkpt lat="42.2165148" lon="13.2657802"><ele>1122.0</ele><time>2026-05-02T16:11:05.283Z</time></trkpt><trkpt lat="42.2165935" lon="13.2658431"><ele>1121.6</ele><time>2026-05-02T16:11:06.278Z</time></trkpt><trkpt lat="42.2166995" lon="13.265886"><ele>1121.2</ele><time>2026-05-02T16:11:07.28Z</time></trkpt><trkpt lat="42.2167928" lon="13.2659221"><ele>1120.8</ele><time>2026-05-02T16:11:08.273Z</time></trkpt><trkpt lat="42.21689" lon="13.265951"><ele>1120.4</ele><time>2026-05-02T16:11:09.271Z</time></trkpt><trkpt lat="42.2169802" lon="13.2659674"><ele>1120.0</ele><time>2026-05-02T16:11:10.273Z</time></trkpt><trkpt lat="42.2170641" lon="13.2659809"><ele>1120.0</ele><time>2026-05-02T16:11:11.276Z</time></trkpt><trkpt lat="42.2171533" lon="13.2660084"><ele>1120.0</ele><time>2026-05-02T16:11:12.274Z</time></trkpt><trkpt lat="42.2172544" lon="13.2660371"><ele>1120.0</ele><time>2026-05-02T16:11:13.279Z</time></trkpt><trkpt lat="42.2173516" lon="13.2660543"><ele>1120.0</ele><time>2026-05-02T16:11:14.276Z</time></trkpt><trkpt lat="42.2174419" lon="13.2660541"><ele>1120.0</ele><time>2026-05-02T16:11:15.271Z</time></trkpt><trkpt lat="42.2175254" lon="13.2660519"><ele>1118.3333333333333</ele><time>2026-05-02T16:11:16.276Z</time></trkpt><trkpt lat="42.2176153" lon="13.2660462"><ele>1116.6666666666665</ele><time>2026-05-02T16:11:17.274Z</time></trkpt><trkpt lat="42.2176876" lon="13.2660533"><ele>1115.0</ele><time>2026-05-02T16:11:18.281Z</time></trkpt><trkpt lat="42.2177438" lon="13.2660984"><ele>1113.3333333333333</ele><time>2026-05-02T16:11:19.273Z</time></trkpt><trkpt lat="42.2178345" lon="13.2662032"><ele>1111.6666666666667</ele><time>2026-05-02T16:11:21.272Z</time></trkpt><trkpt lat="42.217918" lon="13.266253"><ele>1110.0</ele><time>2026-05-02T16:11:23.268Z</time></trkpt><trkpt lat="42.2179904" lon="13.266234"><ele>1110.0</ele><time>2026-05-02T16:11:25.285Z</time></trkpt><trkpt lat="42.218062" lon="13.2661908"><ele>1110.0</ele><time>2026-05-02T16:11:27.287Z</time></trkpt><trkpt lat="42.2181222" lon="13.2661013"><ele>1110.0</ele><time>2026-05-02T16:11:29.287Z</time></trkpt><trkpt lat="42.218199" lon="13.2659672"><ele>1110.0</ele><time>2026-05-02T16:11:31.284Z</time></trkpt><trkpt lat="42.2182565" lon="13.2659161"><ele>1110.0</ele><time>2026-05-02T16:11:32.279Z</time></trkpt><trkpt lat="42.21832" lon="13.2658821"><ele>1110.0</ele><time>2026-05-02T16:11:33.274Z</time></trkpt><trkpt lat="42.2184041" lon="13.2658628"><ele>1110.5</ele><time>2026-05-02T16:11:34.275Z</time></trkpt><trkpt lat="42.2184854" lon="13.2658485"><ele>1111.0</ele><time>2026-05-02T16:11:35.283Z</time></trkpt><trkpt lat="42.218554" lon="13.2658555"><ele>1111.5</ele><time>2026-05-02T16:11:36.28Z</time></trkpt><trkpt lat="42.2186334" lon="13.2658509"><ele>1112.0</ele><time>2026-05-02T16:11:37.28Z</time></trkpt><trkpt lat="42.2187168" lon="13.2658131"><ele>1112.5</ele><time>2026-05-02T16:11:38.274Z</time></trkpt><trkpt lat="42.2187985" lon="13.2657604"><ele>1113.0</ele><time>2026-05-02T16:11:39.281Z</time></trkpt><trkpt lat="42.218882" lon="13.2657021"><ele>1113.0</ele><time>2026-05-02T16:11:40.282Z</time></trkpt><trkpt lat="42.2189768" lon="13.2656522"><ele>1113.0</ele><time>2026-05-02T16:11:41.278Z</time></trkpt><trkpt lat="42.2190758" lon="13.2656181"><ele>1113.0</ele><time>2026-05-02T16:11:42.277Z</time></trkpt><trkpt lat="42.219161" lon="13.2655764"><ele>1113.0</ele><time>2026-05-02T16:11:43.27Z</time></trkpt><trkpt lat="42.2192362" lon="13.2655066"><ele>1113.0</ele><time>2026-05-02T16:11:44.271Z</time></trkpt><trkpt lat="42.2192969" lon="13.2654278"><ele>1113.6</ele><time>2026-05-02T16:11:45.278Z</time></trkpt><trkpt lat="42.2193655" lon="13.2653533"><ele>1114.1999999999998</ele><time>2026-05-02T16:11:46.285Z</time></trkpt><trkpt lat="42.2194317" lon="13.2652926"><ele>1114.8</ele><time>2026-05-02T16:11:47.278Z</time></trkpt><trkpt lat="42.2195099" lon="13.2652339"><ele>1115.3999999999999</ele><time>2026-05-02T16:11:48.281Z</time></trkpt><trkpt lat="42.219592" lon="13.2651681"><ele>1116.0</ele><time>2026-05-02T16:11:49.277Z</time></trkpt><trkpt lat="42.2196759" lon="13.2650886"><ele>1116.0</ele><time>2026-05-02T16:11:50.272Z</time></trkpt><trkpt lat="42.2197548" lon="13.2649993"><ele>1116.0</ele><time>2026-05-02T16:11:51.28Z</time></trkpt><trkpt lat="42.2198087" lon="13.2648961"><ele>1116.0</ele><time>2026-05-02T16:11:52.272Z</time></trkpt><trkpt lat="42.2198516" lon="13.2647846"><ele>1116.0</ele><time>2026-05-02T16:11:53.274Z</time></trkpt><trkpt lat="42.2198822" lon="13.264661"><ele>1116.0</ele><time>2026-05-02T16:11:54.279Z</time></trkpt><trkpt lat="42.2199242" lon="13.2645718"><ele>1117.3999999999999</ele><time>2026-05-02T16:11:55.276Z</time></trkpt><trkpt lat="42.2199781" lon="13.264488"><ele>1118.8</ele><time>2026-05-02T16:11:56.273Z</time></trkpt><trkpt lat="42.220095" lon="13.2644404"><ele>1120.1999999999998</ele><time>2026-05-02T16:11:58.279Z</time></trkpt><trkpt lat="42.2202006" lon="13.264523"><ele>1121.6</ele><time>2026-05-02T16:12:00.283Z</time></trkpt><trkpt lat="42.2202534" lon="13.2645794"><ele>1123.0</ele><time>2026-05-02T16:12:01.276Z</time></trkpt><trkpt lat="42.2202952" lon="13.264659"><ele>1123.0</ele><time>2026-05-02T16:12:02.278Z</time></trkpt><trkpt lat="42.2203502" lon="13.2647202"><ele>1123.0</ele><time>2026-05-02T16:12:03.271Z</time></trkpt><trkpt lat="42.2204251" lon="13.2647751"><ele>1123.0</ele><time>2026-05-02T16:12:04.28Z</time></trkpt><trkpt lat="42.2205026" lon="13.2647826"><ele>1123.0</ele><time>2026-05-02T16:12:05.277Z</time></trkpt><trkpt lat="42.2205995" lon="13.2647594"><ele>1123.0</ele><time>2026-05-02T16:12:06.276Z</time></trkpt><trkpt lat="42.2207016" lon="13.2647355"><ele>1123.0</ele><time>2026-05-02T16:12:07.269Z</time></trkpt><trkpt lat="42.2207963" lon="13.264728"><ele>1124.2</ele><time>2026-05-02T16:12:08.269Z</time></trkpt><trkpt lat="42.2208955" lon="13.2647604"><ele>1125.4</ele><time>2026-05-02T16:12:09.269Z</time></trkpt><trkpt lat="42.2209839" lon="13.2648119"><ele>1126.6000000000001</ele><time>2026-05-02T16:12:10.282Z</time></trkpt><trkpt lat="42.2210704" lon="13.2648794"><ele>1127.8</ele><time>2026-05-02T16:12:11.272Z</time></trkpt><trkpt lat="42.2211628" lon="13.2649634"><ele>1129.0</ele><time>2026-05-02T16:12:12.28Z</time></trkpt><trkpt lat="42.2212565" lon="13.2650538"><ele>1129.0</ele><time>2026-05-02T16:12:13.274Z</time></trkpt><trkpt lat="42.2213379" lon="13.2651388"><ele>1129.0</ele><time>2026-05-02T16:12:14.272Z</time></trkpt><trkpt lat="42.2214011" lon="13.2652059"><ele>1129.0</ele><time>2026-05-02T16:12:15.265Z</time></trkpt><trkpt lat="42.2214928" lon="13.2652764"><ele>1129.0</ele><time>2026-05-02T16:12:17.283Z</time></trkpt><trkpt lat="42.2215752" lon="13.2651949"><ele>1129.0</ele><time>2026-05-02T16:12:19.28Z</time></trkpt><trkpt lat="42.2216337" lon="13.2651236"><ele>1128.0</ele><time>2026-05-02T16:12:20.272Z</time></trkpt><trkpt lat="42.2217124" lon="13.2650289"><ele>1127.0</ele><time>2026-05-02T16:12:21.273Z</time></trkpt><trkpt lat="42.2218023" lon="13.264922"><ele>1126.0</ele><time>2026-05-02T16:12:22.283Z</time></trkpt><trkpt lat="42.2218695" lon="13.2648156"><ele>1125.0</ele><time>2026-05-02T16:12:23.277Z</time></trkpt><trkpt lat="42.2219283" lon="13.2647213"><ele>1124.0</ele><time>2026-05-02T16:12:24.281Z</time></trkpt><trkpt lat="42.2219946" lon="13.2646236"><ele>1124.5</ele><time>2026-05-02T16:12:25.271Z</time></trkpt><trkpt lat="42.2220704" lon="13.2645557"><ele>1125.0</ele><time>2026-05-02T16:12:26.28Z</time></trkpt><trkpt lat="42.2221455" lon="13.2645034"><ele>1125.5</ele><time>2026-05-02T16:12:27.278Z</time></trkpt><trkpt lat="42.2222323" lon="13.2644675"><ele>1126.0</ele><time>2026-05-02T16:12:28.277Z</time></trkpt><trkpt lat="42.2223136" lon="13.2644235"><ele>1126.5</ele><time>2026-05-02T16:12:29.28Z</time></trkpt><trkpt lat="42.2223893" lon="13.2643698"><ele>1127.0</ele><time>2026-05-02T16:12:30.283Z</time></trkpt><trkpt lat="42.222461" lon="13.2642926"><ele>1127.0</ele><time>2026-05-02T16:12:31.274Z</time></trkpt><trkpt lat="42.2225221" lon="13.2641864"><ele>1127.0</ele><time>2026-05-02T16:12:32.277Z</time></trkpt><trkpt lat="42.2225802" lon="13.2640974"><ele>1127.0</ele><time>2026-05-02T16:12:33.276Z</time></trkpt><trkpt lat="42.2226581" lon="13.2640487"><ele>1127.0</ele><time>2026-05-02T16:12:34.277Z</time></trkpt><trkpt lat="42.222752" lon="13.2640193"><ele>1127.0</ele><time>2026-05-02T16:12:35.274Z</time></trkpt><trkpt lat="42.2228546" lon="13.2639596"><ele>1127.0</ele><time>2026-05-02T16:12:36.275Z</time></trkpt><trkpt lat="42.2229703" lon="13.2638789"><ele>1127.0</ele><time>2026-05-02T16:12:37.294Z</time></trkpt><trkpt lat="42.2230889" lon="13.2637853"><ele>1127.0</ele><time>2026-05-02T16:12:38.29Z</time></trkpt><trkpt lat="42.2231973" lon="13.263712"><ele>1127.0</ele><time>2026-05-02T16:12:39.358Z</time></trkpt><trkpt lat="42.2232945" lon="13.26365"><ele>1127.0</ele><time>2026-05-02T16:12:40.354Z</time></trkpt><trkpt lat="42.2233685" lon="13.2635887"><ele>1127.0</ele><time>2026-05-02T16:12:41.361Z</time></trkpt><trkpt lat="42.2234243" lon="13.2635281"><ele>1127.0</ele><time>2026-05-02T16:12:42.368Z</time></trkpt><trkpt lat="42.2234982" lon="13.2634556"><ele>1127.0</ele><time>2026-05-02T16:12:43.284Z</time></trkpt><trkpt lat="42.2235513" lon="13.2633949"><ele>1127.0</ele><time>2026-05-02T16:12:44.277Z</time></trkpt><trkpt lat="42.2236137" lon="13.2633597"><ele>1127.0</ele><time>2026-05-02T16:12:45.269Z</time></trkpt><trkpt lat="42.2237402" lon="13.2633599"><ele>1127.0</ele><time>2026-05-02T16:12:47.281Z</time></trkpt><trkpt lat="42.2238251" lon="13.263372"><ele>1127.0</ele><time>2026-05-02T16:12:48.287Z</time></trkpt><trkpt lat="42.2239325" lon="13.2633889"><ele>1127.0</ele><time>2026-05-02T16:12:49.279Z</time></trkpt><trkpt lat="42.2240453" lon="13.2633958"><ele>1127.0</ele><time>2026-05-02T16:12:50.279Z</time></trkpt><trkpt lat="42.2241528" lon="13.2634016"><ele>1127.0</ele><time>2026-05-02T16:12:51.277Z</time></trkpt><trkpt lat="42.2242532" lon="13.263427"><ele>1129.0</ele><time>2026-05-02T16:12:52.281Z</time></trkpt><trkpt lat="42.2243627" lon="13.2634426"><ele>1131.0</ele><time>2026-05-02T16:12:53.276Z</time></trkpt><trkpt lat="42.2244735" lon="13.2634478"><ele>1133.0</ele><time>2026-05-02T16:12:54.276Z</time></trkpt><trkpt lat="42.2245766" lon="13.2634617"><ele>1135.0</ele><time>2026-05-02T16:12:55.269Z</time></trkpt><trkpt lat="42.224678" lon="13.2634672"><ele>1137.0</ele><time>2026-05-02T16:12:56.272Z</time></trkpt><trkpt lat="42.2247848" lon="13.2634626"><ele>1139.0</ele><time>2026-05-02T16:12:57.273Z</time></trkpt><trkpt lat="42.2249041" lon="13.2634273"><ele>1141.0</ele><time>2026-05-02T16:12:58.273Z</time></trkpt><trkpt lat="42.2250275" lon="13.263369"><ele>1143.0</ele><time>2026-05-02T16:12:59.274Z</time></trkpt><trkpt lat="42.2251439" lon="13.2633266"><ele>1145.0</ele><time>2026-05-02T16:13:00.275Z</time></trkpt><trkpt lat="42.2252485" lon="13.2632992"><ele>1145.0</ele><time>2026-05-02T16:13:01.275Z</time></trkpt><trkpt lat="42.2253568" lon="13.2632881"><ele>1145.0</ele><time>2026-05-02T16:13:02.27Z</time></trkpt><trkpt lat="42.2254561" lon="13.2632741"><ele>1145.0</ele><time>2026-05-02T16:13:03.261Z</time></trkpt><trkpt lat="42.2255623" lon="13.2632564"><ele>1145.0</ele><time>2026-05-02T16:13:04.262Z</time></trkpt><trkpt lat="42.2256749" lon="13.2632252"><ele>1145.0</ele><time>2026-05-02T16:13:05.271Z</time></trkpt><trkpt lat="42.2257901" lon="13.2631675"><ele>1146.4</ele><time>2026-05-02T16:13:06.271Z</time></trkpt><trkpt lat="42.2258944" lon="13.2631483"><ele>1147.8</ele><time>2026-05-02T16:13:07.272Z</time></trkpt><trkpt lat="42.225997" lon="13.2631236"><ele>1149.2</ele><time>2026-05-02T16:13:08.272Z</time></trkpt><trkpt lat="42.2261089" lon="13.2631192"><ele>1150.6</ele><time>2026-05-02T16:13:09.272Z</time></trkpt><trkpt lat="42.2262178" lon="13.2631301"><ele>1152.0</ele><time>2026-05-02T16:13:10.269Z</time></trkpt><trkpt lat="42.2263076" lon="13.2631426"><ele>1152.0</ele><time>2026-05-02T16:13:11.271Z</time></trkpt><trkpt lat="42.2263854" lon="13.263171"><ele>1152.0</ele><time>2026-05-02T16:13:12.267Z</time></trkpt><trkpt lat="42.2264662" lon="13.2632153"><ele>1152.0</ele><time>2026-05-02T16:13:13.273Z</time></trkpt><trkpt lat="42.2265428" lon="13.2632665"><ele>1152.0</ele><time>2026-05-02T16:13:14.273Z</time></trkpt><trkpt lat="42.2266106" lon="13.2633233"><ele>1152.0</ele><time>2026-05-02T16:13:15.26Z</time></trkpt><trkpt lat="42.2266697" lon="13.2634041"><ele>1152.0</ele><time>2026-05-02T16:13:16.265Z</time></trkpt><trkpt lat="42.2267153" lon="13.2635091"><ele>1152.0</ele><time>2026-05-02T16:13:17.275Z</time></trkpt><trkpt lat="42.2267619" lon="13.2636259"><ele>1152.0</ele><time>2026-05-02T16:13:18.275Z</time></trkpt><trkpt lat="42.2267971" lon="13.2637496"><ele>1152.0</ele><time>2026-05-02T16:13:19.278Z</time></trkpt><trkpt lat="42.2268205" lon="13.2638676"><ele>1152.0</ele><time>2026-05-02T16:13:20.272Z</time></trkpt><trkpt lat="42.226839" lon="13.2639883"><ele>1152.0</ele><time>2026-05-02T16:13:21.273Z</time></trkpt><trkpt lat="42.2268738" lon="13.2640905"><ele>1154.6</ele><time>2026-05-02T16:13:22.263Z</time></trkpt><trkpt lat="42.2269116" lon="13.2641778"><ele>1157.2</ele><time>2026-05-02T16:13:23.267Z</time></trkpt><trkpt lat="42.2269731" lon="13.2642728"><ele>1159.8</ele><time>2026-05-02T16:13:25.268Z</time></trkpt><trkpt lat="42.2270542" lon="13.2643795"><ele>1162.4</ele><time>2026-05-02T16:13:28.273Z</time></trkpt><trkpt lat="42.2270981" lon="13.2644414"><ele>1165.0</ele><time>2026-05-02T16:13:29.268Z</time></trkpt><trkpt lat="42.2271865" lon="13.2645546"><ele>1165.0</ele><time>2026-05-02T16:13:31.267Z</time></trkpt><trkpt lat="42.2273104" lon="13.2646248"><ele>1165.0</ele><time>2026-05-02T16:13:33.267Z</time></trkpt><trkpt lat="42.2273772" lon="13.2646215"><ele>1165.0</ele><time>2026-05-02T16:13:34.267Z</time></trkpt><trkpt lat="42.2274549" lon="13.2645764"><ele>1165.0</ele><time>2026-05-02T16:13:35.263Z</time></trkpt><trkpt lat="42.2275447" lon="13.2645284"><ele>1165.0</ele><time>2026-05-02T16:13:36.278Z</time></trkpt><trkpt lat="42.2276487" lon="13.2644919"><ele>1164.4</ele><time>2026-05-02T16:13:37.27Z</time></trkpt><trkpt lat="42.2277563" lon="13.2644641"><ele>1163.8</ele><time>2026-05-02T16:13:38.274Z</time></trkpt><trkpt lat="42.2278586" lon="13.2644374"><ele>1163.2</ele><time>2026-05-02T16:13:39.265Z</time></trkpt><trkpt lat="42.227956" lon="13.2644057"><ele>1162.6</ele><time>2026-05-02T16:13:40.265Z</time></trkpt><trkpt lat="42.2280561" lon="13.2643623"><ele>1162.0</ele><time>2026-05-02T16:13:41.267Z</time></trkpt><trkpt lat="42.2281667" lon="13.2643009"><ele>1162.2</ele><time>2026-05-02T16:13:42.27Z</time></trkpt><trkpt lat="42.228265" lon="13.2642527"><ele>1162.4</ele><time>2026-05-02T16:13:43.263Z</time></trkpt><trkpt lat="42.2283411" lon="13.2641908"><ele>1162.6</ele><time>2026-05-02T16:13:44.258Z</time></trkpt><trkpt lat="42.228405" lon="13.2641321"><ele>1162.8</ele><time>2026-05-02T16:13:45.264Z</time></trkpt><trkpt lat="42.2284641" lon="13.2640474"><ele>1163.0</ele><time>2026-05-02T16:13:46.259Z</time></trkpt><trkpt lat="42.2285218" lon="13.2639458"><ele>1163.0</ele><time>2026-05-02T16:13:47.272Z</time></trkpt><trkpt lat="42.2285886" lon="13.2638609"><ele>1163.0</ele><time>2026-05-02T16:13:48.27Z</time></trkpt><trkpt lat="42.2286622" lon="13.2637708"><ele>1163.0</ele><time>2026-05-02T16:13:49.272Z</time></trkpt><trkpt lat="42.2287468" lon="13.2636633"><ele>1163.0</ele><time>2026-05-02T16:13:50.282Z</time></trkpt><trkpt lat="42.2288346" lon="13.2635575"><ele>1163.0</ele><time>2026-05-02T16:13:51.276Z</time></trkpt><trkpt lat="42.2289221" lon="13.2634716"><ele>1167.25</ele><time>2026-05-02T16:13:52.272Z</time></trkpt><trkpt lat="42.2290251" lon="13.263379"><ele>1171.5</ele><time>2026-05-02T16:13:53.269Z</time></trkpt><trkpt lat="42.2291198" lon="13.2632873"><ele>1175.75</ele><time>2026-05-02T16:13:54.274Z</time></trkpt><trkpt lat="42.2292296" lon="13.2631952"><ele>1180.0</ele><time>2026-05-02T16:13:55.277Z</time></trkpt><trkpt lat="42.2293259" lon="13.2630965"><ele>1180.0</ele><time>2026-05-02T16:13:56.266Z</time></trkpt><trkpt lat="42.2294056" lon="13.2630068"><ele>1180.0</ele><time>2026-05-02T16:13:57.278Z</time></trkpt><trkpt lat="42.2294578" lon="13.262942"><ele>1180.0</ele><time>2026-05-02T16:13:58.272Z</time></trkpt><trkpt lat="42.2294857" lon="13.2628578"><ele>1180.0</ele><time>2026-05-02T16:13:59.273Z</time></trkpt><trkpt lat="42.2294975" lon="13.2627674"><ele>1180.0</ele><time>2026-05-02T16:14:00.273Z</time></trkpt><trkpt lat="42.2294761" lon="13.2626642"><ele>1180.0</ele><time>2026-05-02T16:14:01.265Z</time></trkpt><trkpt lat="42.2294364" lon="13.2625461"><ele>1180.0</ele><time>2026-05-02T16:14:02.269Z</time></trkpt><trkpt lat="42.2293911" lon="13.262422"><ele>1180.0</ele><time>2026-05-02T16:14:03.272Z</time></trkpt><trkpt lat="42.2293587" lon="13.262337"><ele>1180.0</ele><time>2026-05-02T16:14:04.267Z</time></trkpt><trkpt lat="42.2293641" lon="13.2622185"><ele>1180.0</ele><time>2026-05-02T16:14:06.264Z</time></trkpt><trkpt lat="42.2294282" lon="13.2621333"><ele>1180.0</ele><time>2026-05-02T16:14:08.269Z</time></trkpt><trkpt lat="42.2295051" lon="13.2620637"><ele>1180.0</ele><time>2026-05-02T16:14:10.269Z</time></trkpt><trkpt lat="42.229555" lon="13.2619647"><ele>1179.6</ele><time>2026-05-02T16:14:12.28Z</time></trkpt><trkpt lat="42.2295845" lon="13.261871"><ele>1179.2</ele><time>2026-05-02T16:14:15.28Z</time></trkpt><trkpt lat="42.2296379" lon="13.261711"><ele>1178.8</ele><time>2026-05-02T16:15:32.273Z</time></trkpt><trkpt lat="42.2296689" lon="13.2616201"><ele>1178.4</ele><time>2026-05-02T16:15:33.258Z</time></trkpt><trkpt lat="42.229707" lon="13.2615246"><ele>1178.0</ele><time>2026-05-02T16:15:34.259Z</time></trkpt><trkpt lat="42.2296911" lon="13.2613847"><ele>1177.4285714285713</ele><time>2026-05-02T16:15:36.26Z</time></trkpt><trkpt lat="42.2296623" lon="13.261302"><ele>1176.8571428571427</ele><time>2026-05-02T16:15:37.265Z</time></trkpt><trkpt lat="42.2296431" lon="13.2612012"><ele>1176.2857142857142</ele><time>2026-05-02T16:15:38.274Z</time></trkpt><trkpt lat="42.2296364" lon="13.2611006"><ele>1175.7142857142858</ele><time>2026-05-02T16:15:39.259Z</time></trkpt><trkpt lat="42.2296526" lon="13.2610031"><ele>1175.1428571428573</ele><time>2026-05-02T16:15:40.275Z</time></trkpt><trkpt lat="42.2296899" lon="13.2609184"><ele>1174.5714285714287</ele><time>2026-05-02T16:15:41.269Z</time></trkpt><trkpt lat="42.229738" lon="13.2608582"><ele>1174.0</ele><time>2026-05-02T16:15:42.267Z</time></trkpt><trkpt lat="42.2297962" lon="13.2608214"><ele>1177.8333333333333</ele><time>2026-05-02T16:15:43.263Z</time></trkpt><trkpt lat="42.2298621" lon="13.2607931"><ele>1181.6666666666665</ele><time>2026-05-02T16:15:44.263Z</time></trkpt><trkpt lat="42.2299387" lon="13.2607943"><ele>1185.5</ele><time>2026-05-02T16:15:45.26Z</time></trkpt><trkpt lat="42.2300194" lon="13.2608143"><ele>1189.3333333333333</ele><time>2026-05-02T16:15:46.258Z</time></trkpt><trkpt lat="42.2301058" lon="13.2608324"><ele>1193.1666666666667</ele><time>2026-05-02T16:15:47.262Z</time></trkpt><trkpt lat="42.23019" lon="13.2608808"><ele>1197.0</ele><time>2026-05-02T16:15:48.263Z</time></trkpt><trkpt lat="42.2302709" lon="13.2609355"><ele>1197.0</ele><time>2026-05-02T16:15:49.26Z</time></trkpt><trkpt lat="42.2303477" lon="13.2609942"><ele>1197.0</ele><time>2026-05-02T16:15:50.257Z</time></trkpt><trkpt lat="42.2304118" lon="13.2610235"><ele>1197.0</ele><time>2026-05-02T16:15:51.26Z</time></trkpt><trkpt lat="42.2305412" lon="13.2609762"><ele>1197.0</ele><time>2026-05-02T16:15:53.263Z</time></trkpt><trkpt lat="42.230602" lon="13.2609052"><ele>1197.0</ele><time>2026-05-02T16:15:54.251Z</time></trkpt><trkpt lat="42.2306823" lon="13.2607776"><ele>1195.6</ele><time>2026-05-02T16:15:55.26Z</time></trkpt><trkpt lat="42.230754" lon="13.2606422"><ele>1194.2</ele><time>2026-05-02T16:15:56.264Z</time></trkpt><trkpt lat="42.2308198" lon="13.2605273"><ele>1192.8</ele><time>2026-05-02T16:15:57.268Z</time></trkpt><trkpt lat="42.2308863" lon="13.2604721"><ele>1191.4</ele><time>2026-05-02T16:15:58.265Z</time></trkpt><trkpt lat="42.2309625" lon="13.2604402"><ele>1190.0</ele><time>2026-05-02T16:15:59.266Z</time></trkpt><trkpt lat="42.2310517" lon="13.2604149"><ele>1190.0</ele><time>2026-05-02T16:16:00.262Z</time></trkpt><trkpt lat="42.2311572" lon="13.2604071"><ele>1190.0</ele><time>2026-05-02T16:16:01.267Z</time></trkpt><trkpt lat="42.2312713" lon="13.260406"><ele>1190.0</ele><time>2026-05-02T16:16:02.273Z</time></trkpt><trkpt lat="42.2313881" lon="13.2604091"><ele>1190.0</ele><time>2026-05-02T16:16:03.264Z</time></trkpt><trkpt lat="42.2314951" lon="13.2604186"><ele>1190.0</ele><time>2026-05-02T16:16:04.264Z</time></trkpt><trkpt lat="42.2315855" lon="13.2604346"><ele>1191.6</ele><time>2026-05-02T16:16:05.261Z</time></trkpt><trkpt lat="42.2316781" lon="13.2604679"><ele>1193.2</ele><time>2026-05-02T16:16:06.268Z</time></trkpt><trkpt lat="42.2317759" lon="13.2605425"><ele>1194.8</ele><time>2026-05-02T16:16:07.264Z</time></trkpt><trkpt lat="42.2318778" lon="13.2606158"><ele>1196.4</ele><time>2026-05-02T16:16:08.262Z</time></trkpt><trkpt lat="42.2319867" lon="13.2606961"><ele>1198.0</ele><time>2026-05-02T16:16:09.261Z</time></trkpt><trkpt lat="42.232094" lon="13.2607552"><ele>1199.25</ele><time>2026-05-02T16:16:10.259Z</time></trkpt><trkpt lat="42.2322041" lon="13.2608002"><ele>1200.5</ele><time>2026-05-02T16:16:11.269Z</time></trkpt><trkpt lat="42.2323149" lon="13.2608595"><ele>1201.75</ele><time>2026-05-02T16:16:12.268Z</time></trkpt><trkpt lat="42.2324228" lon="13.2609493"><ele>1203.0</ele><time>2026-05-02T16:16:13.263Z</time></trkpt><trkpt lat="42.2325282" lon="13.2610454"><ele>1203.0</ele><time>2026-05-02T16:16:14.269Z</time></trkpt><trkpt lat="42.2326427" lon="13.2611379"><ele>1203.0</ele><time>2026-05-02T16:16:15.266Z</time></trkpt><trkpt lat="42.2327498" lon="13.2612321"><ele>1203.0</ele><time>2026-05-02T16:16:16.266Z</time></trkpt><trkpt lat="42.2328532" lon="13.2613188"><ele>1203.0</ele><time>2026-05-02T16:16:17.267Z</time></trkpt><trkpt lat="42.2329459" lon="13.2613907"><ele>1203.5</ele><time>2026-05-02T16:16:18.265Z</time></trkpt><trkpt lat="42.2330196" lon="13.2614654"><ele>1204.0</ele><time>2026-05-02T16:16:19.26Z</time></trkpt><trkpt lat="42.2330869" lon="13.2615511"><ele>1204.5</ele><time>2026-05-02T16:16:20.264Z</time></trkpt><trkpt lat="42.2331639" lon="13.2616291"><ele>1205.0</ele><time>2026-05-02T16:16:21.268Z</time></trkpt><trkpt lat="42.2332258" lon="13.2617076"><ele>1205.5</ele><time>2026-05-02T16:16:22.262Z</time></trkpt><trkpt lat="42.2332773" lon="13.2617773"><ele>1206.0</ele><time>2026-05-02T16:16:23.261Z</time></trkpt><trkpt lat="42.2333347" lon="13.2618594"><ele>1206.0</ele><time>2026-05-02T16:16:24.254Z</time></trkpt><trkpt lat="42.2333928" lon="13.2619016"><ele>1206.0</ele><time>2026-05-02T16:16:25.262Z</time></trkpt><trkpt lat="42.2334617" lon="13.2619132"><ele>1206.0</ele><time>2026-05-02T16:16:26.261Z</time></trkpt><trkpt lat="42.230754" lon="13.2606422"><ele>1202.8</ele><time>2026-05-02T16:15:56.264Z</time></trkpt><trkpt lat="42.2308198" lon="13.2605273"><ele>1199.6</ele><time>2026-05-02T16:15:57.268Z</time></trkpt><trkpt lat="42.2308863" lon="13.2604721"><ele>1196.4</ele><time>2026-05-02T16:15:58.265Z</time></trkpt><trkpt lat="42.2309625" lon="13.2604402"><ele>1193.2</ele><time>2026-05-02T16:15:59.266Z</time></trkpt><trkpt lat="42.2310517" lon="13.2604149"><ele>1190.0</ele><time>2026-05-02T16:16:00.262Z</time></trkpt><trkpt lat="42.2311572" lon="13.2604071"><ele>1190.0</ele><time>2026-05-02T16:16:01.267Z</time></trkpt><trkpt lat="42.2312713" lon="13.260406"><ele>1190.0</ele><time>2026-05-02T16:16:02.273Z</time></trkpt><trkpt lat="42.2313881" lon="13.2604091"><ele>1190.0</ele><time>2026-05-02T16:16:03.264Z</time></trkpt><trkpt lat="42.2314951" lon="13.2604186"><ele>1190.0</ele><time>2026-05-02T16:16:04.264Z</time></trkpt><trkpt lat="42.2315855" lon="13.2604346"><ele>1190.0</ele><time>2026-05-02T16:16:05.261Z</time></trkpt><trkpt lat="42.2316781" lon="13.2604679"><ele>1192.0</ele><time>2026-05-02T16:16:06.268Z</time></trkpt><trkpt lat="42.2317759" lon="13.2605425"><ele>1194.0</ele><time>2026-05-02T16:16:07.264Z</time></trkpt><trkpt lat="42.2318778" lon="13.2606158"><ele>1196.0</ele><time>2026-05-02T16:16:08.262Z</time></trkpt><trkpt lat="42.2319867" lon="13.2606961"><ele>1198.0</ele><time>2026-05-02T16:16:09.261Z</time></trkpt><trkpt lat="42.232094" lon="13.2607552"><ele>1199.25</ele><time>2026-05-02T16:16:10.259Z</time></trkpt><trkpt lat="42.2322041" lon="13.2608002"><ele>1200.5</ele><time>2026-05-02T16:16:11.269Z</time></trkpt><trkpt lat="42.2323149" lon="13.2608595"><ele>1201.75</ele><time>2026-05-02T16:16:12.268Z</time></trkpt><trkpt lat="42.2324228" lon="13.2609493"><ele>1203.0</ele><time>2026-05-02T16:16:13.263Z</time></trkpt><trkpt lat="42.2325282" lon="13.2610454"><ele>1203.0</ele><time>2026-05-02T16:16:14.269Z</time></trkpt><trkpt lat="42.2326427" lon="13.2611379"><ele>1203.0</ele><time>2026-05-02T16:16:15.266Z</time></trkpt><trkpt lat="42.2327498" lon="13.2612321"><ele>1203.0</ele><time>2026-05-02T16:16:16.266Z</time></trkpt><trkpt lat="42.2328532" lon="13.2613188"><ele>1203.0</ele><time>2026-05-02T16:16:17.267Z</time></trkpt><trkpt lat="42.2329459" lon="13.2613907"><ele>1203.5</ele><time>2026-05-02T16:16:18.265Z</time></trkpt><trkpt lat="42.2330196" lon="13.2614654"><ele>1204.0</ele><time>2026-05-02T16:16:19.26Z</time></trkpt><trkpt lat="42.2330869" lon="13.2615511"><ele>1204.5</ele><time>2026-05-02T16:16:20.264Z</time></trkpt><trkpt lat="42.2331639" lon="13.2616291"><ele>1205.0</ele><time>2026-05-02T16:16:21.268Z</time></trkpt><trkpt lat="42.2332258" lon="13.2617076"><ele>1205.5</ele><time>2026-05-02T16:16:22.262Z</time></trkpt><trkpt lat="42.2332773" lon="13.2617773"><ele>1206.0</ele><time>2026-05-02T16:16:23.261Z</time></trkpt><trkpt lat="42.2333347" lon="13.2618594"><ele>1206.0</ele><time>2026-05-02T16:16:24.254Z</time></trkpt><trkpt lat="42.2333928" lon="13.2619016"><ele>1206.0</ele><time>2026-05-02T16:16:25.262Z</time></trkpt><trkpt lat="42.2334617" lon="13.2619132"><ele>1206.0</ele><time>2026-05-02T16:16:26.261Z</time></trkpt><trkpt lat="42.2335466" lon="13.2619376"><ele>1206.0</ele><time>2026-05-02T16:16:27.263Z</time></trkpt><trkpt lat="42.2336477" lon="13.2619784"><ele>1206.0</ele><time>2026-05-02T16:16:28.291Z</time></trkpt><trkpt lat="42.2337369" lon="13.262027"><ele>1206.0</ele><time>2026-05-02T16:16:29.27Z</time></trkpt><trkpt lat="42.2338284" lon="13.262083"><ele>1206.0</ele><time>2026-05-02T16:16:30.275Z</time></trkpt><trkpt lat="42.2339163" lon="13.2621464"><ele>1206.0</ele><time>2026-05-02T16:16:31.281Z</time></trkpt><trkpt lat="42.2339973" lon="13.2621866"><ele>1206.0</ele><time>2026-05-02T16:16:32.268Z</time></trkpt><trkpt lat="42.2340659" lon="13.2621883"><ele>1206.0</ele><time>2026-05-02T16:16:33.27Z</time></trkpt><trkpt lat="42.234131" lon="13.2621469"><ele>1206.0</ele><time>2026-05-02T16:16:34.263Z</time></trkpt><trkpt lat="42.2342027" lon="13.262092"><ele>1206.0</ele><time>2026-05-02T16:16:35.27Z</time></trkpt><trkpt lat="42.2342839" lon="13.262043"><ele>1205.0</ele><time>2026-05-02T16:16:36.271Z</time></trkpt><trkpt lat="42.2343679" lon="13.2619829"><ele>1204.0</ele><time>2026-05-02T16:16:37.261Z</time></trkpt><trkpt lat="42.2344654" lon="13.2619322"><ele>1203.0</ele><time>2026-05-02T16:16:38.279Z</time></trkpt><trkpt lat="42.2345744" lon="13.2618772"><ele>1202.0</ele><time>2026-05-02T16:16:39.351Z</time></trkpt><trkpt lat="42.2346844" lon="13.2618189"><ele>1201.0</ele><time>2026-05-02T16:16:40.358Z</time></trkpt><trkpt lat="42.2347955" lon="13.2617565"><ele>1204.5</ele><time>2026-05-02T16:16:41.355Z</time></trkpt><trkpt lat="42.2349093" lon="13.2617008"><ele>1208.0</ele><time>2026-05-02T16:16:42.352Z</time></trkpt><trkpt lat="42.2350238" lon="13.2616503"><ele>1211.5</ele><time>2026-05-02T16:16:43.349Z</time></trkpt><trkpt lat="42.2351292" lon="13.2616173"><ele>1215.0</ele><time>2026-05-02T16:16:44.347Z</time></trkpt><trkpt lat="42.2352325" lon="13.2615955"><ele>1215.0</ele><time>2026-05-02T16:16:45.345Z</time></trkpt><trkpt lat="42.235319" lon="13.2615222"><ele>1215.0</ele><time>2026-05-02T16:16:46.27Z</time></trkpt><trkpt lat="42.2353941" lon="13.2614833"><ele>1215.0</ele><time>2026-05-02T16:16:47.258Z</time></trkpt><trkpt lat="42.2354761" lon="13.2613615"><ele>1215.0</ele><time>2026-05-02T16:16:49.268Z</time></trkpt><trkpt lat="42.2355222" lon="13.2612976"><ele>1215.0</ele><time>2026-05-02T16:16:50.26Z</time></trkpt><trkpt lat="42.2355771" lon="13.2612448"><ele>1215.0</ele><time>2026-05-02T16:16:51.265Z</time></trkpt><trkpt lat="42.2356536" lon="13.2611755"><ele>1216.6</ele><time>2026-05-02T16:16:52.267Z</time></trkpt><trkpt lat="42.2357384" lon="13.2611044"><ele>1218.2</ele><time>2026-05-02T16:16:53.261Z</time></trkpt><trkpt lat="42.2358396" lon="13.2610403"><ele>1219.8</ele><time>2026-05-02T16:16:54.27Z</time></trkpt><trkpt lat="42.2359413" lon="13.2609835"><ele>1221.4</ele><time>2026-05-02T16:16:55.268Z</time></trkpt><trkpt lat="42.2360381" lon="13.2609576"><ele>1223.0</ele><time>2026-05-02T16:16:56.263Z</time></trkpt><trkpt lat="42.2361387" lon="13.2609363"><ele>1223.0</ele><time>2026-05-02T16:16:57.27Z</time></trkpt><trkpt lat="42.2362432" lon="13.2609101"><ele>1223.0</ele><time>2026-05-02T16:16:58.272Z</time></trkpt><trkpt lat="42.2363512" lon="13.2608759"><ele>1223.0</ele><time>2026-05-02T16:16:59.264Z</time></trkpt><trkpt lat="42.2364588" lon="13.2608411"><ele>1223.0</ele><time>2026-05-02T16:17:00.265Z</time></trkpt><trkpt lat="42.2365507" lon="13.2608159"><ele>1223.0</ele><time>2026-05-02T16:17:01.276Z</time></trkpt><trkpt lat="42.2366322" lon="13.2607717"><ele>1223.8</ele><time>2026-05-02T16:17:02.266Z</time></trkpt><trkpt lat="42.2367261" lon="13.2607169"><ele>1224.6</ele><time>2026-05-02T16:17:03.266Z</time></trkpt><trkpt lat="42.2368218" lon="13.2606543"><ele>1225.4</ele><time>2026-05-02T16:17:04.267Z</time></trkpt><trkpt lat="42.2369076" lon="13.2606028"><ele>1226.2</ele><time>2026-05-02T16:17:05.259Z</time></trkpt><trkpt lat="42.236983" lon="13.260571"><ele>1227.0</ele><time>2026-05-02T16:17:06.27Z</time></trkpt><trkpt lat="42.2370568" lon="13.2605597"><ele>1226.8</ele><time>2026-05-02T16:17:07.257Z</time></trkpt><trkpt lat="42.2371512" lon="13.2605671"><ele>1226.6</ele><time>2026-05-02T16:17:08.262Z</time></trkpt><trkpt lat="42.2372534" lon="13.2606022"><ele>1226.3999999999999</ele><time>2026-05-02T16:17:09.267Z</time></trkpt><trkpt lat="42.2373581" lon="13.2606407"><ele>1226.2</ele><time>2026-05-02T16:17:10.267Z</time></trkpt><trkpt lat="42.2374611" lon="13.260657"><ele>1226.0</ele><time>2026-05-02T16:17:11.255Z</time></trkpt><trkpt lat="42.2375702" lon="13.2606544"><ele>1226.0</ele><time>2026-05-02T16:17:12.261Z</time></trkpt><trkpt lat="42.2376922" lon="13.2606311"><ele>1226.0</ele><time>2026-05-02T16:17:13.263Z</time></trkpt><trkpt lat="42.2377954" lon="13.2606174"><ele>1226.0</ele><time>2026-05-02T16:17:14.269Z</time></trkpt><trkpt lat="42.2378909" lon="13.2605827"><ele>1226.0</ele><time>2026-05-02T16:17:15.266Z</time></trkpt><trkpt lat="42.2379867" lon="13.2605434"><ele>1226.0</ele><time>2026-05-02T16:17:16.268Z</time></trkpt><trkpt lat="42.2380796" lon="13.2605048"><ele>1225.0</ele><time>2026-05-02T16:17:17.278Z</time></trkpt><trkpt lat="42.2381666" lon="13.2604781"><ele>1224.0</ele><time>2026-05-02T16:17:18.269Z</time></trkpt><trkpt lat="42.238273" lon="13.2604652"><ele>1223.0</ele><time>2026-05-02T16:17:19.276Z</time></trkpt><trkpt lat="42.2383703" lon="13.2604462"><ele>1222.0</ele><time>2026-05-02T16:17:20.269Z</time></trkpt><trkpt lat="42.2384683" lon="13.2604161"><ele>1221.0</ele><time>2026-05-02T16:17:21.265Z</time></trkpt><trkpt lat="42.2385514" lon="13.260366"><ele>1221.0</ele><time>2026-05-02T16:17:22.266Z</time></trkpt><trkpt lat="42.2386217" lon="13.2602884"><ele>1221.0</ele><time>2026-05-02T16:17:23.263Z</time></trkpt><trkpt lat="42.2386953" lon="13.2602048"><ele>1221.0</ele><time>2026-05-02T16:17:24.268Z</time></trkpt><trkpt lat="42.2387667" lon="13.2601514"><ele>1221.0</ele><time>2026-05-02T16:17:25.258Z</time></trkpt><trkpt lat="42.238838" lon="13.2601328"><ele>1221.0</ele><time>2026-05-02T16:17:26.266Z</time></trkpt><trkpt lat="42.2389017" lon="13.2601473"><ele>1221.0</ele><time>2026-05-02T16:17:27.274Z</time></trkpt><trkpt lat="42.2389569" lon="13.2601951"><ele>1220.0</ele><time>2026-05-02T16:17:28.263Z</time></trkpt><trkpt lat="42.2390196" lon="13.2602698"><ele>1219.0</ele><time>2026-05-02T16:17:29.267Z</time></trkpt><trkpt lat="42.2390965" lon="13.2603533"><ele>1218.0</ele><time>2026-05-02T16:17:30.265Z</time></trkpt><trkpt lat="42.239177" lon="13.2604416"><ele>1217.0</ele><time>2026-05-02T16:17:31.261Z</time></trkpt><trkpt lat="42.2392818" lon="13.260526"><ele>1216.0</ele><time>2026-05-02T16:17:32.259Z</time></trkpt><trkpt lat="42.239397" lon="13.2606077"><ele>1219.25</ele><time>2026-05-02T16:17:33.264Z</time></trkpt><trkpt lat="42.2395203" lon="13.260672"><ele>1222.5</ele><time>2026-05-02T16:17:34.269Z</time></trkpt><trkpt lat="42.2396259" lon="13.2607354"><ele>1225.75</ele><time>2026-05-02T16:17:35.255Z</time></trkpt><trkpt lat="42.2397468" lon="13.2607764"><ele>1229.0</ele><time>2026-05-02T16:17:36.269Z</time></trkpt><trkpt lat="42.2398494" lon="13.2607981"><ele>1229.0</ele><time>2026-05-02T16:17:37.263Z</time></trkpt><trkpt lat="42.239955" lon="13.2608056"><ele>1229.0</ele><time>2026-05-02T16:17:38.258Z</time></trkpt><trkpt lat="42.2400385" lon="13.260786"><ele>1229.0</ele><time>2026-05-02T16:17:39.246Z</time></trkpt><trkpt lat="42.2401492" lon="13.2607555"><ele>1229.0</ele><time>2026-05-02T16:17:40.267Z</time></trkpt><trkpt lat="42.2402516" lon="13.2607155"><ele>1229.0</ele><time>2026-05-02T16:17:41.265Z</time></trkpt><trkpt lat="42.2403461" lon="13.2606761"><ele>1229.0</ele><time>2026-05-02T16:17:42.263Z</time></trkpt><trkpt lat="42.2404498" lon="13.2606355"><ele>1229.0</ele><time>2026-05-02T16:17:43.266Z</time></trkpt><trkpt lat="42.2405449" lon="13.2606034"><ele>1229.0</ele><time>2026-05-02T16:17:44.265Z</time></trkpt><trkpt lat="42.2406357" lon="13.2605665"><ele>1229.0</ele><time>2026-05-02T16:17:45.262Z</time></trkpt><trkpt lat="42.2407287" lon="13.2605393"><ele>1229.0</ele><time>2026-05-02T16:17:46.258Z</time></trkpt><trkpt lat="42.2408048" lon="13.2605241"><ele>1227.3333333333335</ele><time>2026-05-02T16:17:47.27Z</time></trkpt><trkpt lat="42.2408755" lon="13.2604849"><ele>1225.6666666666667</ele><time>2026-05-02T16:17:48.269Z</time></trkpt><trkpt lat="42.2409536" lon="13.2604466"><ele>1224.0</ele><time>2026-05-02T16:17:49.265Z</time></trkpt><trkpt lat="42.2410206" lon="13.2604033"><ele>1222.3333333333333</ele><time>2026-05-02T16:17:50.268Z</time></trkpt><trkpt lat="42.2410952" lon="13.2603696"><ele>1220.6666666666665</ele><time>2026-05-02T16:17:51.268Z</time></trkpt><trkpt lat="42.2411653" lon="13.2603271"><ele>1219.0</ele><time>2026-05-02T16:17:52.268Z</time></trkpt><trkpt lat="42.2412422" lon="13.2602748"><ele>1219.0</ele><time>2026-05-02T16:17:53.266Z</time></trkpt><trkpt lat="42.2413094" lon="13.2602061"><ele>1219.0</ele><time>2026-05-02T16:17:54.267Z</time></trkpt><trkpt lat="42.2413765" lon="13.2601372"><ele>1219.0</ele><time>2026-05-02T16:17:55.267Z</time></trkpt><trkpt lat="42.2414187" lon="13.2600657"><ele>1219.0</ele><time>2026-05-02T16:17:56.263Z</time></trkpt><trkpt lat="42.2414896" lon="13.2600002"><ele>1219.0</ele><time>2026-05-02T16:17:58.269Z</time></trkpt><trkpt lat="42.2416233" lon="13.2600221"><ele>1221.3333333333333</ele><time>2026-05-02T16:18:00.266Z</time></trkpt><trkpt lat="42.2417146" lon="13.2600368"><ele>1223.6666666666665</ele><time>2026-05-02T16:18:01.27Z</time></trkpt><trkpt lat="42.2418105" lon="13.260043"><ele>1226.0</ele><time>2026-05-02T16:18:02.261Z</time></trkpt><trkpt lat="42.2418983" lon="13.2600392"><ele>1228.3333333333333</ele><time>2026-05-02T16:18:03.257Z</time></trkpt><trkpt lat="42.2419584" lon="13.2599987"><ele>1230.6666666666667</ele><time>2026-05-02T16:18:04.252Z</time></trkpt><trkpt lat="42.2420245" lon="13.259943"><ele>1233.0</ele><time>2026-05-02T16:18:05.267Z</time></trkpt><trkpt lat="42.2420873" lon="13.2598849"><ele>1233.0</ele><time>2026-05-02T16:18:06.263Z</time></trkpt><trkpt lat="42.2421616" lon="13.2598519"><ele>1233.0</ele><time>2026-05-02T16:18:07.254Z</time></trkpt><trkpt lat="42.2422589" lon="13.2598313"><ele>1233.0</ele><time>2026-05-02T16:18:08.262Z</time></trkpt><trkpt lat="42.2423717" lon="13.2597864"><ele>1233.0</ele><time>2026-05-02T16:18:09.264Z</time></trkpt><trkpt lat="42.2424659" lon="13.2597276"><ele>1233.0</ele><time>2026-05-02T16:18:10.26Z</time></trkpt><trkpt lat="42.2425539" lon="13.2596795"><ele>1231.8</ele><time>2026-05-02T16:18:11.258Z</time></trkpt><trkpt lat="42.2426294" lon="13.2596463"><ele>1230.6</ele><time>2026-05-02T16:18:12.253Z</time></trkpt><trkpt lat="42.2427213" lon="13.2596429"><ele>1229.4</ele><time>2026-05-02T16:18:13.268Z</time></trkpt><trkpt lat="42.2428251" lon="13.2596499"><ele>1228.2</ele><time>2026-05-02T16:18:14.261Z</time></trkpt><trkpt lat="42.2429122" lon="13.259638"><ele>1227.0</ele><time>2026-05-02T16:18:15.261Z</time></trkpt><trkpt lat="42.2430078" lon="13.2596099"><ele>1227.0</ele><time>2026-05-02T16:18:16.26Z</time></trkpt><trkpt lat="42.2431004" lon="13.2595454"><ele>1227.0</ele><time>2026-05-02T16:18:17.267Z</time></trkpt><trkpt lat="42.243182" lon="13.2594781"><ele>1227.0</ele><time>2026-05-02T16:18:18.27Z</time></trkpt><trkpt lat="42.2432649" lon="13.2594025"><ele>1227.0</ele><time>2026-05-02T16:18:19.271Z</time></trkpt><trkpt lat="42.2433476" lon="13.2593335"><ele>1227.0</ele><time>2026-05-02T16:18:20.264Z</time></trkpt><trkpt lat="42.2434149" lon="13.2592683"><ele>1228.5</ele><time>2026-05-02T16:18:21.264Z</time></trkpt><trkpt lat="42.2434669" lon="13.2592094"><ele>1230.0</ele><time>2026-05-02T16:18:22.277Z</time></trkpt><trkpt lat="42.2435338" lon="13.259159"><ele>1231.5</ele><time>2026-05-02T16:18:23.27Z</time></trkpt><trkpt lat="42.2436081" lon="13.2591111"><ele>1233.0</ele><time>2026-05-02T16:18:24.274Z</time></trkpt><trkpt lat="42.2436979" lon="13.2590598"><ele>1234.5</ele><time>2026-05-02T16:18:25.255Z</time></trkpt><trkpt lat="42.2438035" lon="13.2589945"><ele>1236.0</ele><time>2026-05-02T16:18:26.269Z</time></trkpt><trkpt lat="42.2438966" lon="13.2589327"><ele>1239.0</ele><time>2026-05-02T16:18:27.263Z</time></trkpt><trkpt lat="42.2439761" lon="13.2588562"><ele>1242.0</ele><time>2026-05-02T16:18:28.26Z</time></trkpt><trkpt lat="42.2440315" lon="13.258776"><ele>1245.0</ele><time>2026-05-02T16:18:29.27Z</time></trkpt><trkpt lat="42.2440747" lon="13.2586861"><ele>1248.0</ele><time>2026-05-02T16:18:30.264Z</time></trkpt><trkpt lat="42.244166" lon="13.2585941"><ele>1251.0</ele><time>2026-05-02T16:18:32.266Z</time></trkpt><trkpt lat="42.2442792" lon="13.2585268"><ele>1251.0</ele><time>2026-05-02T16:18:34.262Z</time></trkpt><trkpt lat="42.2443502" lon="13.258516"><ele>1251.0</ele><time>2026-05-02T16:18:35.255Z</time></trkpt><trkpt lat="42.2444375" lon="13.2585118"><ele>1251.0</ele><time>2026-05-02T16:18:36.27Z</time></trkpt><trkpt lat="42.244531" lon="13.258521"><ele>1251.0</ele><time>2026-05-02T16:18:37.259Z</time></trkpt><trkpt lat="42.2446193" lon="13.2585413"><ele>1251.0</ele><time>2026-05-02T16:18:38.261Z</time></trkpt><trkpt lat="42.2446983" lon="13.2585922"><ele>1251.0</ele><time>2026-05-02T16:18:39.268Z</time></trkpt><trkpt lat="42.2447714" lon="13.2586532"><ele>1250.3999999999999</ele><time>2026-05-02T16:18:40.262Z</time></trkpt><trkpt lat="42.244846" lon="13.2587174"><ele>1249.8</ele><time>2026-05-02T16:18:41.272Z</time></trkpt><trkpt lat="42.2449217" lon="13.258784"><ele>1249.1999999999998</ele><time>2026-05-02T16:18:42.268Z</time></trkpt><trkpt lat="42.2450104" lon="13.2588601"><ele>1248.6</ele><time>2026-05-02T16:18:43.263Z</time></trkpt><trkpt lat="42.2450911" lon="13.2589471"><ele>1248.0</ele><time>2026-05-02T16:18:44.261Z</time></trkpt><trkpt lat="42.2451781" lon="13.2590384"><ele>1249.2</ele><time>2026-05-02T16:18:45.263Z</time></trkpt><trkpt lat="42.2452595" lon="13.2591196"><ele>1250.4</ele><time>2026-05-02T16:18:46.271Z</time></trkpt><trkpt lat="42.2453528" lon="13.2591842"><ele>1251.6000000000001</ele><time>2026-05-02T16:18:47.264Z</time></trkpt><trkpt lat="42.2454712" lon="13.2592215"><ele>1252.8</ele><time>2026-05-02T16:18:48.269Z</time></trkpt><trkpt lat="42.2455869" lon="13.2592585"><ele>1254.0</ele><time>2026-05-02T16:18:49.268Z</time></trkpt><trkpt lat="42.2457011" lon="13.259293"><ele>1254.0</ele><time>2026-05-02T16:18:50.262Z</time></trkpt><trkpt lat="42.2458037" lon="13.2593262"><ele>1254.0</ele><time>2026-05-02T16:18:51.264Z</time></trkpt><trkpt lat="42.2459007" lon="13.2593487"><ele>1254.0</ele><time>2026-05-02T16:18:52.259Z</time></trkpt><trkpt lat="42.2459928" lon="13.2593854"><ele>1254.0</ele><time>2026-05-02T16:18:53.264Z</time></trkpt><trkpt lat="42.246084" lon="13.2594257"><ele>1254.0</ele><time>2026-05-02T16:18:54.256Z</time></trkpt><trkpt lat="42.2461595" lon="13.259465"><ele>1254.0</ele><time>2026-05-02T16:18:55.265Z</time></trkpt><trkpt lat="42.2462161" lon="13.2595176"><ele>1254.0</ele><time>2026-05-02T16:18:56.264Z</time></trkpt><trkpt lat="42.2462537" lon="13.2595928"><ele>1254.0</ele><time>2026-05-02T16:18:57.256Z</time></trkpt><trkpt lat="42.2462602" lon="13.2597454"><ele>1254.0</ele><time>2026-05-02T16:18:59.262Z</time></trkpt><trkpt lat="42.246252" lon="13.2598331"><ele>1254.0</ele><time>2026-05-02T16:19:00.269Z</time></trkpt><trkpt lat="42.2462404" lon="13.2599883"><ele>1254.0</ele><time>2026-05-02T16:19:02.267Z</time></trkpt><trkpt lat="42.2463156" lon="13.2600863"><ele>1257.0</ele><time>2026-05-02T16:19:04.265Z</time></trkpt><trkpt lat="42.2464342" lon="13.2601164"><ele>1260.0</ele><time>2026-05-02T16:19:06.264Z</time></trkpt><trkpt lat="42.246501" lon="13.2601105"><ele>1263.0</ele><time>2026-05-02T16:19:07.262Z</time></trkpt><trkpt lat="42.2465732" lon="13.2601035"><ele>1266.0</ele><time>2026-05-02T16:19:08.26Z</time></trkpt><trkpt lat="42.2466579" lon="13.2600864"><ele>1269.0</ele><time>2026-05-02T16:19:09.255Z</time></trkpt><trkpt lat="42.2467414" lon="13.2600426"><ele>1272.0</ele><time>2026-05-02T16:19:10.258Z</time></trkpt><trkpt lat="42.246821" lon="13.2599651"><ele>1271.1666666666667</ele><time>2026-05-02T16:19:11.263Z</time></trkpt><trkpt lat="42.2468809" lon="13.2598767"><ele>1270.3333333333333</ele><time>2026-05-02T16:19:12.26Z</time></trkpt><trkpt lat="42.2469274" lon="13.2597754"><ele>1269.5</ele><time>2026-05-02T16:19:13.259Z</time></trkpt><trkpt lat="42.2469788" lon="13.2597034"><ele>1268.6666666666665</ele><time>2026-05-02T16:19:14.263Z</time></trkpt><trkpt lat="42.2470526" lon="13.2597017"><ele>1267.8333333333333</ele><time>2026-05-02T16:19:16.263Z</time></trkpt><trkpt lat="42.247119" lon="13.2598129"><ele>1267.0</ele><time>2026-05-02T16:19:18.264Z</time></trkpt><trkpt lat="42.2471067" lon="13.2599778"><ele>1268.8333333333333</ele><time>2026-05-02T16:19:20.266Z</time></trkpt><trkpt lat="42.2470722" lon="13.2600656"><ele>1270.6666666666665</ele><time>2026-05-02T16:19:21.268Z</time></trkpt><trkpt lat="42.2470377" lon="13.2601716"><ele>1272.5</ele><time>2026-05-02T16:19:22.267Z</time></trkpt><trkpt lat="42.2470242" lon="13.2602549"><ele>1274.3333333333333</ele><time>2026-05-02T16:19:23.258Z</time></trkpt><trkpt lat="42.2470724" lon="13.2603369"><ele>1276.1666666666667</ele><time>2026-05-02T16:19:25.265Z</time></trkpt><trkpt lat="42.2471628" lon="13.2603609"><ele>1278.0</ele><time>2026-05-02T16:19:27.271Z</time></trkpt><trkpt lat="42.2472393" lon="13.2603077"><ele>1278.0</ele><time>2026-05-02T16:19:29.272Z</time></trkpt><trkpt lat="42.2472667" lon="13.2602308"><ele>1278.0</ele><time>2026-05-02T16:19:30.274Z</time></trkpt><trkpt lat="42.2473041" lon="13.2601161"><ele>1278.0</ele><time>2026-05-02T16:19:31.251Z</time></trkpt><trkpt lat="42.2473491" lon="13.2600035"><ele>1278.0</ele><time>2026-05-02T16:19:32.261Z</time></trkpt><trkpt lat="42.2473634" lon="13.2598601"><ele>1278.0</ele><time>2026-05-02T16:19:33.261Z</time></trkpt><trkpt lat="42.2473799" lon="13.2597211"><ele>1279.3333333333333</ele><time>2026-05-02T16:19:34.264Z</time></trkpt><trkpt lat="42.2474255" lon="13.2596088"><ele>1280.6666666666667</ele><time>2026-05-02T16:19:35.261Z</time></trkpt><trkpt lat="42.2474781" lon="13.2595056"><ele>1282.0</ele><time>2026-05-02T16:19:36.264Z</time></trkpt><trkpt lat="42.2475278" lon="13.2594275"><ele>1283.3333333333335</ele><time>2026-05-02T16:19:37.263Z</time></trkpt><trkpt lat="42.2476002" lon="13.2593746"><ele>1284.6666666666667</ele><time>2026-05-02T16:19:38.263Z</time></trkpt><trkpt lat="42.2476752" lon="13.2593239"><ele>1286.0</ele><time>2026-05-02T16:19:39.267Z</time></trkpt><trkpt lat="42.2477382" lon="13.2592673"><ele>1286.0</ele><time>2026-05-02T16:19:40.255Z</time></trkpt><trkpt lat="42.2477743" lon="13.2591947"><ele>1286.0</ele><time>2026-05-02T16:19:41.262Z</time></trkpt><trkpt lat="42.2478062" lon="13.2591052"><ele>1286.0</ele><time>2026-05-02T16:19:42.263Z</time></trkpt><trkpt lat="42.2478433" lon="13.2590248"><ele>1286.0</ele><time>2026-05-02T16:19:43.268Z</time></trkpt><trkpt lat="42.2478979" lon="13.2589675"><ele>1286.0</ele><time>2026-05-02T16:19:44.272Z</time></trkpt><trkpt lat="42.2479704" lon="13.2589384"><ele>1286.0</ele><time>2026-05-02T16:19:45.264Z</time></trkpt><trkpt lat="42.2480372" lon="13.2588906"><ele>1286.0</ele><time>2026-05-02T16:19:46.27Z</time></trkpt><trkpt lat="42.2480874" lon="13.2587987"><ele>1288.4</ele><time>2026-05-02T16:19:47.269Z</time></trkpt><trkpt lat="42.2481298" lon="13.2586815"><ele>1290.8</ele><time>2026-05-02T16:19:48.269Z</time></trkpt><trkpt lat="42.2481763" lon="13.2585564"><ele>1293.2</ele><time>2026-05-02T16:19:49.275Z</time></trkpt><trkpt lat="42.2482199" lon="13.2584227"><ele>1295.6000000000001</ele><time>2026-05-02T16:19:50.269Z</time></trkpt><trkpt lat="42.2482514" lon="13.2583128"><ele>1298.0</ele><time>2026-05-02T16:19:51.27Z</time></trkpt><trkpt lat="42.2482888" lon="13.2582063"><ele>1295.2</ele><time>2026-05-02T16:19:52.268Z</time></trkpt><trkpt lat="42.2483398" lon="13.2581076"><ele>1292.4</ele><time>2026-05-02T16:19:53.265Z</time></trkpt><trkpt lat="42.2484113" lon="13.2579962"><ele>1289.6000000000001</ele><time>2026-05-02T16:19:54.274Z</time></trkpt><trkpt lat="42.2484702" lon="13.2578767"><ele>1286.8000000000002</ele><time>2026-05-02T16:19:55.267Z</time></trkpt><trkpt lat="42.2485149" lon="13.2577601"><ele>1284.0</ele><time>2026-05-02T16:19:56.274Z</time></trkpt><trkpt lat="42.2485557" lon="13.257631"><ele>1284.0</ele><time>2026-05-02T16:19:57.268Z</time></trkpt><trkpt lat="42.248598" lon="13.2574888"><ele>1284.0</ele><time>2026-05-02T16:19:58.274Z</time></trkpt><trkpt lat="42.2486555" lon="13.2573627"><ele>1284.0</ele><time>2026-05-02T16:19:59.269Z</time></trkpt><trkpt lat="42.2487125" lon="13.2572624"><ele>1284.0</ele><time>2026-05-02T16:20:00.278Z</time></trkpt><trkpt lat="42.2487754" lon="13.2571733"><ele>1284.0</ele><time>2026-05-02T16:20:01.282Z</time></trkpt><trkpt lat="42.2488436" lon="13.2571019"><ele>1285.4</ele><time>2026-05-02T16:20:02.275Z</time></trkpt><trkpt lat="42.2489268" lon="13.2570373"><ele>1286.8000000000002</ele><time>2026-05-02T16:20:03.265Z</time></trkpt><trkpt lat="42.2490102" lon="13.2569845"><ele>1288.1999999999998</ele><time>2026-05-02T16:20:04.272Z</time></trkpt><trkpt lat="42.2491058" lon="13.2569409"><ele>1289.6</ele><time>2026-05-02T16:20:05.269Z</time></trkpt><trkpt lat="42.249214" lon="13.25689"><ele>1291.0</ele><time>2026-05-02T16:20:06.265Z</time></trkpt><trkpt lat="42.2493243" lon="13.2568512"><ele>1291.0</ele><time>2026-05-02T16:20:07.271Z</time></trkpt><trkpt lat="42.2494162" lon="13.2568341"><ele>1291.0</ele><time>2026-05-02T16:20:08.263Z</time></trkpt><trkpt lat="42.2495132" lon="13.2568314"><ele>1291.0</ele><time>2026-05-02T16:20:09.272Z</time></trkpt><trkpt lat="42.2496122" lon="13.2568449"><ele>1291.0</ele><time>2026-05-02T16:20:10.266Z</time></trkpt><trkpt lat="42.2497064" lon="13.2568519"><ele>1291.0</ele><time>2026-05-02T16:20:11.269Z</time></trkpt><trkpt lat="42.2497788" lon="13.2568498"><ele>1291.6</ele><time>2026-05-02T16:20:12.272Z</time></trkpt><trkpt lat="42.2498965" lon="13.2568361"><ele>1292.1999999999998</ele><time>2026-05-02T16:20:14.273Z</time></trkpt><trkpt lat="42.2499595" lon="13.2568007"><ele>1292.8000000000002</ele><time>2026-05-02T16:20:15.264Z</time></trkpt><trkpt lat="42.2500424" lon="13.2567512"><ele>1293.4</ele><time>2026-05-02T16:20:16.269Z</time></trkpt><trkpt lat="42.2501441" lon="13.2566855"><ele>1294.0</ele><time>2026-05-02T16:20:17.27Z</time></trkpt><trkpt lat="42.2502478" lon="13.2566165"><ele>1294.0</ele><time>2026-05-02T16:20:18.273Z</time></trkpt><trkpt lat="42.2503268" lon="13.2565456"><ele>1294.0</ele><time>2026-05-02T16:20:19.271Z</time></trkpt><trkpt lat="42.2503985" lon="13.2564875"><ele>1294.0</ele><time>2026-05-02T16:20:20.267Z</time></trkpt><trkpt lat="42.2504697" lon="13.2564479"><ele>1294.0</ele><time>2026-05-02T16:20:21.265Z</time></trkpt><trkpt lat="42.2505316" lon="13.2564193"><ele>1294.0</ele><time>2026-05-02T16:20:22.268Z</time></trkpt><trkpt lat="42.2506082" lon="13.256396"><ele>1294.0</ele><time>2026-05-02T16:20:23.266Z</time></trkpt><trkpt lat="42.2506987" lon="13.2563852"><ele>1290.6000000000001</ele><time>2026-05-02T16:20:24.273Z</time></trkpt><trkpt lat="42.250806" lon="13.2563816"><ele>1287.2</ele><time>2026-05-02T16:20:25.278Z</time></trkpt><trkpt lat="42.2509194" lon="13.2563888"><ele>1283.8000000000002</ele><time>2026-05-02T16:20:26.27Z</time></trkpt><trkpt lat="42.2510274" lon="13.2563936"><ele>1280.4</ele><time>2026-05-02T16:20:27.274Z</time></trkpt><trkpt lat="42.2511256" lon="13.2563938"><ele>1277.0</ele><time>2026-05-02T16:20:28.272Z</time></trkpt><trkpt lat="42.251212" lon="13.2564205"><ele>1280.6</ele><time>2026-05-02T16:20:29.273Z</time></trkpt><trkpt lat="42.2512883" lon="13.2564738"><ele>1284.2</ele><time>2026-05-02T16:20:30.277Z</time></trkpt><trkpt lat="42.2513714" lon="13.2565258"><ele>1287.8</ele><time>2026-05-02T16:20:31.275Z</time></trkpt><trkpt lat="42.2514775" lon="13.2565753"><ele>1291.4</ele><time>2026-05-02T16:20:32.269Z</time></trkpt><trkpt lat="42.2515789" lon="13.2566282"><ele>1295.0</ele><time>2026-05-02T16:20:33.281Z</time></trkpt><trkpt lat="42.2516697" lon="13.2566716"><ele>1295.5</ele><time>2026-05-02T16:20:34.266Z</time></trkpt><trkpt lat="42.2517367" lon="13.2567017"><ele>1296.0</ele><time>2026-05-02T16:20:35.269Z</time></trkpt><trkpt lat="42.2518238" lon="13.2567019"><ele>1296.5</ele><time>2026-05-02T16:20:37.282Z</time></trkpt><trkpt lat="42.2518853" lon="13.2566293"><ele>1297.0</ele><time>2026-05-02T16:20:39.285Z</time></trkpt><trkpt lat="42.2519286" lon="13.256544"><ele>1297.5</ele><time>2026-05-02T16:20:40.286Z</time></trkpt><trkpt lat="42.2519906" lon="13.2564419"><ele>1298.0</ele><time>2026-05-02T16:20:41.286Z</time></trkpt><trkpt lat="42.2520533" lon="13.2563072"><ele>1298.75</ele><time>2026-05-02T16:20:42.355Z</time></trkpt><trkpt lat="42.2521176" lon="13.2561738"><ele>1299.5</ele><time>2026-05-02T16:20:43.362Z</time></trkpt><trkpt lat="42.2521916" lon="13.2560409"><ele>1300.25</ele><time>2026-05-02T16:20:44.368Z</time></trkpt><trkpt lat="42.2522724" lon="13.2559138"><ele>1301.0</ele><time>2026-05-02T16:20:45.355Z</time></trkpt><trkpt lat="42.252353" lon="13.2557896"><ele>1301.0</ele><time>2026-05-02T16:20:46.365Z</time></trkpt><trkpt lat="42.2524432" lon="13.2556531"><ele>1301.0</ele><time>2026-05-02T16:20:47.338Z</time></trkpt><trkpt lat="42.2525435" lon="13.2555104"><ele>1301.0</ele><time>2026-05-02T16:20:48.337Z</time></trkpt><trkpt lat="42.2526438" lon="13.2554006"><ele>1301.0</ele><time>2026-05-02T16:20:49.347Z</time></trkpt><trkpt lat="42.252756" lon="13.2553174"><ele>1299.6</ele><time>2026-05-02T16:20:51.363Z</time></trkpt><trkpt lat="42.2528437" lon="13.2552248"><ele>1298.1999999999998</ele><time>2026-05-02T16:20:52.36Z</time></trkpt><trkpt lat="42.2529337" lon="13.2551384"><ele>1296.8000000000002</ele><time>2026-05-02T16:20:54.359Z</time></trkpt><trkpt lat="42.2530284" lon="13.2550871"><ele>1295.4</ele><time>2026-05-02T16:20:55.35Z</time></trkpt><trkpt lat="42.2531246" lon="13.2550583"><ele>1294.0</ele><time>2026-05-02T16:20:56.37Z</time></trkpt><trkpt lat="42.2533248" lon="13.25502"><ele>1294.0</ele><time>2026-05-02T16:20:58.258Z</time></trkpt><trkpt lat="42.2534007" lon="13.2549844"><ele>1294.0</ele><time>2026-05-02T16:20:59.262Z</time></trkpt><trkpt lat="42.2534684" lon="13.2549477"><ele>1294.0</ele><time>2026-05-02T16:21:00.258Z</time></trkpt><trkpt lat="42.2535358" lon="13.2549093"><ele>1294.0</ele><time>2026-05-02T16:21:01.271Z</time></trkpt><trkpt lat="42.2536143" lon="13.254845"><ele>1294.0</ele><time>2026-05-02T16:21:02.267Z</time></trkpt><trkpt lat="42.2537128" lon="13.254771"><ele>1294.0</ele><time>2026-05-02T16:21:03.271Z</time></trkpt><trkpt lat="42.2538034" lon="13.2547133"><ele>1292.0</ele><time>2026-05-02T16:21:04.269Z</time></trkpt><trkpt lat="42.2538924" lon="13.2546762"><ele>1290.0</ele><time>2026-05-02T16:21:05.27Z</time></trkpt><trkpt lat="42.2539926" lon="13.2546418"><ele>1288.0</ele><time>2026-05-02T16:21:06.27Z</time></trkpt><trkpt lat="42.2540991" lon="13.2545912"><ele>1286.0</ele><time>2026-05-02T16:21:07.27Z</time></trkpt><trkpt lat="42.2542064" lon="13.2545311"><ele>1284.0</ele><time>2026-05-02T16:21:08.267Z</time></trkpt><trkpt lat="42.2543184" lon="13.254472"><ele>1284.0</ele><time>2026-05-02T16:21:09.268Z</time></trkpt><trkpt lat="42.254426" lon="13.2544059"><ele>1284.0</ele><time>2026-05-02T16:21:10.27Z</time></trkpt><trkpt lat="42.2545373" lon="13.2543249"><ele>1284.0</ele><time>2026-05-02T16:21:11.27Z</time></trkpt><trkpt lat="42.2546281" lon="13.2542491"><ele>1284.0</ele><time>2026-05-02T16:21:12.274Z</time></trkpt><trkpt lat="42.2547113" lon="13.2541829"><ele>1284.0</ele><time>2026-05-02T16:21:13.265Z</time></trkpt><trkpt lat="42.254789" lon="13.2541236"><ele>1282.2</ele><time>2026-05-02T16:21:14.267Z</time></trkpt><trkpt lat="42.254869" lon="13.2540899"><ele>1280.4</ele><time>2026-05-02T16:21:15.268Z</time></trkpt><trkpt lat="42.2549593" lon="13.2540581"><ele>1278.6</ele><time>2026-05-02T16:21:16.274Z</time></trkpt><trkpt lat="42.25507" lon="13.2540105"><ele>1276.8</ele><time>2026-05-02T16:21:17.275Z</time></trkpt><trkpt lat="42.2551968" lon="13.2539483"><ele>1275.0</ele><time>2026-05-02T16:21:18.27Z</time></trkpt><trkpt lat="42.2553164" lon="13.2538874"><ele>1275.0</ele><time>2026-05-02T16:21:19.279Z</time></trkpt><trkpt lat="42.2554365" lon="13.2538185"><ele>1275.0</ele><time>2026-05-02T16:21:20.272Z</time></trkpt><trkpt lat="42.2555395" lon="13.2537354"><ele>1275.0</ele><time>2026-05-02T16:21:21.27Z</time></trkpt><trkpt lat="42.2556268" lon="13.2536648"><ele>1275.0</ele><time>2026-05-02T16:21:22.276Z</time></trkpt><trkpt lat="42.2557091" lon="13.2535885"><ele>1277.4</ele><time>2026-05-02T16:21:23.269Z</time></trkpt><trkpt lat="42.2557785" lon="13.2535071"><ele>1279.8</ele><time>2026-05-02T16:21:24.272Z</time></trkpt><trkpt lat="42.255822" lon="13.2534034"><ele>1282.1999999999998</ele><time>2026-05-02T16:21:25.264Z</time></trkpt><trkpt lat="42.255856" lon="13.2532985"><ele>1284.6</ele><time>2026-05-02T16:21:26.26Z</time></trkpt><trkpt lat="42.2558618" lon="13.2531689"><ele>1287.0</ele><time>2026-05-02T16:21:27.259Z</time></trkpt><trkpt lat="42.25586" lon="13.2530234"><ele>1287.0</ele><time>2026-05-02T16:21:28.275Z</time></trkpt><trkpt lat="42.2558556" lon="13.2528878"><ele>1287.0</ele><time>2026-05-02T16:21:29.266Z</time></trkpt><trkpt lat="42.2558543" lon="13.2527779"><ele>1287.0</ele><time>2026-05-02T16:21:30.267Z</time></trkpt><trkpt lat="42.2558692" lon="13.2526568"><ele>1287.0</ele><time>2026-05-02T16:21:31.268Z</time></trkpt><trkpt lat="42.2558917" lon="13.25253"><ele>1287.0</ele><time>2026-05-02T16:21:32.269Z</time></trkpt><trkpt lat="42.2559209" lon="13.2524043"><ele>1287.0</ele><time>2026-05-02T16:21:33.263Z</time></trkpt><trkpt lat="42.2559571" lon="13.2522921"><ele>1287.0</ele><time>2026-05-02T16:21:34.264Z</time></trkpt><trkpt lat="42.2559971" lon="13.2521899"><ele>1287.0</ele><time>2026-05-02T16:21:35.266Z</time></trkpt><trkpt lat="42.2560476" lon="13.252106"><ele>1287.0</ele><time>2026-05-02T16:21:36.266Z</time></trkpt><trkpt lat="42.2561164" lon="13.2520524"><ele>1287.0</ele><time>2026-05-02T16:21:37.266Z</time></trkpt><trkpt lat="42.2562013" lon="13.2520087"><ele>1287.0</ele><time>2026-05-02T16:21:38.267Z</time></trkpt><trkpt lat="42.2562896" lon="13.251949"><ele>1286.1999999999998</ele><time>2026-05-02T16:21:39.264Z</time></trkpt><trkpt lat="42.2563805" lon="13.2518566"><ele>1285.4</ele><time>2026-05-02T16:21:40.267Z</time></trkpt><trkpt lat="42.2564556" lon="13.2517665"><ele>1284.6</ele><time>2026-05-02T16:21:41.26Z</time></trkpt><trkpt lat="42.2565281" lon="13.2516955"><ele>1283.8000000000002</ele><time>2026-05-02T16:21:42.26Z</time></trkpt><trkpt lat="42.2566083" lon="13.2516589"><ele>1283.0</ele><time>2026-05-02T16:21:43.271Z</time></trkpt><trkpt lat="42.256699" lon="13.2516305"><ele>1285.8000000000002</ele><time>2026-05-02T16:21:44.262Z</time></trkpt><trkpt lat="42.2568001" lon="13.2516028"><ele>1288.6</ele><time>2026-05-02T16:21:45.267Z</time></trkpt><trkpt lat="42.2568934" lon="13.251567"><ele>1291.4</ele><time>2026-05-02T16:21:46.272Z</time></trkpt><trkpt lat="42.2569759" lon="13.2515331"><ele>1294.1999999999998</ele><time>2026-05-02T16:21:47.258Z</time></trkpt><trkpt lat="42.257076" lon="13.2515276"><ele>1297.0</ele><time>2026-05-02T16:21:49.264Z</time></trkpt><trkpt lat="42.2570943" lon="13.2516104"><ele>1297.0</ele><time>2026-05-02T16:21:53.272Z</time></trkpt><trkpt lat="42.2571103" lon="13.2516939"><ele>1297.0</ele><time>2026-05-02T16:21:55.277Z</time></trkpt><trkpt lat="42.2571572" lon="13.25182"><ele>1297.0</ele><time>2026-05-02T16:21:57.259Z</time></trkpt><trkpt lat="42.2571948" lon="13.2519252"><ele>1297.0</ele><time>2026-05-02T16:21:58.268Z</time></trkpt><trkpt lat="42.2572044" lon="13.2520268"><ele>1297.0</ele><time>2026-05-02T16:21:59.261Z</time></trkpt><trkpt lat="42.2572109" lon="13.2521313"><ele>1297.0</ele><time>2026-05-02T16:22:00.27Z</time></trkpt><trkpt lat="42.2572146" lon="13.252244"><ele>1297.8333333333333</ele><time>2026-05-02T16:22:01.262Z</time></trkpt><trkpt lat="42.2572184" lon="13.2523489"><ele>1298.6666666666665</ele><time>2026-05-02T16:22:02.262Z</time></trkpt><trkpt lat="42.2572196" lon="13.2524555"><ele>1299.5</ele><time>2026-05-02T16:22:03.267Z</time></trkpt><trkpt lat="42.2572374" lon="13.25259"><ele>1300.3333333333333</ele><time>2026-05-02T16:22:05.272Z</time></trkpt><trkpt lat="42.2572742" lon="13.2526791"><ele>1301.1666666666667</ele><time>2026-05-02T16:22:07.273Z</time></trkpt><trkpt lat="42.257357" lon="13.2526994"><ele>1302.0</ele><time>2026-05-02T16:22:09.28Z</time></trkpt><trkpt lat="42.257463" lon="13.252656"><ele>1299.6</ele><time>2026-05-02T16:22:11.263Z</time></trkpt><trkpt lat="42.2575293" lon="13.252616"><ele>1297.1999999999998</ele><time>2026-05-02T16:22:12.269Z</time></trkpt><trkpt lat="42.2576542" lon="13.2525984"><ele>1294.8</ele><time>2026-05-02T16:22:14.267Z</time></trkpt><trkpt lat="42.2577314" lon="13.2526128"><ele>1292.4</ele><time>2026-05-02T16:22:15.257Z</time></trkpt><trkpt lat="42.2578178" lon="13.2526273"><ele>1290.0</ele><time>2026-05-02T16:22:16.259Z</time></trkpt><trkpt lat="42.2579234" lon="13.2526335"><ele>1290.0</ele><time>2026-05-02T16:22:17.257Z</time></trkpt><trkpt lat="42.2580242" lon="13.2526264"><ele>1290.0</ele><time>2026-05-02T16:22:18.264Z</time></trkpt><trkpt lat="42.2581108" lon="13.2526001"><ele>1290.0</ele><time>2026-05-02T16:22:19.262Z</time></trkpt><trkpt lat="42.2581959" lon="13.2525521"><ele>1290.0</ele><time>2026-05-02T16:22:20.26Z</time></trkpt><trkpt lat="42.2582852" lon="13.252495"><ele>1290.0</ele><time>2026-05-02T16:22:21.26Z</time></trkpt><trkpt lat="42.2583673" lon="13.25243"><ele>1290.0</ele><time>2026-05-02T16:22:22.261Z</time></trkpt><trkpt lat="42.2584443" lon="13.252356"><ele>1290.0</ele><time>2026-05-02T16:22:23.263Z</time></trkpt><trkpt lat="42.2585151" lon="13.2522918"><ele>1290.0</ele><time>2026-05-02T16:22:24.263Z</time></trkpt><trkpt lat="42.2585712" lon="13.2522165"><ele>1290.0</ele><time>2026-05-02T16:22:25.266Z</time></trkpt><trkpt lat="42.2586103" lon="13.2521312"><ele>1290.0</ele><time>2026-05-02T16:22:26.259Z</time></trkpt><trkpt lat="42.2586502" lon="13.2520509"><ele>1290.0</ele><time>2026-05-02T16:22:27.262Z</time></trkpt><trkpt lat="42.2586899" lon="13.2519665"><ele>1289.4</ele><time>2026-05-02T16:22:28.264Z</time></trkpt><trkpt lat="42.2587295" lon="13.2518718"><ele>1288.8</ele><time>2026-05-02T16:22:29.265Z</time></trkpt><trkpt lat="42.2587881" lon="13.2517706"><ele>1288.1999999999998</ele><time>2026-05-02T16:22:30.263Z</time></trkpt><trkpt lat="42.2588583" lon="13.2516643"><ele>1287.6</ele><time>2026-05-02T16:22:31.273Z</time></trkpt><trkpt lat="42.2589281" lon="13.251571"><ele>1287.0</ele><time>2026-05-02T16:22:32.271Z</time></trkpt><trkpt lat="42.2590001" lon="13.2514873"><ele>1283.8333333333333</ele><time>2026-05-02T16:22:33.262Z</time></trkpt><trkpt lat="42.2590732" lon="13.251413"><ele>1280.6666666666667</ele><time>2026-05-02T16:22:34.266Z</time></trkpt><trkpt lat="42.2591465" lon="13.2513603"><ele>1277.5</ele><time>2026-05-02T16:22:35.266Z</time></trkpt><trkpt lat="42.2592302" lon="13.2513201"><ele>1274.3333333333335</ele><time>2026-05-02T16:22:36.268Z</time></trkpt><trkpt lat="42.2593125" lon="13.2512905"><ele>1271.1666666666667</ele><time>2026-05-02T16:22:37.265Z</time></trkpt><trkpt lat="42.2593822" lon="13.2512838"><ele>1268.0</ele><time>2026-05-02T16:22:38.263Z</time></trkpt><trkpt lat="42.2594498" lon="13.2512773"><ele>1268.0</ele><time>2026-05-02T16:22:39.261Z</time></trkpt><trkpt lat="42.2595193" lon="13.2512364"><ele>1268.0</ele><time>2026-05-02T16:22:40.264Z</time></trkpt><trkpt lat="42.2595834" lon="13.2511765"><ele>1268.0</ele><time>2026-05-02T16:22:41.254Z</time></trkpt><trkpt lat="42.2596504" lon="13.2511067"><ele>1268.0</ele><time>2026-05-02T16:22:42.257Z</time></trkpt><trkpt lat="42.2597051" lon="13.2510181"><ele>1268.0</ele><time>2026-05-02T16:22:43.265Z</time></trkpt><trkpt lat="42.2597379" lon="13.2509256"><ele>1268.0</ele><time>2026-05-02T16:22:44.261Z</time></trkpt><trkpt lat="42.2597691" lon="13.2508021"><ele>1268.8</ele><time>2026-05-02T16:22:45.258Z</time></trkpt><trkpt lat="42.2598065" lon="13.2506915"><ele>1269.6</ele><time>2026-05-02T16:22:46.258Z</time></trkpt><trkpt lat="42.2598395" lon="13.2505379"><ele>1270.4</ele><time>2026-05-02T16:22:47.257Z</time></trkpt><trkpt lat="42.2598738" lon="13.2503944"><ele>1271.2</ele><time>2026-05-02T16:22:48.268Z</time></trkpt><trkpt lat="42.2598973" lon="13.2502701"><ele>1272.0</ele><time>2026-05-02T16:22:49.265Z</time></trkpt><trkpt lat="42.2599138" lon="13.2501384"><ele>1272.0</ele><time>2026-05-02T16:22:50.26Z</time></trkpt><trkpt lat="42.2599332" lon="13.2500067"><ele>1272.0</ele><time>2026-05-02T16:22:51.261Z</time></trkpt><trkpt lat="42.2599439" lon="13.2498772"><ele>1272.0</ele><time>2026-05-02T16:22:52.262Z</time></trkpt><trkpt lat="42.2599653" lon="13.2497593"><ele>1272.0</ele><time>2026-05-02T16:22:53.256Z</time></trkpt><trkpt lat="42.2599964" lon="13.2496431"><ele>1272.0</ele><time>2026-05-02T16:22:54.255Z</time></trkpt><trkpt lat="42.2600326" lon="13.2495248"><ele>1270.4</ele><time>2026-05-02T16:22:55.272Z</time></trkpt><trkpt lat="42.2600635" lon="13.249399"><ele>1268.8000000000002</ele><time>2026-05-02T16:22:56.263Z</time></trkpt><trkpt lat="42.2600915" lon="13.2492774"><ele>1267.2</ele><time>2026-05-02T16:22:57.26Z</time></trkpt><trkpt lat="42.2601131" lon="13.2491624"><ele>1265.6000000000001</ele><time>2026-05-02T16:22:58.266Z</time></trkpt><trkpt lat="42.2601333" lon="13.2490346"><ele>1264.0</ele><time>2026-05-02T16:22:59.26Z</time></trkpt><trkpt lat="42.2601617" lon="13.2488914"><ele>1262.75</ele><time>2026-05-02T16:23:00.259Z</time></trkpt><trkpt lat="42.2601911" lon="13.2487299"><ele>1261.5</ele><time>2026-05-02T16:23:01.273Z</time></trkpt><trkpt lat="42.2602214" lon="13.2485624"><ele>1260.25</ele><time>2026-05-02T16:23:02.261Z</time></trkpt><trkpt lat="42.2602371" lon="13.2484069"><ele>1259.0</ele><time>2026-05-02T16:23:03.271Z</time></trkpt><trkpt lat="42.260261" lon="13.2482657"><ele>1259.0</ele><time>2026-05-02T16:23:04.276Z</time></trkpt><trkpt lat="42.2602786" lon="13.2481296"><ele>1259.0</ele><time>2026-05-02T16:23:05.27Z</time></trkpt><trkpt lat="42.2602957" lon="13.2479978"><ele>1259.0</ele><time>2026-05-02T16:23:06.28Z</time></trkpt><trkpt lat="42.2603112" lon="13.2478553"><ele>1259.0</ele><time>2026-05-02T16:23:07.277Z</time></trkpt><trkpt lat="42.2603189" lon="13.2477242"><ele>1259.0</ele><time>2026-05-02T16:23:08.282Z</time></trkpt><trkpt lat="42.260343" lon="13.2476129"><ele>1258.0</ele><time>2026-05-02T16:23:09.281Z</time></trkpt><trkpt lat="42.2603681" lon="13.2475074"><ele>1257.0</ele><time>2026-05-02T16:23:10.284Z</time></trkpt><trkpt lat="42.2603916" lon="13.2474157"><ele>1256.0</ele><time>2026-05-02T16:23:11.275Z</time></trkpt><trkpt lat="42.2604235" lon="13.2473283"><ele>1255.0</ele><time>2026-05-02T16:23:12.277Z</time></trkpt><trkpt lat="42.2604619" lon="13.2472481"><ele>1254.0</ele><time>2026-05-02T16:23:13.282Z</time></trkpt><trkpt lat="42.2605159" lon="13.2471605"><ele>1253.0</ele><time>2026-05-02T16:23:14.276Z</time></trkpt><trkpt lat="42.2605894" lon="13.247069"><ele>1253.75</ele><time>2026-05-02T16:23:15.272Z</time></trkpt><trkpt lat="42.2606755" lon="13.246955"><ele>1254.5</ele><time>2026-05-02T16:23:16.274Z</time></trkpt><trkpt lat="42.2607645" lon="13.2468161"><ele>1255.25</ele><time>2026-05-02T16:23:17.27Z</time></trkpt><trkpt lat="42.2608483" lon="13.2466518"><ele>1256.0</ele><time>2026-05-02T16:23:18.278Z</time></trkpt><trkpt lat="42.2609356" lon="13.2464752"><ele>1254.75</ele><time>2026-05-02T16:23:19.265Z</time></trkpt><trkpt lat="42.2610236" lon="13.246302"><ele>1253.5</ele><time>2026-05-02T16:23:20.276Z</time></trkpt><trkpt lat="42.261099" lon="13.2461537"><ele>1252.25</ele><time>2026-05-02T16:23:21.27Z</time></trkpt><trkpt lat="42.2611873" lon="13.2459951"><ele>1251.0</ele><time>2026-05-02T16:23:22.278Z</time></trkpt><trkpt lat="42.2612827" lon="13.2458428"><ele>1251.0</ele><time>2026-05-02T16:23:23.28Z</time></trkpt><trkpt lat="42.2613708" lon="13.2456896"><ele>1251.0</ele><time>2026-05-02T16:23:24.282Z</time></trkpt><trkpt lat="42.2614391" lon="13.2455435"><ele>1251.0</ele><time>2026-05-02T16:23:25.281Z</time></trkpt><trkpt lat="42.2615033" lon="13.2453909"><ele>1251.0</ele><time>2026-05-02T16:23:26.269Z</time></trkpt><trkpt lat="42.2615771" lon="13.2452287"><ele>1251.5</ele><time>2026-05-02T16:23:27.281Z</time></trkpt><trkpt lat="42.2616406" lon="13.2450701"><ele>1252.0</ele><time>2026-05-02T16:23:28.275Z</time></trkpt><trkpt lat="42.2617241" lon="13.2449247"><ele>1252.5</ele><time>2026-05-02T16:23:29.269Z</time></trkpt><trkpt lat="42.2617675" lon="13.2447905"><ele>1253.0</ele><time>2026-05-02T16:23:30.273Z</time></trkpt><trkpt lat="42.2617905" lon="13.2446807"><ele>1253.0</ele><time>2026-05-02T16:23:31.271Z</time></trkpt><trkpt lat="42.2618049" lon="13.2445555"><ele>1253.0</ele><time>2026-05-02T16:23:32.267Z</time></trkpt><trkpt lat="42.2617941" lon="13.2443835"><ele>1253.0</ele><time>2026-05-02T16:23:33.264Z</time></trkpt><trkpt lat="42.2617839" lon="13.2442497"><ele>1253.0</ele><time>2026-05-02T16:23:34.271Z</time></trkpt><trkpt lat="42.2617455" lon="13.2441039"><ele>1253.0</ele><time>2026-05-02T16:23:35.271Z</time></trkpt><trkpt lat="42.2616816" lon="13.2439622"><ele>1253.0</ele><time>2026-05-02T16:23:36.265Z</time></trkpt><trkpt lat="42.2616171" lon="13.2438368"><ele>1253.0</ele><time>2026-05-02T16:23:37.271Z</time></trkpt><trkpt lat="42.2615212" lon="13.2437253"><ele>1253.0</ele><time>2026-05-02T16:23:38.264Z</time></trkpt><trkpt lat="42.2614161" lon="13.2436263"><ele>1253.0</ele><time>2026-05-02T16:23:39.265Z</time></trkpt><trkpt lat="42.2612961" lon="13.2435173"><ele>1253.0</ele><time>2026-05-02T16:23:40.278Z</time></trkpt><trkpt lat="42.2611651" lon="13.2434119"><ele>1253.0</ele><time>2026-05-02T16:23:41.274Z</time></trkpt><trkpt lat="42.2610586" lon="13.2433309"><ele>1253.0</ele><time>2026-05-02T16:23:42.271Z</time></trkpt><trkpt lat="42.2609705" lon="13.2432323"><ele>1253.0</ele><time>2026-05-02T16:23:43.269Z</time></trkpt><trkpt lat="42.2608941" lon="13.2431493"><ele>1253.0</ele><time>2026-05-02T16:23:44.271Z</time></trkpt><trkpt lat="42.2608384" lon="13.2430635"><ele>1253.0</ele><time>2026-05-02T16:23:45.272Z</time></trkpt><trkpt lat="42.2608112" lon="13.2429534"><ele>1253.0</ele><time>2026-05-02T16:23:46.281Z</time></trkpt><trkpt lat="42.2607949" lon="13.2428224"><ele>1253.0</ele><time>2026-05-02T16:23:47.276Z</time></trkpt><trkpt lat="42.2607896" lon="13.2426628"><ele>1253.0</ele><time>2026-05-02T16:23:48.275Z</time></trkpt><trkpt lat="42.2607764" lon="13.2424921"><ele>1253.0</ele><time>2026-05-02T16:23:49.263Z</time></trkpt><trkpt lat="42.2607509" lon="13.2423167"><ele>1253.0</ele><time>2026-05-02T16:23:50.272Z</time></trkpt><trkpt lat="42.2607089" lon="13.242145"><ele>1253.0</ele><time>2026-05-02T16:23:51.276Z</time></trkpt><trkpt lat="42.2606541" lon="13.2419935"><ele>1253.0</ele><time>2026-05-02T16:23:52.274Z</time></trkpt><trkpt lat="42.2605981" lon="13.2418543"><ele>1249.0</ele><time>2026-05-02T16:23:53.277Z</time></trkpt><trkpt lat="42.2605602" lon="13.2417117"><ele>1245.0</ele><time>2026-05-02T16:23:54.28Z</time></trkpt><trkpt lat="42.2605414" lon="13.2415602"><ele>1241.0</ele><time>2026-05-02T16:23:55.276Z</time></trkpt><trkpt lat="42.2605398" lon="13.2414011"><ele>1237.0</ele><time>2026-05-02T16:23:56.281Z</time></trkpt><trkpt lat="42.2605591" lon="13.2412483"><ele>1236.1666666666665</ele><time>2026-05-02T16:23:57.273Z</time></trkpt><trkpt lat="42.2605878" lon="13.2411301"><ele>1235.3333333333333</ele><time>2026-05-02T16:23:58.285Z</time></trkpt><trkpt lat="42.2606252" lon="13.2410292"><ele>1234.5</ele><time>2026-05-02T16:23:59.278Z</time></trkpt><trkpt lat="42.2606691" lon="13.2409436"><ele>1233.6666666666667</ele><time>2026-05-02T16:24:00.273Z</time></trkpt><trkpt lat="42.2607336" lon="13.2408805"><ele>1232.8333333333335</ele><time>2026-05-02T16:24:01.281Z</time></trkpt><trkpt lat="42.2608219" lon="13.2408276"><ele>1232.0</ele><time>2026-05-02T16:24:02.275Z</time></trkpt><trkpt lat="42.2609275" lon="13.2407799"><ele>1234.75</ele><time>2026-05-02T16:24:03.272Z</time></trkpt><trkpt lat="42.2610486" lon="13.2407344"><ele>1237.5</ele><time>2026-05-02T16:24:04.268Z</time></trkpt><trkpt lat="42.2611707" lon="13.2406735"><ele>1240.25</ele><time>2026-05-02T16:24:05.264Z</time></trkpt><trkpt lat="42.2612707" lon="13.2406073"><ele>1243.0</ele><time>2026-05-02T16:24:06.275Z</time></trkpt><trkpt lat="42.2613534" lon="13.2405512"><ele>1241.8333333333333</ele><time>2026-05-02T16:24:07.273Z</time></trkpt><trkpt lat="42.2614286" lon="13.2405027"><ele>1240.6666666666665</ele><time>2026-05-02T16:24:08.278Z</time></trkpt><trkpt lat="42.2615024" lon="13.2404517"><ele>1239.5</ele><time>2026-05-02T16:24:09.275Z</time></trkpt><trkpt lat="42.2615712" lon="13.2403817"><ele>1238.3333333333333</ele><time>2026-05-02T16:24:10.27Z</time></trkpt><trkpt lat="42.261637" lon="13.2402952"><ele>1237.1666666666667</ele><time>2026-05-02T16:24:11.277Z</time></trkpt><trkpt lat="42.2617025" lon="13.2402"><ele>1236.0</ele><time>2026-05-02T16:24:12.272Z</time></trkpt><trkpt lat="42.2617756" lon="13.2401123"><ele>1236.0</ele><time>2026-05-02T16:24:13.278Z</time></trkpt><trkpt lat="42.2618548" lon="13.2400414"><ele>1236.0</ele><time>2026-05-02T16:24:14.276Z</time></trkpt><trkpt lat="42.2619489" lon="13.239971"><ele>1236.0</ele><time>2026-05-02T16:24:15.268Z</time></trkpt><trkpt lat="42.2620461" lon="13.2399165"><ele>1236.0</ele><time>2026-05-02T16:24:16.266Z</time></trkpt><trkpt lat="42.2621433" lon="13.2398656"><ele>1236.0</ele><time>2026-05-02T16:24:17.265Z</time></trkpt><trkpt lat="42.2622457" lon="13.2398314"><ele>1231.0</ele><time>2026-05-02T16:24:18.268Z</time></trkpt><trkpt lat="42.2623572" lon="13.2397966"><ele>1226.0</ele><time>2026-05-02T16:24:19.265Z</time></trkpt><trkpt lat="42.2624827" lon="13.2397736"><ele>1221.0</ele><time>2026-05-02T16:24:20.266Z</time></trkpt><trkpt lat="42.2626161" lon="13.2397533"><ele>1216.0</ele><time>2026-05-02T16:24:21.27Z</time></trkpt><trkpt lat="42.2627521" lon="13.239747"><ele>1216.0</ele><time>2026-05-02T16:24:22.276Z</time></trkpt><trkpt lat="42.2628781" lon="13.2397428"><ele>1216.0</ele><time>2026-05-02T16:24:23.265Z</time></trkpt><trkpt lat="42.2629929" lon="13.2397421"><ele>1216.0</ele><time>2026-05-02T16:24:24.274Z</time></trkpt><trkpt lat="42.2630945" lon="13.2397291"><ele>1216.0</ele><time>2026-05-02T16:24:25.271Z</time></trkpt><trkpt lat="42.2631804" lon="13.2396904"><ele>1216.0</ele><time>2026-05-02T16:24:26.277Z</time></trkpt><trkpt lat="42.2632445" lon="13.2396307"><ele>1215.8</ele><time>2026-05-02T16:24:27.283Z</time></trkpt><trkpt lat="42.2632978" lon="13.2395038"><ele>1215.6</ele><time>2026-05-02T16:24:29.269Z</time></trkpt><trkpt lat="42.2633057" lon="13.2393907"><ele>1215.4</ele><time>2026-05-02T16:24:30.268Z</time></trkpt><trkpt lat="42.2632992" lon="13.2392372"><ele>1215.2</ele><time>2026-05-02T16:24:31.265Z</time></trkpt><trkpt lat="42.2632888" lon="13.2390695"><ele>1215.0</ele><time>2026-05-02T16:24:32.275Z</time></trkpt><trkpt lat="42.2632948" lon="13.2389146"><ele>1215.0</ele><time>2026-05-02T16:24:33.27Z</time></trkpt><trkpt lat="42.2633015" lon="13.2387777"><ele>1215.0</ele><time>2026-05-02T16:24:34.27Z</time></trkpt><trkpt lat="42.263305" lon="13.2386562"><ele>1215.0</ele><time>2026-05-02T16:24:35.281Z</time></trkpt><trkpt lat="42.2633161" lon="13.2385498"><ele>1215.0</ele><time>2026-05-02T16:24:36.276Z</time></trkpt><trkpt lat="42.2633349" lon="13.2384607"><ele>1215.0</ele><time>2026-05-02T16:24:37.271Z</time></trkpt><trkpt lat="42.2633614" lon="13.2383696"><ele>1215.0</ele><time>2026-05-02T16:24:38.277Z</time></trkpt><trkpt lat="42.2634039" lon="13.2382849"><ele>1215.0</ele><time>2026-05-02T16:24:39.272Z</time></trkpt><trkpt lat="42.2634577" lon="13.238192"><ele>1215.0</ele><time>2026-05-02T16:24:40.282Z</time></trkpt><trkpt lat="42.2635271" lon="13.2380855"><ele>1215.0</ele><time>2026-05-02T16:24:41.275Z</time></trkpt><trkpt lat="42.263597" lon="13.237968"><ele>1215.0</ele><time>2026-05-02T16:24:42.281Z</time></trkpt><trkpt lat="42.2636628" lon="13.2378678"><ele>1215.0</ele><time>2026-05-02T16:24:43.27Z</time></trkpt><trkpt lat="42.2637199" lon="13.2377798"><ele>1214.5</ele><time>2026-05-02T16:24:44.267Z</time></trkpt><trkpt lat="42.2637697" lon="13.2377166"><ele>1214.0</ele><time>2026-05-02T16:24:45.269Z</time></trkpt><trkpt lat="42.2638405" lon="13.2376385"><ele>1213.5</ele><time>2026-05-02T16:24:47.282Z</time></trkpt><trkpt lat="42.2639117" lon="13.2376555"><ele>1213.0</ele><time>2026-05-02T16:24:52.289Z</time></trkpt><trkpt lat="42.2640125" lon="13.2376196"><ele>1212.5</ele><time>2026-05-02T16:26:41.318Z</time></trkpt><trkpt lat="42.2640842" lon="13.2375691"><ele>1212.0</ele><time>2026-05-02T16:26:42.3Z</time></trkpt><trkpt lat="42.2641696" lon="13.2375111"><ele>1212.0</ele><time>2026-05-02T16:26:43.302Z</time></trkpt><trkpt lat="42.2642761" lon="13.2374479"><ele>1212.0</ele><time>2026-05-02T16:26:44.3Z</time></trkpt><trkpt lat="42.2643718" lon="13.2374156"><ele>1212.0</ele><time>2026-05-02T16:26:45.298Z</time></trkpt><trkpt lat="42.2644544" lon="13.2373869"><ele>1212.0</ele><time>2026-05-02T16:26:46.304Z</time></trkpt><trkpt lat="42.264521" lon="13.237378"><ele>1212.0</ele><time>2026-05-02T16:26:47.301Z</time></trkpt><trkpt lat="42.2645873" lon="13.2373788"><ele>1212.0</ele><time>2026-05-02T16:26:48.308Z</time></trkpt><trkpt lat="42.2646514" lon="13.2373979"><ele>1212.0</ele><time>2026-05-02T16:26:49.302Z</time></trkpt><trkpt lat="42.2647505" lon="13.237498"><ele>1212.0</ele><time>2026-05-02T16:26:51.305Z</time></trkpt><trkpt lat="42.2648119" lon="13.2375747"><ele>1212.0</ele><time>2026-05-02T16:26:52.306Z</time></trkpt><trkpt lat="42.264875" lon="13.2376645"><ele>1212.0</ele><time>2026-05-02T16:26:53.313Z</time></trkpt><trkpt lat="42.2649523" lon="13.2377638"><ele>1212.0</ele><time>2026-05-02T16:26:54.374Z</time></trkpt><trkpt lat="42.2650269" lon="13.2378418"><ele>1212.6</ele><time>2026-05-02T16:26:55.383Z</time></trkpt><trkpt lat="42.2651016" lon="13.2379242"><ele>1213.2</ele><time>2026-05-02T16:26:56.383Z</time></trkpt><trkpt lat="42.2651693" lon="13.2380017"><ele>1213.8</ele><time>2026-05-02T16:26:57.379Z</time></trkpt><trkpt lat="42.2652301" lon="13.2380867"><ele>1214.4</ele><time>2026-05-02T16:26:58.377Z</time></trkpt><trkpt lat="42.2652815" lon="13.238194"><ele>1215.0</ele><time>2026-05-02T16:26:59.373Z</time></trkpt><trkpt lat="42.2653335" lon="13.2383276"><ele>1213.0</ele><time>2026-05-02T16:27:00.381Z</time></trkpt><trkpt lat="42.2654072" lon="13.2384633"><ele>1211.0</ele><time>2026-05-02T16:27:01.365Z</time></trkpt><trkpt lat="42.2654743" lon="13.2385961"><ele>1209.0</ele><time>2026-05-02T16:27:02.357Z</time></trkpt><trkpt lat="42.2655381" lon="13.2387241"><ele>1207.0</ele><time>2026-05-02T16:27:03.356Z</time></trkpt><trkpt lat="42.2655985" lon="13.2388506"><ele>1206.2</ele><time>2026-05-02T16:27:04.365Z</time></trkpt><trkpt lat="42.2656574" lon="13.2389727"><ele>1205.4</ele><time>2026-05-02T16:27:05.376Z</time></trkpt><trkpt lat="42.2657064" lon="13.2390821"><ele>1204.6</ele><time>2026-05-02T16:27:06.37Z</time></trkpt><trkpt lat="42.2657458" lon="13.2392019"><ele>1203.8</ele><time>2026-05-02T16:27:07.378Z</time></trkpt><trkpt lat="42.2657799" lon="13.2393207"><ele>1203.0</ele><time>2026-05-02T16:27:08.376Z</time></trkpt><trkpt lat="42.2658149" lon="13.2394478"><ele>1203.0</ele><time>2026-05-02T16:27:09.358Z</time></trkpt><trkpt lat="42.2658624" lon="13.2395709"><ele>1203.0</ele><time>2026-05-02T16:27:10.355Z</time></trkpt><trkpt lat="42.2659255" lon="13.2396881"><ele>1203.0</ele><time>2026-05-02T16:27:11.359Z</time></trkpt><trkpt lat="42.2660004" lon="13.2398083"><ele>1203.0</ele><time>2026-05-02T16:27:12.35Z</time></trkpt><trkpt lat="42.2660814" lon="13.2399288"><ele>1203.0</ele><time>2026-05-02T16:27:13.368Z</time></trkpt><trkpt lat="42.2661657" lon="13.2400445"><ele>1201.5</ele><time>2026-05-02T16:27:14.371Z</time></trkpt><trkpt lat="42.266247" lon="13.2401554"><ele>1200.0</ele><time>2026-05-02T16:27:15.378Z</time></trkpt><trkpt lat="42.2663284" lon="13.2402625"><ele>1198.5</ele><time>2026-05-02T16:27:16.388Z</time></trkpt><trkpt lat="42.2664105" lon="13.240363"><ele>1197.0</ele><time>2026-05-02T16:27:17.379Z</time></trkpt><trkpt lat="42.2665011" lon="13.2404541"><ele>1197.0</ele><time>2026-05-02T16:27:18.379Z</time></trkpt><trkpt lat="42.2666056" lon="13.2405419"><ele>1197.0</ele><time>2026-05-02T16:27:19.374Z</time></trkpt><trkpt lat="42.2667219" lon="13.2406202"><ele>1197.0</ele><time>2026-05-02T16:27:20.365Z</time></trkpt><trkpt lat="42.2668422" lon="13.2406893"><ele>1197.0</ele><time>2026-05-02T16:27:21.36Z</time></trkpt><trkpt lat="42.2669676" lon="13.2407536"><ele>1194.0</ele><time>2026-05-02T16:27:22.366Z</time></trkpt><trkpt lat="42.2670932" lon="13.2408086"><ele>1191.0</ele><time>2026-05-02T16:27:23.365Z</time></trkpt><trkpt lat="42.2672196" lon="13.2408586"><ele>1188.0</ele><time>2026-05-02T16:27:24.382Z</time></trkpt><trkpt lat="42.2673453" lon="13.2409016"><ele>1185.0</ele><time>2026-05-02T16:27:25.383Z</time></trkpt><trkpt lat="42.2674738" lon="13.2409397"><ele>1184.75</ele><time>2026-05-02T16:27:26.385Z</time></trkpt><trkpt lat="42.2675991" lon="13.2409879"><ele>1184.5</ele><time>2026-05-02T16:27:27.375Z</time></trkpt><trkpt lat="42.2677157" lon="13.2410533"><ele>1184.25</ele><time>2026-05-02T16:27:28.372Z</time></trkpt><trkpt lat="42.2678171" lon="13.2411288"><ele>1184.0</ele><time>2026-05-02T16:27:29.366Z</time></trkpt><trkpt lat="42.2678918" lon="13.2412029"><ele>1184.0</ele><time>2026-05-02T16:27:30.36Z</time></trkpt><trkpt lat="42.2679431" lon="13.2412914"><ele>1184.0</ele><time>2026-05-02T16:27:31.355Z</time></trkpt><trkpt lat="42.2679679" lon="13.2413937"><ele>1184.0</ele><time>2026-05-02T16:27:32.354Z</time></trkpt><trkpt lat="42.2679711" lon="13.2415172"><ele>1184.0</ele><time>2026-05-02T16:27:33.353Z</time></trkpt><trkpt lat="42.2679649" lon="13.2416649"><ele>1184.0</ele><time>2026-05-02T16:27:34.37Z</time></trkpt><trkpt lat="42.2679599" lon="13.2418279"><ele>1184.25</ele><time>2026-05-02T16:27:35.376Z</time></trkpt><trkpt lat="42.2679667" lon="13.2419882"><ele>1184.5</ele><time>2026-05-02T16:27:36.369Z</time></trkpt><trkpt lat="42.2679891" lon="13.2421398"><ele>1184.75</ele><time>2026-05-02T16:27:37.366Z</time></trkpt><trkpt lat="42.2680207" lon="13.2422979"><ele>1185.0</ele><time>2026-05-02T16:27:38.37Z</time></trkpt><trkpt lat="42.2680627" lon="13.2424539"><ele>1183.8</ele><time>2026-05-02T16:27:39.354Z</time></trkpt><trkpt lat="42.2681101" lon="13.2425999"><ele>1182.6</ele><time>2026-05-02T16:27:40.359Z</time></trkpt><trkpt lat="42.2681563" lon="13.242733"><ele>1181.4</ele><time>2026-05-02T16:27:41.36Z</time></trkpt><trkpt lat="42.2682054" lon="13.2428394"><ele>1180.2</ele><time>2026-05-02T16:27:42.351Z</time></trkpt><trkpt lat="42.2682556" lon="13.2429118"><ele>1179.0</ele><time>2026-05-02T16:27:43.367Z</time></trkpt><trkpt lat="42.268377" lon="13.2429686"><ele>1179.0</ele><time>2026-05-02T16:27:45.35Z</time></trkpt><trkpt lat="42.2684549" lon="13.2429753"><ele>1179.0</ele><time>2026-05-02T16:27:46.359Z</time></trkpt><trkpt lat="42.2685441" lon="13.242969"><ele>1179.0</ele><time>2026-05-02T16:27:47.356Z</time></trkpt><trkpt lat="42.2686447" lon="13.2429564"><ele>1179.0</ele><time>2026-05-02T16:27:48.365Z</time></trkpt><trkpt lat="42.2687514" lon="13.2429647"><ele>1179.0</ele><time>2026-05-02T16:27:49.374Z</time></trkpt><trkpt lat="42.2688602" lon="13.2429824"><ele>1180.0</ele><time>2026-05-02T16:27:50.367Z</time></trkpt><trkpt lat="42.2689675" lon="13.2430102"><ele>1181.0</ele><time>2026-05-02T16:27:51.37Z</time></trkpt><trkpt lat="42.2690794" lon="13.2430575"><ele>1182.0</ele><time>2026-05-02T16:27:52.357Z</time></trkpt><trkpt lat="42.269178" lon="13.2431119"><ele>1183.0</ele><time>2026-05-02T16:27:53.351Z</time></trkpt><trkpt lat="42.269267" lon="13.2431631"><ele>1184.0</ele><time>2026-05-02T16:27:54.352Z</time></trkpt><trkpt lat="42.269353" lon="13.2431807"><ele>1184.6000000000001</ele><time>2026-05-02T16:27:55.346Z</time></trkpt><trkpt lat="42.2694337" lon="13.2431929"><ele>1185.2</ele><time>2026-05-02T16:27:56.365Z</time></trkpt><trkpt lat="42.2695145" lon="13.2432203"><ele>1185.8000000000002</ele><time>2026-05-02T16:27:57.373Z</time></trkpt><trkpt lat="42.2696104" lon="13.2433192"><ele>1186.4</ele><time>2026-05-02T16:27:58.362Z</time></trkpt><trkpt lat="42.2696988" lon="13.2433346"><ele>1187.0</ele><time>2026-05-02T16:27:59.362Z</time></trkpt><trkpt lat="42.2697845" lon="13.2433559"><ele>1188.0</ele><time>2026-05-02T16:28:00.363Z</time></trkpt><trkpt lat="42.2698739" lon="13.2433552"><ele>1189.0</ele><time>2026-05-02T16:28:01.355Z</time></trkpt><trkpt lat="42.2699556" lon="13.2433429"><ele>1190.0</ele><time>2026-05-02T16:28:02.35Z</time></trkpt><trkpt lat="42.2700317" lon="13.2432927"><ele>1191.0</ele><time>2026-05-02T16:28:03.344Z</time></trkpt><trkpt lat="42.2700957" lon="13.243232"><ele>1192.0</ele><time>2026-05-02T16:28:04.345Z</time></trkpt><trkpt lat="42.2701556" lon="13.2431443"><ele>1193.0</ele><time>2026-05-02T16:28:05.357Z</time></trkpt><trkpt lat="42.2702268" lon="13.2430685"><ele>1193.5</ele><time>2026-05-02T16:28:06.363Z</time></trkpt><trkpt lat="42.2703019" lon="13.2429694"><ele>1194.0</ele><time>2026-05-02T16:28:07.348Z</time></trkpt><trkpt lat="42.2703942" lon="13.2428721"><ele>1194.5</ele><time>2026-05-02T16:28:08.343Z</time></trkpt><trkpt lat="42.2704938" lon="13.2427937"><ele>1195.0</ele><time>2026-05-02T16:28:09.341Z</time></trkpt><trkpt lat="42.2705987" lon="13.2427176"><ele>1193.75</ele><time>2026-05-02T16:28:10.353Z</time></trkpt><trkpt lat="42.2707143" lon="13.2426512"><ele>1192.5</ele><time>2026-05-02T16:28:11.363Z</time></trkpt><trkpt lat="42.2708295" lon="13.2425935"><ele>1191.25</ele><time>2026-05-02T16:28:12.371Z</time></trkpt><trkpt lat="42.2709272" lon="13.2425247"><ele>1190.0</ele><time>2026-05-02T16:28:13.363Z</time></trkpt><trkpt lat="42.2710261" lon="13.2424516"><ele>1190.0</ele><time>2026-05-02T16:28:14.362Z</time></trkpt><trkpt lat="42.2711227" lon="13.2423797"><ele>1190.0</ele><time>2026-05-02T16:28:15.361Z</time></trkpt><trkpt lat="42.2712326" lon="13.2423059"><ele>1190.0</ele><time>2026-05-02T16:28:16.368Z</time></trkpt><trkpt lat="42.2713395" lon="13.2422343"><ele>1190.0</ele><time>2026-05-02T16:28:17.364Z</time></trkpt><trkpt lat="42.2714455" lon="13.2421728"><ele>1189.4</ele><time>2026-05-02T16:28:18.373Z</time></trkpt><trkpt lat="42.2715432" lon="13.2421097"><ele>1188.8</ele><time>2026-05-02T16:28:19.369Z</time></trkpt><trkpt lat="42.2716353" lon="13.2420337"><ele>1188.2</ele><time>2026-05-02T16:28:20.359Z</time></trkpt><trkpt lat="42.2717159" lon="13.2419518"><ele>1187.6</ele><time>2026-05-02T16:28:21.359Z</time></trkpt><trkpt lat="42.271796" lon="13.2418626"><ele>1187.0</ele><time>2026-05-02T16:28:22.356Z</time></trkpt><trkpt lat="42.2718734" lon="13.241778"><ele>1187.0</ele><time>2026-05-02T16:28:23.354Z</time></trkpt><trkpt lat="42.2719513" lon="13.2416953"><ele>1187.0</ele><time>2026-05-02T16:28:24.362Z</time></trkpt><trkpt lat="42.2720288" lon="13.2416183"><ele>1187.0</ele><time>2026-05-02T16:28:25.356Z</time></trkpt><trkpt lat="42.2721096" lon="13.2415508"><ele>1187.0</ele><time>2026-05-02T16:28:26.365Z</time></trkpt><trkpt lat="42.2721833" lon="13.2415103"><ele>1187.0</ele><time>2026-05-02T16:28:27.361Z</time></trkpt><trkpt lat="42.2722836" lon="13.2414812"><ele>1186.0</ele><time>2026-05-02T16:28:28.356Z</time></trkpt><trkpt lat="42.2723872" lon="13.2414751"><ele>1185.0</ele><time>2026-05-02T16:28:29.345Z</time></trkpt><trkpt lat="42.2724979" lon="13.24149"><ele>1184.0</ele><time>2026-05-02T16:28:30.348Z</time></trkpt><trkpt lat="42.272613" lon="13.2415099"><ele>1183.0</ele><time>2026-05-02T16:28:31.349Z</time></trkpt><trkpt lat="42.2727211" lon="13.241538"><ele>1182.0</ele><time>2026-05-02T16:28:32.354Z</time></trkpt><trkpt lat="42.2728505" lon="13.2415666"><ele>1182.0</ele><time>2026-05-02T16:28:33.363Z</time></trkpt><trkpt lat="42.2729786" lon="13.2415888"><ele>1182.0</ele><time>2026-05-02T16:28:34.36Z</time></trkpt><trkpt lat="42.2731072" lon="13.2416103"><ele>1182.0</ele><time>2026-05-02T16:28:35.366Z</time></trkpt><trkpt lat="42.2732248" lon="13.2416271"><ele>1182.0</ele><time>2026-05-02T16:28:36.358Z</time></trkpt><trkpt lat="42.2733294" lon="13.241635"><ele>1181.5</ele><time>2026-05-02T16:28:37.362Z</time></trkpt><trkpt lat="42.2734278" lon="13.2416408"><ele>1181.0</ele><time>2026-05-02T16:28:38.355Z</time></trkpt><trkpt lat="42.2735124" lon="13.2416541"><ele>1180.5</ele><time>2026-05-02T16:28:39.345Z</time></trkpt><trkpt lat="42.2735755" lon="13.2416888"><ele>1180.0</ele><time>2026-05-02T16:28:40.347Z</time></trkpt><trkpt lat="42.2736411" lon="13.2417395"><ele>1179.5</ele><time>2026-05-02T16:28:41.344Z</time></trkpt><trkpt lat="42.273696" lon="13.2417949"><ele>1179.0</ele><time>2026-05-02T16:28:42.352Z</time></trkpt><trkpt lat="42.2737578" lon="13.2418502"><ele>1179.0</ele><time>2026-05-02T16:28:43.366Z</time></trkpt><trkpt lat="42.273831" lon="13.241932"><ele>1179.0</ele><time>2026-05-02T16:28:44.362Z</time></trkpt><trkpt lat="42.2739013" lon="13.2420126"><ele>1179.0</ele><time>2026-05-02T16:28:45.366Z</time></trkpt><trkpt lat="42.2739776" lon="13.2420911"><ele>1179.0</ele><time>2026-05-02T16:28:46.37Z</time></trkpt><trkpt lat="42.274041" lon="13.2421308"><ele>1179.0</ele><time>2026-05-02T16:28:47.36Z</time></trkpt><trkpt lat="42.2741343" lon="13.2422275"><ele>1181.75</ele><time>2026-05-02T16:28:48.36Z</time></trkpt><trkpt lat="42.2742087" lon="13.242374"><ele>1184.5</ele><time>2026-05-02T16:28:49.276Z</time></trkpt><trkpt lat="42.274267" lon="13.2424981"><ele>1187.25</ele><time>2026-05-02T16:28:51.264Z</time></trkpt><trkpt lat="42.2742732" lon="13.2426315"><ele>1190.0</ele><time>2026-05-02T16:28:53.272Z</time></trkpt><trkpt lat="42.2742657" lon="13.2427914"><ele>1190.0</ele><time>2026-05-02T16:28:55.273Z</time></trkpt><trkpt lat="42.2742717" lon="13.2428869"><ele>1190.0</ele><time>2026-05-02T16:28:56.277Z</time></trkpt><trkpt lat="42.2742806" lon="13.2429942"><ele>1190.0</ele><time>2026-05-02T16:28:57.277Z</time></trkpt><trkpt lat="42.274293" lon="13.2431053"><ele>1190.0</ele><time>2026-05-02T16:28:58.277Z</time></trkpt><trkpt lat="42.2743249" lon="13.2432031"><ele>1190.0</ele><time>2026-05-02T16:28:59.274Z</time></trkpt><trkpt lat="42.2743694" lon="13.2432941"><ele>1190.0</ele><time>2026-05-02T16:29:00.278Z</time></trkpt><trkpt lat="42.274423" lon="13.2433743"><ele>1189.5</ele><time>2026-05-02T16:29:01.276Z</time></trkpt><trkpt lat="42.2744999" lon="13.2434464"><ele>1189.0</ele><time>2026-05-02T16:29:02.272Z</time></trkpt><trkpt lat="42.2745959" lon="13.2435206"><ele>1188.5</ele><time>2026-05-02T16:29:03.277Z</time></trkpt><trkpt lat="42.2747174" lon="13.2435888"><ele>1188.0</ele><time>2026-05-02T16:29:04.286Z</time></trkpt><trkpt lat="42.2748401" lon="13.2436673"><ele>1191.0</ele><time>2026-05-02T16:29:05.283Z</time></trkpt><trkpt lat="42.274973" lon="13.2437632"><ele>1194.0</ele><time>2026-05-02T16:29:06.278Z</time></trkpt><trkpt lat="42.2751046" lon="13.2438369"><ele>1197.0</ele><time>2026-05-02T16:29:07.27Z</time></trkpt><trkpt lat="42.2752155" lon="13.2439194"><ele>1200.0</ele><time>2026-05-02T16:29:08.263Z</time></trkpt><trkpt lat="42.275324" lon="13.2440309"><ele>1200.0</ele><time>2026-05-02T16:29:09.263Z</time></trkpt><trkpt lat="42.2754405" lon="13.2440961"><ele>1200.0</ele><time>2026-05-02T16:29:10.273Z</time></trkpt><trkpt lat="42.2755387" lon="13.2441577"><ele>1200.0</ele><time>2026-05-02T16:29:11.274Z</time></trkpt><trkpt lat="42.2756248" lon="13.2442269"><ele>1200.0</ele><time>2026-05-02T16:29:12.27Z</time></trkpt><trkpt lat="42.2757064" lon="13.2443121"><ele>1200.0</ele><time>2026-05-02T16:29:13.275Z</time></trkpt><trkpt lat="42.275802" lon="13.2443897"><ele>1201.8</ele><time>2026-05-02T16:29:14.281Z</time></trkpt><trkpt lat="42.2758988" lon="13.2444551"><ele>1203.6</ele><time>2026-05-02T16:29:15.283Z</time></trkpt><trkpt lat="42.2760041" lon="13.244487"><ele>1205.4</ele><time>2026-05-02T16:29:16.28Z</time></trkpt><trkpt lat="42.2761112" lon="13.2445261"><ele>1207.2</ele><time>2026-05-02T16:29:17.282Z</time></trkpt><trkpt lat="42.2761827" lon="13.2445696"><ele>1209.0</ele><time>2026-05-02T16:29:18.276Z</time></trkpt><trkpt lat="42.2762469" lon="13.2445839"><ele>1209.0</ele><time>2026-05-02T16:29:19.274Z</time></trkpt><trkpt lat="42.2763209" lon="13.2446085"><ele>1209.0</ele><time>2026-05-02T16:29:20.267Z</time></trkpt><trkpt lat="42.2763821" lon="13.2446599"><ele>1209.0</ele><time>2026-05-02T16:29:21.266Z</time></trkpt><trkpt lat="42.2764562" lon="13.2447369"><ele>1209.0</ele><time>2026-05-02T16:29:22.272Z</time></trkpt><trkpt lat="42.2765323" lon="13.2448228"><ele>1209.0</ele><time>2026-05-02T16:29:23.274Z</time></trkpt><trkpt lat="42.2766045" lon="13.2449273"><ele>1209.0</ele><time>2026-05-02T16:29:24.272Z</time></trkpt><trkpt lat="42.2766754" lon="13.2450246"><ele>1209.8</ele><time>2026-05-02T16:29:25.271Z</time></trkpt><trkpt lat="42.2767587" lon="13.2450954"><ele>1210.6000000000001</ele><time>2026-05-02T16:29:26.268Z</time></trkpt><trkpt lat="42.2768411" lon="13.2451568"><ele>1211.4</ele><time>2026-05-02T16:29:27.267Z</time></trkpt><trkpt lat="42.2769202" lon="13.2452181"><ele>1212.2</ele><time>2026-05-02T16:29:28.266Z</time></trkpt><trkpt lat="42.2770153" lon="13.2452797"><ele>1213.0</ele><time>2026-05-02T16:29:29.27Z</time></trkpt><trkpt lat="42.2771119" lon="13.2453395"><ele>1213.0</ele><time>2026-05-02T16:29:30.267Z</time></trkpt><trkpt lat="42.2771974" lon="13.2453848"><ele>1213.0</ele><time>2026-05-02T16:29:31.267Z</time></trkpt><trkpt lat="42.2772814" lon="13.2454241"><ele>1213.0</ele><time>2026-05-02T16:29:32.267Z</time></trkpt><trkpt lat="42.2773594" lon="13.2454794"><ele>1213.0</ele><time>2026-05-02T16:29:33.261Z</time></trkpt><trkpt lat="42.277412" lon="13.2455568"><ele>1213.0</ele><time>2026-05-02T16:29:34.264Z</time></trkpt><trkpt lat="42.2774531" lon="13.2456454"><ele>1213.0</ele><time>2026-05-02T16:29:35.27Z</time></trkpt><trkpt lat="42.2774966" lon="13.2457297"><ele>1211.4</ele><time>2026-05-02T16:29:36.274Z</time></trkpt><trkpt lat="42.2775616" lon="13.2458039"><ele>1209.8</ele><time>2026-05-02T16:29:37.267Z</time></trkpt><trkpt lat="42.2776271" lon="13.2458564"><ele>1208.2</ele><time>2026-05-02T16:29:38.268Z</time></trkpt><trkpt lat="42.2777172" lon="13.2458821"><ele>1206.6</ele><time>2026-05-02T16:29:39.277Z</time></trkpt><trkpt lat="42.2778212" lon="13.2458976"><ele>1205.0</ele><time>2026-05-02T16:29:40.268Z</time></trkpt><trkpt lat="42.2779267" lon="13.2459039"><ele>1205.0</ele><time>2026-05-02T16:29:41.273Z</time></trkpt><trkpt lat="42.2780461" lon="13.2459131"><ele>1205.0</ele><time>2026-05-02T16:29:42.271Z</time></trkpt><trkpt lat="42.2781768" lon="13.2459313"><ele>1205.0</ele><time>2026-05-02T16:29:43.275Z</time></trkpt><trkpt lat="42.2782914" lon="13.2459401"><ele>1205.0</ele><time>2026-05-02T16:29:44.275Z</time></trkpt><trkpt lat="42.2783937" lon="13.2459432"><ele>1202.6</ele><time>2026-05-02T16:29:45.277Z</time></trkpt><trkpt lat="42.2784827" lon="13.2459314"><ele>1200.2</ele><time>2026-05-02T16:29:46.282Z</time></trkpt><trkpt lat="42.2785649" lon="13.2459011"><ele>1197.8</ele><time>2026-05-02T16:29:47.281Z</time></trkpt><trkpt lat="42.2786486" lon="13.2458609"><ele>1195.4</ele><time>2026-05-02T16:29:48.282Z</time></trkpt><trkpt lat="42.2787454" lon="13.2458019"><ele>1193.0</ele><time>2026-05-02T16:29:49.28Z</time></trkpt><trkpt lat="42.2788498" lon="13.2457454"><ele>1192.5</ele><time>2026-05-02T16:29:50.285Z</time></trkpt><trkpt lat="42.2789638" lon="13.2456962"><ele>1192.0</ele><time>2026-05-02T16:29:51.288Z</time></trkpt><trkpt lat="42.2790692" lon="13.245652"><ele>1191.5</ele><time>2026-05-02T16:29:52.291Z</time></trkpt><trkpt lat="42.2791835" lon="13.2456197"><ele>1191.0</ele><time>2026-05-02T16:29:53.282Z</time></trkpt><trkpt lat="42.2792936" lon="13.2455926"><ele>1191.25</ele><time>2026-05-02T16:29:54.28Z</time></trkpt><trkpt lat="42.2794125" lon="13.2455618"><ele>1191.5</ele><time>2026-05-02T16:29:55.29Z</time></trkpt><trkpt lat="42.2795407" lon="13.2455011"><ele>1191.75</ele><time>2026-05-02T16:29:56.289Z</time></trkpt><trkpt lat="42.2796723" lon="13.2454445"><ele>1192.0</ele><time>2026-05-02T16:29:57.285Z</time></trkpt><trkpt lat="42.2797965" lon="13.2453917"><ele>1192.0</ele><time>2026-05-02T16:29:58.283Z</time></trkpt><trkpt lat="42.2798998" lon="13.2453387"><ele>1192.0</ele><time>2026-05-02T16:29:59.278Z</time></trkpt><trkpt lat="42.2800083" lon="13.2452701"><ele>1192.0</ele><time>2026-05-02T16:30:00.284Z</time></trkpt><trkpt lat="42.2801248" lon="13.2451926"><ele>1192.0</ele><time>2026-05-02T16:30:01.281Z</time></trkpt><trkpt lat="42.2802357" lon="13.2451024"><ele>1192.0</ele><time>2026-05-02T16:30:02.286Z</time></trkpt><trkpt lat="42.2803446" lon="13.2449957"><ele>1192.0</ele><time>2026-05-02T16:30:03.284Z</time></trkpt><trkpt lat="42.2804549" lon="13.2449038"><ele>1192.0</ele><time>2026-05-02T16:30:04.282Z</time></trkpt><trkpt lat="42.2805764" lon="13.2448222"><ele>1192.0</ele><time>2026-05-02T16:30:05.281Z</time></trkpt><trkpt lat="42.2807107" lon="13.2447534"><ele>1192.75</ele><time>2026-05-02T16:30:06.281Z</time></trkpt><trkpt lat="42.2808371" lon="13.2446992"><ele>1193.5</ele><time>2026-05-02T16:30:07.281Z</time></trkpt><trkpt lat="42.2809431" lon="13.2446481"><ele>1194.25</ele><time>2026-05-02T16:30:08.294Z</time></trkpt><trkpt lat="42.2810535" lon="13.2446023"><ele>1195.0</ele><time>2026-05-02T16:30:09.283Z</time></trkpt><trkpt lat="42.2811496" lon="13.2445612"><ele>1195.0</ele><time>2026-05-02T16:30:10.285Z</time></trkpt><trkpt lat="42.2812516" lon="13.2445247"><ele>1195.0</ele><time>2026-05-02T16:30:11.284Z</time></trkpt><trkpt lat="42.2813566" lon="13.2444941"><ele>1195.0</ele><time>2026-05-02T16:30:12.282Z</time></trkpt><trkpt lat="42.2814598" lon="13.2444858"><ele>1195.0</ele><time>2026-05-02T16:30:13.277Z</time></trkpt><trkpt lat="42.2815619" lon="13.2445081"><ele>1195.0</ele><time>2026-05-02T16:30:14.274Z</time></trkpt><trkpt lat="42.281676" lon="13.2445479"><ele>1193.0</ele><time>2026-05-02T16:30:15.269Z</time></trkpt><trkpt lat="42.2817984" lon="13.2446038"><ele>1191.0</ele><time>2026-05-02T16:30:16.284Z</time></trkpt><trkpt lat="42.2819102" lon="13.2446546"><ele>1189.0</ele><time>2026-05-02T16:30:17.283Z</time></trkpt><trkpt lat="42.2820177" lon="13.2447018"><ele>1187.0</ele><time>2026-05-02T16:30:18.273Z</time></trkpt><trkpt lat="42.2821076" lon="13.2447234"><ele>1187.0</ele><time>2026-05-02T16:30:19.281Z</time></trkpt><trkpt lat="42.2822169" lon="13.2447166"><ele>1187.0</ele><time>2026-05-02T16:30:21.275Z</time></trkpt><trkpt lat="42.2822954" lon="13.2446633"><ele>1187.0</ele><time>2026-05-02T16:30:25.29Z</time></trkpt><trkpt lat="42.2823263" lon="13.2445868"><ele>1187.0</ele><time>2026-05-02T16:30:27.283Z</time></trkpt><trkpt lat="42.2823263" lon="13.2444296"><ele>1187.0</ele><time>2026-05-02T16:30:29.275Z</time></trkpt><trkpt lat="42.2823362" lon="13.2443282"><ele>1187.0</ele><time>2026-05-02T16:30:30.274Z</time></trkpt><trkpt lat="42.2823746" lon="13.2442199"><ele>1187.0</ele><time>2026-05-02T16:30:31.27Z</time></trkpt><trkpt lat="42.2824269" lon="13.2441195"><ele>1187.0</ele><time>2026-05-02T16:30:32.271Z</time></trkpt><trkpt lat="42.282498" lon="13.2440187"><ele>1187.0</ele><time>2026-05-02T16:30:33.276Z</time></trkpt><trkpt lat="42.2825774" lon="13.2439137"><ele>1187.0</ele><time>2026-05-02T16:30:34.28Z</time></trkpt><trkpt lat="42.2826674" lon="13.2438073"><ele>1187.0</ele><time>2026-05-02T16:30:35.28Z</time></trkpt><trkpt lat="42.2827586" lon="13.2437102"><ele>1187.0</ele><time>2026-05-02T16:30:36.274Z</time></trkpt><trkpt lat="42.2828392" lon="13.2436331"><ele>1187.0</ele><time>2026-05-02T16:30:37.271Z</time></trkpt><trkpt lat="42.2829003" lon="13.2435445"><ele>1187.0</ele><time>2026-05-02T16:30:38.269Z</time></trkpt><trkpt lat="42.2829459" lon="13.2434499"><ele>1187.0</ele><time>2026-05-02T16:30:39.271Z</time></trkpt><trkpt lat="42.2829859" lon="13.2433455"><ele>1187.0</ele><time>2026-05-02T16:30:40.274Z</time></trkpt><trkpt lat="42.2830169" lon="13.2432361"><ele>1187.0</ele><time>2026-05-02T16:30:41.272Z</time></trkpt><trkpt lat="42.2830305" lon="13.2431146"><ele>1187.0</ele><time>2026-05-02T16:30:42.281Z</time></trkpt><trkpt lat="42.283029" lon="13.2429988"><ele>1187.0</ele><time>2026-05-02T16:30:43.273Z</time></trkpt><trkpt lat="42.2830077" lon="13.242871"><ele>1187.0</ele><time>2026-05-02T16:30:44.273Z</time></trkpt><trkpt lat="42.2829791" lon="13.2427392"><ele>1186.0</ele><time>2026-05-02T16:30:45.27Z</time></trkpt><trkpt lat="42.2829266" lon="13.2426024"><ele>1185.0</ele><time>2026-05-02T16:30:46.275Z</time></trkpt><trkpt lat="42.2828891" lon="13.242463"><ele>1184.0</ele><time>2026-05-02T16:30:47.27Z</time></trkpt><trkpt lat="42.2828578" lon="13.2423197"><ele>1183.0</ele><time>2026-05-02T16:30:48.281Z</time></trkpt><trkpt lat="42.2828416" lon="13.2421866"><ele>1182.0</ele><time>2026-05-02T16:30:49.275Z</time></trkpt><trkpt lat="42.2828297" lon="13.2420791"><ele>1182.5</ele><time>2026-05-02T16:30:50.273Z</time></trkpt><trkpt lat="42.2828232" lon="13.2419885"><ele>1183.0</ele><time>2026-05-02T16:30:51.278Z</time></trkpt><trkpt lat="42.2828483" lon="13.2418734"><ele>1183.5</ele><time>2026-05-02T16:30:53.285Z</time></trkpt><trkpt lat="42.2829302" lon="13.2418141"><ele>1184.0</ele><time>2026-05-02T16:30:55.289Z</time></trkpt><trkpt lat="42.2830506" lon="13.2418025"><ele>1184.5</ele><time>2026-05-02T16:30:57.288Z</time></trkpt><trkpt lat="42.2831242" lon="13.2418224"><ele>1185.0</ele><time>2026-05-02T16:30:58.28Z</time></trkpt><trkpt lat="42.2832011" lon="13.2418451"><ele>1185.0</ele><time>2026-05-02T16:30:59.295Z</time></trkpt><trkpt lat="42.2832999" lon="13.2418549"><ele>1185.0</ele><time>2026-05-02T16:31:00.285Z</time></trkpt><trkpt lat="42.2834026" lon="13.2418705"><ele>1185.0</ele><time>2026-05-02T16:31:01.361Z</time></trkpt><trkpt lat="42.2835166" lon="13.2418867"><ele>1185.0</ele><time>2026-05-02T16:31:02.364Z</time></trkpt><trkpt lat="42.2836289" lon="13.2418911"><ele>1185.0</ele><time>2026-05-02T16:31:03.357Z</time></trkpt><trkpt lat="42.2837364" lon="13.2418746"><ele>1185.0</ele><time>2026-05-02T16:31:04.359Z</time></trkpt><trkpt lat="42.2838279" lon="13.2418423"><ele>1185.0</ele><time>2026-05-02T16:31:05.352Z</time></trkpt><trkpt lat="42.2839115" lon="13.2417866"><ele>1185.0</ele><time>2026-05-02T16:31:06.349Z</time></trkpt><trkpt lat="42.283989" lon="13.2417114"><ele>1185.0</ele><time>2026-05-02T16:31:07.347Z</time></trkpt><trkpt lat="42.2840942" lon="13.241634"><ele>1185.0</ele><time>2026-05-02T16:31:08.269Z</time></trkpt><trkpt lat="42.2842001" lon="13.2415419"><ele>1189.25</ele><time>2026-05-02T16:31:09.283Z</time></trkpt><trkpt lat="42.2843113" lon="13.2414581"><ele>1193.5</ele><time>2026-05-02T16:31:10.286Z</time></trkpt><trkpt lat="42.2844312" lon="13.2413717"><ele>1197.75</ele><time>2026-05-02T16:31:11.283Z</time></trkpt><trkpt lat="42.2845463" lon="13.2412841"><ele>1202.0</ele><time>2026-05-02T16:31:12.282Z</time></trkpt><trkpt lat="42.28466" lon="13.2411825"><ele>1199.25</ele><time>2026-05-02T16:31:13.281Z</time></trkpt><trkpt lat="42.2847672" lon="13.2410525"><ele>1196.5</ele><time>2026-05-02T16:31:14.28Z</time></trkpt><trkpt lat="42.2848666" lon="13.2408999"><ele>1193.75</ele><time>2026-05-02T16:31:15.282Z</time></trkpt><trkpt lat="42.2849694" lon="13.2407547"><ele>1191.0</ele><time>2026-05-02T16:31:16.29Z</time></trkpt><trkpt lat="42.2850919" lon="13.2406177"><ele>1199.3333333333333</ele><time>2026-05-02T16:31:17.284Z</time></trkpt><trkpt lat="42.2852242" lon="13.2404928"><ele>1207.6666666666665</ele><time>2026-05-02T16:31:18.29Z</time></trkpt><trkpt lat="42.2853703" lon="13.2403816"><ele>1216.0</ele><time>2026-05-02T16:31:19.283Z</time></trkpt><trkpt lat="42.2855217" lon="13.2402986"><ele>1213.3333333333333</ele><time>2026-05-02T16:31:20.285Z</time></trkpt><trkpt lat="42.2856733" lon="13.2402224"><ele>1210.6666666666667</ele><time>2026-05-02T16:31:21.287Z</time></trkpt><trkpt lat="42.2858169" lon="13.240131"><ele>1208.0</ele><time>2026-05-02T16:31:22.285Z</time></trkpt><trkpt lat="42.2859551" lon="13.2400455"><ele>1208.0</ele><time>2026-05-02T16:31:23.286Z</time></trkpt><trkpt lat="42.2860872" lon="13.2399622"><ele>1208.0</ele><time>2026-05-02T16:31:24.284Z</time></trkpt><trkpt lat="42.2862194" lon="13.2398983"><ele>1208.0</ele><time>2026-05-02T16:31:25.283Z</time></trkpt><trkpt lat="42.286348" lon="13.2398374"><ele>1208.0</ele><time>2026-05-02T16:31:26.281Z</time></trkpt><trkpt lat="42.2864749" lon="13.2397664"><ele>1213.25</ele><time>2026-05-02T16:31:27.278Z</time></trkpt><trkpt lat="42.2866292" lon="13.2396771"><ele>1218.5</ele><time>2026-05-02T16:31:28.279Z</time></trkpt><trkpt lat="42.2867534" lon="13.2396341"><ele>1223.75</ele><time>2026-05-02T16:31:29.269Z</time></trkpt><trkpt lat="42.2868677" lon="13.239663"><ele>1229.0</ele><time>2026-05-02T16:31:30.267Z</time></trkpt><trkpt lat="42.2870147" lon="13.2397106"><ele>1229.0</ele><time>2026-05-02T16:31:31.27Z</time></trkpt><trkpt lat="42.2871543" lon="13.2397098"><ele>1229.0</ele><time>2026-05-02T16:31:32.265Z</time></trkpt><trkpt lat="42.2872847" lon="13.2396862"><ele>1229.0</ele><time>2026-05-02T16:31:33.271Z</time></trkpt><trkpt lat="42.2874021" lon="13.239664"><ele>1229.0</ele><time>2026-05-02T16:31:34.271Z</time></trkpt><trkpt lat="42.2875159" lon="13.2396556"><ele>1228.0</ele><time>2026-05-02T16:31:35.265Z</time></trkpt><trkpt lat="42.2876112" lon="13.2397162"><ele>1227.0</ele><time>2026-05-02T16:31:36.276Z</time></trkpt><trkpt lat="42.287696" lon="13.2398241"><ele>1226.0</ele><time>2026-05-02T16:31:37.281Z</time></trkpt><trkpt lat="42.2877859" lon="13.2399045"><ele>1225.0</ele><time>2026-05-02T16:31:38.282Z</time></trkpt><trkpt lat="42.2878869" lon="13.2399289"><ele>1224.0</ele><time>2026-05-02T16:31:39.292Z</time></trkpt><trkpt lat="42.2880031" lon="13.2399048"><ele>1225.5</ele><time>2026-05-02T16:31:40.282Z</time></trkpt><trkpt lat="42.2881251" lon="13.2398258"><ele>1227.0</ele><time>2026-05-02T16:31:41.284Z</time></trkpt><trkpt lat="42.2882397" lon="13.2397257"><ele>1228.5</ele><time>2026-05-02T16:31:42.278Z</time></trkpt><trkpt lat="42.2883786" lon="13.239643"><ele>1230.0</ele><time>2026-05-02T16:31:43.272Z</time></trkpt><trkpt lat="42.288523" lon="13.2395786"><ele>1230.0</ele><time>2026-05-02T16:31:44.273Z</time></trkpt><trkpt lat="42.2886797" lon="13.239529"><ele>1230.0</ele><time>2026-05-02T16:31:45.281Z</time></trkpt><trkpt lat="42.2888254" lon="13.2394824"><ele>1230.0</ele><time>2026-05-02T16:31:46.287Z</time></trkpt><trkpt lat="42.2889535" lon="13.2394293"><ele>1230.0</ele><time>2026-05-02T16:31:47.279Z</time></trkpt><trkpt lat="42.2890927" lon="13.239346"><ele>1229.5</ele><time>2026-05-02T16:31:48.279Z</time></trkpt><trkpt lat="42.2892109" lon="13.2392886"><ele>1229.0</ele><time>2026-05-02T16:31:49.296Z</time></trkpt><trkpt lat="42.2893348" lon="13.2392828"><ele>1228.5</ele><time>2026-05-02T16:31:50.284Z</time></trkpt><trkpt lat="42.2894585" lon="13.239334"><ele>1228.0</ele><time>2026-05-02T16:31:51.277Z</time></trkpt><trkpt lat="42.289584" lon="13.2393602"><ele>1228.0</ele><time>2026-05-02T16:31:52.285Z</time></trkpt><trkpt lat="42.2897157" lon="13.2393459"><ele>1228.0</ele><time>2026-05-02T16:31:53.287Z</time></trkpt><trkpt lat="42.2898644" lon="13.2392849"><ele>1228.0</ele><time>2026-05-02T16:31:54.275Z</time></trkpt><trkpt lat="42.2900038" lon="13.2392092"><ele>1228.0</ele><time>2026-05-02T16:31:55.283Z</time></trkpt><trkpt lat="42.290148" lon="13.2391417"><ele>1229.0</ele><time>2026-05-02T16:31:56.281Z</time></trkpt><trkpt lat="42.2903055" lon="13.2391699"><ele>1230.0</ele><time>2026-05-02T16:31:57.288Z</time></trkpt><trkpt lat="42.2904401" lon="13.2392506"><ele>1231.0</ele><time>2026-05-02T16:31:58.281Z</time></trkpt><trkpt lat="42.2905669" lon="13.2393128"><ele>1232.0</ele><time>2026-05-02T16:31:59.28Z</time></trkpt><trkpt lat="42.290686" lon="13.2393056"><ele>1232.3333333333335</ele><time>2026-05-02T16:32:00.28Z</time></trkpt><trkpt lat="42.2908203" lon="13.2392508"><ele>1232.6666666666667</ele><time>2026-05-02T16:32:01.283Z</time></trkpt><trkpt lat="42.2909659" lon="13.2391564"><ele>1233.0</ele><time>2026-05-02T16:32:02.283Z</time></trkpt><trkpt lat="42.2911063" lon="13.239051"><ele>1233.0</ele><time>2026-05-02T16:32:03.271Z</time></trkpt><trkpt lat="42.2912548" lon="13.2389869"><ele>1233.0</ele><time>2026-05-02T16:32:04.277Z</time></trkpt><trkpt lat="42.2914317" lon="13.2389667"><ele>1233.0</ele><time>2026-05-02T16:32:05.279Z</time></trkpt><trkpt lat="42.2915954" lon="13.2389356"><ele>1243.3333333333333</ele><time>2026-05-02T16:32:06.288Z</time></trkpt><trkpt lat="42.2917719" lon="13.2389383"><ele>1253.6666666666665</ele><time>2026-05-02T16:32:07.28Z</time></trkpt><trkpt lat="42.2919126" lon="13.2388773"><ele>1264.0</ele><time>2026-05-02T16:32:08.281Z</time></trkpt><trkpt lat="42.2920669" lon="13.2388347"><ele>1264.0</ele><time>2026-05-02T16:32:09.285Z</time></trkpt><trkpt lat="42.2922181" lon="13.2387837"><ele>1264.0</ele><time>2026-05-02T16:32:10.282Z</time></trkpt><trkpt lat="42.2923686" lon="13.2387346"><ele>1264.0</ele><time>2026-05-02T16:32:11.289Z</time></trkpt><trkpt lat="42.292533" lon="13.2387177"><ele>1262.3333333333333</ele><time>2026-05-02T16:32:12.286Z</time></trkpt><trkpt lat="42.2926831" lon="13.2386816"><ele>1260.6666666666667</ele><time>2026-05-02T16:32:13.294Z</time></trkpt><trkpt lat="42.2928398" lon="13.2386354"><ele>1259.0</ele><time>2026-05-02T16:32:14.278Z</time></trkpt><trkpt lat="42.2929879" lon="13.2385708"><ele>1255.3333333333335</ele><time>2026-05-02T16:32:15.283Z</time></trkpt><trkpt lat="42.2931374" lon="13.2384582"><ele>1251.6666666666667</ele><time>2026-05-02T16:32:16.283Z</time></trkpt><trkpt lat="42.2932921" lon="13.2383355"><ele>1248.0</ele><time>2026-05-02T16:32:17.272Z</time></trkpt><trkpt lat="42.2934451" lon="13.2382267"><ele>1248.0</ele><time>2026-05-02T16:32:18.28Z</time></trkpt><trkpt lat="42.2936176" lon="13.2381475"><ele>1248.0</ele><time>2026-05-02T16:32:19.28Z</time></trkpt><trkpt lat="42.293782" lon="13.2380451"><ele>1248.0</ele><time>2026-05-02T16:32:20.287Z</time></trkpt><trkpt lat="42.2939469" lon="13.2379472"><ele>1254.6666666666667</ele><time>2026-05-02T16:32:21.282Z</time></trkpt><trkpt lat="42.2941225" lon="13.2378485"><ele>1261.3333333333335</ele><time>2026-05-02T16:32:22.282Z</time></trkpt><trkpt lat="42.2942904" lon="13.2377465"><ele>1268.0</ele><time>2026-05-02T16:32:23.273Z</time></trkpt><trkpt lat="42.294448" lon="13.2376395"><ele>1268.0</ele><time>2026-05-02T16:32:24.266Z</time></trkpt><trkpt lat="42.2946055" lon="13.2375524"><ele>1268.0</ele><time>2026-05-02T16:32:25.257Z</time></trkpt><trkpt lat="42.2947557" lon="13.2374747"><ele>1268.0</ele><time>2026-05-02T16:32:26.261Z</time></trkpt><trkpt lat="42.2949192" lon="13.2374488"><ele>1265.0</ele><time>2026-05-02T16:32:27.267Z</time></trkpt><trkpt lat="42.2950695" lon="13.2374168"><ele>1262.0</ele><time>2026-05-02T16:32:28.262Z</time></trkpt><trkpt lat="42.2952425" lon="13.2373722"><ele>1259.0</ele><time>2026-05-02T16:32:29.264Z</time></trkpt><trkpt lat="42.2954329" lon="13.2373167"><ele>1271.0</ele><time>2026-05-02T16:32:30.255Z</time></trkpt><trkpt lat="42.2955973" lon="13.2372721"><ele>1283.0</ele><time>2026-05-02T16:32:31.246Z</time></trkpt><trkpt lat="42.2957818" lon="13.2372196"><ele>1295.0</ele><time>2026-05-02T16:32:32.252Z</time></trkpt><trkpt lat="42.29596" lon="13.237195"><ele>1295.0</ele><time>2026-05-02T16:32:33.25Z</time></trkpt><trkpt lat="42.2961378" lon="13.2371709"><ele>1295.0</ele><time>2026-05-02T16:32:34.257Z</time></trkpt><trkpt lat="42.2963081" lon="13.2371647"><ele>1295.0</ele><time>2026-05-02T16:32:35.258Z</time></trkpt><trkpt lat="42.2964744" lon="13.2371474"><ele>1292.3333333333335</ele><time>2026-05-02T16:32:36.264Z</time></trkpt><trkpt lat="42.2966326" lon="13.237114"><ele>1289.6666666666667</ele><time>2026-05-02T16:32:37.265Z</time></trkpt><trkpt lat="42.2967817" lon="13.2371007"><ele>1287.0</ele><time>2026-05-02T16:32:38.265Z</time></trkpt><trkpt lat="42.296937" lon="13.237117"><ele>1287.0</ele><time>2026-05-02T16:32:39.26Z</time></trkpt><trkpt lat="42.297144" lon="13.2371235"><ele>1287.0</ele><time>2026-05-02T16:32:40.254Z</time></trkpt><trkpt lat="42.2973216" lon="13.2371573"><ele>1287.0</ele><time>2026-05-02T16:32:41.256Z</time></trkpt><trkpt lat="42.2974997" lon="13.237222"><ele>1289.3333333333333</ele><time>2026-05-02T16:32:42.259Z</time></trkpt><trkpt lat="42.2976598" lon="13.2372979"><ele>1291.6666666666665</ele><time>2026-05-02T16:32:43.254Z</time></trkpt><trkpt lat="42.2978315" lon="13.2373709"><ele>1294.0</ele><time>2026-05-02T16:32:44.257Z</time></trkpt><trkpt lat="42.2979895" lon="13.2374211"><ele>1289.75</ele><time>2026-05-02T16:32:45.259Z</time></trkpt><trkpt lat="42.2981139" lon="13.2374572"><ele>1285.5</ele><time>2026-05-02T16:32:46.267Z</time></trkpt><trkpt lat="42.2982409" lon="13.2375479"><ele>1281.25</ele><time>2026-05-02T16:32:47.266Z</time></trkpt><trkpt lat="42.2983656" lon="13.2376431"><ele>1277.0</ele><time>2026-05-02T16:32:48.268Z</time></trkpt><trkpt lat="42.298474" lon="13.2377831"><ele>1277.0</ele><time>2026-05-02T16:32:49.271Z</time></trkpt><trkpt lat="42.2985642" lon="13.2379071"><ele>1277.0</ele><time>2026-05-02T16:32:50.269Z</time></trkpt><trkpt lat="42.2986979" lon="13.2379811"><ele>1277.0</ele><time>2026-05-02T16:32:51.267Z</time></trkpt><trkpt lat="42.2988087" lon="13.2380387"><ele>1277.0</ele><time>2026-05-02T16:32:52.272Z</time></trkpt><trkpt lat="42.2989339" lon="13.2380176"><ele>1278.0</ele><time>2026-05-02T16:32:53.274Z</time></trkpt><trkpt lat="42.299073" lon="13.2379381"><ele>1279.0</ele><time>2026-05-02T16:32:54.275Z</time></trkpt><trkpt lat="42.2992232" lon="13.2378574"><ele>1280.0</ele><time>2026-05-02T16:32:55.275Z</time></trkpt><trkpt lat="42.2993792" lon="13.2378099"><ele>1280.0</ele><time>2026-05-02T16:32:56.273Z</time></trkpt><trkpt lat="42.2995405" lon="13.2377887"><ele>1280.0</ele><time>2026-05-02T16:32:57.286Z</time></trkpt><trkpt lat="42.2996867" lon="13.2378194"><ele>1280.0</ele><time>2026-05-02T16:32:58.28Z</time></trkpt><trkpt lat="42.2998214" lon="13.2378866"><ele>1278.6666666666667</ele><time>2026-05-02T16:32:59.267Z</time></trkpt><trkpt lat="42.2999643" lon="13.2379549"><ele>1277.3333333333333</ele><time>2026-05-02T16:33:00.27Z</time></trkpt><trkpt lat="42.3001084" lon="13.2379856"><ele>1276.0</ele><time>2026-05-02T16:33:01.279Z</time></trkpt><trkpt lat="42.3002712" lon="13.2379757"><ele>1276.0</ele><time>2026-05-02T16:33:02.27Z</time></trkpt><trkpt lat="42.3004401" lon="13.2379333"><ele>1276.0</ele><time>2026-05-02T16:33:03.276Z</time></trkpt><trkpt lat="42.3005976" lon="13.2378487"><ele>1276.0</ele><time>2026-05-02T16:33:04.277Z</time></trkpt><trkpt lat="42.3007538" lon="13.2377608"><ele>1276.3333333333333</ele><time>2026-05-02T16:33:05.271Z</time></trkpt><trkpt lat="42.3009221" lon="13.2377226"><ele>1276.6666666666667</ele><time>2026-05-02T16:33:06.278Z</time></trkpt><trkpt lat="42.3010992" lon="13.2377115"><ele>1277.0</ele><time>2026-05-02T16:33:07.284Z</time></trkpt><trkpt lat="42.3012813" lon="13.2377151"><ele>1275.3333333333335</ele><time>2026-05-02T16:33:08.278Z</time></trkpt><trkpt lat="42.3014627" lon="13.237725"><ele>1273.6666666666667</ele><time>2026-05-02T16:33:09.282Z</time></trkpt><trkpt lat="42.3016379" lon="13.2377254"><ele>1272.0</ele><time>2026-05-02T16:33:10.281Z</time></trkpt><trkpt lat="42.3018033" lon="13.2377256"><ele>1272.0</ele><time>2026-05-02T16:33:11.281Z</time></trkpt><trkpt lat="42.3019761" lon="13.2377104"><ele>1272.0</ele><time>2026-05-02T16:33:12.283Z</time></trkpt><trkpt lat="42.3021459" lon="13.2376956"><ele>1272.0</ele><time>2026-05-02T16:33:13.278Z</time></trkpt><trkpt lat="42.3023026" lon="13.2376664"><ele>1272.3333333333333</ele><time>2026-05-02T16:33:14.282Z</time></trkpt><trkpt lat="42.3024592" lon="13.2376542"><ele>1272.6666666666665</ele><time>2026-05-02T16:33:15.277Z</time></trkpt><trkpt lat="42.302606" lon="13.2376683"><ele>1273.0</ele><time>2026-05-02T16:33:16.288Z</time></trkpt><trkpt lat="42.3027703" lon="13.2377192"><ele>1273.0</ele><time>2026-05-02T16:33:17.285Z</time></trkpt><trkpt lat="42.3029208" lon="13.2377712"><ele>1273.0</ele><time>2026-05-02T16:33:18.28Z</time></trkpt><trkpt lat="42.3031055" lon="13.2378613"><ele>1273.0</ele><time>2026-05-02T16:33:19.281Z</time></trkpt><trkpt lat="42.3032659" lon="13.2379346"><ele>1273.25</ele><time>2026-05-02T16:33:20.281Z</time></trkpt><trkpt lat="42.3034151" lon="13.2379863"><ele>1273.5</ele><time>2026-05-02T16:33:21.272Z</time></trkpt><trkpt lat="42.3035298" lon="13.2380749"><ele>1273.75</ele><time>2026-05-02T16:33:22.292Z</time></trkpt><trkpt lat="42.3036385" lon="13.2382065"><ele>1274.0</ele><time>2026-05-02T16:33:23.371Z</time></trkpt><trkpt lat="42.3037198" lon="13.2383453"><ele>1274.75</ele><time>2026-05-02T16:33:24.36Z</time></trkpt><trkpt lat="42.3037894" lon="13.2384574"><ele>1275.5</ele><time>2026-05-02T16:33:25.367Z</time></trkpt><trkpt lat="42.3038748" lon="13.2385461"><ele>1276.25</ele><time>2026-05-02T16:33:26.345Z</time></trkpt><trkpt lat="42.3039891" lon="13.2386341"><ele>1277.0</ele><time>2026-05-02T16:33:27.346Z</time></trkpt><trkpt lat="42.3041315" lon="13.2386985"><ele>1277.0</ele><time>2026-05-02T16:33:28.346Z</time></trkpt><trkpt lat="42.3042985" lon="13.2387399"><ele>1277.0</ele><time>2026-05-02T16:33:29.341Z</time></trkpt><trkpt lat="42.3044574" lon="13.2387882"><ele>1277.0</ele><time>2026-05-02T16:33:30.365Z</time></trkpt><trkpt lat="42.3045896" lon="13.2388176"><ele>1277.0</ele><time>2026-05-02T16:33:31.364Z</time></trkpt><trkpt lat="42.3046806" lon="13.2388406"><ele>1277.0</ele><time>2026-05-02T16:33:32.358Z</time></trkpt><trkpt lat="42.3047695" lon="13.238877"><ele>1277.0</ele><time>2026-05-02T16:33:34.355Z</time></trkpt><trkpt lat="42.304786" lon="13.2389725"><ele>1277.0</ele><time>2026-05-02T16:33:35.368Z</time></trkpt><trkpt lat="42.3048654" lon="13.2390197"><ele>1277.0</ele><time>2026-05-02T16:33:37.372Z</time></trkpt><trkpt lat="42.3048231" lon="13.2389338"><ele>1277.0</ele><time>2026-05-02T16:33:42.278Z</time></trkpt><trkpt lat="42.3047527" lon="13.2388999"><ele>1277.0</ele><time>2026-05-02T16:33:43.286Z</time></trkpt><trkpt lat="42.304666" lon="13.2388663"><ele>1277.0</ele><time>2026-05-02T16:33:44.277Z</time></trkpt><trkpt lat="42.3045729" lon="13.2388331"><ele>1277.0</ele><time>2026-05-02T16:33:45.278Z</time></trkpt><trkpt lat="42.3044654" lon="13.2388061"><ele>1277.0</ele><time>2026-05-02T16:33:46.281Z</time></trkpt><trkpt lat="42.3043527" lon="13.2387962"><ele>1277.0</ele><time>2026-05-02T16:33:47.28Z</time></trkpt><trkpt lat="42.3042403" lon="13.238774"><ele>1277.0</ele><time>2026-05-02T16:33:48.28Z</time></trkpt><trkpt lat="42.3041283" lon="13.2387392"><ele>1277.0</ele><time>2026-05-02T16:33:49.282Z</time></trkpt><trkpt lat="42.3040129" lon="13.2386873"><ele>1277.0</ele><time>2026-05-02T16:33:50.275Z</time></trkpt><trkpt lat="42.3039018" lon="13.2386095"><ele>1277.0</ele><time>2026-05-02T16:33:51.277Z</time></trkpt><trkpt lat="42.3037973" lon="13.2384946"><ele>1276.25</ele><time>2026-05-02T16:33:52.274Z</time></trkpt><trkpt lat="42.3036993" lon="13.2383426"><ele>1275.5</ele><time>2026-05-02T16:33:53.267Z</time></trkpt><trkpt lat="42.3036133" lon="13.2381856"><ele>1274.75</ele><time>2026-05-02T16:33:54.287Z</time></trkpt><trkpt lat="42.3035248" lon="13.2380594"><ele>1274.0</ele><time>2026-05-02T16:33:55.284Z</time></trkpt><trkpt lat="42.3034039" lon="13.2379697"><ele>1274.0</ele><time>2026-05-02T16:33:56.269Z</time></trkpt><trkpt lat="42.3032698" lon="13.237901"><ele>1274.0</ele><time>2026-05-02T16:33:57.284Z</time></trkpt><trkpt lat="42.3031258" lon="13.2378484"><ele>1274.0</ele><time>2026-05-02T16:33:58.279Z</time></trkpt><trkpt lat="42.3029799" lon="13.2377909"><ele>1274.0</ele><time>2026-05-02T16:33:59.283Z</time></trkpt><trkpt lat="42.3028456" lon="13.2377364"><ele>1273.8</ele><time>2026-05-02T16:34:00.277Z</time></trkpt><trkpt lat="42.3027279" lon="13.2376928"><ele>1273.6000000000001</ele><time>2026-05-02T16:34:01.28Z</time></trkpt><trkpt lat="42.3026038" lon="13.2376516"><ele>1273.4</ele><time>2026-05-02T16:34:02.275Z</time></trkpt><trkpt lat="42.3024933" lon="13.2376222"><ele>1273.2</ele><time>2026-05-02T16:34:03.271Z</time></trkpt><trkpt lat="42.3024222" lon="13.2376281"><ele>1273.0</ele><time>2026-05-02T16:34:04.272Z</time></trkpt><trkpt lat="42.3023412" lon="13.237649"><ele>1273.0</ele><time>2026-05-02T16:34:05.272Z</time></trkpt><trkpt lat="42.3022775" lon="13.2376572"><ele>1273.0</ele><time>2026-05-02T16:34:06.276Z</time></trkpt><trkpt lat="42.3022126" lon="13.2377103"><ele>1273.0</ele><time>2026-05-02T16:34:08.282Z</time></trkpt><trkpt lat="42.3022576" lon="13.2377977"><ele>1273.0</ele><time>2026-05-02T16:34:10.29Z</time></trkpt><trkpt lat="42.3023663" lon="13.2379037"><ele>1273.0</ele><time>2026-05-02T16:34:12.282Z</time></trkpt><trkpt lat="42.3024291" lon="13.2379681"><ele>1273.0</ele><time>2026-05-02T16:34:13.275Z</time></trkpt><trkpt lat="42.3024898" lon="13.2380311"><ele>1273.0</ele><time>2026-05-02T16:34:14.273Z</time></trkpt><trkpt lat="42.3025278" lon="13.2381014"><ele>1273.0</ele><time>2026-05-02T16:34:15.274Z</time></trkpt><trkpt lat="42.3025472" lon="13.2381871"><ele>1273.0</ele><time>2026-05-02T16:34:16.275Z</time></trkpt><trkpt lat="42.3025569" lon="13.238296"><ele>1273.0</ele><time>2026-05-02T16:34:17.283Z</time></trkpt><trkpt lat="42.3025876" lon="13.2383965"><ele>1273.0</ele><time>2026-05-02T16:34:18.278Z</time></trkpt><trkpt lat="42.3026375" lon="13.2384836"><ele>1273.0</ele><time>2026-05-02T16:34:19.279Z</time></trkpt><trkpt lat="42.3027037" lon="13.238555"><ele>1272.1666666666665</ele><time>2026-05-02T16:34:20.277Z</time></trkpt><trkpt lat="42.3027739" lon="13.238622"><ele>1271.3333333333333</ele><time>2026-05-02T16:34:21.28Z</time></trkpt><trkpt lat="42.3028521" lon="13.2386803"><ele>1270.5</ele><time>2026-05-02T16:34:22.279Z</time></trkpt><trkpt lat="42.3029376" lon="13.2387366"><ele>1269.6666666666667</ele><time>2026-05-02T16:34:23.277Z</time></trkpt><trkpt lat="42.3030206" lon="13.2387869"><ele>1268.8333333333335</ele><time>2026-05-02T16:34:24.275Z</time></trkpt><trkpt lat="42.3031004" lon="13.2388341"><ele>1268.0</ele><time>2026-05-02T16:34:25.278Z</time></trkpt><trkpt lat="42.3031774" lon="13.2388674"><ele>1268.0</ele><time>2026-05-02T16:34:26.276Z</time></trkpt><trkpt lat="42.3032536" lon="13.2389268"><ele>1268.0</ele><time>2026-05-02T16:34:27.277Z</time></trkpt><trkpt lat="42.3033271" lon="13.2389943"><ele>1268.0</ele><time>2026-05-02T16:34:28.282Z</time></trkpt><trkpt lat="42.3034134" lon="13.23908"><ele>1268.0</ele><time>2026-05-02T16:34:29.282Z</time></trkpt><trkpt lat="42.3034944" lon="13.239166"><ele>1268.0</ele><time>2026-05-02T16:34:30.279Z</time></trkpt><trkpt lat="42.3035849" lon="13.2392628"><ele>1268.8</ele><time>2026-05-02T16:34:31.275Z</time></trkpt><trkpt lat="42.303674" lon="13.2393662"><ele>1269.6</ele><time>2026-05-02T16:34:32.273Z</time></trkpt><trkpt lat="42.3037492" lon="13.2394402"><ele>1270.4</ele><time>2026-05-02T16:34:33.272Z</time></trkpt><trkpt lat="42.30382" lon="13.2395002"><ele>1271.2</ele><time>2026-05-02T16:34:34.272Z</time></trkpt><trkpt lat="42.3038866" lon="13.2395762"><ele>1272.0</ele><time>2026-05-02T16:34:35.268Z</time></trkpt><trkpt lat="42.3039389" lon="13.2396612"><ele>1272.0</ele><time>2026-05-02T16:34:36.266Z</time></trkpt><trkpt lat="42.303976" lon="13.2397615"><ele>1272.0</ele><time>2026-05-02T16:34:37.271Z</time></trkpt><trkpt lat="42.3040041" lon="13.2398944"><ele>1272.0</ele><time>2026-05-02T16:34:38.267Z</time></trkpt><trkpt lat="42.3040055" lon="13.2400328"><ele>1272.0</ele><time>2026-05-02T16:34:39.267Z</time></trkpt><trkpt lat="42.3040019" lon="13.2401707"><ele>1272.0</ele><time>2026-05-02T16:34:40.271Z</time></trkpt><trkpt lat="42.3040095" lon="13.24031"><ele>1272.6</ele><time>2026-05-02T16:34:41.266Z</time></trkpt><trkpt lat="42.3040233" lon="13.2404458"><ele>1273.2</ele><time>2026-05-02T16:34:42.27Z</time></trkpt><trkpt lat="42.3040449" lon="13.2405748"><ele>1273.8</ele><time>2026-05-02T16:34:43.264Z</time></trkpt><trkpt lat="42.3040697" lon="13.2407179"><ele>1274.4</ele><time>2026-05-02T16:34:44.264Z</time></trkpt><trkpt lat="42.304097" lon="13.2408711"><ele>1275.0</ele><time>2026-05-02T16:34:45.271Z</time></trkpt><trkpt lat="42.3041057" lon="13.2410195"><ele>1275.6</ele><time>2026-05-02T16:34:46.27Z</time></trkpt><trkpt lat="42.3041064" lon="13.2411534"><ele>1276.2</ele><time>2026-05-02T16:34:47.274Z</time></trkpt><trkpt lat="42.3040975" lon="13.24127"><ele>1276.8</ele><time>2026-05-02T16:34:48.275Z</time></trkpt><trkpt lat="42.3040623" lon="13.2413762"><ele>1277.4</ele><time>2026-05-02T16:34:49.275Z</time></trkpt><trkpt lat="42.3040153" lon="13.2414765"><ele>1278.0</ele><time>2026-05-02T16:34:50.266Z</time></trkpt><trkpt lat="42.303972" lon="13.2415947"><ele>1278.4</ele><time>2026-05-02T16:34:51.27Z</time></trkpt><trkpt lat="42.3039477" lon="13.2417049"><ele>1278.8</ele><time>2026-05-02T16:34:52.271Z</time></trkpt><trkpt lat="42.3039292" lon="13.241821"><ele>1279.2</ele><time>2026-05-02T16:34:53.27Z</time></trkpt><trkpt lat="42.3038924" lon="13.2419461"><ele>1279.6</ele><time>2026-05-02T16:34:54.269Z</time></trkpt><trkpt lat="42.3038289" lon="13.242066"><ele>1280.0</ele><time>2026-05-02T16:34:55.265Z</time></trkpt><trkpt lat="42.3037688" lon="13.2421766"><ele>1283.6</ele><time>2026-05-02T16:34:56.271Z</time></trkpt><trkpt lat="42.3037071" lon="13.2422995"><ele>1287.2</ele><time>2026-05-02T16:34:57.265Z</time></trkpt><trkpt lat="42.3036638" lon="13.242429"><ele>1290.8000000000002</ele><time>2026-05-02T16:34:58.273Z</time></trkpt><trkpt lat="42.3036242" lon="13.2425611"><ele>1294.4</ele><time>2026-05-02T16:34:59.277Z</time></trkpt><trkpt lat="42.3035981" lon="13.2427152"><ele>1298.0</ele><time>2026-05-02T16:35:00.273Z</time></trkpt><trkpt lat="42.3035846" lon="13.2428651"><ele>1298.0</ele><time>2026-05-02T16:35:01.28Z</time></trkpt><trkpt lat="42.3035737" lon="13.2430133"><ele>1298.0</ele><time>2026-05-02T16:35:02.272Z</time></trkpt><trkpt lat="42.3035675" lon="13.2431716"><ele>1298.0</ele><time>2026-05-02T16:35:03.272Z</time></trkpt><trkpt lat="42.3035684" lon="13.2433258"><ele>1298.0</ele><time>2026-05-02T16:35:04.27Z</time></trkpt><trkpt lat="42.3035619" lon="13.2434765"><ele>1298.0</ele><time>2026-05-02T16:35:05.261Z</time></trkpt><trkpt lat="42.3035612" lon="13.2436162"><ele>1298.0</ele><time>2026-05-02T16:35:06.272Z</time></trkpt><trkpt lat="42.3035774" lon="13.2437311"><ele>1298.0</ele><time>2026-05-02T16:35:07.263Z</time></trkpt><trkpt lat="42.3035888" lon="13.2438472"><ele>1298.0</ele><time>2026-05-02T16:35:08.265Z</time></trkpt><trkpt lat="42.30361" lon="13.243966"><ele>1298.0</ele><time>2026-05-02T16:35:09.262Z</time></trkpt><trkpt lat="42.3036197" lon="13.2441007"><ele>1299.0</ele><time>2026-05-02T16:35:10.264Z</time></trkpt><trkpt lat="42.3036184" lon="13.244234"><ele>1300.0</ele><time>2026-05-02T16:35:11.261Z</time></trkpt><trkpt lat="42.3035942" lon="13.244358"><ele>1301.0</ele><time>2026-05-02T16:35:12.263Z</time></trkpt><trkpt lat="42.303545" lon="13.2444654"><ele>1302.0</ele><time>2026-05-02T16:35:13.261Z</time></trkpt><trkpt lat="42.3035054" lon="13.2445459"><ele>1303.0</ele><time>2026-05-02T16:35:14.27Z</time></trkpt><trkpt lat="42.3034723" lon="13.2446383"><ele>1304.0</ele><time>2026-05-02T16:35:15.267Z</time></trkpt><trkpt lat="42.3034347" lon="13.2447448"><ele>1305.0</ele><time>2026-05-02T16:35:16.274Z</time></trkpt><trkpt lat="42.3033912" lon="13.2448587"><ele>1306.0</ele><time>2026-05-02T16:35:17.268Z</time></trkpt><trkpt lat="42.3033425" lon="13.2449717"><ele>1307.0</ele><time>2026-05-02T16:35:18.277Z</time></trkpt><trkpt lat="42.3033009" lon="13.2450853"><ele>1308.0</ele><time>2026-05-02T16:35:19.27Z</time></trkpt><trkpt lat="42.3032489" lon="13.2451972"><ele>1309.0</ele><time>2026-05-02T16:35:20.269Z</time></trkpt><trkpt lat="42.3032079" lon="13.2452981"><ele>1309.0</ele><time>2026-05-02T16:35:21.276Z</time></trkpt><trkpt lat="42.3031838" lon="13.2454082"><ele>1309.0</ele><time>2026-05-02T16:35:22.275Z</time></trkpt><trkpt lat="42.3031677" lon="13.245528"><ele>1309.0</ele><time>2026-05-02T16:35:23.267Z</time></trkpt><trkpt lat="42.3031552" lon="13.2456447"><ele>1309.0</ele><time>2026-05-02T16:35:24.279Z</time></trkpt><trkpt lat="42.3031439" lon="13.2457588"><ele>1309.0</ele><time>2026-05-02T16:35:25.268Z</time></trkpt><trkpt lat="42.3031054" lon="13.2458598"><ele>1309.0</ele><time>2026-05-02T16:35:26.275Z</time></trkpt><trkpt lat="42.303045" lon="13.2459339"><ele>1310.1666666666665</ele><time>2026-05-02T16:35:27.273Z</time></trkpt><trkpt lat="42.3029956" lon="13.2460169"><ele>1311.3333333333333</ele><time>2026-05-02T16:35:28.273Z</time></trkpt><trkpt lat="42.302973" lon="13.2461074"><ele>1312.5</ele><time>2026-05-02T16:35:29.271Z</time></trkpt><trkpt lat="42.3029648" lon="13.2462045"><ele>1313.6666666666667</ele><time>2026-05-02T16:35:30.271Z</time></trkpt><trkpt lat="42.3029032" lon="13.2463555"><ele>1314.8333333333335</ele><time>2026-05-02T16:35:32.271Z</time></trkpt><trkpt lat="42.3028558" lon="13.2464159"><ele>1316.0</ele><time>2026-05-02T16:35:33.27Z</time></trkpt><trkpt lat="42.3028168" lon="13.2464891"><ele>1317.5</ele><time>2026-05-02T16:35:34.271Z</time></trkpt><trkpt lat="42.302785" lon="13.2465689"><ele>1319.0</ele><time>2026-05-02T16:35:35.27Z</time></trkpt><trkpt lat="42.3027531" lon="13.2466656"><ele>1320.5</ele><time>2026-05-02T16:35:36.274Z</time></trkpt><trkpt lat="42.3027253" lon="13.2467612"><ele>1322.0</ele><time>2026-05-02T16:35:37.276Z</time></trkpt><trkpt lat="42.3026681" lon="13.246886"><ele>1323.5</ele><time>2026-05-02T16:35:38.277Z</time></trkpt><trkpt lat="42.3026155" lon="13.2469777"><ele>1325.0</ele><time>2026-05-02T16:35:39.269Z</time></trkpt><trkpt lat="42.3025601" lon="13.247047"><ele>1325.0</ele><time>2026-05-02T16:35:40.273Z</time></trkpt><trkpt lat="42.3024972" lon="13.2471288"><ele>1325.0</ele><time>2026-05-02T16:35:41.265Z</time></trkpt><trkpt lat="42.3024508" lon="13.2472059"><ele>1325.0</ele><time>2026-05-02T16:35:42.271Z</time></trkpt><trkpt lat="42.3024077" lon="13.2472984"><ele>1325.0</ele><time>2026-05-02T16:35:43.268Z</time></trkpt><trkpt lat="42.3023631" lon="13.2473928"><ele>1325.0</ele><time>2026-05-02T16:35:44.273Z</time></trkpt><trkpt lat="42.3023193" lon="13.247484"><ele>1325.0</ele><time>2026-05-02T16:35:45.27Z</time></trkpt><trkpt lat="42.3022746" lon="13.2475743"><ele>1328.6666666666667</ele><time>2026-05-02T16:35:46.275Z</time></trkpt><trkpt lat="42.302211" lon="13.2476599"><ele>1332.3333333333335</ele><time>2026-05-02T16:35:47.274Z</time></trkpt><trkpt lat="42.3021514" lon="13.2477426"><ele>1336.0</ele><time>2026-05-02T16:35:48.274Z</time></trkpt><trkpt lat="42.3020923" lon="13.2478309"><ele>1339.6666666666667</ele><time>2026-05-02T16:35:49.278Z</time></trkpt><trkpt lat="42.3020377" lon="13.2479225"><ele>1343.3333333333333</ele><time>2026-05-02T16:35:50.272Z</time></trkpt><trkpt lat="42.3019903" lon="13.2480198"><ele>1347.0</ele><time>2026-05-02T16:35:51.271Z</time></trkpt><trkpt lat="42.3019513" lon="13.2481114"><ele>1347.6666666666667</ele><time>2026-05-02T16:35:52.27Z</time></trkpt><trkpt lat="42.3018966" lon="13.2482028"><ele>1348.3333333333333</ele><time>2026-05-02T16:35:53.262Z</time></trkpt><trkpt lat="42.3018288" lon="13.2482775"><ele>1349.0</ele><time>2026-05-02T16:35:54.268Z</time></trkpt><trkpt lat="42.3017831" lon="13.2483606"><ele>1349.6666666666665</ele><time>2026-05-02T16:35:55.262Z</time></trkpt><trkpt lat="42.3017397" lon="13.2484503"><ele>1350.3333333333333</ele><time>2026-05-02T16:35:56.258Z</time></trkpt><trkpt lat="42.3017067" lon="13.2485239"><ele>1351.0</ele><time>2026-05-02T16:35:57.266Z</time></trkpt><trkpt lat="42.3016469" lon="13.2486004"><ele>1351.0</ele><time>2026-05-02T16:35:59.269Z</time></trkpt><trkpt lat="42.3015564" lon="13.248632"><ele>1351.0</ele><time>2026-05-02T16:36:02.288Z</time></trkpt><trkpt lat="42.3014911" lon="13.248659"><ele>1351.0</ele><time>2026-05-02T16:36:04.275Z</time></trkpt><trkpt lat="42.3015057" lon="13.2487496"><ele>1351.0</ele><time>2026-05-02T16:36:06.288Z</time></trkpt><trkpt lat="42.3015494" lon="13.2488164"><ele>1351.0</ele><time>2026-05-02T16:36:15.286Z</time></trkpt><trkpt lat="42.3016189" lon="13.2487641"><ele>1351.0</ele><time>2026-05-02T16:36:18.292Z</time></trkpt><trkpt lat="42.3016226" lon="13.2486599"><ele>1351.0</ele><time>2026-05-02T16:36:21.29Z</time></trkpt><trkpt lat="42.3015523" lon="13.2487306"><ele>1351.0</ele><time>2026-05-02T16:36:25.293Z</time></trkpt><trkpt lat="42.3015475" lon="13.2488886"><ele>1351.0</ele><time>2026-05-02T16:36:27.282Z</time></trkpt><trkpt lat="42.3015542" lon="13.2489946"><ele>1351.0</ele><time>2026-05-02T16:36:29.285Z</time></trkpt><trkpt lat="42.3015332" lon="13.2491516"><ele>1351.0</ele><time>2026-05-02T16:36:31.277Z</time></trkpt><trkpt lat="42.3015044" lon="13.2492423"><ele>1352.1666666666665</ele><time>2026-05-02T16:36:32.278Z</time></trkpt><trkpt lat="42.3014764" lon="13.2493449"><ele>1353.3333333333333</ele><time>2026-05-02T16:36:33.272Z</time></trkpt><trkpt lat="42.3014539" lon="13.2494574"><ele>1354.5</ele><time>2026-05-02T16:36:34.276Z</time></trkpt><trkpt lat="42.3014408" lon="13.249572"><ele>1355.6666666666667</ele><time>2026-05-02T16:36:35.277Z</time></trkpt><trkpt lat="42.3014293" lon="13.2496903"><ele>1356.8333333333335</ele><time>2026-05-02T16:36:36.281Z</time></trkpt><trkpt lat="42.301419" lon="13.2498268"><ele>1358.0</ele><time>2026-05-02T16:36:37.278Z</time></trkpt><trkpt lat="42.3014218" lon="13.2499667"><ele>1358.0</ele><time>2026-05-02T16:36:38.285Z</time></trkpt><trkpt lat="42.3014397" lon="13.2501091"><ele>1358.0</ele><time>2026-05-02T16:36:39.28Z</time></trkpt><trkpt lat="42.3014573" lon="13.2502611"><ele>1358.0</ele><time>2026-05-02T16:36:40.272Z</time></trkpt><trkpt lat="42.3014927" lon="13.2504087"><ele>1358.0</ele><time>2026-05-02T16:36:41.279Z</time></trkpt><trkpt lat="42.301535" lon="13.2505606"><ele>1355.0</ele><time>2026-05-02T16:36:42.275Z</time></trkpt><trkpt lat="42.3015932" lon="13.2506973"><ele>1352.0</ele><time>2026-05-02T16:36:43.275Z</time></trkpt><trkpt lat="42.3016516" lon="13.2508352"><ele>1349.0</ele><time>2026-05-02T16:36:44.275Z</time></trkpt><trkpt lat="42.301707" lon="13.2509575"><ele>1346.0</ele><time>2026-05-02T16:36:45.273Z</time></trkpt><trkpt lat="42.3017553" lon="13.2510774"><ele>1343.0</ele><time>2026-05-02T16:36:46.279Z</time></trkpt><trkpt lat="42.3017997" lon="13.2511979"><ele>1343.0</ele><time>2026-05-02T16:36:47.275Z</time></trkpt><trkpt lat="42.3018547" lon="13.2513299"><ele>1343.0</ele><time>2026-05-02T16:36:48.285Z</time></trkpt><trkpt lat="42.3019329" lon="13.2514517"><ele>1343.0</ele><time>2026-05-02T16:36:49.279Z</time></trkpt><trkpt lat="42.3020261" lon="13.2515739"><ele>1343.0</ele><time>2026-05-02T16:36:50.287Z</time></trkpt><trkpt lat="42.3021336" lon="13.2516872"><ele>1343.25</ele><time>2026-05-02T16:36:51.276Z</time></trkpt><trkpt lat="42.3022571" lon="13.251793"><ele>1343.5</ele><time>2026-05-02T16:36:52.281Z</time></trkpt><trkpt lat="42.3023866" lon="13.2518658"><ele>1343.75</ele><time>2026-05-02T16:36:53.273Z</time></trkpt><trkpt lat="42.30252" lon="13.2518985"><ele>1344.0</ele><time>2026-05-02T16:36:54.272Z</time></trkpt><trkpt lat="42.3026625" lon="13.2519003"><ele>1344.0</ele><time>2026-05-02T16:36:55.281Z</time></trkpt><trkpt lat="42.3028254" lon="13.2518851"><ele>1344.0</ele><time>2026-05-02T16:36:56.279Z</time></trkpt><trkpt lat="42.3029947" lon="13.2518697"><ele>1344.0</ele><time>2026-05-02T16:36:57.277Z</time></trkpt><trkpt lat="42.303153" lon="13.2518779"><ele>1345.5</ele><time>2026-05-02T16:36:58.28Z</time></trkpt><trkpt lat="42.3032883" lon="13.2519045"><ele>1347.0</ele><time>2026-05-02T16:36:59.274Z</time></trkpt><trkpt lat="42.3034364" lon="13.251917"><ele>1348.5</ele><time>2026-05-02T16:37:00.278Z</time></trkpt><trkpt lat="42.3035822" lon="13.2519396"><ele>1350.0</ele><time>2026-05-02T16:37:01.278Z</time></trkpt><trkpt lat="42.3037222" lon="13.2519674"><ele>1350.0</ele><time>2026-05-02T16:37:02.267Z</time></trkpt><trkpt lat="42.3038525" lon="13.2520287"><ele>1350.0</ele><time>2026-05-02T16:37:03.274Z</time></trkpt><trkpt lat="42.3039581" lon="13.2521413"><ele>1350.0</ele><time>2026-05-02T16:37:04.269Z</time></trkpt><trkpt lat="42.304046" lon="13.2522709"><ele>1350.0</ele><time>2026-05-02T16:37:05.263Z</time></trkpt><trkpt lat="42.3041163" lon="13.2524294"><ele>1346.3333333333333</ele><time>2026-05-02T16:37:06.272Z</time></trkpt><trkpt lat="42.3041688" lon="13.2526278"><ele>1342.6666666666665</ele><time>2026-05-02T16:37:07.273Z</time></trkpt><trkpt lat="42.3042153" lon="13.2528405"><ele>1339.0</ele><time>2026-05-02T16:37:08.273Z</time></trkpt><trkpt lat="42.3042819" lon="13.2530612"><ele>1331.0</ele><time>2026-05-02T16:37:09.274Z</time></trkpt><trkpt lat="42.3043488" lon="13.2532819"><ele>1323.0</ele><time>2026-05-02T16:37:10.275Z</time></trkpt><trkpt lat="42.3044118" lon="13.2534803"><ele>1315.0</ele><time>2026-05-02T16:37:11.274Z</time></trkpt><trkpt lat="42.304472" lon="13.2536863"><ele>1315.0</ele><time>2026-05-02T16:37:12.279Z</time></trkpt><trkpt lat="42.3045443" lon="13.2538768"><ele>1315.0</ele><time>2026-05-02T16:37:13.272Z</time></trkpt><trkpt lat="42.3046245" lon="13.2540544"><ele>1315.0</ele><time>2026-05-02T16:37:14.281Z</time></trkpt><trkpt lat="42.3046884" lon="13.2542208"><ele>1318.2</ele><time>2026-05-02T16:37:15.274Z</time></trkpt><trkpt lat="42.3047439" lon="13.2543731"><ele>1321.4</ele><time>2026-05-02T16:37:16.265Z</time></trkpt><trkpt lat="42.3047996" lon="13.2545191"><ele>1324.6</ele><time>2026-05-02T16:37:17.278Z</time></trkpt><trkpt lat="42.3048701" lon="13.2546106"><ele>1327.8</ele><time>2026-05-02T16:37:18.283Z</time></trkpt><trkpt lat="42.3049649" lon="13.2546453"><ele>1331.0</ele><time>2026-05-02T16:37:19.279Z</time></trkpt><trkpt lat="42.3050666" lon="13.2546341"><ele>1331.0</ele><time>2026-05-02T16:37:20.269Z</time></trkpt><trkpt lat="42.305185" lon="13.2545668"><ele>1331.0</ele><time>2026-05-02T16:37:21.272Z</time></trkpt><trkpt lat="42.3053278" lon="13.2544975"><ele>1331.0</ele><time>2026-05-02T16:37:22.278Z</time></trkpt><trkpt lat="42.3054609" lon="13.2544275"><ele>1331.0</ele><time>2026-05-02T16:37:23.273Z</time></trkpt><trkpt lat="42.3056006" lon="13.254355"><ele>1329.0</ele><time>2026-05-02T16:37:24.266Z</time></trkpt><trkpt lat="42.3057338" lon="13.2542527"><ele>1327.0</ele><time>2026-05-02T16:37:25.258Z</time></trkpt><trkpt lat="42.3058624" lon="13.2541549"><ele>1325.0</ele><time>2026-05-02T16:37:26.268Z</time></trkpt><trkpt lat="42.3059947" lon="13.2541151"><ele>1323.0</ele><time>2026-05-02T16:37:27.258Z</time></trkpt><trkpt lat="42.3061485" lon="13.2540967"><ele>1323.0</ele><time>2026-05-02T16:37:28.265Z</time></trkpt><trkpt lat="42.3062861" lon="13.2540864"><ele>1323.0</ele><time>2026-05-02T16:37:29.262Z</time></trkpt><trkpt lat="42.3064441" lon="13.2540405"><ele>1323.0</ele><time>2026-05-02T16:37:30.268Z</time></trkpt><trkpt lat="42.3065954" lon="13.2539758"><ele>1334.0</ele><time>2026-05-02T16:37:31.281Z</time></trkpt><trkpt lat="42.3067428" lon="13.2539311"><ele>1345.0</ele><time>2026-05-02T16:37:32.268Z</time></trkpt><trkpt lat="42.3068984" lon="13.2539067"><ele>1356.0</ele><time>2026-05-02T16:37:33.274Z</time></trkpt><trkpt lat="42.3070636" lon="13.2538907"><ele>1356.0</ele><time>2026-05-02T16:37:34.273Z</time></trkpt><trkpt lat="42.3072007" lon="13.2538612"><ele>1356.0</ele><time>2026-05-02T16:37:35.274Z</time></trkpt><trkpt lat="42.3073263" lon="13.2538053"><ele>1356.0</ele><time>2026-05-02T16:37:36.275Z</time></trkpt><trkpt lat="42.3074698" lon="13.253746"><ele>1356.0</ele><time>2026-05-02T16:37:37.274Z</time></trkpt><trkpt lat="42.3076156" lon="13.2537331"><ele>1349.3333333333333</ele><time>2026-05-02T16:37:38.278Z</time></trkpt><trkpt lat="42.3077712" lon="13.2537396"><ele>1342.6666666666665</ele><time>2026-05-02T16:37:39.274Z</time></trkpt><trkpt lat="42.3079417" lon="13.2537532"><ele>1336.0</ele><time>2026-05-02T16:37:40.285Z</time></trkpt><trkpt lat="42.3081018" lon="13.2537654"><ele>1332.6666666666665</ele><time>2026-05-02T16:37:41.296Z</time></trkpt><trkpt lat="42.3082685" lon="13.253778"><ele>1329.3333333333333</ele><time>2026-05-02T16:37:42.365Z</time></trkpt><trkpt lat="42.3084339" lon="13.2537937"><ele>1326.0</ele><time>2026-05-02T16:37:43.366Z</time></trkpt><trkpt lat="42.3085929" lon="13.2538267"><ele>1326.0</ele><time>2026-05-02T16:37:44.367Z</time></trkpt><trkpt lat="42.3087414" lon="13.2538764"><ele>1326.0</ele><time>2026-05-02T16:37:45.373Z</time></trkpt><trkpt lat="42.3088871" lon="13.2539314"><ele>1326.0</ele><time>2026-05-02T16:37:46.375Z</time></trkpt><trkpt lat="42.3090223" lon="13.2539742"><ele>1326.0</ele><time>2026-05-02T16:37:47.355Z</time></trkpt><trkpt lat="42.3091419" lon="13.2540053"><ele>1325.25</ele><time>2026-05-02T16:37:48.358Z</time></trkpt><trkpt lat="42.3092514" lon="13.254005"><ele>1324.5</ele><time>2026-05-02T16:37:49.357Z</time></trkpt><trkpt lat="42.3093563" lon="13.2539566"><ele>1323.75</ele><time>2026-05-02T16:37:50.358Z</time></trkpt><trkpt lat="42.3094635" lon="13.2538667"><ele>1323.0</ele><time>2026-05-02T16:37:51.357Z</time></trkpt><trkpt lat="42.3095838" lon="13.2538796"><ele>1323.0</ele><time>2026-05-02T16:37:52.273Z</time></trkpt><trkpt lat="42.3097102" lon="13.2537788"><ele>1323.0</ele><time>2026-05-02T16:37:53.285Z</time></trkpt><trkpt lat="42.3098635" lon="13.2536663"><ele>1323.0</ele><time>2026-05-02T16:37:54.282Z</time></trkpt><trkpt lat="42.3100116" lon="13.253557"><ele>1317.6666666666667</ele><time>2026-05-02T16:37:55.288Z</time></trkpt><trkpt lat="42.310159" lon="13.2534578"><ele>1312.3333333333335</ele><time>2026-05-02T16:37:56.281Z</time></trkpt><trkpt lat="42.3102888" lon="13.2533557"><ele>1307.0</ele><time>2026-05-02T16:37:57.28Z</time></trkpt><trkpt lat="42.3104115" lon="13.2532669"><ele>1307.0</ele><time>2026-05-02T16:37:58.283Z</time></trkpt><trkpt lat="42.310531" lon="13.2531685"><ele>1307.0</ele><time>2026-05-02T16:37:59.293Z</time></trkpt><trkpt lat="42.3106642" lon="13.2530562"><ele>1307.0</ele><time>2026-05-02T16:38:00.286Z</time></trkpt><trkpt lat="42.3107946" lon="13.2529892"><ele>1307.0</ele><time>2026-05-02T16:38:01.286Z</time></trkpt><trkpt lat="42.3109268" lon="13.252952"><ele>1306.5</ele><time>2026-05-02T16:38:02.279Z</time></trkpt><trkpt lat="42.3110845" lon="13.2529445"><ele>1306.0</ele><time>2026-05-02T16:38:03.284Z</time></trkpt><trkpt lat="42.3112312" lon="13.252948"><ele>1305.5</ele><time>2026-05-02T16:38:04.285Z</time></trkpt><trkpt lat="42.3113699" lon="13.2529313"><ele>1305.0</ele><time>2026-05-02T16:38:05.279Z</time></trkpt><trkpt lat="42.3114917" lon="13.2529029"><ele>1305.0</ele><time>2026-05-02T16:38:06.272Z</time></trkpt><trkpt lat="42.3116208" lon="13.252848"><ele>1305.0</ele><time>2026-05-02T16:38:07.282Z</time></trkpt><trkpt lat="42.3117431" lon="13.252814"><ele>1305.0</ele><time>2026-05-02T16:38:08.291Z</time></trkpt><trkpt lat="42.3118703" lon="13.2528222"><ele>1305.0</ele><time>2026-05-02T16:38:09.279Z</time></trkpt><trkpt lat="42.3119914" lon="13.252842"><ele>1305.0</ele><time>2026-05-02T16:38:10.274Z</time></trkpt><trkpt lat="42.3121205" lon="13.2528847"><ele>1305.0</ele><time>2026-05-02T16:38:11.286Z</time></trkpt><trkpt lat="42.3122506" lon="13.2529244"><ele>1305.0</ele><time>2026-05-02T16:38:12.278Z</time></trkpt><trkpt lat="42.3123562" lon="13.2529165"><ele>1305.0</ele><time>2026-05-02T16:38:13.281Z</time></trkpt><trkpt lat="42.312451" lon="13.2528409"><ele>1301.25</ele><time>2026-05-02T16:38:14.291Z</time></trkpt><trkpt lat="42.3125593" lon="13.2527192"><ele>1297.5</ele><time>2026-05-02T16:38:15.281Z</time></trkpt><trkpt lat="42.3126726" lon="13.2526094"><ele>1293.75</ele><time>2026-05-02T16:38:16.28Z</time></trkpt><trkpt lat="42.312798" lon="13.2525141"><ele>1290.0</ele><time>2026-05-02T16:38:17.279Z</time></trkpt><trkpt lat="42.3128935" lon="13.2524096"><ele>1288.5</ele><time>2026-05-02T16:38:18.296Z</time></trkpt><trkpt lat="42.3129442" lon="13.2522354"><ele>1287.0</ele><time>2026-05-02T16:38:19.277Z</time></trkpt><trkpt lat="42.3129816" lon="13.252085"><ele>1285.5</ele><time>2026-05-02T16:38:20.285Z</time></trkpt><trkpt lat="42.3130404" lon="13.2519711"><ele>1284.0</ele><time>2026-05-02T16:38:21.278Z</time></trkpt><trkpt lat="42.3131241" lon="13.2518836"><ele>1284.0</ele><time>2026-05-02T16:38:22.283Z</time></trkpt><trkpt lat="42.3132375" lon="13.2518292"><ele>1284.0</ele><time>2026-05-02T16:38:23.277Z</time></trkpt><trkpt lat="42.313365" lon="13.25178"><ele>1284.0</ele><time>2026-05-02T16:38:24.285Z</time></trkpt><trkpt lat="42.3134828" lon="13.2517136"><ele>1284.0</ele><time>2026-05-02T16:38:25.277Z</time></trkpt><trkpt lat="42.3135782" lon="13.2516042"><ele>1284.0</ele><time>2026-05-02T16:38:26.288Z</time></trkpt><trkpt lat="42.3136382" lon="13.2514615"><ele>1284.0</ele><time>2026-05-02T16:38:27.279Z</time></trkpt><trkpt lat="42.3137201" lon="13.2513551"><ele>1284.0</ele><time>2026-05-02T16:38:28.291Z</time></trkpt><trkpt lat="42.3138376" lon="13.2513053"><ele>1284.0</ele><time>2026-05-02T16:38:29.286Z</time></trkpt><trkpt lat="42.3139732" lon="13.2512948"><ele>1287.0</ele><time>2026-05-02T16:38:30.284Z</time></trkpt><trkpt lat="42.3141096" lon="13.2512559"><ele>1290.0</ele><time>2026-05-02T16:38:31.277Z</time></trkpt><trkpt lat="42.3142299" lon="13.2511854"><ele>1293.0</ele><time>2026-05-02T16:38:32.286Z</time></trkpt><trkpt lat="42.3143445" lon="13.2511202"><ele>1296.0</ele><time>2026-05-02T16:38:33.276Z</time></trkpt><trkpt lat="42.3144493" lon="13.251095"><ele>1296.0</ele><time>2026-05-02T16:38:34.283Z</time></trkpt><trkpt lat="42.3145422" lon="13.2511479"><ele>1296.0</ele><time>2026-05-02T16:38:35.291Z</time></trkpt><trkpt lat="42.3146527" lon="13.2512295"><ele>1296.0</ele><time>2026-05-02T16:38:36.284Z</time></trkpt><trkpt lat="42.3147592" lon="13.2513449"><ele>1296.0</ele><time>2026-05-02T16:38:37.284Z</time></trkpt><trkpt lat="42.3148746" lon="13.2514772"><ele>1290.25</ele><time>2026-05-02T16:38:38.285Z</time></trkpt><trkpt lat="42.3149823" lon="13.2515969"><ele>1284.5</ele><time>2026-05-02T16:38:39.283Z</time></trkpt><trkpt lat="42.3150912" lon="13.251717"><ele>1278.75</ele><time>2026-05-02T16:38:40.286Z</time></trkpt><trkpt lat="42.3152031" lon="13.2518459"><ele>1273.0</ele><time>2026-05-02T16:38:41.283Z</time></trkpt><trkpt lat="42.3152919" lon="13.2519855"><ele>1273.0</ele><time>2026-05-02T16:38:42.279Z</time></trkpt><trkpt lat="42.3153717" lon="13.2521017"><ele>1273.0</ele><time>2026-05-02T16:38:43.288Z</time></trkpt><trkpt lat="42.3154626" lon="13.2521907"><ele>1273.0</ele><time>2026-05-02T16:38:44.264Z</time></trkpt><trkpt lat="42.3155698" lon="13.252231"><ele>1273.0</ele><time>2026-05-02T16:38:45.271Z</time></trkpt><trkpt lat="42.3156971" lon="13.2522435"><ele>1280.3333333333333</ele><time>2026-05-02T16:38:46.279Z</time></trkpt><trkpt lat="42.3158435" lon="13.2522193"><ele>1287.6666666666667</ele><time>2026-05-02T16:38:47.284Z</time></trkpt><trkpt lat="42.3160022" lon="13.2521864"><ele>1295.0</ele><time>2026-05-02T16:38:48.282Z</time></trkpt><trkpt lat="42.3161481" lon="13.2521317"><ele>1295.0</ele><time>2026-05-02T16:38:49.283Z</time></trkpt><trkpt lat="42.3162755" lon="13.2520801"><ele>1295.0</ele><time>2026-05-02T16:38:50.272Z</time></trkpt><trkpt lat="42.316367" lon="13.2520423"><ele>1295.0</ele><time>2026-05-02T16:38:51.275Z</time></trkpt><trkpt lat="42.3164504" lon="13.2520097"><ele>1295.0</ele><time>2026-05-02T16:38:52.286Z</time></trkpt><trkpt lat="42.3165504" lon="13.2520085"><ele>1295.0</ele><time>2026-05-02T16:38:53.281Z</time></trkpt><trkpt lat="42.3166168" lon="13.2520521"><ele>1294.2</ele><time>2026-05-02T16:38:54.271Z</time></trkpt><trkpt lat="42.3166603" lon="13.252132"><ele>1293.4</ele><time>2026-05-02T16:38:55.266Z</time></trkpt><trkpt lat="42.3166841" lon="13.252295"><ele>1292.6</ele><time>2026-05-02T16:38:57.278Z</time></trkpt><trkpt lat="42.3166698" lon="13.2524093"><ele>1291.8</ele><time>2026-05-02T16:38:58.292Z</time></trkpt><trkpt lat="42.3166333" lon="13.2525326"><ele>1291.0</ele><time>2026-05-02T16:38:59.285Z</time></trkpt><trkpt lat="42.3165851" lon="13.2526292"><ele>1288.1666666666665</ele><time>2026-05-02T16:39:00.275Z</time></trkpt><trkpt lat="42.3165244" lon="13.2526927"><ele>1285.3333333333333</ele><time>2026-05-02T16:39:01.279Z</time></trkpt><trkpt lat="42.3164648" lon="13.2527611"><ele>1282.5</ele><time>2026-05-02T16:39:02.283Z</time></trkpt><trkpt lat="42.316424" lon="13.2528474"><ele>1279.6666666666667</ele><time>2026-05-02T16:39:03.28Z</time></trkpt><trkpt lat="42.3164013" lon="13.2529529"><ele>1276.8333333333335</ele><time>2026-05-02T16:39:04.284Z</time></trkpt><trkpt lat="42.3164191" lon="13.2530535"><ele>1274.0</ele><time>2026-05-02T16:39:05.284Z</time></trkpt><trkpt lat="42.3164873" lon="13.2531116"><ele>1274.0</ele><time>2026-05-02T16:39:06.291Z</time></trkpt><trkpt lat="42.3165787" lon="13.2531093"><ele>1274.0</ele><time>2026-05-02T16:39:07.279Z</time></trkpt><trkpt lat="42.3166727" lon="13.2530802"><ele>1274.0</ele><time>2026-05-02T16:39:08.289Z</time></trkpt><trkpt lat="42.3167847" lon="13.2530237"><ele>1274.0</ele><time>2026-05-02T16:39:09.281Z</time></trkpt><trkpt lat="42.3168981" lon="13.2529642"><ele>1274.0</ele><time>2026-05-02T16:39:10.285Z</time></trkpt><trkpt lat="42.3170405" lon="13.2529071"><ele>1274.0</ele><time>2026-05-02T16:39:11.278Z</time></trkpt><trkpt lat="42.3171931" lon="13.2528665"><ele>1274.0</ele><time>2026-05-02T16:39:12.291Z</time></trkpt><trkpt lat="42.317357" lon="13.252815"><ele>1274.0</ele><time>2026-05-02T16:39:13.288Z</time></trkpt><trkpt lat="42.3174886" lon="13.2527724"><ele>1274.5</ele><time>2026-05-02T16:39:14.279Z</time></trkpt><trkpt lat="42.3176191" lon="13.2527216"><ele>1275.0</ele><time>2026-05-02T16:39:15.287Z</time></trkpt><trkpt lat="42.3177557" lon="13.2526746"><ele>1275.5</ele><time>2026-05-02T16:39:16.282Z</time></trkpt><trkpt lat="42.3179003" lon="13.2526257"><ele>1276.0</ele><time>2026-05-02T16:39:17.287Z</time></trkpt><trkpt lat="42.318032" lon="13.2525913"><ele>1274.0</ele><time>2026-05-02T16:39:18.29Z</time></trkpt><trkpt lat="42.3181704" lon="13.252572"><ele>1272.0</ele><time>2026-05-02T16:39:19.285Z</time></trkpt><trkpt lat="42.3183228" lon="13.2525691"><ele>1270.0</ele><time>2026-05-02T16:39:20.283Z</time></trkpt><trkpt lat="42.318488" lon="13.2525605"><ele>1270.0</ele><time>2026-05-02T16:39:21.288Z</time></trkpt><trkpt lat="42.3186494" lon="13.2525395"><ele>1270.0</ele><time>2026-05-02T16:39:22.292Z</time></trkpt><trkpt lat="42.3187991" lon="13.252514"><ele>1270.0</ele><time>2026-05-02T16:39:23.297Z</time></trkpt><trkpt lat="42.3189469" lon="13.2524882"><ele>1268.75</ele><time>2026-05-02T16:39:24.29Z</time></trkpt><trkpt lat="42.3190861" lon="13.2524781"><ele>1267.5</ele><time>2026-05-02T16:39:25.295Z</time></trkpt><trkpt lat="42.3192355" lon="13.252456"><ele>1266.25</ele><time>2026-05-02T16:39:26.289Z</time></trkpt><trkpt lat="42.3193678" lon="13.2524326"><ele>1265.0</ele><time>2026-05-02T16:39:27.289Z</time></trkpt><trkpt lat="42.3195072" lon="13.2524166"><ele>1265.0</ele><time>2026-05-02T16:39:28.298Z</time></trkpt><trkpt lat="42.3196272" lon="13.2523955"><ele>1265.0</ele><time>2026-05-02T16:39:29.287Z</time></trkpt><trkpt lat="42.3197509" lon="13.2523193"><ele>1265.0</ele><time>2026-05-02T16:39:30.283Z</time></trkpt><trkpt lat="42.3198591" lon="13.2522007"><ele>1265.0</ele><time>2026-05-02T16:39:31.288Z</time></trkpt><trkpt lat="42.3199457" lon="13.2520572"><ele>1269.0</ele><time>2026-05-02T16:39:32.276Z</time></trkpt><trkpt lat="42.3200296" lon="13.251884"><ele>1273.0</ele><time>2026-05-02T16:39:33.275Z</time></trkpt><trkpt lat="42.3201265" lon="13.2517532"><ele>1277.0</ele><time>2026-05-02T16:39:34.272Z</time></trkpt><trkpt lat="42.3202154" lon="13.2516077"><ele>1281.0</ele><time>2026-05-02T16:39:35.259Z</time></trkpt><trkpt lat="42.320285" lon="13.2514541"><ele>1284.0</ele><time>2026-05-02T16:39:36.267Z</time></trkpt><trkpt lat="42.3203518" lon="13.2512911"><ele>1287.0</ele><time>2026-05-02T16:39:37.265Z</time></trkpt><trkpt lat="42.3204159" lon="13.251151"><ele>1290.0</ele><time>2026-05-02T16:39:38.274Z</time></trkpt><trkpt lat="42.3204836" lon="13.2509871"><ele>1293.0</ele><time>2026-05-02T16:39:39.259Z</time></trkpt><trkpt lat="42.3205128" lon="13.2508332"><ele>1293.0</ele><time>2026-05-02T16:39:40.259Z</time></trkpt><trkpt lat="42.3205381" lon="13.2506849"><ele>1293.0</ele><time>2026-05-02T16:39:41.257Z</time></trkpt><trkpt lat="42.320549" lon="13.2505571"><ele>1293.0</ele><time>2026-05-02T16:39:42.249Z</time></trkpt><trkpt lat="42.3206055" lon="13.2504656"><ele>1293.0</ele><time>2026-05-02T16:39:43.255Z</time></trkpt><trkpt lat="42.3206745" lon="13.250386"><ele>1293.0</ele><time>2026-05-02T16:39:44.259Z</time></trkpt><trkpt lat="42.320777" lon="13.2503391"><ele>1288.25</ele><time>2026-05-02T16:39:45.256Z</time></trkpt><trkpt lat="42.3208993" lon="13.2503254"><ele>1283.5</ele><time>2026-05-02T16:39:46.274Z</time></trkpt><trkpt lat="42.3210344" lon="13.2503553"><ele>1278.75</ele><time>2026-05-02T16:39:47.262Z</time></trkpt><trkpt lat="42.3211704" lon="13.2504252"><ele>1274.0</ele><time>2026-05-02T16:39:48.27Z</time></trkpt><trkpt lat="42.3213029" lon="13.2505192"><ele>1269.0</ele><time>2026-05-02T16:39:49.274Z</time></trkpt><trkpt lat="42.3214393" lon="13.2506101"><ele>1264.0</ele><time>2026-05-02T16:39:50.271Z</time></trkpt><trkpt lat="42.3215778" lon="13.2506919"><ele>1259.0</ele><time>2026-05-02T16:39:51.271Z</time></trkpt><trkpt lat="42.3216985" lon="13.2507643"><ele>1254.0</ele><time>2026-05-02T16:39:52.282Z</time></trkpt><trkpt lat="42.3218211" lon="13.2508475"><ele>1253.0</ele><time>2026-05-02T16:39:53.279Z</time></trkpt><trkpt lat="42.3219436" lon="13.2509455"><ele>1252.0</ele><time>2026-05-02T16:39:54.283Z</time></trkpt><trkpt lat="42.3220513" lon="13.2510308"><ele>1251.0</ele><time>2026-05-02T16:39:55.299Z</time></trkpt><trkpt lat="42.3220955" lon="13.2511046"><ele>1250.0</ele><time>2026-05-02T16:39:56.272Z</time></trkpt><trkpt lat="42.3221343" lon="13.2511787"><ele>1249.0</ele><time>2026-05-02T16:39:57.277Z</time></trkpt><trkpt lat="42.3220474" lon="13.251321"><ele>1249.0</ele><time>2026-05-02T16:39:59.293Z</time></trkpt><trkpt lat="42.3219481" lon="13.2513327"><ele>1249.0</ele><time>2026-05-02T16:40:00.297Z</time></trkpt><trkpt lat="42.321849" lon="13.2513269"><ele>1249.0</ele><time>2026-05-02T16:40:01.289Z</time></trkpt><trkpt lat="42.3217355" lon="13.2513047"><ele>1249.0</ele><time>2026-05-02T16:40:02.286Z</time></trkpt><trkpt lat="42.3216247" lon="13.2512751"><ele>1249.0</ele><time>2026-05-02T16:40:03.285Z</time></trkpt><trkpt lat="42.3215196" lon="13.2512162"><ele>1249.0</ele><time>2026-05-02T16:40:04.283Z</time></trkpt><trkpt lat="42.3214235" lon="13.2511244"><ele>1249.0</ele><time>2026-05-02T16:40:05.272Z</time></trkpt><trkpt lat="42.3213331" lon="13.2509935"><ele>1249.0</ele><time>2026-05-02T16:40:06.282Z</time></trkpt><trkpt lat="42.32125" lon="13.2508629"><ele>1249.0</ele><time>2026-05-02T16:40:07.29Z</time></trkpt><trkpt lat="42.3211605" lon="13.2507643"><ele>1249.4</ele><time>2026-05-02T16:40:08.292Z</time></trkpt><trkpt lat="42.3210643" lon="13.2506946"><ele>1249.8000000000002</ele><time>2026-05-02T16:40:09.359Z</time></trkpt><trkpt lat="42.3209746" lon="13.2506459"><ele>1250.1999999999998</ele><time>2026-05-02T16:40:10.357Z</time></trkpt><trkpt lat="42.3208991" lon="13.2506215"><ele>1250.6</ele><time>2026-05-02T16:40:11.361Z</time></trkpt><trkpt lat="42.3208204" lon="13.2506213"><ele>1251.0</ele><time>2026-05-02T16:40:12.351Z</time></trkpt><trkpt lat="42.3207131" lon="13.2507428"><ele>1251.0</ele><time>2026-05-02T16:40:14.355Z</time></trkpt><trkpt lat="42.3207119" lon="13.2509239"><ele>1251.0</ele><time>2026-05-02T16:40:16.28Z</time></trkpt><trkpt lat="42.3206914" lon="13.2510589"><ele>1251.0</ele><time>2026-05-02T16:40:17.272Z</time></trkpt><trkpt lat="42.3206575" lon="13.251204"><ele>1251.0</ele><time>2026-05-02T16:40:18.273Z</time></trkpt><trkpt lat="42.3205958" lon="13.2513567"><ele>1261.0</ele><time>2026-05-02T16:40:19.257Z</time></trkpt><trkpt lat="42.3205169" lon="13.2515354"><ele>1271.0</ele><time>2026-05-02T16:40:20.263Z</time></trkpt><trkpt lat="42.3204587" lon="13.2517281"><ele>1281.0</ele><time>2026-05-02T16:40:21.261Z</time></trkpt><trkpt lat="42.320401" lon="13.2519356"><ele>1281.0</ele><time>2026-05-02T16:40:22.261Z</time></trkpt><trkpt lat="42.3203512" lon="13.2521117"><ele>1281.0</ele><time>2026-05-02T16:40:23.253Z</time></trkpt><trkpt lat="42.3202255" lon="13.252273"><ele>1281.0</ele><time>2026-05-02T16:40:24.254Z</time></trkpt><trkpt lat="42.3201599" lon="13.2524128"><ele>1281.0</ele><time>2026-05-02T16:40:25.25Z</time></trkpt><trkpt lat="42.3200996" lon="13.2525852"><ele>1277.0</ele><time>2026-05-02T16:40:26.254Z</time></trkpt><trkpt lat="42.3200236" lon="13.2527237"><ele>1273.0</ele><time>2026-05-02T16:40:27.253Z</time></trkpt><trkpt lat="42.3199174" lon="13.2528569"><ele>1269.0</ele><time>2026-05-02T16:40:28.27Z</time></trkpt><trkpt lat="42.319782" lon="13.2529485"><ele>1265.0</ele><time>2026-05-02T16:40:29.271Z</time></trkpt><trkpt lat="42.3196382" lon="13.2530294"><ele>1265.0</ele><time>2026-05-02T16:40:30.274Z</time></trkpt><trkpt lat="42.3194819" lon="13.2530518"><ele>1265.0</ele><time>2026-05-02T16:40:31.267Z</time></trkpt><trkpt lat="42.3193214" lon="13.2530798"><ele>1265.0</ele><time>2026-05-02T16:40:32.271Z</time></trkpt><trkpt lat="42.3191738" lon="13.2531109"><ele>1254.6666666666667</ele><time>2026-05-02T16:40:33.266Z</time></trkpt><trkpt lat="42.3190287" lon="13.2531658"><ele>1244.3333333333333</ele><time>2026-05-02T16:40:34.266Z</time></trkpt><trkpt lat="42.3188632" lon="13.2532251"><ele>1234.0</ele><time>2026-05-02T16:40:35.264Z</time></trkpt><trkpt lat="42.3187125" lon="13.2532753"><ele>1234.0</ele><time>2026-05-02T16:40:36.266Z</time></trkpt><trkpt lat="42.3185394" lon="13.253289"><ele>1234.0</ele><time>2026-05-02T16:40:37.261Z</time></trkpt><trkpt lat="42.3183838" lon="13.2533235"><ele>1234.0</ele><time>2026-05-02T16:40:38.267Z</time></trkpt><trkpt lat="42.3182042" lon="13.2533886"><ele>1236.6666666666665</ele><time>2026-05-02T16:40:39.262Z</time></trkpt><trkpt lat="42.3180272" lon="13.2534475"><ele>1239.3333333333333</ele><time>2026-05-02T16:40:40.263Z</time></trkpt><trkpt lat="42.3178568" lon="13.2535112"><ele>1242.0</ele><time>2026-05-02T16:40:41.274Z</time></trkpt><trkpt lat="42.3177001" lon="13.2535786"><ele>1242.0</ele><time>2026-05-02T16:40:42.27Z</time></trkpt><trkpt lat="42.3175422" lon="13.2536092"><ele>1242.0</ele><time>2026-05-02T16:40:43.268Z</time></trkpt><trkpt lat="42.317384" lon="13.2536899"><ele>1242.0</ele><time>2026-05-02T16:40:44.276Z</time></trkpt><trkpt lat="42.3172247" lon="13.2537594"><ele>1245.3333333333333</ele><time>2026-05-02T16:40:45.283Z</time></trkpt><trkpt lat="42.3170713" lon="13.2538379"><ele>1248.6666666666665</ele><time>2026-05-02T16:40:46.281Z</time></trkpt><trkpt lat="42.3169241" lon="13.2539103"><ele>1252.0</ele><time>2026-05-02T16:40:47.279Z</time></trkpt><trkpt lat="42.3167706" lon="13.2539824"><ele>1241.5</ele><time>2026-05-02T16:40:48.283Z</time></trkpt><trkpt lat="42.3166347" lon="13.2540476"><ele>1231.0</ele><time>2026-05-02T16:40:49.277Z</time></trkpt><trkpt lat="42.3164966" lon="13.2541187"><ele>1220.5</ele><time>2026-05-02T16:40:50.278Z</time></trkpt><trkpt lat="42.3163767" lon="13.2541915"><ele>1210.0</ele><time>2026-05-02T16:40:51.278Z</time></trkpt><trkpt lat="42.3162522" lon="13.2541971"><ele>1208.75</ele><time>2026-05-02T16:40:52.273Z</time></trkpt><trkpt lat="42.3161372" lon="13.2541444"><ele>1207.5</ele><time>2026-05-02T16:40:53.272Z</time></trkpt><trkpt lat="42.316015" lon="13.2540632"><ele>1206.25</ele><time>2026-05-02T16:40:54.261Z</time></trkpt><trkpt lat="42.3158622" lon="13.2539351"><ele>1205.0</ele><time>2026-05-02T16:40:55.275Z</time></trkpt><trkpt lat="42.3157344" lon="13.2538767"><ele>1205.6</ele><time>2026-05-02T16:40:56.271Z</time></trkpt><trkpt lat="42.3156072" lon="13.2538514"><ele>1206.2</ele><time>2026-05-02T16:40:57.269Z</time></trkpt><trkpt lat="42.3155133" lon="13.2538319"><ele>1206.8</ele><time>2026-05-02T16:40:58.269Z</time></trkpt><trkpt lat="42.3154304" lon="13.2537668"><ele>1207.4</ele><time>2026-05-02T16:40:59.269Z</time></trkpt><trkpt lat="42.3153473" lon="13.2536528"><ele>1208.0</ele><time>2026-05-02T16:41:00.27Z</time></trkpt><trkpt lat="42.3153053" lon="13.253502"><ele>1208.0</ele><time>2026-05-02T16:41:01.268Z</time></trkpt><trkpt lat="42.3152403" lon="13.2533835"><ele>1208.0</ele><time>2026-05-02T16:41:02.26Z</time></trkpt><trkpt lat="42.3151586" lon="13.2533063"><ele>1208.0</ele><time>2026-05-02T16:41:03.276Z</time></trkpt><trkpt lat="42.3150385" lon="13.2532579"><ele>1208.0</ele><time>2026-05-02T16:41:04.267Z</time></trkpt><trkpt lat="42.3149103" lon="13.2532178"><ele>1208.0</ele><time>2026-05-02T16:41:05.272Z</time></trkpt><trkpt lat="42.3147927" lon="13.253141"><ele>1208.0</ele><time>2026-05-02T16:41:06.268Z</time></trkpt><trkpt lat="42.3146939" lon="13.2530442"><ele>1208.0</ele><time>2026-05-02T16:41:07.267Z</time></trkpt><trkpt lat="42.3146238" lon="13.2529684"><ele>1208.0</ele><time>2026-05-02T16:41:08.262Z</time></trkpt><trkpt lat="42.3145349" lon="13.2529479"><ele>1208.0</ele><time>2026-05-02T16:41:09.27Z</time></trkpt><trkpt lat="42.3144302" lon="13.2529712"><ele>1207.0</ele><time>2026-05-02T16:41:10.273Z</time></trkpt><trkpt lat="42.3143066" lon="13.2530379"><ele>1206.0</ele><time>2026-05-02T16:41:11.271Z</time></trkpt><trkpt lat="42.314178" lon="13.2531218"><ele>1205.0</ele><time>2026-05-02T16:41:12.271Z</time></trkpt><trkpt lat="42.3140604" lon="13.2532151"><ele>1204.0</ele><time>2026-05-02T16:41:13.275Z</time></trkpt><trkpt lat="42.3139716" lon="13.2533392"><ele>1209.75</ele><time>2026-05-02T16:41:14.268Z</time></trkpt><trkpt lat="42.3138989" lon="13.2535072"><ele>1215.5</ele><time>2026-05-02T16:41:15.27Z</time></trkpt><trkpt lat="42.3138289" lon="13.253677"><ele>1221.25</ele><time>2026-05-02T16:41:16.279Z</time></trkpt><trkpt lat="42.3137381" lon="13.2538482"><ele>1227.0</ele><time>2026-05-02T16:41:17.277Z</time></trkpt><trkpt lat="42.3136654" lon="13.2540368"><ele>1227.0</ele><time>2026-05-02T16:41:18.286Z</time></trkpt><trkpt lat="42.313613" lon="13.2541811"><ele>1227.0</ele><time>2026-05-02T16:41:19.273Z</time></trkpt><trkpt lat="42.3135868" lon="13.2543962"><ele>1227.0</ele><time>2026-05-02T16:41:20.271Z</time></trkpt><trkpt lat="42.3135567" lon="13.2546072"><ele>1227.0</ele><time>2026-05-02T16:41:21.266Z</time></trkpt><trkpt lat="42.313542" lon="13.2548062"><ele>1222.5</ele><time>2026-05-02T16:41:22.275Z</time></trkpt><trkpt lat="42.3134897" lon="13.2550011"><ele>1218.0</ele><time>2026-05-02T16:41:23.276Z</time></trkpt><trkpt lat="42.313425" lon="13.2551596"><ele>1213.5</ele><time>2026-05-02T16:41:24.272Z</time></trkpt><trkpt lat="42.3133375" lon="13.2552497"><ele>1209.0</ele><time>2026-05-02T16:41:25.285Z</time></trkpt><trkpt lat="42.3132628" lon="13.2553361"><ele>1209.0</ele><time>2026-05-02T16:41:26.276Z</time></trkpt><trkpt lat="42.3131644" lon="13.255362"><ele>1209.0</ele><time>2026-05-02T16:41:27.278Z</time></trkpt><trkpt lat="42.3130453" lon="13.2553489"><ele>1209.0</ele><time>2026-05-02T16:41:28.286Z</time></trkpt><trkpt lat="42.3129236" lon="13.2552899"><ele>1209.0</ele><time>2026-05-02T16:41:29.273Z</time></trkpt><trkpt lat="42.3127942" lon="13.2552116"><ele>1212.5</ele><time>2026-05-02T16:41:30.269Z</time></trkpt><trkpt lat="42.3126667" lon="13.2551563"><ele>1216.0</ele><time>2026-05-02T16:41:31.272Z</time></trkpt><trkpt lat="42.3125437" lon="13.2551489"><ele>1219.5</ele><time>2026-05-02T16:41:32.272Z</time></trkpt><trkpt lat="42.3124292" lon="13.2551734"><ele>1223.0</ele><time>2026-05-02T16:41:33.274Z</time></trkpt><trkpt lat="42.3123253" lon="13.2552457"><ele>1223.0</ele><time>2026-05-02T16:41:34.273Z</time></trkpt><trkpt lat="42.3122467" lon="13.2553576"><ele>1223.0</ele><time>2026-05-02T16:41:35.271Z</time></trkpt><trkpt lat="42.3122001" lon="13.2555034"><ele>1223.0</ele><time>2026-05-02T16:41:36.274Z</time></trkpt><trkpt lat="42.3121997" lon="13.2556874"><ele>1223.0</ele><time>2026-05-02T16:41:37.273Z</time></trkpt><trkpt lat="42.3122174" lon="13.2558757"><ele>1222.0</ele><time>2026-05-02T16:41:38.266Z</time></trkpt><trkpt lat="42.3122358" lon="13.2560588"><ele>1221.0</ele><time>2026-05-02T16:41:39.263Z</time></trkpt><trkpt lat="42.3122581" lon="13.2562291"><ele>1220.0</ele><time>2026-05-02T16:41:40.264Z</time></trkpt><trkpt lat="42.3122637" lon="13.2563749"><ele>1219.0</ele><time>2026-05-02T16:41:41.278Z</time></trkpt><trkpt lat="42.3122307" lon="13.2564925"><ele>1212.5</ele><time>2026-05-02T16:41:42.267Z</time></trkpt><trkpt lat="42.3121596" lon="13.2566217"><ele>1206.0</ele><time>2026-05-02T16:41:43.271Z</time></trkpt><trkpt lat="42.3120574" lon="13.256724"><ele>1199.5</ele><time>2026-05-02T16:41:44.271Z</time></trkpt><trkpt lat="42.3119442" lon="13.2567868"><ele>1193.0</ele><time>2026-05-02T16:41:45.269Z</time></trkpt><trkpt lat="42.3118206" lon="13.2568032"><ele>1193.0</ele><time>2026-05-02T16:41:46.275Z</time></trkpt><trkpt lat="42.3116848" lon="13.2567462"><ele>1193.0</ele><time>2026-05-02T16:41:47.272Z</time></trkpt><trkpt lat="42.3115511" lon="13.256634"><ele>1193.0</ele><time>2026-05-02T16:41:48.27Z</time></trkpt><trkpt lat="42.3114393" lon="13.2565446"><ele>1193.0</ele><time>2026-05-02T16:41:49.266Z</time></trkpt><trkpt lat="42.3113329" lon="13.2565219"><ele>1197.25</ele><time>2026-05-02T16:41:50.265Z</time></trkpt><trkpt lat="42.3112265" lon="13.2565443"><ele>1201.5</ele><time>2026-05-02T16:41:51.269Z</time></trkpt><trkpt lat="42.3111366" lon="13.2566252"><ele>1205.75</ele><time>2026-05-02T16:41:52.275Z</time></trkpt><trkpt lat="42.3110511" lon="13.256751"><ele>1210.0</ele><time>2026-05-02T16:41:53.271Z</time></trkpt><trkpt lat="42.3109729" lon="13.2569173"><ele>1210.0</ele><time>2026-05-02T16:41:54.275Z</time></trkpt><trkpt lat="42.3109421" lon="13.2571297"><ele>1210.0</ele><time>2026-05-02T16:41:55.264Z</time></trkpt><trkpt lat="42.31092" lon="13.2573491"><ele>1210.0</ele><time>2026-05-02T16:41:56.265Z</time></trkpt><trkpt lat="42.3108253" lon="13.2575185"><ele>1209.25</ele><time>2026-05-02T16:41:57.259Z</time></trkpt><trkpt lat="42.3107428" lon="13.2576336"><ele>1208.5</ele><time>2026-05-02T16:41:58.257Z</time></trkpt><trkpt lat="42.3106233" lon="13.2577402"><ele>1207.75</ele><time>2026-05-02T16:41:59.26Z</time></trkpt><trkpt lat="42.3104979" lon="13.2578565"><ele>1207.0</ele><time>2026-05-02T16:42:00.261Z</time></trkpt><trkpt lat="42.310356" lon="13.2579338"><ele>1207.0</ele><time>2026-05-02T16:42:01.266Z</time></trkpt><trkpt lat="42.3102103" lon="13.2579884"><ele>1207.0</ele><time>2026-05-02T16:42:02.264Z</time></trkpt><trkpt lat="42.3100516" lon="13.2580078"><ele>1207.0</ele><time>2026-05-02T16:42:03.264Z</time></trkpt><trkpt lat="42.3099386" lon="13.2580708"><ele>1207.0</ele><time>2026-05-02T16:42:04.277Z</time></trkpt><trkpt lat="42.3098432" lon="13.2581777"><ele>1204.5</ele><time>2026-05-02T16:42:05.262Z</time></trkpt><trkpt lat="42.309754" lon="13.2583249"><ele>1202.0</ele><time>2026-05-02T16:42:06.269Z</time></trkpt><trkpt lat="42.3096738" lon="13.2584921"><ele>1199.5</ele><time>2026-05-02T16:42:07.27Z</time></trkpt><trkpt lat="42.3095839" lon="13.2586474"><ele>1197.0</ele><time>2026-05-02T16:42:08.278Z</time></trkpt><trkpt lat="42.3095011" lon="13.2588017"><ele>1197.0</ele><time>2026-05-02T16:42:09.274Z</time></trkpt><trkpt lat="42.3093928" lon="13.2589234"><ele>1197.0</ele><time>2026-05-02T16:42:10.278Z</time></trkpt><trkpt lat="42.309276" lon="13.2590273"><ele>1197.0</ele><time>2026-05-02T16:42:11.269Z</time></trkpt><trkpt lat="42.3091406" lon="13.2591028"><ele>1197.0</ele><time>2026-05-02T16:42:12.274Z</time></trkpt><trkpt lat="42.3089817" lon="13.2591588"><ele>1190.6666666666667</ele><time>2026-05-02T16:42:13.28Z</time></trkpt><trkpt lat="42.3088231" lon="13.2592137"><ele>1184.3333333333335</ele><time>2026-05-02T16:42:14.294Z</time></trkpt><trkpt lat="42.3086563" lon="13.2592917"><ele>1178.0</ele><time>2026-05-02T16:42:15.282Z</time></trkpt><trkpt lat="42.3085252" lon="13.2593939"><ele>1178.0</ele><time>2026-05-02T16:42:16.279Z</time></trkpt><trkpt lat="42.3083909" lon="13.2594944"><ele>1178.0</ele><time>2026-05-02T16:42:17.283Z</time></trkpt><trkpt lat="42.3082622" lon="13.2596057"><ele>1178.0</ele><time>2026-05-02T16:42:18.284Z</time></trkpt><trkpt lat="42.3081381" lon="13.2597072"><ele>1172.5</ele><time>2026-05-02T16:42:19.285Z</time></trkpt><trkpt lat="42.3080141" lon="13.2597907"><ele>1167.0</ele><time>2026-05-02T16:42:20.281Z</time></trkpt><trkpt lat="42.3078814" lon="13.2598761"><ele>1161.5</ele><time>2026-05-02T16:42:21.282Z</time></trkpt><trkpt lat="42.3077547" lon="13.2599445"><ele>1156.0</ele><time>2026-05-02T16:42:22.287Z</time></trkpt><trkpt lat="42.3076214" lon="13.2599859"><ele>1156.0</ele><time>2026-05-02T16:42:23.282Z</time></trkpt><trkpt lat="42.3074996" lon="13.2599955"><ele>1156.0</ele><time>2026-05-02T16:42:24.287Z</time></trkpt><trkpt lat="42.3073854" lon="13.2599934"><ele>1156.0</ele><time>2026-05-02T16:42:25.264Z</time></trkpt><trkpt lat="42.3072839" lon="13.259907"><ele>1156.0</ele><time>2026-05-02T16:42:26.272Z</time></trkpt><trkpt lat="42.3071913" lon="13.259781"><ele>1152.6666666666665</ele><time>2026-05-02T16:42:27.274Z</time></trkpt><trkpt lat="42.3070977" lon="13.2596254"><ele>1149.3333333333333</ele><time>2026-05-02T16:42:28.278Z</time></trkpt><trkpt lat="42.3069915" lon="13.2594549"><ele>1146.0</ele><time>2026-05-02T16:42:29.275Z</time></trkpt><trkpt lat="42.3068986" lon="13.2592958"><ele>1146.0</ele><time>2026-05-02T16:42:30.267Z</time></trkpt><trkpt lat="42.30681" lon="13.2590993"><ele>1146.0</ele><time>2026-05-02T16:42:31.267Z</time></trkpt><trkpt lat="42.3067455" lon="13.258891"><ele>1146.0</ele><time>2026-05-02T16:42:32.278Z</time></trkpt><trkpt lat="42.3066962" lon="13.2586885"><ele>1149.0</ele><time>2026-05-02T16:42:33.268Z</time></trkpt><trkpt lat="42.3066425" lon="13.2584867"><ele>1152.0</ele><time>2026-05-02T16:42:34.267Z</time></trkpt><trkpt lat="42.3065732" lon="13.2583115"><ele>1155.0</ele><time>2026-05-02T16:42:35.265Z</time></trkpt><trkpt lat="42.3064841" lon="13.2581448"><ele>1157.0</ele><time>2026-05-02T16:42:36.269Z</time></trkpt><trkpt lat="42.3063858" lon="13.2580106"><ele>1159.0</ele><time>2026-05-02T16:42:37.272Z</time></trkpt><trkpt lat="42.3062809" lon="13.2579055"><ele>1161.0</ele><time>2026-05-02T16:42:38.274Z</time></trkpt><trkpt lat="42.3061612" lon="13.2578473"><ele>1163.0</ele><time>2026-05-02T16:42:39.275Z</time></trkpt><trkpt lat="42.3060201" lon="13.2578173"><ele>1163.0</ele><time>2026-05-02T16:42:40.262Z</time></trkpt><trkpt lat="42.3058594" lon="13.2578085"><ele>1163.0</ele><time>2026-05-02T16:42:41.276Z</time></trkpt><trkpt lat="42.3056839" lon="13.257841"><ele>1163.0</ele><time>2026-05-02T16:42:42.268Z</time></trkpt><trkpt lat="42.3055092" lon="13.2578778"><ele>1161.3333333333335</ele><time>2026-05-02T16:42:43.27Z</time></trkpt><trkpt lat="42.3053498" lon="13.2579163"><ele>1159.6666666666667</ele><time>2026-05-02T16:42:44.281Z</time></trkpt><trkpt lat="42.3051943" lon="13.2579387"><ele>1158.0</ele><time>2026-05-02T16:42:45.274Z</time></trkpt><trkpt lat="42.3050328" lon="13.257915"><ele>1158.0</ele><time>2026-05-02T16:42:46.277Z</time></trkpt><trkpt lat="42.3048528" lon="13.2578889"><ele>1158.0</ele><time>2026-05-02T16:42:47.273Z</time></trkpt><trkpt lat="42.30469" lon="13.2578705"><ele>1158.0</ele><time>2026-05-02T16:42:48.276Z</time></trkpt><trkpt lat="42.3044967" lon="13.257919"><ele>1160.0</ele><time>2026-05-02T16:42:49.276Z</time></trkpt><trkpt lat="42.3043163" lon="13.257978"><ele>1162.0</ele><time>2026-05-02T16:42:50.272Z</time></trkpt><trkpt lat="42.3041411" lon="13.2580697"><ele>1164.0</ele><time>2026-05-02T16:42:51.26Z</time></trkpt><trkpt lat="42.3039842" lon="13.2581281"><ele>1152.3333333333333</ele><time>2026-05-02T16:42:52.259Z</time></trkpt><trkpt lat="42.303835" lon="13.2581851"><ele>1140.6666666666665</ele><time>2026-05-02T16:42:53.256Z</time></trkpt><trkpt lat="42.303684" lon="13.258243"><ele>1129.0</ele><time>2026-05-02T16:42:54.258Z</time></trkpt><trkpt lat="42.3035417" lon="13.258293"><ele>1129.0</ele><time>2026-05-02T16:42:55.266Z</time></trkpt><trkpt lat="42.303422" lon="13.2583305"><ele>1129.0</ele><time>2026-05-02T16:42:56.26Z</time></trkpt><trkpt lat="42.3033106" lon="13.2583652"><ele>1129.0</ele><time>2026-05-02T16:42:57.27Z</time></trkpt><trkpt lat="42.3031907" lon="13.2583541"><ele>1129.0</ele><time>2026-05-02T16:42:58.267Z</time></trkpt><trkpt lat="42.3030755" lon="13.2583099"><ele>1130.0</ele><time>2026-05-02T16:42:59.27Z</time></trkpt><trkpt lat="42.3029781" lon="13.2582005"><ele>1131.0</ele><time>2026-05-02T16:43:00.267Z</time></trkpt><trkpt lat="42.3028724" lon="13.2580613"><ele>1132.0</ele><time>2026-05-02T16:43:01.258Z</time></trkpt><trkpt lat="42.3027734" lon="13.2579122"><ele>1133.0</ele><time>2026-05-02T16:43:02.269Z</time></trkpt><trkpt lat="42.302677" lon="13.2577511"><ele>1133.0</ele><time>2026-05-02T16:43:03.272Z</time></trkpt><trkpt lat="42.3025769" lon="13.2576153"><ele>1133.0</ele><time>2026-05-02T16:43:04.283Z</time></trkpt><trkpt lat="42.3024631" lon="13.2575"><ele>1133.0</ele><time>2026-05-02T16:43:05.273Z</time></trkpt><trkpt lat="42.3023513" lon="13.2573677"><ele>1133.0</ele><time>2026-05-02T16:43:06.283Z</time></trkpt><trkpt lat="42.3022249" lon="13.2572539"><ele>1132.0</ele><time>2026-05-02T16:43:07.279Z</time></trkpt><trkpt lat="42.3020779" lon="13.2571486"><ele>1131.0</ele><time>2026-05-02T16:43:08.275Z</time></trkpt><trkpt lat="42.3019161" lon="13.2570434"><ele>1130.0</ele><time>2026-05-02T16:43:09.268Z</time></trkpt><trkpt lat="42.3017741" lon="13.2569495"><ele>1130.0</ele><time>2026-05-02T16:43:10.276Z</time></trkpt><trkpt lat="42.3016694" lon="13.2568539"><ele>1130.0</ele><time>2026-05-02T16:43:11.27Z</time></trkpt><trkpt lat="42.3015866" lon="13.25679"><ele>1130.0</ele><time>2026-05-02T16:43:12.274Z</time></trkpt><trkpt lat="42.3014815" lon="13.2567896"><ele>1130.0</ele><time>2026-05-02T16:43:13.277Z</time></trkpt><trkpt lat="42.3013779" lon="13.2568448"><ele>1130.0</ele><time>2026-05-02T16:43:14.272Z</time></trkpt><trkpt lat="42.301315" lon="13.2569495"><ele>1135.25</ele><time>2026-05-02T16:43:15.274Z</time></trkpt><trkpt lat="42.301246" lon="13.2570519"><ele>1140.5</ele><time>2026-05-02T16:43:16.279Z</time></trkpt><trkpt lat="42.3012002" lon="13.2571964"><ele>1145.75</ele><time>2026-05-02T16:43:17.283Z</time></trkpt><trkpt lat="42.3011702" lon="13.257363"><ele>1151.0</ele><time>2026-05-02T16:43:18.273Z</time></trkpt><trkpt lat="42.3011505" lon="13.2575445"><ele>1151.0</ele><time>2026-05-02T16:43:19.27Z</time></trkpt><trkpt lat="42.301132" lon="13.2577449"><ele>1151.0</ele><time>2026-05-02T16:43:20.263Z</time></trkpt><trkpt lat="42.301097" lon="13.2579345"><ele>1151.0</ele><time>2026-05-02T16:43:21.266Z</time></trkpt><trkpt lat="42.3010611" lon="13.2581188"><ele>1151.0</ele><time>2026-05-02T16:43:22.267Z</time></trkpt><trkpt lat="42.3010566" lon="13.2582857"><ele>1148.0</ele><time>2026-05-02T16:43:23.258Z</time></trkpt><trkpt lat="42.3010723" lon="13.2584461"><ele>1145.0</ele><time>2026-05-02T16:43:24.259Z</time></trkpt><trkpt lat="42.3010851" lon="13.2585907"><ele>1142.0</ele><time>2026-05-02T16:43:25.26Z</time></trkpt><trkpt lat="42.3010609" lon="13.2587453"><ele>1139.0</ele><time>2026-05-02T16:43:26.258Z</time></trkpt><trkpt lat="42.3010685" lon="13.2589116"><ele>1137.6666666666667</ele><time>2026-05-02T16:43:27.259Z</time></trkpt><trkpt lat="42.3010667" lon="13.2591106"><ele>1136.3333333333333</ele><time>2026-05-02T16:43:28.26Z</time></trkpt><trkpt lat="42.301058" lon="13.2593309"><ele>1135.0</ele><time>2026-05-02T16:43:29.266Z</time></trkpt><trkpt lat="42.3011024" lon="13.2595662"><ele>1134.0</ele><time>2026-05-02T16:43:30.273Z</time></trkpt><trkpt lat="42.3011239" lon="13.2598361"><ele>1133.0</ele><time>2026-05-02T16:43:31.27Z</time></trkpt><trkpt lat="42.3011471" lon="13.2600903"><ele>1132.0</ele><time>2026-05-02T16:43:32.264Z</time></trkpt><trkpt lat="42.3011877" lon="13.2603444"><ele>1132.0</ele><time>2026-05-02T16:43:33.266Z</time></trkpt><trkpt lat="42.3012233" lon="13.2605686"><ele>1132.0</ele><time>2026-05-02T16:43:34.265Z</time></trkpt><trkpt lat="42.3012491" lon="13.2607717"><ele>1132.0</ele><time>2026-05-02T16:43:35.262Z</time></trkpt><trkpt lat="42.3012028" lon="13.260946"><ele>1128.75</ele><time>2026-05-02T16:43:36.275Z</time></trkpt><trkpt lat="42.3011561" lon="13.2610555"><ele>1125.5</ele><time>2026-05-02T16:43:37.274Z</time></trkpt><trkpt lat="42.3011007" lon="13.2611734"><ele>1122.25</ele><time>2026-05-02T16:43:38.273Z</time></trkpt><trkpt lat="42.3009908" lon="13.2612518"><ele>1119.0</ele><time>2026-05-02T16:43:39.27Z</time></trkpt><trkpt lat="42.3008757" lon="13.2613388"><ele>1119.0</ele><time>2026-05-02T16:43:40.278Z</time></trkpt><trkpt lat="42.3007486" lon="13.2614304"><ele>1119.0</ele><time>2026-05-02T16:43:41.279Z</time></trkpt><trkpt lat="42.3006066" lon="13.2614779"><ele>1119.0</ele><time>2026-05-02T16:43:42.287Z</time></trkpt><trkpt lat="42.3004855" lon="13.2615328"><ele>1119.0</ele><time>2026-05-02T16:43:43.281Z</time></trkpt><trkpt lat="42.3003721" lon="13.2616033"><ele>1117.25</ele><time>2026-05-02T16:43:44.295Z</time></trkpt><trkpt lat="42.3002792" lon="13.2617088"><ele>1115.5</ele><time>2026-05-02T16:43:45.299Z</time></trkpt><trkpt lat="42.3001982" lon="13.2618455"><ele>1113.75</ele><time>2026-05-02T16:43:46.282Z</time></trkpt><trkpt lat="42.3001415" lon="13.2620131"><ele>1112.0</ele><time>2026-05-02T16:43:47.294Z</time></trkpt><trkpt lat="42.3001003" lon="13.2621595"><ele>1112.0</ele><time>2026-05-02T16:43:48.3Z</time></trkpt><trkpt lat="42.3000418" lon="13.2622633"><ele>1112.0</ele><time>2026-05-02T16:43:49.305Z</time></trkpt><trkpt lat="42.2999356" lon="13.2623408"><ele>1112.0</ele><time>2026-05-02T16:43:50.298Z</time></trkpt><trkpt lat="42.2998154" lon="13.2624225"><ele>1112.0</ele><time>2026-05-02T16:43:51.375Z</time></trkpt><trkpt lat="42.2996989" lon="13.2625218"><ele>1106.0</ele><time>2026-05-02T16:43:52.371Z</time></trkpt><trkpt lat="42.2996028" lon="13.2626102"><ele>1100.0</ele><time>2026-05-02T16:43:53.366Z</time></trkpt><trkpt lat="42.299521" lon="13.262665"><ele>1094.0</ele><time>2026-05-02T16:43:54.36Z</time></trkpt><trkpt lat="42.2994444" lon="13.2626783"><ele>1088.0</ele><time>2026-05-02T16:43:55.354Z</time></trkpt><trkpt lat="42.2993665" lon="13.2626457"><ele>1082.0</ele><time>2026-05-02T16:43:56.365Z</time></trkpt><trkpt lat="42.2992704" lon="13.2626088"><ele>1082.0</ele><time>2026-05-02T16:43:57.276Z</time></trkpt><trkpt lat="42.2991987" lon="13.2624794"><ele>1082.0</ele><time>2026-05-02T16:43:58.286Z</time></trkpt><trkpt lat="42.2991425" lon="13.2623286"><ele>1082.0</ele><time>2026-05-02T16:43:59.29Z</time></trkpt><trkpt lat="42.2991033" lon="13.262163"><ele>1082.0</ele><time>2026-05-02T16:44:00.279Z</time></trkpt><trkpt lat="42.2990667" lon="13.2619932"><ele>1085.0</ele><time>2026-05-02T16:44:01.281Z</time></trkpt><trkpt lat="42.2990334" lon="13.2618326"><ele>1088.0</ele><time>2026-05-02T16:44:02.279Z</time></trkpt><trkpt lat="42.2990005" lon="13.2616914"><ele>1091.0</ele><time>2026-05-02T16:44:03.284Z</time></trkpt><trkpt lat="42.2989615" lon="13.2615794"><ele>1094.0</ele><time>2026-05-02T16:44:04.289Z</time></trkpt><trkpt lat="42.2989079" lon="13.2615095"><ele>1097.0</ele><time>2026-05-02T16:44:05.291Z</time></trkpt><trkpt lat="42.2988375" lon="13.2614815"><ele>1097.0</ele><time>2026-05-02T16:44:06.275Z</time></trkpt><trkpt lat="42.2987573" lon="13.2614918"><ele>1097.0</ele><time>2026-05-02T16:44:07.282Z</time></trkpt><trkpt lat="42.2986668" lon="13.2615402"><ele>1097.0</ele><time>2026-05-02T16:44:08.289Z</time></trkpt><trkpt lat="42.2985846" lon="13.2616293"><ele>1097.0</ele><time>2026-05-02T16:44:09.286Z</time></trkpt><trkpt lat="42.2985004" lon="13.2617272"><ele>1097.0</ele><time>2026-05-02T16:44:10.284Z</time></trkpt><trkpt lat="42.2984068" lon="13.2618188"><ele>1097.0</ele><time>2026-05-02T16:44:11.284Z</time></trkpt><trkpt lat="42.2983054" lon="13.2619044"><ele>1097.0</ele><time>2026-05-02T16:44:12.293Z</time></trkpt><trkpt lat="42.2981903" lon="13.2619674"><ele>1097.0</ele><time>2026-05-02T16:44:13.28Z</time></trkpt><trkpt lat="42.2980745" lon="13.2619941"><ele>1097.0</ele><time>2026-05-02T16:44:14.284Z</time></trkpt><trkpt lat="42.2979685" lon="13.2620415"><ele>1096.6</ele><time>2026-05-02T16:44:15.285Z</time></trkpt><trkpt lat="42.2978833" lon="13.262129"><ele>1096.2</ele><time>2026-05-02T16:44:16.292Z</time></trkpt><trkpt lat="42.297842" lon="13.2622535"><ele>1095.8</ele><time>2026-05-02T16:44:17.292Z</time></trkpt><trkpt lat="42.29783" lon="13.262403"><ele>1095.4</ele><time>2026-05-02T16:44:18.294Z</time></trkpt><trkpt lat="42.2978429" lon="13.2625651"><ele>1095.0</ele><time>2026-05-02T16:44:19.292Z</time></trkpt><trkpt lat="42.2978617" lon="13.2627275"><ele>1095.0</ele><time>2026-05-02T16:44:20.278Z</time></trkpt><trkpt lat="42.297859" lon="13.2628919"><ele>1095.0</ele><time>2026-05-02T16:44:21.279Z</time></trkpt><trkpt lat="42.2978337" lon="13.263049"><ele>1095.0</ele><time>2026-05-02T16:44:22.279Z</time></trkpt><trkpt lat="42.297775" lon="13.2631733"><ele>1095.0</ele><time>2026-05-02T16:44:23.288Z</time></trkpt><trkpt lat="42.2976959" lon="13.2632587"><ele>1093.0</ele><time>2026-05-02T16:44:24.294Z</time></trkpt><trkpt lat="42.2975857" lon="13.2632958"><ele>1091.0</ele><time>2026-05-02T16:44:25.278Z</time></trkpt><trkpt lat="42.2974545" lon="13.2633072"><ele>1089.0</ele><time>2026-05-02T16:44:26.296Z</time></trkpt><trkpt lat="42.297308" lon="13.2632755"><ele>1087.0</ele><time>2026-05-02T16:44:27.283Z</time></trkpt><trkpt lat="42.2971719" lon="13.2632257"><ele>1087.0</ele><time>2026-05-02T16:44:28.287Z</time></trkpt><trkpt lat="42.2970575" lon="13.2632032"><ele>1087.0</ele><time>2026-05-02T16:44:29.297Z</time></trkpt><trkpt lat="42.2969567" lon="13.2632282"><ele>1087.0</ele><time>2026-05-02T16:44:30.301Z</time></trkpt><trkpt lat="42.2968596" lon="13.2633131"><ele>1087.0</ele><time>2026-05-02T16:44:31.3Z</time></trkpt><trkpt lat="42.2967841" lon="13.2634352"><ele>1087.0</ele><time>2026-05-02T16:44:32.301Z</time></trkpt><trkpt lat="42.2967432" lon="13.2635808"><ele>1087.0</ele><time>2026-05-02T16:44:33.29Z</time></trkpt><trkpt lat="42.2967364" lon="13.2637412"><ele>1087.0</ele><time>2026-05-02T16:44:34.282Z</time></trkpt><trkpt lat="42.2967528" lon="13.263911"><ele>1087.0</ele><time>2026-05-02T16:44:35.28Z</time></trkpt><trkpt lat="42.2967768" lon="13.2640728"><ele>1083.0</ele><time>2026-05-02T16:44:36.293Z</time></trkpt><trkpt lat="42.2967547" lon="13.2642162"><ele>1079.0</ele><time>2026-05-02T16:44:37.295Z</time></trkpt><trkpt lat="42.2966949" lon="13.2643405"><ele>1075.0</ele><time>2026-05-02T16:44:38.292Z</time></trkpt><trkpt lat="42.2965967" lon="13.2644483"><ele>1071.0</ele><time>2026-05-02T16:44:39.293Z</time></trkpt><trkpt lat="42.2965114" lon="13.2645553"><ele>1071.0</ele><time>2026-05-02T16:44:40.301Z</time></trkpt><trkpt lat="42.2964678" lon="13.2647045"><ele>1071.0</ele><time>2026-05-02T16:44:41.299Z</time></trkpt><trkpt lat="42.2964648" lon="13.2648775"><ele>1071.0</ele><time>2026-05-02T16:44:42.282Z</time></trkpt><trkpt lat="42.2964737" lon="13.2650299"><ele>1071.0</ele><time>2026-05-02T16:44:43.292Z</time></trkpt><trkpt lat="42.2964672" lon="13.2651563"><ele>1072.0</ele><time>2026-05-02T16:44:44.304Z</time></trkpt><trkpt lat="42.2964557" lon="13.2652431"><ele>1073.0</ele><time>2026-05-02T16:44:45.293Z</time></trkpt><trkpt lat="42.2964508" lon="13.2653342"><ele>1074.0</ele><time>2026-05-02T16:44:47.292Z</time></trkpt><trkpt lat="42.2964386" lon="13.2654288"><ele>1075.0</ele><time>2026-05-02T16:46:15.29Z</time></trkpt><trkpt lat="42.2964146" lon="13.2656142"><ele>1076.0</ele><time>2026-05-02T16:46:17.278Z</time></trkpt><trkpt lat="42.296371" lon="13.2657646"><ele>1076.0</ele><time>2026-05-02T16:46:18.286Z</time></trkpt><trkpt lat="42.2963247" lon="13.2658985"><ele>1076.0</ele><time>2026-05-02T16:46:19.287Z</time></trkpt><trkpt lat="42.2962876" lon="13.2660184"><ele>1076.0</ele><time>2026-05-02T16:46:20.273Z</time></trkpt><trkpt lat="42.2962821" lon="13.2661073"><ele>1076.0</ele><time>2026-05-02T16:46:21.285Z</time></trkpt><trkpt lat="42.296381" lon="13.2661712"><ele>1076.0</ele><time>2026-05-02T16:46:23.284Z</time></trkpt><trkpt lat="42.2964589" lon="13.2661402"><ele>1068.5</ele><time>2026-05-02T16:46:24.287Z</time></trkpt><trkpt lat="42.2965528" lon="13.2660724"><ele>1061.0</ele><time>2026-05-02T16:46:25.273Z</time></trkpt><trkpt lat="42.2966623" lon="13.2660012"><ele>1053.5</ele><time>2026-05-02T16:46:26.278Z</time></trkpt><trkpt lat="42.2967799" lon="13.2659511"><ele>1046.0</ele><time>2026-05-02T16:46:27.267Z</time></trkpt><trkpt lat="42.2968951" lon="13.2659255"><ele>1046.0</ele><time>2026-05-02T16:46:28.278Z</time></trkpt><trkpt lat="42.2970086" lon="13.2659311"><ele>1046.0</ele><time>2026-05-02T16:46:29.282Z</time></trkpt><trkpt lat="42.2971107" lon="13.2659655"><ele>1046.0</ele><time>2026-05-02T16:46:30.285Z</time></trkpt><trkpt lat="42.2971926" lon="13.2660558"><ele>1046.0</ele><time>2026-05-02T16:46:31.271Z</time></trkpt><trkpt lat="42.2972476" lon="13.266147"><ele>1046.0</ele><time>2026-05-02T16:46:32.28Z</time></trkpt><trkpt lat="42.2972632" lon="13.2662427"><ele>1046.0</ele><time>2026-05-02T16:46:33.279Z</time></trkpt><trkpt lat="42.2972267" lon="13.2663223"><ele>1046.0</ele><time>2026-05-02T16:46:34.281Z</time></trkpt><trkpt lat="42.2971456" lon="13.2663857"><ele>1046.0</ele><time>2026-05-02T16:46:35.282Z</time></trkpt><trkpt lat="42.2970317" lon="13.2664119"><ele>1046.0</ele><time>2026-05-02T16:46:36.277Z</time></trkpt><trkpt lat="42.2969092" lon="13.2664559"><ele>1046.0</ele><time>2026-05-02T16:46:37.28Z</time></trkpt><trkpt lat="42.2968024" lon="13.2665419"><ele>1042.25</ele><time>2026-05-02T16:46:38.281Z</time></trkpt><trkpt lat="42.2967226" lon="13.2666856"><ele>1038.5</ele><time>2026-05-02T16:46:39.271Z</time></trkpt><trkpt lat="42.2966591" lon="13.2668583"><ele>1034.75</ele><time>2026-05-02T16:46:40.278Z</time></trkpt><trkpt lat="42.2965958" lon="13.267045"><ele>1031.0</ele><time>2026-05-02T16:46:41.279Z</time></trkpt><trkpt lat="42.2965262" lon="13.2672325"><ele>1034.6666666666667</ele><time>2026-05-02T16:46:42.279Z</time></trkpt><trkpt lat="42.296464" lon="13.2674221"><ele>1038.3333333333333</ele><time>2026-05-02T16:46:43.281Z</time></trkpt><trkpt lat="42.2964167" lon="13.2676243"><ele>1042.0</ele><time>2026-05-02T16:46:44.272Z</time></trkpt><trkpt lat="42.296372" lon="13.2678237"><ele>1042.0</ele><time>2026-05-02T16:46:45.277Z</time></trkpt><trkpt lat="42.2963396" lon="13.2680419"><ele>1042.0</ele><time>2026-05-02T16:46:46.281Z</time></trkpt><trkpt lat="42.2963202" lon="13.2682567"><ele>1042.0</ele><time>2026-05-02T16:46:47.281Z</time></trkpt><trkpt lat="42.2962975" lon="13.2684769"><ele>1034.3333333333333</ele><time>2026-05-02T16:46:48.279Z</time></trkpt><trkpt lat="42.2962501" lon="13.268691"><ele>1026.6666666666667</ele><time>2026-05-02T16:46:49.28Z</time></trkpt><trkpt lat="42.2961732" lon="13.2688858"><ele>1019.0</ele><time>2026-05-02T16:46:50.272Z</time></trkpt><trkpt lat="42.2960851" lon="13.2690825"><ele>1015.6</ele><time>2026-05-02T16:46:51.271Z</time></trkpt><trkpt lat="42.2960087" lon="13.2692361"><ele>1012.2</ele><time>2026-05-02T16:46:52.277Z</time></trkpt><trkpt lat="42.2959535" lon="13.2693437"><ele>1008.8000000000001</ele><time>2026-05-02T16:46:53.269Z</time></trkpt><trkpt lat="42.2959355" lon="13.2694946"><ele>1005.4000000000001</ele><time>2026-05-02T16:46:55.282Z</time></trkpt><trkpt lat="42.2959809" lon="13.2695662"><ele>1002.0</ele><time>2026-05-02T16:46:56.271Z</time></trkpt><trkpt lat="42.2960472" lon="13.2695805"><ele>1002.0</ele><time>2026-05-02T16:46:57.281Z</time></trkpt><trkpt lat="42.2961364" lon="13.2695482"><ele>1002.0</ele><time>2026-05-02T16:46:58.283Z</time></trkpt><trkpt lat="42.2962227" lon="13.2694875"><ele>1002.0</ele><time>2026-05-02T16:46:59.284Z</time></trkpt><trkpt lat="42.2963227" lon="13.2693931"><ele>1002.0</ele><time>2026-05-02T16:47:00.274Z</time></trkpt><trkpt lat="42.296449" lon="13.2692993"><ele>997.6</ele><time>2026-05-02T16:47:01.279Z</time></trkpt><trkpt lat="42.2965791" lon="13.2692168"><ele>993.2</ele><time>2026-05-02T16:47:02.273Z</time></trkpt><trkpt lat="42.2966844" lon="13.2691696"><ele>988.8</ele><time>2026-05-02T16:47:03.274Z</time></trkpt><trkpt lat="42.2967724" lon="13.2691387"><ele>984.4</ele><time>2026-05-02T16:47:04.281Z</time></trkpt><trkpt lat="42.2968435" lon="13.2691513"><ele>980.0</ele><time>2026-05-02T16:47:05.278Z</time></trkpt><trkpt lat="42.2969008" lon="13.2692208"><ele>980.0</ele><time>2026-05-02T16:47:06.282Z</time></trkpt><trkpt lat="42.2969411" lon="13.2693393"><ele>980.0</ele><time>2026-05-02T16:47:07.286Z</time></trkpt><trkpt lat="42.2969674" lon="13.2695131"><ele>980.0</ele><time>2026-05-02T16:47:08.283Z</time></trkpt><trkpt lat="42.2969917" lon="13.2697103"><ele>980.0</ele><time>2026-05-02T16:47:09.273Z</time></trkpt><trkpt lat="42.2970115" lon="13.2699161"><ele>978.75</ele><time>2026-05-02T16:47:10.281Z</time></trkpt><trkpt lat="42.2970202" lon="13.270114"><ele>977.5</ele><time>2026-05-02T16:47:11.298Z</time></trkpt><trkpt lat="42.2970349" lon="13.270294"><ele>976.25</ele><time>2026-05-02T16:47:12.358Z</time></trkpt><trkpt lat="42.2970573" lon="13.2704621"><ele>975.0</ele><time>2026-05-02T16:47:13.363Z</time></trkpt><trkpt lat="42.2970849" lon="13.2706177"><ele>972.25</ele><time>2026-05-02T16:47:14.363Z</time></trkpt><trkpt lat="42.2971173" lon="13.2707674"><ele>969.5</ele><time>2026-05-02T16:47:15.358Z</time></trkpt><trkpt lat="42.2971501" lon="13.2709217"><ele>966.75</ele><time>2026-05-02T16:47:16.372Z</time></trkpt><trkpt lat="42.2972052" lon="13.2710629"><ele>964.0</ele><time>2026-05-02T16:47:17.363Z</time></trkpt><trkpt lat="42.2972582" lon="13.2711952"><ele>960.25</ele><time>2026-05-02T16:47:18.359Z</time></trkpt><trkpt lat="42.2973215" lon="13.2713219"><ele>956.5</ele><time>2026-05-02T16:47:19.349Z</time></trkpt><trkpt lat="42.297407" lon="13.2714554"><ele>952.75</ele><time>2026-05-02T16:47:20.352Z</time></trkpt><trkpt lat="42.2975043" lon="13.2715788"><ele>949.0</ele><time>2026-05-02T16:47:21.351Z</time></trkpt><trkpt lat="42.2975985" lon="13.2716924"><ele>948.8333333333333</ele><time>2026-05-02T16:47:22.362Z</time></trkpt><trkpt lat="42.2976858" lon="13.2717994"><ele>948.6666666666666</ele><time>2026-05-02T16:47:23.361Z</time></trkpt><trkpt lat="42.2977696" lon="13.2718746"><ele>948.5</ele><time>2026-05-02T16:47:24.363Z</time></trkpt><trkpt lat="42.2978342" lon="13.271896"><ele>948.3333333333333</ele><time>2026-05-02T16:47:25.365Z</time></trkpt><trkpt lat="42.2979022" lon="13.2718773"><ele>948.1666666666666</ele><time>2026-05-02T16:47:26.348Z</time></trkpt><trkpt lat="42.2979611" lon="13.2718441"><ele>948.0</ele><time>2026-05-02T16:47:27.356Z</time></trkpt><trkpt lat="42.2980319" lon="13.2717766"><ele>944.4</ele><time>2026-05-02T16:47:28.268Z</time></trkpt><trkpt lat="42.2980909" lon="13.2716252"><ele>940.8</ele><time>2026-05-02T16:47:29.259Z</time></trkpt><trkpt lat="42.2981249" lon="13.2714788"><ele>937.2</ele><time>2026-05-02T16:47:30.278Z</time></trkpt><trkpt lat="42.298164" lon="13.2713728"><ele>933.6</ele><time>2026-05-02T16:47:31.282Z</time></trkpt><trkpt lat="42.2982339" lon="13.2712737"><ele>930.0</ele><time>2026-05-02T16:47:33.269Z</time></trkpt><trkpt lat="42.2983735" lon="13.2712985"><ele>930.0</ele><time>2026-05-02T16:47:35.281Z</time></trkpt><trkpt lat="42.2984749" lon="13.2713971"><ele>930.0</ele><time>2026-05-02T16:47:36.281Z</time></trkpt><trkpt lat="42.2985682" lon="13.2715406"><ele>930.0</ele><time>2026-05-02T16:47:37.277Z</time></trkpt><trkpt lat="42.2986594" lon="13.2717029"><ele>930.0</ele><time>2026-05-02T16:47:38.275Z</time></trkpt><trkpt lat="42.2987286" lon="13.2718891"><ele>930.0</ele><time>2026-05-02T16:47:39.283Z</time></trkpt><trkpt lat="42.2987947" lon="13.2720417"><ele>930.0</ele><time>2026-05-02T16:47:40.272Z</time></trkpt><trkpt lat="42.2988542" lon="13.2721615"><ele>930.0</ele><time>2026-05-02T16:47:41.275Z</time></trkpt><trkpt lat="42.2989288" lon="13.2722334"><ele>930.0</ele><time>2026-05-02T16:47:42.274Z</time></trkpt><trkpt lat="42.2990164" lon="13.2722796"><ele>930.0</ele><time>2026-05-02T16:47:43.268Z</time></trkpt><trkpt lat="42.2991272" lon="13.272306"><ele>925.75</ele><time>2026-05-02T16:47:44.273Z</time></trkpt><trkpt lat="42.2992662" lon="13.2723089"><ele>921.5</ele><time>2026-05-02T16:47:45.266Z</time></trkpt><trkpt lat="42.2994029" lon="13.2723207"><ele>917.25</ele><time>2026-05-02T16:47:46.28Z</time></trkpt><trkpt lat="42.2995435" lon="13.2723489"><ele>913.0</ele><time>2026-05-02T16:47:47.285Z</time></trkpt><trkpt lat="42.299686" lon="13.2723958"><ele>909.25</ele><time>2026-05-02T16:47:48.285Z</time></trkpt><trkpt lat="42.2998324" lon="13.2724576"><ele>905.5</ele><time>2026-05-02T16:47:49.282Z</time></trkpt><trkpt lat="42.2999581" lon="13.2725411"><ele>901.75</ele><time>2026-05-02T16:47:50.28Z</time></trkpt><trkpt lat="42.3000759" lon="13.2725927"><ele>898.0</ele><time>2026-05-02T16:47:51.284Z</time></trkpt><trkpt lat="42.3001839" lon="13.2726495"><ele>897.9999999999999</ele><time>2026-05-02T16:47:52.285Z</time></trkpt><trkpt lat="42.3002554" lon="13.272709"><ele>898.0</ele><time>2026-05-02T16:47:53.279Z</time></trkpt><trkpt lat="42.3002922" lon="13.2727915"><ele>898.0</ele><time>2026-05-02T16:47:54.27Z</time></trkpt><trkpt lat="42.3003116" lon="13.2728751"><ele>898.0</ele><time>2026-05-02T16:47:55.27Z</time></trkpt><trkpt lat="42.3002849" lon="13.2730478"><ele>897.9999999999999</ele><time>2026-05-02T16:47:57.274Z</time></trkpt><trkpt lat="42.3002518" lon="13.2731482"><ele>898.0</ele><time>2026-05-02T16:47:58.279Z</time></trkpt><trkpt lat="42.3002534" lon="13.2732489"><ele>896.5</ele><time>2026-05-02T16:47:59.276Z</time></trkpt><trkpt lat="42.3002922" lon="13.2733627"><ele>895.0</ele><time>2026-05-02T16:48:00.274Z</time></trkpt><trkpt lat="42.3003567" lon="13.273493"><ele>893.5</ele><time>2026-05-02T16:48:01.272Z</time></trkpt><trkpt lat="42.300425" lon="13.2736354"><ele>892.0</ele><time>2026-05-02T16:48:02.281Z</time></trkpt><trkpt lat="42.3004885" lon="13.273808"><ele>890.5</ele><time>2026-05-02T16:48:03.277Z</time></trkpt><trkpt lat="42.3005483" lon="13.2739771"><ele>889.0</ele><time>2026-05-02T16:48:04.284Z</time></trkpt><trkpt lat="42.3006116" lon="13.2741388"><ele>887.5</ele><time>2026-05-02T16:48:05.279Z</time></trkpt><trkpt lat="42.300666" lon="13.2742984"><ele>886.0</ele><time>2026-05-02T16:48:06.281Z</time></trkpt><trkpt lat="42.300721" lon="13.2744465"><ele>885.25</ele><time>2026-05-02T16:48:07.277Z</time></trkpt><trkpt lat="42.3007765" lon="13.2745877"><ele>884.5</ele><time>2026-05-02T16:48:08.275Z</time></trkpt><trkpt lat="42.3008345" lon="13.274719"><ele>883.75</ele><time>2026-05-02T16:48:09.279Z</time></trkpt><trkpt lat="42.3008999" lon="13.274844"><ele>883.0</ele><time>2026-05-02T16:48:10.284Z</time></trkpt><trkpt lat="42.3009776" lon="13.2749719"><ele>880.0</ele><time>2026-05-02T16:48:11.273Z</time></trkpt><trkpt lat="42.3010551" lon="13.2750907"><ele>877.0</ele><time>2026-05-02T16:48:12.286Z</time></trkpt><trkpt lat="42.3011307" lon="13.2752061"><ele>874.0</ele><time>2026-05-02T16:48:13.28Z</time></trkpt><trkpt lat="42.3011923" lon="13.2753288"><ele>871.0</ele><time>2026-05-02T16:48:14.278Z</time></trkpt><trkpt lat="42.3012427" lon="13.2754351"><ele>868.0</ele><time>2026-05-02T16:48:15.274Z</time></trkpt><trkpt lat="42.3012861" lon="13.2755092"><ele>865.4999999999999</ele><time>2026-05-02T16:48:16.274Z</time></trkpt><trkpt lat="42.3013413" lon="13.2756491"><ele>863.0</ele><time>2026-05-02T16:48:18.284Z</time></trkpt><trkpt lat="42.3014081" lon="13.2757563"><ele>860.5</ele><time>2026-05-02T16:48:20.278Z</time></trkpt><trkpt lat="42.3014489" lon="13.2758315"><ele>858.0</ele><time>2026-05-02T16:48:22.276Z</time></trkpt><trkpt lat="42.3015126" lon="13.2758411"><ele>855.4999999999999</ele><time>2026-05-02T16:48:24.287Z</time></trkpt><trkpt lat="42.3015691" lon="13.275783"><ele>853.0</ele><time>2026-05-02T16:48:25.293Z</time></trkpt><trkpt lat="42.3016253" lon="13.2756777"><ele>853.6666666666666</ele><time>2026-05-02T16:48:26.272Z</time></trkpt><trkpt lat="42.301678" lon="13.2755703"><ele>854.3333333333333</ele><time>2026-05-02T16:48:27.271Z</time></trkpt><trkpt lat="42.3017135" lon="13.2754836"><ele>855.0</ele><time>2026-05-02T16:48:28.267Z</time></trkpt><trkpt lat="42.3017649" lon="13.2753632"><ele>855.6666666666667</ele><time>2026-05-02T16:48:30.264Z</time></trkpt><trkpt lat="42.3018178" lon="13.2752644"><ele>856.3333333333334</ele><time>2026-05-02T16:48:32.286Z</time></trkpt><trkpt lat="42.301885" lon="13.2752468"><ele>857.0</ele><time>2026-05-02T16:48:34.284Z</time></trkpt><trkpt lat="42.3019501" lon="13.2753678"><ele>857.0</ele><time>2026-05-02T16:48:36.289Z</time></trkpt><trkpt lat="42.3019831" lon="13.2754679"><ele>857.0</ele><time>2026-05-02T16:48:37.275Z</time></trkpt><trkpt lat="42.3020183" lon="13.2755776"><ele>857.0</ele><time>2026-05-02T16:48:38.275Z</time></trkpt><trkpt lat="42.3020503" lon="13.2757082"><ele>857.0</ele><time>2026-05-02T16:48:39.273Z</time></trkpt><trkpt lat="42.3020852" lon="13.2758277"><ele>857.0</ele><time>2026-05-02T16:48:40.281Z</time></trkpt><trkpt lat="42.3021185" lon="13.2759398"><ele>855.8</ele><time>2026-05-02T16:48:41.276Z</time></trkpt><trkpt lat="42.3021526" lon="13.2760359"><ele>854.6</ele><time>2026-05-02T16:48:42.271Z</time></trkpt><trkpt lat="42.3022077" lon="13.2761803"><ele>853.4</ele><time>2026-05-02T16:48:44.271Z</time></trkpt><trkpt lat="42.3022478" lon="13.2763133"><ele>852.1999999999999</ele><time>2026-05-02T16:48:46.273Z</time></trkpt><trkpt lat="42.302261" lon="13.2764405"><ele>851.0</ele><time>2026-05-02T16:48:48.279Z</time></trkpt><trkpt lat="42.3022607" lon="13.2765999"><ele>850.3333333333334</ele><time>2026-05-02T16:48:50.283Z</time></trkpt><trkpt lat="42.3022332" lon="13.2767541"><ele>849.6666666666667</ele><time>2026-05-02T16:48:52.279Z</time></trkpt><trkpt lat="42.3022056" lon="13.2768417"><ele>849.0</ele><time>2026-05-02T16:48:53.277Z</time></trkpt><trkpt lat="42.302169" lon="13.2769384"><ele>848.3333333333333</ele><time>2026-05-02T16:48:54.273Z</time></trkpt><trkpt lat="42.3021261" lon="13.2770236"><ele>847.6666666666666</ele><time>2026-05-02T16:48:55.276Z</time></trkpt><trkpt lat="42.3020951" lon="13.2771082"><ele>847.0</ele><time>2026-05-02T16:48:56.274Z</time></trkpt><trkpt lat="42.3020725" lon="13.2771997"><ele>845.5714285714286</ele><time>2026-05-02T16:48:57.274Z</time></trkpt><trkpt lat="42.302061" lon="13.2772993"><ele>844.1428571428571</ele><time>2026-05-02T16:48:58.277Z</time></trkpt><trkpt lat="42.3020655" lon="13.2773982"><ele>842.7142857142858</ele><time>2026-05-02T16:48:59.269Z</time></trkpt><trkpt lat="42.30208" lon="13.2774898"><ele>841.2857142857142</ele><time>2026-05-02T16:49:00.279Z</time></trkpt><trkpt lat="42.302098" lon="13.2775883"><ele>839.8571428571429</ele><time>2026-05-02T16:49:01.274Z</time></trkpt><trkpt lat="42.3021205" lon="13.2776711"><ele>838.4285714285714</ele><time>2026-05-02T16:49:02.275Z</time></trkpt><trkpt lat="42.3021556" lon="13.2777419"><ele>837.0</ele><time>2026-05-02T16:49:03.271Z</time></trkpt><trkpt lat="42.3022036" lon="13.2778444"><ele>837.0</ele><time>2026-05-02T16:49:05.272Z</time></trkpt><trkpt lat="42.3022399" lon="13.2779151"><ele>837.0</ele><time>2026-05-02T16:49:07.288Z</time></trkpt><trkpt lat="42.3022946" lon="13.2779595"><ele>837.0</ele><time>2026-05-02T16:49:10.291Z</time></trkpt><trkpt lat="42.3023204" lon="13.2780548"><ele>837.0</ele><time>2026-05-02T16:49:13.276Z</time></trkpt><trkpt lat="42.3022731" lon="13.2781327"><ele>837.0</ele><time>2026-05-02T16:49:14.292Z</time></trkpt><trkpt lat="42.3022253" lon="13.2782136"><ele>837.0</ele><time>2026-05-02T16:49:15.279Z</time></trkpt><trkpt lat="42.3021724" lon="13.2782943"><ele>837.0</ele><time>2026-05-02T16:49:16.273Z</time></trkpt><trkpt lat="42.3020967" lon="13.2783563"><ele>834.75</ele><time>2026-05-02T16:49:17.281Z</time></trkpt><trkpt lat="42.3019904" lon="13.2783802"><ele>832.5</ele><time>2026-05-02T16:49:18.268Z</time></trkpt><trkpt lat="42.3018628" lon="13.278372"><ele>830.25</ele><time>2026-05-02T16:49:19.27Z</time></trkpt><trkpt lat="42.301752" lon="13.2783494"><ele>828.0</ele><time>2026-05-02T16:49:20.268Z</time></trkpt><trkpt lat="42.301654" lon="13.2783045"><ele>828.0</ele><time>2026-05-02T16:49:21.275Z</time></trkpt><trkpt lat="42.3015727" lon="13.27822"><ele>828.0</ele><time>2026-05-02T16:49:22.272Z</time></trkpt><trkpt lat="42.3015085" lon="13.2781253"><ele>828.0</ele><time>2026-05-02T16:49:23.272Z</time></trkpt><trkpt lat="42.3014614" lon="13.2780171"><ele>828.0</ele><time>2026-05-02T16:49:24.265Z</time></trkpt><trkpt lat="42.3014234" lon="13.2779317"><ele>828.0</ele><time>2026-05-02T16:49:25.274Z</time></trkpt><trkpt lat="42.3013735" lon="13.2778536"><ele>828.0</ele><time>2026-05-02T16:49:26.268Z</time></trkpt><trkpt lat="42.3013225" lon="13.2777876"><ele>827.5714285714287</ele><time>2026-05-02T16:49:27.27Z</time></trkpt><trkpt lat="42.3012663" lon="13.277715"><ele>827.1428571428571</ele><time>2026-05-02T16:49:28.27Z</time></trkpt><trkpt lat="42.3012044" lon="13.277656"><ele>826.7142857142858</ele><time>2026-05-02T16:49:29.268Z</time></trkpt><trkpt lat="42.3011384" lon="13.2776201"><ele>826.2857142857143</ele><time>2026-05-02T16:49:30.274Z</time></trkpt><trkpt lat="42.3010713" lon="13.2775961"><ele>825.8571428571429</ele><time>2026-05-02T16:49:31.269Z</time></trkpt><trkpt lat="42.3010103" lon="13.2775679"><ele>825.4285714285714</ele><time>2026-05-02T16:49:32.288Z</time></trkpt><trkpt lat="42.3009497" lon="13.277539"><ele>825.0</ele><time>2026-05-02T16:49:33.279Z</time></trkpt><trkpt lat="42.3008764" lon="13.2775074"><ele>825.0</ele><time>2026-05-02T16:49:34.277Z</time></trkpt><trkpt lat="42.3007965" lon="13.2774727"><ele>825.0</ele><time>2026-05-02T16:49:35.276Z</time></trkpt><trkpt lat="42.3007039" lon="13.2774453"><ele>825.0</ele><time>2026-05-02T16:49:36.281Z</time></trkpt><trkpt lat="42.3005947" lon="13.2774436"><ele>825.0</ele><time>2026-05-02T16:49:37.285Z</time></trkpt><trkpt lat="42.3004848" lon="13.2774886"><ele>825.0</ele><time>2026-05-02T16:49:38.286Z</time></trkpt><trkpt lat="42.300368" lon="13.277552"><ele>825.8</ele><time>2026-05-02T16:49:39.292Z</time></trkpt><trkpt lat="42.3002583" lon="13.2775991"><ele>826.6</ele><time>2026-05-02T16:49:40.363Z</time></trkpt><trkpt lat="42.3001553" lon="13.2776352"><ele>827.4000000000001</ele><time>2026-05-02T16:49:41.37Z</time></trkpt><trkpt lat="42.3000527" lon="13.2776491"><ele>828.2</ele><time>2026-05-02T16:49:42.36Z</time></trkpt><trkpt lat="42.2999641" lon="13.2776563"><ele>829.0</ele><time>2026-05-02T16:49:43.361Z</time></trkpt><trkpt lat="42.2998875" lon="13.277648"><ele>829.0</ele><time>2026-05-02T16:49:44.34Z</time></trkpt><trkpt lat="42.2998214" lon="13.2776457"><ele>829.0</ele><time>2026-05-02T16:49:45.35Z</time></trkpt><trkpt lat="42.2994004" lon="13.2775969"><ele>828.5</ele><time>2026-05-02T16:49:47.346Z</time></trkpt><trkpt lat="42.2993187" lon="13.2776074"><ele>828.0</ele><time>2026-05-02T16:49:48.36Z</time></trkpt><trkpt lat="42.2991225" lon="13.2777746"><ele>827.5</ele><time>2026-05-02T16:49:51.359Z</time></trkpt><trkpt lat="42.2990351" lon="13.277857"><ele>827.0</ele><time>2026-05-02T16:49:52.359Z</time></trkpt><trkpt lat="42.2989687" lon="13.277954"><ele>828.5</ele><time>2026-05-02T16:49:53.358Z</time></trkpt><trkpt lat="42.2989162" lon="13.2781154"><ele>830.0</ele><time>2026-05-02T16:49:54.372Z</time></trkpt><trkpt lat="42.29887" lon="13.2782969"><ele>831.5</ele><time>2026-05-02T16:49:55.349Z</time></trkpt><trkpt lat="42.2988615" lon="13.2784995"><ele>833.0</ele><time>2026-05-02T16:49:56.346Z</time></trkpt><trkpt lat="42.2988642" lon="13.2787578"><ele>833.0</ele><time>2026-05-02T16:49:57.332Z</time></trkpt><trkpt lat="42.2988788" lon="13.2790494"><ele>833.0</ele><time>2026-05-02T16:49:58.332Z</time></trkpt><trkpt lat="42.2984291" lon="13.2786817"><ele>833.0</ele><time>2026-05-02T16:49:59.256Z</time></trkpt><trkpt lat="42.2983002" lon="13.2787538"><ele>833.0</ele><time>2026-05-02T16:50:00.263Z</time></trkpt><trkpt lat="42.2981701" lon="13.2788044"><ele>833.0</ele><time>2026-05-02T16:50:01.273Z</time></trkpt><trkpt lat="42.2980446" lon="13.2789053"><ele>833.0</ele><time>2026-05-02T16:50:02.277Z</time></trkpt><trkpt lat="42.297928" lon="13.2790559"><ele>835.75</ele><time>2026-05-02T16:50:03.264Z</time></trkpt><trkpt lat="42.2978165" lon="13.2792001"><ele>838.5</ele><time>2026-05-02T16:50:04.269Z</time></trkpt><trkpt lat="42.2977339" lon="13.2793443"><ele>841.25</ele><time>2026-05-02T16:50:05.265Z</time></trkpt><trkpt lat="42.2976829" lon="13.2794489"><ele>844.0</ele><time>2026-05-02T16:50:06.269Z</time></trkpt><trkpt lat="42.2976283" lon="13.2796109"><ele>841.75</ele><time>2026-05-02T16:50:07.273Z</time></trkpt><trkpt lat="42.2976179" lon="13.2797925"><ele>839.5</ele><time>2026-05-02T16:50:08.262Z</time></trkpt><trkpt lat="42.2976242" lon="13.2799714"><ele>837.25</ele><time>2026-05-02T16:50:09.258Z</time></trkpt><trkpt lat="42.2976536" lon="13.2801665"><ele>835.0</ele><time>2026-05-02T16:50:10.261Z</time></trkpt><trkpt lat="42.2977187" lon="13.2803425"><ele>835.0</ele><time>2026-05-02T16:50:11.264Z</time></trkpt><trkpt lat="42.2978152" lon="13.280467"><ele>835.0</ele><time>2026-05-02T16:50:12.261Z</time></trkpt><trkpt lat="42.2979284" lon="13.2805594"><ele>835.0</ele><time>2026-05-02T16:50:13.27Z</time></trkpt><trkpt lat="42.2980562" lon="13.2806139"><ele>835.0</ele><time>2026-05-02T16:50:14.266Z</time></trkpt><trkpt lat="42.2981807" lon="13.2806173"><ele>832.25</ele><time>2026-05-02T16:50:15.262Z</time></trkpt><trkpt lat="42.2983212" lon="13.2805786"><ele>829.5</ele><time>2026-05-02T16:50:16.257Z</time></trkpt><trkpt lat="42.2984624" lon="13.2805341"><ele>826.75</ele><time>2026-05-02T16:50:17.256Z</time></trkpt><trkpt lat="42.2986065" lon="13.2804931"><ele>824.0</ele><time>2026-05-02T16:50:18.266Z</time></trkpt><trkpt lat="42.2987453" lon="13.2804934"><ele>824.0</ele><time>2026-05-02T16:50:19.261Z</time></trkpt><trkpt lat="42.2988891" lon="13.2805589"><ele>824.0</ele><time>2026-05-02T16:50:20.266Z</time></trkpt><trkpt lat="42.299021" lon="13.2806739"><ele>824.0</ele><time>2026-05-02T16:50:21.269Z</time></trkpt><trkpt lat="42.2991796" lon="13.2807968"><ele>827.6666666666667</ele><time>2026-05-02T16:50:22.268Z</time></trkpt><trkpt lat="42.2993396" lon="13.2809028"><ele>831.3333333333333</ele><time>2026-05-02T16:50:23.27Z</time></trkpt><trkpt lat="42.2995027" lon="13.2810266"><ele>835.0</ele><time>2026-05-02T16:50:24.265Z</time></trkpt><trkpt lat="42.2996433" lon="13.2811384"><ele>836.0</ele><time>2026-05-02T16:50:25.27Z</time></trkpt><trkpt lat="42.2997879" lon="13.281262"><ele>837.0</ele><time>2026-05-02T16:50:26.265Z</time></trkpt><trkpt lat="42.2999262" lon="13.2813716"><ele>838.0</ele><time>2026-05-02T16:50:27.267Z</time></trkpt><trkpt lat="42.3000564" lon="13.2814686"><ele>838.0</ele><time>2026-05-02T16:50:28.27Z</time></trkpt><trkpt lat="42.3001755" lon="13.2815495"><ele>838.0</ele><time>2026-05-02T16:50:29.26Z</time></trkpt><trkpt lat="42.3002607" lon="13.2816461"><ele>838.0</ele><time>2026-05-02T16:50:30.269Z</time></trkpt><trkpt lat="42.3003555" lon="13.2817531"><ele>838.0</ele><time>2026-05-02T16:50:31.27Z</time></trkpt><trkpt lat="42.3004664" lon="13.2818602"><ele>838.0</ele><time>2026-05-02T16:50:32.269Z</time></trkpt><trkpt lat="42.3005486" lon="13.2819801"><ele>838.0</ele><time>2026-05-02T16:50:33.263Z</time></trkpt><trkpt lat="42.3006129" lon="13.2821569"><ele>838.0</ele><time>2026-05-02T16:50:34.269Z</time></trkpt><trkpt lat="42.3006676" lon="13.2822819"><ele>838.0</ele><time>2026-05-02T16:50:35.274Z</time></trkpt><trkpt lat="42.3006695" lon="13.282422"><ele>838.75</ele><time>2026-05-02T16:50:36.275Z</time></trkpt><trkpt lat="42.3006388" lon="13.2825933"><ele>839.5</ele><time>2026-05-02T16:50:37.274Z</time></trkpt><trkpt lat="42.3006011" lon="13.2827704"><ele>840.25</ele><time>2026-05-02T16:50:38.269Z</time></trkpt><trkpt lat="42.3005731" lon="13.2829399"><ele>841.0</ele><time>2026-05-02T16:50:39.27Z</time></trkpt><trkpt lat="42.3005527" lon="13.2830795"><ele>839.3333333333333</ele><time>2026-05-02T16:50:40.271Z</time></trkpt><trkpt lat="42.3005316" lon="13.2831983"><ele>837.6666666666666</ele><time>2026-05-02T16:50:41.273Z</time></trkpt><trkpt lat="42.3005226" lon="13.2832889"><ele>836.0</ele><time>2026-05-02T16:50:42.267Z</time></trkpt><trkpt lat="42.300488" lon="13.283433"><ele>834.3333333333333</ele><time>2026-05-02T16:50:44.278Z</time></trkpt><trkpt lat="42.3004221" lon="13.2834668"><ele>832.6666666666666</ele><time>2026-05-02T16:50:45.281Z</time></trkpt><trkpt lat="42.3003321" lon="13.2834905"><ele>831.0</ele><time>2026-05-02T16:50:46.273Z</time></trkpt><trkpt lat="42.3002286" lon="13.2834927"><ele>831.0</ele><time>2026-05-02T16:50:47.268Z</time></trkpt><trkpt lat="42.3001097" lon="13.2835039"><ele>831.0</ele><time>2026-05-02T16:50:48.272Z</time></trkpt><trkpt lat="42.2999785" lon="13.2835256"><ele>831.0</ele><time>2026-05-02T16:50:49.266Z</time></trkpt><trkpt lat="42.2998484" lon="13.2835514"><ele>831.0</ele><time>2026-05-02T16:50:50.266Z</time></trkpt><trkpt lat="42.2997231" lon="13.2836061"><ele>831.5</ele><time>2026-05-02T16:50:51.271Z</time></trkpt><trkpt lat="42.2995947" lon="13.2836902"><ele>832.0</ele><time>2026-05-02T16:50:52.265Z</time></trkpt><trkpt lat="42.2994658" lon="13.2837896"><ele>832.5</ele><time>2026-05-02T16:50:53.276Z</time></trkpt><trkpt lat="42.2993299" lon="13.2838927"><ele>833.0</ele><time>2026-05-02T16:50:54.281Z</time></trkpt><trkpt lat="42.299207" lon="13.2839834"><ele>829.75</ele><time>2026-05-02T16:50:55.276Z</time></trkpt><trkpt lat="42.2990869" lon="13.2840556"><ele>826.5</ele><time>2026-05-02T16:50:56.28Z</time></trkpt><trkpt lat="42.2989689" lon="13.2840654"><ele>823.25</ele><time>2026-05-02T16:50:57.278Z</time></trkpt><trkpt lat="42.2988477" lon="13.2840244"><ele>820.0</ele><time>2026-05-02T16:50:58.281Z</time></trkpt><trkpt lat="42.2987437" lon="13.2839914"><ele>822.2</ele><time>2026-05-02T16:50:59.275Z</time></trkpt><trkpt lat="42.2986438" lon="13.2839159"><ele>824.4</ele><time>2026-05-02T16:51:00.276Z</time></trkpt><trkpt lat="42.2985468" lon="13.28385"><ele>826.5999999999999</ele><time>2026-05-02T16:51:01.28Z</time></trkpt><trkpt lat="42.2984579" lon="13.283796"><ele>828.8</ele><time>2026-05-02T16:51:02.276Z</time></trkpt><trkpt lat="42.2983717" lon="13.2837652"><ele>831.0</ele><time>2026-05-02T16:51:03.267Z</time></trkpt><trkpt lat="42.2982856" lon="13.283747"><ele>831.0</ele><time>2026-05-02T16:51:04.275Z</time></trkpt><trkpt lat="42.2981953" lon="13.283759"><ele>831.0</ele><time>2026-05-02T16:51:05.278Z</time></trkpt><trkpt lat="42.2980973" lon="13.2838044"><ele>831.0</ele><time>2026-05-02T16:51:06.272Z</time></trkpt><trkpt lat="42.29801" lon="13.2838646"><ele>831.0</ele><time>2026-05-02T16:51:07.277Z</time></trkpt><trkpt lat="42.29794" lon="13.2839185"><ele>831.0</ele><time>2026-05-02T16:51:08.272Z</time></trkpt><trkpt lat="42.2978823" lon="13.2839665"><ele>831.0</ele><time>2026-05-02T16:51:09.27Z</time></trkpt><trkpt lat="42.2978707" lon="13.2840792"><ele>829.25</ele><time>2026-05-02T16:51:11.277Z</time></trkpt><trkpt lat="42.298003" lon="13.2841793"><ele>827.5</ele><time>2026-05-02T16:51:13.268Z</time></trkpt><trkpt lat="42.2981135" lon="13.2842132"><ele>825.75</ele><time>2026-05-02T16:51:14.276Z</time></trkpt><trkpt lat="42.2982496" lon="13.2842338"><ele>824.0</ele><time>2026-05-02T16:51:15.271Z</time></trkpt><trkpt lat="42.2983927" lon="13.284264"><ele>822.25</ele><time>2026-05-02T16:51:16.277Z</time></trkpt><trkpt lat="42.2985357" lon="13.2843014"><ele>820.5</ele><time>2026-05-02T16:51:17.279Z</time></trkpt><trkpt lat="42.2986714" lon="13.2843517"><ele>818.75</ele><time>2026-05-02T16:51:18.273Z</time></trkpt><trkpt lat="42.2987882" lon="13.2844342"><ele>817.0</ele><time>2026-05-02T16:51:19.282Z</time></trkpt><trkpt lat="42.2988882" lon="13.2845606"><ele>817.75</ele><time>2026-05-02T16:51:20.285Z</time></trkpt><trkpt lat="42.2989833" lon="13.2847101"><ele>818.5</ele><time>2026-05-02T16:51:21.277Z</time></trkpt><trkpt lat="42.2990652" lon="13.2848589"><ele>819.25</ele><time>2026-05-02T16:51:22.277Z</time></trkpt><trkpt lat="42.2991363" lon="13.2850271"><ele>820.0</ele><time>2026-05-02T16:51:23.276Z</time></trkpt><trkpt lat="42.299218" lon="13.2851918"><ele>817.75</ele><time>2026-05-02T16:51:24.28Z</time></trkpt><trkpt lat="42.2992871" lon="13.2853418"><ele>815.5</ele><time>2026-05-02T16:51:25.278Z</time></trkpt><trkpt lat="42.2993441" lon="13.2855033"><ele>813.25</ele><time>2026-05-02T16:51:26.276Z</time></trkpt><trkpt lat="42.2993916" lon="13.28567"><ele>811.0</ele><time>2026-05-02T16:51:27.27Z</time></trkpt><trkpt lat="42.2994214" lon="13.2858693"><ele>809.3333333333333</ele><time>2026-05-02T16:51:28.274Z</time></trkpt><trkpt lat="42.2994322" lon="13.2860968"><ele>807.6666666666667</ele><time>2026-05-02T16:51:29.279Z</time></trkpt><trkpt lat="42.2994471" lon="13.2863274"><ele>806.0</ele><time>2026-05-02T16:51:30.284Z</time></trkpt><trkpt lat="42.2994664" lon="13.2865412"><ele>804.5</ele><time>2026-05-02T16:51:31.286Z</time></trkpt><trkpt lat="42.2994718" lon="13.2867358"><ele>803.0</ele><time>2026-05-02T16:51:32.281Z</time></trkpt><trkpt lat="42.2994827" lon="13.2869255"><ele>801.5</ele><time>2026-05-02T16:51:33.277Z</time></trkpt><trkpt lat="42.2994901" lon="13.2871294"><ele>800.0</ele><time>2026-05-02T16:51:34.275Z</time></trkpt><trkpt lat="42.2995146" lon="13.2873161"><ele>800.5</ele><time>2026-05-02T16:51:35.269Z</time></trkpt><trkpt lat="42.2995665" lon="13.2874789"><ele>801.0</ele><time>2026-05-02T16:51:36.274Z</time></trkpt><trkpt lat="42.2996354" lon="13.2876177"><ele>801.5</ele><time>2026-05-02T16:51:37.27Z</time></trkpt><trkpt lat="42.2997499" lon="13.2877128"><ele>802.0</ele><time>2026-05-02T16:51:38.281Z</time></trkpt><trkpt lat="42.2998719" lon="13.2877589"><ele>802.0</ele><time>2026-05-02T16:51:39.276Z</time></trkpt><trkpt lat="42.2999949" lon="13.2877528"><ele>802.0</ele><time>2026-05-02T16:51:40.275Z</time></trkpt><trkpt lat="42.3001537" lon="13.2876963"><ele>802.0</ele><time>2026-05-02T16:51:41.264Z</time></trkpt><trkpt lat="42.3003273" lon="13.287671"><ele>802.0</ele><time>2026-05-02T16:51:42.262Z</time></trkpt><trkpt lat="42.3005006" lon="13.287671"><ele>802.0</ele><time>2026-05-02T16:51:43.265Z</time></trkpt><trkpt lat="42.3007014" lon="13.2876723"><ele>802.0</ele><time>2026-05-02T16:51:44.263Z</time></trkpt><trkpt lat="42.3008831" lon="13.2876555"><ele>800.75</ele><time>2026-05-02T16:51:45.264Z</time></trkpt><trkpt lat="42.3010376" lon="13.2876595"><ele>799.5</ele><time>2026-05-02T16:51:46.262Z</time></trkpt><trkpt lat="42.3011876" lon="13.2876486"><ele>798.25</ele><time>2026-05-02T16:51:47.255Z</time></trkpt><trkpt lat="42.3013077" lon="13.2875958"><ele>797.0</ele><time>2026-05-02T16:51:48.272Z</time></trkpt><trkpt lat="42.3014357" lon="13.2875221"><ele>793.0</ele><time>2026-05-02T16:51:49.256Z</time></trkpt><trkpt lat="42.3015541" lon="13.287417"><ele>789.0</ele><time>2026-05-02T16:51:50.27Z</time></trkpt><trkpt lat="42.3016808" lon="13.2873488"><ele>785.0</ele><time>2026-05-02T16:51:51.264Z</time></trkpt><trkpt lat="42.301806" lon="13.2873352"><ele>781.0</ele><time>2026-05-02T16:51:52.272Z</time></trkpt><trkpt lat="42.3019161" lon="13.2873154"><ele>780.9999999999999</ele><time>2026-05-02T16:51:53.265Z</time></trkpt><trkpt lat="42.3019971" lon="13.2873205"><ele>781.0</ele><time>2026-05-02T16:51:54.286Z</time></trkpt><trkpt lat="42.3020766" lon="13.2872826"><ele>781.0</ele><time>2026-05-02T16:51:56.273Z</time></trkpt><trkpt lat="42.3021349" lon="13.2873486"><ele>781.0</ele><time>2026-05-02T16:52:00.295Z</time></trkpt><trkpt lat="42.3021006" lon="13.2874501"><ele>780.9999999999999</ele><time>2026-05-02T16:52:02.299Z</time></trkpt><trkpt lat="42.3020909" lon="13.2875733"><ele>781.0</ele><time>2026-05-02T16:52:04.3Z</time></trkpt><trkpt lat="42.3020866" lon="13.2876603"><ele>781.0</ele><time>2026-05-02T16:52:05.285Z</time></trkpt><trkpt lat="42.3020902" lon="13.2877661"><ele>781.0</ele><time>2026-05-02T16:52:06.289Z</time></trkpt><trkpt lat="42.3020985" lon="13.2878976"><ele>781.0</ele><time>2026-05-02T16:52:07.283Z</time></trkpt><trkpt lat="42.3020967" lon="13.2880639"><ele>781.0</ele><time>2026-05-02T16:52:08.279Z</time></trkpt><trkpt lat="42.302088" lon="13.2882249"><ele>781.0</ele><time>2026-05-02T16:52:09.282Z</time></trkpt><trkpt lat="42.3020814" lon="13.2883668"><ele>780.3333333333333</ele><time>2026-05-02T16:52:10.282Z</time></trkpt><trkpt lat="42.3020818" lon="13.28849"><ele>779.6666666666666</ele><time>2026-05-02T16:52:11.283Z</time></trkpt><trkpt lat="42.3020811" lon="13.288591"><ele>779.0</ele><time>2026-05-02T16:52:12.278Z</time></trkpt><trkpt lat="42.3020772" lon="13.2886911"><ele>778.3333333333333</ele><time>2026-05-02T16:52:13.272Z</time></trkpt><trkpt lat="42.3020864" lon="13.2887885"><ele>777.6666666666666</ele><time>2026-05-02T16:52:14.271Z</time></trkpt><trkpt lat="42.3021027" lon="13.2888727"><ele>777.0</ele><time>2026-05-02T16:52:15.281Z</time></trkpt><trkpt lat="42.3021893" lon="13.2889437"><ele>777.3333333333334</ele><time>2026-05-02T16:52:17.268Z</time></trkpt><trkpt lat="42.3022501" lon="13.2889681"><ele>777.6666666666667</ele><time>2026-05-02T16:52:18.279Z</time></trkpt><trkpt lat="42.3023143" lon="13.2889942"><ele>778.0</ele><time>2026-05-02T16:52:19.27Z</time></trkpt><trkpt lat="42.302379" lon="13.2890215"><ele>778.3333333333334</ele><time>2026-05-02T16:52:20.275Z</time></trkpt><trkpt lat="42.3024479" lon="13.2890344"><ele>778.6666666666667</ele><time>2026-05-02T16:52:21.266Z</time></trkpt><trkpt lat="42.3025383" lon="13.2890552"><ele>779.0</ele><time>2026-05-02T16:52:22.264Z</time></trkpt><trkpt lat="42.3026412" lon="13.2890365"><ele>779.0</ele><time>2026-05-02T16:52:23.266Z</time></trkpt><trkpt lat="42.302762" lon="13.2890115"><ele>779.0</ele><time>2026-05-02T16:52:24.272Z</time></trkpt><trkpt lat="42.3028826" lon="13.2889892"><ele>779.0</ele><time>2026-05-02T16:52:25.27Z</time></trkpt><trkpt lat="42.3030071" lon="13.2889693"><ele>779.0</ele><time>2026-05-02T16:52:26.281Z</time></trkpt><trkpt lat="42.3031288" lon="13.2889226"><ele>777.0</ele><time>2026-05-02T16:52:27.275Z</time></trkpt><trkpt lat="42.3032418" lon="13.2888722"><ele>775.0</ele><time>2026-05-02T16:52:28.283Z</time></trkpt><trkpt lat="42.3033474" lon="13.2888293"><ele>773.0</ele><time>2026-05-02T16:52:29.277Z</time></trkpt><trkpt lat="42.3034385" lon="13.2887974"><ele>771.0</ele><time>2026-05-02T16:52:30.286Z</time></trkpt><trkpt lat="42.3035276" lon="13.28877"><ele>769.0</ele><time>2026-05-02T16:52:31.284Z</time></trkpt><trkpt lat="42.303621" lon="13.2887519"><ele>769.0</ele><time>2026-05-02T16:52:32.281Z</time></trkpt><trkpt lat="42.3037255" lon="13.2887345"><ele>769.0</ele><time>2026-05-02T16:52:33.278Z</time></trkpt><trkpt lat="42.3038415" lon="13.288723"><ele>769.0</ele><time>2026-05-02T16:52:34.281Z</time></trkpt><trkpt lat="42.3039361" lon="13.2887158"><ele>769.0</ele><time>2026-05-02T16:52:35.275Z</time></trkpt><trkpt lat="42.3040169" lon="13.2886977"><ele>769.0</ele><time>2026-05-02T16:52:36.283Z</time></trkpt><trkpt lat="42.3041047" lon="13.2886737"><ele>768.9999999999999</ele><time>2026-05-02T16:52:37.279Z</time></trkpt><trkpt lat="42.3041828" lon="13.2886498"><ele>769.0</ele><time>2026-05-02T16:52:38.279Z</time></trkpt><trkpt lat="42.3042611" lon="13.2886195"><ele>769.0</ele><time>2026-05-02T16:52:39.284Z</time></trkpt><trkpt lat="42.3043337" lon="13.2885871"><ele>769.0</ele><time>2026-05-02T16:52:40.262Z</time></trkpt><trkpt lat="42.3044131" lon="13.2885609"><ele>768.9999999999999</ele><time>2026-05-02T16:52:41.265Z</time></trkpt><trkpt lat="42.3044911" lon="13.2885377"><ele>769.0</ele><time>2026-05-02T16:52:42.268Z</time></trkpt><trkpt lat="42.3045796" lon="13.2885066"><ele>769.0</ele><time>2026-05-02T16:52:43.264Z</time></trkpt><trkpt lat="42.3046726" lon="13.2884836"><ele>769.0</ele><time>2026-05-02T16:52:44.269Z</time></trkpt><trkpt lat="42.3047764" lon="13.2884627"><ele>769.0</ele><time>2026-05-02T16:52:45.268Z</time></trkpt><trkpt lat="42.3048849" lon="13.2884199"><ele>769.0</ele><time>2026-05-02T16:52:46.273Z</time></trkpt><trkpt lat="42.304985" lon="13.2883744"><ele>769.0</ele><time>2026-05-02T16:52:47.275Z</time></trkpt><trkpt lat="42.3050773" lon="13.288328"><ele>768.8333333333333</ele><time>2026-05-02T16:52:48.273Z</time></trkpt><trkpt lat="42.3051627" lon="13.2883038"><ele>768.6666666666666</ele><time>2026-05-02T16:52:49.26Z</time></trkpt><trkpt lat="42.3052555" lon="13.2882939"><ele>768.5</ele><time>2026-05-02T16:52:50.262Z</time></trkpt><trkpt lat="42.3053381" lon="13.2882834"><ele>768.3333333333333</ele><time>2026-05-02T16:52:51.256Z</time></trkpt><trkpt lat="42.3054229" lon="13.288304"><ele>768.1666666666666</ele><time>2026-05-02T16:52:52.258Z</time></trkpt><trkpt lat="42.3055198" lon="13.288329"><ele>768.0</ele><time>2026-05-02T16:52:53.266Z</time></trkpt><trkpt lat="42.3056343" lon="13.2883413"><ele>767.8</ele><time>2026-05-02T16:52:54.262Z</time></trkpt><trkpt lat="42.3057263" lon="13.2883362"><ele>767.5999999999999</ele><time>2026-05-02T16:52:55.254Z</time></trkpt><trkpt lat="42.3058135" lon="13.2883239"><ele>767.4000000000001</ele><time>2026-05-02T16:52:56.267Z</time></trkpt><trkpt lat="42.3059023" lon="13.2882904"><ele>767.2</ele><time>2026-05-02T16:52:57.265Z</time></trkpt><trkpt lat="42.3059876" lon="13.2882604"><ele>767.0</ele><time>2026-05-02T16:52:58.264Z</time></trkpt><trkpt lat="42.3060761" lon="13.2882134"><ele>767.0</ele><time>2026-05-02T16:52:59.265Z</time></trkpt><trkpt lat="42.3061656" lon="13.2881581"><ele>767.0</ele><time>2026-05-02T16:53:00.272Z</time></trkpt><trkpt lat="42.3062616" lon="13.2881029"><ele>767.0</ele><time>2026-05-02T16:53:01.263Z</time></trkpt><trkpt lat="42.3063546" lon="13.2880447"><ele>767.0</ele><time>2026-05-02T16:53:02.269Z</time></trkpt><trkpt lat="42.3064537" lon="13.287985"><ele>767.0</ele><time>2026-05-02T16:53:03.263Z</time></trkpt><trkpt lat="42.3065536" lon="13.2879285"><ele>766.6</ele><time>2026-05-02T16:53:04.266Z</time></trkpt><trkpt lat="42.306649" lon="13.2878682"><ele>766.2</ele><time>2026-05-02T16:53:05.27Z</time></trkpt><trkpt lat="42.3067268" lon="13.2878127"><ele>765.8</ele><time>2026-05-02T16:53:06.265Z</time></trkpt><trkpt lat="42.3068007" lon="13.2877839"><ele>765.4</ele><time>2026-05-02T16:53:07.265Z</time></trkpt><trkpt lat="42.3069096" lon="13.287743"><ele>765.0</ele><time>2026-05-02T16:53:09.263Z</time></trkpt><trkpt lat="42.3069766" lon="13.2877314"><ele>765.0</ele><time>2026-05-02T16:53:11.261Z</time></trkpt><trkpt lat="42.3070334" lon="13.2876878"><ele>765.0</ele><time>2026-05-02T16:53:18.287Z</time></trkpt><trkpt lat="42.3070956" lon="13.2876166"><ele>765.0</ele><time>2026-05-02T16:53:19.265Z</time></trkpt><trkpt lat="42.3071868" lon="13.2875052"><ele>765.0</ele><time>2026-05-02T16:53:20.265Z</time></trkpt><trkpt lat="42.3072837" lon="13.2873776"><ele>765.0</ele><time>2026-05-02T16:53:21.255Z</time></trkpt><trkpt lat="42.3073857" lon="13.2872385"><ele>764.5</ele><time>2026-05-02T16:53:22.266Z</time></trkpt><trkpt lat="42.3074952" lon="13.2871036"><ele>764.0</ele><time>2026-05-02T16:53:23.265Z</time></trkpt><trkpt lat="42.3076041" lon="13.2869631"><ele>763.5</ele><time>2026-05-02T16:53:24.267Z</time></trkpt><trkpt lat="42.3077064" lon="13.2868244"><ele>763.0</ele><time>2026-05-02T16:53:25.267Z</time></trkpt><trkpt lat="42.3078213" lon="13.2867062"><ele>763.0</ele><time>2026-05-02T16:53:26.271Z</time></trkpt><trkpt lat="42.3079533" lon="13.2866053"><ele>763.0</ele><time>2026-05-02T16:53:27.265Z</time></trkpt><trkpt lat="42.3080892" lon="13.2865098"><ele>763.0</ele><time>2026-05-02T16:53:28.267Z</time></trkpt><trkpt lat="42.3082373" lon="13.2864286"><ele>761.5</ele><time>2026-05-02T16:53:29.265Z</time></trkpt><trkpt lat="42.3083637" lon="13.2863552"><ele>760.0</ele><time>2026-05-02T16:53:30.265Z</time></trkpt><trkpt lat="42.3084775" lon="13.2862709"><ele>758.5</ele><time>2026-05-02T16:53:31.267Z</time></trkpt><trkpt lat="42.3085979" lon="13.2861885"><ele>757.0</ele><time>2026-05-02T16:53:32.263Z</time></trkpt><trkpt lat="42.3087233" lon="13.286104"><ele>757.0</ele><time>2026-05-02T16:53:33.261Z</time></trkpt><trkpt lat="42.3088622" lon="13.2860335"><ele>757.0</ele><time>2026-05-02T16:53:34.265Z</time></trkpt><trkpt lat="42.3090117" lon="13.2859605"><ele>757.0</ele><time>2026-05-02T16:53:35.262Z</time></trkpt><trkpt lat="42.3091504" lon="13.285929"><ele>757.0</ele><time>2026-05-02T16:53:36.266Z</time></trkpt><trkpt lat="42.3092954" lon="13.285922"><ele>757.0</ele><time>2026-05-02T16:53:37.261Z</time></trkpt><trkpt lat="42.3094238" lon="13.2859116"><ele>757.0</ele><time>2026-05-02T16:53:38.259Z</time></trkpt><trkpt lat="42.3095193" lon="13.285886"><ele>757.0</ele><time>2026-05-02T16:53:39.255Z</time></trkpt><trkpt lat="42.3095957" lon="13.2858823"><ele>757.0</ele><time>2026-05-02T16:53:40.256Z</time></trkpt><trkpt lat="42.3096688" lon="13.2858434"><ele>757.0</ele><time>2026-05-02T16:53:42.254Z</time></trkpt><trkpt lat="42.3097095" lon="13.2859325"><ele>757.0</ele><time>2026-05-02T16:53:45.267Z</time></trkpt><trkpt lat="42.3096407" lon="13.2859749"><ele>757.0</ele><time>2026-05-02T16:53:47.274Z</time></trkpt><trkpt lat="42.3095706" lon="13.2859763"><ele>757.0</ele><time>2026-05-02T16:53:48.274Z</time></trkpt><trkpt lat="42.3094747" lon="13.2859737"><ele>757.0</ele><time>2026-05-02T16:53:49.264Z</time></trkpt><trkpt lat="42.3093685" lon="13.2859886"><ele>757.0</ele><time>2026-05-02T16:53:50.261Z</time></trkpt><trkpt lat="42.3092547" lon="13.286012"><ele>757.0</ele><time>2026-05-02T16:53:51.261Z</time></trkpt><trkpt lat="42.3091421" lon="13.2860515"><ele>757.0</ele><time>2026-05-02T16:53:52.257Z</time></trkpt><trkpt lat="42.309024" lon="13.2861046"><ele>757.0</ele><time>2026-05-02T16:53:53.262Z</time></trkpt><trkpt lat="42.3088896" lon="13.2861681"><ele>757.0</ele><time>2026-05-02T16:53:54.263Z</time></trkpt><trkpt lat="42.3087641" lon="13.2862309"><ele>757.0</ele><time>2026-05-02T16:53:55.262Z</time></trkpt><trkpt lat="42.3086536" lon="13.2862821"><ele>757.0</ele><time>2026-05-02T16:53:56.262Z</time></trkpt><trkpt lat="42.3085692" lon="13.2863564"><ele>757.0</ele><time>2026-05-02T16:53:57.266Z</time></trkpt><trkpt lat="42.3084981" lon="13.2864162"><ele>757.0</ele><time>2026-05-02T16:53:58.273Z</time></trkpt><trkpt lat="42.3084579" lon="13.2864841"><ele>757.0</ele><time>2026-05-02T16:53:59.267Z</time></trkpt><trkpt lat="42.3084744" lon="13.2865802"><ele>757.0</ele><time>2026-05-02T16:54:00.28Z</time></trkpt><trkpt lat="42.3086018" lon="13.286669"><ele>759.5</ele><time>2026-05-02T16:54:02.27Z</time></trkpt><trkpt lat="42.3086985" lon="13.2866526"><ele>762.0</ele><time>2026-05-02T16:54:03.26Z</time></trkpt><trkpt lat="42.3088096" lon="13.2866192"><ele>764.5</ele><time>2026-05-02T16:54:04.257Z</time></trkpt><trkpt lat="42.3089326" lon="13.286595"><ele>767.0</ele><time>2026-05-02T16:54:05.265Z</time></trkpt><trkpt lat="42.3090721" lon="13.2865805"><ele>769.0</ele><time>2026-05-02T16:54:06.253Z</time></trkpt><trkpt lat="42.3092313" lon="13.2865682"><ele>771.0</ele><time>2026-05-02T16:54:07.257Z</time></trkpt><trkpt lat="42.309413" lon="13.2865487"><ele>773.0</ele><time>2026-05-02T16:54:08.256Z</time></trkpt><trkpt lat="42.3096019" lon="13.2865355"><ele>777.3333333333334</ele><time>2026-05-02T16:54:09.267Z</time></trkpt><trkpt lat="42.3097733" lon="13.2865098"><ele>781.6666666666667</ele><time>2026-05-02T16:54:10.26Z</time></trkpt><trkpt lat="42.3099574" lon="13.2864616"><ele>786.0</ele><time>2026-05-02T16:54:11.261Z</time></trkpt><trkpt lat="42.3101501" lon="13.2864292"><ele>781.6666666666667</ele><time>2026-05-02T16:54:12.252Z</time></trkpt><trkpt lat="42.3103476" lon="13.2864229"><ele>777.3333333333334</ele><time>2026-05-02T16:54:13.254Z</time></trkpt><trkpt lat="42.3105532" lon="13.2864008"><ele>773.0</ele><time>2026-05-02T16:54:14.259Z</time></trkpt><trkpt lat="42.3107244" lon="13.2864001"><ele>773.0</ele><time>2026-05-02T16:54:15.262Z</time></trkpt><trkpt lat="42.3108782" lon="13.2863959"><ele>773.0</ele><time>2026-05-02T16:54:16.259Z</time></trkpt><trkpt lat="42.3110016" lon="13.2864086"><ele>773.0</ele><time>2026-05-02T16:54:17.257Z</time></trkpt><trkpt lat="42.3111084" lon="13.2864225"><ele>773.0</ele><time>2026-05-02T16:54:18.276Z</time></trkpt><trkpt lat="42.3111815" lon="13.2864141"><ele>773.0</ele><time>2026-05-02T16:54:19.267Z</time></trkpt><trkpt lat="42.311317" lon="13.2862852"><ele>773.0</ele><time>2026-05-02T16:54:21.259Z</time></trkpt><trkpt lat="42.3113967" lon="13.286194"><ele>773.0</ele><time>2026-05-02T16:54:22.272Z</time></trkpt><trkpt lat="42.3114702" lon="13.2861058"><ele>773.0</ele><time>2026-05-02T16:54:23.265Z</time></trkpt><trkpt lat="42.3115396" lon="13.2860432"><ele>775.0000000000001</ele><time>2026-05-02T16:54:24.263Z</time></trkpt><trkpt lat="42.3116052" lon="13.2860079"><ele>777.0</ele><time>2026-05-02T16:54:25.274Z</time></trkpt><trkpt lat="42.3117111" lon="13.2860892"><ele>779.0</ele><time>2026-05-02T16:54:27.273Z</time></trkpt><trkpt lat="42.3117101" lon="13.2861782"><ele>781.0</ele><time>2026-05-02T16:54:28.262Z</time></trkpt><trkpt lat="42.3116774" lon="13.2862752"><ele>783.0000000000001</ele><time>2026-05-02T16:54:29.264Z</time></trkpt><trkpt lat="42.3116241" lon="13.2863771"><ele>785.0</ele><time>2026-05-02T16:54:30.276Z</time></trkpt><trkpt lat="42.311558" lon="13.2865141"><ele>786.5</ele><time>2026-05-02T16:54:31.275Z</time></trkpt><trkpt lat="42.3114803" lon="13.2866615"><ele>788.0</ele><time>2026-05-02T16:54:32.281Z</time></trkpt><trkpt lat="42.3113935" lon="13.2868219"><ele>789.5</ele><time>2026-05-02T16:54:33.28Z</time></trkpt><trkpt lat="42.311308" lon="13.2869842"><ele>791.0</ele><time>2026-05-02T16:54:34.277Z</time></trkpt><trkpt lat="42.3112102" lon="13.2871552"><ele>793.0</ele><time>2026-05-02T16:54:35.278Z</time></trkpt><trkpt lat="42.3111092" lon="13.287325"><ele>795.0</ele><time>2026-05-02T16:54:36.282Z</time></trkpt><trkpt lat="42.3109893" lon="13.2874876"><ele>797.0</ele><time>2026-05-02T16:54:37.279Z</time></trkpt><trkpt lat="42.3108684" lon="13.2876296"><ele>797.0</ele><time>2026-05-02T16:54:38.274Z</time></trkpt><trkpt lat="42.3107164" lon="13.2877649"><ele>797.0</ele><time>2026-05-02T16:54:39.274Z</time></trkpt><trkpt lat="42.3105758" lon="13.2878964"><ele>797.0</ele><time>2026-05-02T16:54:40.282Z</time></trkpt><trkpt lat="42.3104295" lon="13.2880362"><ele>797.25</ele><time>2026-05-02T16:54:41.278Z</time></trkpt><trkpt lat="42.3103007" lon="13.28817"><ele>797.5</ele><time>2026-05-02T16:54:42.276Z</time></trkpt><trkpt lat="42.3101976" lon="13.2882864"><ele>797.75</ele><time>2026-05-02T16:54:43.298Z</time></trkpt><trkpt lat="42.3100956" lon="13.2884037"><ele>798.0</ele><time>2026-05-02T16:54:44.356Z</time></trkpt><trkpt lat="42.3100073" lon="13.2885061"><ele>798.0</ele><time>2026-05-02T16:54:45.372Z</time></trkpt><trkpt lat="42.3099203" lon="13.2885983"><ele>798.0</ele><time>2026-05-02T16:54:46.382Z</time></trkpt><trkpt lat="42.3098415" lon="13.2886782"><ele>798.0</ele><time>2026-05-02T16:54:47.366Z</time></trkpt><trkpt lat="42.3097688" lon="13.2887617"><ele>798.0</ele><time>2026-05-02T16:54:48.373Z</time></trkpt><trkpt lat="42.309688" lon="13.2888573"><ele>798.0</ele><time>2026-05-02T16:54:49.366Z</time></trkpt><trkpt lat="42.3095997" lon="13.28896"><ele>798.0</ele><time>2026-05-02T16:54:50.379Z</time></trkpt><trkpt lat="42.3095126" lon="13.2890562"><ele>798.0</ele><time>2026-05-02T16:54:51.373Z</time></trkpt><trkpt lat="42.3094398" lon="13.2891305"><ele>798.0</ele><time>2026-05-02T16:54:52.368Z</time></trkpt><trkpt lat="42.3093885" lon="13.2891823"><ele>798.0</ele><time>2026-05-02T16:54:53.369Z</time></trkpt><trkpt lat="42.309328" lon="13.2892455"><ele>798.0</ele><time>2026-05-02T16:54:55.372Z</time></trkpt><trkpt lat="42.3092672" lon="13.2893132"><ele>798.0</ele><time>2026-05-02T16:54:59.384Z</time></trkpt><trkpt lat="42.3092214" lon="13.2893799"><ele>798.0</ele><time>2026-05-02T16:55:01.38Z</time></trkpt><trkpt lat="42.3091556" lon="13.2894631"><ele>798.0</ele><time>2026-05-02T16:55:03.381Z</time></trkpt><trkpt lat="42.3090841" lon="13.2895434"><ele>798.0</ele><time>2026-05-02T16:55:05.378Z</time></trkpt><trkpt lat="42.3089936" lon="13.2896349"><ele>798.0</ele><time>2026-05-02T16:55:07.367Z</time></trkpt><trkpt lat="42.3089383" lon="13.2896887"><ele>798.0</ele><time>2026-05-02T16:55:08.361Z</time></trkpt><trkpt lat="42.3088512" lon="13.289792"><ele>798.6666666666666</ele><time>2026-05-02T16:55:10.379Z</time></trkpt><trkpt lat="42.3088119" lon="13.2898935"><ele>799.3333333333333</ele><time>2026-05-02T16:55:12.371Z</time></trkpt><trkpt lat="42.3088275" lon="13.2900104"><ele>800.0</ele><time>2026-05-02T16:55:14.382Z</time></trkpt><trkpt lat="42.3088275" lon="13.2901064"><ele>800.6666666666666</ele><time>2026-05-02T16:55:15.282Z</time></trkpt><trkpt lat="42.3088678" lon="13.2901836"><ele>801.3333333333333</ele><time>2026-05-02T16:55:16.288Z</time></trkpt><trkpt lat="42.3089192" lon="13.2902566"><ele>802.0</ele><time>2026-05-02T16:55:17.284Z</time></trkpt><trkpt lat="42.3089783" lon="13.2903343"><ele>801.9999999999999</ele><time>2026-05-02T16:55:18.285Z</time></trkpt><trkpt lat="42.3090288" lon="13.2904139"><ele>802.0</ele><time>2026-05-02T16:55:19.281Z</time></trkpt><trkpt lat="42.309078" lon="13.2904931"><ele>802.0</ele><time>2026-05-02T16:55:20.279Z</time></trkpt><trkpt lat="42.3091193" lon="13.2905624"><ele>802.0</ele><time>2026-05-02T16:55:21.269Z</time></trkpt><trkpt lat="42.309172" lon="13.2906542"><ele>801.9999999999999</ele><time>2026-05-02T16:55:23.271Z</time></trkpt><trkpt lat="42.3091791" lon="13.2907858"><ele>802.0</ele><time>2026-05-02T16:55:26.284Z</time></trkpt><trkpt lat="42.3091762" lon="13.2909442"><ele>802.0</ele><time>2026-05-02T16:55:28.284Z</time></trkpt><trkpt lat="42.3091992" lon="13.2910357"><ele>802.0</ele><time>2026-05-02T16:55:29.277Z</time></trkpt><trkpt lat="42.3092227" lon="13.2911236"><ele>802.0</ele><time>2026-05-02T16:55:30.287Z</time></trkpt><trkpt lat="42.3092466" lon="13.2912094"><ele>802.0</ele><time>2026-05-02T16:55:31.286Z</time></trkpt><trkpt lat="42.3092714" lon="13.2913116"><ele>802.0</ele><time>2026-05-02T16:55:32.28Z</time></trkpt><trkpt lat="42.3092962" lon="13.2914094"><ele>802.0</ele><time>2026-05-02T16:55:33.289Z</time></trkpt><trkpt lat="42.3093211" lon="13.2915119"><ele>802.0</ele><time>2026-05-02T16:55:34.282Z</time></trkpt><trkpt lat="42.3093397" lon="13.2916168"><ele>801.7142857142858</ele><time>2026-05-02T16:55:35.286Z</time></trkpt><trkpt lat="42.3093586" lon="13.2917185"><ele>801.4285714285714</ele><time>2026-05-02T16:55:36.283Z</time></trkpt><trkpt lat="42.3093745" lon="13.2918044"><ele>801.1428571428571</ele><time>2026-05-02T16:55:37.278Z</time></trkpt><trkpt lat="42.3093975" lon="13.2918972"><ele>800.8571428571429</ele><time>2026-05-02T16:55:38.289Z</time></trkpt><trkpt lat="42.3094113" lon="13.2919888"><ele>800.5714285714286</ele><time>2026-05-02T16:55:39.279Z</time></trkpt><trkpt lat="42.3094199" lon="13.2920952"><ele>800.2857142857143</ele><time>2026-05-02T16:55:40.29Z</time></trkpt><trkpt lat="42.3094174" lon="13.2921867"><ele>800.0</ele><time>2026-05-02T16:55:41.268Z</time></trkpt><trkpt lat="42.3094173" lon="13.2922948"><ele>799.6666666666667</ele><time>2026-05-02T16:55:43.281Z</time></trkpt><trkpt lat="42.3094265" lon="13.2924325"><ele>799.3333333333334</ele><time>2026-05-02T16:55:45.281Z</time></trkpt><trkpt lat="42.309448" lon="13.2925175"><ele>799.0</ele><time>2026-05-02T16:55:46.272Z</time></trkpt><trkpt lat="42.3094737" lon="13.2926082"><ele>798.6666666666667</ele><time>2026-05-02T16:55:47.281Z</time></trkpt><trkpt lat="42.309506" lon="13.2926983"><ele>798.3333333333334</ele><time>2026-05-02T16:55:48.281Z</time></trkpt><trkpt lat="42.3095322" lon="13.2928126"><ele>798.0</ele><time>2026-05-02T16:55:49.28Z</time></trkpt><trkpt lat="42.3095491" lon="13.2929287"><ele>798.0</ele><time>2026-05-02T16:55:50.286Z</time></trkpt><trkpt lat="42.3095576" lon="13.2930532"><ele>798.0</ele><time>2026-05-02T16:55:51.277Z</time></trkpt><trkpt lat="42.3095593" lon="13.2931534"><ele>798.0</ele><time>2026-05-02T16:55:52.282Z</time></trkpt><trkpt lat="42.30956" lon="13.2932694"><ele>798.0</ele><time>2026-05-02T16:55:53.277Z</time></trkpt><trkpt lat="42.3095655" lon="13.2933851"><ele>798.0</ele><time>2026-05-02T16:55:54.277Z</time></trkpt><trkpt lat="42.3095754" lon="13.2934864"><ele>798.0</ele><time>2026-05-02T16:55:55.271Z</time></trkpt><trkpt lat="42.3095759" lon="13.2936014"><ele>797.0</ele><time>2026-05-02T16:55:57.276Z</time></trkpt><trkpt lat="42.3096268" lon="13.2936906"><ele>796.0</ele><time>2026-05-02T16:55:59.285Z</time></trkpt><trkpt lat="42.3097136" lon="13.2936956"><ele>795.0</ele><time>2026-05-02T16:56:01.29Z</time></trkpt><trkpt lat="42.3098093" lon="13.2936161"><ele>794.0</ele><time>2026-05-02T16:56:03.276Z</time></trkpt><trkpt lat="42.309913" lon="13.2935432"><ele>793.0</ele><time>2026-05-02T16:56:05.273Z</time></trkpt><trkpt lat="42.3099775" lon="13.2935446"><ele>790.8</ele><time>2026-05-02T16:56:06.28Z</time></trkpt><trkpt lat="42.3100689" lon="13.293628"><ele>788.5999999999999</ele><time>2026-05-02T16:56:08.28Z</time></trkpt><trkpt lat="42.3100925" lon="13.2937087"><ele>786.4000000000001</ele><time>2026-05-02T16:56:09.279Z</time></trkpt><trkpt lat="42.3101251" lon="13.2938365"><ele>784.2</ele><time>2026-05-02T16:56:11.277Z</time></trkpt><trkpt lat="42.310078" lon="13.2939454"><ele>782.0</ele><time>2026-05-02T16:56:13.294Z</time></trkpt><trkpt lat="42.3100134" lon="13.2940394"><ele>782.2</ele><time>2026-05-02T16:56:15.29Z</time></trkpt><trkpt lat="42.3098882" lon="13.2941009"><ele>782.4000000000001</ele><time>2026-05-02T16:56:17.276Z</time></trkpt><trkpt lat="42.3098075" lon="13.2941241"><ele>782.5999999999999</ele><time>2026-05-02T16:56:18.28Z</time></trkpt><trkpt lat="42.309723" lon="13.2941344"><ele>782.8</ele><time>2026-05-02T16:56:19.279Z</time></trkpt><trkpt lat="42.3096401" lon="13.2941492"><ele>783.0</ele><time>2026-05-02T16:56:20.281Z</time></trkpt><trkpt lat="42.3095719" lon="13.2941741"><ele>783.0</ele><time>2026-05-02T16:56:21.278Z</time></trkpt><trkpt lat="42.3095085" lon="13.2942024"><ele>783.0</ele><time>2026-05-02T16:56:22.271Z</time></trkpt><trkpt lat="42.3094562" lon="13.2942498"><ele>783.0</ele><time>2026-05-02T16:56:23.273Z</time></trkpt><trkpt lat="42.3094148" lon="13.294394"><ele>783.0</ele><time>2026-05-02T16:56:25.277Z</time></trkpt><trkpt lat="42.3094274" lon="13.2944972"><ele>783.0</ele><time>2026-05-02T16:56:26.282Z</time></trkpt><trkpt lat="42.3094546" lon="13.2946004"><ele>783.0</ele><time>2026-05-02T16:56:27.277Z</time></trkpt><trkpt lat="42.3094888" lon="13.2946772"><ele>782.1666666666666</ele><time>2026-05-02T16:56:28.277Z</time></trkpt><trkpt lat="42.3095034" lon="13.2947611"><ele>781.3333333333333</ele><time>2026-05-02T16:56:29.277Z</time></trkpt><trkpt lat="42.309507" lon="13.2948538"><ele>780.5</ele><time>2026-05-02T16:56:30.273Z</time></trkpt><trkpt lat="42.3094815" lon="13.2949662"><ele>779.6666666666666</ele><time>2026-05-02T16:56:31.276Z</time></trkpt><trkpt lat="42.3094436" lon="13.2950794"><ele>778.8333333333333</ele><time>2026-05-02T16:56:32.27Z</time></trkpt><trkpt lat="42.3094005" lon="13.2951889"><ele>778.0</ele><time>2026-05-02T16:56:33.271Z</time></trkpt><trkpt lat="42.3093508" lon="13.2952984"><ele>777.9999999999999</ele><time>2026-05-02T16:56:34.274Z</time></trkpt><trkpt lat="42.3092975" lon="13.2954199"><ele>778.0</ele><time>2026-05-02T16:56:35.275Z</time></trkpt><trkpt lat="42.309251" lon="13.2955268"><ele>778.0</ele><time>2026-05-02T16:56:36.278Z</time></trkpt><trkpt lat="42.3092164" lon="13.295634"><ele>778.0</ele><time>2026-05-02T16:56:37.271Z</time></trkpt><trkpt lat="42.3091773" lon="13.2957324"><ele>777.9999999999999</ele><time>2026-05-02T16:56:38.27Z</time></trkpt><trkpt lat="42.3091405" lon="13.2958334"><ele>778.0</ele><time>2026-05-02T16:56:39.273Z</time></trkpt><trkpt lat="42.309104" lon="13.2959383"><ele>778.5999999999999</ele><time>2026-05-02T16:56:40.266Z</time></trkpt><trkpt lat="42.3090395" lon="13.2960462"><ele>779.1999999999999</ele><time>2026-05-02T16:56:41.272Z</time></trkpt><trkpt lat="42.3089732" lon="13.2961597"><ele>779.8</ele><time>2026-05-02T16:56:42.27Z</time></trkpt><trkpt lat="42.3089009" lon="13.2962828"><ele>780.4</ele><time>2026-05-02T16:56:43.272Z</time></trkpt><trkpt lat="42.3088343" lon="13.296418"><ele>781.0</ele><time>2026-05-02T16:56:44.264Z</time></trkpt><trkpt lat="42.3087689" lon="13.2965651"><ele>779.5999999999999</ele><time>2026-05-02T16:56:45.274Z</time></trkpt><trkpt lat="42.3087151" lon="13.2967089"><ele>778.2</ele><time>2026-05-02T16:56:46.268Z</time></trkpt><trkpt lat="42.308668" lon="13.2968426"><ele>776.8</ele><time>2026-05-02T16:56:47.264Z</time></trkpt><trkpt lat="42.3086236" lon="13.2969638"><ele>775.4000000000001</ele><time>2026-05-02T16:56:48.265Z</time></trkpt><trkpt lat="42.3085726" lon="13.2970732"><ele>774.0</ele><time>2026-05-02T16:56:49.259Z</time></trkpt><trkpt lat="42.3085111" lon="13.297182"><ele>773.5</ele><time>2026-05-02T16:56:50.266Z</time></trkpt><trkpt lat="42.308451" lon="13.2972976"><ele>773.0</ele><time>2026-05-02T16:56:51.266Z</time></trkpt><trkpt lat="42.3083921" lon="13.2974035"><ele>772.5</ele><time>2026-05-02T16:56:52.271Z</time></trkpt><trkpt lat="42.3083393" lon="13.29749"><ele>772.0</ele><time>2026-05-02T16:56:53.264Z</time></trkpt><trkpt lat="42.3083084" lon="13.2975781"><ele>771.5</ele><time>2026-05-02T16:56:54.263Z</time></trkpt><trkpt lat="42.3082985" lon="13.2976786"><ele>771.0</ele><time>2026-05-02T16:56:55.26Z</time></trkpt><trkpt lat="42.3083062" lon="13.2977914"><ele>771.0</ele><time>2026-05-02T16:56:56.277Z</time></trkpt><trkpt lat="42.3083266" lon="13.2979281"><ele>771.0</ele><time>2026-05-02T16:56:57.284Z</time></trkpt><trkpt lat="42.3083434" lon="13.2980429"><ele>771.0</ele><time>2026-05-02T16:56:58.276Z</time></trkpt><trkpt lat="42.3083522" lon="13.2981341"><ele>771.0</ele><time>2026-05-02T16:56:59.269Z</time></trkpt><trkpt lat="42.3083677" lon="13.2982335"><ele>771.0</ele><time>2026-05-02T16:57:01.278Z</time></trkpt><trkpt lat="42.3083672" lon="13.2983355"><ele>771.0</ele><time>2026-05-02T16:57:04.278Z</time></trkpt><trkpt lat="42.3082745" lon="13.2984252"><ele>770.5</ele><time>2026-05-02T16:57:06.271Z</time></trkpt><trkpt lat="42.308208" lon="13.2984737"><ele>770.0</ele><time>2026-05-02T16:57:07.294Z</time></trkpt><trkpt lat="42.308147" lon="13.2985349"><ele>769.5</ele><time>2026-05-02T16:57:08.277Z</time></trkpt><trkpt lat="42.308074" lon="13.2985901"><ele>769.0</ele><time>2026-05-02T16:57:09.279Z</time></trkpt><trkpt lat="42.3079937" lon="13.2986002"><ele>768.5</ele><time>2026-05-02T16:57:10.279Z</time></trkpt><trkpt lat="42.3079088" lon="13.2985965"><ele>768.0</ele><time>2026-05-02T16:57:11.278Z</time></trkpt><trkpt lat="42.3078227" lon="13.2986003"><ele>769.1666666666666</ele><time>2026-05-02T16:57:12.275Z</time></trkpt><trkpt lat="42.3077389" lon="13.2986069"><ele>770.3333333333333</ele><time>2026-05-02T16:57:13.269Z</time></trkpt><trkpt lat="42.3076626" lon="13.2986487"><ele>771.5</ele><time>2026-05-02T16:57:14.288Z</time></trkpt><trkpt lat="42.3075957" lon="13.2987035"><ele>772.6666666666666</ele><time>2026-05-02T16:57:15.285Z</time></trkpt><trkpt lat="42.3075445" lon="13.2987815"><ele>773.8333333333333</ele><time>2026-05-02T16:57:16.292Z</time></trkpt><trkpt lat="42.3074967" lon="13.2989339"><ele>775.0</ele><time>2026-05-02T16:57:18.281Z</time></trkpt><trkpt lat="42.3074873" lon="13.2990236"><ele>775.1666666666666</ele><time>2026-05-02T16:57:19.279Z</time></trkpt><trkpt lat="42.3074818" lon="13.299126"><ele>775.3333333333333</ele><time>2026-05-02T16:57:20.284Z</time></trkpt><trkpt lat="42.3074223" lon="13.2992595"><ele>775.5</ele><time>2026-05-02T16:57:22.278Z</time></trkpt><trkpt lat="42.3073543" lon="13.2992947"><ele>775.6666666666667</ele><time>2026-05-02T16:57:23.28Z</time></trkpt><trkpt lat="42.3072702" lon="13.2993079"><ele>775.8333333333334</ele><time>2026-05-02T16:57:24.277Z</time></trkpt><trkpt lat="42.3071877" lon="13.2993088"><ele>776.0</ele><time>2026-05-02T16:57:25.284Z</time></trkpt><trkpt lat="42.3071205" lon="13.2993131"><ele>776.0</ele><time>2026-05-02T16:57:26.283Z</time></trkpt><trkpt lat="42.3070034" lon="13.2992708"><ele>776.0</ele><time>2026-05-02T16:57:28.282Z</time></trkpt><trkpt lat="42.3069375" lon="13.2992643"><ele>776.0</ele><time>2026-05-02T16:57:30.275Z</time></trkpt><trkpt lat="42.3068839" lon="13.299399"><ele>776.0</ele><time>2026-05-02T16:57:33.291Z</time></trkpt><trkpt lat="42.306815" lon="13.2994596"><ele>776.0</ele><time>2026-05-02T16:57:35.287Z</time></trkpt><trkpt lat="42.3067268" lon="13.2994551"><ele>776.0000000000001</ele><time>2026-05-02T16:57:37.282Z</time></trkpt><trkpt lat="42.306645" lon="13.2994574"><ele>776.0</ele><time>2026-05-02T16:57:39.278Z</time></trkpt><trkpt lat="42.3065901" lon="13.2995208"><ele>776.0</ele><time>2026-05-02T16:57:41.288Z</time></trkpt><trkpt lat="42.3065638" lon="13.2996319"><ele>776.0</ele><time>2026-05-02T16:57:43.286Z</time></trkpt><trkpt lat="42.3065125" lon="13.2997437"><ele>776.0000000000001</ele><time>2026-05-02T16:57:45.291Z</time></trkpt><trkpt lat="42.306433" lon="13.2998029"><ele>776.0</ele><time>2026-05-02T16:57:47.287Z</time></trkpt><trkpt lat="42.3063344" lon="13.2998391"><ele>776.1999999999999</ele><time>2026-05-02T16:57:49.281Z</time></trkpt><trkpt lat="42.3062399" lon="13.2999561"><ele>776.4</ele><time>2026-05-02T16:57:51.286Z</time></trkpt><trkpt lat="42.3061868" lon="13.3000118"><ele>776.6</ele><time>2026-05-02T16:57:52.279Z</time></trkpt><trkpt lat="42.3061008" lon="13.3000311"><ele>776.8</ele><time>2026-05-02T16:57:54.299Z</time></trkpt><trkpt lat="42.30599" lon="13.2999908"><ele>777.0</ele><time>2026-05-02T16:57:56.283Z</time></trkpt><trkpt lat="42.3058749" lon="13.3000179"><ele>777.0</ele><time>2026-05-02T16:57:58.284Z</time></trkpt><trkpt lat="42.3058118" lon="13.3000677"><ele>777.0</ele><time>2026-05-02T16:57:59.275Z</time></trkpt><trkpt lat="42.3057382" lon="13.3001323"><ele>777.0</ele><time>2026-05-02T16:58:00.283Z</time></trkpt><trkpt lat="42.3056574" lon="13.3001962"><ele>777.0</ele><time>2026-05-02T16:58:01.284Z</time></trkpt><trkpt lat="42.3055695" lon="13.3002696"><ele>777.0</ele><time>2026-05-02T16:58:02.282Z</time></trkpt><trkpt lat="42.3054975" lon="13.3003436"><ele>777.0</ele><time>2026-05-02T16:58:03.279Z</time></trkpt><trkpt lat="42.3054402" lon="13.3004204"><ele>777.3333333333334</ele><time>2026-05-02T16:58:04.276Z</time></trkpt><trkpt lat="42.3053847" lon="13.3004707"><ele>777.6666666666667</ele><time>2026-05-02T16:58:05.285Z</time></trkpt><trkpt lat="42.305317" lon="13.3004841"><ele>778.0</ele><time>2026-05-02T16:58:06.271Z</time></trkpt><trkpt lat="42.3052361" lon="13.3004911"><ele>778.3333333333334</ele><time>2026-05-02T16:58:07.267Z</time></trkpt><trkpt lat="42.3051716" lon="13.3005123"><ele>778.6666666666667</ele><time>2026-05-02T16:58:08.275Z</time></trkpt><trkpt lat="42.3050721" lon="13.3006212"><ele>779.0</ele><time>2026-05-02T16:58:10.274Z</time></trkpt><trkpt lat="42.3050138" lon="13.300689"><ele>779.0</ele><time>2026-05-02T16:58:11.274Z</time></trkpt><trkpt lat="42.3049427" lon="13.3007424"><ele>779.0</ele><time>2026-05-02T16:58:12.27Z</time></trkpt><trkpt lat="42.3048448" lon="13.3008054"><ele>779.0</ele><time>2026-05-02T16:58:13.291Z</time></trkpt><trkpt lat="42.304752" lon="13.3008795"><ele>779.0</ele><time>2026-05-02T16:58:14.289Z</time></trkpt><trkpt lat="42.304664" lon="13.300926"><ele>779.0</ele><time>2026-05-02T16:58:15.275Z</time></trkpt><trkpt lat="42.3045878" lon="13.3009582"><ele>779.25</ele><time>2026-05-02T16:58:16.279Z</time></trkpt><trkpt lat="42.3044708" lon="13.3009691"><ele>779.5</ele><time>2026-05-02T16:58:18.267Z</time></trkpt><trkpt lat="42.304355" lon="13.3009578"><ele>779.75</ele><time>2026-05-02T16:58:20.27Z</time></trkpt><trkpt lat="42.3042554" lon="13.3009452"><ele>780.0</ele><time>2026-05-02T16:58:22.266Z</time></trkpt><trkpt lat="42.3041494" lon="13.3010226"><ele>780.0</ele><time>2026-05-02T16:58:24.263Z</time></trkpt><trkpt lat="42.3040974" lon="13.3010901"><ele>780.0</ele><time>2026-05-02T16:58:25.27Z</time></trkpt><trkpt lat="42.3040461" lon="13.3011698"><ele>780.0</ele><time>2026-05-02T16:58:26.261Z</time></trkpt><trkpt lat="42.3039924" lon="13.3012535"><ele>780.0</ele><time>2026-05-02T16:58:27.273Z</time></trkpt><trkpt lat="42.3039301" lon="13.3013251"><ele>780.0</ele><time>2026-05-02T16:58:28.267Z</time></trkpt><trkpt lat="42.3038716" lon="13.3013868"><ele>780.0</ele><time>2026-05-02T16:58:29.261Z</time></trkpt><trkpt lat="42.3038068" lon="13.3014284"><ele>780.8333333333334</ele><time>2026-05-02T16:58:30.261Z</time></trkpt><trkpt lat="42.3037431" lon="13.3014472"><ele>781.6666666666667</ele><time>2026-05-02T16:58:31.27Z</time></trkpt><trkpt lat="42.3036766" lon="13.3014252"><ele>782.5</ele><time>2026-05-02T16:58:32.26Z</time></trkpt><trkpt lat="42.3036001" lon="13.3014035"><ele>783.3333333333334</ele><time>2026-05-02T16:58:33.261Z</time></trkpt><trkpt lat="42.3035311" lon="13.3013911"><ele>784.1666666666667</ele><time>2026-05-02T16:58:34.261Z</time></trkpt><trkpt lat="42.3034179" lon="13.3014547"><ele>785.0</ele><time>2026-05-02T16:58:36.267Z</time></trkpt><trkpt lat="42.3033175" lon="13.3015412"><ele>785.0</ele><time>2026-05-02T16:58:38.263Z</time></trkpt><trkpt lat="42.3032069" lon="13.3015492"><ele>785.0</ele><time>2026-05-02T16:58:40.262Z</time></trkpt><trkpt lat="42.3030795" lon="13.3015365"><ele>785.0</ele><time>2026-05-02T16:58:42.247Z</time></trkpt><trkpt lat="42.3029948" lon="13.3015379"><ele>785.0</ele><time>2026-05-02T16:58:43.263Z</time></trkpt><trkpt lat="42.3029091" lon="13.3015643"><ele>785.0</ele><time>2026-05-02T16:58:44.27Z</time></trkpt><trkpt lat="42.3028337" lon="13.3015933"><ele>785.3333333333334</ele><time>2026-05-02T16:58:45.267Z</time></trkpt><trkpt lat="42.3027614" lon="13.3016199"><ele>785.6666666666667</ele><time>2026-05-02T16:58:46.267Z</time></trkpt><trkpt lat="42.3026944" lon="13.301646"><ele>786.0</ele><time>2026-05-02T16:58:47.258Z</time></trkpt><trkpt lat="42.3026304" lon="13.301672"><ele>786.3333333333333</ele><time>2026-05-02T16:58:48.266Z</time></trkpt><trkpt lat="42.3025062" lon="13.3016735"><ele>786.6666666666666</ele><time>2026-05-02T16:58:50.268Z</time></trkpt><trkpt lat="42.3024455" lon="13.3016462"><ele>787.0</ele><time>2026-05-02T16:58:51.265Z</time></trkpt><trkpt lat="42.3023351" lon="13.3016565"><ele>787.0</ele><time>2026-05-02T16:58:53.27Z</time></trkpt><trkpt lat="42.302223" lon="13.3017507"><ele>787.0</ele><time>2026-05-02T16:58:55.26Z</time></trkpt><trkpt lat="42.302145" lon="13.3018115"><ele>787.0</ele><time>2026-05-02T16:58:56.267Z</time></trkpt><trkpt lat="42.3020661" lon="13.3018468"><ele>787.0</ele><time>2026-05-02T16:58:57.265Z</time></trkpt><trkpt lat="42.3019809" lon="13.3018785"><ele>787.0</ele><time>2026-05-02T16:58:59.262Z</time></trkpt><trkpt lat="42.3019159" lon="13.3019799"><ele>787.0</ele><time>2026-05-02T16:59:02.277Z</time></trkpt><trkpt lat="42.3018379" lon="13.3021342"><ele>787.0</ele><time>2026-05-02T16:59:04.263Z</time></trkpt><trkpt lat="42.3017941" lon="13.3022012"><ele>787.0</ele><time>2026-05-02T16:59:05.254Z</time></trkpt><trkpt lat="42.3017615" lon="13.3022805"><ele>787.0</ele><time>2026-05-02T16:59:07.262Z</time></trkpt><trkpt lat="42.3018424" lon="13.3022762"><ele>787.0</ele><time>2026-05-02T16:59:11.27Z</time></trkpt><trkpt lat="42.3019469" lon="13.3023202"><ele>787.9999999999999</ele><time>2026-05-02T16:59:13.268Z</time></trkpt><trkpt lat="42.3019969" lon="13.3024035"><ele>789.0</ele><time>2026-05-02T16:59:14.271Z</time></trkpt><trkpt lat="42.3020545" lon="13.3025091"><ele>790.0</ele><time>2026-05-02T16:59:15.257Z</time></trkpt><trkpt lat="42.3021027" lon="13.3026069"><ele>791.0</ele><time>2026-05-02T16:59:16.259Z</time></trkpt><trkpt lat="42.3021515" lon="13.3026746"><ele>791.9999999999999</ele><time>2026-05-02T16:59:17.261Z</time></trkpt><trkpt lat="42.3022242" lon="13.3027092"><ele>793.0</ele><time>2026-05-02T16:59:18.266Z</time></trkpt><trkpt lat="42.3023143" lon="13.3027272"><ele>793.0</ele><time>2026-05-02T16:59:19.268Z</time></trkpt><trkpt lat="42.302415" lon="13.3027533"><ele>793.0</ele><time>2026-05-02T16:59:20.269Z</time></trkpt><trkpt lat="42.3025171" lon="13.3027898"><ele>793.0</ele><time>2026-05-02T16:59:21.264Z</time></trkpt><trkpt lat="42.302628" lon="13.3028372"><ele>793.0</ele><time>2026-05-02T16:59:22.261Z</time></trkpt><trkpt lat="42.3027324" lon="13.3028843"><ele>793.0</ele><time>2026-05-02T16:59:23.257Z</time></trkpt><trkpt lat="42.3028348" lon="13.3029097"><ele>793.0</ele><time>2026-05-02T16:59:24.267Z</time></trkpt><trkpt lat="42.3029596" lon="13.3028961"><ele>793.0</ele><time>2026-05-02T16:59:25.263Z</time></trkpt><trkpt lat="42.3030924" lon="13.3028619"><ele>793.0</ele><time>2026-05-02T16:59:26.267Z</time></trkpt><trkpt lat="42.3032332" lon="13.3028236"><ele>793.0</ele><time>2026-05-02T16:59:27.264Z</time></trkpt><trkpt lat="42.3033757" lon="13.3027871"><ele>793.0</ele><time>2026-05-02T16:59:28.264Z</time></trkpt><trkpt lat="42.3034987" lon="13.3027492"><ele>793.0</ele><time>2026-05-02T16:59:29.263Z</time></trkpt><trkpt lat="42.3036029" lon="13.3027189"><ele>793.0</ele><time>2026-05-02T16:59:30.263Z</time></trkpt><trkpt lat="42.3037316" lon="13.3027028"><ele>793.0</ele><time>2026-05-02T16:59:31.268Z</time></trkpt><trkpt lat="42.3038614" lon="13.3027111"><ele>794.3333333333333</ele><time>2026-05-02T16:59:32.266Z</time></trkpt><trkpt lat="42.3040133" lon="13.3027264"><ele>795.6666666666667</ele><time>2026-05-02T16:59:33.259Z</time></trkpt><trkpt lat="42.3041708" lon="13.302758"><ele>797.0</ele><time>2026-05-02T16:59:34.262Z</time></trkpt><trkpt lat="42.3043273" lon="13.3027872"><ele>797.0</ele><time>2026-05-02T16:59:35.265Z</time></trkpt><trkpt lat="42.3044705" lon="13.3028106"><ele>797.0</ele><time>2026-05-02T16:59:36.264Z</time></trkpt><trkpt lat="42.3046131" lon="13.3027977"><ele>797.0</ele><time>2026-05-02T16:59:37.262Z</time></trkpt><trkpt lat="42.3047714" lon="13.3027204"><ele>798.75</ele><time>2026-05-02T16:59:38.265Z</time></trkpt><trkpt lat="42.3049238" lon="13.3026395"><ele>800.5</ele><time>2026-05-02T16:59:39.274Z</time></trkpt><trkpt lat="42.3050632" lon="13.3025692"><ele>802.25</ele><time>2026-05-02T16:59:40.263Z</time></trkpt><trkpt lat="42.3051945" lon="13.302528"><ele>804.0</ele><time>2026-05-02T16:59:41.264Z</time></trkpt><trkpt lat="42.3052806" lon="13.3025042"><ele>804.0</ele><time>2026-05-02T16:59:42.267Z</time></trkpt><trkpt lat="42.305344" lon="13.3024698"><ele>804.0</ele><time>2026-05-02T16:59:43.266Z</time></trkpt><trkpt lat="42.3054164" lon="13.3024453"><ele>804.0</ele><time>2026-05-02T16:59:44.265Z</time></trkpt><trkpt lat="42.3055211" lon="13.3024292"><ele>804.0</ele><time>2026-05-02T16:59:45.261Z</time></trkpt><trkpt lat="42.3056272" lon="13.3024163"><ele>804.0</ele><time>2026-05-02T16:59:46.273Z</time></trkpt><trkpt lat="42.3057458" lon="13.3023904"><ele>804.6666666666667</ele><time>2026-05-02T16:59:47.272Z</time></trkpt><trkpt lat="42.3058818" lon="13.3023569"><ele>805.3333333333334</ele><time>2026-05-02T16:59:48.27Z</time></trkpt><trkpt lat="42.3060323" lon="13.3023119"><ele>806.0</ele><time>2026-05-02T16:59:49.265Z</time></trkpt><trkpt lat="42.3061915" lon="13.3022535"><ele>803.0</ele><time>2026-05-02T16:59:50.273Z</time></trkpt><trkpt lat="42.3063615" lon="13.3021878"><ele>800.0</ele><time>2026-05-02T16:59:51.272Z</time></trkpt><trkpt lat="42.3065354" lon="13.3021213"><ele>797.0</ele><time>2026-05-02T16:59:52.278Z</time></trkpt><trkpt lat="42.3067074" lon="13.3020322"><ele>797.0</ele><time>2026-05-02T16:59:53.269Z</time></trkpt><trkpt lat="42.3068933" lon="13.3019537"><ele>797.0</ele><time>2026-05-02T16:59:54.276Z</time></trkpt><trkpt lat="42.3070926" lon="13.3018762"><ele>797.0</ele><time>2026-05-02T16:59:55.259Z</time></trkpt><trkpt lat="42.3072881" lon="13.3018421"><ele>798.0</ele><time>2026-05-02T16:59:56.257Z</time></trkpt><trkpt lat="42.3074819" lon="13.3018188"><ele>799.0</ele><time>2026-05-02T16:59:57.276Z</time></trkpt><trkpt lat="42.3076675" lon="13.3017697"><ele>800.0</ele><time>2026-05-02T16:59:58.263Z</time></trkpt><trkpt lat="42.3078407" lon="13.3017052"><ele>800.0</ele><time>2026-05-02T16:59:59.27Z</time></trkpt><trkpt lat="42.3080118" lon="13.3016291"><ele>800.0</ele><time>2026-05-02T17:00:00.264Z</time></trkpt><trkpt lat="42.3081575" lon="13.3015327"><ele>800.0</ele><time>2026-05-02T17:00:01.268Z</time></trkpt><trkpt lat="42.3082754" lon="13.3013668"><ele>799.0</ele><time>2026-05-02T17:00:02.269Z</time></trkpt><trkpt lat="42.3083861" lon="13.3011902"><ele>798.0</ele><time>2026-05-02T17:00:03.262Z</time></trkpt><trkpt lat="42.3085056" lon="13.3010204"><ele>797.0</ele><time>2026-05-02T17:00:04.268Z</time></trkpt><trkpt lat="42.3086343" lon="13.3008716"><ele>797.0</ele><time>2026-05-02T17:00:05.261Z</time></trkpt><trkpt lat="42.3087586" lon="13.3007349"><ele>797.0</ele><time>2026-05-02T17:00:06.259Z</time></trkpt><trkpt lat="42.3088663" lon="13.3006214"><ele>797.0</ele><time>2026-05-02T17:00:07.263Z</time></trkpt><trkpt lat="42.308991" lon="13.3005095"><ele>797.0</ele><time>2026-05-02T17:00:08.269Z</time></trkpt><trkpt lat="42.3091318" lon="13.3004387"><ele>796.3333333333334</ele><time>2026-05-02T17:00:09.258Z</time></trkpt><trkpt lat="42.3092802" lon="13.3003624"><ele>795.6666666666667</ele><time>2026-05-02T17:00:10.266Z</time></trkpt><trkpt lat="42.3094516" lon="13.300298"><ele>795.0</ele><time>2026-05-02T17:00:11.271Z</time></trkpt><trkpt lat="42.3096022" lon="13.3002432"><ele>798.25</ele><time>2026-05-02T17:00:12.267Z</time></trkpt><trkpt lat="42.3097579" lon="13.3002102"><ele>801.5</ele><time>2026-05-02T17:00:13.274Z</time></trkpt><trkpt lat="42.3099023" lon="13.3001681"><ele>804.75</ele><time>2026-05-02T17:00:14.273Z</time></trkpt><trkpt lat="42.3100279" lon="13.3001203"><ele>808.0</ele><time>2026-05-02T17:00:15.258Z</time></trkpt><trkpt lat="42.3101216" lon="13.300015"><ele>808.0</ele><time>2026-05-02T17:00:16.296Z</time></trkpt><trkpt lat="42.3102145" lon="13.2998806"><ele>808.0</ele><time>2026-05-02T17:00:17.279Z</time></trkpt><trkpt lat="42.3102748" lon="13.2997426"><ele>808.0</ele><time>2026-05-02T17:00:18.284Z</time></trkpt><trkpt lat="42.3103215" lon="13.2995887"><ele>808.0</ele><time>2026-05-02T17:00:19.292Z</time></trkpt><trkpt lat="42.3103969" lon="13.2994661"><ele>808.5</ele><time>2026-05-02T17:00:20.354Z</time></trkpt><trkpt lat="42.3104713" lon="13.2993622"><ele>809.0</ele><time>2026-05-02T17:00:21.353Z</time></trkpt><trkpt lat="42.3105608" lon="13.2992616"><ele>809.5</ele><time>2026-05-02T17:00:22.357Z</time></trkpt><trkpt lat="42.3106593" lon="13.2991707"><ele>810.0</ele><time>2026-05-02T17:00:23.345Z</time></trkpt><trkpt lat="42.3107597" lon="13.299079"><ele>810.0</ele><time>2026-05-02T17:00:24.359Z</time></trkpt><trkpt lat="42.3108573" lon="13.2989876"><ele>810.0</ele><time>2026-05-02T17:00:25.351Z</time></trkpt><trkpt lat="42.3109533" lon="13.2989114"><ele>810.0</ele><time>2026-05-02T17:00:26.353Z</time></trkpt><trkpt lat="42.3110404" lon="13.2988477"><ele>810.0</ele><time>2026-05-02T17:00:27.364Z</time></trkpt><trkpt lat="42.3111428" lon="13.2988024"><ele>810.0</ele><time>2026-05-02T17:00:28.366Z</time></trkpt><trkpt lat="42.311217" lon="13.2987364"><ele>810.0</ele><time>2026-05-02T17:00:29.365Z</time></trkpt><trkpt lat="42.3112935" lon="13.2986716"><ele>810.0</ele><time>2026-05-02T17:00:30.377Z</time></trkpt><trkpt lat="42.3113784" lon="13.2986031"><ele>810.0</ele><time>2026-05-02T17:00:31.358Z</time></trkpt><trkpt lat="42.3114674" lon="13.2985397"><ele>810.0</ele><time>2026-05-02T17:00:32.376Z</time></trkpt><trkpt lat="42.3115608" lon="13.2984809"><ele>810.0</ele><time>2026-05-02T17:00:33.367Z</time></trkpt><trkpt lat="42.3116489" lon="13.2984273"><ele>810.4</ele><time>2026-05-02T17:00:34.377Z</time></trkpt><trkpt lat="42.3117338" lon="13.2983837"><ele>810.8</ele><time>2026-05-02T17:00:35.366Z</time></trkpt><trkpt lat="42.3118184" lon="13.2983419"><ele>811.2</ele><time>2026-05-02T17:00:36.375Z</time></trkpt><trkpt lat="42.3119036" lon="13.2982979"><ele>811.6</ele><time>2026-05-02T17:00:37.368Z</time></trkpt><trkpt lat="42.3119938" lon="13.2982523"><ele>812.0</ele><time>2026-05-02T17:00:38.371Z</time></trkpt><trkpt lat="42.3120879" lon="13.2982187"><ele>812.0000000000001</ele><time>2026-05-02T17:00:39.359Z</time></trkpt><trkpt lat="42.3121857" lon="13.298197"><ele>812.0</ele><time>2026-05-02T17:00:40.36Z</time></trkpt><trkpt lat="42.3122849" lon="13.2981851"><ele>812.0</ele><time>2026-05-02T17:00:41.354Z</time></trkpt><trkpt lat="42.312371" lon="13.2981794"><ele>812.0</ele><time>2026-05-02T17:00:42.351Z</time></trkpt><trkpt lat="42.3124514" lon="13.2981695"><ele>812.0000000000001</ele><time>2026-05-02T17:00:43.345Z</time></trkpt><trkpt lat="42.3125216" lon="13.2981509"><ele>812.0</ele><time>2026-05-02T17:00:44.355Z</time></trkpt><trkpt lat="42.3125939" lon="13.2981366"><ele>811.8333333333334</ele><time>2026-05-02T17:00:45.365Z</time></trkpt><trkpt lat="42.3126657" lon="13.2981278"><ele>811.6666666666667</ele><time>2026-05-02T17:00:46.365Z</time></trkpt><trkpt lat="42.3127552" lon="13.2981167"><ele>811.5</ele><time>2026-05-02T17:00:48.348Z</time></trkpt><trkpt lat="42.3128268" lon="13.2981183"><ele>811.3333333333333</ele><time>2026-05-02T17:00:50.374Z</time></trkpt><trkpt lat="42.3129341" lon="13.2981135"><ele>811.1666666666666</ele><time>2026-05-02T17:00:52.361Z</time></trkpt><trkpt lat="42.3130191" lon="13.298121"><ele>811.0</ele><time>2026-05-02T17:00:54.364Z</time></trkpt><trkpt lat="42.3131148" lon="13.2980808"><ele>810.4</ele><time>2026-05-02T17:00:56.35Z</time></trkpt><trkpt lat="42.3132278" lon="13.2980435"><ele>809.8</ele><time>2026-05-02T17:00:58.351Z</time></trkpt><trkpt lat="42.3133408" lon="13.2979954"><ele>809.1999999999999</ele><time>2026-05-02T17:01:00.363Z</time></trkpt><trkpt lat="42.3134312" lon="13.2979325"><ele>808.5999999999999</ele><time>2026-05-02T17:01:02.353Z</time></trkpt><trkpt lat="42.3135259" lon="13.2978623"><ele>808.0</ele><time>2026-05-02T17:01:04.345Z</time></trkpt><trkpt lat="42.313632" lon="13.2978047"><ele>808.0</ele><time>2026-05-02T17:01:06.359Z</time></trkpt><trkpt lat="42.3137014" lon="13.2977668"><ele>808.0</ele><time>2026-05-02T17:01:08.36Z</time></trkpt><trkpt lat="42.3137724" lon="13.2977295"><ele>808.0</ele><time>2026-05-02T17:01:10.376Z</time></trkpt><trkpt lat="42.3138722" lon="13.2976844"><ele>808.0</ele><time>2026-05-02T17:01:12.364Z</time></trkpt><trkpt lat="42.3139872" lon="13.2976567"><ele>808.0</ele><time>2026-05-02T17:01:14.363Z</time></trkpt><trkpt lat="42.3140611" lon="13.2977001"><ele>807.4999999999999</ele><time>2026-05-02T17:01:16.355Z</time></trkpt><trkpt lat="42.3141103" lon="13.2977925"><ele>807.0</ele><time>2026-05-02T17:01:18.363Z</time></trkpt><trkpt lat="42.3141311" lon="13.2979636"><ele>806.5</ele><time>2026-05-02T17:01:20.379Z</time></trkpt><trkpt lat="42.3141432" lon="13.2980517"><ele>806.0</ele><time>2026-05-02T17:01:21.37Z</time></trkpt><trkpt lat="42.3141561" lon="13.2981394"><ele>805.4999999999999</ele><time>2026-05-02T17:01:22.377Z</time></trkpt><trkpt lat="42.3141709" lon="13.2982336"><ele>805.0</ele><time>2026-05-02T17:01:23.372Z</time></trkpt><trkpt lat="42.3141881" lon="13.2983302"><ele>804.9999999999999</ele><time>2026-05-02T17:01:24.368Z</time></trkpt><trkpt lat="42.3142102" lon="13.298434"><ele>805.0</ele><time>2026-05-02T17:01:25.367Z</time></trkpt><trkpt lat="42.3142326" lon="13.2985409"><ele>805.0</ele><time>2026-05-02T17:01:26.371Z</time></trkpt><trkpt lat="42.3142547" lon="13.2986448"><ele>805.0</ele><time>2026-05-02T17:01:27.379Z</time></trkpt><trkpt lat="42.3142806" lon="13.2987538"><ele>804.9999999999999</ele><time>2026-05-02T17:01:28.375Z</time></trkpt><trkpt lat="42.3143058" lon="13.2988652"><ele>805.0</ele><time>2026-05-02T17:01:29.372Z</time></trkpt><trkpt lat="42.3143284" lon="13.2989735"><ele>804.1666666666666</ele><time>2026-05-02T17:01:30.383Z</time></trkpt><trkpt lat="42.314351" lon="13.2990795"><ele>803.3333333333333</ele><time>2026-05-02T17:01:31.362Z</time></trkpt><trkpt lat="42.3143842" lon="13.2991762"><ele>802.5</ele><time>2026-05-02T17:01:32.361Z</time></trkpt><trkpt lat="42.31443" lon="13.2992628"><ele>801.6666666666667</ele><time>2026-05-02T17:01:33.36Z</time></trkpt><trkpt lat="42.3144959" lon="13.2993197"><ele>800.8333333333334</ele><time>2026-05-02T17:01:34.359Z</time></trkpt><trkpt lat="42.3145795" lon="13.2993572"><ele>800.0</ele><time>2026-05-02T17:01:35.345Z</time></trkpt><trkpt lat="42.3146818" lon="13.2993893"><ele>798.0</ele><time>2026-05-02T17:01:36.353Z</time></trkpt><trkpt lat="42.3147956" lon="13.2994193"><ele>796.0</ele><time>2026-05-02T17:01:37.34Z</time></trkpt><trkpt lat="42.3149056" lon="13.2994452"><ele>794.0</ele><time>2026-05-02T17:01:38.361Z</time></trkpt><trkpt lat="42.3150194" lon="13.2994667"><ele>792.0</ele><time>2026-05-02T17:01:39.357Z</time></trkpt><trkpt lat="42.315128" lon="13.2994746"><ele>792.0</ele><time>2026-05-02T17:01:40.351Z</time></trkpt><trkpt lat="42.3152332" lon="13.2994811"><ele>792.0</ele><time>2026-05-02T17:01:41.362Z</time></trkpt><trkpt lat="42.3153303" lon="13.2994818"><ele>792.0</ele><time>2026-05-02T17:01:42.346Z</time></trkpt><trkpt lat="42.3154191" lon="13.2994772"><ele>792.0</ele><time>2026-05-02T17:01:43.349Z</time></trkpt><trkpt lat="42.3155047" lon="13.2994845"><ele>792.0</ele><time>2026-05-02T17:01:44.352Z</time></trkpt><trkpt lat="42.3155879" lon="13.2995126"><ele>791.2</ele><time>2026-05-02T17:01:45.351Z</time></trkpt><trkpt lat="42.3156759" lon="13.2995671"><ele>790.4000000000001</ele><time>2026-05-02T17:01:46.354Z</time></trkpt><trkpt lat="42.315759" lon="13.2996481"><ele>789.5999999999999</ele><time>2026-05-02T17:01:47.339Z</time></trkpt><trkpt lat="42.3158401" lon="13.299741"><ele>788.8</ele><time>2026-05-02T17:01:48.35Z</time></trkpt><trkpt lat="42.3159177" lon="13.29982"><ele>788.0</ele><time>2026-05-02T17:01:49.356Z</time></trkpt><trkpt lat="42.3160136" lon="13.299892"><ele>788.0</ele><time>2026-05-02T17:01:50.351Z</time></trkpt><trkpt lat="42.3161212" lon="13.299942"><ele>788.0</ele><time>2026-05-02T17:01:51.361Z</time></trkpt><trkpt lat="42.3162368" lon="13.2999762"><ele>788.0</ele><time>2026-05-02T17:01:52.355Z</time></trkpt><trkpt lat="42.3163629" lon="13.2999861"><ele>788.0</ele><time>2026-05-02T17:01:53.345Z</time></trkpt><trkpt lat="42.3165013" lon="13.2999771"><ele>789.0</ele><time>2026-05-02T17:01:54.357Z</time></trkpt><trkpt lat="42.3166466" lon="13.2999696"><ele>790.0</ele><time>2026-05-02T17:01:55.347Z</time></trkpt><trkpt lat="42.3167997" lon="13.2999686"><ele>791.0</ele><time>2026-05-02T17:01:56.342Z</time></trkpt><trkpt lat="42.3169599" lon="13.2999704"><ele>791.0</ele><time>2026-05-02T17:01:57.361Z</time></trkpt><trkpt lat="42.3171193" lon="13.2999788"><ele>791.0</ele><time>2026-05-02T17:01:58.354Z</time></trkpt><trkpt lat="42.3172793" lon="13.2999901"><ele>791.0</ele><time>2026-05-02T17:01:59.359Z</time></trkpt><trkpt lat="42.3174372" lon="13.3000013"><ele>791.5</ele><time>2026-05-02T17:02:00.358Z</time></trkpt><trkpt lat="42.3175857" lon="13.3000151"><ele>792.0</ele><time>2026-05-02T17:02:01.353Z</time></trkpt><trkpt lat="42.3177191" lon="13.3000299"><ele>792.5</ele><time>2026-05-02T17:02:02.348Z</time></trkpt><trkpt lat="42.3178257" lon="13.3000564"><ele>793.0</ele><time>2026-05-02T17:02:03.271Z</time></trkpt><trkpt lat="42.3179113" lon="13.3000954"><ele>793.0</ele><time>2026-05-02T17:02:04.266Z</time></trkpt><trkpt lat="42.3179758" lon="13.3002255"><ele>793.0</ele><time>2026-05-02T17:02:05.279Z</time></trkpt><trkpt lat="42.3180366" lon="13.3003608"><ele>793.0</ele><time>2026-05-02T17:02:06.279Z</time></trkpt><trkpt lat="42.3181175" lon="13.3004962"><ele>793.0</ele><time>2026-05-02T17:02:07.271Z</time></trkpt><trkpt lat="42.3182053" lon="13.3006472"><ele>796.0</ele><time>2026-05-02T17:02:08.275Z</time></trkpt><trkpt lat="42.3183082" lon="13.3007907"><ele>799.0</ele><time>2026-05-02T17:02:09.269Z</time></trkpt><trkpt lat="42.3184273" lon="13.3008977"><ele>802.0</ele><time>2026-05-02T17:02:10.274Z</time></trkpt><trkpt lat="42.3185198" lon="13.3009857"><ele>805.0</ele><time>2026-05-02T17:02:11.269Z</time></trkpt><trkpt lat="42.3186042" lon="13.3010681"><ele>804.9999999999999</ele><time>2026-05-02T17:02:12.275Z</time></trkpt><trkpt lat="42.3186957" lon="13.3011197"><ele>805.0</ele><time>2026-05-02T17:02:13.274Z</time></trkpt><trkpt lat="42.3188009" lon="13.3011518"><ele>805.0</ele><time>2026-05-02T17:02:14.277Z</time></trkpt><trkpt lat="42.3188672" lon="13.3011805"><ele>805.0</ele><time>2026-05-02T17:02:15.283Z</time></trkpt><trkpt lat="42.3189083" lon="13.3012454"><ele>804.9999999999999</ele><time>2026-05-02T17:02:17.281Z</time></trkpt><trkpt lat="42.3189051" lon="13.3013443"><ele>805.0</ele><time>2026-05-02T17:02:19.293Z</time></trkpt><trkpt lat="42.3188578" lon="13.3014821"><ele>806.1666666666666</ele><time>2026-05-02T17:02:21.291Z</time></trkpt><trkpt lat="42.3188254" lon="13.3015556"><ele>807.3333333333333</ele><time>2026-05-02T17:02:22.29Z</time></trkpt><trkpt lat="42.3187791" lon="13.3016345"><ele>808.5</ele><time>2026-05-02T17:02:23.285Z</time></trkpt><trkpt lat="42.3187267" lon="13.3017268"><ele>809.6666666666667</ele><time>2026-05-02T17:02:24.287Z</time></trkpt><trkpt lat="42.3186704" lon="13.3018421"><ele>810.8333333333334</ele><time>2026-05-02T17:02:25.284Z</time></trkpt><trkpt lat="42.3186155" lon="13.3019798"><ele>812.0</ele><time>2026-05-02T17:02:26.285Z</time></trkpt><trkpt lat="42.3185579" lon="13.3021207"><ele>810.75</ele><time>2026-05-02T17:02:27.283Z</time></trkpt><trkpt lat="42.3184902" lon="13.3022662"><ele>809.5</ele><time>2026-05-02T17:02:28.286Z</time></trkpt><trkpt lat="42.3184176" lon="13.3024212"><ele>808.25</ele><time>2026-05-02T17:02:29.285Z</time></trkpt><trkpt lat="42.3183544" lon="13.3025659"><ele>807.0</ele><time>2026-05-02T17:02:30.288Z</time></trkpt><trkpt lat="42.3182802" lon="13.3027132"><ele>807.0</ele><time>2026-05-02T17:02:31.278Z</time></trkpt><trkpt lat="42.3182266" lon="13.3028704"><ele>807.0</ele><time>2026-05-02T17:02:32.269Z</time></trkpt><trkpt lat="42.318181" lon="13.3030414"><ele>807.0</ele><time>2026-05-02T17:02:33.28Z</time></trkpt><trkpt lat="42.318147" lon="13.3032138"><ele>807.0</ele><time>2026-05-02T17:02:34.283Z</time></trkpt><trkpt lat="42.3181049" lon="13.3033912"><ele>810.0</ele><time>2026-05-02T17:02:35.282Z</time></trkpt><trkpt lat="42.3180457" lon="13.3035881"><ele>813.0</ele><time>2026-05-02T17:02:36.277Z</time></trkpt><trkpt lat="42.3179929" lon="13.3037246"><ele>816.0</ele><time>2026-05-02T17:02:37.276Z</time></trkpt><trkpt lat="42.3179423" lon="13.3038815"><ele>819.0</ele><time>2026-05-02T17:02:38.285Z</time></trkpt><trkpt lat="42.3178941" lon="13.3040314"><ele>819.0</ele><time>2026-05-02T17:02:39.281Z</time></trkpt><trkpt lat="42.317843" lon="13.3041885"><ele>819.0</ele><time>2026-05-02T17:02:40.282Z</time></trkpt><trkpt lat="42.3177827" lon="13.3043498"><ele>819.0</ele><time>2026-05-02T17:02:41.285Z</time></trkpt><trkpt lat="42.3177083" lon="13.3044935"><ele>819.0</ele><time>2026-05-02T17:02:42.282Z</time></trkpt><trkpt lat="42.3176477" lon="13.3046424"><ele>818.0</ele><time>2026-05-02T17:02:43.278Z</time></trkpt><trkpt lat="42.3175892" lon="13.3047884"><ele>817.0</ele><time>2026-05-02T17:02:44.284Z</time></trkpt><trkpt lat="42.3175252" lon="13.3049276"><ele>816.0</ele><time>2026-05-02T17:02:45.284Z</time></trkpt><trkpt lat="42.3174673" lon="13.305059"><ele>815.0</ele><time>2026-05-02T17:02:46.293Z</time></trkpt><trkpt lat="42.3173873" lon="13.3051876"><ele>815.0</ele><time>2026-05-02T17:02:47.283Z</time></trkpt><trkpt lat="42.3173264" lon="13.3053057"><ele>815.0</ele><time>2026-05-02T17:02:48.28Z</time></trkpt><trkpt lat="42.3172712" lon="13.3054194"><ele>815.0</ele><time>2026-05-02T17:02:49.296Z</time></trkpt><trkpt lat="42.3172198" lon="13.3055517"><ele>815.0</ele><time>2026-05-02T17:02:50.286Z</time></trkpt><trkpt lat="42.3171899" lon="13.3056784"><ele>815.0</ele><time>2026-05-02T17:02:51.291Z</time></trkpt><trkpt lat="42.317182" lon="13.3058296"><ele>816.25</ele><time>2026-05-02T17:02:52.294Z</time></trkpt><trkpt lat="42.3171696" lon="13.3060055"><ele>817.5</ele><time>2026-05-02T17:02:53.286Z</time></trkpt><trkpt lat="42.3171552" lon="13.3061827"><ele>818.75</ele><time>2026-05-02T17:02:54.304Z</time></trkpt><trkpt lat="42.3171413" lon="13.3063654"><ele>820.0</ele><time>2026-05-02T17:02:55.302Z</time></trkpt><trkpt lat="42.3171298" lon="13.3065462"><ele>820.0</ele><time>2026-05-02T17:02:56.3Z</time></trkpt><trkpt lat="42.3171152" lon="13.3067205"><ele>820.0</ele><time>2026-05-02T17:02:57.3Z</time></trkpt><trkpt lat="42.3171093" lon="13.306879"><ele>820.0</ele><time>2026-05-02T17:02:58.301Z</time></trkpt><trkpt lat="42.3170811" lon="13.3070303"><ele>820.0</ele><time>2026-05-02T17:02:59.293Z</time></trkpt><trkpt lat="42.3170484" lon="13.3072382"><ele>820.75</ele><time>2026-05-02T17:03:00.289Z</time></trkpt><trkpt lat="42.3170124" lon="13.3074144"><ele>821.5</ele><time>2026-05-02T17:03:01.281Z</time></trkpt><trkpt lat="42.3169947" lon="13.3075984"><ele>822.25</ele><time>2026-05-02T17:03:02.284Z</time></trkpt><trkpt lat="42.3169682" lon="13.3077558"><ele>823.0</ele><time>2026-05-02T17:03:03.283Z</time></trkpt><trkpt lat="42.3169344" lon="13.3079001"><ele>823.0</ele><time>2026-05-02T17:03:04.28Z</time></trkpt><trkpt lat="42.3168791" lon="13.3080225"><ele>823.0</ele><time>2026-05-02T17:03:05.278Z</time></trkpt><trkpt lat="42.3168173" lon="13.3081396"><ele>823.0</ele><time>2026-05-02T17:03:06.283Z</time></trkpt><trkpt lat="42.3167491" lon="13.3082737"><ele>823.0</ele><time>2026-05-02T17:03:07.284Z</time></trkpt><trkpt lat="42.3166773" lon="13.3083884"><ele>823.0</ele><time>2026-05-02T17:03:08.284Z</time></trkpt><trkpt lat="42.3166128" lon="13.3084845"><ele>823.0</ele><time>2026-05-02T17:03:09.281Z</time></trkpt><trkpt lat="42.3165514" lon="13.3085732"><ele>823.0</ele><time>2026-05-02T17:03:10.285Z</time></trkpt><trkpt lat="42.3164994" lon="13.3086852"><ele>823.0</ele><time>2026-05-02T17:03:11.29Z</time></trkpt><trkpt lat="42.3164494" lon="13.3088293"><ele>823.0</ele><time>2026-05-02T17:03:12.282Z</time></trkpt><trkpt lat="42.3164" lon="13.3089843"><ele>823.0</ele><time>2026-05-02T17:03:13.281Z</time></trkpt><trkpt lat="42.3163354" lon="13.3091244"><ele>823.0</ele><time>2026-05-02T17:03:14.291Z</time></trkpt><trkpt lat="42.3162596" lon="13.3092467"><ele>823.0</ele><time>2026-05-02T17:03:15.283Z</time></trkpt><trkpt lat="42.3161785" lon="13.3093904"><ele>823.0</ele><time>2026-05-02T17:03:16.289Z</time></trkpt><trkpt lat="42.3160949" lon="13.3095333"><ele>823.0</ele><time>2026-05-02T17:03:17.288Z</time></trkpt><trkpt lat="42.3160108" lon="13.3096579"><ele>824.25</ele><time>2026-05-02T17:03:18.286Z</time></trkpt><trkpt lat="42.3159276" lon="13.3097665"><ele>825.5</ele><time>2026-05-02T17:03:19.287Z</time></trkpt><trkpt lat="42.3158595" lon="13.3098882"><ele>826.75</ele><time>2026-05-02T17:03:20.286Z</time></trkpt><trkpt lat="42.3157861" lon="13.3100292"><ele>828.0</ele><time>2026-05-02T17:03:21.287Z</time></trkpt><trkpt lat="42.3157028" lon="13.3101598"><ele>828.0</ele><time>2026-05-02T17:03:22.283Z</time></trkpt><trkpt lat="42.3156221" lon="13.3102697"><ele>828.0</ele><time>2026-05-02T17:03:23.277Z</time></trkpt><trkpt lat="42.3155418" lon="13.3103759"><ele>828.0</ele><time>2026-05-02T17:03:24.277Z</time></trkpt><trkpt lat="42.3154524" lon="13.310495"><ele>828.0</ele><time>2026-05-02T17:03:25.284Z</time></trkpt><trkpt lat="42.3153734" lon="13.3106107"><ele>829.1666666666666</ele><time>2026-05-02T17:03:26.287Z</time></trkpt><trkpt lat="42.3153135" lon="13.3107137"><ele>830.3333333333333</ele><time>2026-05-02T17:03:27.278Z</time></trkpt><trkpt lat="42.3152593" lon="13.3108191"><ele>831.5</ele><time>2026-05-02T17:03:28.274Z</time></trkpt><trkpt lat="42.3152089" lon="13.3109052"><ele>832.6666666666666</ele><time>2026-05-02T17:03:29.28Z</time></trkpt><trkpt lat="42.3151638" lon="13.3109737"><ele>833.8333333333333</ele><time>2026-05-02T17:03:30.279Z</time></trkpt><trkpt lat="42.3150893" lon="13.3110384"><ele>835.0</ele><time>2026-05-02T17:03:31.286Z</time></trkpt><trkpt lat="42.315013" lon="13.3111177"><ele>834.9999999999999</ele><time>2026-05-02T17:03:32.273Z</time></trkpt><trkpt lat="42.3149323" lon="13.311179"><ele>835.0</ele><time>2026-05-02T17:03:33.284Z</time></trkpt><trkpt lat="42.3148599" lon="13.3112227"><ele>835.0</ele><time>2026-05-02T17:03:34.283Z</time></trkpt><trkpt lat="42.314796" lon="13.311269"><ele>835.0</ele><time>2026-05-02T17:03:35.275Z</time></trkpt><trkpt lat="42.3148214" lon="13.3113485"><ele>834.9999999999999</ele><time>2026-05-02T17:03:49.304Z</time></trkpt><trkpt lat="42.3148395" lon="13.3114424"><ele>835.0</ele><time>2026-05-02T17:03:52.292Z</time></trkpt><trkpt lat="42.314909" lon="13.3115483"><ele>833.8333333333333</ele><time>2026-05-02T17:03:55.286Z</time></trkpt><trkpt lat="42.3149654" lon="13.3116118"><ele>832.6666666666666</ele><time>2026-05-02T17:03:56.284Z</time></trkpt><trkpt lat="42.3150342" lon="13.3116824"><ele>831.5</ele><time>2026-05-02T17:03:57.284Z</time></trkpt><trkpt lat="42.3150996" lon="13.3117506"><ele>830.3333333333333</ele><time>2026-05-02T17:03:58.278Z</time></trkpt><trkpt lat="42.3151451" lon="13.311825"><ele>829.1666666666666</ele><time>2026-05-02T17:03:59.281Z</time></trkpt><trkpt lat="42.3151896" lon="13.3119134"><ele>828.0</ele><time>2026-05-02T17:04:00.28Z</time></trkpt><trkpt lat="42.3152272" lon="13.3120002"><ele>828.0</ele><time>2026-05-02T17:04:01.282Z</time></trkpt><trkpt lat="42.3152856" lon="13.3120869"><ele>828.0</ele><time>2026-05-02T17:04:02.286Z</time></trkpt><trkpt lat="42.3153405" lon="13.3121831"><ele>828.0</ele><time>2026-05-02T17:04:03.283Z</time></trkpt><trkpt lat="42.3153987" lon="13.312295"><ele>828.0</ele><time>2026-05-02T17:04:04.282Z</time></trkpt><trkpt lat="42.3154481" lon="13.3123953"><ele>828.0</ele><time>2026-05-02T17:04:05.276Z</time></trkpt><trkpt lat="42.3155093" lon="13.3124943"><ele>828.3333333333334</ele><time>2026-05-02T17:04:06.274Z</time></trkpt><trkpt lat="42.3155653" lon="13.3125728"><ele>828.6666666666667</ele><time>2026-05-02T17:04:07.268Z</time></trkpt><trkpt lat="42.3156731" lon="13.3126061"><ele>829.0</ele><time>2026-05-02T17:04:09.28Z</time></trkpt><trkpt lat="42.3157379" lon="13.3125956"><ele>829.3333333333334</ele><time>2026-05-02T17:04:10.27Z</time></trkpt><trkpt lat="42.3158239" lon="13.3125833"><ele>829.6666666666667</ele><time>2026-05-02T17:04:11.273Z</time></trkpt><trkpt lat="42.3159103" lon="13.3125743"><ele>830.0</ele><time>2026-05-02T17:04:12.273Z</time></trkpt><trkpt lat="42.3159832" lon="13.312588"><ele>830.4</ele><time>2026-05-02T17:04:13.271Z</time></trkpt><trkpt lat="42.3160727" lon="13.3126412"><ele>830.8</ele><time>2026-05-02T17:04:15.27Z</time></trkpt><trkpt lat="42.3161323" lon="13.3126946"><ele>831.2</ele><time>2026-05-02T17:04:17.289Z</time></trkpt><trkpt lat="42.3162396" lon="13.3127564"><ele>831.6</ele><time>2026-05-02T17:04:19.283Z</time></trkpt><trkpt lat="42.3163134" lon="13.312805"><ele>832.0</ele><time>2026-05-02T17:04:20.285Z</time></trkpt><trkpt lat="42.316399" lon="13.3128591"><ele>834.0</ele><time>2026-05-02T17:04:21.28Z</time></trkpt><trkpt lat="42.3164896" lon="13.3129086"><ele>836.0</ele><time>2026-05-02T17:04:22.283Z</time></trkpt><trkpt lat="42.3165827" lon="13.3129508"><ele>838.0</ele><time>2026-05-02T17:04:23.279Z</time></trkpt><trkpt lat="42.3166732" lon="13.3129975"><ele>840.0</ele><time>2026-05-02T17:04:24.283Z</time></trkpt><trkpt lat="42.3167743" lon="13.3130614"><ele>842.0</ele><time>2026-05-02T17:04:25.282Z</time></trkpt><trkpt lat="42.3168642" lon="13.3131159"><ele>843.0000000000001</ele><time>2026-05-02T17:04:26.28Z</time></trkpt><trkpt lat="42.316958" lon="13.3131686"><ele>844.0</ele><time>2026-05-02T17:04:27.283Z</time></trkpt><trkpt lat="42.317039" lon="13.3132033"><ele>845.0</ele><time>2026-05-02T17:04:28.281Z</time></trkpt><trkpt lat="42.3171124" lon="13.3131973"><ele>846.0</ele><time>2026-05-02T17:04:29.287Z</time></trkpt><trkpt lat="42.3171993" lon="13.3131614"><ele>847.0000000000001</ele><time>2026-05-02T17:04:30.287Z</time></trkpt><trkpt lat="42.3172777" lon="13.3131615"><ele>848.0</ele><time>2026-05-02T17:04:31.272Z</time></trkpt><trkpt lat="42.3173383" lon="13.3131938"><ele>848.8333333333334</ele><time>2026-05-02T17:04:32.277Z</time></trkpt><trkpt lat="42.3173981" lon="13.3132457"><ele>849.6666666666667</ele><time>2026-05-02T17:04:33.277Z</time></trkpt><trkpt lat="42.3174474" lon="13.3133143"><ele>850.5</ele><time>2026-05-02T17:04:34.289Z</time></trkpt><trkpt lat="42.3174994" lon="13.3134013"><ele>851.3333333333333</ele><time>2026-05-02T17:04:35.283Z</time></trkpt><trkpt lat="42.3175619" lon="13.3134941"><ele>852.1666666666666</ele><time>2026-05-02T17:04:36.285Z</time></trkpt><trkpt lat="42.3176385" lon="13.3135823"><ele>853.0</ele><time>2026-05-02T17:04:37.287Z</time></trkpt><trkpt lat="42.3177214" lon="13.3136773"><ele>852.9999999999999</ele><time>2026-05-02T17:04:38.283Z</time></trkpt><trkpt lat="42.3178061" lon="13.31376"><ele>853.0</ele><time>2026-05-02T17:04:39.286Z</time></trkpt><trkpt lat="42.3178728" lon="13.3138301"><ele>853.0</ele><time>2026-05-02T17:04:40.285Z</time></trkpt><trkpt lat="42.3179326" lon="13.313891"><ele>853.0</ele><time>2026-05-02T17:04:41.285Z</time></trkpt><trkpt lat="42.3179958" lon="13.3139553"><ele>852.9999999999999</ele><time>2026-05-02T17:04:42.278Z</time></trkpt><trkpt lat="42.3180682" lon="13.3140284"><ele>853.0</ele><time>2026-05-02T17:04:43.281Z</time></trkpt><trkpt lat="42.3181398" lon="13.3140676"><ele>852.8</ele><time>2026-05-02T17:04:44.271Z</time></trkpt><trkpt lat="42.3182045" lon="13.3140858"><ele>852.5999999999999</ele><time>2026-05-02T17:04:45.283Z</time></trkpt><trkpt lat="42.3182839" lon="13.3141056"><ele>852.4000000000001</ele><time>2026-05-02T17:04:51.286Z</time></trkpt><trkpt lat="42.3183667" lon="13.3140748"><ele>852.2</ele><time>2026-05-02T17:04:54.288Z</time></trkpt><trkpt lat="42.318443" lon="13.3139882"><ele>852.0</ele><time>2026-05-02T17:04:56.294Z</time></trkpt><trkpt lat="42.3185327" lon="13.3138843"><ele>852.0</ele><time>2026-05-02T17:04:58.283Z</time></trkpt><trkpt lat="42.3185729" lon="13.313816"><ele>852.0</ele><time>2026-05-02T17:04:59.286Z</time></trkpt><trkpt lat="42.3186675" lon="13.3137247"><ele>852.0</ele><time>2026-05-02T17:05:01.277Z</time></trkpt><trkpt lat="42.3187893" lon="13.3137363"><ele>852.0</ele><time>2026-05-02T17:05:03.287Z</time></trkpt><trkpt lat="42.3188601" lon="13.3138055"><ele>852.0</ele><time>2026-05-02T17:05:04.282Z</time></trkpt><trkpt lat="42.3189445" lon="13.3138899"><ele>851.0</ele><time>2026-05-02T17:05:05.278Z</time></trkpt><trkpt lat="42.3190323" lon="13.3139721"><ele>850.0</ele><time>2026-05-02T17:05:06.275Z</time></trkpt><trkpt lat="42.3191252" lon="13.3140458"><ele>849.0</ele><time>2026-05-02T17:05:07.283Z</time></trkpt><trkpt lat="42.3192172" lon="13.3141182"><ele>848.0</ele><time>2026-05-02T17:05:08.28Z</time></trkpt><trkpt lat="42.3193013" lon="13.3141924"><ele>847.0</ele><time>2026-05-02T17:05:09.275Z</time></trkpt><trkpt lat="42.3193906" lon="13.3142549"><ele>847.0</ele><time>2026-05-02T17:05:10.284Z</time></trkpt><trkpt lat="42.3194817" lon="13.3143212"><ele>847.0</ele><time>2026-05-02T17:05:11.282Z</time></trkpt><trkpt lat="42.3195641" lon="13.3143891"><ele>847.0</ele><time>2026-05-02T17:05:12.278Z</time></trkpt><trkpt lat="42.3196609" lon="13.314462"><ele>847.0</ele><time>2026-05-02T17:05:13.277Z</time></trkpt><trkpt lat="42.3197677" lon="13.3145431"><ele>847.0</ele><time>2026-05-02T17:05:14.271Z</time></trkpt><trkpt lat="42.3198822" lon="13.3146407"><ele>845.5</ele><time>2026-05-02T17:05:15.281Z</time></trkpt><trkpt lat="42.3200039" lon="13.3147316"><ele>844.0</ele><time>2026-05-02T17:05:16.271Z</time></trkpt><trkpt lat="42.3201222" lon="13.3148142"><ele>842.5</ele><time>2026-05-02T17:05:17.268Z</time></trkpt><trkpt lat="42.3202242" lon="13.3148976"><ele>841.0</ele><time>2026-05-02T17:05:18.277Z</time></trkpt><trkpt lat="42.3203093" lon="13.3149788"><ele>840.4999999999999</ele><time>2026-05-02T17:05:19.275Z</time></trkpt><trkpt lat="42.320388" lon="13.3150381"><ele>840.0</ele><time>2026-05-02T17:05:20.27Z</time></trkpt><trkpt lat="42.3204451" lon="13.3150945"><ele>839.5</ele><time>2026-05-02T17:05:21.278Z</time></trkpt><trkpt lat="42.320476" lon="13.3151792"><ele>839.0</ele><time>2026-05-02T17:05:22.255Z</time></trkpt><trkpt lat="42.320486" lon="13.3152747"><ele>838.4999999999999</ele><time>2026-05-02T17:05:23.268Z</time></trkpt><trkpt lat="42.3204584" lon="13.3154305"><ele>838.0</ele><time>2026-05-02T17:05:25.266Z</time></trkpt><trkpt lat="42.3203917" lon="13.3155283"><ele>837.8333333333333</ele><time>2026-05-02T17:05:27.299Z</time></trkpt><trkpt lat="42.3203093" lon="13.3156393"><ele>837.6666666666666</ele><time>2026-05-02T17:05:29.277Z</time></trkpt><trkpt lat="42.3202898" lon="13.3157253"><ele>837.5</ele><time>2026-05-02T17:05:30.274Z</time></trkpt><trkpt lat="42.3202745" lon="13.3158149"><ele>837.3333333333333</ele><time>2026-05-02T17:05:31.277Z</time></trkpt><trkpt lat="42.3202507" lon="13.3159265"><ele>837.1666666666666</ele><time>2026-05-02T17:05:33.287Z</time></trkpt><trkpt lat="42.3202554" lon="13.3158405"><ele>837.0</ele><time>2026-05-02T17:05:58.281Z</time></trkpt><trkpt lat="42.3202707" lon="13.3157292"><ele>837.0</ele><time>2026-05-02T17:06:00.287Z</time></trkpt><trkpt lat="42.3202926" lon="13.3156431"><ele>837.0</ele><time>2026-05-02T17:06:03.281Z</time></trkpt><trkpt lat="42.320338" lon="13.3155727"><ele>837.0</ele><time>2026-05-02T17:06:09.29Z</time></trkpt><trkpt lat="42.3204393" lon="13.3155988"><ele>837.0</ele><time>2026-05-02T17:06:12.281Z</time></trkpt><trkpt lat="42.3204929" lon="13.3156503"><ele>837.0</ele><time>2026-05-02T17:06:13.288Z</time></trkpt><trkpt lat="42.3205534" lon="13.3157017"><ele>837.0</ele><time>2026-05-02T17:06:14.273Z</time></trkpt><trkpt lat="42.3206155" lon="13.315742"><ele>837.0</ele><time>2026-05-02T17:06:15.279Z</time></trkpt><trkpt lat="42.3206748" lon="13.315778"><ele>835.4000000000001</ele><time>2026-05-02T17:06:16.274Z</time></trkpt><trkpt lat="42.3207518" lon="13.3158819"><ele>833.8000000000001</ele><time>2026-05-02T17:06:18.282Z</time></trkpt><trkpt lat="42.3207929" lon="13.316012"><ele>832.2</ele><time>2026-05-02T17:06:20.271Z</time></trkpt><trkpt lat="42.3208822" lon="13.3161112"><ele>830.6</ele><time>2026-05-02T17:06:22.278Z</time></trkpt><trkpt lat="42.3210024" lon="13.3161055"><ele>829.0</ele><time>2026-05-02T17:06:24.28Z</time></trkpt><trkpt lat="42.3210755" lon="13.3160906"><ele>828.9999999999999</ele><time>2026-05-02T17:06:25.281Z</time></trkpt><trkpt lat="42.3211621" lon="13.3160909"><ele>829.0</ele><time>2026-05-02T17:06:26.28Z</time></trkpt><trkpt lat="42.3212567" lon="13.3160941"><ele>829.0</ele><time>2026-05-02T17:06:27.281Z</time></trkpt><trkpt lat="42.3213415" lon="13.3161049"><ele>829.0</ele><time>2026-05-02T17:06:28.284Z</time></trkpt><trkpt lat="42.3214208" lon="13.3161459"><ele>828.9999999999999</ele><time>2026-05-02T17:06:29.277Z</time></trkpt><trkpt lat="42.3214812" lon="13.3161824"><ele>829.0</ele><time>2026-05-02T17:06:30.275Z</time></trkpt><trkpt lat="42.3215981" lon="13.3162244"><ele>828.1666666666666</ele><time>2026-05-02T17:06:32.284Z</time></trkpt><trkpt lat="42.3217087" lon="13.3162337"><ele>827.3333333333333</ele><time>2026-05-02T17:06:34.284Z</time></trkpt><trkpt lat="42.3217806" lon="13.3162466"><ele>826.5</ele><time>2026-05-02T17:06:35.286Z</time></trkpt><trkpt lat="42.3218557" lon="13.3162368"><ele>825.6666666666667</ele><time>2026-05-02T17:06:36.282Z</time></trkpt><trkpt lat="42.3219368" lon="13.3162418"><ele>824.8333333333334</ele><time>2026-05-02T17:06:37.282Z</time></trkpt><trkpt lat="42.3220158" lon="13.3162589"><ele>824.0</ele><time>2026-05-02T17:06:38.271Z</time></trkpt><trkpt lat="42.3221048" lon="13.3162883"><ele>824.0</ele><time>2026-05-02T17:06:39.279Z</time></trkpt><trkpt lat="42.3221986" lon="13.3163261"><ele>824.0</ele><time>2026-05-02T17:06:40.28Z</time></trkpt><trkpt lat="42.3222955" lon="13.3163716"><ele>824.0</ele><time>2026-05-02T17:06:41.272Z</time></trkpt><trkpt lat="42.322379" lon="13.3164203"><ele>824.0</ele><time>2026-05-02T17:06:42.28Z</time></trkpt><trkpt lat="42.3224647" lon="13.3164642"><ele>824.0</ele><time>2026-05-02T17:06:43.278Z</time></trkpt><trkpt lat="42.3225466" lon="13.3165037"><ele>823.1666666666667</ele><time>2026-05-02T17:06:44.282Z</time></trkpt><trkpt lat="42.3226283" lon="13.3165507"><ele>822.3333333333334</ele><time>2026-05-02T17:06:45.271Z</time></trkpt><trkpt lat="42.3226999" lon="13.3165888"><ele>821.5</ele><time>2026-05-02T17:06:46.274Z</time></trkpt><trkpt lat="42.3227682" lon="13.3166248"><ele>820.6666666666667</ele><time>2026-05-02T17:06:47.272Z</time></trkpt><trkpt lat="42.322788" lon="13.3165315"><ele>819.8333333333334</ele><time>2026-05-02T17:07:26.284Z</time></trkpt><trkpt lat="42.3228146" lon="13.3164167"><ele>819.0</ele><time>2026-05-02T17:07:29.284Z</time></trkpt><trkpt lat="42.3228478" lon="13.3163087"><ele>818.1666666666666</ele><time>2026-05-02T17:07:31.262Z</time></trkpt><trkpt lat="42.3228763" lon="13.3162042"><ele>817.3333333333333</ele><time>2026-05-02T17:07:32.263Z</time></trkpt><trkpt lat="42.322901" lon="13.3160998"><ele>816.5</ele><time>2026-05-02T17:07:33.258Z</time></trkpt><trkpt lat="42.3229369" lon="13.3160181"><ele>815.6666666666666</ele><time>2026-05-02T17:07:34.269Z</time></trkpt><trkpt lat="42.3230018" lon="13.3160147"><ele>814.8333333333333</ele><time>2026-05-02T17:07:37.286Z</time></trkpt><trkpt lat="42.3231169" lon="13.3160663"><ele>814.0</ele><time>2026-05-02T17:07:39.273Z</time></trkpt><trkpt lat="42.3231949" lon="13.3160981"><ele>812.4000000000001</ele><time>2026-05-02T17:07:40.269Z</time></trkpt><trkpt lat="42.3232907" lon="13.3161244"><ele>810.8</ele><time>2026-05-02T17:07:41.279Z</time></trkpt><trkpt lat="42.3233925" lon="13.3161478"><ele>809.2</ele><time>2026-05-02T17:07:42.263Z</time></trkpt><trkpt lat="42.3234924" lon="13.3161672"><ele>807.5999999999999</ele><time>2026-05-02T17:07:43.269Z</time></trkpt><trkpt lat="42.3235982" lon="13.3161784"><ele>806.0</ele><time>2026-05-02T17:07:44.265Z</time></trkpt><trkpt lat="42.3236919" lon="13.3161892"><ele>806.0</ele><time>2026-05-02T17:07:45.261Z</time></trkpt><trkpt lat="42.3237815" lon="13.3161987"><ele>806.0</ele><time>2026-05-02T17:07:46.277Z</time></trkpt><trkpt lat="42.3238633" lon="13.31622"><ele>806.0</ele><time>2026-05-02T17:07:47.272Z</time></trkpt><trkpt lat="42.3239565" lon="13.3162474"><ele>806.0</ele><time>2026-05-02T17:07:48.276Z</time></trkpt><trkpt lat="42.324049" lon="13.3162874"><ele>806.0</ele><time>2026-05-02T17:07:49.276Z</time></trkpt><trkpt lat="42.3241464" lon="13.3163355"><ele>806.6666666666667</ele><time>2026-05-02T17:07:50.276Z</time></trkpt><trkpt lat="42.3242513" lon="13.3163891"><ele>807.3333333333334</ele><time>2026-05-02T17:07:51.271Z</time></trkpt><trkpt lat="42.3243429" lon="13.3164307"><ele>808.0</ele><time>2026-05-02T17:07:52.28Z</time></trkpt><trkpt lat="42.3244169" lon="13.3164774"><ele>808.6666666666667</ele><time>2026-05-02T17:07:53.277Z</time></trkpt><trkpt lat="42.3244785" lon="13.3165106"><ele>809.3333333333334</ele><time>2026-05-02T17:07:54.279Z</time></trkpt><trkpt lat="42.3245401" lon="13.316529"><ele>810.0</ele><time>2026-05-02T17:07:55.277Z</time></trkpt><trkpt lat="42.3246565" lon="13.316536"><ele>809.4</ele><time>2026-05-02T17:07:57.279Z</time></trkpt><trkpt lat="42.3247793" lon="13.3165649"><ele>808.8</ele><time>2026-05-02T17:07:59.275Z</time></trkpt><trkpt lat="42.3249073" lon="13.3165739"><ele>808.2</ele><time>2026-05-02T17:08:01.274Z</time></trkpt><trkpt lat="42.3249846" lon="13.3165835"><ele>807.6</ele><time>2026-05-02T17:08:02.28Z</time></trkpt><trkpt lat="42.3250635" lon="13.3165805"><ele>807.0</ele><time>2026-05-02T17:08:03.278Z</time></trkpt><trkpt lat="42.3251429" lon="13.3165726"><ele>807.0</ele><time>2026-05-02T17:08:04.284Z</time></trkpt><trkpt lat="42.3252267" lon="13.3165656"><ele>807.0</ele><time>2026-05-02T17:08:05.271Z</time></trkpt><trkpt lat="42.3253035" lon="13.3165652"><ele>807.0</ele><time>2026-05-02T17:08:06.277Z</time></trkpt><trkpt lat="42.3253712" lon="13.3165452"><ele>807.0</ele><time>2026-05-02T17:08:07.279Z</time></trkpt><trkpt lat="42.3254337" lon="13.3164994"><ele>807.0</ele><time>2026-05-02T17:08:08.271Z</time></trkpt><trkpt lat="42.3255073" lon="13.3164434"><ele>807.0</ele><time>2026-05-02T17:08:09.276Z</time></trkpt><trkpt lat="42.3255838" lon="13.3163893"><ele>805.0</ele><time>2026-05-02T17:08:10.27Z</time></trkpt><trkpt lat="42.3256524" lon="13.3163276"><ele>803.0</ele><time>2026-05-02T17:08:11.27Z</time></trkpt><trkpt lat="42.3257236" lon="13.3162684"><ele>801.0</ele><time>2026-05-02T17:08:12.273Z</time></trkpt><trkpt lat="42.3258062" lon="13.3162124"><ele>799.0</ele><time>2026-05-02T17:08:13.269Z</time></trkpt><trkpt lat="42.3258804" lon="13.3161647"><ele>797.0</ele><time>2026-05-02T17:08:14.269Z</time></trkpt><trkpt lat="42.325945" lon="13.3161355"><ele>795.0</ele><time>2026-05-02T17:08:15.277Z</time></trkpt><trkpt lat="42.3260667" lon="13.3160732"><ele>795.0</ele><time>2026-05-02T17:08:17.279Z</time></trkpt><trkpt lat="42.3261439" lon="13.3160653"><ele>795.0</ele><time>2026-05-02T17:08:18.279Z</time></trkpt><trkpt lat="42.3262321" lon="13.3160635"><ele>795.0</ele><time>2026-05-02T17:08:19.278Z</time></trkpt><trkpt lat="42.326325" lon="13.316076"><ele>795.0</ele><time>2026-05-02T17:08:20.276Z</time></trkpt><trkpt lat="42.3264094" lon="13.3160771"><ele>795.0</ele><time>2026-05-02T17:08:21.274Z</time></trkpt><trkpt lat="42.3264813" lon="13.3160481"><ele>795.0</ele><time>2026-05-02T17:08:22.269Z</time></trkpt><trkpt lat="42.3265454" lon="13.3159978"><ele>795.0</ele><time>2026-05-02T17:08:23.273Z</time></trkpt><trkpt lat="42.3266043" lon="13.3159439"><ele>795.0</ele><time>2026-05-02T17:08:24.273Z</time></trkpt><trkpt lat="42.326678" lon="13.3159043"><ele>795.0</ele><time>2026-05-02T17:08:25.269Z</time></trkpt><trkpt lat="42.3267542" lon="13.3158952"><ele>795.0</ele><time>2026-05-02T17:08:26.277Z</time></trkpt><trkpt lat="42.3268292" lon="13.3159168"><ele>795.0</ele><time>2026-05-02T17:08:27.281Z</time></trkpt><trkpt lat="42.3269146" lon="13.3159393"><ele>795.0</ele><time>2026-05-02T17:08:28.27Z</time></trkpt><trkpt lat="42.327014" lon="13.3159472"><ele>795.0</ele><time>2026-05-02T17:08:29.27Z</time></trkpt><trkpt lat="42.3271202" lon="13.3159589"><ele>795.0</ele><time>2026-05-02T17:08:30.275Z</time></trkpt><trkpt lat="42.3272283" lon="13.3159556"><ele>795.0</ele><time>2026-05-02T17:08:31.266Z</time></trkpt><trkpt lat="42.3273334" lon="13.3159663"><ele>795.0</ele><time>2026-05-02T17:08:32.267Z</time></trkpt><trkpt lat="42.3274314" lon="13.3159793"><ele>795.0</ele><time>2026-05-02T17:08:33.27Z</time></trkpt><trkpt lat="42.327513" lon="13.3159917"><ele>794.3333333333334</ele><time>2026-05-02T17:08:34.275Z</time></trkpt><trkpt lat="42.3275987" lon="13.3160005"><ele>793.6666666666667</ele><time>2026-05-02T17:08:35.267Z</time></trkpt><trkpt lat="42.3276725" lon="13.3159962"><ele>793.0</ele><time>2026-05-02T17:08:36.273Z</time></trkpt><trkpt lat="42.3277381" lon="13.3159907"><ele>792.3333333333334</ele><time>2026-05-02T17:08:37.27Z</time></trkpt><trkpt lat="42.3278137" lon="13.3159995"><ele>791.6666666666667</ele><time>2026-05-02T17:08:38.268Z</time></trkpt><trkpt lat="42.3278956" lon="13.3160068"><ele>791.0</ele><time>2026-05-02T17:08:39.263Z</time></trkpt><trkpt lat="42.3279921" lon="13.3160364"><ele>789.6666666666667</ele><time>2026-05-02T17:08:40.266Z</time></trkpt><trkpt lat="42.3280859" lon="13.3160787"><ele>788.3333333333334</ele><time>2026-05-02T17:08:41.261Z</time></trkpt><trkpt lat="42.328178" lon="13.3161234"><ele>787.0</ele><time>2026-05-02T17:08:42.26Z</time></trkpt><trkpt lat="42.3282505" lon="13.3161666"><ele>785.6666666666667</ele><time>2026-05-02T17:08:43.261Z</time></trkpt><trkpt lat="42.3283305" lon="13.3161984"><ele>784.3333333333334</ele><time>2026-05-02T17:08:44.267Z</time></trkpt><trkpt lat="42.3284037" lon="13.3162372"><ele>783.0</ele><time>2026-05-02T17:08:45.261Z</time></trkpt><trkpt lat="42.3284802" lon="13.3162904"><ele>783.0</ele><time>2026-05-02T17:08:46.266Z</time></trkpt><trkpt lat="42.3285398" lon="13.3163517"><ele>783.0</ele><time>2026-05-02T17:08:47.27Z</time></trkpt><trkpt lat="42.328608" lon="13.3163914"><ele>783.0</ele><time>2026-05-02T17:08:48.277Z</time></trkpt><trkpt lat="42.3286705" lon="13.3164313"><ele>783.0</ele><time>2026-05-02T17:08:49.269Z</time></trkpt><trkpt lat="42.3287322" lon="13.3164668"><ele>783.0</ele><time>2026-05-02T17:08:50.267Z</time></trkpt><trkpt lat="42.328795" lon="13.3164994"><ele>783.0</ele><time>2026-05-02T17:08:51.273Z</time></trkpt><trkpt lat="42.3289222" lon="13.3165098"><ele>784.1428571428571</ele><time>2026-05-02T17:08:53.273Z</time></trkpt><trkpt lat="42.3289922" lon="13.3165134"><ele>785.2857142857143</ele><time>2026-05-02T17:08:54.279Z</time></trkpt><trkpt lat="42.32906" lon="13.3165209"><ele>786.4285714285714</ele><time>2026-05-02T17:08:55.277Z</time></trkpt><trkpt lat="42.3291294" lon="13.3165333"><ele>787.5714285714286</ele><time>2026-05-02T17:08:56.279Z</time></trkpt><trkpt lat="42.3292119" lon="13.3165478"><ele>788.7142857142858</ele><time>2026-05-02T17:08:57.28Z</time></trkpt><trkpt lat="42.3292959" lon="13.3165403"><ele>789.8571428571429</ele><time>2026-05-02T17:08:58.277Z</time></trkpt><trkpt lat="42.3293685" lon="13.3165409"><ele>791.0</ele><time>2026-05-02T17:08:59.277Z</time></trkpt><trkpt lat="42.329441" lon="13.31653"><ele>791.0000000000001</ele><time>2026-05-02T17:09:00.278Z</time></trkpt><trkpt lat="42.3295322" lon="13.3165257"><ele>791.0</ele><time>2026-05-02T17:09:01.278Z</time></trkpt><trkpt lat="42.3296084" lon="13.3165261"><ele>791.0</ele><time>2026-05-02T17:09:02.275Z</time></trkpt><trkpt lat="42.329694" lon="13.3165455"><ele>791.0</ele><time>2026-05-02T17:09:03.278Z</time></trkpt><trkpt lat="42.3297695" lon="13.3165466"><ele>791.0000000000001</ele><time>2026-05-02T17:09:04.278Z</time></trkpt><trkpt lat="42.3298455" lon="13.3165425"><ele>791.0</ele><time>2026-05-02T17:09:05.273Z</time></trkpt><trkpt lat="42.3299308" lon="13.316539"><ele>790.3333333333334</ele><time>2026-05-02T17:09:06.273Z</time></trkpt><trkpt lat="42.3300077" lon="13.3165357"><ele>789.6666666666667</ele><time>2026-05-02T17:09:07.275Z</time></trkpt><trkpt lat="42.3300878" lon="13.3165331"><ele>789.0</ele><time>2026-05-02T17:09:08.275Z</time></trkpt><trkpt lat="42.3301698" lon="13.3165222"><ele>788.3333333333333</ele><time>2026-05-02T17:09:09.277Z</time></trkpt><trkpt lat="42.3302491" lon="13.3165208"><ele>787.6666666666666</ele><time>2026-05-02T17:09:10.277Z</time></trkpt><trkpt lat="42.3303279" lon="13.316514"><ele>787.0</ele><time>2026-05-02T17:09:11.278Z</time></trkpt><trkpt lat="42.3304062" lon="13.3165039"><ele>786.9999999999999</ele><time>2026-05-02T17:09:12.277Z</time></trkpt><trkpt lat="42.3304783" lon="13.3165017"><ele>787.0</ele><time>2026-05-02T17:09:13.272Z</time></trkpt><trkpt lat="42.3305579" lon="13.3164983"><ele>787.0</ele><time>2026-05-02T17:09:14.272Z</time></trkpt><trkpt lat="42.3306505" lon="13.31649"><ele>787.0</ele><time>2026-05-02T17:09:15.272Z</time></trkpt><trkpt lat="42.3307353" lon="13.3164727"><ele>786.9999999999999</ele><time>2026-05-02T17:09:16.278Z</time></trkpt><trkpt lat="42.3308106" lon="13.3164626"><ele>787.0</ele><time>2026-05-02T17:09:17.276Z</time></trkpt><trkpt lat="42.3308802" lon="13.3164483"><ele>786.8</ele><time>2026-05-02T17:09:18.28Z</time></trkpt><trkpt lat="42.3309491" lon="13.3164507"><ele>786.6</ele><time>2026-05-02T17:09:19.279Z</time></trkpt><trkpt lat="42.3310236" lon="13.3164451"><ele>786.4</ele><time>2026-05-02T17:09:20.271Z</time></trkpt><trkpt lat="42.3311337" lon="13.3164273"><ele>786.1999999999999</ele><time>2026-05-02T17:09:22.28Z</time></trkpt><trkpt lat="42.331237" lon="13.3163807"><ele>786.0</ele><time>2026-05-02T17:09:24.277Z</time></trkpt><trkpt lat="42.3313294" lon="13.316341"><ele>784.6666666666666</ele><time>2026-05-02T17:09:25.273Z</time></trkpt><trkpt lat="42.33141" lon="13.3162743"><ele>783.3333333333333</ele><time>2026-05-02T17:09:26.279Z</time></trkpt><trkpt lat="42.3314822" lon="13.316214"><ele>782.0</ele><time>2026-05-02T17:09:27.276Z</time></trkpt><trkpt lat="42.3315413" lon="13.316175"><ele>780.6666666666666</ele><time>2026-05-02T17:09:28.273Z</time></trkpt><trkpt lat="42.3316135" lon="13.3161356"><ele>779.3333333333333</ele><time>2026-05-02T17:09:29.275Z</time></trkpt><trkpt lat="42.331685" lon="13.3160975"><ele>778.0</ele><time>2026-05-02T17:09:30.278Z</time></trkpt><trkpt lat="42.3317561" lon="13.316069"><ele>777.9999999999999</ele><time>2026-05-02T17:09:31.273Z</time></trkpt><trkpt lat="42.3318287" lon="13.31605"><ele>778.0</ele><time>2026-05-02T17:09:32.273Z</time></trkpt><trkpt lat="42.3319022" lon="13.3160657"><ele>778.0</ele><time>2026-05-02T17:09:33.278Z</time></trkpt><trkpt lat="42.331968" lon="13.3161038"><ele>778.0</ele><time>2026-05-02T17:09:34.275Z</time></trkpt><trkpt lat="42.3320434" lon="13.3161475"><ele>777.9999999999999</ele><time>2026-05-02T17:09:35.268Z</time></trkpt><trkpt lat="42.3321163" lon="13.3161921"><ele>778.0</ele><time>2026-05-02T17:09:36.266Z</time></trkpt><trkpt lat="42.3322058" lon="13.3162401"><ele>777.2</ele><time>2026-05-02T17:09:37.27Z</time></trkpt><trkpt lat="42.3323039" lon="13.3162668"><ele>776.4</ele><time>2026-05-02T17:09:38.268Z</time></trkpt><trkpt lat="42.332398" lon="13.316276"><ele>775.6</ele><time>2026-05-02T17:09:39.271Z</time></trkpt><trkpt lat="42.332509" lon="13.3162669"><ele>774.8000000000001</ele><time>2026-05-02T17:09:40.271Z</time></trkpt><trkpt lat="42.3326037" lon="13.3162429"><ele>774.0</ele><time>2026-05-02T17:09:41.272Z</time></trkpt><trkpt lat="42.3326904" lon="13.3162196"><ele>774.0</ele><time>2026-05-02T17:09:42.271Z</time></trkpt><trkpt lat="42.3327669" lon="13.3162049"><ele>774.0</ele><time>2026-05-02T17:09:43.271Z</time></trkpt><trkpt lat="42.3328766" lon="13.3161908"><ele>774.0</ele><time>2026-05-02T17:09:45.276Z</time></trkpt><trkpt lat="42.3330012" lon="13.3162211"><ele>774.0</ele><time>2026-05-02T17:09:47.277Z</time></trkpt><trkpt lat="42.3331199" lon="13.3162462"><ele>774.0</ele><time>2026-05-02T17:09:49.272Z</time></trkpt><trkpt lat="42.333193" lon="13.3162628"><ele>773.1666666666666</ele><time>2026-05-02T17:09:50.273Z</time></trkpt><trkpt lat="42.333273" lon="13.3162834"><ele>772.3333333333333</ele><time>2026-05-02T17:09:51.269Z</time></trkpt><trkpt lat="42.333355" lon="13.3162948"><ele>771.5</ele><time>2026-05-02T17:09:52.269Z</time></trkpt><trkpt lat="42.3334495" lon="13.316303"><ele>770.6666666666666</ele><time>2026-05-02T17:09:53.273Z</time></trkpt><trkpt lat="42.3335408" lon="13.3163116"><ele>769.8333333333333</ele><time>2026-05-02T17:09:54.27Z</time></trkpt><trkpt lat="42.3336288" lon="13.3163313"><ele>769.0</ele><time>2026-05-02T17:09:55.273Z</time></trkpt><trkpt lat="42.3337282" lon="13.3163421"><ele>769.0</ele><time>2026-05-02T17:09:56.272Z</time></trkpt><trkpt lat="42.3338344" lon="13.3163476"><ele>769.0</ele><time>2026-05-02T17:09:57.268Z</time></trkpt><trkpt lat="42.333926" lon="13.3163329"><ele>769.0</ele><time>2026-05-02T17:09:58.272Z</time></trkpt><trkpt lat="42.3340156" lon="13.3163069"><ele>769.0</ele><time>2026-05-02T17:09:59.263Z</time></trkpt><trkpt lat="42.3341177" lon="13.3162853"><ele>769.0</ele><time>2026-05-02T17:10:00.268Z</time></trkpt><trkpt lat="42.334221" lon="13.3162774"><ele>766.9999999999999</ele><time>2026-05-02T17:10:01.274Z</time></trkpt><trkpt lat="42.3343202" lon="13.3162742"><ele>765.0</ele><time>2026-05-02T17:10:02.268Z</time></trkpt><trkpt lat="42.3344119" lon="13.3162571"><ele>763.0</ele><time>2026-05-02T17:10:03.267Z</time></trkpt><trkpt lat="42.334491" lon="13.316235"><ele>761.0</ele><time>2026-05-02T17:10:04.27Z</time></trkpt><trkpt lat="42.3345745" lon="13.3162081"><ele>759.0</ele><time>2026-05-02T17:10:05.273Z</time></trkpt><trkpt lat="42.3346583" lon="13.3161748"><ele>757.0</ele><time>2026-05-02T17:10:06.275Z</time></trkpt><trkpt lat="42.3347391" lon="13.3161375"><ele>757.0</ele><time>2026-05-02T17:10:07.269Z</time></trkpt><trkpt lat="42.3348191" lon="13.3161111"><ele>757.0</ele><time>2026-05-02T17:10:08.27Z</time></trkpt><trkpt lat="42.3349134" lon="13.3160979"><ele>757.0</ele><time>2026-05-02T17:10:09.267Z</time></trkpt><trkpt lat="42.3350144" lon="13.3160819"><ele>757.0</ele><time>2026-05-02T17:10:10.265Z</time></trkpt><trkpt lat="42.3351119" lon="13.316059"><ele>757.0</ele><time>2026-05-02T17:10:11.267Z</time></trkpt><trkpt lat="42.3352151" lon="13.3160307"><ele>757.0</ele><time>2026-05-02T17:10:12.265Z</time></trkpt><trkpt lat="42.335317" lon="13.3160263"><ele>757.0</ele><time>2026-05-02T17:10:13.265Z</time></trkpt><trkpt lat="42.3354254" lon="13.3160251"><ele>757.0</ele><time>2026-05-02T17:10:14.266Z</time></trkpt><trkpt lat="42.3355351" lon="13.3160164"><ele>757.0</ele><time>2026-05-02T17:10:15.266Z</time></trkpt><trkpt lat="42.3356299" lon="13.3160215"><ele>757.0</ele><time>2026-05-02T17:10:16.273Z</time></trkpt><trkpt lat="42.3357298" lon="13.3160255"><ele>757.1666666666667</ele><time>2026-05-02T17:10:17.268Z</time></trkpt><trkpt lat="42.3358188" lon="13.3160287"><ele>757.3333333333334</ele><time>2026-05-02T17:10:18.274Z</time></trkpt><trkpt lat="42.335889" lon="13.3160466"><ele>757.5</ele><time>2026-05-02T17:10:19.264Z</time></trkpt><trkpt lat="42.3359633" lon="13.3160494"><ele>757.6666666666666</ele><time>2026-05-02T17:10:20.264Z</time></trkpt><trkpt lat="42.3360419" lon="13.3160331"><ele>757.8333333333333</ele><time>2026-05-02T17:10:21.262Z</time></trkpt><trkpt lat="42.3361237" lon="13.3160086"><ele>758.0</ele><time>2026-05-02T17:10:22.267Z</time></trkpt><trkpt lat="42.3362117" lon="13.315995"><ele>758.0</ele><time>2026-05-02T17:10:23.269Z</time></trkpt><trkpt lat="42.3362933" lon="13.3159815"><ele>758.0</ele><time>2026-05-02T17:10:24.275Z</time></trkpt><trkpt lat="42.3363594" lon="13.3159828"><ele>758.0</ele><time>2026-05-02T17:10:25.272Z</time></trkpt><trkpt lat="42.3364359" lon="13.3159737"><ele>758.0</ele><time>2026-05-02T17:10:26.268Z</time></trkpt><trkpt lat="42.3365094" lon="13.3159693"><ele>758.0</ele><time>2026-05-02T17:10:27.275Z</time></trkpt><trkpt lat="42.3365856" lon="13.3159778"><ele>758.0</ele><time>2026-05-02T17:10:28.278Z</time></trkpt><trkpt lat="42.3366616" lon="13.3159917"><ele>757.8333333333333</ele><time>2026-05-02T17:10:29.276Z</time></trkpt><trkpt lat="42.3367268" lon="13.3160162"><ele>757.6666666666666</ele><time>2026-05-02T17:10:30.278Z</time></trkpt><trkpt lat="42.3367958" lon="13.3160276"><ele>757.5</ele><time>2026-05-02T17:10:31.275Z</time></trkpt><trkpt lat="42.3368803" lon="13.3160281"><ele>757.3333333333334</ele><time>2026-05-02T17:10:32.275Z</time></trkpt><trkpt lat="42.3369702" lon="13.3160342"><ele>757.1666666666667</ele><time>2026-05-02T17:10:33.269Z</time></trkpt><trkpt lat="42.3370599" lon="13.3160377"><ele>757.0</ele><time>2026-05-02T17:10:34.271Z</time></trkpt><trkpt lat="42.3371536" lon="13.3160384"><ele>757.6</ele><time>2026-05-02T17:10:35.265Z</time></trkpt><trkpt lat="42.33725" lon="13.3160228"><ele>758.2</ele><time>2026-05-02T17:10:36.272Z</time></trkpt><trkpt lat="42.3373416" lon="13.315997"><ele>758.8</ele><time>2026-05-02T17:10:37.266Z</time></trkpt><trkpt lat="42.3374275" lon="13.3159713"><ele>759.4</ele><time>2026-05-02T17:10:38.274Z</time></trkpt><trkpt lat="42.3375251" lon="13.3159554"><ele>760.0</ele><time>2026-05-02T17:10:39.272Z</time></trkpt><trkpt lat="42.3376312" lon="13.3159359"><ele>760.0</ele><time>2026-05-02T17:10:40.273Z</time></trkpt><trkpt lat="42.3377472" lon="13.3159"><ele>760.0</ele><time>2026-05-02T17:10:41.267Z</time></trkpt><trkpt lat="42.3378322" lon="13.3158749"><ele>760.0</ele><time>2026-05-02T17:10:42.269Z</time></trkpt><trkpt lat="42.3379042" lon="13.3158486"><ele>760.0</ele><time>2026-05-02T17:10:43.268Z</time></trkpt><trkpt lat="42.3379765" lon="13.3158218"><ele>760.0</ele><time>2026-05-02T17:10:44.265Z</time></trkpt><trkpt lat="42.3380649" lon="13.315806"><ele>760.0</ele><time>2026-05-02T17:10:45.268Z</time></trkpt><trkpt lat="42.3381671" lon="13.3157779"><ele>760.4</ele><time>2026-05-02T17:10:46.271Z</time></trkpt><trkpt lat="42.3382712" lon="13.3157557"><ele>760.8</ele><time>2026-05-02T17:10:47.273Z</time></trkpt><trkpt lat="42.3383532" lon="13.3157268"><ele>761.2</ele><time>2026-05-02T17:10:48.273Z</time></trkpt><trkpt lat="42.3384402" lon="13.3157183"><ele>761.6</ele><time>2026-05-02T17:10:49.275Z</time></trkpt><trkpt lat="42.3385372" lon="13.3157025"><ele>762.0</ele><time>2026-05-02T17:10:50.277Z</time></trkpt><trkpt lat="42.3386324" lon="13.3156933"><ele>762.0</ele><time>2026-05-02T17:10:51.276Z</time></trkpt><trkpt lat="42.3387312" lon="13.3156848"><ele>762.0</ele><time>2026-05-02T17:10:52.277Z</time></trkpt><trkpt lat="42.3388452" lon="13.3156804"><ele>762.0</ele><time>2026-05-02T17:10:53.277Z</time></trkpt><trkpt lat="42.3389455" lon="13.3156869"><ele>762.0</ele><time>2026-05-02T17:10:54.275Z</time></trkpt><trkpt lat="42.3390289" lon="13.3157055"><ele>762.0</ele><time>2026-05-02T17:10:55.277Z</time></trkpt><trkpt lat="42.3391098" lon="13.3157328"><ele>761.4000000000001</ele><time>2026-05-02T17:10:56.277Z</time></trkpt><trkpt lat="42.3391975" lon="13.3157534"><ele>760.8000000000001</ele><time>2026-05-02T17:10:57.281Z</time></trkpt><trkpt lat="42.3392861" lon="13.3157526"><ele>760.2</ele><time>2026-05-02T17:10:58.293Z</time></trkpt><trkpt lat="42.3393866" lon="13.3157628"><ele>759.6</ele><time>2026-05-02T17:10:59.279Z</time></trkpt><trkpt lat="42.3394892" lon="13.3157702"><ele>759.0</ele><time>2026-05-02T17:11:00.278Z</time></trkpt><trkpt lat="42.3395887" lon="13.3157914"><ele>759.0</ele><time>2026-05-02T17:11:01.284Z</time></trkpt><trkpt lat="42.3396983" lon="13.3158062"><ele>759.0</ele><time>2026-05-02T17:11:02.277Z</time></trkpt><trkpt lat="42.3398035" lon="13.3158062"><ele>759.0</ele><time>2026-05-02T17:11:03.278Z</time></trkpt><trkpt lat="42.3399027" lon="13.3157977"><ele>759.0</ele><time>2026-05-02T17:11:04.278Z</time></trkpt><trkpt lat="42.3399954" lon="13.3157936"><ele>759.0</ele><time>2026-05-02T17:11:05.275Z</time></trkpt><trkpt lat="42.3400673" lon="13.3157896"><ele>758.1666666666666</ele><time>2026-05-02T17:11:06.272Z</time></trkpt><trkpt lat="42.3401448" lon="13.3157821"><ele>757.3333333333334</ele><time>2026-05-02T17:11:07.277Z</time></trkpt><trkpt lat="42.3402314" lon="13.3157959"><ele>756.5</ele><time>2026-05-02T17:11:08.286Z</time></trkpt><trkpt lat="42.3403124" lon="13.3158104"><ele>755.6666666666667</ele><time>2026-05-02T17:11:09.281Z</time></trkpt><trkpt lat="42.3403855" lon="13.3158378"><ele>754.8333333333334</ele><time>2026-05-02T17:11:10.289Z</time></trkpt><trkpt lat="42.3404684" lon="13.3158312"><ele>754.0</ele><time>2026-05-02T17:11:11.282Z</time></trkpt><trkpt lat="42.3405518" lon="13.3158449"><ele>753.5</ele><time>2026-05-02T17:11:12.28Z</time></trkpt><trkpt lat="42.3406376" lon="13.3158743"><ele>753.0</ele><time>2026-05-02T17:11:13.279Z</time></trkpt><trkpt lat="42.3407169" lon="13.3158915"><ele>752.5</ele><time>2026-05-02T17:11:14.282Z</time></trkpt><trkpt lat="42.3407956" lon="13.3159088"><ele>752.0</ele><time>2026-05-02T17:11:15.279Z</time></trkpt><trkpt lat="42.3408663" lon="13.31592"><ele>751.5</ele><time>2026-05-02T17:11:16.281Z</time></trkpt><trkpt lat="42.3409433" lon="13.3159308"><ele>751.0</ele><time>2026-05-02T17:11:17.278Z</time></trkpt><trkpt lat="42.3410259" lon="13.3159455"><ele>751.0</ele><time>2026-05-02T17:11:18.282Z</time></trkpt><trkpt lat="42.3411284" lon="13.3159572"><ele>751.0</ele><time>2026-05-02T17:11:19.275Z</time></trkpt><trkpt lat="42.341227" lon="13.3159644"><ele>751.0</ele><time>2026-05-02T17:11:20.274Z</time></trkpt><trkpt lat="42.3413082" lon="13.3159773"><ele>751.0</ele><time>2026-05-02T17:11:21.272Z</time></trkpt><trkpt lat="42.341385" lon="13.3160035"><ele>751.0</ele><time>2026-05-02T17:11:22.269Z</time></trkpt><trkpt lat="42.3414599" lon="13.3160069"><ele>751.0</ele><time>2026-05-02T17:11:23.271Z</time></trkpt><trkpt lat="42.3415365" lon="13.3160078"><ele>749.1666666666667</ele><time>2026-05-02T17:11:24.275Z</time></trkpt><trkpt lat="42.3416175" lon="13.3160042"><ele>747.3333333333334</ele><time>2026-05-02T17:11:25.276Z</time></trkpt><trkpt lat="42.3417053" lon="13.3160045"><ele>745.5</ele><time>2026-05-02T17:11:26.28Z</time></trkpt><trkpt lat="42.3417943" lon="13.3159932"><ele>743.6666666666666</ele><time>2026-05-02T17:11:27.277Z</time></trkpt><trkpt lat="42.341885" lon="13.3159763"><ele>741.8333333333333</ele><time>2026-05-02T17:11:28.282Z</time></trkpt><trkpt lat="42.3419627" lon="13.3159798"><ele>740.0</ele><time>2026-05-02T17:11:29.277Z</time></trkpt><trkpt lat="42.3420438" lon="13.3159791"><ele>740.0</ele><time>2026-05-02T17:11:30.286Z</time></trkpt><trkpt lat="42.3421345" lon="13.3159937"><ele>740.0</ele><time>2026-05-02T17:11:31.281Z</time></trkpt><trkpt lat="42.3422242" lon="13.3160126"><ele>740.0</ele><time>2026-05-02T17:11:32.279Z</time></trkpt><trkpt lat="42.342311" lon="13.3160201"><ele>740.0</ele><time>2026-05-02T17:11:33.28Z</time></trkpt><trkpt lat="42.3423887" lon="13.316022"><ele>740.0</ele><time>2026-05-02T17:11:34.279Z</time></trkpt><trkpt lat="42.3424513" lon="13.3159877"><ele>740.0</ele><time>2026-05-02T17:11:35.279Z</time></trkpt><trkpt lat="42.3425128" lon="13.3159554"><ele>739.5</ele><time>2026-05-02T17:11:36.272Z</time></trkpt><trkpt lat="42.3425716" lon="13.3159082"><ele>739.0</ele><time>2026-05-02T17:11:37.272Z</time></trkpt><trkpt lat="42.3426382" lon="13.3158389"><ele>738.5</ele><time>2026-05-02T17:11:38.277Z</time></trkpt><trkpt lat="42.3426889" lon="13.3157616"><ele>738.0</ele><time>2026-05-02T17:11:39.277Z</time></trkpt><trkpt lat="42.3427433" lon="13.3156989"><ele>737.5</ele><time>2026-05-02T17:11:40.276Z</time></trkpt><trkpt lat="42.3428136" lon="13.3156494"><ele>737.0</ele><time>2026-05-02T17:11:41.272Z</time></trkpt><trkpt lat="42.3428991" lon="13.3155819"><ele>735.6666666666666</ele><time>2026-05-02T17:11:42.274Z</time></trkpt><trkpt lat="42.3429868" lon="13.3155154"><ele>734.3333333333333</ele><time>2026-05-02T17:11:43.272Z</time></trkpt><trkpt lat="42.3430683" lon="13.3154622"><ele>733.0</ele><time>2026-05-02T17:11:44.274Z</time></trkpt><trkpt lat="42.3431427" lon="13.3154173"><ele>731.6666666666666</ele><time>2026-05-02T17:11:45.273Z</time></trkpt><trkpt lat="42.3432133" lon="13.3153819"><ele>730.3333333333334</ele><time>2026-05-02T17:11:46.269Z</time></trkpt><trkpt lat="42.3432768" lon="13.3153608"><ele>729.0</ele><time>2026-05-02T17:11:47.274Z</time></trkpt><trkpt lat="42.3433501" lon="13.3153545"><ele>729.0</ele><time>2026-05-02T17:11:48.275Z</time></trkpt><trkpt lat="42.34342" lon="13.3153667"><ele>729.0</ele><time>2026-05-02T17:11:49.266Z</time></trkpt><trkpt lat="42.3434946" lon="13.3153875"><ele>729.0</ele><time>2026-05-02T17:11:50.27Z</time></trkpt><trkpt lat="42.3435771" lon="13.3154189"><ele>729.0</ele><time>2026-05-02T17:11:51.276Z</time></trkpt><trkpt lat="42.343646" lon="13.3154333"><ele>729.0</ele><time>2026-05-02T17:11:52.278Z</time></trkpt><trkpt lat="42.3437195" lon="13.3154721"><ele>729.0</ele><time>2026-05-02T17:11:53.269Z</time></trkpt><trkpt lat="42.3437976" lon="13.3154823"><ele>727.6</ele><time>2026-05-02T17:11:54.273Z</time></trkpt><trkpt lat="42.3438928" lon="13.3154983"><ele>726.2</ele><time>2026-05-02T17:11:55.279Z</time></trkpt><trkpt lat="42.3439871" lon="13.3155112"><ele>724.8000000000001</ele><time>2026-05-02T17:11:56.28Z</time></trkpt><trkpt lat="42.3440999" lon="13.3155153"><ele>723.4000000000001</ele><time>2026-05-02T17:11:57.279Z</time></trkpt><trkpt lat="42.3442077" lon="13.3155111"><ele>722.0</ele><time>2026-05-02T17:11:58.274Z</time></trkpt><trkpt lat="42.3443189" lon="13.3155245"><ele>722.0</ele><time>2026-05-02T17:11:59.274Z</time></trkpt><trkpt lat="42.3444303" lon="13.3155348"><ele>722.0</ele><time>2026-05-02T17:12:00.276Z</time></trkpt><trkpt lat="42.3445381" lon="13.3155436"><ele>722.0</ele><time>2026-05-02T17:12:01.276Z</time></trkpt><trkpt lat="42.3446467" lon="13.315548"><ele>722.0</ele><time>2026-05-02T17:12:02.279Z</time></trkpt><trkpt lat="42.3447295" lon="13.3155348"><ele>722.0</ele><time>2026-05-02T17:12:03.273Z</time></trkpt><trkpt lat="42.3448031" lon="13.3155278"><ele>720.8</ele><time>2026-05-02T17:12:04.279Z</time></trkpt><trkpt lat="42.3448972" lon="13.315509"><ele>719.6</ele><time>2026-05-02T17:12:05.279Z</time></trkpt><trkpt lat="42.3449993" lon="13.3154719"><ele>718.4</ele><time>2026-05-02T17:12:06.278Z</time></trkpt><trkpt lat="42.3451026" lon="13.3154307"><ele>717.1999999999999</ele><time>2026-05-02T17:12:07.276Z</time></trkpt><trkpt lat="42.3451966" lon="13.3154115"><ele>716.0</ele><time>2026-05-02T17:12:08.27Z</time></trkpt><trkpt lat="42.3452895" lon="13.3153969"><ele>716.0</ele><time>2026-05-02T17:12:09.271Z</time></trkpt><trkpt lat="42.3453684" lon="13.3153788"><ele>716.0</ele><time>2026-05-02T17:12:10.275Z</time></trkpt><trkpt lat="42.3454407" lon="13.315357"><ele>716.0</ele><time>2026-05-02T17:12:11.272Z</time></trkpt><trkpt lat="42.3455199" lon="13.3153481"><ele>716.0</ele><time>2026-05-02T17:12:12.268Z</time></trkpt><trkpt lat="42.3455945" lon="13.3153656"><ele>716.0</ele><time>2026-05-02T17:12:13.268Z</time></trkpt><trkpt lat="42.34567" lon="13.3154077"><ele>716.0</ele><time>2026-05-02T17:12:14.273Z</time></trkpt><trkpt lat="42.3457454" lon="13.3154614"><ele>715.5999999999999</ele><time>2026-05-02T17:12:15.277Z</time></trkpt><trkpt lat="42.3458332" lon="13.315503"><ele>715.2</ele><time>2026-05-02T17:12:16.269Z</time></trkpt><trkpt lat="42.3459165" lon="13.3155417"><ele>714.8</ele><time>2026-05-02T17:12:17.27Z</time></trkpt><trkpt lat="42.3460146" lon="13.3155794"><ele>714.4000000000001</ele><time>2026-05-02T17:12:18.274Z</time></trkpt><trkpt lat="42.3461107" lon="13.3156149"><ele>714.0</ele><time>2026-05-02T17:12:19.272Z</time></trkpt><trkpt lat="42.3462156" lon="13.3156299"><ele>715.2</ele><time>2026-05-02T17:12:20.259Z</time></trkpt><trkpt lat="42.346323" lon="13.3156445"><ele>716.4000000000001</ele><time>2026-05-02T17:12:21.263Z</time></trkpt><trkpt lat="42.3464309" lon="13.3156502"><ele>717.6</ele><time>2026-05-02T17:12:22.274Z</time></trkpt><trkpt lat="42.3465276" lon="13.3156748"><ele>718.8</ele><time>2026-05-02T17:12:23.262Z</time></trkpt><trkpt lat="42.3466223" lon="13.3156739"><ele>720.0</ele><time>2026-05-02T17:12:24.269Z</time></trkpt><trkpt lat="42.346709" lon="13.3156917"><ele>720.3333333333334</ele><time>2026-05-02T17:12:25.27Z</time></trkpt><trkpt lat="42.3467903" lon="13.3157265"><ele>720.6666666666666</ele><time>2026-05-02T17:12:26.278Z</time></trkpt><trkpt lat="42.3468673" lon="13.3157761"><ele>721.0</ele><time>2026-05-02T17:12:27.271Z</time></trkpt><trkpt lat="42.3469369" lon="13.3158232"><ele>721.3333333333333</ele><time>2026-05-02T17:12:28.277Z</time></trkpt><trkpt lat="42.3470089" lon="13.315901"><ele>721.6666666666666</ele><time>2026-05-02T17:12:29.274Z</time></trkpt><trkpt lat="42.3470823" lon="13.3159867"><ele>722.0</ele><time>2026-05-02T17:12:30.278Z</time></trkpt><trkpt lat="42.3471629" lon="13.3160673"><ele>721.5</ele><time>2026-05-02T17:12:31.277Z</time></trkpt><trkpt lat="42.3472398" lon="13.3161512"><ele>721.0</ele><time>2026-05-02T17:12:32.273Z</time></trkpt><trkpt lat="42.3473046" lon="13.316233"><ele>720.5</ele><time>2026-05-02T17:12:33.271Z</time></trkpt><trkpt lat="42.347365" lon="13.316325"><ele>720.0</ele><time>2026-05-02T17:12:34.271Z</time></trkpt><trkpt lat="42.34742" lon="13.3164023"><ele>719.5</ele><time>2026-05-02T17:12:35.273Z</time></trkpt><trkpt lat="42.3474855" lon="13.3164527"><ele>719.0</ele><time>2026-05-02T17:12:36.277Z</time></trkpt><trkpt lat="42.3475614" lon="13.3164978"><ele>719.0</ele><time>2026-05-02T17:12:37.274Z</time></trkpt><trkpt lat="42.3476598" lon="13.316521"><ele>719.0</ele><time>2026-05-02T17:12:38.271Z</time></trkpt><trkpt lat="42.3477493" lon="13.3165329"><ele>719.0</ele><time>2026-05-02T17:12:39.269Z</time></trkpt><trkpt lat="42.3478288" lon="13.3165328"><ele>719.0</ele><time>2026-05-02T17:12:40.281Z</time></trkpt><trkpt lat="42.3479062" lon="13.3165656"><ele>719.0</ele><time>2026-05-02T17:12:41.27Z</time></trkpt><trkpt lat="42.3479797" lon="13.3166146"><ele>719.0</ele><time>2026-05-02T17:12:42.275Z</time></trkpt><trkpt lat="42.3480468" lon="13.3166697"><ele>718.6666666666666</ele><time>2026-05-02T17:12:43.279Z</time></trkpt><trkpt lat="42.348124" lon="13.3167261"><ele>718.3333333333333</ele><time>2026-05-02T17:12:44.283Z</time></trkpt><trkpt lat="42.3482006" lon="13.3167896"><ele>718.0</ele><time>2026-05-02T17:12:45.275Z</time></trkpt><trkpt lat="42.3482816" lon="13.3168461"><ele>717.6666666666666</ele><time>2026-05-02T17:12:46.283Z</time></trkpt><trkpt lat="42.3483494" lon="13.3168992"><ele>717.3333333333334</ele><time>2026-05-02T17:12:47.28Z</time></trkpt><trkpt lat="42.3484269" lon="13.3169324"><ele>717.0</ele><time>2026-05-02T17:12:48.282Z</time></trkpt><trkpt lat="42.3485054" lon="13.31695"><ele>717.0</ele><time>2026-05-02T17:12:49.276Z</time></trkpt><trkpt lat="42.3485807" lon="13.3169521"><ele>717.0</ele><time>2026-05-02T17:12:50.277Z</time></trkpt><trkpt lat="42.3486553" lon="13.3169533"><ele>717.0</ele><time>2026-05-02T17:12:51.277Z</time></trkpt><trkpt lat="42.3487327" lon="13.3169361"><ele>717.0</ele><time>2026-05-02T17:12:52.263Z</time></trkpt><trkpt lat="42.3488113" lon="13.3169285"><ele>717.0</ele><time>2026-05-02T17:12:53.266Z</time></trkpt><trkpt lat="42.3488745" lon="13.3169188"><ele>717.0</ele><time>2026-05-02T17:12:54.266Z</time></trkpt><trkpt lat="42.3489419" lon="13.316946"><ele>717.0</ele><time>2026-05-02T17:12:56.281Z</time></trkpt><trkpt lat="42.3490069" lon="13.3168585"><ele>714.6</ele><time>2026-05-02T17:12:59.282Z</time></trkpt><trkpt lat="42.3490177" lon="13.3167182"><ele>712.2</ele><time>2026-05-02T17:13:01.293Z</time></trkpt><trkpt lat="42.3490906" lon="13.3166712"><ele>709.8</ele><time>2026-05-02T17:13:04.3Z</time></trkpt><trkpt lat="42.3491778" lon="13.3168392"><ele>707.4</ele><time>2026-05-02T17:13:06.283Z</time></trkpt><trkpt lat="42.3492538" lon="13.3169384"><ele>705.0</ele><time>2026-05-02T17:13:07.279Z</time></trkpt><trkpt lat="42.3493397" lon="13.3170276"><ele>705.0</ele><time>2026-05-02T17:13:08.282Z</time></trkpt><trkpt lat="42.3494512" lon="13.317094"><ele>705.0</ele><time>2026-05-02T17:13:09.281Z</time></trkpt><trkpt lat="42.3495824" lon="13.3171744"><ele>705.0</ele><time>2026-05-02T17:13:10.284Z</time></trkpt><trkpt lat="42.3497103" lon="13.3172656"><ele>705.0</ele><time>2026-05-02T17:13:11.285Z</time></trkpt><trkpt lat="42.3498397" lon="13.31738"><ele>702.75</ele><time>2026-05-02T17:13:12.269Z</time></trkpt><trkpt lat="42.3499629" lon="13.3175065"><ele>700.5</ele><time>2026-05-02T17:13:13.271Z</time></trkpt><trkpt lat="42.3500603" lon="13.3176338"><ele>698.25</ele><time>2026-05-02T17:13:14.278Z</time></trkpt><trkpt lat="42.3501515" lon="13.3177574"><ele>696.0</ele><time>2026-05-02T17:13:15.269Z</time></trkpt><trkpt lat="42.3502306" lon="13.3178702"><ele>696.0</ele><time>2026-05-02T17:13:16.283Z</time></trkpt><trkpt lat="42.3503107" lon="13.3179965"><ele>696.0</ele><time>2026-05-02T17:13:17.279Z</time></trkpt><trkpt lat="42.3503952" lon="13.3181309"><ele>696.0</ele><time>2026-05-02T17:13:18.286Z</time></trkpt><trkpt lat="42.3504695" lon="13.318258"><ele>696.0</ele><time>2026-05-02T17:13:19.281Z</time></trkpt><trkpt lat="42.3505492" lon="13.3183777"><ele>694.0</ele><time>2026-05-02T17:13:20.274Z</time></trkpt><trkpt lat="42.3506269" lon="13.3184874"><ele>692.0</ele><time>2026-05-02T17:13:21.273Z</time></trkpt><trkpt lat="42.3507096" lon="13.318583"><ele>690.0</ele><time>2026-05-02T17:13:22.279Z</time></trkpt><trkpt lat="42.3507898" lon="13.3186831"><ele>688.0</ele><time>2026-05-02T17:13:23.268Z</time></trkpt><trkpt lat="42.3508543" lon="13.3187795"><ele>686.0</ele><time>2026-05-02T17:13:24.278Z</time></trkpt><trkpt lat="42.3509192" lon="13.3188771"><ele>685.4</ele><time>2026-05-02T17:13:25.278Z</time></trkpt><trkpt lat="42.3509931" lon="13.3189728"><ele>684.8</ele><time>2026-05-02T17:13:26.287Z</time></trkpt><trkpt lat="42.3510607" lon="13.319063"><ele>684.1999999999999</ele><time>2026-05-02T17:13:27.277Z</time></trkpt><trkpt lat="42.3511276" lon="13.3191487"><ele>683.5999999999999</ele><time>2026-05-02T17:13:28.283Z</time></trkpt><trkpt lat="42.3511898" lon="13.3192426"><ele>683.0</ele><time>2026-05-02T17:13:29.279Z</time></trkpt><trkpt lat="42.3512548" lon="13.3193225"><ele>683.0</ele><time>2026-05-02T17:13:30.276Z</time></trkpt><trkpt lat="42.3513236" lon="13.3194306"><ele>683.0</ele><time>2026-05-02T17:13:31.271Z</time></trkpt><trkpt lat="42.351402" lon="13.3195405"><ele>683.0</ele><time>2026-05-02T17:13:32.273Z</time></trkpt><trkpt lat="42.3515001" lon="13.3196571"><ele>683.0</ele><time>2026-05-02T17:13:33.266Z</time></trkpt><trkpt lat="42.3516247" lon="13.3197647"><ele>683.0</ele><time>2026-05-02T17:13:34.276Z</time></trkpt><trkpt lat="42.3517573" lon="13.3198623"><ele>683.0</ele><time>2026-05-02T17:13:35.279Z</time></trkpt><trkpt lat="42.3519197" lon="13.3199627"><ele>683.0</ele><time>2026-05-02T17:13:36.294Z</time></trkpt><trkpt lat="42.3520468" lon="13.3200845"><ele>683.0</ele><time>2026-05-02T17:13:37.274Z</time></trkpt><trkpt lat="42.3521684" lon="13.3201902"><ele>683.0</ele><time>2026-05-02T17:13:38.282Z</time></trkpt><trkpt lat="42.3522741" lon="13.3202843"><ele>683.0</ele><time>2026-05-02T17:13:39.278Z</time></trkpt><trkpt lat="42.3523798" lon="13.3203927"><ele>683.0</ele><time>2026-05-02T17:13:40.277Z</time></trkpt><trkpt lat="42.3524707" lon="13.3204827"><ele>681.5999999999999</ele><time>2026-05-02T17:13:41.274Z</time></trkpt><trkpt lat="42.352545" lon="13.3205508"><ele>680.1999999999999</ele><time>2026-05-02T17:13:42.267Z</time></trkpt><trkpt lat="42.352609" lon="13.3205938"><ele>678.8</ele><time>2026-05-02T17:13:43.287Z</time></trkpt><trkpt lat="42.3527105" lon="13.3206812"><ele>677.4</ele><time>2026-05-02T17:13:45.292Z</time></trkpt><trkpt lat="42.3528068" lon="13.3207552"><ele>676.0</ele><time>2026-05-02T17:13:47.284Z</time></trkpt><trkpt lat="42.3528705" lon="13.3208609"><ele>676.0</ele><time>2026-05-02T17:13:49.283Z</time></trkpt><trkpt lat="42.3528873" lon="13.3209683"><ele>676.0</ele><time>2026-05-02T17:13:50.29Z</time></trkpt><trkpt lat="42.3528922" lon="13.3211071"><ele>676.0</ele><time>2026-05-02T17:13:51.282Z</time></trkpt><trkpt lat="42.3528872" lon="13.3212592"><ele>676.0</ele><time>2026-05-02T17:13:52.291Z</time></trkpt><trkpt lat="42.3528796" lon="13.3214345"><ele>676.0</ele><time>2026-05-02T17:13:53.286Z</time></trkpt><trkpt lat="42.3528905" lon="13.3216044"><ele>674.5</ele><time>2026-05-02T17:13:54.357Z</time></trkpt><trkpt lat="42.3529166" lon="13.3217601"><ele>673.0</ele><time>2026-05-02T17:13:55.352Z</time></trkpt><trkpt lat="42.3529542" lon="13.3219158"><ele>671.5</ele><time>2026-05-02T17:13:56.362Z</time></trkpt><trkpt lat="42.3530033" lon="13.3220603"><ele>670.0</ele><time>2026-05-02T17:13:57.347Z</time></trkpt><trkpt lat="42.3530598" lon="13.3221931"><ele>669.1666666666667</ele><time>2026-05-02T17:13:58.35Z</time></trkpt><trkpt lat="42.3531058" lon="13.3223177"><ele>668.3333333333334</ele><time>2026-05-02T17:13:59.342Z</time></trkpt><trkpt lat="42.3531444" lon="13.3224315"><ele>667.5</ele><time>2026-05-02T17:14:00.342Z</time></trkpt><trkpt lat="42.3531775" lon="13.3225451"><ele>666.6666666666666</ele><time>2026-05-02T17:14:01.352Z</time></trkpt><trkpt lat="42.3531975" lon="13.322649"><ele>665.8333333333333</ele><time>2026-05-02T17:14:02.356Z</time></trkpt><trkpt lat="42.3532041" lon="13.3227414"><ele>665.0</ele><time>2026-05-02T17:14:03.35Z</time></trkpt><trkpt lat="42.3532161" lon="13.3228431"><ele>665.0</ele><time>2026-05-02T17:14:04.343Z</time></trkpt><trkpt lat="42.3532534" lon="13.3229387"><ele>665.0</ele><time>2026-05-02T17:14:05.346Z</time></trkpt><trkpt lat="42.3533119" lon="13.3230335"><ele>665.0</ele><time>2026-05-02T17:14:06.353Z</time></trkpt><trkpt lat="42.3533812" lon="13.3231612"><ele>665.0</ele><time>2026-05-02T17:14:07.261Z</time></trkpt><trkpt lat="42.3534749" lon="13.3232732"><ele>665.0</ele><time>2026-05-02T17:14:08.267Z</time></trkpt><trkpt lat="42.3535449" lon="13.323425"><ele>664.4</ele><time>2026-05-02T17:14:09.27Z</time></trkpt><trkpt lat="42.3536032" lon="13.3235693"><ele>663.8</ele><time>2026-05-02T17:14:10.269Z</time></trkpt><trkpt lat="42.3536503" lon="13.3236874"><ele>663.2</ele><time>2026-05-02T17:14:11.267Z</time></trkpt><trkpt lat="42.3537046" lon="13.3237794"><ele>662.6</ele><time>2026-05-02T17:14:12.277Z</time></trkpt><trkpt lat="42.3537504" lon="13.3238721"><ele>662.0</ele><time>2026-05-02T17:14:13.276Z</time></trkpt><trkpt lat="42.3537855" lon="13.3239494"><ele>661.8571428571429</ele><time>2026-05-02T17:14:14.272Z</time></trkpt><trkpt lat="42.3538113" lon="13.3240339"><ele>661.7142857142857</ele><time>2026-05-02T17:14:15.274Z</time></trkpt><trkpt lat="42.3538465" lon="13.3241116"><ele>661.5714285714286</ele><time>2026-05-02T17:14:16.274Z</time></trkpt><trkpt lat="42.3538831" lon="13.3241921"><ele>661.4285714285714</ele><time>2026-05-02T17:14:17.277Z</time></trkpt><trkpt lat="42.3539169" lon="13.3242657"><ele>661.2857142857143</ele><time>2026-05-02T17:14:18.277Z</time></trkpt><trkpt lat="42.3539532" lon="13.3243395"><ele>661.1428571428571</ele><time>2026-05-02T17:14:19.276Z</time></trkpt><trkpt lat="42.3539861" lon="13.3244123"><ele>661.0</ele><time>2026-05-02T17:14:20.273Z</time></trkpt><trkpt lat="42.3540455" lon="13.3245421"><ele>661.0</ele><time>2026-05-02T17:14:22.274Z</time></trkpt><trkpt lat="42.3540954" lon="13.3246336"><ele>661.0</ele><time>2026-05-02T17:14:24.275Z</time></trkpt><trkpt lat="42.3541671" lon="13.324635"><ele>661.0</ele><time>2026-05-02T17:14:26.277Z</time></trkpt><trkpt lat="42.3541961" lon="13.3245335"><ele>661.0</ele><time>2026-05-02T17:14:31.283Z</time></trkpt><trkpt lat="42.3541583" lon="13.324428"><ele>661.0</ele><time>2026-05-02T17:17:34.308Z</time></trkpt><trkpt lat="42.3541195" lon="13.324351"><ele>661.0</ele><time>2026-05-02T17:20:28.285Z</time></trkpt><trkpt lat="42.3540682" lon="13.3244262"><ele>661.0</ele><time>2026-05-02T17:20:32.287Z</time></trkpt><trkpt lat="42.3540609" lon="13.3245533"><ele>661.0</ele><time>2026-05-02T17:20:49.29Z</time></trkpt><trkpt lat="42.3541087" lon="13.3247152"><ele>661.0</ele><time>2026-05-02T17:20:51.283Z</time></trkpt><trkpt lat="42.3541469" lon="13.3248002"><ele>661.0</ele><time>2026-05-02T17:20:52.282Z</time></trkpt><trkpt lat="42.3541907" lon="13.3248946"><ele>661.0</ele><time>2026-05-02T17:20:53.282Z</time></trkpt><trkpt lat="42.3542404" lon="13.3250042"><ele>660.1999999999999</ele><time>2026-05-02T17:20:54.285Z</time></trkpt><trkpt lat="42.3542947" lon="13.3251117"><ele>659.4</ele><time>2026-05-02T17:20:55.288Z</time></trkpt><trkpt lat="42.3543433" lon="13.3252238"><ele>658.6</ele><time>2026-05-02T17:20:56.284Z</time></trkpt><trkpt lat="42.3543992" lon="13.3253313"><ele>657.8</ele><time>2026-05-02T17:20:57.285Z</time></trkpt><trkpt lat="42.3544614" lon="13.3254411"><ele>657.0</ele><time>2026-05-02T17:20:58.285Z</time></trkpt><trkpt lat="42.354531" lon="13.3255536"><ele>656.5</ele><time>2026-05-02T17:20:59.282Z</time></trkpt><trkpt lat="42.3545973" lon="13.3256779"><ele>656.0</ele><time>2026-05-02T17:21:00.285Z</time></trkpt><trkpt lat="42.3546678" lon="13.3258151"><ele>655.5</ele><time>2026-05-02T17:21:01.281Z</time></trkpt><trkpt lat="42.3547376" lon="13.3259409"><ele>655.0</ele><time>2026-05-02T17:21:02.281Z</time></trkpt><trkpt lat="42.354813" lon="13.3260817"><ele>655.0</ele><time>2026-05-02T17:21:03.28Z</time></trkpt><trkpt lat="42.3548773" lon="13.3262192"><ele>655.0</ele><time>2026-05-02T17:21:04.287Z</time></trkpt><trkpt lat="42.3549362" lon="13.3263657"><ele>655.0</ele><time>2026-05-02T17:21:05.281Z</time></trkpt><trkpt lat="42.354996" lon="13.3264934"><ele>655.0</ele><time>2026-05-02T17:21:06.283Z</time></trkpt><trkpt lat="42.355064" lon="13.3266133"><ele>655.0</ele><time>2026-05-02T17:21:07.281Z</time></trkpt><trkpt lat="42.3551336" lon="13.326739"><ele>655.0</ele><time>2026-05-02T17:21:08.281Z</time></trkpt><trkpt lat="42.3552146" lon="13.326854"><ele>655.0</ele><time>2026-05-02T17:21:09.282Z</time></trkpt><trkpt lat="42.3552981" lon="13.3269693"><ele>655.0</ele><time>2026-05-02T17:21:10.287Z</time></trkpt><trkpt lat="42.3553917" lon="13.327093"><ele>654.75</ele><time>2026-05-02T17:21:11.285Z</time></trkpt><trkpt lat="42.3554752" lon="13.3272288"><ele>654.5</ele><time>2026-05-02T17:21:12.285Z</time></trkpt><trkpt lat="42.3555519" lon="13.3273735"><ele>654.25</ele><time>2026-05-02T17:21:13.304Z</time></trkpt><trkpt lat="42.3556291" lon="13.3275193"><ele>654.0</ele><time>2026-05-02T17:21:14.371Z</time></trkpt><trkpt lat="42.355704" lon="13.3276641"><ele>653.75</ele><time>2026-05-02T17:21:15.371Z</time></trkpt><trkpt lat="42.3557806" lon="13.3278097"><ele>653.5</ele><time>2026-05-02T17:21:16.374Z</time></trkpt><trkpt lat="42.3558615" lon="13.3279555"><ele>653.25</ele><time>2026-05-02T17:21:17.375Z</time></trkpt><trkpt lat="42.3559387" lon="13.3281044"><ele>653.0</ele><time>2026-05-02T17:21:18.377Z</time></trkpt><trkpt lat="42.3560149" lon="13.328255"><ele>652.75</ele><time>2026-05-02T17:21:19.375Z</time></trkpt><trkpt lat="42.3560919" lon="13.328407"><ele>652.5</ele><time>2026-05-02T17:21:20.374Z</time></trkpt><trkpt lat="42.3561648" lon="13.3285607"><ele>652.25</ele><time>2026-05-02T17:21:21.368Z</time></trkpt><trkpt lat="42.3562228" lon="13.3287072"><ele>652.0</ele><time>2026-05-02T17:21:22.366Z</time></trkpt><trkpt lat="42.3562546" lon="13.3288683"><ele>651.5</ele><time>2026-05-02T17:21:23.362Z</time></trkpt><trkpt lat="42.3562507" lon="13.329038"><ele>651.0</ele><time>2026-05-02T17:21:24.362Z</time></trkpt><trkpt lat="42.3562479" lon="13.3292291"><ele>650.5</ele><time>2026-05-02T17:21:25.354Z</time></trkpt><trkpt lat="42.3562097" lon="13.329403"><ele>650.0</ele><time>2026-05-02T17:21:26.356Z</time></trkpt><trkpt lat="42.3561709" lon="13.3295845"><ele>650.5</ele><time>2026-05-02T17:21:27.355Z</time></trkpt><trkpt lat="42.3561325" lon="13.3297698"><ele>651.0</ele><time>2026-05-02T17:21:28.354Z</time></trkpt><trkpt lat="42.3560929" lon="13.3299545"><ele>651.5</ele><time>2026-05-02T17:21:29.372Z</time></trkpt><trkpt lat="42.3560553" lon="13.330138"><ele>652.0</ele><time>2026-05-02T17:21:30.373Z</time></trkpt><trkpt lat="42.3560157" lon="13.3303182"><ele>652.0</ele><time>2026-05-02T17:21:31.368Z</time></trkpt><trkpt lat="42.3559743" lon="13.3304988"><ele>652.0</ele><time>2026-05-02T17:21:32.369Z</time></trkpt><trkpt lat="42.3559369" lon="13.3306804"><ele>652.0</ele><time>2026-05-02T17:21:33.367Z</time></trkpt><trkpt lat="42.3559063" lon="13.3308618"><ele>652.0</ele><time>2026-05-02T17:21:34.365Z</time></trkpt><trkpt lat="42.3558829" lon="13.3310482"><ele>652.0</ele><time>2026-05-02T17:21:35.366Z</time></trkpt><trkpt lat="42.3558646" lon="13.3312416"><ele>652.0</ele><time>2026-05-02T17:21:36.365Z</time></trkpt><trkpt lat="42.35585" lon="13.3314361"><ele>652.0</ele><time>2026-05-02T17:21:37.369Z</time></trkpt><trkpt lat="42.3558381" lon="13.3316302"><ele>652.0</ele><time>2026-05-02T17:21:38.368Z</time></trkpt><trkpt lat="42.3558252" lon="13.3318209"><ele>652.0</ele><time>2026-05-02T17:21:39.367Z</time></trkpt><trkpt lat="42.3558101" lon="13.3320136"><ele>652.0</ele><time>2026-05-02T17:21:40.366Z</time></trkpt><trkpt lat="42.3557944" lon="13.3322044"><ele>652.0</ele><time>2026-05-02T17:21:41.365Z</time></trkpt><trkpt lat="42.3557826" lon="13.3323959"><ele>652.0</ele><time>2026-05-02T17:21:42.368Z</time></trkpt><trkpt lat="42.3557686" lon="13.3325875"><ele>651.0</ele><time>2026-05-02T17:21:43.369Z</time></trkpt><trkpt lat="42.3557553" lon="13.3327796"><ele>650.0</ele><time>2026-05-02T17:21:44.37Z</time></trkpt><trkpt lat="42.3557416" lon="13.3329683"><ele>649.0</ele><time>2026-05-02T17:21:45.365Z</time></trkpt><trkpt lat="42.3557278" lon="13.3331583"><ele>648.0</ele><time>2026-05-02T17:21:46.369Z</time></trkpt><trkpt lat="42.3557152" lon="13.3333539"><ele>647.75</ele><time>2026-05-02T17:21:47.362Z</time></trkpt><trkpt lat="42.355705" lon="13.3335384"><ele>647.5</ele><time>2026-05-02T17:21:48.371Z</time></trkpt><trkpt lat="42.3556919" lon="13.3337245"><ele>647.25</ele><time>2026-05-02T17:21:49.367Z</time></trkpt><trkpt lat="42.3556799" lon="13.3339114"><ele>647.0</ele><time>2026-05-02T17:21:50.365Z</time></trkpt><trkpt lat="42.3556657" lon="13.3341002"><ele>646.75</ele><time>2026-05-02T17:21:51.365Z</time></trkpt><trkpt lat="42.3556561" lon="13.3342877"><ele>646.5</ele><time>2026-05-02T17:21:52.365Z</time></trkpt><trkpt lat="42.3556532" lon="13.3344657"><ele>646.25</ele><time>2026-05-02T17:21:53.365Z</time></trkpt><trkpt lat="42.3556669" lon="13.3346307"><ele>646.0</ele><time>2026-05-02T17:21:54.357Z</time></trkpt><trkpt lat="42.3556945" lon="13.334786"><ele>645.1999999999999</ele><time>2026-05-02T17:21:55.362Z</time></trkpt><trkpt lat="42.355727" lon="13.3349292"><ele>644.4</ele><time>2026-05-02T17:21:56.35Z</time></trkpt><trkpt lat="42.3557598" lon="13.3350564"><ele>643.6</ele><time>2026-05-02T17:21:57.344Z</time></trkpt><trkpt lat="42.355794" lon="13.3351688"><ele>642.8</ele><time>2026-05-02T17:21:58.352Z</time></trkpt><trkpt lat="42.3558239" lon="13.3352674"><ele>642.0</ele><time>2026-05-02T17:21:59.347Z</time></trkpt><trkpt lat="42.3558641" lon="13.3353499"><ele>642.0</ele><time>2026-05-02T17:22:00.362Z</time></trkpt><trkpt lat="42.3559255" lon="13.3354028"><ele>642.0</ele><time>2026-05-02T17:22:01.35Z</time></trkpt><trkpt lat="42.3560019" lon="13.3354559"><ele>642.0</ele><time>2026-05-02T17:22:02.345Z</time></trkpt><trkpt lat="42.3560845" lon="13.3355078"><ele>642.0</ele><time>2026-05-02T17:22:03.262Z</time></trkpt><trkpt lat="42.3561759" lon="13.3355863"><ele>642.0</ele><time>2026-05-02T17:22:04.261Z</time></trkpt><trkpt lat="42.3562692" lon="13.3356812"><ele>641.5</ele><time>2026-05-02T17:22:05.262Z</time></trkpt><trkpt lat="42.3563679" lon="13.3357903"><ele>641.0</ele><time>2026-05-02T17:22:06.28Z</time></trkpt><trkpt lat="42.3564815" lon="13.3358839"><ele>640.5</ele><time>2026-05-02T17:22:07.277Z</time></trkpt><trkpt lat="42.3565888" lon="13.3359816"><ele>640.0</ele><time>2026-05-02T17:22:08.281Z</time></trkpt><trkpt lat="42.3566881" lon="13.336081"><ele>640.2</ele><time>2026-05-02T17:22:09.278Z</time></trkpt><trkpt lat="42.3567809" lon="13.336167"><ele>640.4</ele><time>2026-05-02T17:22:10.279Z</time></trkpt><trkpt lat="42.3568676" lon="13.3362547"><ele>640.5999999999999</ele><time>2026-05-02T17:22:11.276Z</time></trkpt><trkpt lat="42.3569431" lon="13.3363256"><ele>640.8</ele><time>2026-05-02T17:22:12.281Z</time></trkpt><trkpt lat="42.3570061" lon="13.3364051"><ele>641.0</ele><time>2026-05-02T17:22:13.277Z</time></trkpt><trkpt lat="42.3570618" lon="13.3364768"><ele>641.0</ele><time>2026-05-02T17:22:14.274Z</time></trkpt><trkpt lat="42.3570853" lon="13.3366328"><ele>641.0</ele><time>2026-05-02T17:22:16.276Z</time></trkpt><trkpt lat="42.3570557" lon="13.3367333"><ele>641.0</ele><time>2026-05-02T17:22:17.274Z</time></trkpt><trkpt lat="42.357026" lon="13.3368496"><ele>641.0</ele><time>2026-05-02T17:22:18.282Z</time></trkpt><trkpt lat="42.3569901" lon="13.336978"><ele>641.0</ele><time>2026-05-02T17:22:19.282Z</time></trkpt><trkpt lat="42.3569606" lon="13.3371092"><ele>641.1999999999999</ele><time>2026-05-02T17:22:20.283Z</time></trkpt><trkpt lat="42.3569339" lon="13.3372435"><ele>641.4</ele><time>2026-05-02T17:22:21.276Z</time></trkpt><trkpt lat="42.356908" lon="13.3373897"><ele>641.6</ele><time>2026-05-02T17:22:22.281Z</time></trkpt><trkpt lat="42.3568874" lon="13.3375288"><ele>641.8</ele><time>2026-05-02T17:22:23.278Z</time></trkpt><trkpt lat="42.3568598" lon="13.3376797"><ele>642.0</ele><time>2026-05-02T17:22:24.278Z</time></trkpt><trkpt lat="42.3568247" lon="13.337833"><ele>642.0</ele><time>2026-05-02T17:22:25.276Z</time></trkpt><trkpt lat="42.3567952" lon="13.3379891"><ele>642.0</ele><time>2026-05-02T17:22:26.28Z</time></trkpt><trkpt lat="42.3567585" lon="13.3381599"><ele>642.0</ele><time>2026-05-02T17:22:27.275Z</time></trkpt><trkpt lat="42.3567203" lon="13.3383448"><ele>642.0</ele><time>2026-05-02T17:22:28.288Z</time></trkpt><trkpt lat="42.3566875" lon="13.3385258"><ele>642.3333333333334</ele><time>2026-05-02T17:22:29.278Z</time></trkpt><trkpt lat="42.3566423" lon="13.338713"><ele>642.6666666666667</ele><time>2026-05-02T17:22:30.281Z</time></trkpt><trkpt lat="42.3566119" lon="13.338915"><ele>643.0</ele><time>2026-05-02T17:22:31.276Z</time></trkpt><trkpt lat="42.3565608" lon="13.3391432"><ele>643.0</ele><time>2026-05-02T17:22:32.278Z</time></trkpt><trkpt lat="42.3565124" lon="13.3393642"><ele>643.0</ele><time>2026-05-02T17:22:33.278Z</time></trkpt><trkpt lat="42.35648" lon="13.3395832"><ele>643.0</ele><time>2026-05-02T17:22:34.278Z</time></trkpt><trkpt lat="42.3564461" lon="13.339807"><ele>643.3333333333334</ele><time>2026-05-02T17:22:35.278Z</time></trkpt><trkpt lat="42.356403" lon="13.3400447"><ele>643.6666666666666</ele><time>2026-05-02T17:22:36.278Z</time></trkpt><trkpt lat="42.3563546" lon="13.3402823"><ele>644.0</ele><time>2026-05-02T17:22:37.277Z</time></trkpt><trkpt lat="42.356301" lon="13.340528"><ele>642.3333333333333</ele><time>2026-05-02T17:22:38.275Z</time></trkpt><trkpt lat="42.3562575" lon="13.3407577"><ele>640.6666666666666</ele><time>2026-05-02T17:22:39.277Z</time></trkpt><trkpt lat="42.3562152" lon="13.34098"><ele>639.0</ele><time>2026-05-02T17:22:40.278Z</time></trkpt><trkpt lat="42.3561526" lon="13.3412194"><ele>639.0</ele><time>2026-05-02T17:22:41.275Z</time></trkpt><trkpt lat="42.3561075" lon="13.3414579"><ele>639.0</ele><time>2026-05-02T17:22:42.274Z</time></trkpt><trkpt lat="42.3560688" lon="13.3416959"><ele>639.0</ele><time>2026-05-02T17:22:43.277Z</time></trkpt><trkpt lat="42.3560293" lon="13.3419453"><ele>639.0</ele><time>2026-05-02T17:22:44.275Z</time></trkpt><trkpt lat="42.355975" lon="13.3421995"><ele>639.0</ele><time>2026-05-02T17:22:45.277Z</time></trkpt><trkpt lat="42.3559173" lon="13.3424586"><ele>639.0</ele><time>2026-05-02T17:22:46.282Z</time></trkpt><trkpt lat="42.3558721" lon="13.3427143"><ele>638.6666666666666</ele><time>2026-05-02T17:22:47.273Z</time></trkpt><trkpt lat="42.3558306" lon="13.3429631"><ele>638.3333333333333</ele><time>2026-05-02T17:22:48.283Z</time></trkpt><trkpt lat="42.3557869" lon="13.3431987"><ele>638.0</ele><time>2026-05-02T17:22:49.275Z</time></trkpt><trkpt lat="42.3557701" lon="13.3434458"><ele>638.0</ele><time>2026-05-02T17:22:50.279Z</time></trkpt><trkpt lat="42.3557674" lon="13.3436877"><ele>638.0</ele><time>2026-05-02T17:22:51.271Z</time></trkpt><trkpt lat="42.3557773" lon="13.3439468"><ele>638.0</ele><time>2026-05-02T17:22:52.27Z</time></trkpt><trkpt lat="42.3558053" lon="13.3442099"><ele>637.0</ele><time>2026-05-02T17:22:53.276Z</time></trkpt><trkpt lat="42.3558539" lon="13.3444753"><ele>636.0</ele><time>2026-05-02T17:22:54.276Z</time></trkpt><trkpt lat="42.3559122" lon="13.3447306"><ele>635.0</ele><time>2026-05-02T17:22:55.277Z</time></trkpt><trkpt lat="42.3559725" lon="13.3449641"><ele>634.0</ele><time>2026-05-02T17:22:56.279Z</time></trkpt><trkpt lat="42.3560192" lon="13.345192"><ele>633.0</ele><time>2026-05-02T17:22:57.275Z</time></trkpt><trkpt lat="42.3560681" lon="13.3454022"><ele>632.0</ele><time>2026-05-02T17:22:58.281Z</time></trkpt><trkpt lat="42.3561188" lon="13.3456034"><ele>632.0</ele><time>2026-05-02T17:22:59.277Z</time></trkpt><trkpt lat="42.3561568" lon="13.3458012"><ele>632.0</ele><time>2026-05-02T17:23:00.288Z</time></trkpt><trkpt lat="42.3562077" lon="13.3460021"><ele>632.0</ele><time>2026-05-02T17:23:01.283Z</time></trkpt><trkpt lat="42.3562476" lon="13.3462172"><ele>632.0</ele><time>2026-05-02T17:23:02.283Z</time></trkpt><trkpt lat="42.356291" lon="13.3464212"><ele>632.0</ele><time>2026-05-02T17:23:03.281Z</time></trkpt><trkpt lat="42.3563435" lon="13.346623"><ele>632.0</ele><time>2026-05-02T17:23:04.281Z</time></trkpt><trkpt lat="42.3563926" lon="13.3468262"><ele>633.6666666666666</ele><time>2026-05-02T17:23:05.281Z</time></trkpt><trkpt lat="42.3564453" lon="13.3470358"><ele>635.3333333333334</ele><time>2026-05-02T17:23:06.282Z</time></trkpt><trkpt lat="42.3564946" lon="13.3472372"><ele>637.0</ele><time>2026-05-02T17:23:07.282Z</time></trkpt><trkpt lat="42.3565392" lon="13.3474409"><ele>637.0</ele><time>2026-05-02T17:23:08.284Z</time></trkpt><trkpt lat="42.3565842" lon="13.34765"><ele>637.0</ele><time>2026-05-02T17:23:09.278Z</time></trkpt><trkpt lat="42.3566241" lon="13.3478417"><ele>637.0</ele><time>2026-05-02T17:23:10.28Z</time></trkpt><trkpt lat="42.3566693" lon="13.3480219"><ele>637.0</ele><time>2026-05-02T17:23:11.278Z</time></trkpt><trkpt lat="42.3567181" lon="13.3481818"><ele>636.25</ele><time>2026-05-02T17:23:12.28Z</time></trkpt><trkpt lat="42.3567629" lon="13.3483518"><ele>635.5</ele><time>2026-05-02T17:23:13.293Z</time></trkpt><trkpt lat="42.3568101" lon="13.348522"><ele>634.75</ele><time>2026-05-02T17:23:14.287Z</time></trkpt><trkpt lat="42.3568536" lon="13.34868"><ele>634.0</ele><time>2026-05-02T17:23:15.289Z</time></trkpt><trkpt lat="42.3568836" lon="13.3488279"><ele>633.8</ele><time>2026-05-02T17:23:16.293Z</time></trkpt><trkpt lat="42.3569189" lon="13.3489655"><ele>633.5999999999999</ele><time>2026-05-02T17:23:17.292Z</time></trkpt><trkpt lat="42.3569382" lon="13.349095"><ele>633.4</ele><time>2026-05-02T17:23:18.294Z</time></trkpt><trkpt lat="42.3569638" lon="13.3492267"><ele>633.1999999999999</ele><time>2026-05-02T17:23:19.293Z</time></trkpt><trkpt lat="42.3569828" lon="13.3493479"><ele>633.0</ele><time>2026-05-02T17:23:20.29Z</time></trkpt><trkpt lat="42.3569816" lon="13.3494673"><ele>633.0</ele><time>2026-05-02T17:23:21.287Z</time></trkpt><trkpt lat="42.3569551" lon="13.3495721"><ele>633.0</ele><time>2026-05-02T17:23:22.283Z</time></trkpt><trkpt lat="42.3569207" lon="13.3496658"><ele>633.0</ele><time>2026-05-02T17:23:23.291Z</time></trkpt><trkpt lat="42.3568911" lon="13.3497779"><ele>633.0</ele><time>2026-05-02T17:23:24.281Z</time></trkpt><trkpt lat="42.3568794" lon="13.3499024"><ele>633.0</ele><time>2026-05-02T17:23:25.276Z</time></trkpt><trkpt lat="42.3568877" lon="13.3500179"><ele>633.0</ele><time>2026-05-02T17:23:26.275Z</time></trkpt><trkpt lat="42.3569252" lon="13.3501212"><ele>633.1666666666666</ele><time>2026-05-02T17:23:27.272Z</time></trkpt><trkpt lat="42.3569696" lon="13.3502003"><ele>633.3333333333334</ele><time>2026-05-02T17:23:28.275Z</time></trkpt><trkpt lat="42.3570233" lon="13.350252"><ele>633.5</ele><time>2026-05-02T17:23:29.281Z</time></trkpt><trkpt lat="42.3570984" lon="13.3503228"><ele>633.6666666666667</ele><time>2026-05-02T17:23:31.278Z</time></trkpt><trkpt lat="42.3571918" lon="13.3503524"><ele>633.8333333333334</ele><time>2026-05-02T17:23:35.285Z</time></trkpt><trkpt lat="42.3572553" lon="13.3503391"><ele>634.0</ele><time>2026-05-02T17:23:36.287Z</time></trkpt><trkpt lat="42.3573362" lon="13.3503321"><ele>634.0</ele><time>2026-05-02T17:23:37.279Z</time></trkpt><trkpt lat="42.3574369" lon="13.3503139"><ele>634.0</ele><time>2026-05-02T17:23:38.277Z</time></trkpt><trkpt lat="42.3575435" lon="13.3503343"><ele>634.0</ele><time>2026-05-02T17:23:39.278Z</time></trkpt><trkpt lat="42.3576492" lon="13.3503882"><ele>634.0</ele><time>2026-05-02T17:23:40.282Z</time></trkpt><trkpt lat="42.3577465" lon="13.3504934"><ele>634.0</ele><time>2026-05-02T17:23:41.279Z</time></trkpt><trkpt lat="42.3578375" lon="13.3506059"><ele>633.4</ele><time>2026-05-02T17:23:42.281Z</time></trkpt><trkpt lat="42.3579157" lon="13.3507116"><ele>632.8</ele><time>2026-05-02T17:23:43.281Z</time></trkpt><trkpt lat="42.3579949" lon="13.3508245"><ele>632.2</ele><time>2026-05-02T17:23:44.283Z</time></trkpt><trkpt lat="42.3580703" lon="13.3509344"><ele>631.6</ele><time>2026-05-02T17:23:45.282Z</time></trkpt><trkpt lat="42.3581392" lon="13.3510435"><ele>631.0</ele><time>2026-05-02T17:23:46.284Z</time></trkpt><trkpt lat="42.3582058" lon="13.3511509"><ele>630.6</ele><time>2026-05-02T17:23:47.283Z</time></trkpt><trkpt lat="42.3582683" lon="13.3512607"><ele>630.2</ele><time>2026-05-02T17:23:48.285Z</time></trkpt><trkpt lat="42.3583279" lon="13.3513674"><ele>629.8</ele><time>2026-05-02T17:23:49.285Z</time></trkpt><trkpt lat="42.3583775" lon="13.3514736"><ele>629.4</ele><time>2026-05-02T17:23:50.284Z</time></trkpt><trkpt lat="42.3584325" lon="13.3515713"><ele>629.0</ele><time>2026-05-02T17:23:51.287Z</time></trkpt><trkpt lat="42.3584834" lon="13.3516719"><ele>628.8571428571428</ele><time>2026-05-02T17:23:52.288Z</time></trkpt><trkpt lat="42.358528" lon="13.3517691"><ele>628.7142857142858</ele><time>2026-05-02T17:23:53.305Z</time></trkpt><trkpt lat="42.3585704" lon="13.3518513"><ele>628.5714285714286</ele><time>2026-05-02T17:23:54.296Z</time></trkpt><trkpt lat="42.3586101" lon="13.3519251"><ele>628.4285714285713</ele><time>2026-05-02T17:23:55.297Z</time></trkpt><trkpt lat="42.3586418" lon="13.3520076"><ele>628.2857142857142</ele><time>2026-05-02T17:23:56.297Z</time></trkpt><trkpt lat="42.3586709" lon="13.3520866"><ele>628.1428571428571</ele><time>2026-05-02T17:23:57.304Z</time></trkpt><trkpt lat="42.3586912" lon="13.352175"><ele>628.0</ele><time>2026-05-02T17:23:58.294Z</time></trkpt><trkpt lat="42.3587011" lon="13.3522748"><ele>628.0</ele><time>2026-05-02T17:23:59.287Z</time></trkpt><trkpt lat="42.3586971" lon="13.3523931"><ele>628.0</ele><time>2026-05-02T17:24:00.3Z</time></trkpt><trkpt lat="42.358702" lon="13.3525163"><ele>628.0</ele><time>2026-05-02T17:24:01.292Z</time></trkpt><trkpt lat="42.3587313" lon="13.3526351"><ele>628.0</ele><time>2026-05-02T17:24:02.289Z</time></trkpt><trkpt lat="42.3587918" lon="13.3527369"><ele>628.0</ele><time>2026-05-02T17:24:03.289Z</time></trkpt><trkpt lat="42.3588479" lon="13.3528477"><ele>628.5</ele><time>2026-05-02T17:24:04.37Z</time></trkpt><trkpt lat="42.3589013" lon="13.35297"><ele>629.0</ele><time>2026-05-02T17:24:05.367Z</time></trkpt><trkpt lat="42.3589484" lon="13.3531014"><ele>629.5</ele><time>2026-05-02T17:24:06.373Z</time></trkpt><trkpt lat="42.3589975" lon="13.353244"><ele>630.0</ele><time>2026-05-02T17:24:07.355Z</time></trkpt><trkpt lat="42.3590485" lon="13.3533948"><ele>630.0</ele><time>2026-05-02T17:24:08.356Z</time></trkpt><trkpt lat="42.3591028" lon="13.3535619"><ele>630.0</ele><time>2026-05-02T17:24:09.356Z</time></trkpt><trkpt lat="42.3591528" lon="13.3537389"><ele>630.0</ele><time>2026-05-02T17:24:10.355Z</time></trkpt><trkpt lat="42.3592033" lon="13.3539272"><ele>630.0</ele><time>2026-05-02T17:24:11.368Z</time></trkpt><trkpt lat="42.3592489" lon="13.3541294"><ele>629.3333333333334</ele><time>2026-05-02T17:24:12.369Z</time></trkpt><trkpt lat="42.3592955" lon="13.3543429"><ele>628.6666666666667</ele><time>2026-05-02T17:24:13.369Z</time></trkpt><trkpt lat="42.3593448" lon="13.3545644"><ele>628.0</ele><time>2026-05-02T17:24:14.372Z</time></trkpt><trkpt lat="42.3594132" lon="13.3547716"><ele>628.0</ele><time>2026-05-02T17:24:15.371Z</time></trkpt><trkpt lat="42.3594581" lon="13.3549613"><ele>628.0</ele><time>2026-05-02T17:24:16.376Z</time></trkpt><trkpt lat="42.359508" lon="13.3551504"><ele>628.0</ele><time>2026-05-02T17:24:17.374Z</time></trkpt><trkpt lat="42.3595578" lon="13.3553388"><ele>628.0</ele><time>2026-05-02T17:24:18.378Z</time></trkpt><trkpt lat="42.3596042" lon="13.3555178"><ele>627.5</ele><time>2026-05-02T17:24:19.371Z</time></trkpt><trkpt lat="42.3596491" lon="13.3556907"><ele>627.0</ele><time>2026-05-02T17:24:20.375Z</time></trkpt><trkpt lat="42.359697" lon="13.3558636"><ele>626.5</ele><time>2026-05-02T17:24:21.374Z</time></trkpt><trkpt lat="42.3597411" lon="13.3560243"><ele>626.0</ele><time>2026-05-02T17:24:22.371Z</time></trkpt><trkpt lat="42.3597801" lon="13.3561748"><ele>626.0</ele><time>2026-05-02T17:24:23.375Z</time></trkpt><trkpt lat="42.3598182" lon="13.356331"><ele>626.0</ele><time>2026-05-02T17:24:24.376Z</time></trkpt><trkpt lat="42.3598556" lon="13.3564836"><ele>626.0</ele><time>2026-05-02T17:24:25.374Z</time></trkpt><trkpt lat="42.3598896" lon="13.3566273"><ele>626.0</ele><time>2026-05-02T17:24:26.376Z</time></trkpt><trkpt lat="42.3599212" lon="13.3567586"><ele>626.0</ele><time>2026-05-02T17:24:27.369Z</time></trkpt><trkpt lat="42.3599541" lon="13.356892"><ele>626.0</ele><time>2026-05-02T17:24:28.374Z</time></trkpt><trkpt lat="42.359984" lon="13.3570353"><ele>626.0</ele><time>2026-05-02T17:24:29.368Z</time></trkpt><trkpt lat="42.3600058" lon="13.3571887"><ele>626.0</ele><time>2026-05-02T17:24:30.372Z</time></trkpt><trkpt lat="42.3600157" lon="13.3573461"><ele>626.0</ele><time>2026-05-02T17:24:31.354Z</time></trkpt><trkpt lat="42.3600215" lon="13.3575103"><ele>626.0</ele><time>2026-05-02T17:24:32.35Z</time></trkpt><trkpt lat="42.3600184" lon="13.3576655"><ele>626.0</ele><time>2026-05-02T17:24:33.351Z</time></trkpt><trkpt lat="42.360016" lon="13.3578109"><ele>626.0</ele><time>2026-05-02T17:24:34.355Z</time></trkpt><trkpt lat="42.3600109" lon="13.3579597"><ele>626.0</ele><time>2026-05-02T17:24:35.369Z</time></trkpt><trkpt lat="42.3600017" lon="13.3581192"><ele>626.0</ele><time>2026-05-02T17:24:36.371Z</time></trkpt><trkpt lat="42.3599871" lon="13.358294"><ele>626.0</ele><time>2026-05-02T17:24:37.369Z</time></trkpt><trkpt lat="42.3599618" lon="13.3584669"><ele>626.0</ele><time>2026-05-02T17:24:38.365Z</time></trkpt><trkpt lat="42.35993" lon="13.3586308"><ele>626.0</ele><time>2026-05-02T17:24:39.367Z</time></trkpt><trkpt lat="42.3598905" lon="13.3587977"><ele>625.5</ele><time>2026-05-02T17:24:40.354Z</time></trkpt><trkpt lat="42.3598417" lon="13.3589737"><ele>625.0</ele><time>2026-05-02T17:24:41.357Z</time></trkpt><trkpt lat="42.359791" lon="13.3591599"><ele>624.5</ele><time>2026-05-02T17:24:42.357Z</time></trkpt><trkpt lat="42.3597384" lon="13.3593599"><ele>624.0</ele><time>2026-05-02T17:24:43.355Z</time></trkpt><trkpt lat="42.3596801" lon="13.3595759"><ele>625.0</ele><time>2026-05-02T17:24:44.371Z</time></trkpt><trkpt lat="42.3596166" lon="13.3598014"><ele>626.0</ele><time>2026-05-02T17:24:45.373Z</time></trkpt><trkpt lat="42.3595499" lon="13.3600284"><ele>627.0</ele><time>2026-05-02T17:24:46.38Z</time></trkpt><trkpt lat="42.3594818" lon="13.3602592"><ele>627.0</ele><time>2026-05-02T17:24:47.373Z</time></trkpt><trkpt lat="42.3594134" lon="13.3604924"><ele>627.0</ele><time>2026-05-02T17:24:48.374Z</time></trkpt><trkpt lat="42.3593406" lon="13.3607201"><ele>627.0</ele><time>2026-05-02T17:24:49.374Z</time></trkpt><trkpt lat="42.3592709" lon="13.3609452"><ele>627.3333333333334</ele><time>2026-05-02T17:24:50.372Z</time></trkpt><trkpt lat="42.3592034" lon="13.3611679"><ele>627.6666666666667</ele><time>2026-05-02T17:24:51.374Z</time></trkpt><trkpt lat="42.3591344" lon="13.3613921"><ele>628.0</ele><time>2026-05-02T17:24:52.372Z</time></trkpt><trkpt lat="42.3590665" lon="13.3616187"><ele>627.3333333333334</ele><time>2026-05-02T17:24:53.373Z</time></trkpt><trkpt lat="42.3589966" lon="13.3618437"><ele>626.6666666666666</ele><time>2026-05-02T17:24:54.369Z</time></trkpt><trkpt lat="42.3589271" lon="13.3620688"><ele>626.0</ele><time>2026-05-02T17:24:55.371Z</time></trkpt><trkpt lat="42.3588608" lon="13.3622986"><ele>626.0</ele><time>2026-05-02T17:24:56.37Z</time></trkpt><trkpt lat="42.3587968" lon="13.3625273"><ele>626.0</ele><time>2026-05-02T17:24:57.373Z</time></trkpt><trkpt lat="42.3587283" lon="13.3627605"><ele>626.0</ele><time>2026-05-02T17:24:58.37Z</time></trkpt><trkpt lat="42.3586598" lon="13.3629832"><ele>626.6666666666666</ele><time>2026-05-02T17:24:59.374Z</time></trkpt><trkpt lat="42.3585946" lon="13.3631881"><ele>627.3333333333334</ele><time>2026-05-02T17:25:00.374Z</time></trkpt><trkpt lat="42.3585326" lon="13.363385"><ele>628.0</ele><time>2026-05-02T17:25:01.369Z</time></trkpt><trkpt lat="42.3584725" lon="13.3635889"><ele>628.0</ele><time>2026-05-02T17:25:02.37Z</time></trkpt><trkpt lat="42.35842" lon="13.3637869"><ele>628.0</ele><time>2026-05-02T17:25:03.37Z</time></trkpt><trkpt lat="42.3583709" lon="13.3639802"><ele>628.0</ele><time>2026-05-02T17:25:04.375Z</time></trkpt><trkpt lat="42.3583274" lon="13.364157"><ele>628.0</ele><time>2026-05-02T17:25:05.365Z</time></trkpt><trkpt lat="42.3582915" lon="13.3643208"><ele>628.1999999999999</ele><time>2026-05-02T17:25:06.366Z</time></trkpt><trkpt lat="42.3582618" lon="13.364467"><ele>628.4</ele><time>2026-05-02T17:25:07.368Z</time></trkpt><trkpt lat="42.3582402" lon="13.3646053"><ele>628.5999999999999</ele><time>2026-05-02T17:25:08.366Z</time></trkpt><trkpt lat="42.358222" lon="13.3647534"><ele>628.8</ele><time>2026-05-02T17:25:09.369Z</time></trkpt><trkpt lat="42.3582081" lon="13.3649062"><ele>629.0</ele><time>2026-05-02T17:25:10.369Z</time></trkpt><trkpt lat="42.3581965" lon="13.3650598"><ele>629.0</ele><time>2026-05-02T17:25:11.365Z</time></trkpt><trkpt lat="42.3581886" lon="13.3652053"><ele>629.0</ele><time>2026-05-02T17:25:12.369Z</time></trkpt><trkpt lat="42.358182" lon="13.3653433"><ele>629.0</ele><time>2026-05-02T17:25:13.37Z</time></trkpt><trkpt lat="42.3581847" lon="13.3654745"><ele>629.0</ele><time>2026-05-02T17:25:14.37Z</time></trkpt><trkpt lat="42.3581984" lon="13.3656147"><ele>629.0</ele><time>2026-05-02T17:25:15.371Z</time></trkpt><trkpt lat="42.3582204" lon="13.365766"><ele>628.75</ele><time>2026-05-02T17:25:16.356Z</time></trkpt><trkpt lat="42.3582476" lon="13.3659074"><ele>628.5</ele><time>2026-05-02T17:25:17.352Z</time></trkpt><trkpt lat="42.3582894" lon="13.366046"><ele>628.25</ele><time>2026-05-02T17:25:18.352Z</time></trkpt><trkpt lat="42.358347" lon="13.3661986"><ele>628.0</ele><time>2026-05-02T17:25:19.352Z</time></trkpt><trkpt lat="42.3584113" lon="13.3663627"><ele>628.0</ele><time>2026-05-02T17:25:20.372Z</time></trkpt><trkpt lat="42.3584795" lon="13.366526"><ele>628.0</ele><time>2026-05-02T17:25:21.369Z</time></trkpt><trkpt lat="42.3585487" lon="13.3666793"><ele>628.0</ele><time>2026-05-02T17:25:22.368Z</time></trkpt><trkpt lat="42.3586155" lon="13.3668236"><ele>628.0</ele><time>2026-05-02T17:25:23.376Z</time></trkpt><trkpt lat="42.3586756" lon="13.3669581"><ele>628.0</ele><time>2026-05-02T17:25:24.377Z</time></trkpt><trkpt lat="42.3587305" lon="13.3670843"><ele>628.0</ele><time>2026-05-02T17:25:25.379Z</time></trkpt><trkpt lat="42.3587832" lon="13.3672147"><ele>628.0</ele><time>2026-05-02T17:25:26.375Z</time></trkpt><trkpt lat="42.3588312" lon="13.3673373"><ele>628.0</ele><time>2026-05-02T17:25:27.379Z</time></trkpt><trkpt lat="42.358875" lon="13.3674496"><ele>628.0</ele><time>2026-05-02T17:25:28.379Z</time></trkpt><trkpt lat="42.3589092" lon="13.3675467"><ele>628.1666666666667</ele><time>2026-05-02T17:25:29.372Z</time></trkpt><trkpt lat="42.3589385" lon="13.3676302"><ele>628.3333333333334</ele><time>2026-05-02T17:25:30.378Z</time></trkpt><trkpt lat="42.3589838" lon="13.3677646"><ele>628.5</ele><time>2026-05-02T17:25:32.374Z</time></trkpt><trkpt lat="42.359002" lon="13.3678711"><ele>628.6666666666666</ele><time>2026-05-02T17:25:34.368Z</time></trkpt><trkpt lat="42.3590175" lon="13.368011"><ele>628.8333333333333</ele><time>2026-05-02T17:25:36.354Z</time></trkpt><trkpt lat="42.3590373" lon="13.3681129"><ele>629.0</ele><time>2026-05-02T17:25:37.349Z</time></trkpt><trkpt lat="42.3590693" lon="13.3682279"><ele>629.0</ele><time>2026-05-02T17:25:38.352Z</time></trkpt><trkpt lat="42.3591004" lon="13.3683586"><ele>629.0</ele><time>2026-05-02T17:25:39.353Z</time></trkpt><trkpt lat="42.3591267" lon="13.3685058"><ele>629.0</ele><time>2026-05-02T17:25:40.371Z</time></trkpt><trkpt lat="42.3591504" lon="13.3686597"><ele>629.0</ele><time>2026-05-02T17:25:41.37Z</time></trkpt><trkpt lat="42.3591761" lon="13.3688204"><ele>629.25</ele><time>2026-05-02T17:25:42.379Z</time></trkpt><trkpt lat="42.3592028" lon="13.3689821"><ele>629.5</ele><time>2026-05-02T17:25:43.372Z</time></trkpt><trkpt lat="42.3592305" lon="13.3691488"><ele>629.75</ele><time>2026-05-02T17:25:44.373Z</time></trkpt><trkpt lat="42.359258" lon="13.3693215"><ele>630.0</ele><time>2026-05-02T17:25:45.372Z</time></trkpt><trkpt lat="42.3592877" lon="13.3695047"><ele>630.5</ele><time>2026-05-02T17:25:46.372Z</time></trkpt><trkpt lat="42.3593171" lon="13.3696969"><ele>631.0</ele><time>2026-05-02T17:25:47.366Z</time></trkpt><trkpt lat="42.3593433" lon="13.3698934"><ele>631.5</ele><time>2026-05-02T17:25:48.377Z</time></trkpt><trkpt lat="42.3593752" lon="13.3700935"><ele>632.0</ele><time>2026-05-02T17:25:49.377Z</time></trkpt><trkpt lat="42.3594087" lon="13.3703057"><ele>632.0</ele><time>2026-05-02T17:25:50.365Z</time></trkpt><trkpt lat="42.3594404" lon="13.3705214"><ele>632.0</ele><time>2026-05-02T17:25:51.372Z</time></trkpt><trkpt lat="42.3594734" lon="13.3707406"><ele>632.0</ele><time>2026-05-02T17:25:52.372Z</time></trkpt><trkpt lat="42.359505" lon="13.3709644"><ele>633.6666666666666</ele><time>2026-05-02T17:25:53.371Z</time></trkpt><trkpt lat="42.3595366" lon="13.3711858"><ele>635.3333333333334</ele><time>2026-05-02T17:25:54.375Z</time></trkpt><trkpt lat="42.3595671" lon="13.37141"><ele>637.0</ele><time>2026-05-02T17:25:55.378Z</time></trkpt><trkpt lat="42.3596004" lon="13.3716373"><ele>637.3333333333334</ele><time>2026-05-02T17:25:56.379Z</time></trkpt><trkpt lat="42.3596358" lon="13.3718558"><ele>637.6666666666666</ele><time>2026-05-02T17:25:57.374Z</time></trkpt><trkpt lat="42.3596697" lon="13.3720619"><ele>638.0</ele><time>2026-05-02T17:25:58.373Z</time></trkpt><trkpt lat="42.3596996" lon="13.3722484"><ele>638.5999999999999</ele><time>2026-05-02T17:25:59.371Z</time></trkpt><trkpt lat="42.3597261" lon="13.3724194"><ele>639.1999999999999</ele><time>2026-05-02T17:26:00.375Z</time></trkpt><trkpt lat="42.35975" lon="13.3725754"><ele>639.8</ele><time>2026-05-02T17:26:01.373Z</time></trkpt><trkpt lat="42.3597685" lon="13.3727158"><ele>640.4</ele><time>2026-05-02T17:26:02.376Z</time></trkpt><trkpt lat="42.3597846" lon="13.3728384"><ele>641.0</ele><time>2026-05-02T17:26:03.374Z</time></trkpt><trkpt lat="42.3598013" lon="13.3729586"><ele>641.75</ele><time>2026-05-02T17:26:04.37Z</time></trkpt><trkpt lat="42.3598219" lon="13.3730943"><ele>642.5</ele><time>2026-05-02T17:26:05.37Z</time></trkpt><trkpt lat="42.359849" lon="13.3732435"><ele>643.25</ele><time>2026-05-02T17:26:06.374Z</time></trkpt><trkpt lat="42.3598735" lon="13.3734054"><ele>644.0</ele><time>2026-05-02T17:26:07.368Z</time></trkpt><trkpt lat="42.3598965" lon="13.3735693"><ele>644.0</ele><time>2026-05-02T17:26:08.372Z</time></trkpt><trkpt lat="42.3599153" lon="13.3737152"><ele>644.0</ele><time>2026-05-02T17:26:09.366Z</time></trkpt><trkpt lat="42.3599362" lon="13.3738645"><ele>644.0</ele><time>2026-05-02T17:26:10.371Z</time></trkpt><trkpt lat="42.3599581" lon="13.3740207"><ele>644.0</ele><time>2026-05-02T17:26:11.371Z</time></trkpt><trkpt lat="42.3599831" lon="13.3741824"><ele>644.25</ele><time>2026-05-02T17:26:12.374Z</time></trkpt><trkpt lat="42.360008" lon="13.374349"><ele>644.5</ele><time>2026-05-02T17:26:13.372Z</time></trkpt><trkpt lat="42.3600326" lon="13.3745187"><ele>644.75</ele><time>2026-05-02T17:26:14.37Z</time></trkpt><trkpt lat="42.360057" lon="13.3746887"><ele>645.0</ele><time>2026-05-02T17:26:15.37Z</time></trkpt><trkpt lat="42.3600809" lon="13.3748609"><ele>645.25</ele><time>2026-05-02T17:26:16.368Z</time></trkpt><trkpt lat="42.3601067" lon="13.3750365"><ele>645.5</ele><time>2026-05-02T17:26:17.371Z</time></trkpt><trkpt lat="42.3601324" lon="13.3752177"><ele>645.75</ele><time>2026-05-02T17:26:18.374Z</time></trkpt><trkpt lat="42.3601564" lon="13.3753973"><ele>646.0</ele><time>2026-05-02T17:26:19.378Z</time></trkpt><trkpt lat="42.3601761" lon="13.3755656"><ele>646.4</ele><time>2026-05-02T17:26:20.372Z</time></trkpt><trkpt lat="42.3601946" lon="13.3757194"><ele>646.8</ele><time>2026-05-02T17:26:21.369Z</time></trkpt><trkpt lat="42.3602115" lon="13.3758494"><ele>647.1999999999999</ele><time>2026-05-02T17:26:22.368Z</time></trkpt><trkpt lat="42.3602259" lon="13.3759721"><ele>647.5999999999999</ele><time>2026-05-02T17:26:23.369Z</time></trkpt><trkpt lat="42.3602416" lon="13.3760964"><ele>648.0</ele><time>2026-05-02T17:26:24.372Z</time></trkpt><trkpt lat="42.3602584" lon="13.3762396"><ele>648.5</ele><time>2026-05-02T17:26:25.365Z</time></trkpt><trkpt lat="42.3602751" lon="13.3763992"><ele>649.0</ele><time>2026-05-02T17:26:26.374Z</time></trkpt><trkpt lat="42.3602926" lon="13.3765711"><ele>649.5</ele><time>2026-05-02T17:26:27.374Z</time></trkpt><trkpt lat="42.3603072" lon="13.3767511"><ele>650.0</ele><time>2026-05-02T17:26:28.369Z</time></trkpt><trkpt lat="42.3603224" lon="13.3769194"><ele>650.0</ele><time>2026-05-02T17:26:29.366Z</time></trkpt><trkpt lat="42.3603365" lon="13.3770685"><ele>650.0</ele><time>2026-05-02T17:26:30.361Z</time></trkpt><trkpt lat="42.3603458" lon="13.3772042"><ele>650.0</ele><time>2026-05-02T17:26:31.368Z</time></trkpt><trkpt lat="42.3603526" lon="13.3773385"><ele>650.0</ele><time>2026-05-02T17:26:32.368Z</time></trkpt><trkpt lat="42.3603626" lon="13.377484"><ele>650.0</ele><time>2026-05-02T17:26:33.365Z</time></trkpt><trkpt lat="42.3603925" lon="13.3776339"><ele>650.0</ele><time>2026-05-02T17:26:34.286Z</time></trkpt><trkpt lat="42.3603954" lon="13.3778179"><ele>650.0</ele><time>2026-05-02T17:26:35.286Z</time></trkpt><trkpt lat="42.3603794" lon="13.3779965"><ele>650.0</ele><time>2026-05-02T17:26:36.285Z</time></trkpt><trkpt lat="42.3603617" lon="13.3781666"><ele>650.0</ele><time>2026-05-02T17:26:37.286Z</time></trkpt><trkpt lat="42.3603405" lon="13.3783296"><ele>650.2</ele><time>2026-05-02T17:26:38.285Z</time></trkpt><trkpt lat="42.3603163" lon="13.3784806"><ele>650.4</ele><time>2026-05-02T17:26:39.283Z</time></trkpt><trkpt lat="42.3602925" lon="13.3786131"><ele>650.5999999999999</ele><time>2026-05-02T17:26:40.267Z</time></trkpt><trkpt lat="42.3602674" lon="13.3787399"><ele>650.8</ele><time>2026-05-02T17:26:41.282Z</time></trkpt><trkpt lat="42.3602391" lon="13.3788664"><ele>651.0</ele><time>2026-05-02T17:26:42.277Z</time></trkpt><trkpt lat="42.3602045" lon="13.3789831"><ele>651.1666666666666</ele><time>2026-05-02T17:26:43.278Z</time></trkpt><trkpt lat="42.3601706" lon="13.3790934"><ele>651.3333333333334</ele><time>2026-05-02T17:26:44.279Z</time></trkpt><trkpt lat="42.360134" lon="13.3791876"><ele>651.5</ele><time>2026-05-02T17:26:45.273Z</time></trkpt><trkpt lat="42.3601024" lon="13.3792617"><ele>651.6666666666667</ele><time>2026-05-02T17:26:46.275Z</time></trkpt><trkpt lat="42.360064" lon="13.3793382"><ele>651.8333333333334</ele><time>2026-05-02T17:26:48.279Z</time></trkpt><trkpt lat="42.360028" lon="13.3794533"><ele>652.0</ele><time>2026-05-02T17:26:51.287Z</time></trkpt><trkpt lat="42.359977" lon="13.379544"><ele>652.0</ele><time>2026-05-02T17:26:56.284Z</time></trkpt><trkpt lat="42.3599183" lon="13.3796046"><ele>652.0</ele><time>2026-05-02T17:26:58.298Z</time></trkpt><trkpt lat="42.359851" lon="13.3797034"><ele>652.0</ele><time>2026-05-02T17:27:00.285Z</time></trkpt><trkpt lat="42.3598429" lon="13.3798582"><ele>652.0</ele><time>2026-05-02T17:27:02.274Z</time></trkpt><trkpt lat="42.3598482" lon="13.3799483"><ele>652.0</ele><time>2026-05-02T17:27:03.274Z</time></trkpt><trkpt lat="42.3598576" lon="13.3800782"><ele>651.8333333333334</ele><time>2026-05-02T17:27:05.276Z</time></trkpt><trkpt lat="42.3598443" lon="13.3801648"><ele>651.6666666666667</ele><time>2026-05-02T17:27:07.283Z</time></trkpt><trkpt lat="42.3597948" lon="13.3802846"><ele>651.5</ele><time>2026-05-02T17:27:10.283Z</time></trkpt><trkpt lat="42.3597591" lon="13.380371"><ele>651.3333333333334</ele><time>2026-05-02T17:27:11.269Z</time></trkpt><trkpt lat="42.3597102" lon="13.3804707"><ele>651.1666666666666</ele><time>2026-05-02T17:27:12.27Z</time></trkpt><trkpt lat="42.3596499" lon="13.3805957"><ele>651.0</ele><time>2026-05-02T17:27:13.272Z</time></trkpt><trkpt lat="42.3595858" lon="13.3807273"><ele>650.75</ele><time>2026-05-02T17:27:14.268Z</time></trkpt><trkpt lat="42.3595234" lon="13.3808767"><ele>650.5</ele><time>2026-05-02T17:27:15.275Z</time></trkpt><trkpt lat="42.3594606" lon="13.3810287"><ele>650.25</ele><time>2026-05-02T17:27:16.282Z</time></trkpt><trkpt lat="42.3593868" lon="13.3811952"><ele>650.0</ele><time>2026-05-02T17:27:17.275Z</time></trkpt><trkpt lat="42.3593161" lon="13.3813525"><ele>649.75</ele><time>2026-05-02T17:27:18.279Z</time></trkpt><trkpt lat="42.359251" lon="13.3814894"><ele>649.5</ele><time>2026-05-02T17:27:19.278Z</time></trkpt><trkpt lat="42.3591844" lon="13.3816153"><ele>649.25</ele><time>2026-05-02T17:27:20.278Z</time></trkpt><trkpt lat="42.3591267" lon="13.38175"><ele>649.0</ele><time>2026-05-02T17:27:21.273Z</time></trkpt><trkpt lat="42.3590682" lon="13.3819184"><ele>649.0</ele><time>2026-05-02T17:27:22.279Z</time></trkpt><trkpt lat="42.3590055" lon="13.3820483"><ele>649.0</ele><time>2026-05-02T17:27:23.277Z</time></trkpt><trkpt lat="42.3589452" lon="13.382184"><ele>649.0</ele><time>2026-05-02T17:27:24.279Z</time></trkpt><trkpt lat="42.3588909" lon="13.38233"><ele>649.0</ele><time>2026-05-02T17:27:25.279Z</time></trkpt><trkpt lat="42.3588304" lon="13.3824871"><ele>649.0</ele><time>2026-05-02T17:27:26.278Z</time></trkpt><trkpt lat="42.3587638" lon="13.3826313"><ele>649.0</ele><time>2026-05-02T17:27:27.277Z</time></trkpt><trkpt lat="42.3586932" lon="13.382783"><ele>649.0</ele><time>2026-05-02T17:27:28.281Z</time></trkpt><trkpt lat="42.3586151" lon="13.3829461"><ele>649.0</ele><time>2026-05-02T17:27:29.281Z</time></trkpt><trkpt lat="42.358536" lon="13.3831181"><ele>649.0</ele><time>2026-05-02T17:27:30.278Z</time></trkpt><trkpt lat="42.3584727" lon="13.3832652"><ele>649.0</ele><time>2026-05-02T17:27:31.274Z</time></trkpt><trkpt lat="42.3583999" lon="13.3834196"><ele>649.0</ele><time>2026-05-02T17:27:32.275Z</time></trkpt><trkpt lat="42.3583433" lon="13.3835701"><ele>649.0</ele><time>2026-05-02T17:27:33.275Z</time></trkpt><trkpt lat="42.3582664" lon="13.3837399"><ele>649.3333333333334</ele><time>2026-05-02T17:27:34.277Z</time></trkpt><trkpt lat="42.3581767" lon="13.3839279"><ele>649.6666666666666</ele><time>2026-05-02T17:27:35.274Z</time></trkpt><trkpt lat="42.3580676" lon="13.3841177"><ele>650.0</ele><time>2026-05-02T17:27:36.277Z</time></trkpt><trkpt lat="42.3580016" lon="13.3842814"><ele>649.75</ele><time>2026-05-02T17:27:37.268Z</time></trkpt><trkpt lat="42.3579368" lon="13.3844431"><ele>649.5</ele><time>2026-05-02T17:27:38.272Z</time></trkpt><trkpt lat="42.3579023" lon="13.3845999"><ele>649.25</ele><time>2026-05-02T17:27:39.273Z</time></trkpt><trkpt lat="42.3578696" lon="13.3847578"><ele>649.0</ele><time>2026-05-02T17:27:40.278Z</time></trkpt><trkpt lat="42.3578332" lon="13.3848981"><ele>649.0</ele><time>2026-05-02T17:27:41.275Z</time></trkpt><trkpt lat="42.3577942" lon="13.3850201"><ele>649.0</ele><time>2026-05-02T17:27:42.275Z</time></trkpt><trkpt lat="42.357738" lon="13.3851139"><ele>649.0</ele><time>2026-05-02T17:27:43.273Z</time></trkpt><trkpt lat="42.3576805" lon="13.3851835"><ele>649.0</ele><time>2026-05-02T17:27:44.275Z</time></trkpt><trkpt lat="42.3575658" lon="13.3853199"><ele>649.0</ele><time>2026-05-02T17:27:46.275Z</time></trkpt><trkpt lat="42.3574914" lon="13.3854202"><ele>649.0</ele><time>2026-05-02T17:27:47.276Z</time></trkpt><trkpt lat="42.3574252" lon="13.3855591"><ele>649.0</ele><time>2026-05-02T17:27:48.277Z</time></trkpt><trkpt lat="42.3573515" lon="13.3857104"><ele>649.0</ele><time>2026-05-02T17:27:49.277Z</time></trkpt><trkpt lat="42.3572628" lon="13.3858517"><ele>649.0</ele><time>2026-05-02T17:27:50.268Z</time></trkpt><trkpt lat="42.3571739" lon="13.3859849"><ele>648.6666666666667</ele><time>2026-05-02T17:27:51.272Z</time></trkpt><trkpt lat="42.3570698" lon="13.3861202"><ele>648.3333333333334</ele><time>2026-05-02T17:27:52.275Z</time></trkpt><trkpt lat="42.3569446" lon="13.3862785"><ele>648.0</ele><time>2026-05-02T17:27:53.271Z</time></trkpt><trkpt lat="42.3568249" lon="13.386454"><ele>648.0</ele><time>2026-05-02T17:27:54.277Z</time></trkpt><trkpt lat="42.3567235" lon="13.3866222"><ele>648.0</ele><time>2026-05-02T17:27:55.279Z</time></trkpt><trkpt lat="42.3566233" lon="13.3867883"><ele>648.0</ele><time>2026-05-02T17:27:56.276Z</time></trkpt><trkpt lat="42.3565414" lon="13.3869445"><ele>648.0</ele><time>2026-05-02T17:27:57.281Z</time></trkpt><trkpt lat="42.3564595" lon="13.3870972"><ele>648.0</ele><time>2026-05-02T17:27:58.279Z</time></trkpt><trkpt lat="42.3563721" lon="13.3872539"><ele>648.0</ele><time>2026-05-02T17:27:59.279Z</time></trkpt><trkpt lat="42.3562916" lon="13.3874015"><ele>648.0</ele><time>2026-05-02T17:28:00.281Z</time></trkpt><trkpt lat="42.3562247" lon="13.3875239"><ele>647.5999999999999</ele><time>2026-05-02T17:28:01.275Z</time></trkpt><trkpt lat="42.3561503" lon="13.3876551"><ele>647.1999999999999</ele><time>2026-05-02T17:28:02.277Z</time></trkpt><trkpt lat="42.3560915" lon="13.3877873"><ele>646.8</ele><time>2026-05-02T17:28:03.277Z</time></trkpt><trkpt lat="42.3560354" lon="13.3878954"><ele>646.4</ele><time>2026-05-02T17:28:04.278Z</time></trkpt><trkpt lat="42.3559674" lon="13.3880031"><ele>646.0</ele><time>2026-05-02T17:28:05.276Z</time></trkpt><trkpt lat="42.3559134" lon="13.3880906"><ele>646.8333333333334</ele><time>2026-05-02T17:28:06.276Z</time></trkpt><trkpt lat="42.3558566" lon="13.3881666"><ele>647.6666666666667</ele><time>2026-05-02T17:28:07.27Z</time></trkpt><trkpt lat="42.3557807" lon="13.3882227"><ele>648.5</ele><time>2026-05-02T17:28:08.263Z</time></trkpt><trkpt lat="42.3556869" lon="13.3882484"><ele>649.3333333333334</ele><time>2026-05-02T17:28:09.268Z</time></trkpt><trkpt lat="42.3556078" lon="13.3882589"><ele>650.1666666666666</ele><time>2026-05-02T17:28:10.274Z</time></trkpt><trkpt lat="42.3555341" lon="13.3882856"><ele>651.0</ele><time>2026-05-02T17:28:11.265Z</time></trkpt><trkpt lat="42.3554878" lon="13.3883726"><ele>651.0</ele><time>2026-05-02T17:28:13.271Z</time></trkpt><trkpt lat="42.3554988" lon="13.3885062"><ele>651.0</ele><time>2026-05-02T17:28:15.288Z</time></trkpt><trkpt lat="42.355538" lon="13.3886357"><ele>651.0</ele><time>2026-05-02T17:28:17.284Z</time></trkpt><trkpt lat="42.3556329" lon="13.3887257"><ele>651.0</ele><time>2026-05-02T17:28:19.287Z</time></trkpt><trkpt lat="42.3557242" lon="13.3888058"><ele>651.0</ele><time>2026-05-02T17:28:21.282Z</time></trkpt><trkpt lat="42.3557746" lon="13.3888919"><ele>652.1999999999999</ele><time>2026-05-02T17:28:23.282Z</time></trkpt><trkpt lat="42.355857" lon="13.3890204"><ele>653.4</ele><time>2026-05-02T17:28:25.276Z</time></trkpt><trkpt lat="42.355924" lon="13.3891039"><ele>654.6</ele><time>2026-05-02T17:28:26.278Z</time></trkpt><trkpt lat="42.3560189" lon="13.3892422"><ele>655.8</ele><time>2026-05-02T17:28:27.301Z</time></trkpt><trkpt lat="42.3560653" lon="13.3893306"><ele>657.0</ele><time>2026-05-02T17:28:28.357Z</time></trkpt><trkpt lat="42.3561157" lon="13.3894319"><ele>657.0</ele><time>2026-05-02T17:28:29.345Z</time></trkpt><trkpt lat="42.3561729" lon="13.3895438"><ele>657.0</ele><time>2026-05-02T17:28:30.351Z</time></trkpt><trkpt lat="42.356238" lon="13.3896709"><ele>657.0</ele><time>2026-05-02T17:28:31.35Z</time></trkpt><trkpt lat="42.3563068" lon="13.3898004"><ele>657.0</ele><time>2026-05-02T17:28:32.349Z</time></trkpt><trkpt lat="42.3563828" lon="13.3899338"><ele>656.0</ele><time>2026-05-02T17:28:33.353Z</time></trkpt><trkpt lat="42.3564696" lon="13.3900658"><ele>655.0</ele><time>2026-05-02T17:28:34.355Z</time></trkpt><trkpt lat="42.3565583" lon="13.3901943"><ele>654.0</ele><time>2026-05-02T17:28:35.339Z</time></trkpt><trkpt lat="42.3566404" lon="13.3903138"><ele>653.0</ele><time>2026-05-02T17:28:36.335Z</time></trkpt><trkpt lat="42.35671" lon="13.3904333"><ele>653.2</ele><time>2026-05-02T17:28:37.337Z</time></trkpt><trkpt lat="42.3567684" lon="13.3906002"><ele>653.4</ele><time>2026-05-02T17:28:39.352Z</time></trkpt><trkpt lat="42.3567903" lon="13.3907072"><ele>653.6</ele><time>2026-05-02T17:28:40.353Z</time></trkpt><trkpt lat="42.3567917" lon="13.3908232"><ele>653.8000000000001</ele><time>2026-05-02T17:28:41.335Z</time></trkpt><trkpt lat="42.3567718" lon="13.3909464"><ele>654.0</ele><time>2026-05-02T17:28:42.335Z</time></trkpt><trkpt lat="42.3567422" lon="13.3910774"><ele>654.0</ele><time>2026-05-02T17:28:43.343Z</time></trkpt><trkpt lat="42.3567115" lon="13.3912179"><ele>654.0</ele><time>2026-05-02T17:28:44.343Z</time></trkpt><trkpt lat="42.3566833" lon="13.3913695"><ele>654.0</ele><time>2026-05-02T17:28:45.351Z</time></trkpt><trkpt lat="42.3566588" lon="13.391529"><ele>654.0</ele><time>2026-05-02T17:28:46.354Z</time></trkpt><trkpt lat="42.3566453" lon="13.3916851"><ele>655.0</ele><time>2026-05-02T17:28:47.353Z</time></trkpt><trkpt lat="42.356641" lon="13.3918305"><ele>656.0</ele><time>2026-05-02T17:28:48.358Z</time></trkpt><trkpt lat="42.356638" lon="13.3919796"><ele>657.0</ele><time>2026-05-02T17:28:49.338Z</time></trkpt><trkpt lat="42.3566393" lon="13.3921124"><ele>658.0</ele><time>2026-05-02T17:28:50.335Z</time></trkpt><trkpt lat="42.3566445" lon="13.3922214"><ele>659.0</ele><time>2026-05-02T17:28:51.335Z</time></trkpt><trkpt lat="42.3566499" lon="13.3923464"><ele>660.2</ele><time>2026-05-02T17:28:52.336Z</time></trkpt><trkpt lat="42.3566518" lon="13.3924759"><ele>661.4000000000001</ele><time>2026-05-02T17:28:53.351Z</time></trkpt><trkpt lat="42.3566523" lon="13.3926031"><ele>662.6</ele><time>2026-05-02T17:28:54.358Z</time></trkpt><trkpt lat="42.3566492" lon="13.3927455"><ele>663.8</ele><time>2026-05-02T17:28:55.352Z</time></trkpt><trkpt lat="42.356646" lon="13.3928777"><ele>665.0</ele><time>2026-05-02T17:28:56.36Z</time></trkpt><trkpt lat="42.3566445" lon="13.3930187"><ele>666.0</ele><time>2026-05-02T17:28:57.359Z</time></trkpt><trkpt lat="42.356644" lon="13.3931734"><ele>667.0</ele><time>2026-05-02T17:28:58.356Z</time></trkpt><trkpt lat="42.35664" lon="13.3933417"><ele>668.0</ele><time>2026-05-02T17:28:59.348Z</time></trkpt><trkpt lat="42.3566329" lon="13.3935107"><ele>669.0</ele><time>2026-05-02T17:29:00.359Z</time></trkpt><trkpt lat="42.3566256" lon="13.3936717"><ele>669.0</ele><time>2026-05-02T17:29:01.363Z</time></trkpt><trkpt lat="42.3566161" lon="13.3938292"><ele>669.0</ele><time>2026-05-02T17:29:02.349Z</time></trkpt><trkpt lat="42.3566101" lon="13.3939714"><ele>669.0</ele><time>2026-05-02T17:29:03.345Z</time></trkpt><trkpt lat="42.3566044" lon="13.3941028"><ele>669.0</ele><time>2026-05-02T17:29:04.353Z</time></trkpt><trkpt lat="42.3565992" lon="13.3942164"><ele>669.0</ele><time>2026-05-02T17:29:05.369Z</time></trkpt><trkpt lat="42.3565932" lon="13.3943239"><ele>670.2</ele><time>2026-05-02T17:29:06.369Z</time></trkpt><trkpt lat="42.3565903" lon="13.3944407"><ele>671.4000000000001</ele><time>2026-05-02T17:29:07.357Z</time></trkpt><trkpt lat="42.3565886" lon="13.3945661"><ele>672.6</ele><time>2026-05-02T17:29:08.356Z</time></trkpt><trkpt lat="42.356592" lon="13.3947021"><ele>673.8</ele><time>2026-05-02T17:29:09.357Z</time></trkpt><trkpt lat="42.356593" lon="13.3948619"><ele>675.0</ele><time>2026-05-02T17:29:10.351Z</time></trkpt><trkpt lat="42.3565942" lon="13.3950394"><ele>675.3333333333334</ele><time>2026-05-02T17:29:11.354Z</time></trkpt><trkpt lat="42.3565893" lon="13.3952318"><ele>675.6666666666667</ele><time>2026-05-02T17:29:12.347Z</time></trkpt><trkpt lat="42.3565846" lon="13.3954399"><ele>676.0</ele><time>2026-05-02T17:29:13.357Z</time></trkpt><trkpt lat="42.3565801" lon="13.3956522"><ele>675.5</ele><time>2026-05-02T17:29:14.352Z</time></trkpt><trkpt lat="42.3565759" lon="13.3958484"><ele>675.0</ele><time>2026-05-02T17:29:15.345Z</time></trkpt><trkpt lat="42.3565731" lon="13.3960347"><ele>674.5</ele><time>2026-05-02T17:29:16.352Z</time></trkpt><trkpt lat="42.3565679" lon="13.396198"><ele>674.0</ele><time>2026-05-02T17:29:17.346Z</time></trkpt><trkpt lat="42.3565542" lon="13.396376"><ele>675.25</ele><time>2026-05-02T17:29:18.35Z</time></trkpt><trkpt lat="42.3565388" lon="13.3965648"><ele>676.5</ele><time>2026-05-02T17:29:19.349Z</time></trkpt><trkpt lat="42.3565223" lon="13.3967579"><ele>677.75</ele><time>2026-05-02T17:29:20.348Z</time></trkpt><trkpt lat="42.3565071" lon="13.3969535"><ele>679.0</ele><time>2026-05-02T17:29:21.347Z</time></trkpt><trkpt lat="42.3565009" lon="13.39714"><ele>681.25</ele><time>2026-05-02T17:29:22.346Z</time></trkpt><trkpt lat="42.356506" lon="13.3973285"><ele>683.5</ele><time>2026-05-02T17:29:23.349Z</time></trkpt><trkpt lat="42.3565198" lon="13.3975227"><ele>685.75</ele><time>2026-05-02T17:29:24.335Z</time></trkpt><trkpt lat="42.35655" lon="13.3977211"><ele>688.0</ele><time>2026-05-02T17:29:25.334Z</time></trkpt><trkpt lat="42.356599" lon="13.3979141"><ele>688.3333333333334</ele><time>2026-05-02T17:29:26.332Z</time></trkpt><trkpt lat="42.3566719" lon="13.3981089"><ele>688.6666666666666</ele><time>2026-05-02T17:29:27.335Z</time></trkpt><trkpt lat="42.3567565" lon="13.3982938"><ele>689.0</ele><time>2026-05-02T17:29:28.352Z</time></trkpt><trkpt lat="42.3568386" lon="13.3984539"><ele>689.0</ele><time>2026-05-02T17:29:29.348Z</time></trkpt><trkpt lat="42.3569119" lon="13.3986237"><ele>689.0</ele><time>2026-05-02T17:29:30.353Z</time></trkpt><trkpt lat="42.3569727" lon="13.3988055"><ele>689.0</ele><time>2026-05-02T17:29:31.353Z</time></trkpt><trkpt lat="42.3570182" lon="13.3989915"><ele>689.0</ele><time>2026-05-02T17:29:32.343Z</time></trkpt><trkpt lat="42.3570295" lon="13.3991874"><ele>690.6666666666666</ele><time>2026-05-02T17:29:33.336Z</time></trkpt><trkpt lat="42.3570334" lon="13.3993998"><ele>692.3333333333334</ele><time>2026-05-02T17:29:34.342Z</time></trkpt><trkpt lat="42.3570296" lon="13.3996183"><ele>694.0</ele><time>2026-05-02T17:29:35.342Z</time></trkpt><trkpt lat="42.3570253" lon="13.3998294"><ele>695.2</ele><time>2026-05-02T17:29:36.34Z</time></trkpt><trkpt lat="42.357021" lon="13.4000036"><ele>696.4000000000001</ele><time>2026-05-02T17:29:37.359Z</time></trkpt><trkpt lat="42.3570201" lon="13.4001494"><ele>697.6</ele><time>2026-05-02T17:29:38.358Z</time></trkpt><trkpt lat="42.3570193" lon="13.4002796"><ele>698.8</ele><time>2026-05-02T17:29:39.361Z</time></trkpt><trkpt lat="42.3570173" lon="13.4004004"><ele>700.0</ele><time>2026-05-02T17:29:40.363Z</time></trkpt><trkpt lat="42.3570152" lon="13.4005104"><ele>700.6666666666667</ele><time>2026-05-02T17:29:41.358Z</time></trkpt><trkpt lat="42.3570163" lon="13.4006088"><ele>701.3333333333334</ele><time>2026-05-02T17:29:42.359Z</time></trkpt><trkpt lat="42.3570211" lon="13.4006988"><ele>702.0</ele><time>2026-05-02T17:29:43.354Z</time></trkpt><trkpt lat="42.3570274" lon="13.4007932"><ele>702.6666666666666</ele><time>2026-05-02T17:29:44.357Z</time></trkpt><trkpt lat="42.3570328" lon="13.4008968"><ele>703.3333333333333</ele><time>2026-05-02T17:29:45.357Z</time></trkpt><trkpt lat="42.3570354" lon="13.4010065"><ele>704.0</ele><time>2026-05-02T17:29:46.345Z</time></trkpt><trkpt lat="42.3570418" lon="13.4011273"><ele>704.0</ele><time>2026-05-02T17:29:47.344Z</time></trkpt><trkpt lat="42.3570479" lon="13.4012564"><ele>704.0</ele><time>2026-05-02T17:29:48.344Z</time></trkpt><trkpt lat="42.3570557" lon="13.401403"><ele>704.0</ele><time>2026-05-02T17:29:49.343Z</time></trkpt><trkpt lat="42.3570654" lon="13.4015575"><ele>704.0</ele><time>2026-05-02T17:29:50.367Z</time></trkpt><trkpt lat="42.357074" lon="13.4017308"><ele>704.0</ele><time>2026-05-02T17:29:51.354Z</time></trkpt><trkpt lat="42.3570759" lon="13.401919"><ele>703.6666666666666</ele><time>2026-05-02T17:29:52.362Z</time></trkpt><trkpt lat="42.357075" lon="13.4021258"><ele>703.3333333333334</ele><time>2026-05-02T17:29:53.356Z</time></trkpt><trkpt lat="42.3570768" lon="13.4023416"><ele>703.0</ele><time>2026-05-02T17:29:54.36Z</time></trkpt><trkpt lat="42.3570832" lon="13.402541"><ele>703.0</ele><time>2026-05-02T17:29:55.358Z</time></trkpt><trkpt lat="42.3570964" lon="13.4027338"><ele>703.0</ele><time>2026-05-02T17:29:56.358Z</time></trkpt><trkpt lat="42.3571248" lon="13.4029289"><ele>703.0</ele><time>2026-05-02T17:29:57.356Z</time></trkpt><trkpt lat="42.3571708" lon="13.4031182"><ele>703.0</ele><time>2026-05-02T17:29:58.365Z</time></trkpt><trkpt lat="42.3572335" lon="13.4032948"><ele>703.0</ele><time>2026-05-02T17:29:59.349Z</time></trkpt><trkpt lat="42.3573039" lon="13.4034793"><ele>703.0</ele><time>2026-05-02T17:30:00.351Z</time></trkpt><trkpt lat="42.3573794" lon="13.4036675"><ele>703.0</ele><time>2026-05-02T17:30:01.344Z</time></trkpt><trkpt lat="42.3574494" lon="13.4038406"><ele>702.75</ele><time>2026-05-02T17:30:02.343Z</time></trkpt><trkpt lat="42.3575111" lon="13.4040088"><ele>702.5</ele><time>2026-05-02T17:30:03.363Z</time></trkpt><trkpt lat="42.3575696" lon="13.404157"><ele>702.25</ele><time>2026-05-02T17:30:04.355Z</time></trkpt><trkpt lat="42.357619" lon="13.4042868"><ele>702.0</ele><time>2026-05-02T17:30:05.348Z</time></trkpt><trkpt lat="42.3576528" lon="13.404427"><ele>702.0</ele><time>2026-05-02T17:30:06.354Z</time></trkpt><trkpt lat="42.357664" lon="13.4045626"><ele>702.0</ele><time>2026-05-02T17:30:07.357Z</time></trkpt><trkpt lat="42.3576341" lon="13.4046789"><ele>702.0</ele><time>2026-05-02T17:30:08.346Z</time></trkpt><trkpt lat="42.3575755" lon="13.4047825"><ele>702.0</ele><time>2026-05-02T17:30:09.341Z</time></trkpt><trkpt lat="42.3574991" lon="13.4048716"><ele>702.0</ele><time>2026-05-02T17:30:10.34Z</time></trkpt><trkpt lat="42.3574047" lon="13.4049322"><ele>703.2</ele><time>2026-05-02T17:30:11.34Z</time></trkpt><trkpt lat="42.3572916" lon="13.4049633"><ele>704.4000000000001</ele><time>2026-05-02T17:30:12.347Z</time></trkpt><trkpt lat="42.3571839" lon="13.4049734"><ele>705.5999999999999</ele><time>2026-05-02T17:30:13.356Z</time></trkpt><trkpt lat="42.3570812" lon="13.4049823"><ele>706.8</ele><time>2026-05-02T17:30:14.337Z</time></trkpt><trkpt lat="42.3569932" lon="13.4049926"><ele>708.0</ele><time>2026-05-02T17:30:15.337Z</time></trkpt><trkpt lat="42.3569123" lon="13.4050054"><ele>708.0</ele><time>2026-05-02T17:30:16.34Z</time></trkpt><trkpt lat="42.3568196" lon="13.4050339"><ele>708.0</ele><time>2026-05-02T17:30:17.343Z</time></trkpt><trkpt lat="42.3567313" lon="13.405077"><ele>708.0</ele><time>2026-05-02T17:30:18.358Z</time></trkpt><trkpt lat="42.3566579" lon="13.4051256"><ele>708.0</ele><time>2026-05-02T17:30:19.351Z</time></trkpt><trkpt lat="42.3565554" lon="13.4052083"><ele>708.0</ele><time>2026-05-02T17:30:21.343Z</time></trkpt><trkpt lat="42.3564719" lon="13.4052865"><ele>708.0</ele><time>2026-05-02T17:30:23.341Z</time></trkpt><trkpt lat="42.3563892" lon="13.4053535"><ele>708.0</ele><time>2026-05-02T17:30:25.359Z</time></trkpt><trkpt lat="42.3562878" lon="13.4054398"><ele>708.0</ele><time>2026-05-02T17:30:27.358Z</time></trkpt><trkpt lat="42.3562039" lon="13.4055044"><ele>708.0</ele><time>2026-05-02T17:30:29.358Z</time></trkpt><trkpt lat="42.3561191" lon="13.405572"><ele>708.0</ele><time>2026-05-02T17:30:31.357Z</time></trkpt><trkpt lat="42.3560582" lon="13.4056175"><ele>708.5999999999999</ele><time>2026-05-02T17:30:33.365Z</time></trkpt><trkpt lat="42.3559355" lon="13.4056322"><ele>709.1999999999999</ele><time>2026-05-02T17:30:36.35Z</time></trkpt><trkpt lat="42.3558375" lon="13.4055468"><ele>709.8</ele><time>2026-05-02T17:30:38.339Z</time></trkpt><trkpt lat="42.3557959" lon="13.4054668"><ele>710.4</ele><time>2026-05-02T17:30:40.344Z</time></trkpt><trkpt lat="42.3557654" lon="13.4053847"><ele>711.0</ele><time>2026-05-02T17:30:41.34Z</time></trkpt><trkpt lat="42.3557378" lon="13.4052782"><ele>711.0</ele><time>2026-05-02T17:30:42.354Z</time></trkpt><trkpt lat="42.3557073" lon="13.4051497"><ele>711.0</ele><time>2026-05-02T17:30:43.354Z</time></trkpt><trkpt lat="42.3556715" lon="13.405006"><ele>711.0</ele><time>2026-05-02T17:30:44.353Z</time></trkpt><trkpt lat="42.3556345" lon="13.4048576"><ele>711.0</ele><time>2026-05-02T17:30:45.352Z</time></trkpt><trkpt lat="42.3555968" lon="13.4047036"><ele>711.0</ele><time>2026-05-02T17:30:46.353Z</time></trkpt><trkpt lat="42.3555638" lon="13.404563"><ele>713.4</ele><time>2026-05-02T17:30:47.345Z</time></trkpt><trkpt lat="42.3555346" lon="13.404425"><ele>715.8</ele><time>2026-05-02T17:30:48.359Z</time></trkpt><trkpt lat="42.3555068" lon="13.4042788"><ele>718.1999999999999</ele><time>2026-05-02T17:30:49.357Z</time></trkpt><trkpt lat="42.3554767" lon="13.4041362"><ele>720.5999999999999</ele><time>2026-05-02T17:30:50.356Z</time></trkpt><trkpt lat="42.3554444" lon="13.4039876"><ele>723.0</ele><time>2026-05-02T17:30:51.358Z</time></trkpt><trkpt lat="42.3554104" lon="13.4038282"><ele>723.0</ele><time>2026-05-02T17:30:52.353Z</time></trkpt><trkpt lat="42.3553741" lon="13.4036629"><ele>723.0</ele><time>2026-05-02T17:30:53.349Z</time></trkpt><trkpt lat="42.3553389" lon="13.4034953"><ele>723.0</ele><time>2026-05-02T17:30:54.349Z</time></trkpt><trkpt lat="42.355299" lon="13.4033469"><ele>723.0</ele><time>2026-05-02T17:30:55.344Z</time></trkpt><trkpt lat="42.3552511" lon="13.4032094"><ele>723.0</ele><time>2026-05-02T17:30:56.344Z</time></trkpt><trkpt lat="42.3551919" lon="13.4030783"><ele>723.0</ele><time>2026-05-02T17:30:57.345Z</time></trkpt><trkpt lat="42.3551192" lon="13.402949"><ele>723.0</ele><time>2026-05-02T17:30:58.335Z</time></trkpt><trkpt lat="42.355033" lon="13.4028246"><ele>723.0</ele><time>2026-05-02T17:30:59.338Z</time></trkpt><trkpt lat="42.3549376" lon="13.4027063"><ele>721.25</ele><time>2026-05-02T17:31:00.34Z</time></trkpt><trkpt lat="42.3548385" lon="13.4025904"><ele>719.5</ele><time>2026-05-02T17:31:01.338Z</time></trkpt><trkpt lat="42.3547337" lon="13.4024765"><ele>717.75</ele><time>2026-05-02T17:31:02.345Z</time></trkpt><trkpt lat="42.354633" lon="13.4023634"><ele>716.0</ele><time>2026-05-02T17:31:03.343Z</time></trkpt><trkpt lat="42.3545404" lon="13.4022548"><ele>718.0</ele><time>2026-05-02T17:31:04.352Z</time></trkpt><trkpt lat="42.3544589" lon="13.4021597"><ele>720.0</ele><time>2026-05-02T17:31:05.35Z</time></trkpt><trkpt lat="42.3543909" lon="13.4020637"><ele>722.0</ele><time>2026-05-02T17:31:06.344Z</time></trkpt><trkpt lat="42.3543521" lon="13.401969"><ele>724.0</ele><time>2026-05-02T17:31:07.348Z</time></trkpt><trkpt lat="42.3543317" lon="13.4018708"><ele>726.0</ele><time>2026-05-02T17:31:08.35Z</time></trkpt><trkpt lat="42.3543295" lon="13.4017654"><ele>728.0</ele><time>2026-05-02T17:31:09.34Z</time></trkpt><trkpt lat="42.354336" lon="13.4016608"><ele>728.0</ele><time>2026-05-02T17:31:10.342Z</time></trkpt><trkpt lat="42.3543458" lon="13.4015482"><ele>728.0</ele><time>2026-05-02T17:31:12.346Z</time></trkpt><trkpt lat="42.3543044" lon="13.4014652"><ele>728.0</ele><time>2026-05-02T17:31:18.375Z</time></trkpt><trkpt lat="42.3542266" lon="13.4014119"><ele>728.0</ele><time>2026-05-02T17:31:21.277Z</time></trkpt><trkpt lat="42.3541452" lon="13.4014107"><ele>728.0</ele><time>2026-05-02T17:31:24.276Z</time></trkpt><trkpt lat="42.3540797" lon="13.4013828"><ele>728.0</ele><time>2026-05-02T17:31:27.272Z</time></trkpt><trkpt lat="42.3540211" lon="13.4013271"><ele>728.4285714285714</ele><time>2026-05-02T17:31:31.271Z</time></trkpt><trkpt lat="42.3539656" lon="13.4012694"><ele>728.8571428571429</ele><time>2026-05-02T17:31:35.271Z</time></trkpt><trkpt lat="42.3539174" lon="13.4012145"><ele>729.2857142857142</ele><time>2026-05-02T17:31:38.273Z</time></trkpt><trkpt lat="42.3538551" lon="13.4011994"><ele>729.7142857142858</ele><time>2026-05-02T17:31:44.279Z</time></trkpt><trkpt lat="42.3538022" lon="13.4012474"><ele>730.1428571428571</ele><time>2026-05-02T17:31:46.284Z</time></trkpt><trkpt lat="42.3537654" lon="13.4013331"><ele>730.5714285714286</ele><time>2026-05-02T17:31:48.279Z</time></trkpt><trkpt lat="42.3537164" lon="13.4014061"><ele>731.0</ele><time>2026-05-02T17:31:50.281Z</time></trkpt><trkpt lat="42.3536613" lon="13.4014806"><ele>731.4285714285714</ele><time>2026-05-02T17:31:53.286Z</time></trkpt><trkpt lat="42.3536627" lon="13.4015685"><ele>731.8571428571429</ele><time>2026-05-02T17:31:56.282Z</time></trkpt><trkpt lat="42.3536802" lon="13.4016515"><ele>732.2857142857142</ele><time>2026-05-02T17:31:59.28Z</time></trkpt><trkpt lat="42.3537222" lon="13.4017175"><ele>732.7142857142858</ele><time>2026-05-02T17:32:05.274Z</time></trkpt><trkpt lat="42.353742" lon="13.4018119"><ele>733.1428571428572</ele><time>2026-05-02T17:32:08.276Z</time></trkpt><trkpt lat="42.3537605" lon="13.4019205"><ele>733.5714285714286</ele><time>2026-05-02T17:32:10.282Z</time></trkpt><trkpt lat="42.3537799" lon="13.4020383"><ele>734.0</ele><time>2026-05-02T17:32:12.281Z</time></trkpt><trkpt lat="42.3538018" lon="13.4021332"><ele>734.0</ele><time>2026-05-02T17:32:14.284Z</time></trkpt><trkpt lat="42.3537989" lon="13.4022255"><ele>735.0</ele><time>2026-05-02T17:32:16.282Z</time></trkpt><trkpt lat="42.3537855" lon="13.4023099"><ele>735.0</ele><time>2026-05-02T17:32:18.288Z</time></trkpt><trkpt lat="42.353806" lon="13.402395"><ele>735.0</ele><time>2026-05-02T17:32:21.276Z</time></trkpt><trkpt lat="42.3538342" lon="13.4024791"><ele>735.0</ele><time>2026-05-02T17:32:24.279Z</time></trkpt></trkseg></trk></gpx>